<?xml version="1.0" encoding="UTF-8" standalone="no" ?>
<gpx xmlns="http://www.topografix.com/GPX/1/1" xmlns:xsi="http://www.w3.org/2001/XMLSchema-instance" xsi:schemaLocation="http://www.topografix.com/GPX/1/1 http://www.topografix.com/GPX/1/1/gpx.xsd" version="1.1" creator="VisuGPX - https://www.visugpx.com">
  <metadata>
    <name>41 Km Dac Ride 2025</name>
  </metadata>
  <trk>
    <name><![CDATA[Gennes-Val de Loire Gravel bike_1]]></name>
    <extensions>
      <line xmlns="http://www.topografix.com/GPX/gpx_style/0/2">
        <color>0091FF</color>
        <opacity>1</opacity>
        <width>4</width>
          <extensions>
            <sens>1</sens>
          </extensions>
      </line>
    </extensions>
    <trkseg>
      <trkpt lat="47.30788" lon="-0.15257">
        <ele>28.8</ele>
        <time>2026-06-20T05:34:58Z</time>
        <extensions>
          <visugpx:TrkExtension xmlns:visugpx="https://www.visugpx.com/editgpx/">
            <visugpx:node>153</visugpx:node>
            </visugpx:TrkExtension>
        </extensions>
      </trkpt>
      <trkpt lat="47.30788" lon="-0.15256">
        <ele>26.6</ele>
        <time>2026-06-20T05:34:59Z</time>
      </trkpt>
      <trkpt lat="47.30786" lon="-0.15253">
        <ele>26.8</ele>
        <time>2026-06-20T05:35:26Z</time>
      </trkpt>
      <trkpt lat="47.30784" lon="-0.15253">
        <ele>26.6</ele>
        <time>2026-06-20T05:35:27Z</time>
      </trkpt>
      <trkpt lat="47.30781" lon="-0.15254">
        <ele>26.6</ele>
        <time>2026-06-20T05:35:28Z</time>
      </trkpt>
      <trkpt lat="47.30778" lon="-0.15254">
        <ele>26.6</ele>
        <time>2026-06-20T05:35:29Z</time>
      </trkpt>
      <trkpt lat="47.30776" lon="-0.15256">
        <ele>26.6</ele>
        <time>2026-06-20T05:35:30Z</time>
      </trkpt>
      <trkpt lat="47.30773" lon="-0.15257">
        <ele>26.6</ele>
        <time>2026-06-20T05:35:31Z</time>
      </trkpt>
      <trkpt lat="47.3077" lon="-0.15257">
        <ele>26.6</ele>
        <time>2026-06-20T05:35:32Z</time>
      </trkpt>
      <trkpt lat="47.30767" lon="-0.15254">
        <ele>26.6</ele>
        <time>2026-06-20T05:35:33Z</time>
      </trkpt>
      <trkpt lat="47.30764" lon="-0.15251">
        <ele>26.6</ele>
        <time>2026-06-20T05:35:34Z</time>
      </trkpt>
      <trkpt lat="47.30761" lon="-0.15246">
        <ele>26.6</ele>
        <time>2026-06-20T05:35:35Z</time>
      </trkpt>
      <trkpt lat="47.30758" lon="-0.15242">
        <ele>26.6</ele>
        <time>2026-06-20T05:35:36Z</time>
      </trkpt>
      <trkpt lat="47.30755" lon="-0.15237">
        <ele>26.6</ele>
        <time>2026-06-20T05:35:37Z</time>
      </trkpt>
      <trkpt lat="47.30752" lon="-0.15232">
        <ele>26.6</ele>
        <time>2026-06-20T05:35:38Z</time>
      </trkpt>
      <trkpt lat="47.30749" lon="-0.15227">
        <ele>26.6</ele>
        <time>2026-06-20T05:35:39Z</time>
      </trkpt>
      <trkpt lat="47.30747" lon="-0.15222">
        <ele>26.6</ele>
        <time>2026-06-20T05:35:40Z</time>
      </trkpt>
      <trkpt lat="47.30744" lon="-0.15216">
        <ele>26.6</ele>
        <time>2026-06-20T05:35:41Z</time>
      </trkpt>
      <trkpt lat="47.30742" lon="-0.1521">
        <ele>26.6</ele>
        <time>2026-06-20T05:35:42Z</time>
      </trkpt>
      <trkpt lat="47.30739" lon="-0.15204">
        <ele>26.6</ele>
        <time>2026-06-20T05:35:43Z</time>
      </trkpt>
      <trkpt lat="47.30737" lon="-0.15199">
        <ele>26.6</ele>
        <time>2026-06-20T05:35:44Z</time>
      </trkpt>
      <trkpt lat="47.30735" lon="-0.15193">
        <ele>26.6</ele>
        <time>2026-06-20T05:35:45Z</time>
      </trkpt>
      <trkpt lat="47.30733" lon="-0.15188">
        <ele>26.6</ele>
        <time>2026-06-20T05:35:46Z</time>
      </trkpt>
      <trkpt lat="47.30732" lon="-0.15183">
        <ele>26.6</ele>
        <time>2026-06-20T05:35:47Z</time>
      </trkpt>
      <trkpt lat="47.30729" lon="-0.1518">
        <ele>26.8</ele>
        <time>2026-06-20T05:35:48Z</time>
      </trkpt>
      <trkpt lat="47.30727" lon="-0.15178">
        <ele>26.8</ele>
        <time>2026-06-20T05:35:49Z</time>
      </trkpt>
      <trkpt lat="47.30724" lon="-0.15179">
        <ele>26.8</ele>
        <time>2026-06-20T05:35:50Z</time>
      </trkpt>
      <trkpt lat="47.30721" lon="-0.15181">
        <ele>26.8</ele>
        <time>2026-06-20T05:35:51Z</time>
      </trkpt>
      <trkpt lat="47.30719" lon="-0.15184">
        <ele>27</ele>
        <time>2026-06-20T05:35:52Z</time>
      </trkpt>
      <trkpt lat="47.30717" lon="-0.15187">
        <ele>27</ele>
        <time>2026-06-20T05:35:53Z</time>
      </trkpt>
      <trkpt lat="47.30715" lon="-0.1519">
        <ele>27.2</ele>
        <time>2026-06-20T05:35:54Z</time>
      </trkpt>
      <trkpt lat="47.30713" lon="-0.15194">
        <ele>27.2</ele>
        <time>2026-06-20T05:35:55Z</time>
      </trkpt>
      <trkpt lat="47.30712" lon="-0.15197">
        <ele>27.4</ele>
        <time>2026-06-20T05:35:56Z</time>
      </trkpt>
      <trkpt lat="47.30711" lon="-0.15201">
        <ele>27.6</ele>
        <time>2026-06-20T05:35:57Z</time>
      </trkpt>
      <trkpt lat="47.30709" lon="-0.15205">
        <ele>27.6</ele>
        <time>2026-06-20T05:35:58Z</time>
      </trkpt>
      <trkpt lat="47.30708" lon="-0.15208">
        <ele>27.8</ele>
        <time>2026-06-20T05:35:59Z</time>
      </trkpt>
      <trkpt lat="47.30706" lon="-0.15212">
        <ele>28</ele>
        <time>2026-06-20T05:36:00Z</time>
      </trkpt>
      <trkpt lat="47.30704" lon="-0.15215">
        <ele>28.2</ele>
        <time>2026-06-20T05:36:01Z</time>
      </trkpt>
      <trkpt lat="47.30703" lon="-0.15219">
        <ele>28.4</ele>
        <time>2026-06-20T05:36:02Z</time>
      </trkpt>
      <trkpt lat="47.30701" lon="-0.15222">
        <ele>28.6</ele>
        <time>2026-06-20T05:36:03Z</time>
      </trkpt>
      <trkpt lat="47.30699" lon="-0.15226">
        <ele>28.8</ele>
        <time>2026-06-20T05:36:04Z</time>
      </trkpt>
      <trkpt lat="47.30697" lon="-0.1523">
        <ele>29</ele>
        <time>2026-06-20T05:36:05Z</time>
      </trkpt>
      <trkpt lat="47.30696" lon="-0.15233">
        <ele>29.2</ele>
        <time>2026-06-20T05:36:06Z</time>
      </trkpt>
      <trkpt lat="47.30694" lon="-0.15237">
        <ele>29.4</ele>
        <time>2026-06-20T05:36:07Z</time>
      </trkpt>
      <trkpt lat="47.30693" lon="-0.1524">
        <ele>29.6</ele>
        <time>2026-06-20T05:36:08Z</time>
      </trkpt>
      <trkpt lat="47.30691" lon="-0.15244">
        <ele>30</ele>
        <time>2026-06-20T05:36:09Z</time>
      </trkpt>
      <trkpt lat="47.3069" lon="-0.15247">
        <ele>30.2</ele>
        <time>2026-06-20T05:36:10Z</time>
      </trkpt>
      <trkpt lat="47.30688" lon="-0.15251">
        <ele>30.4</ele>
        <time>2026-06-20T05:36:11Z</time>
      </trkpt>
      <trkpt lat="47.30687" lon="-0.15255">
        <ele>30.6</ele>
        <time>2026-06-20T05:36:12Z</time>
      </trkpt>
      <trkpt lat="47.30686" lon="-0.15259">
        <ele>31</ele>
        <time>2026-06-20T05:36:13Z</time>
      </trkpt>
      <trkpt lat="47.30684" lon="-0.15263">
        <ele>31.2</ele>
        <time>2026-06-20T05:36:14Z</time>
      </trkpt>
      <trkpt lat="47.30683" lon="-0.15267">
        <ele>31.4</ele>
        <time>2026-06-20T05:36:15Z</time>
      </trkpt>
      <trkpt lat="47.30682" lon="-0.15271">
        <ele>31.6</ele>
        <time>2026-06-20T05:36:16Z</time>
      </trkpt>
      <trkpt lat="47.3068" lon="-0.15275">
        <ele>31.8</ele>
        <time>2026-06-20T05:36:17Z</time>
      </trkpt>
      <trkpt lat="47.30679" lon="-0.15279">
        <ele>32</ele>
        <time>2026-06-20T05:36:18Z</time>
      </trkpt>
      <trkpt lat="47.30679" lon="-0.15283">
        <ele>32.2</ele>
        <time>2026-06-20T05:36:19Z</time>
      </trkpt>
      <trkpt lat="47.30678" lon="-0.15288">
        <ele>32.4</ele>
        <time>2026-06-20T05:36:20Z</time>
      </trkpt>
      <trkpt lat="47.30677" lon="-0.15292">
        <ele>32.6</ele>
        <time>2026-06-20T05:36:21Z</time>
      </trkpt>
      <trkpt lat="47.30676" lon="-0.15296">
        <ele>32.8</ele>
        <time>2026-06-20T05:36:22Z</time>
      </trkpt>
      <trkpt lat="47.30675" lon="-0.15299">
        <ele>33</ele>
        <time>2026-06-20T05:36:23Z</time>
      </trkpt>
      <trkpt lat="47.30674" lon="-0.15303">
        <ele>33.2</ele>
        <time>2026-06-20T05:36:24Z</time>
      </trkpt>
      <trkpt lat="47.30673" lon="-0.15307">
        <ele>33.4</ele>
        <time>2026-06-20T05:36:25Z</time>
      </trkpt>
      <trkpt lat="47.30672" lon="-0.15311">
        <ele>33.6</ele>
        <time>2026-06-20T05:36:26Z</time>
      </trkpt>
      <trkpt lat="47.30671" lon="-0.15314">
        <ele>33.8</ele>
        <time>2026-06-20T05:36:27Z</time>
      </trkpt>
      <trkpt lat="47.30669" lon="-0.15318">
        <ele>34</ele>
        <time>2026-06-20T05:36:28Z</time>
      </trkpt>
      <trkpt lat="47.30667" lon="-0.15322">
        <ele>34.2</ele>
        <time>2026-06-20T05:36:29Z</time>
      </trkpt>
      <trkpt lat="47.30666" lon="-0.15325">
        <ele>34.4</ele>
        <time>2026-06-20T05:36:30Z</time>
      </trkpt>
      <trkpt lat="47.30664" lon="-0.15329">
        <ele>34.6</ele>
        <time>2026-06-20T05:36:31Z</time>
      </trkpt>
      <trkpt lat="47.30662" lon="-0.15331">
        <ele>35</ele>
        <time>2026-06-20T05:36:32Z</time>
      </trkpt>
      <trkpt lat="47.3066" lon="-0.15334">
        <ele>35.2</ele>
        <time>2026-06-20T05:36:33Z</time>
      </trkpt>
      <trkpt lat="47.30658" lon="-0.15336">
        <ele>35.6</ele>
        <time>2026-06-20T05:36:34Z</time>
      </trkpt>
      <trkpt lat="47.30655" lon="-0.15338">
        <ele>35.8</ele>
        <time>2026-06-20T05:36:35Z</time>
      </trkpt>
      <trkpt lat="47.30653" lon="-0.1534">
        <ele>36.2</ele>
        <time>2026-06-20T05:36:36Z</time>
      </trkpt>
      <trkpt lat="47.30651" lon="-0.15342">
        <ele>36.4</ele>
        <time>2026-06-20T05:36:37Z</time>
      </trkpt>
      <trkpt lat="47.30648" lon="-0.15343">
        <ele>36.8</ele>
        <time>2026-06-20T05:36:38Z</time>
      </trkpt>
      <trkpt lat="47.30646" lon="-0.15345">
        <ele>37.2</ele>
        <time>2026-06-20T05:36:39Z</time>
      </trkpt>
      <trkpt lat="47.30644" lon="-0.15347">
        <ele>37.4</ele>
        <time>2026-06-20T05:36:40Z</time>
      </trkpt>
      <trkpt lat="47.30642" lon="-0.15348">
        <ele>37.8</ele>
        <time>2026-06-20T05:36:41Z</time>
      </trkpt>
      <trkpt lat="47.3064" lon="-0.1535">
        <ele>38</ele>
        <time>2026-06-20T05:36:42Z</time>
      </trkpt>
      <trkpt lat="47.30638" lon="-0.15352">
        <ele>38.4</ele>
        <time>2026-06-20T05:36:43Z</time>
      </trkpt>
      <trkpt lat="47.30636" lon="-0.15354">
        <ele>38.6</ele>
        <time>2026-06-20T05:36:44Z</time>
      </trkpt>
      <trkpt lat="47.30633" lon="-0.15355">
        <ele>38.8</ele>
        <time>2026-06-20T05:36:45Z</time>
      </trkpt>
      <trkpt lat="47.30631" lon="-0.15357">
        <ele>39</ele>
        <time>2026-06-20T05:36:46Z</time>
      </trkpt>
      <trkpt lat="47.30629" lon="-0.15359">
        <ele>39.4</ele>
        <time>2026-06-20T05:36:47Z</time>
      </trkpt>
      <trkpt lat="47.30627" lon="-0.15361">
        <ele>39.4</ele>
        <time>2026-06-20T05:36:48Z</time>
      </trkpt>
      <trkpt lat="47.30625" lon="-0.15363">
        <ele>39.6</ele>
        <time>2026-06-20T05:36:49Z</time>
      </trkpt>
      <trkpt lat="47.30623" lon="-0.15365">
        <ele>40</ele>
        <time>2026-06-20T05:36:50Z</time>
      </trkpt>
      <trkpt lat="47.30621" lon="-0.15368">
        <ele>40</ele>
        <time>2026-06-20T05:36:51Z</time>
      </trkpt>
      <trkpt lat="47.30619" lon="-0.1537">
        <ele>40.2</ele>
        <time>2026-06-20T05:36:52Z</time>
      </trkpt>
      <trkpt lat="47.30618" lon="-0.15373">
        <ele>40.4</ele>
        <time>2026-06-20T05:36:53Z</time>
      </trkpt>
      <trkpt lat="47.30616" lon="-0.15376">
        <ele>40.6</ele>
        <time>2026-06-20T05:36:54Z</time>
      </trkpt>
      <trkpt lat="47.30615" lon="-0.15379">
        <ele>40.8</ele>
        <time>2026-06-20T05:36:55Z</time>
      </trkpt>
      <trkpt lat="47.30614" lon="-0.15382">
        <ele>41.2</ele>
        <time>2026-06-20T05:36:56Z</time>
      </trkpt>
      <trkpt lat="47.30614" lon="-0.15386">
        <ele>41.4</ele>
        <time>2026-06-20T05:36:57Z</time>
      </trkpt>
      <trkpt lat="47.30613" lon="-0.15389">
        <ele>41.6</ele>
        <time>2026-06-20T05:36:58Z</time>
      </trkpt>
      <trkpt lat="47.30612" lon="-0.15392">
        <ele>41.8</ele>
        <time>2026-06-20T05:36:59Z</time>
      </trkpt>
      <trkpt lat="47.30612" lon="-0.15395">
        <ele>42</ele>
        <time>2026-06-20T05:37:00Z</time>
      </trkpt>
      <trkpt lat="47.30611" lon="-0.15399">
        <ele>42.4</ele>
        <time>2026-06-20T05:37:01Z</time>
      </trkpt>
      <trkpt lat="47.30611" lon="-0.15401">
        <ele>42.6</ele>
        <time>2026-06-20T05:37:02Z</time>
      </trkpt>
      <trkpt lat="47.3061" lon="-0.15404">
        <ele>43</ele>
        <time>2026-06-20T05:37:03Z</time>
      </trkpt>
      <trkpt lat="47.30609" lon="-0.15407">
        <ele>43.4</ele>
        <time>2026-06-20T05:37:04Z</time>
      </trkpt>
      <trkpt lat="47.30608" lon="-0.15409">
        <ele>43.6</ele>
        <time>2026-06-20T05:37:05Z</time>
      </trkpt>
      <trkpt lat="47.30608" lon="-0.15412">
        <ele>44</ele>
        <time>2026-06-20T05:37:06Z</time>
      </trkpt>
      <trkpt lat="47.30607" lon="-0.15415">
        <ele>44.2</ele>
        <time>2026-06-20T05:37:07Z</time>
      </trkpt>
      <trkpt lat="47.30606" lon="-0.15418">
        <ele>44.4</ele>
        <time>2026-06-20T05:37:08Z</time>
      </trkpt>
      <trkpt lat="47.30605" lon="-0.1542">
        <ele>44.8</ele>
        <time>2026-06-20T05:37:09Z</time>
      </trkpt>
      <trkpt lat="47.30604" lon="-0.15423">
        <ele>45</ele>
        <time>2026-06-20T05:37:10Z</time>
      </trkpt>
      <trkpt lat="47.30603" lon="-0.15425">
        <ele>45.4</ele>
        <time>2026-06-20T05:37:11Z</time>
      </trkpt>
      <trkpt lat="47.30603" lon="-0.15427">
        <ele>45.6</ele>
        <time>2026-06-20T05:37:12Z</time>
      </trkpt>
      <trkpt lat="47.30601" lon="-0.15429">
        <ele>46</ele>
        <time>2026-06-20T05:37:13Z</time>
      </trkpt>
      <trkpt lat="47.306" lon="-0.15431">
        <ele>46.2</ele>
        <time>2026-06-20T05:37:14Z</time>
      </trkpt>
      <trkpt lat="47.30599" lon="-0.15433">
        <ele>46.6</ele>
        <time>2026-06-20T05:37:15Z</time>
      </trkpt>
      <trkpt lat="47.30597" lon="-0.15434">
        <ele>46.8</ele>
        <time>2026-06-20T05:37:16Z</time>
      </trkpt>
      <trkpt lat="47.30595" lon="-0.15436">
        <ele>47</ele>
        <time>2026-06-20T05:37:17Z</time>
      </trkpt>
      <trkpt lat="47.30593" lon="-0.15437">
        <ele>47.2</ele>
        <time>2026-06-20T05:37:18Z</time>
      </trkpt>
      <trkpt lat="47.30591" lon="-0.15438">
        <ele>47.4</ele>
        <time>2026-06-20T05:37:19Z</time>
      </trkpt>
      <trkpt lat="47.3059" lon="-0.15438">
        <ele>47.6</ele>
        <time>2026-06-20T05:37:20Z</time>
      </trkpt>
      <trkpt lat="47.30589" lon="-0.15439">
        <ele>48</ele>
        <time>2026-06-20T05:37:21Z</time>
      </trkpt>
      <trkpt lat="47.30587" lon="-0.1544">
        <ele>48.2</ele>
        <time>2026-06-20T05:37:22Z</time>
      </trkpt>
      <trkpt lat="47.30586" lon="-0.1544">
        <ele>48.4</ele>
        <time>2026-06-20T05:37:23Z</time>
      </trkpt>
      <trkpt lat="47.30584" lon="-0.15441">
        <ele>48.6</ele>
        <time>2026-06-20T05:37:24Z</time>
      </trkpt>
      <trkpt lat="47.30583" lon="-0.15441">
        <ele>48.8</ele>
        <time>2026-06-20T05:37:25Z</time>
      </trkpt>
      <trkpt lat="47.30581" lon="-0.15441">
        <ele>49</ele>
        <time>2026-06-20T05:37:26Z</time>
      </trkpt>
      <trkpt lat="47.30579" lon="-0.15441">
        <ele>49.2</ele>
        <time>2026-06-20T05:37:27Z</time>
      </trkpt>
      <trkpt lat="47.30577" lon="-0.15442">
        <ele>49.6</ele>
        <time>2026-06-20T05:37:28Z</time>
      </trkpt>
      <trkpt lat="47.30575" lon="-0.15442">
        <ele>49.8</ele>
        <time>2026-06-20T05:37:29Z</time>
      </trkpt>
      <trkpt lat="47.30573" lon="-0.15442">
        <ele>50</ele>
        <time>2026-06-20T05:37:30Z</time>
      </trkpt>
      <trkpt lat="47.30571" lon="-0.15441">
        <ele>50.2</ele>
        <time>2026-06-20T05:37:31Z</time>
      </trkpt>
      <trkpt lat="47.30569" lon="-0.15441">
        <ele>50.4</ele>
        <time>2026-06-20T05:37:32Z</time>
      </trkpt>
      <trkpt lat="47.30566" lon="-0.15442">
        <ele>50.6</ele>
        <time>2026-06-20T05:37:33Z</time>
      </trkpt>
      <trkpt lat="47.30564" lon="-0.15442">
        <ele>50.8</ele>
        <time>2026-06-20T05:37:34Z</time>
      </trkpt>
      <trkpt lat="47.30562" lon="-0.15442">
        <ele>51</ele>
        <time>2026-06-20T05:37:35Z</time>
      </trkpt>
      <trkpt lat="47.3056" lon="-0.15441">
        <ele>51.2</ele>
        <time>2026-06-20T05:37:36Z</time>
      </trkpt>
      <trkpt lat="47.30559" lon="-0.15441">
        <ele>51.4</ele>
        <time>2026-06-20T05:37:37Z</time>
      </trkpt>
      <trkpt lat="47.30558" lon="-0.15441">
        <ele>51.6</ele>
        <time>2026-06-20T05:37:38Z</time>
      </trkpt>
      <trkpt lat="47.30556" lon="-0.1544">
        <ele>51.8</ele>
        <time>2026-06-20T05:37:39Z</time>
      </trkpt>
      <trkpt lat="47.30554" lon="-0.15439">
        <ele>52.2</ele>
        <time>2026-06-20T05:37:40Z</time>
      </trkpt>
      <trkpt lat="47.30552" lon="-0.15439">
        <ele>52.4</ele>
        <time>2026-06-20T05:37:41Z</time>
      </trkpt>
      <trkpt lat="47.30551" lon="-0.15439">
        <ele>52.6</ele>
        <time>2026-06-20T05:37:42Z</time>
      </trkpt>
      <trkpt lat="47.30549" lon="-0.15438">
        <ele>52.8</ele>
        <time>2026-06-20T05:37:43Z</time>
      </trkpt>
      <trkpt lat="47.30547" lon="-0.15437">
        <ele>53</ele>
        <time>2026-06-20T05:37:44Z</time>
      </trkpt>
      <trkpt lat="47.30546" lon="-0.15437">
        <ele>53.2</ele>
        <time>2026-06-20T05:37:45Z</time>
      </trkpt>
      <trkpt lat="47.30544" lon="-0.15437">
        <ele>53.4</ele>
        <time>2026-06-20T05:37:46Z</time>
      </trkpt>
      <trkpt lat="47.30542" lon="-0.15436">
        <ele>53.6</ele>
        <time>2026-06-20T05:37:47Z</time>
      </trkpt>
      <trkpt lat="47.3054" lon="-0.15436">
        <ele>53.8</ele>
        <time>2026-06-20T05:37:48Z</time>
      </trkpt>
      <trkpt lat="47.30538" lon="-0.15435">
        <ele>54.2</ele>
        <time>2026-06-20T05:37:49Z</time>
      </trkpt>
      <trkpt lat="47.30537" lon="-0.15434">
        <ele>54.4</ele>
        <time>2026-06-20T05:37:50Z</time>
      </trkpt>
      <trkpt lat="47.30535" lon="-0.15433">
        <ele>54.6</ele>
        <time>2026-06-20T05:37:51Z</time>
      </trkpt>
      <trkpt lat="47.30534" lon="-0.15432">
        <ele>54.8</ele>
        <time>2026-06-20T05:37:52Z</time>
      </trkpt>
      <trkpt lat="47.30532" lon="-0.15432">
        <ele>55.2</ele>
        <time>2026-06-20T05:37:53Z</time>
      </trkpt>
      <trkpt lat="47.30531" lon="-0.15431">
        <ele>55.4</ele>
        <time>2026-06-20T05:37:54Z</time>
      </trkpt>
      <trkpt lat="47.30529" lon="-0.15429">
        <ele>55.6</ele>
        <time>2026-06-20T05:37:55Z</time>
      </trkpt>
      <trkpt lat="47.30527" lon="-0.15428">
        <ele>55.8</ele>
        <time>2026-06-20T05:37:56Z</time>
      </trkpt>
      <trkpt lat="47.30525" lon="-0.15427">
        <ele>56</ele>
        <time>2026-06-20T05:37:57Z</time>
      </trkpt>
      <trkpt lat="47.30523" lon="-0.15426">
        <ele>56.2</ele>
        <time>2026-06-20T05:37:58Z</time>
      </trkpt>
      <trkpt lat="47.30522" lon="-0.15425">
        <ele>56.4</ele>
        <time>2026-06-20T05:37:59Z</time>
      </trkpt>
      <trkpt lat="47.30519" lon="-0.15423">
        <ele>56.4</ele>
        <time>2026-06-20T05:38:00Z</time>
      </trkpt>
      <trkpt lat="47.30517" lon="-0.15422">
        <ele>56.6</ele>
        <time>2026-06-20T05:38:01Z</time>
      </trkpt>
      <trkpt lat="47.30515" lon="-0.15421">
        <ele>56.8</ele>
        <time>2026-06-20T05:38:02Z</time>
      </trkpt>
      <trkpt lat="47.30513" lon="-0.1542">
        <ele>56.8</ele>
        <time>2026-06-20T05:38:03Z</time>
      </trkpt>
      <trkpt lat="47.30511" lon="-0.15418">
        <ele>57</ele>
        <time>2026-06-20T05:38:04Z</time>
      </trkpt>
      <trkpt lat="47.30509" lon="-0.15416">
        <ele>57.2</ele>
        <time>2026-06-20T05:38:05Z</time>
      </trkpt>
      <trkpt lat="47.30507" lon="-0.15415">
        <ele>57.4</ele>
        <time>2026-06-20T05:38:06Z</time>
      </trkpt>
      <trkpt lat="47.30505" lon="-0.15413">
        <ele>57.4</ele>
        <time>2026-06-20T05:38:07Z</time>
      </trkpt>
      <trkpt lat="47.30503" lon="-0.15411">
        <ele>57.6</ele>
        <time>2026-06-20T05:38:08Z</time>
      </trkpt>
      <trkpt lat="47.30501" lon="-0.15409">
        <ele>57.8</ele>
        <time>2026-06-20T05:38:09Z</time>
      </trkpt>
      <trkpt lat="47.30498" lon="-0.15408">
        <ele>58</ele>
        <time>2026-06-20T05:38:10Z</time>
      </trkpt>
      <trkpt lat="47.30497" lon="-0.15406">
        <ele>58.2</ele>
        <time>2026-06-20T05:38:11Z</time>
      </trkpt>
      <trkpt lat="47.30494" lon="-0.15406">
        <ele>58.4</ele>
        <time>2026-06-20T05:38:12Z</time>
      </trkpt>
      <trkpt lat="47.30492" lon="-0.15404">
        <ele>58.6</ele>
        <time>2026-06-20T05:38:13Z</time>
      </trkpt>
      <trkpt lat="47.3049" lon="-0.15402">
        <ele>58.8</ele>
        <time>2026-06-20T05:38:14Z</time>
      </trkpt>
      <trkpt lat="47.30488" lon="-0.154">
        <ele>59</ele>
        <time>2026-06-20T05:38:15Z</time>
      </trkpt>
      <trkpt lat="47.30486" lon="-0.15398">
        <ele>59.4</ele>
        <time>2026-06-20T05:38:16Z</time>
      </trkpt>
      <trkpt lat="47.30485" lon="-0.15396">
        <ele>59.6</ele>
        <time>2026-06-20T05:38:17Z</time>
      </trkpt>
      <trkpt lat="47.30483" lon="-0.15395">
        <ele>59.8</ele>
        <time>2026-06-20T05:38:18Z</time>
      </trkpt>
      <trkpt lat="47.30481" lon="-0.15394">
        <ele>60</ele>
        <time>2026-06-20T05:38:19Z</time>
      </trkpt>
      <trkpt lat="47.3048" lon="-0.15392">
        <ele>60.2</ele>
        <time>2026-06-20T05:38:20Z</time>
      </trkpt>
      <trkpt lat="47.30478" lon="-0.15391">
        <ele>60.4</ele>
        <time>2026-06-20T05:38:21Z</time>
      </trkpt>
      <trkpt lat="47.30477" lon="-0.15391">
        <ele>60.6</ele>
        <time>2026-06-20T05:38:22Z</time>
      </trkpt>
      <trkpt lat="47.30475" lon="-0.15389">
        <ele>60.8</ele>
        <time>2026-06-20T05:38:23Z</time>
      </trkpt>
      <trkpt lat="47.30474" lon="-0.15388">
        <ele>61.2</ele>
        <time>2026-06-20T05:38:24Z</time>
      </trkpt>
      <trkpt lat="47.30473" lon="-0.15387">
        <ele>61.2</ele>
        <time>2026-06-20T05:38:25Z</time>
      </trkpt>
      <trkpt lat="47.30471" lon="-0.15386">
        <ele>61.6</ele>
        <time>2026-06-20T05:38:26Z</time>
      </trkpt>
      <trkpt lat="47.3047" lon="-0.15385">
        <ele>61.8</ele>
        <time>2026-06-20T05:38:27Z</time>
      </trkpt>
      <trkpt lat="47.30468" lon="-0.15383">
        <ele>62</ele>
        <time>2026-06-20T05:38:28Z</time>
      </trkpt>
      <trkpt lat="47.30466" lon="-0.15382">
        <ele>62.2</ele>
        <time>2026-06-20T05:38:29Z</time>
      </trkpt>
      <trkpt lat="47.30464" lon="-0.15381">
        <ele>62.4</ele>
        <time>2026-06-20T05:38:30Z</time>
      </trkpt>
      <trkpt lat="47.30462" lon="-0.1538">
        <ele>62.6</ele>
        <time>2026-06-20T05:38:31Z</time>
      </trkpt>
      <trkpt lat="47.30461" lon="-0.15379">
        <ele>62.8</ele>
        <time>2026-06-20T05:38:32Z</time>
      </trkpt>
      <trkpt lat="47.30459" lon="-0.15378">
        <ele>63</ele>
        <time>2026-06-20T05:38:33Z</time>
      </trkpt>
      <trkpt lat="47.30458" lon="-0.15377">
        <ele>63.2</ele>
        <time>2026-06-20T05:38:34Z</time>
      </trkpt>
      <trkpt lat="47.30456" lon="-0.15375">
        <ele>63.4</ele>
        <time>2026-06-20T05:38:35Z</time>
      </trkpt>
      <trkpt lat="47.30455" lon="-0.15374">
        <ele>63.8</ele>
        <time>2026-06-20T05:38:36Z</time>
      </trkpt>
      <trkpt lat="47.30453" lon="-0.15373">
        <ele>64</ele>
        <time>2026-06-20T05:38:37Z</time>
      </trkpt>
      <trkpt lat="47.30452" lon="-0.15372">
        <ele>64.2</ele>
        <time>2026-06-20T05:38:38Z</time>
      </trkpt>
      <trkpt lat="47.3045" lon="-0.15371">
        <ele>64.4</ele>
        <time>2026-06-20T05:38:39Z</time>
      </trkpt>
      <trkpt lat="47.30448" lon="-0.1537">
        <ele>64.6</ele>
        <time>2026-06-20T05:38:40Z</time>
      </trkpt>
      <trkpt lat="47.30446" lon="-0.15369">
        <ele>64.8</ele>
        <time>2026-06-20T05:38:41Z</time>
      </trkpt>
      <trkpt lat="47.30445" lon="-0.15367">
        <ele>65.2</ele>
        <time>2026-06-20T05:38:42Z</time>
      </trkpt>
      <trkpt lat="47.30443" lon="-0.15366">
        <ele>65.4</ele>
        <time>2026-06-20T05:38:43Z</time>
      </trkpt>
      <trkpt lat="47.30441" lon="-0.15364">
        <ele>65.6</ele>
        <time>2026-06-20T05:38:44Z</time>
      </trkpt>
      <trkpt lat="47.30439" lon="-0.15363">
        <ele>65.8</ele>
        <time>2026-06-20T05:38:45Z</time>
      </trkpt>
      <trkpt lat="47.30437" lon="-0.15362">
        <ele>66</ele>
        <time>2026-06-20T05:38:46Z</time>
      </trkpt>
      <trkpt lat="47.30436" lon="-0.15361">
        <ele>66.2</ele>
        <time>2026-06-20T05:38:47Z</time>
      </trkpt>
      <trkpt lat="47.30435" lon="-0.1536">
        <ele>66.4</ele>
        <time>2026-06-20T05:38:48Z</time>
      </trkpt>
      <trkpt lat="47.30433" lon="-0.15358">
        <ele>66.6</ele>
        <time>2026-06-20T05:38:49Z</time>
      </trkpt>
      <trkpt lat="47.30431" lon="-0.15357">
        <ele>66.8</ele>
        <time>2026-06-20T05:38:50Z</time>
      </trkpt>
      <trkpt lat="47.30429" lon="-0.15357">
        <ele>67</ele>
        <time>2026-06-20T05:38:51Z</time>
      </trkpt>
      <trkpt lat="47.30427" lon="-0.15355">
        <ele>67.2</ele>
        <time>2026-06-20T05:38:52Z</time>
      </trkpt>
      <trkpt lat="47.30425" lon="-0.15354">
        <ele>67.4</ele>
        <time>2026-06-20T05:38:53Z</time>
      </trkpt>
      <trkpt lat="47.30423" lon="-0.15352">
        <ele>67.6</ele>
        <time>2026-06-20T05:38:54Z</time>
      </trkpt>
      <trkpt lat="47.30421" lon="-0.15351">
        <ele>67.8</ele>
        <time>2026-06-20T05:38:55Z</time>
      </trkpt>
      <trkpt lat="47.30419" lon="-0.1535">
        <ele>68</ele>
        <time>2026-06-20T05:38:56Z</time>
      </trkpt>
      <trkpt lat="47.30417" lon="-0.15348">
        <ele>68.2</ele>
        <time>2026-06-20T05:38:57Z</time>
      </trkpt>
      <trkpt lat="47.30415" lon="-0.15347">
        <ele>68.4</ele>
        <time>2026-06-20T05:38:58Z</time>
      </trkpt>
      <trkpt lat="47.30412" lon="-0.15346">
        <ele>68.4</ele>
        <time>2026-06-20T05:38:59Z</time>
      </trkpt>
      <trkpt lat="47.3041" lon="-0.15346">
        <ele>68.6</ele>
        <time>2026-06-20T05:39:00Z</time>
      </trkpt>
      <trkpt lat="47.30408" lon="-0.15345">
        <ele>68.8</ele>
        <time>2026-06-20T05:39:01Z</time>
      </trkpt>
      <trkpt lat="47.30407" lon="-0.15343">
        <ele>68.8</ele>
        <time>2026-06-20T05:39:02Z</time>
      </trkpt>
      <trkpt lat="47.30407" lon="-0.15339">
        <ele>69</ele>
        <time>2026-06-20T05:39:03Z</time>
      </trkpt>
      <trkpt lat="47.30407" lon="-0.15336">
        <ele>69.2</ele>
        <time>2026-06-20T05:39:04Z</time>
      </trkpt>
      <trkpt lat="47.30407" lon="-0.15332">
        <ele>69.2</ele>
        <time>2026-06-20T05:39:05Z</time>
      </trkpt>
      <trkpt lat="47.30406" lon="-0.15329">
        <ele>69.2</ele>
        <time>2026-06-20T05:39:06Z</time>
      </trkpt>
      <trkpt lat="47.30405" lon="-0.15325">
        <ele>69.4</ele>
        <time>2026-06-20T05:39:07Z</time>
      </trkpt>
      <trkpt lat="47.30404" lon="-0.15323">
        <ele>69.4</ele>
        <time>2026-06-20T05:39:08Z</time>
      </trkpt>
      <trkpt lat="47.30403" lon="-0.1532">
        <ele>69.6</ele>
        <time>2026-06-20T05:39:09Z</time>
      </trkpt>
      <trkpt lat="47.30402" lon="-0.15317">
        <ele>69.6</ele>
        <time>2026-06-20T05:39:10Z</time>
      </trkpt>
      <trkpt lat="47.30401" lon="-0.15315">
        <ele>69.8</ele>
        <time>2026-06-20T05:39:11Z</time>
      </trkpt>
      <trkpt lat="47.304" lon="-0.15312">
        <ele>69.8</ele>
        <time>2026-06-20T05:39:12Z</time>
      </trkpt>
      <trkpt lat="47.30399" lon="-0.1531">
        <ele>70</ele>
        <time>2026-06-20T05:39:13Z</time>
      </trkpt>
      <trkpt lat="47.30398" lon="-0.15307">
        <ele>70.2</ele>
        <time>2026-06-20T05:39:14Z</time>
      </trkpt>
      <trkpt lat="47.30397" lon="-0.15305">
        <ele>70.2</ele>
        <time>2026-06-20T05:39:15Z</time>
      </trkpt>
      <trkpt lat="47.30395" lon="-0.15303">
        <ele>70.4</ele>
        <time>2026-06-20T05:39:16Z</time>
      </trkpt>
      <trkpt lat="47.30393" lon="-0.153">
        <ele>70.6</ele>
        <time>2026-06-20T05:39:17Z</time>
      </trkpt>
      <trkpt lat="47.30392" lon="-0.15298">
        <ele>70.8</ele>
        <time>2026-06-20T05:39:18Z</time>
      </trkpt>
      <trkpt lat="47.30391" lon="-0.15295">
        <ele>71</ele>
        <time>2026-06-20T05:39:19Z</time>
      </trkpt>
      <trkpt lat="47.30388" lon="-0.15292">
        <ele>71</ele>
        <time>2026-06-20T05:39:20Z</time>
      </trkpt>
      <trkpt lat="47.30386" lon="-0.1529">
        <ele>71.2</ele>
        <time>2026-06-20T05:39:21Z</time>
      </trkpt>
      <trkpt lat="47.30385" lon="-0.15289">
        <ele>71.4</ele>
        <time>2026-06-20T05:39:22Z</time>
      </trkpt>
      <trkpt lat="47.30382" lon="-0.15287">
        <ele>71.6</ele>
        <time>2026-06-20T05:39:23Z</time>
      </trkpt>
      <trkpt lat="47.3038" lon="-0.15285">
        <ele>71.8</ele>
        <time>2026-06-20T05:39:24Z</time>
      </trkpt>
      <trkpt lat="47.30379" lon="-0.15283">
        <ele>72</ele>
        <time>2026-06-20T05:39:25Z</time>
      </trkpt>
      <trkpt lat="47.30377" lon="-0.15281">
        <ele>72.2</ele>
        <time>2026-06-20T05:39:26Z</time>
      </trkpt>
      <trkpt lat="47.30375" lon="-0.15279">
        <ele>72.4</ele>
        <time>2026-06-20T05:39:27Z</time>
      </trkpt>
      <trkpt lat="47.30373" lon="-0.15277">
        <ele>72.6</ele>
        <time>2026-06-20T05:39:28Z</time>
      </trkpt>
      <trkpt lat="47.30372" lon="-0.15274">
        <ele>72.8</ele>
        <time>2026-06-20T05:39:29Z</time>
      </trkpt>
      <trkpt lat="47.3037" lon="-0.15272">
        <ele>73</ele>
        <time>2026-06-20T05:39:30Z</time>
      </trkpt>
      <trkpt lat="47.30369" lon="-0.15269">
        <ele>73.2</ele>
        <time>2026-06-20T05:39:31Z</time>
      </trkpt>
      <trkpt lat="47.30367" lon="-0.15267">
        <ele>73.4</ele>
        <time>2026-06-20T05:39:32Z</time>
      </trkpt>
      <trkpt lat="47.30365" lon="-0.15265">
        <ele>73.4</ele>
        <time>2026-06-20T05:39:33Z</time>
      </trkpt>
      <trkpt lat="47.30363" lon="-0.15262">
        <ele>73.6</ele>
        <time>2026-06-20T05:39:34Z</time>
      </trkpt>
      <trkpt lat="47.30362" lon="-0.1526">
        <ele>73.8</ele>
        <time>2026-06-20T05:39:35Z</time>
      </trkpt>
      <trkpt lat="47.3036" lon="-0.15257">
        <ele>74</ele>
        <time>2026-06-20T05:39:36Z</time>
      </trkpt>
      <trkpt lat="47.30358" lon="-0.15255">
        <ele>74</ele>
        <time>2026-06-20T05:39:37Z</time>
      </trkpt>
      <trkpt lat="47.30357" lon="-0.15253">
        <ele>74.2</ele>
        <time>2026-06-20T05:39:38Z</time>
      </trkpt>
      <trkpt lat="47.30355" lon="-0.1525">
        <ele>74.4</ele>
        <time>2026-06-20T05:39:39Z</time>
      </trkpt>
      <trkpt lat="47.30354" lon="-0.15248">
        <ele>74.4</ele>
        <time>2026-06-20T05:39:40Z</time>
      </trkpt>
      <trkpt lat="47.30351" lon="-0.15246">
        <ele>74.6</ele>
        <time>2026-06-20T05:39:41Z</time>
      </trkpt>
      <trkpt lat="47.3035" lon="-0.15243">
        <ele>74.6</ele>
        <time>2026-06-20T05:39:42Z</time>
      </trkpt>
      <trkpt lat="47.30349" lon="-0.15242">
        <ele>74.8</ele>
        <time>2026-06-20T05:39:43Z</time>
      </trkpt>
      <trkpt lat="47.30347" lon="-0.15242">
        <ele>74.8</ele>
        <time>2026-06-20T05:39:44Z</time>
      </trkpt>
      <trkpt lat="47.30345" lon="-0.15243">
        <ele>75</ele>
        <time>2026-06-20T05:39:45Z</time>
      </trkpt>
      <trkpt lat="47.30343" lon="-0.15245">
        <ele>75</ele>
        <time>2026-06-20T05:39:46Z</time>
      </trkpt>
      <trkpt lat="47.30342" lon="-0.15247">
        <ele>75</ele>
        <time>2026-06-20T05:39:47Z</time>
      </trkpt>
      <trkpt lat="47.3034" lon="-0.15249">
        <ele>75.2</ele>
        <time>2026-06-20T05:39:48Z</time>
      </trkpt>
      <trkpt lat="47.30338" lon="-0.15251">
        <ele>75.2</ele>
        <time>2026-06-20T05:39:49Z</time>
      </trkpt>
      <trkpt lat="47.30336" lon="-0.15254">
        <ele>75.2</ele>
        <time>2026-06-20T05:39:50Z</time>
      </trkpt>
      <trkpt lat="47.30334" lon="-0.15258">
        <ele>75.2</ele>
        <time>2026-06-20T05:39:51Z</time>
      </trkpt>
      <trkpt lat="47.30332" lon="-0.1526">
        <ele>75.2</ele>
        <time>2026-06-20T05:39:52Z</time>
      </trkpt>
      <trkpt lat="47.3033" lon="-0.15263">
        <ele>75.2</ele>
        <time>2026-06-20T05:39:53Z</time>
      </trkpt>
      <trkpt lat="47.30327" lon="-0.15266">
        <ele>75.4</ele>
        <time>2026-06-20T05:39:54Z</time>
      </trkpt>
      <trkpt lat="47.30324" lon="-0.15269">
        <ele>75.4</ele>
        <time>2026-06-20T05:39:55Z</time>
      </trkpt>
      <trkpt lat="47.30322" lon="-0.15272">
        <ele>75.4</ele>
        <time>2026-06-20T05:39:56Z</time>
      </trkpt>
      <trkpt lat="47.30319" lon="-0.15276">
        <ele>75.6</ele>
        <time>2026-06-20T05:39:57Z</time>
      </trkpt>
      <trkpt lat="47.30317" lon="-0.15279">
        <ele>75.6</ele>
        <time>2026-06-20T05:39:58Z</time>
      </trkpt>
      <trkpt lat="47.30315" lon="-0.15283">
        <ele>75.6</ele>
        <time>2026-06-20T05:39:59Z</time>
      </trkpt>
      <trkpt lat="47.30312" lon="-0.15286">
        <ele>75.8</ele>
        <time>2026-06-20T05:40:00Z</time>
      </trkpt>
      <trkpt lat="47.3031" lon="-0.15289">
        <ele>75.8</ele>
        <time>2026-06-20T05:40:01Z</time>
      </trkpt>
      <trkpt lat="47.30308" lon="-0.15293">
        <ele>76</ele>
        <time>2026-06-20T05:40:02Z</time>
      </trkpt>
      <trkpt lat="47.30305" lon="-0.15294">
        <ele>76</ele>
        <time>2026-06-20T05:40:03Z</time>
      </trkpt>
      <trkpt lat="47.30301" lon="-0.15296">
        <ele>76.2</ele>
        <time>2026-06-20T05:40:04Z</time>
      </trkpt>
      <trkpt lat="47.30299" lon="-0.15296">
        <ele>76.2</ele>
        <time>2026-06-20T05:40:05Z</time>
      </trkpt>
      <trkpt lat="47.30295" lon="-0.15295">
        <ele>76.4</ele>
        <time>2026-06-20T05:40:06Z</time>
      </trkpt>
      <trkpt lat="47.30291" lon="-0.15294">
        <ele>76.4</ele>
        <time>2026-06-20T05:40:07Z</time>
      </trkpt>
      <trkpt lat="47.30288" lon="-0.15293">
        <ele>76.4</ele>
        <time>2026-06-20T05:40:08Z</time>
      </trkpt>
      <trkpt lat="47.30284" lon="-0.15293">
        <ele>76.4</ele>
        <time>2026-06-20T05:40:09Z</time>
      </trkpt>
      <trkpt lat="47.3028" lon="-0.15292">
        <ele>76.4</ele>
        <time>2026-06-20T05:40:10Z</time>
      </trkpt>
      <trkpt lat="47.30277" lon="-0.15293">
        <ele>76.6</ele>
        <time>2026-06-20T05:40:11Z</time>
      </trkpt>
      <trkpt lat="47.30274" lon="-0.15293">
        <ele>76.6</ele>
        <time>2026-06-20T05:40:12Z</time>
      </trkpt>
      <trkpt lat="47.30269" lon="-0.15293">
        <ele>76.6</ele>
        <time>2026-06-20T05:40:13Z</time>
      </trkpt>
      <trkpt lat="47.30266" lon="-0.15294">
        <ele>76.6</ele>
        <time>2026-06-20T05:40:14Z</time>
      </trkpt>
      <trkpt lat="47.30261" lon="-0.15295">
        <ele>76.6</ele>
        <time>2026-06-20T05:40:15Z</time>
      </trkpt>
      <trkpt lat="47.30257" lon="-0.15295">
        <ele>76.6</ele>
        <time>2026-06-20T05:40:16Z</time>
      </trkpt>
      <trkpt lat="47.30253" lon="-0.15295">
        <ele>76.8</ele>
        <time>2026-06-20T05:40:17Z</time>
      </trkpt>
      <trkpt lat="47.3025" lon="-0.15295">
        <ele>76.8</ele>
        <time>2026-06-20T05:40:18Z</time>
      </trkpt>
      <trkpt lat="47.30246" lon="-0.15295">
        <ele>76.8</ele>
        <time>2026-06-20T05:40:19Z</time>
      </trkpt>
      <trkpt lat="47.30242" lon="-0.15295">
        <ele>76.8</ele>
        <time>2026-06-20T05:40:20Z</time>
      </trkpt>
      <trkpt lat="47.30238" lon="-0.15296">
        <ele>76.8</ele>
        <time>2026-06-20T05:40:21Z</time>
      </trkpt>
      <trkpt lat="47.30234" lon="-0.15296">
        <ele>77</ele>
        <time>2026-06-20T05:40:22Z</time>
      </trkpt>
      <trkpt lat="47.3023" lon="-0.15297">
        <ele>77</ele>
        <time>2026-06-20T05:40:23Z</time>
      </trkpt>
      <trkpt lat="47.30226" lon="-0.15297">
        <ele>77</ele>
        <time>2026-06-20T05:40:24Z</time>
      </trkpt>
      <trkpt lat="47.30222" lon="-0.15297">
        <ele>77</ele>
        <time>2026-06-20T05:40:25Z</time>
      </trkpt>
      <trkpt lat="47.30218" lon="-0.15296">
        <ele>77</ele>
        <time>2026-06-20T05:40:26Z</time>
      </trkpt>
      <trkpt lat="47.30214" lon="-0.15295">
        <ele>77</ele>
        <time>2026-06-20T05:40:27Z</time>
      </trkpt>
      <trkpt lat="47.30211" lon="-0.15293">
        <ele>77</ele>
        <time>2026-06-20T05:40:28Z</time>
      </trkpt>
      <trkpt lat="47.30207" lon="-0.15291">
        <ele>77.2</ele>
        <time>2026-06-20T05:40:29Z</time>
      </trkpt>
      <trkpt lat="47.30204" lon="-0.15289">
        <ele>77.2</ele>
        <time>2026-06-20T05:40:30Z</time>
      </trkpt>
      <trkpt lat="47.302" lon="-0.15288">
        <ele>77.2</ele>
        <time>2026-06-20T05:40:31Z</time>
      </trkpt>
      <trkpt lat="47.30197" lon="-0.15286">
        <ele>77.4</ele>
        <time>2026-06-20T05:40:32Z</time>
      </trkpt>
      <trkpt lat="47.30193" lon="-0.15284">
        <ele>77.4</ele>
        <time>2026-06-20T05:40:33Z</time>
      </trkpt>
      <trkpt lat="47.30189" lon="-0.15282">
        <ele>77.4</ele>
        <time>2026-06-20T05:40:34Z</time>
      </trkpt>
      <trkpt lat="47.30185" lon="-0.1528">
        <ele>77.6</ele>
        <time>2026-06-20T05:40:35Z</time>
      </trkpt>
      <trkpt lat="47.30182" lon="-0.15277">
        <ele>77.4</ele>
        <time>2026-06-20T05:40:36Z</time>
      </trkpt>
      <trkpt lat="47.30179" lon="-0.15273">
        <ele>77.4</ele>
        <time>2026-06-20T05:40:37Z</time>
      </trkpt>
      <trkpt lat="47.30176" lon="-0.1527">
        <ele>77.4</ele>
        <time>2026-06-20T05:40:38Z</time>
      </trkpt>
      <trkpt lat="47.30173" lon="-0.15266">
        <ele>77.4</ele>
        <time>2026-06-20T05:40:39Z</time>
      </trkpt>
      <trkpt lat="47.3017" lon="-0.15262">
        <ele>77.4</ele>
        <time>2026-06-20T05:40:40Z</time>
      </trkpt>
      <trkpt lat="47.30167" lon="-0.15259">
        <ele>77.6</ele>
        <time>2026-06-20T05:40:41Z</time>
      </trkpt>
      <trkpt lat="47.30165" lon="-0.15255">
        <ele>77.6</ele>
        <time>2026-06-20T05:40:42Z</time>
      </trkpt>
      <trkpt lat="47.30163" lon="-0.1525">
        <ele>77.8</ele>
        <time>2026-06-20T05:40:43Z</time>
      </trkpt>
      <trkpt lat="47.30161" lon="-0.15247">
        <ele>77.8</ele>
        <time>2026-06-20T05:40:44Z</time>
      </trkpt>
      <trkpt lat="47.30159" lon="-0.15241">
        <ele>78</ele>
        <time>2026-06-20T05:40:45Z</time>
      </trkpt>
      <trkpt lat="47.30157" lon="-0.15235">
        <ele>78</ele>
        <time>2026-06-20T05:40:46Z</time>
      </trkpt>
      <trkpt lat="47.30155" lon="-0.1523">
        <ele>78.2</ele>
        <time>2026-06-20T05:40:47Z</time>
      </trkpt>
      <trkpt lat="47.30153" lon="-0.15225">
        <ele>78.2</ele>
        <time>2026-06-20T05:40:48Z</time>
      </trkpt>
      <trkpt lat="47.30152" lon="-0.15219">
        <ele>78.2</ele>
        <time>2026-06-20T05:40:49Z</time>
      </trkpt>
      <trkpt lat="47.3015" lon="-0.15212">
        <ele>78.2</ele>
        <time>2026-06-20T05:40:50Z</time>
      </trkpt>
      <trkpt lat="47.30148" lon="-0.15206">
        <ele>78.2</ele>
        <time>2026-06-20T05:40:51Z</time>
      </trkpt>
      <trkpt lat="47.30146" lon="-0.152">
        <ele>78</ele>
        <time>2026-06-20T05:40:52Z</time>
      </trkpt>
      <trkpt lat="47.30145" lon="-0.15194">
        <ele>78</ele>
        <time>2026-06-20T05:40:53Z</time>
      </trkpt>
      <trkpt lat="47.30144" lon="-0.15187">
        <ele>77.8</ele>
        <time>2026-06-20T05:40:54Z</time>
      </trkpt>
      <trkpt lat="47.30144" lon="-0.1518">
        <ele>77.8</ele>
        <time>2026-06-20T05:40:55Z</time>
      </trkpt>
      <trkpt lat="47.30144" lon="-0.15174">
        <ele>77.8</ele>
        <time>2026-06-20T05:40:56Z</time>
      </trkpt>
      <trkpt lat="47.30144" lon="-0.15165">
        <ele>77.8</ele>
        <time>2026-06-20T05:40:57Z</time>
      </trkpt>
      <trkpt lat="47.30144" lon="-0.15158">
        <ele>77.8</ele>
        <time>2026-06-20T05:40:58Z</time>
      </trkpt>
      <trkpt lat="47.30144" lon="-0.15151">
        <ele>77.8</ele>
        <time>2026-06-20T05:40:59Z</time>
      </trkpt>
      <trkpt lat="47.30143" lon="-0.15144">
        <ele>77.8</ele>
        <time>2026-06-20T05:41:00Z</time>
      </trkpt>
      <trkpt lat="47.30143" lon="-0.15137">
        <ele>77.8</ele>
        <time>2026-06-20T05:41:01Z</time>
      </trkpt>
      <trkpt lat="47.30143" lon="-0.15129">
        <ele>77.8</ele>
        <time>2026-06-20T05:41:02Z</time>
      </trkpt>
      <trkpt lat="47.30143" lon="-0.15122">
        <ele>77.8</ele>
        <time>2026-06-20T05:41:03Z</time>
      </trkpt>
      <trkpt lat="47.30143" lon="-0.15114">
        <ele>77.8</ele>
        <time>2026-06-20T05:41:04Z</time>
      </trkpt>
      <trkpt lat="47.30141" lon="-0.15109">
        <ele>78</ele>
        <time>2026-06-20T05:41:05Z</time>
      </trkpt>
      <trkpt lat="47.30139" lon="-0.15102">
        <ele>78</ele>
        <time>2026-06-20T05:41:06Z</time>
      </trkpt>
      <trkpt lat="47.30137" lon="-0.15097">
        <ele>78</ele>
        <time>2026-06-20T05:41:07Z</time>
      </trkpt>
      <trkpt lat="47.30134" lon="-0.15091">
        <ele>78</ele>
        <time>2026-06-20T05:41:08Z</time>
      </trkpt>
      <trkpt lat="47.30131" lon="-0.15086">
        <ele>78</ele>
        <time>2026-06-20T05:41:09Z</time>
      </trkpt>
      <trkpt lat="47.30127" lon="-0.15081">
        <ele>78.2</ele>
        <time>2026-06-20T05:41:10Z</time>
      </trkpt>
      <trkpt lat="47.30123" lon="-0.15075">
        <ele>78.2</ele>
        <time>2026-06-20T05:41:11Z</time>
      </trkpt>
      <trkpt lat="47.3012" lon="-0.15071">
        <ele>78.4</ele>
        <time>2026-06-20T05:41:12Z</time>
      </trkpt>
      <trkpt lat="47.30115" lon="-0.15066">
        <ele>78.4</ele>
        <time>2026-06-20T05:41:13Z</time>
      </trkpt>
      <trkpt lat="47.30111" lon="-0.15061">
        <ele>78.4</ele>
        <time>2026-06-20T05:41:14Z</time>
      </trkpt>
      <trkpt lat="47.30109" lon="-0.15058">
        <ele>78.4</ele>
        <time>2026-06-20T05:41:15Z</time>
      </trkpt>
      <trkpt lat="47.30105" lon="-0.15052">
        <ele>78.4</ele>
        <time>2026-06-20T05:41:16Z</time>
      </trkpt>
      <trkpt lat="47.30102" lon="-0.15048">
        <ele>78.4</ele>
        <time>2026-06-20T05:41:17Z</time>
      </trkpt>
      <trkpt lat="47.30099" lon="-0.15043">
        <ele>78.4</ele>
        <time>2026-06-20T05:41:18Z</time>
      </trkpt>
      <trkpt lat="47.30096" lon="-0.15039">
        <ele>78.4</ele>
        <time>2026-06-20T05:41:19Z</time>
      </trkpt>
      <trkpt lat="47.30092" lon="-0.15033">
        <ele>78.4</ele>
        <time>2026-06-20T05:41:20Z</time>
      </trkpt>
      <trkpt lat="47.30089" lon="-0.15028">
        <ele>78.4</ele>
        <time>2026-06-20T05:41:21Z</time>
      </trkpt>
      <trkpt lat="47.30086" lon="-0.15023">
        <ele>78.6</ele>
        <time>2026-06-20T05:41:22Z</time>
      </trkpt>
      <trkpt lat="47.30083" lon="-0.15018">
        <ele>78.6</ele>
        <time>2026-06-20T05:41:23Z</time>
      </trkpt>
      <trkpt lat="47.3008" lon="-0.15013">
        <ele>78.6</ele>
        <time>2026-06-20T05:41:24Z</time>
      </trkpt>
      <trkpt lat="47.30077" lon="-0.15008">
        <ele>78.8</ele>
        <time>2026-06-20T05:41:25Z</time>
      </trkpt>
      <trkpt lat="47.30074" lon="-0.15003">
        <ele>78.8</ele>
        <time>2026-06-20T05:41:26Z</time>
      </trkpt>
      <trkpt lat="47.30071" lon="-0.14998">
        <ele>78.8</ele>
        <time>2026-06-20T05:41:27Z</time>
      </trkpt>
      <trkpt lat="47.30068" lon="-0.14993">
        <ele>79</ele>
        <time>2026-06-20T05:41:28Z</time>
      </trkpt>
      <trkpt lat="47.30065" lon="-0.14988">
        <ele>79</ele>
        <time>2026-06-20T05:41:29Z</time>
      </trkpt>
      <trkpt lat="47.30062" lon="-0.14983">
        <ele>79</ele>
        <time>2026-06-20T05:41:30Z</time>
      </trkpt>
      <trkpt lat="47.30061" lon="-0.14976">
        <ele>79.2</ele>
        <time>2026-06-20T05:41:31Z</time>
      </trkpt>
      <trkpt lat="47.30062" lon="-0.1497">
        <ele>79.2</ele>
        <time>2026-06-20T05:41:32Z</time>
      </trkpt>
      <trkpt lat="47.30063" lon="-0.14964">
        <ele>79.2</ele>
        <time>2026-06-20T05:41:33Z</time>
      </trkpt>
      <trkpt lat="47.30064" lon="-0.14958">
        <ele>79.4</ele>
        <time>2026-06-20T05:41:34Z</time>
      </trkpt>
      <trkpt lat="47.30064" lon="-0.14951">
        <ele>79.4</ele>
        <time>2026-06-20T05:41:35Z</time>
      </trkpt>
      <trkpt lat="47.30063" lon="-0.14945">
        <ele>79.4</ele>
        <time>2026-06-20T05:41:36Z</time>
      </trkpt>
      <trkpt lat="47.30061" lon="-0.1494">
        <ele>79.4</ele>
        <time>2026-06-20T05:41:37Z</time>
      </trkpt>
      <trkpt lat="47.30057" lon="-0.14935">
        <ele>79.4</ele>
        <time>2026-06-20T05:41:38Z</time>
      </trkpt>
      <trkpt lat="47.30054" lon="-0.14931">
        <ele>79.4</ele>
        <time>2026-06-20T05:41:39Z</time>
      </trkpt>
      <trkpt lat="47.3005" lon="-0.14926">
        <ele>79.4</ele>
        <time>2026-06-20T05:41:40Z</time>
      </trkpt>
      <trkpt lat="47.30047" lon="-0.14921">
        <ele>79.4</ele>
        <time>2026-06-20T05:41:41Z</time>
      </trkpt>
      <trkpt lat="47.30044" lon="-0.14916">
        <ele>79.4</ele>
        <time>2026-06-20T05:41:42Z</time>
      </trkpt>
      <trkpt lat="47.3004" lon="-0.14912">
        <ele>79.2</ele>
        <time>2026-06-20T05:41:43Z</time>
      </trkpt>
      <trkpt lat="47.30037" lon="-0.14907">
        <ele>79.2</ele>
        <time>2026-06-20T05:41:44Z</time>
      </trkpt>
      <trkpt lat="47.30034" lon="-0.14903">
        <ele>79.2</ele>
        <time>2026-06-20T05:41:45Z</time>
      </trkpt>
      <trkpt lat="47.3003" lon="-0.14898">
        <ele>79.2</ele>
        <time>2026-06-20T05:41:46Z</time>
      </trkpt>
      <trkpt lat="47.30027" lon="-0.14893">
        <ele>79.4</ele>
        <time>2026-06-20T05:41:47Z</time>
      </trkpt>
      <trkpt lat="47.30024" lon="-0.14889">
        <ele>79.4</ele>
        <time>2026-06-20T05:41:48Z</time>
      </trkpt>
      <trkpt lat="47.3002" lon="-0.14884">
        <ele>79.4</ele>
        <time>2026-06-20T05:41:49Z</time>
      </trkpt>
      <trkpt lat="47.30017" lon="-0.1488">
        <ele>79.6</ele>
        <time>2026-06-20T05:41:50Z</time>
      </trkpt>
      <trkpt lat="47.30014" lon="-0.14875">
        <ele>79.6</ele>
        <time>2026-06-20T05:41:51Z</time>
      </trkpt>
      <trkpt lat="47.30011" lon="-0.1487">
        <ele>79.6</ele>
        <time>2026-06-20T05:41:52Z</time>
      </trkpt>
      <trkpt lat="47.30007" lon="-0.14865">
        <ele>79.6</ele>
        <time>2026-06-20T05:41:53Z</time>
      </trkpt>
      <trkpt lat="47.30004" lon="-0.1486">
        <ele>79.6</ele>
        <time>2026-06-20T05:41:54Z</time>
      </trkpt>
      <trkpt lat="47.30001" lon="-0.14855">
        <ele>79.6</ele>
        <time>2026-06-20T05:41:55Z</time>
      </trkpt>
      <trkpt lat="47.29997" lon="-0.1485">
        <ele>79.4</ele>
        <time>2026-06-20T05:41:56Z</time>
      </trkpt>
      <trkpt lat="47.29994" lon="-0.14845">
        <ele>79.4</ele>
        <time>2026-06-20T05:41:57Z</time>
      </trkpt>
      <trkpt lat="47.29991" lon="-0.1484">
        <ele>79.4</ele>
        <time>2026-06-20T05:41:58Z</time>
      </trkpt>
      <trkpt lat="47.29988" lon="-0.14836">
        <ele>79.4</ele>
        <time>2026-06-20T05:41:59Z</time>
      </trkpt>
      <trkpt lat="47.29984" lon="-0.14831">
        <ele>79.4</ele>
        <time>2026-06-20T05:42:00Z</time>
      </trkpt>
      <trkpt lat="47.29981" lon="-0.14826">
        <ele>79.6</ele>
        <time>2026-06-20T05:42:01Z</time>
      </trkpt>
      <trkpt lat="47.29978" lon="-0.14821">
        <ele>79.6</ele>
        <time>2026-06-20T05:42:02Z</time>
      </trkpt>
      <trkpt lat="47.29974" lon="-0.14817">
        <ele>79.6</ele>
        <time>2026-06-20T05:42:03Z</time>
      </trkpt>
      <trkpt lat="47.29971" lon="-0.14812">
        <ele>79.6</ele>
        <time>2026-06-20T05:42:04Z</time>
      </trkpt>
      <trkpt lat="47.29968" lon="-0.14807">
        <ele>79.6</ele>
        <time>2026-06-20T05:42:05Z</time>
      </trkpt>
      <trkpt lat="47.29965" lon="-0.14803">
        <ele>79.6</ele>
        <time>2026-06-20T05:42:06Z</time>
      </trkpt>
      <trkpt lat="47.29962" lon="-0.14798">
        <ele>79.8</ele>
        <time>2026-06-20T05:42:07Z</time>
      </trkpt>
      <trkpt lat="47.29958" lon="-0.14793">
        <ele>79.8</ele>
        <time>2026-06-20T05:42:08Z</time>
      </trkpt>
      <trkpt lat="47.29955" lon="-0.14789">
        <ele>79.8</ele>
        <time>2026-06-20T05:42:09Z</time>
      </trkpt>
      <trkpt lat="47.29952" lon="-0.14784">
        <ele>79.8</ele>
        <time>2026-06-20T05:42:10Z</time>
      </trkpt>
      <trkpt lat="47.29948" lon="-0.14779">
        <ele>79.8</ele>
        <time>2026-06-20T05:42:11Z</time>
      </trkpt>
      <trkpt lat="47.29945" lon="-0.14774">
        <ele>79.8</ele>
        <time>2026-06-20T05:42:12Z</time>
      </trkpt>
      <trkpt lat="47.29941" lon="-0.1477">
        <ele>79.8</ele>
        <time>2026-06-20T05:42:13Z</time>
      </trkpt>
      <trkpt lat="47.29938" lon="-0.14765">
        <ele>79.8</ele>
        <time>2026-06-20T05:42:14Z</time>
      </trkpt>
      <trkpt lat="47.29934" lon="-0.1476">
        <ele>79.8</ele>
        <time>2026-06-20T05:42:15Z</time>
      </trkpt>
      <trkpt lat="47.29931" lon="-0.14755">
        <ele>79.8</ele>
        <time>2026-06-20T05:42:16Z</time>
      </trkpt>
      <trkpt lat="47.29927" lon="-0.1475">
        <ele>79.8</ele>
        <time>2026-06-20T05:42:17Z</time>
      </trkpt>
      <trkpt lat="47.29924" lon="-0.14745">
        <ele>79.8</ele>
        <time>2026-06-20T05:42:18Z</time>
      </trkpt>
      <trkpt lat="47.2992" lon="-0.1474">
        <ele>79.8</ele>
        <time>2026-06-20T05:42:19Z</time>
      </trkpt>
      <trkpt lat="47.29917" lon="-0.14735">
        <ele>80</ele>
        <time>2026-06-20T05:42:20Z</time>
      </trkpt>
      <trkpt lat="47.29913" lon="-0.1473">
        <ele>80</ele>
        <time>2026-06-20T05:42:21Z</time>
      </trkpt>
      <trkpt lat="47.2991" lon="-0.14726">
        <ele>80</ele>
        <time>2026-06-20T05:42:22Z</time>
      </trkpt>
      <trkpt lat="47.29906" lon="-0.14721">
        <ele>80</ele>
        <time>2026-06-20T05:42:23Z</time>
      </trkpt>
      <trkpt lat="47.29903" lon="-0.14716">
        <ele>80</ele>
        <time>2026-06-20T05:42:24Z</time>
      </trkpt>
      <trkpt lat="47.29899" lon="-0.14711">
        <ele>80</ele>
        <time>2026-06-20T05:42:25Z</time>
      </trkpt>
      <trkpt lat="47.29896" lon="-0.14706">
        <ele>80</ele>
        <time>2026-06-20T05:42:26Z</time>
      </trkpt>
      <trkpt lat="47.29892" lon="-0.14701">
        <ele>80</ele>
        <time>2026-06-20T05:42:27Z</time>
      </trkpt>
      <trkpt lat="47.29889" lon="-0.14696">
        <ele>80</ele>
        <time>2026-06-20T05:42:28Z</time>
      </trkpt>
      <trkpt lat="47.29885" lon="-0.14691">
        <ele>80</ele>
        <time>2026-06-20T05:42:29Z</time>
      </trkpt>
      <trkpt lat="47.29882" lon="-0.14686">
        <ele>80.2</ele>
        <time>2026-06-20T05:42:30Z</time>
      </trkpt>
      <trkpt lat="47.29878" lon="-0.14681">
        <ele>80.2</ele>
        <time>2026-06-20T05:42:31Z</time>
      </trkpt>
      <trkpt lat="47.29875" lon="-0.14676">
        <ele>80.2</ele>
        <time>2026-06-20T05:42:32Z</time>
      </trkpt>
      <trkpt lat="47.29872" lon="-0.14671">
        <ele>80.2</ele>
        <time>2026-06-20T05:42:33Z</time>
      </trkpt>
      <trkpt lat="47.29868" lon="-0.14666">
        <ele>80.2</ele>
        <time>2026-06-20T05:42:34Z</time>
      </trkpt>
      <trkpt lat="47.29865" lon="-0.14661">
        <ele>80.2</ele>
        <time>2026-06-20T05:42:35Z</time>
      </trkpt>
      <trkpt lat="47.29861" lon="-0.14656">
        <ele>80.2</ele>
        <time>2026-06-20T05:42:36Z</time>
      </trkpt>
      <trkpt lat="47.29858" lon="-0.14651">
        <ele>80.4</ele>
        <time>2026-06-20T05:42:37Z</time>
      </trkpt>
      <trkpt lat="47.29854" lon="-0.14646">
        <ele>80.4</ele>
        <time>2026-06-20T05:42:38Z</time>
      </trkpt>
      <trkpt lat="47.29851" lon="-0.14641">
        <ele>80.4</ele>
        <time>2026-06-20T05:42:39Z</time>
      </trkpt>
      <trkpt lat="47.29848" lon="-0.14636">
        <ele>80.4</ele>
        <time>2026-06-20T05:42:40Z</time>
      </trkpt>
      <trkpt lat="47.29844" lon="-0.14631">
        <ele>80.6</ele>
        <time>2026-06-20T05:42:41Z</time>
      </trkpt>
      <trkpt lat="47.29841" lon="-0.14626">
        <ele>80.6</ele>
        <time>2026-06-20T05:42:42Z</time>
      </trkpt>
      <trkpt lat="47.29838" lon="-0.14621">
        <ele>80.6</ele>
        <time>2026-06-20T05:42:43Z</time>
      </trkpt>
      <trkpt lat="47.29835" lon="-0.14616">
        <ele>80.6</ele>
        <time>2026-06-20T05:42:44Z</time>
      </trkpt>
      <trkpt lat="47.29831" lon="-0.1461">
        <ele>80.6</ele>
        <time>2026-06-20T05:42:45Z</time>
      </trkpt>
      <trkpt lat="47.29828" lon="-0.14605">
        <ele>80.4</ele>
        <time>2026-06-20T05:42:46Z</time>
      </trkpt>
      <trkpt lat="47.29824" lon="-0.14599">
        <ele>80.4</ele>
        <time>2026-06-20T05:42:47Z</time>
      </trkpt>
      <trkpt lat="47.29821" lon="-0.14593">
        <ele>80.4</ele>
        <time>2026-06-20T05:42:48Z</time>
      </trkpt>
      <trkpt lat="47.29817" lon="-0.14587">
        <ele>80.2</ele>
        <time>2026-06-20T05:42:49Z</time>
      </trkpt>
      <trkpt lat="47.29814" lon="-0.14582">
        <ele>80</ele>
        <time>2026-06-20T05:42:50Z</time>
      </trkpt>
      <trkpt lat="47.2981" lon="-0.14576">
        <ele>80</ele>
        <time>2026-06-20T05:42:51Z</time>
      </trkpt>
      <trkpt lat="47.29806" lon="-0.1457">
        <ele>79.8</ele>
        <time>2026-06-20T05:42:52Z</time>
      </trkpt>
      <trkpt lat="47.29803" lon="-0.14564">
        <ele>79.8</ele>
        <time>2026-06-20T05:42:53Z</time>
      </trkpt>
      <trkpt lat="47.29799" lon="-0.14558">
        <ele>79.8</ele>
        <time>2026-06-20T05:42:54Z</time>
      </trkpt>
      <trkpt lat="47.29796" lon="-0.14552">
        <ele>79.6</ele>
        <time>2026-06-20T05:42:55Z</time>
      </trkpt>
      <trkpt lat="47.29792" lon="-0.14546">
        <ele>79.6</ele>
        <time>2026-06-20T05:42:56Z</time>
      </trkpt>
      <trkpt lat="47.29789" lon="-0.14541">
        <ele>79.6</ele>
        <time>2026-06-20T05:42:57Z</time>
      </trkpt>
      <trkpt lat="47.29785" lon="-0.14535">
        <ele>79.4</ele>
        <time>2026-06-20T05:42:58Z</time>
      </trkpt>
      <trkpt lat="47.29781" lon="-0.1453">
        <ele>79.4</ele>
        <time>2026-06-20T05:42:59Z</time>
      </trkpt>
      <trkpt lat="47.29777" lon="-0.14524">
        <ele>79.4</ele>
        <time>2026-06-20T05:43:00Z</time>
      </trkpt>
      <trkpt lat="47.29774" lon="-0.14519">
        <ele>79.2</ele>
        <time>2026-06-20T05:43:01Z</time>
      </trkpt>
      <trkpt lat="47.2977" lon="-0.14513">
        <ele>79.2</ele>
        <time>2026-06-20T05:43:02Z</time>
      </trkpt>
      <trkpt lat="47.29767" lon="-0.14507">
        <ele>79.2</ele>
        <time>2026-06-20T05:43:03Z</time>
      </trkpt>
      <trkpt lat="47.29763" lon="-0.14502">
        <ele>79.2</ele>
        <time>2026-06-20T05:43:04Z</time>
      </trkpt>
      <trkpt lat="47.2976" lon="-0.14497">
        <ele>79</ele>
        <time>2026-06-20T05:43:05Z</time>
      </trkpt>
      <trkpt lat="47.29755" lon="-0.14492">
        <ele>79</ele>
        <time>2026-06-20T05:43:06Z</time>
      </trkpt>
      <trkpt lat="47.29751" lon="-0.14487">
        <ele>79</ele>
        <time>2026-06-20T05:43:07Z</time>
      </trkpt>
      <trkpt lat="47.29747" lon="-0.14483">
        <ele>78.8</ele>
        <time>2026-06-20T05:43:08Z</time>
      </trkpt>
      <trkpt lat="47.29742" lon="-0.14479">
        <ele>78.8</ele>
        <time>2026-06-20T05:43:09Z</time>
      </trkpt>
      <trkpt lat="47.29737" lon="-0.14475">
        <ele>78.6</ele>
        <time>2026-06-20T05:43:10Z</time>
      </trkpt>
      <trkpt lat="47.29732" lon="-0.14472">
        <ele>78.4</ele>
        <time>2026-06-20T05:43:11Z</time>
      </trkpt>
      <trkpt lat="47.29728" lon="-0.14468">
        <ele>78.4</ele>
        <time>2026-06-20T05:43:12Z</time>
      </trkpt>
      <trkpt lat="47.29723" lon="-0.14464">
        <ele>78.2</ele>
        <time>2026-06-20T05:43:13Z</time>
      </trkpt>
      <trkpt lat="47.29718" lon="-0.1446">
        <ele>78</ele>
        <time>2026-06-20T05:43:14Z</time>
      </trkpt>
      <trkpt lat="47.29713" lon="-0.14455">
        <ele>78</ele>
        <time>2026-06-20T05:43:15Z</time>
      </trkpt>
      <trkpt lat="47.29709" lon="-0.14451">
        <ele>77.8</ele>
        <time>2026-06-20T05:43:16Z</time>
      </trkpt>
      <trkpt lat="47.29704" lon="-0.14446">
        <ele>77.8</ele>
        <time>2026-06-20T05:43:17Z</time>
      </trkpt>
      <trkpt lat="47.297" lon="-0.14441">
        <ele>77.6</ele>
        <time>2026-06-20T05:43:18Z</time>
      </trkpt>
      <trkpt lat="47.29695" lon="-0.14436">
        <ele>77.6</ele>
        <time>2026-06-20T05:43:19Z</time>
      </trkpt>
      <trkpt lat="47.29691" lon="-0.14431">
        <ele>77.4</ele>
        <time>2026-06-20T05:43:20Z</time>
      </trkpt>
      <trkpt lat="47.29687" lon="-0.14425">
        <ele>77.2</ele>
        <time>2026-06-20T05:43:21Z</time>
      </trkpt>
      <trkpt lat="47.29682" lon="-0.14419">
        <ele>77.2</ele>
        <time>2026-06-20T05:43:22Z</time>
      </trkpt>
      <trkpt lat="47.29678" lon="-0.14413">
        <ele>76.8</ele>
        <time>2026-06-20T05:43:23Z</time>
      </trkpt>
      <trkpt lat="47.29673" lon="-0.14406">
        <ele>76.4</ele>
        <time>2026-06-20T05:43:24Z</time>
      </trkpt>
      <trkpt lat="47.29668" lon="-0.14399">
        <ele>76</ele>
        <time>2026-06-20T05:43:25Z</time>
      </trkpt>
      <trkpt lat="47.29663" lon="-0.14392">
        <ele>75.6</ele>
        <time>2026-06-20T05:43:26Z</time>
      </trkpt>
      <trkpt lat="47.29658" lon="-0.14384">
        <ele>74.8</ele>
        <time>2026-06-20T05:43:27Z</time>
      </trkpt>
      <trkpt lat="47.29653" lon="-0.14376">
        <ele>74.2</ele>
        <time>2026-06-20T05:43:28Z</time>
      </trkpt>
      <trkpt lat="47.29647" lon="-0.14368">
        <ele>73.4</ele>
        <time>2026-06-20T05:43:29Z</time>
      </trkpt>
      <trkpt lat="47.29643" lon="-0.14361">
        <ele>72.8</ele>
        <time>2026-06-20T05:43:30Z</time>
      </trkpt>
      <trkpt lat="47.29639" lon="-0.14355">
        <ele>72.4</ele>
        <time>2026-06-20T05:43:31Z</time>
      </trkpt>
      <trkpt lat="47.29636" lon="-0.14351">
        <ele>72</ele>
        <time>2026-06-20T05:43:32Z</time>
      </trkpt>
      <trkpt lat="47.29633" lon="-0.14349">
        <ele>71.8</ele>
        <time>2026-06-20T05:43:33Z</time>
      </trkpt>
      <trkpt lat="47.29629" lon="-0.1435">
        <ele>71.6</ele>
        <time>2026-06-20T05:43:34Z</time>
      </trkpt>
      <trkpt lat="47.29625" lon="-0.14353">
        <ele>71.2</ele>
        <time>2026-06-20T05:43:35Z</time>
      </trkpt>
      <trkpt lat="47.29621" lon="-0.14359">
        <ele>70.8</ele>
        <time>2026-06-20T05:43:36Z</time>
      </trkpt>
      <trkpt lat="47.29617" lon="-0.14365">
        <ele>70.2</ele>
        <time>2026-06-20T05:43:37Z</time>
      </trkpt>
      <trkpt lat="47.29613" lon="-0.14372">
        <ele>69.8</ele>
        <time>2026-06-20T05:43:38Z</time>
      </trkpt>
      <trkpt lat="47.29609" lon="-0.14379">
        <ele>69.2</ele>
        <time>2026-06-20T05:43:39Z</time>
      </trkpt>
      <trkpt lat="47.29605" lon="-0.14387">
        <ele>68.6</ele>
        <time>2026-06-20T05:43:40Z</time>
      </trkpt>
      <trkpt lat="47.29602" lon="-0.14394">
        <ele>68.2</ele>
        <time>2026-06-20T05:43:41Z</time>
      </trkpt>
      <trkpt lat="47.29599" lon="-0.144">
        <ele>67.8</ele>
        <time>2026-06-20T05:43:42Z</time>
      </trkpt>
      <trkpt lat="47.29596" lon="-0.14402">
        <ele>67.4</ele>
        <time>2026-06-20T05:43:43Z</time>
      </trkpt>
      <trkpt lat="47.29595" lon="-0.14401">
        <ele>67.4</ele>
        <time>2026-06-20T05:43:44Z</time>
      </trkpt>
      <trkpt lat="47.29594" lon="-0.14399">
        <ele>67.2</ele>
        <time>2026-06-20T05:43:45Z</time>
      </trkpt>
      <trkpt lat="47.29595" lon="-0.14396">
        <ele>67.2</ele>
        <time>2026-06-20T05:43:46Z</time>
      </trkpt>
      <trkpt lat="47.29597" lon="-0.14392">
        <ele>67.2</ele>
        <time>2026-06-20T05:43:47Z</time>
      </trkpt>
      <trkpt lat="47.29598" lon="-0.14386">
        <ele>66.8</ele>
        <time>2026-06-20T05:43:48Z</time>
      </trkpt>
      <trkpt lat="47.29599" lon="-0.14379">
        <ele>66.2</ele>
        <time>2026-06-20T05:43:49Z</time>
      </trkpt>
      <trkpt lat="47.29601" lon="-0.14371">
        <ele>65.6</ele>
        <time>2026-06-20T05:43:50Z</time>
      </trkpt>
      <trkpt lat="47.29603" lon="-0.14363">
        <ele>64.6</ele>
        <time>2026-06-20T05:43:51Z</time>
      </trkpt>
      <trkpt lat="47.29605" lon="-0.14355">
        <ele>63.8</ele>
        <time>2026-06-20T05:43:52Z</time>
      </trkpt>
      <trkpt lat="47.29607" lon="-0.14348">
        <ele>63</ele>
        <time>2026-06-20T05:43:53Z</time>
      </trkpt>
      <trkpt lat="47.29607" lon="-0.14342">
        <ele>62</ele>
        <time>2026-06-20T05:43:54Z</time>
      </trkpt>
      <trkpt lat="47.29606" lon="-0.14335">
        <ele>61.2</ele>
        <time>2026-06-20T05:43:55Z</time>
      </trkpt>
      <trkpt lat="47.29604" lon="-0.14327">
        <ele>60.4</ele>
        <time>2026-06-20T05:43:56Z</time>
      </trkpt>
      <trkpt lat="47.29603" lon="-0.14319">
        <ele>59.6</ele>
        <time>2026-06-20T05:43:57Z</time>
      </trkpt>
      <trkpt lat="47.29603" lon="-0.14311">
        <ele>58.6</ele>
        <time>2026-06-20T05:43:58Z</time>
      </trkpt>
      <trkpt lat="47.29604" lon="-0.14306">
        <ele>57.6</ele>
        <time>2026-06-20T05:43:59Z</time>
      </trkpt>
      <trkpt lat="47.29605" lon="-0.14302">
        <ele>56.6</ele>
        <time>2026-06-20T05:44:00Z</time>
      </trkpt>
      <trkpt lat="47.29606" lon="-0.14298">
        <ele>56</ele>
        <time>2026-06-20T05:44:01Z</time>
      </trkpt>
      <trkpt lat="47.29605" lon="-0.14293">
        <ele>55.6</ele>
        <time>2026-06-20T05:44:02Z</time>
      </trkpt>
      <trkpt lat="47.29603" lon="-0.14288">
        <ele>55.2</ele>
        <time>2026-06-20T05:44:03Z</time>
      </trkpt>
      <trkpt lat="47.29601" lon="-0.14283">
        <ele>54.4</ele>
        <time>2026-06-20T05:44:04Z</time>
      </trkpt>
      <trkpt lat="47.29601" lon="-0.14277">
        <ele>54</ele>
        <time>2026-06-20T05:44:05Z</time>
      </trkpt>
      <trkpt lat="47.296" lon="-0.1427">
        <ele>53.2</ele>
        <time>2026-06-20T05:44:06Z</time>
      </trkpt>
      <trkpt lat="47.29598" lon="-0.14264">
        <ele>52.6</ele>
        <time>2026-06-20T05:44:07Z</time>
      </trkpt>
      <trkpt lat="47.29597" lon="-0.14257">
        <ele>51.8</ele>
        <time>2026-06-20T05:44:08Z</time>
      </trkpt>
      <trkpt lat="47.29596" lon="-0.14252">
        <ele>51.2</ele>
        <time>2026-06-20T05:44:09Z</time>
      </trkpt>
      <trkpt lat="47.29596" lon="-0.14248">
        <ele>50.6</ele>
        <time>2026-06-20T05:44:10Z</time>
      </trkpt>
      <trkpt lat="47.29594" lon="-0.14242">
        <ele>49.8</ele>
        <time>2026-06-20T05:44:11Z</time>
      </trkpt>
      <trkpt lat="47.29593" lon="-0.14235">
        <ele>49</ele>
        <time>2026-06-20T05:44:12Z</time>
      </trkpt>
      <trkpt lat="47.29594" lon="-0.14228">
        <ele>48.2</ele>
        <time>2026-06-20T05:44:13Z</time>
      </trkpt>
      <trkpt lat="47.29595" lon="-0.14222">
        <ele>47.4</ele>
        <time>2026-06-20T05:44:14Z</time>
      </trkpt>
      <trkpt lat="47.29595" lon="-0.14217">
        <ele>46.8</ele>
        <time>2026-06-20T05:44:15Z</time>
      </trkpt>
      <trkpt lat="47.29594" lon="-0.14212">
        <ele>46</ele>
        <time>2026-06-20T05:44:16Z</time>
      </trkpt>
      <trkpt lat="47.29595" lon="-0.14206">
        <ele>45.6</ele>
        <time>2026-06-20T05:44:17Z</time>
      </trkpt>
      <trkpt lat="47.29595" lon="-0.14201">
        <ele>45.2</ele>
        <time>2026-06-20T05:44:18Z</time>
      </trkpt>
      <trkpt lat="47.29597" lon="-0.14196">
        <ele>44.6</ele>
        <time>2026-06-20T05:44:19Z</time>
      </trkpt>
      <trkpt lat="47.296" lon="-0.14192">
        <ele>44</ele>
        <time>2026-06-20T05:44:20Z</time>
      </trkpt>
      <trkpt lat="47.29602" lon="-0.14187">
        <ele>43.6</ele>
        <time>2026-06-20T05:44:21Z</time>
      </trkpt>
      <trkpt lat="47.29604" lon="-0.1418">
        <ele>43.2</ele>
        <time>2026-06-20T05:44:22Z</time>
      </trkpt>
      <trkpt lat="47.29606" lon="-0.14174">
        <ele>42.6</ele>
        <time>2026-06-20T05:44:23Z</time>
      </trkpt>
      <trkpt lat="47.29608" lon="-0.14168">
        <ele>42.2</ele>
        <time>2026-06-20T05:44:24Z</time>
      </trkpt>
      <trkpt lat="47.2961" lon="-0.14162">
        <ele>41.6</ele>
        <time>2026-06-20T05:44:25Z</time>
      </trkpt>
      <trkpt lat="47.29611" lon="-0.14157">
        <ele>41.2</ele>
        <time>2026-06-20T05:44:26Z</time>
      </trkpt>
      <trkpt lat="47.29613" lon="-0.14153">
        <ele>40.8</ele>
        <time>2026-06-20T05:44:27Z</time>
      </trkpt>
      <trkpt lat="47.29615" lon="-0.14148">
        <ele>40.4</ele>
        <time>2026-06-20T05:44:28Z</time>
      </trkpt>
      <trkpt lat="47.29617" lon="-0.14143">
        <ele>40.2</ele>
        <time>2026-06-20T05:44:29Z</time>
      </trkpt>
      <trkpt lat="47.29618" lon="-0.14139">
        <ele>39.8</ele>
        <time>2026-06-20T05:44:30Z</time>
      </trkpt>
      <trkpt lat="47.29619" lon="-0.14137">
        <ele>39.4</ele>
        <time>2026-06-20T05:44:31Z</time>
      </trkpt>
      <trkpt lat="47.29619" lon="-0.14133">
        <ele>39</ele>
        <time>2026-06-20T05:44:32Z</time>
      </trkpt>
      <trkpt lat="47.29618" lon="-0.1413">
        <ele>38.6</ele>
        <time>2026-06-20T05:44:33Z</time>
      </trkpt>
      <trkpt lat="47.29618" lon="-0.14126">
        <ele>38.2</ele>
        <time>2026-06-20T05:44:34Z</time>
      </trkpt>
      <trkpt lat="47.29619" lon="-0.1412">
        <ele>37.8</ele>
        <time>2026-06-20T05:44:35Z</time>
      </trkpt>
      <trkpt lat="47.2962" lon="-0.14114">
        <ele>37.2</ele>
        <time>2026-06-20T05:44:36Z</time>
      </trkpt>
      <trkpt lat="47.29622" lon="-0.14107">
        <ele>36.8</ele>
        <time>2026-06-20T05:44:37Z</time>
      </trkpt>
      <trkpt lat="47.29623" lon="-0.14099">
        <ele>36.2</ele>
        <time>2026-06-20T05:44:38Z</time>
      </trkpt>
      <trkpt lat="47.29625" lon="-0.14091">
        <ele>35.6</ele>
        <time>2026-06-20T05:44:39Z</time>
      </trkpt>
      <trkpt lat="47.29626" lon="-0.14082">
        <ele>35.2</ele>
        <time>2026-06-20T05:44:40Z</time>
      </trkpt>
      <trkpt lat="47.29628" lon="-0.14073">
        <ele>34.6</ele>
        <time>2026-06-20T05:44:41Z</time>
      </trkpt>
      <trkpt lat="47.2963" lon="-0.14063">
        <ele>34</ele>
        <time>2026-06-20T05:44:42Z</time>
      </trkpt>
      <trkpt lat="47.29632" lon="-0.14053">
        <ele>33.4</ele>
        <time>2026-06-20T05:44:43Z</time>
      </trkpt>
      <trkpt lat="47.29634" lon="-0.14043">
        <ele>32.8</ele>
        <time>2026-06-20T05:44:44Z</time>
      </trkpt>
      <trkpt lat="47.29636" lon="-0.14032">
        <ele>32.2</ele>
        <time>2026-06-20T05:44:45Z</time>
      </trkpt>
      <trkpt lat="47.29638" lon="-0.14021">
        <ele>31.6</ele>
        <time>2026-06-20T05:44:46Z</time>
      </trkpt>
      <trkpt lat="47.2964" lon="-0.14009">
        <ele>31.2</ele>
        <time>2026-06-20T05:44:47Z</time>
      </trkpt>
      <trkpt lat="47.29642" lon="-0.13998">
        <ele>30.6</ele>
        <time>2026-06-20T05:44:48Z</time>
      </trkpt>
      <trkpt lat="47.29643" lon="-0.13986">
        <ele>30</ele>
        <time>2026-06-20T05:44:49Z</time>
      </trkpt>
      <trkpt lat="47.29645" lon="-0.13975">
        <ele>29.6</ele>
        <time>2026-06-20T05:44:50Z</time>
      </trkpt>
      <trkpt lat="47.29647" lon="-0.13967">
        <ele>29.2</ele>
        <time>2026-06-20T05:44:51Z</time>
      </trkpt>
      <trkpt lat="47.29648" lon="-0.13961">
        <ele>28.8</ele>
        <time>2026-06-20T05:44:52Z</time>
      </trkpt>
      <trkpt lat="47.29648" lon="-0.13957">
        <ele>28.8</ele>
        <time>2026-06-20T05:44:53Z</time>
      </trkpt>
      <trkpt lat="47.29648" lon="-0.13953">
        <ele>28.8</ele>
        <time>2026-06-20T05:44:54Z</time>
      </trkpt>
      <trkpt lat="47.29646" lon="-0.1395">
        <ele>28.8</ele>
        <time>2026-06-20T05:44:55Z</time>
      </trkpt>
      <trkpt lat="47.29643" lon="-0.13947">
        <ele>28.8</ele>
        <time>2026-06-20T05:44:56Z</time>
      </trkpt>
      <trkpt lat="47.29639" lon="-0.13944">
        <ele>28.8</ele>
        <time>2026-06-20T05:44:57Z</time>
      </trkpt>
      <trkpt lat="47.29635" lon="-0.13941">
        <ele>28.8</ele>
        <time>2026-06-20T05:44:58Z</time>
      </trkpt>
      <trkpt lat="47.29631" lon="-0.13938">
        <ele>28.6</ele>
        <time>2026-06-20T05:44:59Z</time>
      </trkpt>
      <trkpt lat="47.29627" lon="-0.13934">
        <ele>28.4</ele>
        <time>2026-06-20T05:45:00Z</time>
      </trkpt>
      <trkpt lat="47.29623" lon="-0.1393">
        <ele>28.2</ele>
        <time>2026-06-20T05:45:01Z</time>
      </trkpt>
      <trkpt lat="47.29618" lon="-0.13926">
        <ele>28.2</ele>
        <time>2026-06-20T05:45:02Z</time>
      </trkpt>
      <trkpt lat="47.29614" lon="-0.13923">
        <ele>28</ele>
        <time>2026-06-20T05:45:03Z</time>
      </trkpt>
      <trkpt lat="47.29609" lon="-0.13919">
        <ele>28</ele>
        <time>2026-06-20T05:45:04Z</time>
      </trkpt>
      <trkpt lat="47.29605" lon="-0.13915">
        <ele>28</ele>
        <time>2026-06-20T05:45:05Z</time>
      </trkpt>
      <trkpt lat="47.296" lon="-0.13911">
        <ele>28</ele>
        <time>2026-06-20T05:45:06Z</time>
      </trkpt>
      <trkpt lat="47.29596" lon="-0.13907">
        <ele>28</ele>
        <time>2026-06-20T05:45:07Z</time>
      </trkpt>
      <trkpt lat="47.29591" lon="-0.13902">
        <ele>28</ele>
        <time>2026-06-20T05:45:08Z</time>
      </trkpt>
      <trkpt lat="47.29587" lon="-0.13897">
        <ele>28</ele>
        <time>2026-06-20T05:45:09Z</time>
      </trkpt>
      <trkpt lat="47.29583" lon="-0.13892">
        <ele>28</ele>
        <time>2026-06-20T05:45:10Z</time>
      </trkpt>
      <trkpt lat="47.29578" lon="-0.13888">
        <ele>27.8</ele>
        <time>2026-06-20T05:45:11Z</time>
      </trkpt>
      <trkpt lat="47.29574" lon="-0.13883">
        <ele>27.8</ele>
        <time>2026-06-20T05:45:12Z</time>
      </trkpt>
      <trkpt lat="47.2957" lon="-0.13878">
        <ele>27.8</ele>
        <time>2026-06-20T05:45:13Z</time>
      </trkpt>
      <trkpt lat="47.29565" lon="-0.13873">
        <ele>27.8</ele>
        <time>2026-06-20T05:45:14Z</time>
      </trkpt>
      <trkpt lat="47.2956" lon="-0.1387">
        <ele>28</ele>
        <time>2026-06-20T05:45:15Z</time>
      </trkpt>
      <trkpt lat="47.29555" lon="-0.13866">
        <ele>28</ele>
        <time>2026-06-20T05:45:16Z</time>
      </trkpt>
      <trkpt lat="47.2955" lon="-0.13862">
        <ele>28</ele>
        <time>2026-06-20T05:45:17Z</time>
      </trkpt>
      <trkpt lat="47.29545" lon="-0.13859">
        <ele>27.8</ele>
        <time>2026-06-20T05:45:18Z</time>
      </trkpt>
      <trkpt lat="47.2954" lon="-0.13856">
        <ele>27.8</ele>
        <time>2026-06-20T05:45:19Z</time>
      </trkpt>
      <trkpt lat="47.29535" lon="-0.13853">
        <ele>27.8</ele>
        <time>2026-06-20T05:45:20Z</time>
      </trkpt>
      <trkpt lat="47.2953" lon="-0.1385">
        <ele>27.8</ele>
        <time>2026-06-20T05:45:21Z</time>
      </trkpt>
      <trkpt lat="47.29525" lon="-0.13846">
        <ele>27.8</ele>
        <time>2026-06-20T05:45:22Z</time>
      </trkpt>
      <trkpt lat="47.2952" lon="-0.13843">
        <ele>28</ele>
        <time>2026-06-20T05:45:23Z</time>
      </trkpt>
      <trkpt lat="47.29515" lon="-0.13839">
        <ele>28</ele>
        <time>2026-06-20T05:45:24Z</time>
      </trkpt>
      <trkpt lat="47.2951" lon="-0.13836">
        <ele>28</ele>
        <time>2026-06-20T05:45:25Z</time>
      </trkpt>
      <trkpt lat="47.29505" lon="-0.13832">
        <ele>28</ele>
        <time>2026-06-20T05:45:26Z</time>
      </trkpt>
      <trkpt lat="47.295" lon="-0.13828">
        <ele>28.2</ele>
        <time>2026-06-20T05:45:27Z</time>
      </trkpt>
      <trkpt lat="47.29495" lon="-0.13824">
        <ele>28.2</ele>
        <time>2026-06-20T05:45:28Z</time>
      </trkpt>
      <trkpt lat="47.2949" lon="-0.1382">
        <ele>28.2</ele>
        <time>2026-06-20T05:45:29Z</time>
      </trkpt>
      <trkpt lat="47.29486" lon="-0.13816">
        <ele>28.2</ele>
        <time>2026-06-20T05:45:30Z</time>
      </trkpt>
      <trkpt lat="47.29481" lon="-0.13812">
        <ele>28.2</ele>
        <time>2026-06-20T05:45:31Z</time>
      </trkpt>
      <trkpt lat="47.29477" lon="-0.13808">
        <ele>28.2</ele>
        <time>2026-06-20T05:45:32Z</time>
      </trkpt>
      <trkpt lat="47.29473" lon="-0.13802">
        <ele>28.2</ele>
        <time>2026-06-20T05:45:33Z</time>
      </trkpt>
      <trkpt lat="47.29468" lon="-0.13798">
        <ele>28.2</ele>
        <time>2026-06-20T05:45:34Z</time>
      </trkpt>
      <trkpt lat="47.29463" lon="-0.13794">
        <ele>28.4</ele>
        <time>2026-06-20T05:45:35Z</time>
      </trkpt>
      <trkpt lat="47.29458" lon="-0.13791">
        <ele>28.4</ele>
        <time>2026-06-20T05:45:36Z</time>
      </trkpt>
      <trkpt lat="47.29453" lon="-0.13789">
        <ele>28.2</ele>
        <time>2026-06-20T05:45:37Z</time>
      </trkpt>
      <trkpt lat="47.29448" lon="-0.13786">
        <ele>28.2</ele>
        <time>2026-06-20T05:45:38Z</time>
      </trkpt>
      <trkpt lat="47.29442" lon="-0.13783">
        <ele>28.2</ele>
        <time>2026-06-20T05:45:39Z</time>
      </trkpt>
      <trkpt lat="47.29437" lon="-0.1378">
        <ele>28.2</ele>
        <time>2026-06-20T05:45:40Z</time>
      </trkpt>
      <trkpt lat="47.29432" lon="-0.13776">
        <ele>28.2</ele>
        <time>2026-06-20T05:45:41Z</time>
      </trkpt>
      <trkpt lat="47.29427" lon="-0.13772">
        <ele>28.2</ele>
        <time>2026-06-20T05:45:42Z</time>
      </trkpt>
      <trkpt lat="47.29422" lon="-0.13768">
        <ele>28.2</ele>
        <time>2026-06-20T05:45:43Z</time>
      </trkpt>
      <trkpt lat="47.29417" lon="-0.13764">
        <ele>28</ele>
        <time>2026-06-20T05:45:44Z</time>
      </trkpt>
      <trkpt lat="47.29412" lon="-0.1376">
        <ele>28</ele>
        <time>2026-06-20T05:45:45Z</time>
      </trkpt>
      <trkpt lat="47.29408" lon="-0.13756">
        <ele>28</ele>
        <time>2026-06-20T05:45:46Z</time>
      </trkpt>
      <trkpt lat="47.29403" lon="-0.13753">
        <ele>28</ele>
        <time>2026-06-20T05:45:47Z</time>
      </trkpt>
      <trkpt lat="47.29398" lon="-0.13749">
        <ele>28</ele>
        <time>2026-06-20T05:45:48Z</time>
      </trkpt>
      <trkpt lat="47.29393" lon="-0.13746">
        <ele>28</ele>
        <time>2026-06-20T05:45:49Z</time>
      </trkpt>
      <trkpt lat="47.29388" lon="-0.13742">
        <ele>28</ele>
        <time>2026-06-20T05:45:50Z</time>
      </trkpt>
      <trkpt lat="47.29383" lon="-0.13738">
        <ele>28</ele>
        <time>2026-06-20T05:45:51Z</time>
      </trkpt>
      <trkpt lat="47.29378" lon="-0.13734">
        <ele>28</ele>
        <time>2026-06-20T05:45:52Z</time>
      </trkpt>
      <trkpt lat="47.29373" lon="-0.1373">
        <ele>28</ele>
        <time>2026-06-20T05:45:53Z</time>
      </trkpt>
      <trkpt lat="47.29368" lon="-0.13726">
        <ele>28</ele>
        <time>2026-06-20T05:45:54Z</time>
      </trkpt>
      <trkpt lat="47.29364" lon="-0.13723">
        <ele>28</ele>
        <time>2026-06-20T05:45:55Z</time>
      </trkpt>
      <trkpt lat="47.29359" lon="-0.13719">
        <ele>28</ele>
        <time>2026-06-20T05:45:56Z</time>
      </trkpt>
      <trkpt lat="47.29355" lon="-0.13715">
        <ele>28.2</ele>
        <time>2026-06-20T05:45:57Z</time>
      </trkpt>
      <trkpt lat="47.2935" lon="-0.13711">
        <ele>28.2</ele>
        <time>2026-06-20T05:45:58Z</time>
      </trkpt>
      <trkpt lat="47.29346" lon="-0.13708">
        <ele>28.2</ele>
        <time>2026-06-20T05:45:59Z</time>
      </trkpt>
      <trkpt lat="47.29342" lon="-0.13704">
        <ele>28.4</ele>
        <time>2026-06-20T05:46:00Z</time>
      </trkpt>
      <trkpt lat="47.29339" lon="-0.13699">
        <ele>28.4</ele>
        <time>2026-06-20T05:46:01Z</time>
      </trkpt>
      <trkpt lat="47.29337" lon="-0.13693">
        <ele>28.6</ele>
        <time>2026-06-20T05:46:02Z</time>
      </trkpt>
      <trkpt lat="47.29337" lon="-0.13686">
        <ele>28.4</ele>
        <time>2026-06-20T05:46:03Z</time>
      </trkpt>
      <trkpt lat="47.2934" lon="-0.13679">
        <ele>28.4</ele>
        <time>2026-06-20T05:46:04Z</time>
      </trkpt>
      <trkpt lat="47.29343" lon="-0.13673">
        <ele>28</ele>
        <time>2026-06-20T05:46:05Z</time>
      </trkpt>
      <trkpt lat="47.29348" lon="-0.13667">
        <ele>27.6</ele>
        <time>2026-06-20T05:46:06Z</time>
      </trkpt>
      <trkpt lat="47.29352" lon="-0.13661">
        <ele>27.2</ele>
        <time>2026-06-20T05:46:07Z</time>
      </trkpt>
      <trkpt lat="47.29358" lon="-0.13656">
        <ele>26.8</ele>
        <time>2026-06-20T05:46:08Z</time>
      </trkpt>
      <trkpt lat="47.29363" lon="-0.13652">
        <ele>26.4</ele>
        <time>2026-06-20T05:46:09Z</time>
      </trkpt>
      <trkpt lat="47.29368" lon="-0.13646">
        <ele>26.2</ele>
        <time>2026-06-20T05:46:10Z</time>
      </trkpt>
      <trkpt lat="47.29372" lon="-0.13639">
        <ele>26</ele>
        <time>2026-06-20T05:46:11Z</time>
      </trkpt>
      <trkpt lat="47.29375" lon="-0.1363">
        <ele>25.6</ele>
        <time>2026-06-20T05:46:12Z</time>
      </trkpt>
      <trkpt lat="47.29376" lon="-0.1362">
        <ele>25.4</ele>
        <time>2026-06-20T05:46:13Z</time>
      </trkpt>
      <trkpt lat="47.29374" lon="-0.13611">
        <ele>25.2</ele>
        <time>2026-06-20T05:46:14Z</time>
      </trkpt>
      <trkpt lat="47.29371" lon="-0.13603">
        <ele>25</ele>
        <time>2026-06-20T05:46:15Z</time>
      </trkpt>
      <trkpt lat="47.29367" lon="-0.13597">
        <ele>24.8</ele>
        <time>2026-06-20T05:46:16Z</time>
      </trkpt>
      <trkpt lat="47.29362" lon="-0.13591">
        <ele>24.8</ele>
        <time>2026-06-20T05:46:17Z</time>
      </trkpt>
      <trkpt lat="47.29357" lon="-0.13585">
        <ele>24.8</ele>
        <time>2026-06-20T05:46:18Z</time>
      </trkpt>
      <trkpt lat="47.29353" lon="-0.13579">
        <ele>24.8</ele>
        <time>2026-06-20T05:46:19Z</time>
      </trkpt>
      <trkpt lat="47.29349" lon="-0.13572">
        <ele>24.8</ele>
        <time>2026-06-20T05:46:20Z</time>
      </trkpt>
      <trkpt lat="47.29345" lon="-0.13566">
        <ele>24.8</ele>
        <time>2026-06-20T05:46:21Z</time>
      </trkpt>
      <trkpt lat="47.29341" lon="-0.1356">
        <ele>24.8</ele>
        <time>2026-06-20T05:46:22Z</time>
      </trkpt>
      <trkpt lat="47.29338" lon="-0.13554">
        <ele>25</ele>
        <time>2026-06-20T05:46:23Z</time>
      </trkpt>
      <trkpt lat="47.29334" lon="-0.13547">
        <ele>25</ele>
        <time>2026-06-20T05:46:24Z</time>
      </trkpt>
      <trkpt lat="47.2933" lon="-0.13541">
        <ele>25.2</ele>
        <time>2026-06-20T05:46:25Z</time>
      </trkpt>
      <trkpt lat="47.29326" lon="-0.13535">
        <ele>25.2</ele>
        <time>2026-06-20T05:46:26Z</time>
      </trkpt>
      <trkpt lat="47.29322" lon="-0.13529">
        <ele>25.2</ele>
        <time>2026-06-20T05:46:27Z</time>
      </trkpt>
      <trkpt lat="47.29319" lon="-0.13523">
        <ele>25.2</ele>
        <time>2026-06-20T05:46:28Z</time>
      </trkpt>
      <trkpt lat="47.29315" lon="-0.13517">
        <ele>25.4</ele>
        <time>2026-06-20T05:46:29Z</time>
      </trkpt>
      <trkpt lat="47.29312" lon="-0.1351">
        <ele>25.4</ele>
        <time>2026-06-20T05:46:30Z</time>
      </trkpt>
      <trkpt lat="47.29308" lon="-0.13503">
        <ele>25.4</ele>
        <time>2026-06-20T05:46:31Z</time>
      </trkpt>
      <trkpt lat="47.29304" lon="-0.13496">
        <ele>25.4</ele>
        <time>2026-06-20T05:46:32Z</time>
      </trkpt>
      <trkpt lat="47.29301" lon="-0.1349">
        <ele>25.4</ele>
        <time>2026-06-20T05:46:33Z</time>
      </trkpt>
      <trkpt lat="47.29297" lon="-0.13483">
        <ele>25.4</ele>
        <time>2026-06-20T05:46:34Z</time>
      </trkpt>
      <trkpt lat="47.29293" lon="-0.13476">
        <ele>25.4</ele>
        <time>2026-06-20T05:46:35Z</time>
      </trkpt>
      <trkpt lat="47.29289" lon="-0.1347">
        <ele>25.4</ele>
        <time>2026-06-20T05:46:36Z</time>
      </trkpt>
      <trkpt lat="47.29286" lon="-0.13463">
        <ele>25.4</ele>
        <time>2026-06-20T05:46:37Z</time>
      </trkpt>
      <trkpt lat="47.29281" lon="-0.13456">
        <ele>25.4</ele>
        <time>2026-06-20T05:46:38Z</time>
      </trkpt>
      <trkpt lat="47.29278" lon="-0.1345">
        <ele>25.4</ele>
        <time>2026-06-20T05:46:39Z</time>
      </trkpt>
      <trkpt lat="47.29274" lon="-0.13443">
        <ele>25.4</ele>
        <time>2026-06-20T05:46:40Z</time>
      </trkpt>
      <trkpt lat="47.29271" lon="-0.13436">
        <ele>25.4</ele>
        <time>2026-06-20T05:46:41Z</time>
      </trkpt>
      <trkpt lat="47.29267" lon="-0.1343">
        <ele>25.4</ele>
        <time>2026-06-20T05:46:42Z</time>
      </trkpt>
      <trkpt lat="47.29263" lon="-0.13422">
        <ele>25.4</ele>
        <time>2026-06-20T05:46:43Z</time>
      </trkpt>
      <trkpt lat="47.29259" lon="-0.13415">
        <ele>25.4</ele>
        <time>2026-06-20T05:46:44Z</time>
      </trkpt>
      <trkpt lat="47.29256" lon="-0.13408">
        <ele>25.2</ele>
        <time>2026-06-20T05:46:45Z</time>
      </trkpt>
      <trkpt lat="47.29252" lon="-0.13401">
        <ele>25.2</ele>
        <time>2026-06-20T05:46:46Z</time>
      </trkpt>
      <trkpt lat="47.29249" lon="-0.13395">
        <ele>25.2</ele>
        <time>2026-06-20T05:46:47Z</time>
      </trkpt>
      <trkpt lat="47.29245" lon="-0.13388">
        <ele>25.2</ele>
        <time>2026-06-20T05:46:48Z</time>
      </trkpt>
      <trkpt lat="47.29242" lon="-0.1338">
        <ele>25.2</ele>
        <time>2026-06-20T05:46:49Z</time>
      </trkpt>
      <trkpt lat="47.29238" lon="-0.13374">
        <ele>25.2</ele>
        <time>2026-06-20T05:46:50Z</time>
      </trkpt>
      <trkpt lat="47.29235" lon="-0.13368">
        <ele>25.2</ele>
        <time>2026-06-20T05:46:51Z</time>
      </trkpt>
      <trkpt lat="47.29232" lon="-0.13362">
        <ele>25.2</ele>
        <time>2026-06-20T05:46:52Z</time>
      </trkpt>
      <trkpt lat="47.29229" lon="-0.13355">
        <ele>25.2</ele>
        <time>2026-06-20T05:46:53Z</time>
      </trkpt>
      <trkpt lat="47.29226" lon="-0.13349">
        <ele>25.2</ele>
        <time>2026-06-20T05:46:54Z</time>
      </trkpt>
      <trkpt lat="47.29223" lon="-0.13342">
        <ele>25.2</ele>
        <time>2026-06-20T05:46:55Z</time>
      </trkpt>
      <trkpt lat="47.2922" lon="-0.13336">
        <ele>25.4</ele>
        <time>2026-06-20T05:46:56Z</time>
      </trkpt>
      <trkpt lat="47.29217" lon="-0.1333">
        <ele>25.4</ele>
        <time>2026-06-20T05:46:57Z</time>
      </trkpt>
      <trkpt lat="47.29214" lon="-0.13323">
        <ele>25.4</ele>
        <time>2026-06-20T05:46:58Z</time>
      </trkpt>
      <trkpt lat="47.29211" lon="-0.13316">
        <ele>25.4</ele>
        <time>2026-06-20T05:46:59Z</time>
      </trkpt>
      <trkpt lat="47.29208" lon="-0.1331">
        <ele>25.4</ele>
        <time>2026-06-20T05:47:00Z</time>
      </trkpt>
      <trkpt lat="47.29204" lon="-0.13302">
        <ele>25.4</ele>
        <time>2026-06-20T05:47:01Z</time>
      </trkpt>
      <trkpt lat="47.292" lon="-0.13294">
        <ele>25.4</ele>
        <time>2026-06-20T05:47:02Z</time>
      </trkpt>
      <trkpt lat="47.29197" lon="-0.13287">
        <ele>25.4</ele>
        <time>2026-06-20T05:47:03Z</time>
      </trkpt>
      <trkpt lat="47.29193" lon="-0.13279">
        <ele>25.6</ele>
        <time>2026-06-20T05:47:04Z</time>
      </trkpt>
      <trkpt lat="47.2919" lon="-0.13271">
        <ele>25.6</ele>
        <time>2026-06-20T05:47:05Z</time>
      </trkpt>
      <trkpt lat="47.29187" lon="-0.13263">
        <ele>25.6</ele>
        <time>2026-06-20T05:47:06Z</time>
      </trkpt>
      <trkpt lat="47.29183" lon="-0.13255">
        <ele>25.6</ele>
        <time>2026-06-20T05:47:07Z</time>
      </trkpt>
      <trkpt lat="47.29181" lon="-0.13247">
        <ele>25.6</ele>
        <time>2026-06-20T05:47:08Z</time>
      </trkpt>
      <trkpt lat="47.29178" lon="-0.13239">
        <ele>25.6</ele>
        <time>2026-06-20T05:47:09Z</time>
      </trkpt>
      <trkpt lat="47.29175" lon="-0.13231">
        <ele>25.8</ele>
        <time>2026-06-20T05:47:10Z</time>
      </trkpt>
      <trkpt lat="47.29172" lon="-0.13223">
        <ele>25.8</ele>
        <time>2026-06-20T05:47:11Z</time>
      </trkpt>
      <trkpt lat="47.29169" lon="-0.13214">
        <ele>25.8</ele>
        <time>2026-06-20T05:47:12Z</time>
      </trkpt>
      <trkpt lat="47.29166" lon="-0.13207">
        <ele>25.6</ele>
        <time>2026-06-20T05:47:13Z</time>
      </trkpt>
      <trkpt lat="47.29162" lon="-0.13199">
        <ele>25.6</ele>
        <time>2026-06-20T05:47:14Z</time>
      </trkpt>
      <trkpt lat="47.29159" lon="-0.13192">
        <ele>25.6</ele>
        <time>2026-06-20T05:47:15Z</time>
      </trkpt>
      <trkpt lat="47.29155" lon="-0.13185">
        <ele>25.6</ele>
        <time>2026-06-20T05:47:16Z</time>
      </trkpt>
      <trkpt lat="47.29152" lon="-0.13177">
        <ele>25.8</ele>
        <time>2026-06-20T05:47:17Z</time>
      </trkpt>
      <trkpt lat="47.29149" lon="-0.1317">
        <ele>25.8</ele>
        <time>2026-06-20T05:47:18Z</time>
      </trkpt>
      <trkpt lat="47.29146" lon="-0.13163">
        <ele>25.8</ele>
        <time>2026-06-20T05:47:19Z</time>
      </trkpt>
      <trkpt lat="47.29143" lon="-0.13155">
        <ele>25.8</ele>
        <time>2026-06-20T05:47:20Z</time>
      </trkpt>
      <trkpt lat="47.2914" lon="-0.13148">
        <ele>25.8</ele>
        <time>2026-06-20T05:47:21Z</time>
      </trkpt>
      <trkpt lat="47.29138" lon="-0.13141">
        <ele>25.6</ele>
        <time>2026-06-20T05:47:22Z</time>
      </trkpt>
      <trkpt lat="47.29135" lon="-0.13133">
        <ele>25.6</ele>
        <time>2026-06-20T05:47:23Z</time>
      </trkpt>
      <trkpt lat="47.29132" lon="-0.13126">
        <ele>25.6</ele>
        <time>2026-06-20T05:47:24Z</time>
      </trkpt>
      <trkpt lat="47.29129" lon="-0.13119">
        <ele>25.4</ele>
        <time>2026-06-20T05:47:25Z</time>
      </trkpt>
      <trkpt lat="47.29125" lon="-0.13112">
        <ele>25.4</ele>
        <time>2026-06-20T05:47:26Z</time>
      </trkpt>
      <trkpt lat="47.29122" lon="-0.13105">
        <ele>25.4</ele>
        <time>2026-06-20T05:47:27Z</time>
      </trkpt>
      <trkpt lat="47.29118" lon="-0.13098">
        <ele>25.4</ele>
        <time>2026-06-20T05:47:28Z</time>
      </trkpt>
      <trkpt lat="47.29115" lon="-0.13091">
        <ele>25.4</ele>
        <time>2026-06-20T05:47:29Z</time>
      </trkpt>
      <trkpt lat="47.29112" lon="-0.13084">
        <ele>25.4</ele>
        <time>2026-06-20T05:47:30Z</time>
      </trkpt>
      <trkpt lat="47.29108" lon="-0.13077">
        <ele>25.4</ele>
        <time>2026-06-20T05:47:31Z</time>
      </trkpt>
      <trkpt lat="47.29105" lon="-0.1307">
        <ele>25.4</ele>
        <time>2026-06-20T05:47:32Z</time>
      </trkpt>
      <trkpt lat="47.29102" lon="-0.13063">
        <ele>25.4</ele>
        <time>2026-06-20T05:47:33Z</time>
      </trkpt>
      <trkpt lat="47.29099" lon="-0.13056">
        <ele>25.4</ele>
        <time>2026-06-20T05:47:34Z</time>
      </trkpt>
      <trkpt lat="47.29095" lon="-0.13048">
        <ele>25.4</ele>
        <time>2026-06-20T05:47:35Z</time>
      </trkpt>
      <trkpt lat="47.29092" lon="-0.13041">
        <ele>25.6</ele>
        <time>2026-06-20T05:47:36Z</time>
      </trkpt>
      <trkpt lat="47.29089" lon="-0.13034">
        <ele>25.6</ele>
        <time>2026-06-20T05:47:37Z</time>
      </trkpt>
      <trkpt lat="47.29086" lon="-0.13027">
        <ele>25.6</ele>
        <time>2026-06-20T05:47:38Z</time>
      </trkpt>
      <trkpt lat="47.29083" lon="-0.1302">
        <ele>25.6</ele>
        <time>2026-06-20T05:47:39Z</time>
      </trkpt>
      <trkpt lat="47.29079" lon="-0.13013">
        <ele>25.6</ele>
        <time>2026-06-20T05:47:40Z</time>
      </trkpt>
      <trkpt lat="47.29076" lon="-0.13006">
        <ele>25.6</ele>
        <time>2026-06-20T05:47:41Z</time>
      </trkpt>
      <trkpt lat="47.29073" lon="-0.12998">
        <ele>25.6</ele>
        <time>2026-06-20T05:47:42Z</time>
      </trkpt>
      <trkpt lat="47.29069" lon="-0.12991">
        <ele>25.6</ele>
        <time>2026-06-20T05:47:43Z</time>
      </trkpt>
      <trkpt lat="47.29066" lon="-0.12985">
        <ele>25.6</ele>
        <time>2026-06-20T05:47:44Z</time>
      </trkpt>
      <trkpt lat="47.29062" lon="-0.12978">
        <ele>25.6</ele>
        <time>2026-06-20T05:47:45Z</time>
      </trkpt>
      <trkpt lat="47.29058" lon="-0.12971">
        <ele>25.8</ele>
        <time>2026-06-20T05:47:46Z</time>
      </trkpt>
      <trkpt lat="47.29055" lon="-0.12964">
        <ele>25.8</ele>
        <time>2026-06-20T05:47:47Z</time>
      </trkpt>
      <trkpt lat="47.29051" lon="-0.12957">
        <ele>25.8</ele>
        <time>2026-06-20T05:47:48Z</time>
      </trkpt>
      <trkpt lat="47.29048" lon="-0.1295">
        <ele>25.8</ele>
        <time>2026-06-20T05:47:49Z</time>
      </trkpt>
      <trkpt lat="47.29045" lon="-0.12943">
        <ele>25.6</ele>
        <time>2026-06-20T05:47:50Z</time>
      </trkpt>
      <trkpt lat="47.29042" lon="-0.12936">
        <ele>25.6</ele>
        <time>2026-06-20T05:47:51Z</time>
      </trkpt>
      <trkpt lat="47.29038" lon="-0.12929">
        <ele>25.6</ele>
        <time>2026-06-20T05:47:52Z</time>
      </trkpt>
      <trkpt lat="47.29035" lon="-0.12923">
        <ele>25.6</ele>
        <time>2026-06-20T05:47:53Z</time>
      </trkpt>
      <trkpt lat="47.29031" lon="-0.12916">
        <ele>25.6</ele>
        <time>2026-06-20T05:47:54Z</time>
      </trkpt>
      <trkpt lat="47.29028" lon="-0.12909">
        <ele>25.6</ele>
        <time>2026-06-20T05:47:55Z</time>
      </trkpt>
      <trkpt lat="47.29024" lon="-0.12902">
        <ele>25.8</ele>
        <time>2026-06-20T05:47:56Z</time>
      </trkpt>
      <trkpt lat="47.29021" lon="-0.12895">
        <ele>25.8</ele>
        <time>2026-06-20T05:47:57Z</time>
      </trkpt>
      <trkpt lat="47.29017" lon="-0.12889">
        <ele>25.8</ele>
        <time>2026-06-20T05:47:58Z</time>
      </trkpt>
      <trkpt lat="47.29014" lon="-0.12882">
        <ele>26</ele>
        <time>2026-06-20T05:47:59Z</time>
      </trkpt>
      <trkpt lat="47.29011" lon="-0.12875">
        <ele>26</ele>
        <time>2026-06-20T05:48:00Z</time>
      </trkpt>
      <trkpt lat="47.29007" lon="-0.12869">
        <ele>26</ele>
        <time>2026-06-20T05:48:01Z</time>
      </trkpt>
      <trkpt lat="47.29004" lon="-0.12862">
        <ele>26</ele>
        <time>2026-06-20T05:48:02Z</time>
      </trkpt>
      <trkpt lat="47.29001" lon="-0.12856">
        <ele>26</ele>
        <time>2026-06-20T05:48:03Z</time>
      </trkpt>
      <trkpt lat="47.28998" lon="-0.1285">
        <ele>25.8</ele>
        <time>2026-06-20T05:48:04Z</time>
      </trkpt>
      <trkpt lat="47.28994" lon="-0.12843">
        <ele>25.8</ele>
        <time>2026-06-20T05:48:05Z</time>
      </trkpt>
      <trkpt lat="47.2899" lon="-0.12837">
        <ele>25.8</ele>
        <time>2026-06-20T05:48:06Z</time>
      </trkpt>
      <trkpt lat="47.28986" lon="-0.1283">
        <ele>25.8</ele>
        <time>2026-06-20T05:48:07Z</time>
      </trkpt>
      <trkpt lat="47.28982" lon="-0.12824">
        <ele>25.8</ele>
        <time>2026-06-20T05:48:08Z</time>
      </trkpt>
      <trkpt lat="47.28979" lon="-0.12817">
        <ele>25.8</ele>
        <time>2026-06-20T05:48:09Z</time>
      </trkpt>
      <trkpt lat="47.28975" lon="-0.1281">
        <ele>25.8</ele>
        <time>2026-06-20T05:48:10Z</time>
      </trkpt>
      <trkpt lat="47.28971" lon="-0.12803">
        <ele>25.8</ele>
        <time>2026-06-20T05:48:11Z</time>
      </trkpt>
      <trkpt lat="47.28967" lon="-0.12797">
        <ele>25.6</ele>
        <time>2026-06-20T05:48:12Z</time>
      </trkpt>
      <trkpt lat="47.28962" lon="-0.12791">
        <ele>25.6</ele>
        <time>2026-06-20T05:48:13Z</time>
      </trkpt>
      <trkpt lat="47.28958" lon="-0.12785">
        <ele>25.6</ele>
        <time>2026-06-20T05:48:14Z</time>
      </trkpt>
      <trkpt lat="47.28954" lon="-0.12778">
        <ele>25.6</ele>
        <time>2026-06-20T05:48:15Z</time>
      </trkpt>
      <trkpt lat="47.2895" lon="-0.12771">
        <ele>25.6</ele>
        <time>2026-06-20T05:48:16Z</time>
      </trkpt>
      <trkpt lat="47.28946" lon="-0.12764">
        <ele>25.6</ele>
        <time>2026-06-20T05:48:17Z</time>
      </trkpt>
      <trkpt lat="47.28942" lon="-0.12757">
        <ele>25.6</ele>
        <time>2026-06-20T05:48:18Z</time>
      </trkpt>
      <trkpt lat="47.28939" lon="-0.1275">
        <ele>25.6</ele>
        <time>2026-06-20T05:48:19Z</time>
      </trkpt>
      <trkpt lat="47.28935" lon="-0.12744">
        <ele>25.6</ele>
        <time>2026-06-20T05:48:20Z</time>
      </trkpt>
      <trkpt lat="47.2893" lon="-0.12737">
        <ele>25.6</ele>
        <time>2026-06-20T05:48:21Z</time>
      </trkpt>
      <trkpt lat="47.28927" lon="-0.12731">
        <ele>25.6</ele>
        <time>2026-06-20T05:48:22Z</time>
      </trkpt>
      <trkpt lat="47.28923" lon="-0.12724">
        <ele>25.6</ele>
        <time>2026-06-20T05:48:23Z</time>
      </trkpt>
      <trkpt lat="47.28919" lon="-0.12717">
        <ele>25.6</ele>
        <time>2026-06-20T05:48:24Z</time>
      </trkpt>
      <trkpt lat="47.28915" lon="-0.1271">
        <ele>25.6</ele>
        <time>2026-06-20T05:48:25Z</time>
      </trkpt>
      <trkpt lat="47.28911" lon="-0.12703">
        <ele>25.6</ele>
        <time>2026-06-20T05:48:26Z</time>
      </trkpt>
      <trkpt lat="47.28907" lon="-0.12697">
        <ele>25.6</ele>
        <time>2026-06-20T05:48:27Z</time>
      </trkpt>
      <trkpt lat="47.28904" lon="-0.1269">
        <ele>25.6</ele>
        <time>2026-06-20T05:48:28Z</time>
      </trkpt>
      <trkpt lat="47.289" lon="-0.12684">
        <ele>25.6</ele>
        <time>2026-06-20T05:48:29Z</time>
      </trkpt>
      <trkpt lat="47.28896" lon="-0.12677">
        <ele>25.8</ele>
        <time>2026-06-20T05:48:30Z</time>
      </trkpt>
      <trkpt lat="47.28893" lon="-0.1267">
        <ele>25.8</ele>
        <time>2026-06-20T05:48:31Z</time>
      </trkpt>
      <trkpt lat="47.28889" lon="-0.12663">
        <ele>25.8</ele>
        <time>2026-06-20T05:48:32Z</time>
      </trkpt>
      <trkpt lat="47.28885" lon="-0.12657">
        <ele>25.8</ele>
        <time>2026-06-20T05:48:33Z</time>
      </trkpt>
      <trkpt lat="47.28882" lon="-0.1265">
        <ele>25.8</ele>
        <time>2026-06-20T05:48:34Z</time>
      </trkpt>
      <trkpt lat="47.28879" lon="-0.12644">
        <ele>25.8</ele>
        <time>2026-06-20T05:48:35Z</time>
      </trkpt>
      <trkpt lat="47.28875" lon="-0.12637">
        <ele>25.8</ele>
        <time>2026-06-20T05:48:36Z</time>
      </trkpt>
      <trkpt lat="47.28872" lon="-0.12631">
        <ele>25.8</ele>
        <time>2026-06-20T05:48:37Z</time>
      </trkpt>
      <trkpt lat="47.28868" lon="-0.12624">
        <ele>25.8</ele>
        <time>2026-06-20T05:48:38Z</time>
      </trkpt>
      <trkpt lat="47.28864" lon="-0.12617">
        <ele>25.8</ele>
        <time>2026-06-20T05:48:39Z</time>
      </trkpt>
      <trkpt lat="47.28861" lon="-0.1261">
        <ele>25.8</ele>
        <time>2026-06-20T05:48:40Z</time>
      </trkpt>
      <trkpt lat="47.28858" lon="-0.12603">
        <ele>25.8</ele>
        <time>2026-06-20T05:48:41Z</time>
      </trkpt>
      <trkpt lat="47.28854" lon="-0.12595">
        <ele>25.8</ele>
        <time>2026-06-20T05:48:42Z</time>
      </trkpt>
      <trkpt lat="47.28851" lon="-0.12588">
        <ele>25.8</ele>
        <time>2026-06-20T05:48:43Z</time>
      </trkpt>
      <trkpt lat="47.28848" lon="-0.1258">
        <ele>25.8</ele>
        <time>2026-06-20T05:48:44Z</time>
      </trkpt>
      <trkpt lat="47.28845" lon="-0.12573">
        <ele>25.8</ele>
        <time>2026-06-20T05:48:45Z</time>
      </trkpt>
      <trkpt lat="47.28843" lon="-0.12565">
        <ele>25.8</ele>
        <time>2026-06-20T05:48:46Z</time>
      </trkpt>
      <trkpt lat="47.2884" lon="-0.12557">
        <ele>25.8</ele>
        <time>2026-06-20T05:48:47Z</time>
      </trkpt>
      <trkpt lat="47.28837" lon="-0.1255">
        <ele>25.8</ele>
        <time>2026-06-20T05:48:48Z</time>
      </trkpt>
      <trkpt lat="47.28834" lon="-0.12543">
        <ele>25.8</ele>
        <time>2026-06-20T05:48:49Z</time>
      </trkpt>
      <trkpt lat="47.2883" lon="-0.12535">
        <ele>25.8</ele>
        <time>2026-06-20T05:48:50Z</time>
      </trkpt>
      <trkpt lat="47.28827" lon="-0.12528">
        <ele>25.8</ele>
        <time>2026-06-20T05:48:51Z</time>
      </trkpt>
      <trkpt lat="47.28824" lon="-0.12521">
        <ele>25.8</ele>
        <time>2026-06-20T05:48:52Z</time>
      </trkpt>
      <trkpt lat="47.2882" lon="-0.12514">
        <ele>25.8</ele>
        <time>2026-06-20T05:48:53Z</time>
      </trkpt>
      <trkpt lat="47.28817" lon="-0.12508">
        <ele>25.8</ele>
        <time>2026-06-20T05:48:54Z</time>
      </trkpt>
      <trkpt lat="47.28814" lon="-0.12501">
        <ele>26</ele>
        <time>2026-06-20T05:48:55Z</time>
      </trkpt>
      <trkpt lat="47.2881" lon="-0.12494">
        <ele>26.2</ele>
        <time>2026-06-20T05:48:56Z</time>
      </trkpt>
      <trkpt lat="47.28807" lon="-0.12488">
        <ele>26.2</ele>
        <time>2026-06-20T05:48:57Z</time>
      </trkpt>
      <trkpt lat="47.28804" lon="-0.12481">
        <ele>26.2</ele>
        <time>2026-06-20T05:48:58Z</time>
      </trkpt>
      <trkpt lat="47.28801" lon="-0.12474">
        <ele>26.2</ele>
        <time>2026-06-20T05:48:59Z</time>
      </trkpt>
      <trkpt lat="47.28797" lon="-0.12468">
        <ele>26.2</ele>
        <time>2026-06-20T05:49:00Z</time>
      </trkpt>
      <trkpt lat="47.28794" lon="-0.12461">
        <ele>26.2</ele>
        <time>2026-06-20T05:49:01Z</time>
      </trkpt>
      <trkpt lat="47.28791" lon="-0.12454">
        <ele>26.2</ele>
        <time>2026-06-20T05:49:02Z</time>
      </trkpt>
      <trkpt lat="47.28787" lon="-0.12447">
        <ele>26.2</ele>
        <time>2026-06-20T05:49:03Z</time>
      </trkpt>
      <trkpt lat="47.28784" lon="-0.1244">
        <ele>26.2</ele>
        <time>2026-06-20T05:49:04Z</time>
      </trkpt>
      <trkpt lat="47.2878" lon="-0.12433">
        <ele>26.2</ele>
        <time>2026-06-20T05:49:05Z</time>
      </trkpt>
      <trkpt lat="47.28776" lon="-0.12426">
        <ele>26.2</ele>
        <time>2026-06-20T05:49:06Z</time>
      </trkpt>
      <trkpt lat="47.28773" lon="-0.1242">
        <ele>26.2</ele>
        <time>2026-06-20T05:49:07Z</time>
      </trkpt>
      <trkpt lat="47.28769" lon="-0.12413">
        <ele>26</ele>
        <time>2026-06-20T05:49:08Z</time>
      </trkpt>
      <trkpt lat="47.28765" lon="-0.12406">
        <ele>26</ele>
        <time>2026-06-20T05:49:09Z</time>
      </trkpt>
      <trkpt lat="47.28762" lon="-0.124">
        <ele>26</ele>
        <time>2026-06-20T05:49:10Z</time>
      </trkpt>
      <trkpt lat="47.28758" lon="-0.12393">
        <ele>26.2</ele>
        <time>2026-06-20T05:49:11Z</time>
      </trkpt>
      <trkpt lat="47.28755" lon="-0.12387">
        <ele>26.2</ele>
        <time>2026-06-20T05:49:12Z</time>
      </trkpt>
      <trkpt lat="47.28752" lon="-0.1238">
        <ele>26.4</ele>
        <time>2026-06-20T05:49:13Z</time>
      </trkpt>
      <trkpt lat="47.28748" lon="-0.12373">
        <ele>26.4</ele>
        <time>2026-06-20T05:49:14Z</time>
      </trkpt>
      <trkpt lat="47.28745" lon="-0.12366">
        <ele>26.4</ele>
        <time>2026-06-20T05:49:15Z</time>
      </trkpt>
      <trkpt lat="47.28741" lon="-0.1236">
        <ele>26.4</ele>
        <time>2026-06-20T05:49:16Z</time>
      </trkpt>
      <trkpt lat="47.28738" lon="-0.12353">
        <ele>26.6</ele>
        <time>2026-06-20T05:49:17Z</time>
      </trkpt>
      <trkpt lat="47.28734" lon="-0.12347">
        <ele>26.6</ele>
        <time>2026-06-20T05:49:18Z</time>
      </trkpt>
      <trkpt lat="47.28731" lon="-0.12339">
        <ele>26.6</ele>
        <time>2026-06-20T05:49:19Z</time>
      </trkpt>
      <trkpt lat="47.28728" lon="-0.12332">
        <ele>26.6</ele>
        <time>2026-06-20T05:49:20Z</time>
      </trkpt>
      <trkpt lat="47.28725" lon="-0.12325">
        <ele>26.6</ele>
        <time>2026-06-20T05:49:21Z</time>
      </trkpt>
      <trkpt lat="47.28721" lon="-0.12318">
        <ele>26.6</ele>
        <time>2026-06-20T05:49:22Z</time>
      </trkpt>
      <trkpt lat="47.28718" lon="-0.1231">
        <ele>26.6</ele>
        <time>2026-06-20T05:49:23Z</time>
      </trkpt>
      <trkpt lat="47.28715" lon="-0.12303">
        <ele>26.6</ele>
        <time>2026-06-20T05:49:24Z</time>
      </trkpt>
      <trkpt lat="47.28711" lon="-0.12296">
        <ele>26.6</ele>
        <time>2026-06-20T05:49:25Z</time>
      </trkpt>
      <trkpt lat="47.28708" lon="-0.12289">
        <ele>26.6</ele>
        <time>2026-06-20T05:49:26Z</time>
      </trkpt>
      <trkpt lat="47.28705" lon="-0.12282">
        <ele>26.6</ele>
        <time>2026-06-20T05:49:27Z</time>
      </trkpt>
      <trkpt lat="47.28701" lon="-0.12275">
        <ele>26.4</ele>
        <time>2026-06-20T05:49:28Z</time>
      </trkpt>
      <trkpt lat="47.28697" lon="-0.12268">
        <ele>26.4</ele>
        <time>2026-06-20T05:49:29Z</time>
      </trkpt>
      <trkpt lat="47.28694" lon="-0.12261">
        <ele>26.4</ele>
        <time>2026-06-20T05:49:30Z</time>
      </trkpt>
      <trkpt lat="47.28691" lon="-0.12254">
        <ele>26.4</ele>
        <time>2026-06-20T05:49:31Z</time>
      </trkpt>
      <trkpt lat="47.28687" lon="-0.12247">
        <ele>26.4</ele>
        <time>2026-06-20T05:49:32Z</time>
      </trkpt>
      <trkpt lat="47.28684" lon="-0.1224">
        <ele>26.4</ele>
        <time>2026-06-20T05:49:33Z</time>
      </trkpt>
      <trkpt lat="47.28681" lon="-0.12233">
        <ele>26.4</ele>
        <time>2026-06-20T05:49:34Z</time>
      </trkpt>
      <trkpt lat="47.28677" lon="-0.12226">
        <ele>26.4</ele>
        <time>2026-06-20T05:49:35Z</time>
      </trkpt>
      <trkpt lat="47.28674" lon="-0.12219">
        <ele>26.4</ele>
        <time>2026-06-20T05:49:36Z</time>
      </trkpt>
      <trkpt lat="47.28671" lon="-0.12212">
        <ele>26.4</ele>
        <time>2026-06-20T05:49:37Z</time>
      </trkpt>
      <trkpt lat="47.28667" lon="-0.12205">
        <ele>26.2</ele>
        <time>2026-06-20T05:49:38Z</time>
      </trkpt>
      <trkpt lat="47.28664" lon="-0.12198">
        <ele>26.2</ele>
        <time>2026-06-20T05:49:39Z</time>
      </trkpt>
      <trkpt lat="47.2866" lon="-0.12191">
        <ele>26.2</ele>
        <time>2026-06-20T05:49:40Z</time>
      </trkpt>
      <trkpt lat="47.28657" lon="-0.12184">
        <ele>26.2</ele>
        <time>2026-06-20T05:49:41Z</time>
      </trkpt>
      <trkpt lat="47.28654" lon="-0.12177">
        <ele>26.4</ele>
        <time>2026-06-20T05:49:42Z</time>
      </trkpt>
      <trkpt lat="47.28651" lon="-0.1217">
        <ele>26.4</ele>
        <time>2026-06-20T05:49:43Z</time>
      </trkpt>
      <trkpt lat="47.28648" lon="-0.12163">
        <ele>26.4</ele>
        <time>2026-06-20T05:49:44Z</time>
      </trkpt>
      <trkpt lat="47.28645" lon="-0.12156">
        <ele>26.4</ele>
        <time>2026-06-20T05:49:45Z</time>
      </trkpt>
      <trkpt lat="47.28642" lon="-0.1215">
        <ele>26.6</ele>
        <time>2026-06-20T05:49:46Z</time>
      </trkpt>
      <trkpt lat="47.28639" lon="-0.12143">
        <ele>26.6</ele>
        <time>2026-06-20T05:49:47Z</time>
      </trkpt>
      <trkpt lat="47.28636" lon="-0.12135">
        <ele>26.4</ele>
        <time>2026-06-20T05:49:48Z</time>
      </trkpt>
      <trkpt lat="47.28633" lon="-0.12128">
        <ele>26.6</ele>
        <time>2026-06-20T05:49:49Z</time>
      </trkpt>
      <trkpt lat="47.2863" lon="-0.12121">
        <ele>26.6</ele>
        <time>2026-06-20T05:49:50Z</time>
      </trkpt>
      <trkpt lat="47.28627" lon="-0.12114">
        <ele>26.6</ele>
        <time>2026-06-20T05:49:51Z</time>
      </trkpt>
      <trkpt lat="47.28624" lon="-0.12107">
        <ele>26.6</ele>
        <time>2026-06-20T05:49:52Z</time>
      </trkpt>
      <trkpt lat="47.28622" lon="-0.121">
        <ele>26.6</ele>
        <time>2026-06-20T05:49:53Z</time>
      </trkpt>
      <trkpt lat="47.28619" lon="-0.12092">
        <ele>26.6</ele>
        <time>2026-06-20T05:49:54Z</time>
      </trkpt>
      <trkpt lat="47.28616" lon="-0.12085">
        <ele>26.6</ele>
        <time>2026-06-20T05:49:55Z</time>
      </trkpt>
      <trkpt lat="47.28613" lon="-0.12078">
        <ele>26.6</ele>
        <time>2026-06-20T05:49:56Z</time>
      </trkpt>
      <trkpt lat="47.28611" lon="-0.1207">
        <ele>26.6</ele>
        <time>2026-06-20T05:49:57Z</time>
      </trkpt>
      <trkpt lat="47.28608" lon="-0.12063">
        <ele>26.6</ele>
        <time>2026-06-20T05:49:58Z</time>
      </trkpt>
      <trkpt lat="47.28605" lon="-0.12055">
        <ele>26.6</ele>
        <time>2026-06-20T05:49:59Z</time>
      </trkpt>
      <trkpt lat="47.28603" lon="-0.12048">
        <ele>26.6</ele>
        <time>2026-06-20T05:50:00Z</time>
      </trkpt>
      <trkpt lat="47.286" lon="-0.1204">
        <ele>26.8</ele>
        <time>2026-06-20T05:50:01Z</time>
      </trkpt>
      <trkpt lat="47.28597" lon="-0.12032">
        <ele>26.8</ele>
        <time>2026-06-20T05:50:02Z</time>
      </trkpt>
      <trkpt lat="47.28594" lon="-0.12025">
        <ele>26.8</ele>
        <time>2026-06-20T05:50:03Z</time>
      </trkpt>
      <trkpt lat="47.28591" lon="-0.12018">
        <ele>26.6</ele>
        <time>2026-06-20T05:50:04Z</time>
      </trkpt>
      <trkpt lat="47.28588" lon="-0.1201">
        <ele>26.6</ele>
        <time>2026-06-20T05:50:05Z</time>
      </trkpt>
      <trkpt lat="47.28585" lon="-0.12002">
        <ele>26.6</ele>
        <time>2026-06-20T05:50:06Z</time>
      </trkpt>
      <trkpt lat="47.28581" lon="-0.11995">
        <ele>26.6</ele>
        <time>2026-06-20T05:50:07Z</time>
      </trkpt>
      <trkpt lat="47.28578" lon="-0.11988">
        <ele>26.6</ele>
        <time>2026-06-20T05:50:08Z</time>
      </trkpt>
      <trkpt lat="47.28575" lon="-0.11981">
        <ele>26.4</ele>
        <time>2026-06-20T05:50:09Z</time>
      </trkpt>
      <trkpt lat="47.28571" lon="-0.11974">
        <ele>26.4</ele>
        <time>2026-06-20T05:50:10Z</time>
      </trkpt>
      <trkpt lat="47.28568" lon="-0.11967">
        <ele>26.6</ele>
        <time>2026-06-20T05:50:11Z</time>
      </trkpt>
      <trkpt lat="47.28564" lon="-0.11961">
        <ele>26.6</ele>
        <time>2026-06-20T05:50:12Z</time>
      </trkpt>
      <trkpt lat="47.2856" lon="-0.11954">
        <ele>26.6</ele>
        <time>2026-06-20T05:50:13Z</time>
      </trkpt>
      <trkpt lat="47.28556" lon="-0.11948">
        <ele>26.6</ele>
        <time>2026-06-20T05:50:14Z</time>
      </trkpt>
      <trkpt lat="47.28553" lon="-0.11941">
        <ele>26.8</ele>
        <time>2026-06-20T05:50:15Z</time>
      </trkpt>
      <trkpt lat="47.28549" lon="-0.11935">
        <ele>26.8</ele>
        <time>2026-06-20T05:50:16Z</time>
      </trkpt>
      <trkpt lat="47.28545" lon="-0.11929">
        <ele>26.8</ele>
        <time>2026-06-20T05:50:17Z</time>
      </trkpt>
      <trkpt lat="47.2854" lon="-0.11924">
        <ele>26.8</ele>
        <time>2026-06-20T05:50:18Z</time>
      </trkpt>
      <trkpt lat="47.28536" lon="-0.11918">
        <ele>27</ele>
        <time>2026-06-20T05:50:19Z</time>
      </trkpt>
      <trkpt lat="47.28532" lon="-0.11912">
        <ele>27</ele>
        <time>2026-06-20T05:50:20Z</time>
      </trkpt>
      <trkpt lat="47.28529" lon="-0.11906">
        <ele>27</ele>
        <time>2026-06-20T05:50:21Z</time>
      </trkpt>
      <trkpt lat="47.28525" lon="-0.11899">
        <ele>27.2</ele>
        <time>2026-06-20T05:50:22Z</time>
      </trkpt>
      <trkpt lat="47.28521" lon="-0.11894">
        <ele>27.2</ele>
        <time>2026-06-20T05:50:23Z</time>
      </trkpt>
      <trkpt lat="47.28517" lon="-0.11888">
        <ele>27.2</ele>
        <time>2026-06-20T05:50:24Z</time>
      </trkpt>
      <trkpt lat="47.28513" lon="-0.11882">
        <ele>27.2</ele>
        <time>2026-06-20T05:50:25Z</time>
      </trkpt>
      <trkpt lat="47.28509" lon="-0.11876">
        <ele>27.2</ele>
        <time>2026-06-20T05:50:26Z</time>
      </trkpt>
      <trkpt lat="47.28505" lon="-0.1187">
        <ele>27.2</ele>
        <time>2026-06-20T05:50:27Z</time>
      </trkpt>
      <trkpt lat="47.28501" lon="-0.11864">
        <ele>27.2</ele>
        <time>2026-06-20T05:50:28Z</time>
      </trkpt>
      <trkpt lat="47.28497" lon="-0.11858">
        <ele>27.2</ele>
        <time>2026-06-20T05:50:29Z</time>
      </trkpt>
      <trkpt lat="47.28494" lon="-0.11852">
        <ele>27.2</ele>
        <time>2026-06-20T05:50:30Z</time>
      </trkpt>
      <trkpt lat="47.2849" lon="-0.11846">
        <ele>27.2</ele>
        <time>2026-06-20T05:50:31Z</time>
      </trkpt>
      <trkpt lat="47.28486" lon="-0.11839">
        <ele>27.2</ele>
        <time>2026-06-20T05:50:32Z</time>
      </trkpt>
      <trkpt lat="47.28482" lon="-0.11833">
        <ele>27.4</ele>
        <time>2026-06-20T05:50:33Z</time>
      </trkpt>
      <trkpt lat="47.28478" lon="-0.11827">
        <ele>27.4</ele>
        <time>2026-06-20T05:50:34Z</time>
      </trkpt>
      <trkpt lat="47.28474" lon="-0.11821">
        <ele>27.4</ele>
        <time>2026-06-20T05:50:35Z</time>
      </trkpt>
      <trkpt lat="47.2847" lon="-0.11815">
        <ele>27.4</ele>
        <time>2026-06-20T05:50:36Z</time>
      </trkpt>
      <trkpt lat="47.28465" lon="-0.11809">
        <ele>27.2</ele>
        <time>2026-06-20T05:50:37Z</time>
      </trkpt>
      <trkpt lat="47.28461" lon="-0.11803">
        <ele>27.2</ele>
        <time>2026-06-20T05:50:38Z</time>
      </trkpt>
      <trkpt lat="47.28457" lon="-0.11797">
        <ele>27.2</ele>
        <time>2026-06-20T05:50:39Z</time>
      </trkpt>
      <trkpt lat="47.28453" lon="-0.11792">
        <ele>27.2</ele>
        <time>2026-06-20T05:50:40Z</time>
      </trkpt>
      <trkpt lat="47.28448" lon="-0.11786">
        <ele>27.2</ele>
        <time>2026-06-20T05:50:41Z</time>
      </trkpt>
      <trkpt lat="47.28444" lon="-0.1178">
        <ele>27.2</ele>
        <time>2026-06-20T05:50:42Z</time>
      </trkpt>
      <trkpt lat="47.2844" lon="-0.11775">
        <ele>27.2</ele>
        <time>2026-06-20T05:50:43Z</time>
      </trkpt>
      <trkpt lat="47.28436" lon="-0.11769">
        <ele>27.2</ele>
        <time>2026-06-20T05:50:44Z</time>
      </trkpt>
      <trkpt lat="47.28431" lon="-0.11764">
        <ele>27.2</ele>
        <time>2026-06-20T05:50:45Z</time>
      </trkpt>
      <trkpt lat="47.28427" lon="-0.11758">
        <ele>27.2</ele>
        <time>2026-06-20T05:50:46Z</time>
      </trkpt>
      <trkpt lat="47.28423" lon="-0.11752">
        <ele>27.2</ele>
        <time>2026-06-20T05:50:47Z</time>
      </trkpt>
      <trkpt lat="47.28418" lon="-0.11746">
        <ele>27.2</ele>
        <time>2026-06-20T05:50:48Z</time>
      </trkpt>
      <trkpt lat="47.28414" lon="-0.1174">
        <ele>27.2</ele>
        <time>2026-06-20T05:50:49Z</time>
      </trkpt>
      <trkpt lat="47.2841" lon="-0.11734">
        <ele>27.2</ele>
        <time>2026-06-20T05:50:50Z</time>
      </trkpt>
      <trkpt lat="47.28406" lon="-0.11728">
        <ele>27.2</ele>
        <time>2026-06-20T05:50:51Z</time>
      </trkpt>
      <trkpt lat="47.28402" lon="-0.11722">
        <ele>27.2</ele>
        <time>2026-06-20T05:50:52Z</time>
      </trkpt>
      <trkpt lat="47.28398" lon="-0.11716">
        <ele>27.2</ele>
        <time>2026-06-20T05:50:53Z</time>
      </trkpt>
      <trkpt lat="47.28394" lon="-0.1171">
        <ele>27.2</ele>
        <time>2026-06-20T05:50:54Z</time>
      </trkpt>
      <trkpt lat="47.2839" lon="-0.11704">
        <ele>27.2</ele>
        <time>2026-06-20T05:50:55Z</time>
      </trkpt>
      <trkpt lat="47.28386" lon="-0.11698">
        <ele>27.2</ele>
        <time>2026-06-20T05:50:56Z</time>
      </trkpt>
      <trkpt lat="47.28381" lon="-0.11691">
        <ele>27.2</ele>
        <time>2026-06-20T05:50:57Z</time>
      </trkpt>
      <trkpt lat="47.28377" lon="-0.11685">
        <ele>27</ele>
        <time>2026-06-20T05:50:58Z</time>
      </trkpt>
      <trkpt lat="47.28373" lon="-0.11679">
        <ele>27</ele>
        <time>2026-06-20T05:50:59Z</time>
      </trkpt>
      <trkpt lat="47.28369" lon="-0.11673">
        <ele>26.8</ele>
        <time>2026-06-20T05:51:00Z</time>
      </trkpt>
      <trkpt lat="47.28365" lon="-0.11667">
        <ele>26.8</ele>
        <time>2026-06-20T05:51:01Z</time>
      </trkpt>
      <trkpt lat="47.28361" lon="-0.11661">
        <ele>26.8</ele>
        <time>2026-06-20T05:51:02Z</time>
      </trkpt>
      <trkpt lat="47.28357" lon="-0.11655">
        <ele>26.6</ele>
        <time>2026-06-20T05:51:03Z</time>
      </trkpt>
      <trkpt lat="47.28353" lon="-0.11649">
        <ele>26.6</ele>
        <time>2026-06-20T05:51:04Z</time>
      </trkpt>
      <trkpt lat="47.28349" lon="-0.11643">
        <ele>26.6</ele>
        <time>2026-06-20T05:51:05Z</time>
      </trkpt>
      <trkpt lat="47.28345" lon="-0.11637">
        <ele>26.6</ele>
        <time>2026-06-20T05:51:06Z</time>
      </trkpt>
      <trkpt lat="47.28341" lon="-0.1163">
        <ele>26.6</ele>
        <time>2026-06-20T05:51:07Z</time>
      </trkpt>
      <trkpt lat="47.28337" lon="-0.11624">
        <ele>26.4</ele>
        <time>2026-06-20T05:51:08Z</time>
      </trkpt>
      <trkpt lat="47.28333" lon="-0.11618">
        <ele>26.4</ele>
        <time>2026-06-20T05:51:09Z</time>
      </trkpt>
      <trkpt lat="47.28329" lon="-0.11612">
        <ele>26.4</ele>
        <time>2026-06-20T05:51:10Z</time>
      </trkpt>
      <trkpt lat="47.28325" lon="-0.11606">
        <ele>26.4</ele>
        <time>2026-06-20T05:51:11Z</time>
      </trkpt>
      <trkpt lat="47.28321" lon="-0.116">
        <ele>26.4</ele>
        <time>2026-06-20T05:51:12Z</time>
      </trkpt>
      <trkpt lat="47.28317" lon="-0.11595">
        <ele>26.4</ele>
        <time>2026-06-20T05:51:13Z</time>
      </trkpt>
      <trkpt lat="47.28313" lon="-0.11589">
        <ele>26.4</ele>
        <time>2026-06-20T05:51:14Z</time>
      </trkpt>
      <trkpt lat="47.2831" lon="-0.11583">
        <ele>26.6</ele>
        <time>2026-06-20T05:51:15Z</time>
      </trkpt>
      <trkpt lat="47.28306" lon="-0.11577">
        <ele>26.6</ele>
        <time>2026-06-20T05:51:16Z</time>
      </trkpt>
      <trkpt lat="47.28302" lon="-0.11572">
        <ele>26.6</ele>
        <time>2026-06-20T05:51:17Z</time>
      </trkpt>
      <trkpt lat="47.28298" lon="-0.11566">
        <ele>26.6</ele>
        <time>2026-06-20T05:51:18Z</time>
      </trkpt>
      <trkpt lat="47.28295" lon="-0.11561">
        <ele>26.8</ele>
        <time>2026-06-20T05:51:19Z</time>
      </trkpt>
      <trkpt lat="47.28291" lon="-0.11555">
        <ele>26.8</ele>
        <time>2026-06-20T05:51:20Z</time>
      </trkpt>
      <trkpt lat="47.28288" lon="-0.11548">
        <ele>27</ele>
        <time>2026-06-20T05:51:21Z</time>
      </trkpt>
      <trkpt lat="47.28284" lon="-0.11542">
        <ele>27</ele>
        <time>2026-06-20T05:51:22Z</time>
      </trkpt>
      <trkpt lat="47.28281" lon="-0.11535">
        <ele>27</ele>
        <time>2026-06-20T05:51:23Z</time>
      </trkpt>
      <trkpt lat="47.28278" lon="-0.11529">
        <ele>27</ele>
        <time>2026-06-20T05:51:24Z</time>
      </trkpt>
      <trkpt lat="47.28275" lon="-0.11522">
        <ele>27</ele>
        <time>2026-06-20T05:51:25Z</time>
      </trkpt>
      <trkpt lat="47.28272" lon="-0.11515">
        <ele>27</ele>
        <time>2026-06-20T05:51:26Z</time>
      </trkpt>
      <trkpt lat="47.28269" lon="-0.11508">
        <ele>27</ele>
        <time>2026-06-20T05:51:27Z</time>
      </trkpt>
      <trkpt lat="47.28266" lon="-0.11502">
        <ele>27</ele>
        <time>2026-06-20T05:51:28Z</time>
      </trkpt>
      <trkpt lat="47.28263" lon="-0.11495">
        <ele>27</ele>
        <time>2026-06-20T05:51:29Z</time>
      </trkpt>
      <trkpt lat="47.28261" lon="-0.11487">
        <ele>27</ele>
        <time>2026-06-20T05:51:30Z</time>
      </trkpt>
      <trkpt lat="47.28258" lon="-0.1148">
        <ele>27.2</ele>
        <time>2026-06-20T05:51:31Z</time>
      </trkpt>
      <trkpt lat="47.28255" lon="-0.11473">
        <ele>27.2</ele>
        <time>2026-06-20T05:51:32Z</time>
      </trkpt>
      <trkpt lat="47.28252" lon="-0.11465">
        <ele>27.2</ele>
        <time>2026-06-20T05:51:33Z</time>
      </trkpt>
      <trkpt lat="47.28249" lon="-0.11458">
        <ele>27.2</ele>
        <time>2026-06-20T05:51:34Z</time>
      </trkpt>
      <trkpt lat="47.28246" lon="-0.11451">
        <ele>27.2</ele>
        <time>2026-06-20T05:51:35Z</time>
      </trkpt>
      <trkpt lat="47.28243" lon="-0.11444">
        <ele>27.2</ele>
        <time>2026-06-20T05:51:36Z</time>
      </trkpt>
      <trkpt lat="47.2824" lon="-0.11436">
        <ele>27.2</ele>
        <time>2026-06-20T05:51:37Z</time>
      </trkpt>
      <trkpt lat="47.28237" lon="-0.11429">
        <ele>27.2</ele>
        <time>2026-06-20T05:51:38Z</time>
      </trkpt>
      <trkpt lat="47.28235" lon="-0.11421">
        <ele>27.2</ele>
        <time>2026-06-20T05:51:39Z</time>
      </trkpt>
      <trkpt lat="47.28232" lon="-0.11414">
        <ele>27.2</ele>
        <time>2026-06-20T05:51:40Z</time>
      </trkpt>
      <trkpt lat="47.28229" lon="-0.11407">
        <ele>27.2</ele>
        <time>2026-06-20T05:51:41Z</time>
      </trkpt>
      <trkpt lat="47.28226" lon="-0.114">
        <ele>27.2</ele>
        <time>2026-06-20T05:51:42Z</time>
      </trkpt>
      <trkpt lat="47.28222" lon="-0.11392">
        <ele>27.2</ele>
        <time>2026-06-20T05:51:43Z</time>
      </trkpt>
      <trkpt lat="47.28219" lon="-0.11385">
        <ele>27.2</ele>
        <time>2026-06-20T05:51:44Z</time>
      </trkpt>
      <trkpt lat="47.28216" lon="-0.11378">
        <ele>27.2</ele>
        <time>2026-06-20T05:51:45Z</time>
      </trkpt>
      <trkpt lat="47.28213" lon="-0.11371">
        <ele>27.2</ele>
        <time>2026-06-20T05:51:46Z</time>
      </trkpt>
      <trkpt lat="47.2821" lon="-0.11363">
        <ele>27.2</ele>
        <time>2026-06-20T05:51:47Z</time>
      </trkpt>
      <trkpt lat="47.28208" lon="-0.11355">
        <ele>27.2</ele>
        <time>2026-06-20T05:51:48Z</time>
      </trkpt>
      <trkpt lat="47.28205" lon="-0.11348">
        <ele>27.2</ele>
        <time>2026-06-20T05:51:49Z</time>
      </trkpt>
      <trkpt lat="47.28202" lon="-0.11341">
        <ele>27.2</ele>
        <time>2026-06-20T05:51:50Z</time>
      </trkpt>
      <trkpt lat="47.28199" lon="-0.11333">
        <ele>27.2</ele>
        <time>2026-06-20T05:51:51Z</time>
      </trkpt>
      <trkpt lat="47.28197" lon="-0.11326">
        <ele>27.2</ele>
        <time>2026-06-20T05:51:52Z</time>
      </trkpt>
      <trkpt lat="47.28194" lon="-0.11318">
        <ele>27.2</ele>
        <time>2026-06-20T05:51:53Z</time>
      </trkpt>
      <trkpt lat="47.28192" lon="-0.11311">
        <ele>27.2</ele>
        <time>2026-06-20T05:51:54Z</time>
      </trkpt>
      <trkpt lat="47.28189" lon="-0.11303">
        <ele>27.2</ele>
        <time>2026-06-20T05:51:55Z</time>
      </trkpt>
      <trkpt lat="47.28187" lon="-0.11296">
        <ele>27.2</ele>
        <time>2026-06-20T05:51:56Z</time>
      </trkpt>
      <trkpt lat="47.28183" lon="-0.1129">
        <ele>27.4</ele>
        <time>2026-06-20T05:51:57Z</time>
      </trkpt>
      <trkpt lat="47.2818" lon="-0.11284">
        <ele>27.4</ele>
        <time>2026-06-20T05:51:58Z</time>
      </trkpt>
      <trkpt lat="47.28176" lon="-0.11278">
        <ele>27.2</ele>
        <time>2026-06-20T05:51:59Z</time>
      </trkpt>
      <trkpt lat="47.28172" lon="-0.11272">
        <ele>27.2</ele>
        <time>2026-06-20T05:52:00Z</time>
      </trkpt>
      <trkpt lat="47.28168" lon="-0.11267">
        <ele>27.2</ele>
        <time>2026-06-20T05:52:01Z</time>
      </trkpt>
      <trkpt lat="47.28165" lon="-0.11261">
        <ele>27.4</ele>
        <time>2026-06-20T05:52:02Z</time>
      </trkpt>
      <trkpt lat="47.28161" lon="-0.11256">
        <ele>27.4</ele>
        <time>2026-06-20T05:52:03Z</time>
      </trkpt>
      <trkpt lat="47.28156" lon="-0.11251">
        <ele>27.4</ele>
        <time>2026-06-20T05:52:04Z</time>
      </trkpt>
      <trkpt lat="47.28152" lon="-0.11247">
        <ele>27.4</ele>
        <time>2026-06-20T05:52:05Z</time>
      </trkpt>
      <trkpt lat="47.28148" lon="-0.11241">
        <ele>27.4</ele>
        <time>2026-06-20T05:52:06Z</time>
      </trkpt>
      <trkpt lat="47.28144" lon="-0.11236">
        <ele>27.4</ele>
        <time>2026-06-20T05:52:07Z</time>
      </trkpt>
      <trkpt lat="47.2814" lon="-0.11232">
        <ele>27.4</ele>
        <time>2026-06-20T05:52:08Z</time>
      </trkpt>
      <trkpt lat="47.28135" lon="-0.11227">
        <ele>27.4</ele>
        <time>2026-06-20T05:52:09Z</time>
      </trkpt>
      <trkpt lat="47.28132" lon="-0.11221">
        <ele>27.4</ele>
        <time>2026-06-20T05:52:10Z</time>
      </trkpt>
      <trkpt lat="47.28129" lon="-0.11215">
        <ele>27.4</ele>
        <time>2026-06-20T05:52:11Z</time>
      </trkpt>
      <trkpt lat="47.28125" lon="-0.11209">
        <ele>27.4</ele>
        <time>2026-06-20T05:52:12Z</time>
      </trkpt>
      <trkpt lat="47.28121" lon="-0.11203">
        <ele>27.2</ele>
        <time>2026-06-20T05:52:13Z</time>
      </trkpt>
      <trkpt lat="47.28117" lon="-0.11198">
        <ele>27.2</ele>
        <time>2026-06-20T05:52:14Z</time>
      </trkpt>
      <trkpt lat="47.28113" lon="-0.1119">
        <ele>27.2</ele>
        <time>2026-06-20T05:52:15Z</time>
      </trkpt>
      <trkpt lat="47.28111" lon="-0.11183">
        <ele>27</ele>
        <time>2026-06-20T05:52:16Z</time>
      </trkpt>
      <trkpt lat="47.28109" lon="-0.11176">
        <ele>27.2</ele>
        <time>2026-06-20T05:52:17Z</time>
      </trkpt>
      <trkpt lat="47.28106" lon="-0.11171">
        <ele>27.2</ele>
        <time>2026-06-20T05:52:18Z</time>
      </trkpt>
      <trkpt lat="47.28102" lon="-0.11167">
        <ele>27.4</ele>
        <time>2026-06-20T05:52:19Z</time>
      </trkpt>
      <trkpt lat="47.28098" lon="-0.11166">
        <ele>27.6</ele>
        <time>2026-06-20T05:52:20Z</time>
      </trkpt>
      <trkpt lat="47.28093" lon="-0.11164">
        <ele>27.6</ele>
        <time>2026-06-20T05:52:21Z</time>
      </trkpt>
      <trkpt lat="47.2809" lon="-0.11161">
        <ele>27.6</ele>
        <time>2026-06-20T05:52:22Z</time>
      </trkpt>
      <trkpt lat="47.28087" lon="-0.11157">
        <ele>27.6</ele>
        <time>2026-06-20T05:52:23Z</time>
      </trkpt>
      <trkpt lat="47.28084" lon="-0.11151">
        <ele>27.6</ele>
        <time>2026-06-20T05:52:24Z</time>
      </trkpt>
      <trkpt lat="47.28082" lon="-0.11144">
        <ele>27.6</ele>
        <time>2026-06-20T05:52:25Z</time>
      </trkpt>
      <trkpt lat="47.28078" lon="-0.11137">
        <ele>27.6</ele>
        <time>2026-06-20T05:52:26Z</time>
      </trkpt>
      <trkpt lat="47.28075" lon="-0.11131">
        <ele>27.6</ele>
        <time>2026-06-20T05:52:27Z</time>
      </trkpt>
      <trkpt lat="47.28071" lon="-0.11126">
        <ele>27.6</ele>
        <time>2026-06-20T05:52:28Z</time>
      </trkpt>
      <trkpt lat="47.28067" lon="-0.11121">
        <ele>27.6</ele>
        <time>2026-06-20T05:52:29Z</time>
      </trkpt>
      <trkpt lat="47.28063" lon="-0.11115">
        <ele>27.6</ele>
        <time>2026-06-20T05:52:30Z</time>
      </trkpt>
      <trkpt lat="47.28059" lon="-0.1111">
        <ele>27.6</ele>
        <time>2026-06-20T05:52:31Z</time>
      </trkpt>
      <trkpt lat="47.28054" lon="-0.11107">
        <ele>27.6</ele>
        <time>2026-06-20T05:52:32Z</time>
      </trkpt>
      <trkpt lat="47.28049" lon="-0.11107">
        <ele>27.4</ele>
        <time>2026-06-20T05:52:33Z</time>
      </trkpt>
      <trkpt lat="47.28043" lon="-0.11109">
        <ele>27.4</ele>
        <time>2026-06-20T05:52:34Z</time>
      </trkpt>
      <trkpt lat="47.28038" lon="-0.11113">
        <ele>27.4</ele>
        <time>2026-06-20T05:52:35Z</time>
      </trkpt>
      <trkpt lat="47.28034" lon="-0.11119">
        <ele>27.2</ele>
        <time>2026-06-20T05:52:36Z</time>
      </trkpt>
      <trkpt lat="47.2803" lon="-0.11126">
        <ele>27.2</ele>
        <time>2026-06-20T05:52:37Z</time>
      </trkpt>
      <trkpt lat="47.28026" lon="-0.11133">
        <ele>27</ele>
        <time>2026-06-20T05:52:38Z</time>
      </trkpt>
      <trkpt lat="47.28022" lon="-0.1114">
        <ele>27</ele>
        <time>2026-06-20T05:52:39Z</time>
      </trkpt>
      <trkpt lat="47.28018" lon="-0.11146">
        <ele>26.8</ele>
        <time>2026-06-20T05:52:40Z</time>
      </trkpt>
      <trkpt lat="47.28013" lon="-0.11151">
        <ele>26.8</ele>
        <time>2026-06-20T05:52:41Z</time>
      </trkpt>
      <trkpt lat="47.28009" lon="-0.11157">
        <ele>26.8</ele>
        <time>2026-06-20T05:52:42Z</time>
      </trkpt>
      <trkpt lat="47.28005" lon="-0.11164">
        <ele>26.8</ele>
        <time>2026-06-20T05:52:43Z</time>
      </trkpt>
      <trkpt lat="47.28" lon="-0.11169">
        <ele>26.6</ele>
        <time>2026-06-20T05:52:44Z</time>
      </trkpt>
      <trkpt lat="47.27995" lon="-0.11175">
        <ele>26.4</ele>
        <time>2026-06-20T05:52:45Z</time>
      </trkpt>
      <trkpt lat="47.2799" lon="-0.1118">
        <ele>26.2</ele>
        <time>2026-06-20T05:52:46Z</time>
      </trkpt>
      <trkpt lat="47.27986" lon="-0.11185">
        <ele>26.2</ele>
        <time>2026-06-20T05:52:47Z</time>
      </trkpt>
      <trkpt lat="47.27981" lon="-0.11191">
        <ele>26.2</ele>
        <time>2026-06-20T05:52:48Z</time>
      </trkpt>
      <trkpt lat="47.27977" lon="-0.11196">
        <ele>26.4</ele>
        <time>2026-06-20T05:52:49Z</time>
      </trkpt>
      <trkpt lat="47.27973" lon="-0.11202">
        <ele>26.4</ele>
        <time>2026-06-20T05:52:50Z</time>
      </trkpt>
      <trkpt lat="47.27968" lon="-0.11207">
        <ele>26.6</ele>
        <time>2026-06-20T05:52:51Z</time>
      </trkpt>
      <trkpt lat="47.27964" lon="-0.11211">
        <ele>26.6</ele>
        <time>2026-06-20T05:52:52Z</time>
      </trkpt>
      <trkpt lat="47.2796" lon="-0.11215">
        <ele>26.6</ele>
        <time>2026-06-20T05:52:53Z</time>
      </trkpt>
      <trkpt lat="47.27956" lon="-0.1122">
        <ele>26.6</ele>
        <time>2026-06-20T05:52:54Z</time>
      </trkpt>
      <trkpt lat="47.27952" lon="-0.11225">
        <ele>26.6</ele>
        <time>2026-06-20T05:52:55Z</time>
      </trkpt>
      <trkpt lat="47.27948" lon="-0.1123">
        <ele>26.8</ele>
        <time>2026-06-20T05:52:56Z</time>
      </trkpt>
      <trkpt lat="47.27944" lon="-0.11234">
        <ele>26.6</ele>
        <time>2026-06-20T05:52:57Z</time>
      </trkpt>
      <trkpt lat="47.2794" lon="-0.11239">
        <ele>26.4</ele>
        <time>2026-06-20T05:52:58Z</time>
      </trkpt>
      <trkpt lat="47.27935" lon="-0.11245">
        <ele>26.4</ele>
        <time>2026-06-20T05:52:59Z</time>
      </trkpt>
      <trkpt lat="47.27931" lon="-0.1125">
        <ele>26.2</ele>
        <time>2026-06-20T05:53:00Z</time>
      </trkpt>
      <trkpt lat="47.27926" lon="-0.11254">
        <ele>26.2</ele>
        <time>2026-06-20T05:53:01Z</time>
      </trkpt>
      <trkpt lat="47.27922" lon="-0.11258">
        <ele>26.2</ele>
        <time>2026-06-20T05:53:02Z</time>
      </trkpt>
      <trkpt lat="47.27917" lon="-0.11263">
        <ele>26.2</ele>
        <time>2026-06-20T05:53:03Z</time>
      </trkpt>
      <trkpt lat="47.27912" lon="-0.11269">
        <ele>26.2</ele>
        <time>2026-06-20T05:53:04Z</time>
      </trkpt>
      <trkpt lat="47.27908" lon="-0.11273">
        <ele>26.2</ele>
        <time>2026-06-20T05:53:05Z</time>
      </trkpt>
      <trkpt lat="47.27902" lon="-0.11277">
        <ele>26.2</ele>
        <time>2026-06-20T05:53:06Z</time>
      </trkpt>
      <trkpt lat="47.27897" lon="-0.11281">
        <ele>25.8</ele>
        <time>2026-06-20T05:53:07Z</time>
      </trkpt>
      <trkpt lat="47.27892" lon="-0.11288">
        <ele>25.8</ele>
        <time>2026-06-20T05:53:08Z</time>
      </trkpt>
      <trkpt lat="47.27887" lon="-0.11294">
        <ele>25.8</ele>
        <time>2026-06-20T05:53:09Z</time>
      </trkpt>
      <trkpt lat="47.27883" lon="-0.113">
        <ele>25.6</ele>
        <time>2026-06-20T05:53:10Z</time>
      </trkpt>
      <trkpt lat="47.27879" lon="-0.11306">
        <ele>25.8</ele>
        <time>2026-06-20T05:53:11Z</time>
      </trkpt>
      <trkpt lat="47.27873" lon="-0.11308">
        <ele>25.8</ele>
        <time>2026-06-20T05:53:12Z</time>
      </trkpt>
      <trkpt lat="47.27866" lon="-0.11308">
        <ele>25.8</ele>
        <time>2026-06-20T05:53:13Z</time>
      </trkpt>
      <trkpt lat="47.2786" lon="-0.11309">
        <ele>25.6</ele>
        <time>2026-06-20T05:53:14Z</time>
      </trkpt>
      <trkpt lat="47.27853" lon="-0.1131">
        <ele>25.6</ele>
        <time>2026-06-20T05:53:15Z</time>
      </trkpt>
      <trkpt lat="47.27847" lon="-0.1131">
        <ele>25.2</ele>
        <time>2026-06-20T05:53:16Z</time>
      </trkpt>
      <trkpt lat="47.27841" lon="-0.11311">
        <ele>25.2</ele>
        <time>2026-06-20T05:53:17Z</time>
      </trkpt>
      <trkpt lat="47.27836" lon="-0.11311">
        <ele>25.2</ele>
        <time>2026-06-20T05:53:18Z</time>
      </trkpt>
      <trkpt lat="47.2783" lon="-0.11311">
        <ele>25.2</ele>
        <time>2026-06-20T05:53:19Z</time>
      </trkpt>
      <trkpt lat="47.27825" lon="-0.11312">
        <ele>25</ele>
        <time>2026-06-20T05:53:20Z</time>
      </trkpt>
      <trkpt lat="47.2782" lon="-0.11313">
        <ele>25.2</ele>
        <time>2026-06-20T05:53:21Z</time>
      </trkpt>
      <trkpt lat="47.27814" lon="-0.11314">
        <ele>25.2</ele>
        <time>2026-06-20T05:53:22Z</time>
      </trkpt>
      <trkpt lat="47.27809" lon="-0.11315">
        <ele>25.2</ele>
        <time>2026-06-20T05:53:23Z</time>
      </trkpt>
      <trkpt lat="47.27804" lon="-0.11315">
        <ele>25.2</ele>
        <time>2026-06-20T05:53:24Z</time>
      </trkpt>
      <trkpt lat="47.27799" lon="-0.11316">
        <ele>25.4</ele>
        <time>2026-06-20T05:53:25Z</time>
      </trkpt>
      <trkpt lat="47.27794" lon="-0.11316">
        <ele>25.4</ele>
        <time>2026-06-20T05:53:26Z</time>
      </trkpt>
      <trkpt lat="47.27789" lon="-0.11316">
        <ele>25.6</ele>
        <time>2026-06-20T05:53:27Z</time>
      </trkpt>
      <trkpt lat="47.27784" lon="-0.11315">
        <ele>25.8</ele>
        <time>2026-06-20T05:53:28Z</time>
      </trkpt>
      <trkpt lat="47.2778" lon="-0.11315">
        <ele>26</ele>
        <time>2026-06-20T05:53:29Z</time>
      </trkpt>
      <trkpt lat="47.27775" lon="-0.11315">
        <ele>26</ele>
        <time>2026-06-20T05:53:30Z</time>
      </trkpt>
      <trkpt lat="47.2777" lon="-0.11315">
        <ele>26.2</ele>
        <time>2026-06-20T05:53:31Z</time>
      </trkpt>
      <trkpt lat="47.27765" lon="-0.11314">
        <ele>26.2</ele>
        <time>2026-06-20T05:53:32Z</time>
      </trkpt>
      <trkpt lat="47.2776" lon="-0.11313">
        <ele>26.2</ele>
        <time>2026-06-20T05:53:33Z</time>
      </trkpt>
      <trkpt lat="47.27755" lon="-0.11312">
        <ele>26.4</ele>
        <time>2026-06-20T05:53:34Z</time>
      </trkpt>
      <trkpt lat="47.27751" lon="-0.1131">
        <ele>26.4</ele>
        <time>2026-06-20T05:53:35Z</time>
      </trkpt>
      <trkpt lat="47.27746" lon="-0.11307">
        <ele>26.4</ele>
        <time>2026-06-20T05:53:36Z</time>
      </trkpt>
      <trkpt lat="47.27742" lon="-0.11305">
        <ele>26.6</ele>
        <time>2026-06-20T05:53:37Z</time>
      </trkpt>
      <trkpt lat="47.27737" lon="-0.11302">
        <ele>26.6</ele>
        <time>2026-06-20T05:53:38Z</time>
      </trkpt>
      <trkpt lat="47.27732" lon="-0.11299">
        <ele>26.6</ele>
        <time>2026-06-20T05:53:39Z</time>
      </trkpt>
      <trkpt lat="47.27728" lon="-0.11296">
        <ele>26.6</ele>
        <time>2026-06-20T05:53:40Z</time>
      </trkpt>
      <trkpt lat="47.27723" lon="-0.11293">
        <ele>26.6</ele>
        <time>2026-06-20T05:53:41Z</time>
      </trkpt>
      <trkpt lat="47.27719" lon="-0.11291">
        <ele>26.6</ele>
        <time>2026-06-20T05:53:42Z</time>
      </trkpt>
      <trkpt lat="47.27714" lon="-0.11289">
        <ele>26.6</ele>
        <time>2026-06-20T05:53:43Z</time>
      </trkpt>
      <trkpt lat="47.27709" lon="-0.11288">
        <ele>26.6</ele>
        <time>2026-06-20T05:53:44Z</time>
      </trkpt>
      <trkpt lat="47.27704" lon="-0.11287">
        <ele>26.6</ele>
        <time>2026-06-20T05:53:45Z</time>
      </trkpt>
      <trkpt lat="47.27699" lon="-0.11285">
        <ele>26.6</ele>
        <time>2026-06-20T05:53:46Z</time>
      </trkpt>
      <trkpt lat="47.27694" lon="-0.11284">
        <ele>26.6</ele>
        <time>2026-06-20T05:53:47Z</time>
      </trkpt>
      <trkpt lat="47.27689" lon="-0.11283">
        <ele>26.8</ele>
        <time>2026-06-20T05:53:48Z</time>
      </trkpt>
      <trkpt lat="47.27684" lon="-0.11283">
        <ele>26.8</ele>
        <time>2026-06-20T05:53:49Z</time>
      </trkpt>
      <trkpt lat="47.27679" lon="-0.11283">
        <ele>26.8</ele>
        <time>2026-06-20T05:53:50Z</time>
      </trkpt>
      <trkpt lat="47.27675" lon="-0.11283">
        <ele>27</ele>
        <time>2026-06-20T05:53:51Z</time>
      </trkpt>
      <trkpt lat="47.2767" lon="-0.11283">
        <ele>27</ele>
        <time>2026-06-20T05:53:52Z</time>
      </trkpt>
      <trkpt lat="47.27665" lon="-0.11283">
        <ele>27</ele>
        <time>2026-06-20T05:53:53Z</time>
      </trkpt>
      <trkpt lat="47.2766" lon="-0.11284">
        <ele>27</ele>
        <time>2026-06-20T05:53:54Z</time>
      </trkpt>
      <trkpt lat="47.27655" lon="-0.11287">
        <ele>26.8</ele>
        <time>2026-06-20T05:53:55Z</time>
      </trkpt>
      <trkpt lat="47.2765" lon="-0.1129">
        <ele>26.8</ele>
        <time>2026-06-20T05:53:56Z</time>
      </trkpt>
      <trkpt lat="47.27647" lon="-0.11294">
        <ele>26.6</ele>
        <time>2026-06-20T05:53:57Z</time>
      </trkpt>
      <trkpt lat="47.27644" lon="-0.11298">
        <ele>26.6</ele>
        <time>2026-06-20T05:53:58Z</time>
      </trkpt>
      <trkpt lat="47.27641" lon="-0.11303">
        <ele>26.8</ele>
        <time>2026-06-20T05:53:59Z</time>
      </trkpt>
      <trkpt lat="47.27637" lon="-0.11308">
        <ele>26.8</ele>
        <time>2026-06-20T05:54:00Z</time>
      </trkpt>
      <trkpt lat="47.27634" lon="-0.11312">
        <ele>27</ele>
        <time>2026-06-20T05:54:01Z</time>
      </trkpt>
      <trkpt lat="47.2763" lon="-0.11316">
        <ele>27.2</ele>
        <time>2026-06-20T05:54:02Z</time>
      </trkpt>
      <trkpt lat="47.27627" lon="-0.11319">
        <ele>27.2</ele>
        <time>2026-06-20T05:54:03Z</time>
      </trkpt>
      <trkpt lat="47.27624" lon="-0.11323">
        <ele>27.6</ele>
        <time>2026-06-20T05:54:04Z</time>
      </trkpt>
      <trkpt lat="47.27621" lon="-0.11326">
        <ele>27.8</ele>
        <time>2026-06-20T05:54:05Z</time>
      </trkpt>
      <trkpt lat="47.27618" lon="-0.11331">
        <ele>28</ele>
        <time>2026-06-20T05:54:06Z</time>
      </trkpt>
      <trkpt lat="47.27616" lon="-0.11335">
        <ele>28.4</ele>
        <time>2026-06-20T05:54:07Z</time>
      </trkpt>
      <trkpt lat="47.27614" lon="-0.11338">
        <ele>28.8</ele>
        <time>2026-06-20T05:54:08Z</time>
      </trkpt>
      <trkpt lat="47.27612" lon="-0.11341">
        <ele>29</ele>
        <time>2026-06-20T05:54:09Z</time>
      </trkpt>
      <trkpt lat="47.27609" lon="-0.11343">
        <ele>29.4</ele>
        <time>2026-06-20T05:54:10Z</time>
      </trkpt>
      <trkpt lat="47.27605" lon="-0.11345">
        <ele>29.6</ele>
        <time>2026-06-20T05:54:11Z</time>
      </trkpt>
      <trkpt lat="47.27601" lon="-0.11345">
        <ele>29.8</ele>
        <time>2026-06-20T05:54:12Z</time>
      </trkpt>
      <trkpt lat="47.27597" lon="-0.11344">
        <ele>29.8</ele>
        <time>2026-06-20T05:54:13Z</time>
      </trkpt>
      <trkpt lat="47.27593" lon="-0.11342">
        <ele>29.8</ele>
        <time>2026-06-20T05:54:14Z</time>
      </trkpt>
      <trkpt lat="47.27589" lon="-0.11339">
        <ele>29.6</ele>
        <time>2026-06-20T05:54:15Z</time>
      </trkpt>
      <trkpt lat="47.27585" lon="-0.11336">
        <ele>29.4</ele>
        <time>2026-06-20T05:54:16Z</time>
      </trkpt>
      <trkpt lat="47.27581" lon="-0.11333">
        <ele>29.2</ele>
        <time>2026-06-20T05:54:17Z</time>
      </trkpt>
      <trkpt lat="47.27577" lon="-0.11331">
        <ele>28.8</ele>
        <time>2026-06-20T05:54:18Z</time>
      </trkpt>
      <trkpt lat="47.27572" lon="-0.1133">
        <ele>28.6</ele>
        <time>2026-06-20T05:54:19Z</time>
      </trkpt>
      <trkpt lat="47.27567" lon="-0.11329">
        <ele>28.4</ele>
        <time>2026-06-20T05:54:20Z</time>
      </trkpt>
      <trkpt lat="47.27562" lon="-0.11328">
        <ele>28</ele>
        <time>2026-06-20T05:54:21Z</time>
      </trkpt>
      <trkpt lat="47.27558" lon="-0.11329">
        <ele>28</ele>
        <time>2026-06-20T05:54:22Z</time>
      </trkpt>
      <trkpt lat="47.27553" lon="-0.11331">
        <ele>27.8</ele>
        <time>2026-06-20T05:54:23Z</time>
      </trkpt>
      <trkpt lat="47.27549" lon="-0.11334">
        <ele>27.8</ele>
        <time>2026-06-20T05:54:24Z</time>
      </trkpt>
      <trkpt lat="47.27545" lon="-0.11338">
        <ele>27.8</ele>
        <time>2026-06-20T05:54:25Z</time>
      </trkpt>
      <trkpt lat="47.27541" lon="-0.11341">
        <ele>27.8</ele>
        <time>2026-06-20T05:54:26Z</time>
      </trkpt>
      <trkpt lat="47.27537" lon="-0.11344">
        <ele>28</ele>
        <time>2026-06-20T05:54:27Z</time>
      </trkpt>
      <trkpt lat="47.27534" lon="-0.11346">
        <ele>28.2</ele>
        <time>2026-06-20T05:54:28Z</time>
      </trkpt>
      <trkpt lat="47.2753" lon="-0.11349">
        <ele>28.2</ele>
        <time>2026-06-20T05:54:29Z</time>
      </trkpt>
      <trkpt lat="47.27526" lon="-0.11351">
        <ele>28.4</ele>
        <time>2026-06-20T05:54:30Z</time>
      </trkpt>
      <trkpt lat="47.27522" lon="-0.11353">
        <ele>28.6</ele>
        <time>2026-06-20T05:54:31Z</time>
      </trkpt>
      <trkpt lat="47.27519" lon="-0.11356">
        <ele>28.8</ele>
        <time>2026-06-20T05:54:32Z</time>
      </trkpt>
      <trkpt lat="47.27517" lon="-0.1136">
        <ele>29.2</ele>
        <time>2026-06-20T05:54:33Z</time>
      </trkpt>
      <trkpt lat="47.27517" lon="-0.11365">
        <ele>29.4</ele>
        <time>2026-06-20T05:54:34Z</time>
      </trkpt>
      <trkpt lat="47.27517" lon="-0.11371">
        <ele>29.6</ele>
        <time>2026-06-20T05:54:35Z</time>
      </trkpt>
      <trkpt lat="47.27517" lon="-0.11376">
        <ele>30</ele>
        <time>2026-06-20T05:54:36Z</time>
      </trkpt>
      <trkpt lat="47.27518" lon="-0.1138">
        <ele>30.2</ele>
        <time>2026-06-20T05:54:37Z</time>
      </trkpt>
      <trkpt lat="47.27519" lon="-0.11385">
        <ele>30.4</ele>
        <time>2026-06-20T05:54:38Z</time>
      </trkpt>
      <trkpt lat="47.2752" lon="-0.1139">
        <ele>30.6</ele>
        <time>2026-06-20T05:54:39Z</time>
      </trkpt>
      <trkpt lat="47.27521" lon="-0.11394">
        <ele>30.8</ele>
        <time>2026-06-20T05:54:40Z</time>
      </trkpt>
      <trkpt lat="47.27521" lon="-0.11399">
        <ele>31</ele>
        <time>2026-06-20T05:54:41Z</time>
      </trkpt>
      <trkpt lat="47.27522" lon="-0.11403">
        <ele>31.4</ele>
        <time>2026-06-20T05:54:42Z</time>
      </trkpt>
      <trkpt lat="47.27523" lon="-0.11407">
        <ele>31.6</ele>
        <time>2026-06-20T05:54:43Z</time>
      </trkpt>
      <trkpt lat="47.27524" lon="-0.11411">
        <ele>32</ele>
        <time>2026-06-20T05:54:44Z</time>
      </trkpt>
      <trkpt lat="47.27525" lon="-0.11415">
        <ele>32.4</ele>
        <time>2026-06-20T05:54:45Z</time>
      </trkpt>
      <trkpt lat="47.27525" lon="-0.11419">
        <ele>32.8</ele>
        <time>2026-06-20T05:54:46Z</time>
      </trkpt>
      <trkpt lat="47.27526" lon="-0.11423">
        <ele>33</ele>
        <time>2026-06-20T05:54:47Z</time>
      </trkpt>
      <trkpt lat="47.27528" lon="-0.11426">
        <ele>33.4</ele>
        <time>2026-06-20T05:54:48Z</time>
      </trkpt>
      <trkpt lat="47.27529" lon="-0.11429">
        <ele>33.8</ele>
        <time>2026-06-20T05:54:49Z</time>
      </trkpt>
      <trkpt lat="47.2753" lon="-0.11433">
        <ele>34</ele>
        <time>2026-06-20T05:54:50Z</time>
      </trkpt>
      <trkpt lat="47.27531" lon="-0.11436">
        <ele>34.4</ele>
        <time>2026-06-20T05:54:51Z</time>
      </trkpt>
      <trkpt lat="47.27532" lon="-0.11439">
        <ele>34.6</ele>
        <time>2026-06-20T05:54:52Z</time>
      </trkpt>
      <trkpt lat="47.27534" lon="-0.11442">
        <ele>35</ele>
        <time>2026-06-20T05:54:53Z</time>
      </trkpt>
      <trkpt lat="47.27535" lon="-0.11445">
        <ele>35.2</ele>
        <time>2026-06-20T05:54:54Z</time>
      </trkpt>
      <trkpt lat="47.27536" lon="-0.11448">
        <ele>35.6</ele>
        <time>2026-06-20T05:54:55Z</time>
      </trkpt>
      <trkpt lat="47.27536" lon="-0.11451">
        <ele>36</ele>
        <time>2026-06-20T05:54:56Z</time>
      </trkpt>
      <trkpt lat="47.27537" lon="-0.11454">
        <ele>36.2</ele>
        <time>2026-06-20T05:54:57Z</time>
      </trkpt>
      <trkpt lat="47.27538" lon="-0.11457">
        <ele>36.6</ele>
        <time>2026-06-20T05:54:58Z</time>
      </trkpt>
      <trkpt lat="47.27539" lon="-0.1146">
        <ele>37</ele>
        <time>2026-06-20T05:54:59Z</time>
      </trkpt>
      <trkpt lat="47.2754" lon="-0.11463">
        <ele>37.4</ele>
        <time>2026-06-20T05:55:00Z</time>
      </trkpt>
      <trkpt lat="47.27541" lon="-0.11466">
        <ele>37.8</ele>
        <time>2026-06-20T05:55:01Z</time>
      </trkpt>
      <trkpt lat="47.27543" lon="-0.11469">
        <ele>38.2</ele>
        <time>2026-06-20T05:55:02Z</time>
      </trkpt>
      <trkpt lat="47.27544" lon="-0.11471">
        <ele>38.4</ele>
        <time>2026-06-20T05:55:03Z</time>
      </trkpt>
      <trkpt lat="47.27545" lon="-0.11474">
        <ele>38.8</ele>
        <time>2026-06-20T05:55:04Z</time>
      </trkpt>
      <trkpt lat="47.27546" lon="-0.11477">
        <ele>39</ele>
        <time>2026-06-20T05:55:05Z</time>
      </trkpt>
      <trkpt lat="47.27548" lon="-0.11479">
        <ele>39.2</ele>
        <time>2026-06-20T05:55:06Z</time>
      </trkpt>
      <trkpt lat="47.27549" lon="-0.11482">
        <ele>39.6</ele>
        <time>2026-06-20T05:55:07Z</time>
      </trkpt>
      <trkpt lat="47.27551" lon="-0.11484">
        <ele>39.8</ele>
        <time>2026-06-20T05:55:08Z</time>
      </trkpt>
      <trkpt lat="47.27553" lon="-0.11487">
        <ele>40</ele>
        <time>2026-06-20T05:55:09Z</time>
      </trkpt>
      <trkpt lat="47.27554" lon="-0.1149">
        <ele>40.2</ele>
        <time>2026-06-20T05:55:10Z</time>
      </trkpt>
      <trkpt lat="47.27556" lon="-0.11493">
        <ele>40.4</ele>
        <time>2026-06-20T05:55:11Z</time>
      </trkpt>
      <trkpt lat="47.27557" lon="-0.11497">
        <ele>40.4</ele>
        <time>2026-06-20T05:55:12Z</time>
      </trkpt>
      <trkpt lat="47.27558" lon="-0.11501">
        <ele>40.6</ele>
        <time>2026-06-20T05:55:13Z</time>
      </trkpt>
      <trkpt lat="47.27559" lon="-0.11506">
        <ele>40.6</ele>
        <time>2026-06-20T05:55:14Z</time>
      </trkpt>
      <trkpt lat="47.27559" lon="-0.1151">
        <ele>40.6</ele>
        <time>2026-06-20T05:55:15Z</time>
      </trkpt>
      <trkpt lat="47.27558" lon="-0.11515">
        <ele>40.8</ele>
        <time>2026-06-20T05:55:16Z</time>
      </trkpt>
      <trkpt lat="47.27557" lon="-0.11519">
        <ele>40.8</ele>
        <time>2026-06-20T05:55:17Z</time>
      </trkpt>
      <trkpt lat="47.27555" lon="-0.11523">
        <ele>41</ele>
        <time>2026-06-20T05:55:18Z</time>
      </trkpt>
      <trkpt lat="47.27554" lon="-0.11528">
        <ele>41</ele>
        <time>2026-06-20T05:55:19Z</time>
      </trkpt>
      <trkpt lat="47.27554" lon="-0.11533">
        <ele>41.2</ele>
        <time>2026-06-20T05:55:20Z</time>
      </trkpt>
      <trkpt lat="47.27555" lon="-0.11538">
        <ele>41.2</ele>
        <time>2026-06-20T05:55:21Z</time>
      </trkpt>
      <trkpt lat="47.27556" lon="-0.11542">
        <ele>41.4</ele>
        <time>2026-06-20T05:55:22Z</time>
      </trkpt>
      <trkpt lat="47.27558" lon="-0.11546">
        <ele>41.4</ele>
        <time>2026-06-20T05:55:23Z</time>
      </trkpt>
      <trkpt lat="47.2756" lon="-0.11551">
        <ele>41.4</ele>
        <time>2026-06-20T05:55:24Z</time>
      </trkpt>
      <trkpt lat="47.27563" lon="-0.11554">
        <ele>41.6</ele>
        <time>2026-06-20T05:55:25Z</time>
      </trkpt>
      <trkpt lat="47.27565" lon="-0.11558">
        <ele>41.6</ele>
        <time>2026-06-20T05:55:26Z</time>
      </trkpt>
      <trkpt lat="47.27567" lon="-0.11562">
        <ele>41.8</ele>
        <time>2026-06-20T05:55:27Z</time>
      </trkpt>
      <trkpt lat="47.27569" lon="-0.11566">
        <ele>41.8</ele>
        <time>2026-06-20T05:55:28Z</time>
      </trkpt>
      <trkpt lat="47.27572" lon="-0.11569">
        <ele>42</ele>
        <time>2026-06-20T05:55:29Z</time>
      </trkpt>
      <trkpt lat="47.27574" lon="-0.11573">
        <ele>42</ele>
        <time>2026-06-20T05:55:30Z</time>
      </trkpt>
      <trkpt lat="47.27576" lon="-0.11576">
        <ele>42.2</ele>
        <time>2026-06-20T05:55:31Z</time>
      </trkpt>
      <trkpt lat="47.27579" lon="-0.1158">
        <ele>42.4</ele>
        <time>2026-06-20T05:55:32Z</time>
      </trkpt>
      <trkpt lat="47.27581" lon="-0.11583">
        <ele>42.4</ele>
        <time>2026-06-20T05:55:33Z</time>
      </trkpt>
      <trkpt lat="47.27583" lon="-0.11587">
        <ele>42.6</ele>
        <time>2026-06-20T05:55:34Z</time>
      </trkpt>
      <trkpt lat="47.27585" lon="-0.1159">
        <ele>42.8</ele>
        <time>2026-06-20T05:55:35Z</time>
      </trkpt>
      <trkpt lat="47.27587" lon="-0.11593">
        <ele>43</ele>
        <time>2026-06-20T05:55:36Z</time>
      </trkpt>
      <trkpt lat="47.27588" lon="-0.11596">
        <ele>43.2</ele>
        <time>2026-06-20T05:55:37Z</time>
      </trkpt>
      <trkpt lat="47.2759" lon="-0.11599">
        <ele>43.4</ele>
        <time>2026-06-20T05:55:38Z</time>
      </trkpt>
      <trkpt lat="47.27592" lon="-0.11602">
        <ele>43.6</ele>
        <time>2026-06-20T05:55:39Z</time>
      </trkpt>
      <trkpt lat="47.27595" lon="-0.11605">
        <ele>43.8</ele>
        <time>2026-06-20T05:55:40Z</time>
      </trkpt>
      <trkpt lat="47.27596" lon="-0.11608">
        <ele>44</ele>
        <time>2026-06-20T05:55:41Z</time>
      </trkpt>
      <trkpt lat="47.27598" lon="-0.11611">
        <ele>44.2</ele>
        <time>2026-06-20T05:55:42Z</time>
      </trkpt>
      <trkpt lat="47.276" lon="-0.11614">
        <ele>44.4</ele>
        <time>2026-06-20T05:55:43Z</time>
      </trkpt>
      <trkpt lat="47.27601" lon="-0.11617">
        <ele>44.6</ele>
        <time>2026-06-20T05:55:44Z</time>
      </trkpt>
      <trkpt lat="47.27603" lon="-0.11621">
        <ele>44.8</ele>
        <time>2026-06-20T05:55:45Z</time>
      </trkpt>
      <trkpt lat="47.27604" lon="-0.11624">
        <ele>45</ele>
        <time>2026-06-20T05:55:46Z</time>
      </trkpt>
      <trkpt lat="47.27606" lon="-0.11627">
        <ele>45.2</ele>
        <time>2026-06-20T05:55:47Z</time>
      </trkpt>
      <trkpt lat="47.27607" lon="-0.1163">
        <ele>45.6</ele>
        <time>2026-06-20T05:55:48Z</time>
      </trkpt>
      <trkpt lat="47.27608" lon="-0.11633">
        <ele>45.8</ele>
        <time>2026-06-20T05:55:49Z</time>
      </trkpt>
      <trkpt lat="47.27609" lon="-0.11636">
        <ele>46</ele>
        <time>2026-06-20T05:55:50Z</time>
      </trkpt>
      <trkpt lat="47.2761" lon="-0.11639">
        <ele>46.4</ele>
        <time>2026-06-20T05:55:51Z</time>
      </trkpt>
      <trkpt lat="47.27611" lon="-0.11642">
        <ele>46.6</ele>
        <time>2026-06-20T05:55:52Z</time>
      </trkpt>
      <trkpt lat="47.27612" lon="-0.11644">
        <ele>46.8</ele>
        <time>2026-06-20T05:55:53Z</time>
      </trkpt>
      <trkpt lat="47.27613" lon="-0.11647">
        <ele>47.2</ele>
        <time>2026-06-20T05:55:54Z</time>
      </trkpt>
      <trkpt lat="47.27614" lon="-0.1165">
        <ele>47.4</ele>
        <time>2026-06-20T05:55:55Z</time>
      </trkpt>
      <trkpt lat="47.27614" lon="-0.11653">
        <ele>47.8</ele>
        <time>2026-06-20T05:55:56Z</time>
      </trkpt>
      <trkpt lat="47.27614" lon="-0.11657">
        <ele>48.2</ele>
        <time>2026-06-20T05:55:57Z</time>
      </trkpt>
      <trkpt lat="47.27614" lon="-0.1166">
        <ele>48.6</ele>
        <time>2026-06-20T05:55:58Z</time>
      </trkpt>
      <trkpt lat="47.27615" lon="-0.11663">
        <ele>49</ele>
        <time>2026-06-20T05:55:59Z</time>
      </trkpt>
      <trkpt lat="47.27615" lon="-0.11666">
        <ele>49.2</ele>
        <time>2026-06-20T05:56:00Z</time>
      </trkpt>
      <trkpt lat="47.27616" lon="-0.11669">
        <ele>49.6</ele>
        <time>2026-06-20T05:56:01Z</time>
      </trkpt>
      <trkpt lat="47.27616" lon="-0.11672">
        <ele>49.8</ele>
        <time>2026-06-20T05:56:02Z</time>
      </trkpt>
      <trkpt lat="47.27617" lon="-0.11675">
        <ele>50.2</ele>
        <time>2026-06-20T05:56:03Z</time>
      </trkpt>
      <trkpt lat="47.27617" lon="-0.11678">
        <ele>50.4</ele>
        <time>2026-06-20T05:56:04Z</time>
      </trkpt>
      <trkpt lat="47.27618" lon="-0.11681">
        <ele>50.6</ele>
        <time>2026-06-20T05:56:05Z</time>
      </trkpt>
      <trkpt lat="47.27618" lon="-0.11684">
        <ele>51</ele>
        <time>2026-06-20T05:56:06Z</time>
      </trkpt>
      <trkpt lat="47.27618" lon="-0.11687">
        <ele>51.2</ele>
        <time>2026-06-20T05:56:07Z</time>
      </trkpt>
      <trkpt lat="47.27617" lon="-0.11691">
        <ele>51.4</ele>
        <time>2026-06-20T05:56:08Z</time>
      </trkpt>
      <trkpt lat="47.27617" lon="-0.11694">
        <ele>51.8</ele>
        <time>2026-06-20T05:56:09Z</time>
      </trkpt>
      <trkpt lat="47.27617" lon="-0.11698">
        <ele>52</ele>
        <time>2026-06-20T05:56:10Z</time>
      </trkpt>
      <trkpt lat="47.27616" lon="-0.11701">
        <ele>52.2</ele>
        <time>2026-06-20T05:56:11Z</time>
      </trkpt>
      <trkpt lat="47.27615" lon="-0.11704">
        <ele>52.4</ele>
        <time>2026-06-20T05:56:12Z</time>
      </trkpt>
      <trkpt lat="47.27615" lon="-0.11707">
        <ele>52.6</ele>
        <time>2026-06-20T05:56:13Z</time>
      </trkpt>
      <trkpt lat="47.27615" lon="-0.11711">
        <ele>53</ele>
        <time>2026-06-20T05:56:14Z</time>
      </trkpt>
      <trkpt lat="47.27614" lon="-0.11714">
        <ele>53.2</ele>
        <time>2026-06-20T05:56:15Z</time>
      </trkpt>
      <trkpt lat="47.27614" lon="-0.11718">
        <ele>53.6</ele>
        <time>2026-06-20T05:56:16Z</time>
      </trkpt>
      <trkpt lat="47.27614" lon="-0.11721">
        <ele>53.8</ele>
        <time>2026-06-20T05:56:17Z</time>
      </trkpt>
      <trkpt lat="47.27614" lon="-0.11724">
        <ele>54.2</ele>
        <time>2026-06-20T05:56:18Z</time>
      </trkpt>
      <trkpt lat="47.27614" lon="-0.11728">
        <ele>54.4</ele>
        <time>2026-06-20T05:56:19Z</time>
      </trkpt>
      <trkpt lat="47.27614" lon="-0.11731">
        <ele>54.8</ele>
        <time>2026-06-20T05:56:20Z</time>
      </trkpt>
      <trkpt lat="47.27614" lon="-0.11734">
        <ele>55</ele>
        <time>2026-06-20T05:56:21Z</time>
      </trkpt>
      <trkpt lat="47.27614" lon="-0.11737">
        <ele>55.4</ele>
        <time>2026-06-20T05:56:22Z</time>
      </trkpt>
      <trkpt lat="47.27615" lon="-0.1174">
        <ele>55.8</ele>
        <time>2026-06-20T05:56:23Z</time>
      </trkpt>
      <trkpt lat="47.27615" lon="-0.11743">
        <ele>56</ele>
        <time>2026-06-20T05:56:24Z</time>
      </trkpt>
      <trkpt lat="47.27617" lon="-0.11745">
        <ele>56.4</ele>
        <time>2026-06-20T05:56:25Z</time>
      </trkpt>
      <trkpt lat="47.27618" lon="-0.11748">
        <ele>56.6</ele>
        <time>2026-06-20T05:56:26Z</time>
      </trkpt>
      <trkpt lat="47.2762" lon="-0.11751">
        <ele>56.8</ele>
        <time>2026-06-20T05:56:27Z</time>
      </trkpt>
      <trkpt lat="47.27622" lon="-0.11753">
        <ele>57</ele>
        <time>2026-06-20T05:56:28Z</time>
      </trkpt>
      <trkpt lat="47.27624" lon="-0.11756">
        <ele>57.2</ele>
        <time>2026-06-20T05:56:29Z</time>
      </trkpt>
      <trkpt lat="47.27626" lon="-0.11758">
        <ele>57.4</ele>
        <time>2026-06-20T05:56:30Z</time>
      </trkpt>
      <trkpt lat="47.27627" lon="-0.11761">
        <ele>57.6</ele>
        <time>2026-06-20T05:56:31Z</time>
      </trkpt>
      <trkpt lat="47.27628" lon="-0.11763">
        <ele>57.8</ele>
        <time>2026-06-20T05:56:32Z</time>
      </trkpt>
      <trkpt lat="47.27629" lon="-0.11765">
        <ele>58</ele>
        <time>2026-06-20T05:56:33Z</time>
      </trkpt>
      <trkpt lat="47.27629" lon="-0.11768">
        <ele>58.2</ele>
        <time>2026-06-20T05:56:34Z</time>
      </trkpt>
      <trkpt lat="47.27628" lon="-0.11772">
        <ele>58.4</ele>
        <time>2026-06-20T05:56:35Z</time>
      </trkpt>
      <trkpt lat="47.27628" lon="-0.11775">
        <ele>58.6</ele>
        <time>2026-06-20T05:56:36Z</time>
      </trkpt>
      <trkpt lat="47.27627" lon="-0.11779">
        <ele>58.8</ele>
        <time>2026-06-20T05:56:37Z</time>
      </trkpt>
      <trkpt lat="47.27628" lon="-0.11783">
        <ele>58.8</ele>
        <time>2026-06-20T05:56:38Z</time>
      </trkpt>
      <trkpt lat="47.27628" lon="-0.11787">
        <ele>58.8</ele>
        <time>2026-06-20T05:56:39Z</time>
      </trkpt>
      <trkpt lat="47.27629" lon="-0.11791">
        <ele>58.8</ele>
        <time>2026-06-20T05:56:40Z</time>
      </trkpt>
      <trkpt lat="47.2763" lon="-0.11796">
        <ele>58.8</ele>
        <time>2026-06-20T05:56:41Z</time>
      </trkpt>
      <trkpt lat="47.2763" lon="-0.118">
        <ele>58.8</ele>
        <time>2026-06-20T05:56:42Z</time>
      </trkpt>
      <trkpt lat="47.27631" lon="-0.11805">
        <ele>58.8</ele>
        <time>2026-06-20T05:56:43Z</time>
      </trkpt>
      <trkpt lat="47.27632" lon="-0.1181">
        <ele>58.8</ele>
        <time>2026-06-20T05:56:44Z</time>
      </trkpt>
      <trkpt lat="47.27632" lon="-0.11815">
        <ele>58.6</ele>
        <time>2026-06-20T05:56:45Z</time>
      </trkpt>
      <trkpt lat="47.27631" lon="-0.11821">
        <ele>58.4</ele>
        <time>2026-06-20T05:56:46Z</time>
      </trkpt>
      <trkpt lat="47.27629" lon="-0.11828">
        <ele>58</ele>
        <time>2026-06-20T05:56:47Z</time>
      </trkpt>
      <trkpt lat="47.27626" lon="-0.11834">
        <ele>57.6</ele>
        <time>2026-06-20T05:56:48Z</time>
      </trkpt>
      <trkpt lat="47.27627" lon="-0.1184">
        <ele>56.8</ele>
        <time>2026-06-20T05:56:49Z</time>
      </trkpt>
      <trkpt lat="47.27629" lon="-0.11847">
        <ele>56</ele>
        <time>2026-06-20T05:56:50Z</time>
      </trkpt>
      <trkpt lat="47.27633" lon="-0.11856">
        <ele>55.2</ele>
        <time>2026-06-20T05:56:51Z</time>
      </trkpt>
      <trkpt lat="47.27638" lon="-0.11865">
        <ele>54.2</ele>
        <time>2026-06-20T05:56:52Z</time>
      </trkpt>
      <trkpt lat="47.27643" lon="-0.11873">
        <ele>53</ele>
        <time>2026-06-20T05:56:53Z</time>
      </trkpt>
      <trkpt lat="47.27649" lon="-0.11882">
        <ele>52</ele>
        <time>2026-06-20T05:56:54Z</time>
      </trkpt>
      <trkpt lat="47.27653" lon="-0.11893">
        <ele>51.2</ele>
        <time>2026-06-20T05:56:55Z</time>
      </trkpt>
      <trkpt lat="47.27657" lon="-0.11903">
        <ele>50.6</ele>
        <time>2026-06-20T05:56:56Z</time>
      </trkpt>
      <trkpt lat="47.2766" lon="-0.11912">
        <ele>50</ele>
        <time>2026-06-20T05:56:57Z</time>
      </trkpt>
      <trkpt lat="47.27663" lon="-0.1192">
        <ele>49.4</ele>
        <time>2026-06-20T05:56:58Z</time>
      </trkpt>
      <trkpt lat="47.27665" lon="-0.11926">
        <ele>49</ele>
        <time>2026-06-20T05:56:59Z</time>
      </trkpt>
      <trkpt lat="47.27667" lon="-0.11931">
        <ele>48.6</ele>
        <time>2026-06-20T05:57:00Z</time>
      </trkpt>
      <trkpt lat="47.27667" lon="-0.11936">
        <ele>48.4</ele>
        <time>2026-06-20T05:57:01Z</time>
      </trkpt>
      <trkpt lat="47.27665" lon="-0.11941">
        <ele>48.2</ele>
        <time>2026-06-20T05:57:02Z</time>
      </trkpt>
      <trkpt lat="47.27662" lon="-0.11943">
        <ele>47.8</ele>
        <time>2026-06-20T05:57:03Z</time>
      </trkpt>
      <trkpt lat="47.27659" lon="-0.11946">
        <ele>47.6</ele>
        <time>2026-06-20T05:57:04Z</time>
      </trkpt>
      <trkpt lat="47.27656" lon="-0.11949">
        <ele>47.4</ele>
        <time>2026-06-20T05:57:05Z</time>
      </trkpt>
      <trkpt lat="47.27653" lon="-0.11952">
        <ele>47.2</ele>
        <time>2026-06-20T05:57:06Z</time>
      </trkpt>
      <trkpt lat="47.2765" lon="-0.11956">
        <ele>47</ele>
        <time>2026-06-20T05:57:07Z</time>
      </trkpt>
      <trkpt lat="47.27646" lon="-0.11961">
        <ele>46.8</ele>
        <time>2026-06-20T05:57:08Z</time>
      </trkpt>
      <trkpt lat="47.27642" lon="-0.11965">
        <ele>46.6</ele>
        <time>2026-06-20T05:57:09Z</time>
      </trkpt>
      <trkpt lat="47.27637" lon="-0.11969">
        <ele>46.2</ele>
        <time>2026-06-20T05:57:10Z</time>
      </trkpt>
      <trkpt lat="47.27633" lon="-0.11973">
        <ele>45.8</ele>
        <time>2026-06-20T05:57:11Z</time>
      </trkpt>
      <trkpt lat="47.27628" lon="-0.11978">
        <ele>45.4</ele>
        <time>2026-06-20T05:57:12Z</time>
      </trkpt>
      <trkpt lat="47.27625" lon="-0.11985">
        <ele>45.2</ele>
        <time>2026-06-20T05:57:13Z</time>
      </trkpt>
      <trkpt lat="47.2762" lon="-0.11992">
        <ele>44.8</ele>
        <time>2026-06-20T05:57:14Z</time>
      </trkpt>
      <trkpt lat="47.27617" lon="-0.12">
        <ele>44.6</ele>
        <time>2026-06-20T05:57:15Z</time>
      </trkpt>
      <trkpt lat="47.27614" lon="-0.12008">
        <ele>44.4</ele>
        <time>2026-06-20T05:57:16Z</time>
      </trkpt>
      <trkpt lat="47.27612" lon="-0.12016">
        <ele>44.2</ele>
        <time>2026-06-20T05:57:17Z</time>
      </trkpt>
      <trkpt lat="47.27609" lon="-0.12024">
        <ele>44.2</ele>
        <time>2026-06-20T05:57:18Z</time>
      </trkpt>
      <trkpt lat="47.27606" lon="-0.12031">
        <ele>44</ele>
        <time>2026-06-20T05:57:19Z</time>
      </trkpt>
      <trkpt lat="47.27603" lon="-0.12038">
        <ele>44.2</ele>
        <time>2026-06-20T05:57:20Z</time>
      </trkpt>
      <trkpt lat="47.276" lon="-0.12045">
        <ele>44.2</ele>
        <time>2026-06-20T05:57:21Z</time>
      </trkpt>
      <trkpt lat="47.27597" lon="-0.12052">
        <ele>44.2</ele>
        <time>2026-06-20T05:57:22Z</time>
      </trkpt>
      <trkpt lat="47.27594" lon="-0.12059">
        <ele>44.2</ele>
        <time>2026-06-20T05:57:23Z</time>
      </trkpt>
      <trkpt lat="47.27591" lon="-0.12065">
        <ele>44.2</ele>
        <time>2026-06-20T05:57:24Z</time>
      </trkpt>
      <trkpt lat="47.27589" lon="-0.12071">
        <ele>44.2</ele>
        <time>2026-06-20T05:57:25Z</time>
      </trkpt>
      <trkpt lat="47.27586" lon="-0.12077">
        <ele>44.2</ele>
        <time>2026-06-20T05:57:26Z</time>
      </trkpt>
      <trkpt lat="47.27583" lon="-0.12084">
        <ele>44.4</ele>
        <time>2026-06-20T05:57:27Z</time>
      </trkpt>
      <trkpt lat="47.2758" lon="-0.1209">
        <ele>44.4</ele>
        <time>2026-06-20T05:57:28Z</time>
      </trkpt>
      <trkpt lat="47.27578" lon="-0.12097">
        <ele>44.4</ele>
        <time>2026-06-20T05:57:29Z</time>
      </trkpt>
      <trkpt lat="47.27576" lon="-0.12104">
        <ele>44.4</ele>
        <time>2026-06-20T05:57:30Z</time>
      </trkpt>
      <trkpt lat="47.27574" lon="-0.1211">
        <ele>44.6</ele>
        <time>2026-06-20T05:57:31Z</time>
      </trkpt>
      <trkpt lat="47.27572" lon="-0.12117">
        <ele>44.8</ele>
        <time>2026-06-20T05:57:32Z</time>
      </trkpt>
      <trkpt lat="47.2757" lon="-0.12123">
        <ele>45</ele>
        <time>2026-06-20T05:57:33Z</time>
      </trkpt>
      <trkpt lat="47.27568" lon="-0.12129">
        <ele>45.2</ele>
        <time>2026-06-20T05:57:34Z</time>
      </trkpt>
      <trkpt lat="47.27567" lon="-0.12135">
        <ele>45.2</ele>
        <time>2026-06-20T05:57:35Z</time>
      </trkpt>
      <trkpt lat="47.27566" lon="-0.12141">
        <ele>45.4</ele>
        <time>2026-06-20T05:57:36Z</time>
      </trkpt>
      <trkpt lat="47.27565" lon="-0.12147">
        <ele>45.4</ele>
        <time>2026-06-20T05:57:37Z</time>
      </trkpt>
      <trkpt lat="47.27564" lon="-0.12153">
        <ele>45.6</ele>
        <time>2026-06-20T05:57:38Z</time>
      </trkpt>
      <trkpt lat="47.27564" lon="-0.12159">
        <ele>45.8</ele>
        <time>2026-06-20T05:57:39Z</time>
      </trkpt>
      <trkpt lat="47.27563" lon="-0.12165">
        <ele>46.2</ele>
        <time>2026-06-20T05:57:40Z</time>
      </trkpt>
      <trkpt lat="47.27562" lon="-0.12171">
        <ele>46.4</ele>
        <time>2026-06-20T05:57:41Z</time>
      </trkpt>
      <trkpt lat="47.27561" lon="-0.12176">
        <ele>46.6</ele>
        <time>2026-06-20T05:57:42Z</time>
      </trkpt>
      <trkpt lat="47.27561" lon="-0.12182">
        <ele>46.8</ele>
        <time>2026-06-20T05:57:43Z</time>
      </trkpt>
      <trkpt lat="47.27561" lon="-0.12188">
        <ele>47</ele>
        <time>2026-06-20T05:57:44Z</time>
      </trkpt>
      <trkpt lat="47.2756" lon="-0.12193">
        <ele>47.2</ele>
        <time>2026-06-20T05:57:45Z</time>
      </trkpt>
      <trkpt lat="47.2756" lon="-0.12198">
        <ele>47.4</ele>
        <time>2026-06-20T05:57:46Z</time>
      </trkpt>
      <trkpt lat="47.27559" lon="-0.12204">
        <ele>47.6</ele>
        <time>2026-06-20T05:57:47Z</time>
      </trkpt>
      <trkpt lat="47.27559" lon="-0.12209">
        <ele>47.8</ele>
        <time>2026-06-20T05:57:48Z</time>
      </trkpt>
      <trkpt lat="47.27559" lon="-0.12214">
        <ele>48</ele>
        <time>2026-06-20T05:57:49Z</time>
      </trkpt>
      <trkpt lat="47.27558" lon="-0.12219">
        <ele>48.2</ele>
        <time>2026-06-20T05:57:50Z</time>
      </trkpt>
      <trkpt lat="47.27558" lon="-0.12225">
        <ele>48.6</ele>
        <time>2026-06-20T05:57:51Z</time>
      </trkpt>
      <trkpt lat="47.27558" lon="-0.1223">
        <ele>48.8</ele>
        <time>2026-06-20T05:57:52Z</time>
      </trkpt>
      <trkpt lat="47.27558" lon="-0.12235">
        <ele>49</ele>
        <time>2026-06-20T05:57:53Z</time>
      </trkpt>
      <trkpt lat="47.27558" lon="-0.1224">
        <ele>49.2</ele>
        <time>2026-06-20T05:57:54Z</time>
      </trkpt>
      <trkpt lat="47.27558" lon="-0.12245">
        <ele>49.4</ele>
        <time>2026-06-20T05:57:55Z</time>
      </trkpt>
      <trkpt lat="47.27558" lon="-0.12249">
        <ele>49.6</ele>
        <time>2026-06-20T05:57:56Z</time>
      </trkpt>
      <trkpt lat="47.27558" lon="-0.12253">
        <ele>49.6</ele>
        <time>2026-06-20T05:57:57Z</time>
      </trkpt>
      <trkpt lat="47.27558" lon="-0.12258">
        <ele>49.8</ele>
        <time>2026-06-20T05:57:58Z</time>
      </trkpt>
      <trkpt lat="47.27558" lon="-0.12262">
        <ele>50</ele>
        <time>2026-06-20T05:57:59Z</time>
      </trkpt>
      <trkpt lat="47.27557" lon="-0.12266">
        <ele>50.2</ele>
        <time>2026-06-20T05:58:00Z</time>
      </trkpt>
      <trkpt lat="47.27557" lon="-0.12271">
        <ele>50.4</ele>
        <time>2026-06-20T05:58:01Z</time>
      </trkpt>
      <trkpt lat="47.27558" lon="-0.12275">
        <ele>50.4</ele>
        <time>2026-06-20T05:58:02Z</time>
      </trkpt>
      <trkpt lat="47.27557" lon="-0.1228">
        <ele>50.6</ele>
        <time>2026-06-20T05:58:03Z</time>
      </trkpt>
      <trkpt lat="47.27557" lon="-0.12285">
        <ele>50.8</ele>
        <time>2026-06-20T05:58:04Z</time>
      </trkpt>
      <trkpt lat="47.27558" lon="-0.1229">
        <ele>51</ele>
        <time>2026-06-20T05:58:05Z</time>
      </trkpt>
      <trkpt lat="47.27558" lon="-0.12294">
        <ele>51.2</ele>
        <time>2026-06-20T05:58:06Z</time>
      </trkpt>
      <trkpt lat="47.27557" lon="-0.12299">
        <ele>51.4</ele>
        <time>2026-06-20T05:58:07Z</time>
      </trkpt>
      <trkpt lat="47.27558" lon="-0.12304">
        <ele>51.8</ele>
        <time>2026-06-20T05:58:08Z</time>
      </trkpt>
      <trkpt lat="47.27558" lon="-0.12308">
        <ele>52</ele>
        <time>2026-06-20T05:58:09Z</time>
      </trkpt>
      <trkpt lat="47.27559" lon="-0.12312">
        <ele>52.2</ele>
        <time>2026-06-20T05:58:10Z</time>
      </trkpt>
      <trkpt lat="47.27559" lon="-0.12316">
        <ele>52.6</ele>
        <time>2026-06-20T05:58:11Z</time>
      </trkpt>
      <trkpt lat="47.27559" lon="-0.1232">
        <ele>52.8</ele>
        <time>2026-06-20T05:58:12Z</time>
      </trkpt>
      <trkpt lat="47.2756" lon="-0.12324">
        <ele>53.2</ele>
        <time>2026-06-20T05:58:13Z</time>
      </trkpt>
      <trkpt lat="47.27561" lon="-0.12328">
        <ele>53.2</ele>
        <time>2026-06-20T05:58:14Z</time>
      </trkpt>
      <trkpt lat="47.27561" lon="-0.12332">
        <ele>53.4</ele>
        <time>2026-06-20T05:58:15Z</time>
      </trkpt>
      <trkpt lat="47.27561" lon="-0.12336">
        <ele>53.6</ele>
        <time>2026-06-20T05:58:16Z</time>
      </trkpt>
      <trkpt lat="47.27561" lon="-0.1234">
        <ele>53.8</ele>
        <time>2026-06-20T05:58:17Z</time>
      </trkpt>
      <trkpt lat="47.27561" lon="-0.12344">
        <ele>53.8</ele>
        <time>2026-06-20T05:58:18Z</time>
      </trkpt>
      <trkpt lat="47.27562" lon="-0.12349">
        <ele>54</ele>
        <time>2026-06-20T05:58:19Z</time>
      </trkpt>
      <trkpt lat="47.27562" lon="-0.12354">
        <ele>54.2</ele>
        <time>2026-06-20T05:58:20Z</time>
      </trkpt>
      <trkpt lat="47.27562" lon="-0.12359">
        <ele>54.4</ele>
        <time>2026-06-20T05:58:21Z</time>
      </trkpt>
      <trkpt lat="47.27562" lon="-0.12364">
        <ele>54.4</ele>
        <time>2026-06-20T05:58:22Z</time>
      </trkpt>
      <trkpt lat="47.27563" lon="-0.12368">
        <ele>54.6</ele>
        <time>2026-06-20T05:58:23Z</time>
      </trkpt>
      <trkpt lat="47.27563" lon="-0.12373">
        <ele>54.8</ele>
        <time>2026-06-20T05:58:24Z</time>
      </trkpt>
      <trkpt lat="47.27563" lon="-0.12377">
        <ele>55</ele>
        <time>2026-06-20T05:58:25Z</time>
      </trkpt>
      <trkpt lat="47.27563" lon="-0.12382">
        <ele>55.2</ele>
        <time>2026-06-20T05:58:26Z</time>
      </trkpt>
      <trkpt lat="47.27563" lon="-0.12387">
        <ele>55.2</ele>
        <time>2026-06-20T05:58:27Z</time>
      </trkpt>
      <trkpt lat="47.27563" lon="-0.12392">
        <ele>55.4</ele>
        <time>2026-06-20T05:58:28Z</time>
      </trkpt>
      <trkpt lat="47.27564" lon="-0.12397">
        <ele>55.4</ele>
        <time>2026-06-20T05:58:29Z</time>
      </trkpt>
      <trkpt lat="47.27565" lon="-0.12401">
        <ele>55.6</ele>
        <time>2026-06-20T05:58:30Z</time>
      </trkpt>
      <trkpt lat="47.27565" lon="-0.12406">
        <ele>55.6</ele>
        <time>2026-06-20T05:58:31Z</time>
      </trkpt>
      <trkpt lat="47.27566" lon="-0.12411">
        <ele>55.8</ele>
        <time>2026-06-20T05:58:32Z</time>
      </trkpt>
      <trkpt lat="47.27566" lon="-0.12416">
        <ele>55.8</ele>
        <time>2026-06-20T05:58:33Z</time>
      </trkpt>
      <trkpt lat="47.27567" lon="-0.12421">
        <ele>56</ele>
        <time>2026-06-20T05:58:34Z</time>
      </trkpt>
      <trkpt lat="47.27567" lon="-0.12426">
        <ele>56</ele>
        <time>2026-06-20T05:58:35Z</time>
      </trkpt>
      <trkpt lat="47.27567" lon="-0.12431">
        <ele>56.2</ele>
        <time>2026-06-20T05:58:36Z</time>
      </trkpt>
      <trkpt lat="47.27568" lon="-0.12436">
        <ele>56.2</ele>
        <time>2026-06-20T05:58:37Z</time>
      </trkpt>
      <trkpt lat="47.27568" lon="-0.12441">
        <ele>56.4</ele>
        <time>2026-06-20T05:58:38Z</time>
      </trkpt>
      <trkpt lat="47.27569" lon="-0.12446">
        <ele>56.4</ele>
        <time>2026-06-20T05:58:39Z</time>
      </trkpt>
      <trkpt lat="47.27569" lon="-0.12451">
        <ele>56.6</ele>
        <time>2026-06-20T05:58:40Z</time>
      </trkpt>
      <trkpt lat="47.2757" lon="-0.12456">
        <ele>56.6</ele>
        <time>2026-06-20T05:58:41Z</time>
      </trkpt>
      <trkpt lat="47.2757" lon="-0.12461">
        <ele>56.8</ele>
        <time>2026-06-20T05:58:42Z</time>
      </trkpt>
      <trkpt lat="47.27571" lon="-0.12466">
        <ele>56.8</ele>
        <time>2026-06-20T05:58:43Z</time>
      </trkpt>
      <trkpt lat="47.27571" lon="-0.12471">
        <ele>57</ele>
        <time>2026-06-20T05:58:44Z</time>
      </trkpt>
      <trkpt lat="47.27572" lon="-0.12476">
        <ele>57.2</ele>
        <time>2026-06-20T05:58:45Z</time>
      </trkpt>
      <trkpt lat="47.27572" lon="-0.1248">
        <ele>57.4</ele>
        <time>2026-06-20T05:58:46Z</time>
      </trkpt>
      <trkpt lat="47.27573" lon="-0.12485">
        <ele>57.6</ele>
        <time>2026-06-20T05:58:47Z</time>
      </trkpt>
      <trkpt lat="47.27574" lon="-0.12491">
        <ele>57.8</ele>
        <time>2026-06-20T05:58:48Z</time>
      </trkpt>
      <trkpt lat="47.27574" lon="-0.12496">
        <ele>58</ele>
        <time>2026-06-20T05:58:49Z</time>
      </trkpt>
      <trkpt lat="47.27574" lon="-0.12502">
        <ele>58.2</ele>
        <time>2026-06-20T05:58:50Z</time>
      </trkpt>
      <trkpt lat="47.27575" lon="-0.12508">
        <ele>58.2</ele>
        <time>2026-06-20T05:58:51Z</time>
      </trkpt>
      <trkpt lat="47.27575" lon="-0.12513">
        <ele>58.4</ele>
        <time>2026-06-20T05:58:52Z</time>
      </trkpt>
      <trkpt lat="47.27575" lon="-0.12519">
        <ele>58.4</ele>
        <time>2026-06-20T05:58:53Z</time>
      </trkpt>
      <trkpt lat="47.27575" lon="-0.12525">
        <ele>58.6</ele>
        <time>2026-06-20T05:58:54Z</time>
      </trkpt>
      <trkpt lat="47.27575" lon="-0.12531">
        <ele>58.6</ele>
        <time>2026-06-20T05:58:55Z</time>
      </trkpt>
      <trkpt lat="47.27574" lon="-0.12537">
        <ele>58.8</ele>
        <time>2026-06-20T05:58:56Z</time>
      </trkpt>
      <trkpt lat="47.27573" lon="-0.12543">
        <ele>58.8</ele>
        <time>2026-06-20T05:58:57Z</time>
      </trkpt>
      <trkpt lat="47.27572" lon="-0.12549">
        <ele>59</ele>
        <time>2026-06-20T05:58:58Z</time>
      </trkpt>
      <trkpt lat="47.27571" lon="-0.12554">
        <ele>59</ele>
        <time>2026-06-20T05:58:59Z</time>
      </trkpt>
      <trkpt lat="47.27569" lon="-0.12559">
        <ele>59</ele>
        <time>2026-06-20T05:59:00Z</time>
      </trkpt>
      <trkpt lat="47.27568" lon="-0.12564">
        <ele>59</ele>
        <time>2026-06-20T05:59:01Z</time>
      </trkpt>
      <trkpt lat="47.27567" lon="-0.12568">
        <ele>59</ele>
        <time>2026-06-20T05:59:02Z</time>
      </trkpt>
      <trkpt lat="47.27567" lon="-0.12573">
        <ele>59</ele>
        <time>2026-06-20T05:59:03Z</time>
      </trkpt>
      <trkpt lat="47.27565" lon="-0.12578">
        <ele>59.2</ele>
        <time>2026-06-20T05:59:04Z</time>
      </trkpt>
      <trkpt lat="47.27564" lon="-0.12583">
        <ele>59.2</ele>
        <time>2026-06-20T05:59:05Z</time>
      </trkpt>
      <trkpt lat="47.27563" lon="-0.12589">
        <ele>59.2</ele>
        <time>2026-06-20T05:59:06Z</time>
      </trkpt>
      <trkpt lat="47.27562" lon="-0.12594">
        <ele>59.4</ele>
        <time>2026-06-20T05:59:07Z</time>
      </trkpt>
      <trkpt lat="47.27562" lon="-0.126">
        <ele>59.4</ele>
        <time>2026-06-20T05:59:08Z</time>
      </trkpt>
      <trkpt lat="47.2756" lon="-0.12606">
        <ele>59.4</ele>
        <time>2026-06-20T05:59:09Z</time>
      </trkpt>
      <trkpt lat="47.27559" lon="-0.12612">
        <ele>59.6</ele>
        <time>2026-06-20T05:59:10Z</time>
      </trkpt>
      <trkpt lat="47.27558" lon="-0.12618">
        <ele>59.6</ele>
        <time>2026-06-20T05:59:11Z</time>
      </trkpt>
      <trkpt lat="47.27557" lon="-0.12623">
        <ele>59.6</ele>
        <time>2026-06-20T05:59:12Z</time>
      </trkpt>
      <trkpt lat="47.27557" lon="-0.12629">
        <ele>59.6</ele>
        <time>2026-06-20T05:59:13Z</time>
      </trkpt>
      <trkpt lat="47.27557" lon="-0.12635">
        <ele>59.8</ele>
        <time>2026-06-20T05:59:14Z</time>
      </trkpt>
      <trkpt lat="47.27556" lon="-0.1264">
        <ele>59.8</ele>
        <time>2026-06-20T05:59:15Z</time>
      </trkpt>
      <trkpt lat="47.27556" lon="-0.12646">
        <ele>60</ele>
        <time>2026-06-20T05:59:16Z</time>
      </trkpt>
      <trkpt lat="47.27556" lon="-0.12651">
        <ele>60</ele>
        <time>2026-06-20T05:59:17Z</time>
      </trkpt>
      <trkpt lat="47.27556" lon="-0.12657">
        <ele>60</ele>
        <time>2026-06-20T05:59:18Z</time>
      </trkpt>
      <trkpt lat="47.27557" lon="-0.12662">
        <ele>60.2</ele>
        <time>2026-06-20T05:59:19Z</time>
      </trkpt>
      <trkpt lat="47.27559" lon="-0.12668">
        <ele>60.4</ele>
        <time>2026-06-20T05:59:20Z</time>
      </trkpt>
      <trkpt lat="47.2756" lon="-0.12673">
        <ele>60.6</ele>
        <time>2026-06-20T05:59:21Z</time>
      </trkpt>
      <trkpt lat="47.27563" lon="-0.12676">
        <ele>60.6</ele>
        <time>2026-06-20T05:59:22Z</time>
      </trkpt>
      <trkpt lat="47.27566" lon="-0.1268">
        <ele>60.8</ele>
        <time>2026-06-20T05:59:23Z</time>
      </trkpt>
      <trkpt lat="47.27568" lon="-0.12686">
        <ele>60.8</ele>
        <time>2026-06-20T05:59:24Z</time>
      </trkpt>
      <trkpt lat="47.27572" lon="-0.12691">
        <ele>61</ele>
        <time>2026-06-20T05:59:25Z</time>
      </trkpt>
      <trkpt lat="47.27575" lon="-0.12693">
        <ele>61.2</ele>
        <time>2026-06-20T05:59:26Z</time>
      </trkpt>
      <trkpt lat="47.27577" lon="-0.12698">
        <ele>61.4</ele>
        <time>2026-06-20T05:59:27Z</time>
      </trkpt>
      <trkpt lat="47.2758" lon="-0.12701">
        <ele>61.6</ele>
        <time>2026-06-20T05:59:28Z</time>
      </trkpt>
      <trkpt lat="47.27583" lon="-0.12705">
        <ele>61.8</ele>
        <time>2026-06-20T05:59:29Z</time>
      </trkpt>
      <trkpt lat="47.27585" lon="-0.12708">
        <ele>62</ele>
        <time>2026-06-20T05:59:30Z</time>
      </trkpt>
      <trkpt lat="47.27588" lon="-0.1271">
        <ele>62.2</ele>
        <time>2026-06-20T05:59:31Z</time>
      </trkpt>
      <trkpt lat="47.27589" lon="-0.12712">
        <ele>62.6</ele>
        <time>2026-06-20T05:59:32Z</time>
      </trkpt>
      <trkpt lat="47.2759" lon="-0.12715">
        <ele>62.8</ele>
        <time>2026-06-20T05:59:33Z</time>
      </trkpt>
      <trkpt lat="47.27591" lon="-0.1272">
        <ele>63.2</ele>
        <time>2026-06-20T05:59:34Z</time>
      </trkpt>
      <trkpt lat="47.27592" lon="-0.12724">
        <ele>63.4</ele>
        <time>2026-06-20T05:59:35Z</time>
      </trkpt>
      <trkpt lat="47.27591" lon="-0.12727">
        <ele>63.6</ele>
        <time>2026-06-20T05:59:36Z</time>
      </trkpt>
      <trkpt lat="47.27591" lon="-0.12731">
        <ele>63.8</ele>
        <time>2026-06-20T05:59:37Z</time>
      </trkpt>
      <trkpt lat="47.27591" lon="-0.12734">
        <ele>64</ele>
        <time>2026-06-20T05:59:38Z</time>
      </trkpt>
      <trkpt lat="47.27591" lon="-0.12738">
        <ele>64.2</ele>
        <time>2026-06-20T05:59:39Z</time>
      </trkpt>
      <trkpt lat="47.27591" lon="-0.12742">
        <ele>64.4</ele>
        <time>2026-06-20T05:59:40Z</time>
      </trkpt>
      <trkpt lat="47.2759" lon="-0.12745">
        <ele>64.6</ele>
        <time>2026-06-20T05:59:41Z</time>
      </trkpt>
      <trkpt lat="47.2759" lon="-0.12748">
        <ele>64.8</ele>
        <time>2026-06-20T05:59:42Z</time>
      </trkpt>
      <trkpt lat="47.2759" lon="-0.12751">
        <ele>65</ele>
        <time>2026-06-20T05:59:43Z</time>
      </trkpt>
      <trkpt lat="47.2759" lon="-0.12754">
        <ele>65.2</ele>
        <time>2026-06-20T05:59:44Z</time>
      </trkpt>
      <trkpt lat="47.2759" lon="-0.12758">
        <ele>65.4</ele>
        <time>2026-06-20T05:59:45Z</time>
      </trkpt>
      <trkpt lat="47.27591" lon="-0.12763">
        <ele>65.6</ele>
        <time>2026-06-20T05:59:46Z</time>
      </trkpt>
      <trkpt lat="47.27591" lon="-0.12767">
        <ele>65.6</ele>
        <time>2026-06-20T05:59:47Z</time>
      </trkpt>
      <trkpt lat="47.27592" lon="-0.12772">
        <ele>65.8</ele>
        <time>2026-06-20T05:59:48Z</time>
      </trkpt>
      <trkpt lat="47.27593" lon="-0.12775">
        <ele>66</ele>
        <time>2026-06-20T05:59:49Z</time>
      </trkpt>
      <trkpt lat="47.27593" lon="-0.12779">
        <ele>66.2</ele>
        <time>2026-06-20T05:59:50Z</time>
      </trkpt>
      <trkpt lat="47.27593" lon="-0.12784">
        <ele>66.4</ele>
        <time>2026-06-20T05:59:51Z</time>
      </trkpt>
      <trkpt lat="47.27594" lon="-0.12788">
        <ele>66.6</ele>
        <time>2026-06-20T05:59:52Z</time>
      </trkpt>
      <trkpt lat="47.27594" lon="-0.12792">
        <ele>66.8</ele>
        <time>2026-06-20T05:59:53Z</time>
      </trkpt>
      <trkpt lat="47.27595" lon="-0.12796">
        <ele>67</ele>
        <time>2026-06-20T05:59:54Z</time>
      </trkpt>
      <trkpt lat="47.27597" lon="-0.128">
        <ele>67.4</ele>
        <time>2026-06-20T05:59:55Z</time>
      </trkpt>
      <trkpt lat="47.27597" lon="-0.12804">
        <ele>67.6</ele>
        <time>2026-06-20T05:59:56Z</time>
      </trkpt>
      <trkpt lat="47.27598" lon="-0.12809">
        <ele>67.8</ele>
        <time>2026-06-20T05:59:57Z</time>
      </trkpt>
      <trkpt lat="47.27598" lon="-0.12813">
        <ele>68</ele>
        <time>2026-06-20T05:59:58Z</time>
      </trkpt>
      <trkpt lat="47.27599" lon="-0.12817">
        <ele>68.2</ele>
        <time>2026-06-20T05:59:59Z</time>
      </trkpt>
      <trkpt lat="47.27599" lon="-0.12821">
        <ele>68.4</ele>
        <time>2026-06-20T06:00:00Z</time>
      </trkpt>
      <trkpt lat="47.276" lon="-0.12825">
        <ele>68.8</ele>
        <time>2026-06-20T06:00:01Z</time>
      </trkpt>
      <trkpt lat="47.276" lon="-0.12829">
        <ele>68.8</ele>
        <time>2026-06-20T06:00:02Z</time>
      </trkpt>
      <trkpt lat="47.276" lon="-0.12834">
        <ele>69.2</ele>
        <time>2026-06-20T06:00:03Z</time>
      </trkpt>
      <trkpt lat="47.276" lon="-0.12838">
        <ele>69.4</ele>
        <time>2026-06-20T06:00:04Z</time>
      </trkpt>
      <trkpt lat="47.276" lon="-0.12843">
        <ele>69.6</ele>
        <time>2026-06-20T06:00:05Z</time>
      </trkpt>
      <trkpt lat="47.276" lon="-0.12847">
        <ele>69.8</ele>
        <time>2026-06-20T06:00:06Z</time>
      </trkpt>
      <trkpt lat="47.276" lon="-0.12853">
        <ele>70</ele>
        <time>2026-06-20T06:00:07Z</time>
      </trkpt>
      <trkpt lat="47.276" lon="-0.12858">
        <ele>70.2</ele>
        <time>2026-06-20T06:00:08Z</time>
      </trkpt>
      <trkpt lat="47.276" lon="-0.12862">
        <ele>70.4</ele>
        <time>2026-06-20T06:00:09Z</time>
      </trkpt>
      <trkpt lat="47.276" lon="-0.12867">
        <ele>70.6</ele>
        <time>2026-06-20T06:00:10Z</time>
      </trkpt>
      <trkpt lat="47.27601" lon="-0.12871">
        <ele>70.8</ele>
        <time>2026-06-20T06:00:11Z</time>
      </trkpt>
      <trkpt lat="47.27602" lon="-0.12875">
        <ele>71</ele>
        <time>2026-06-20T06:00:12Z</time>
      </trkpt>
      <trkpt lat="47.27603" lon="-0.12879">
        <ele>71.2</ele>
        <time>2026-06-20T06:00:13Z</time>
      </trkpt>
      <trkpt lat="47.27603" lon="-0.12884">
        <ele>71.4</ele>
        <time>2026-06-20T06:00:14Z</time>
      </trkpt>
      <trkpt lat="47.27604" lon="-0.12888">
        <ele>71.6</ele>
        <time>2026-06-20T06:00:15Z</time>
      </trkpt>
      <trkpt lat="47.27604" lon="-0.12891">
        <ele>71.8</ele>
        <time>2026-06-20T06:00:16Z</time>
      </trkpt>
      <trkpt lat="47.27605" lon="-0.12895">
        <ele>72</ele>
        <time>2026-06-20T06:00:17Z</time>
      </trkpt>
      <trkpt lat="47.27607" lon="-0.12898">
        <ele>72.2</ele>
        <time>2026-06-20T06:00:18Z</time>
      </trkpt>
      <trkpt lat="47.27609" lon="-0.12902">
        <ele>72.2</ele>
        <time>2026-06-20T06:00:19Z</time>
      </trkpt>
      <trkpt lat="47.2761" lon="-0.12906">
        <ele>72.4</ele>
        <time>2026-06-20T06:00:20Z</time>
      </trkpt>
      <trkpt lat="47.27612" lon="-0.1291">
        <ele>72.4</ele>
        <time>2026-06-20T06:00:21Z</time>
      </trkpt>
      <trkpt lat="47.27614" lon="-0.12915">
        <ele>72.4</ele>
        <time>2026-06-20T06:00:22Z</time>
      </trkpt>
      <trkpt lat="47.27616" lon="-0.1292">
        <ele>72.6</ele>
        <time>2026-06-20T06:00:23Z</time>
      </trkpt>
      <trkpt lat="47.27617" lon="-0.12925">
        <ele>72.6</ele>
        <time>2026-06-20T06:00:24Z</time>
      </trkpt>
      <trkpt lat="47.27619" lon="-0.1293">
        <ele>72.6</ele>
        <time>2026-06-20T06:00:25Z</time>
      </trkpt>
      <trkpt lat="47.27619" lon="-0.12935">
        <ele>72.8</ele>
        <time>2026-06-20T06:00:26Z</time>
      </trkpt>
      <trkpt lat="47.2762" lon="-0.1294">
        <ele>72.8</ele>
        <time>2026-06-20T06:00:27Z</time>
      </trkpt>
      <trkpt lat="47.2762" lon="-0.12945">
        <ele>72.8</ele>
        <time>2026-06-20T06:00:28Z</time>
      </trkpt>
      <trkpt lat="47.27619" lon="-0.1295">
        <ele>72.8</ele>
        <time>2026-06-20T06:00:29Z</time>
      </trkpt>
      <trkpt lat="47.27617" lon="-0.12956">
        <ele>72.8</ele>
        <time>2026-06-20T06:00:30Z</time>
      </trkpt>
      <trkpt lat="47.27615" lon="-0.12961">
        <ele>72.8</ele>
        <time>2026-06-20T06:00:31Z</time>
      </trkpt>
      <trkpt lat="47.27613" lon="-0.12965">
        <ele>72.8</ele>
        <time>2026-06-20T06:00:32Z</time>
      </trkpt>
      <trkpt lat="47.2761" lon="-0.1297">
        <ele>72.8</ele>
        <time>2026-06-20T06:00:33Z</time>
      </trkpt>
      <trkpt lat="47.27607" lon="-0.12974">
        <ele>72.8</ele>
        <time>2026-06-20T06:00:34Z</time>
      </trkpt>
      <trkpt lat="47.27604" lon="-0.12979">
        <ele>72.6</ele>
        <time>2026-06-20T06:00:35Z</time>
      </trkpt>
      <trkpt lat="47.27602" lon="-0.12984">
        <ele>72.6</ele>
        <time>2026-06-20T06:00:36Z</time>
      </trkpt>
      <trkpt lat="47.276" lon="-0.1299">
        <ele>72.4</ele>
        <time>2026-06-20T06:00:37Z</time>
      </trkpt>
      <trkpt lat="47.27598" lon="-0.12997">
        <ele>72.4</ele>
        <time>2026-06-20T06:00:38Z</time>
      </trkpt>
      <trkpt lat="47.27596" lon="-0.13004">
        <ele>72.2</ele>
        <time>2026-06-20T06:00:39Z</time>
      </trkpt>
      <trkpt lat="47.27594" lon="-0.13012">
        <ele>72</ele>
        <time>2026-06-20T06:00:40Z</time>
      </trkpt>
      <trkpt lat="47.27592" lon="-0.1302">
        <ele>71.8</ele>
        <time>2026-06-20T06:00:41Z</time>
      </trkpt>
      <trkpt lat="47.27589" lon="-0.13028">
        <ele>71.4</ele>
        <time>2026-06-20T06:00:42Z</time>
      </trkpt>
      <trkpt lat="47.27587" lon="-0.13036">
        <ele>71</ele>
        <time>2026-06-20T06:00:43Z</time>
      </trkpt>
      <trkpt lat="47.27585" lon="-0.13044">
        <ele>70.6</ele>
        <time>2026-06-20T06:00:44Z</time>
      </trkpt>
      <trkpt lat="47.27584" lon="-0.13053">
        <ele>70.4</ele>
        <time>2026-06-20T06:00:45Z</time>
      </trkpt>
      <trkpt lat="47.27582" lon="-0.13061">
        <ele>70.2</ele>
        <time>2026-06-20T06:00:46Z</time>
      </trkpt>
      <trkpt lat="47.27581" lon="-0.13069">
        <ele>70.2</ele>
        <time>2026-06-20T06:00:47Z</time>
      </trkpt>
      <trkpt lat="47.2758" lon="-0.13077">
        <ele>70</ele>
        <time>2026-06-20T06:00:48Z</time>
      </trkpt>
      <trkpt lat="47.27578" lon="-0.13085">
        <ele>69.8</ele>
        <time>2026-06-20T06:00:49Z</time>
      </trkpt>
      <trkpt lat="47.27577" lon="-0.13093">
        <ele>69.6</ele>
        <time>2026-06-20T06:00:50Z</time>
      </trkpt>
      <trkpt lat="47.27575" lon="-0.131">
        <ele>69.4</ele>
        <time>2026-06-20T06:00:51Z</time>
      </trkpt>
      <trkpt lat="47.2757" lon="-0.13104">
        <ele>69.2</ele>
        <time>2026-06-20T06:00:52Z</time>
      </trkpt>
      <trkpt lat="47.27565" lon="-0.13106">
        <ele>69</ele>
        <time>2026-06-20T06:00:53Z</time>
      </trkpt>
      <trkpt lat="47.27561" lon="-0.13104">
        <ele>68.8</ele>
        <time>2026-06-20T06:00:54Z</time>
      </trkpt>
      <trkpt lat="47.27556" lon="-0.13101">
        <ele>68.6</ele>
        <time>2026-06-20T06:00:55Z</time>
      </trkpt>
      <trkpt lat="47.27552" lon="-0.13096">
        <ele>68.4</ele>
        <time>2026-06-20T06:00:56Z</time>
      </trkpt>
      <trkpt lat="47.27547" lon="-0.13091">
        <ele>68.2</ele>
        <time>2026-06-20T06:00:57Z</time>
      </trkpt>
      <trkpt lat="47.27542" lon="-0.13086">
        <ele>67.8</ele>
        <time>2026-06-20T06:00:58Z</time>
      </trkpt>
      <trkpt lat="47.27537" lon="-0.13081">
        <ele>67.4</ele>
        <time>2026-06-20T06:00:59Z</time>
      </trkpt>
      <trkpt lat="47.27532" lon="-0.13075">
        <ele>67</ele>
        <time>2026-06-20T06:01:00Z</time>
      </trkpt>
      <trkpt lat="47.27526" lon="-0.13071">
        <ele>66.6</ele>
        <time>2026-06-20T06:01:01Z</time>
      </trkpt>
      <trkpt lat="47.27521" lon="-0.13066">
        <ele>66.4</ele>
        <time>2026-06-20T06:01:02Z</time>
      </trkpt>
      <trkpt lat="47.27515" lon="-0.13061">
        <ele>66</ele>
        <time>2026-06-20T06:01:03Z</time>
      </trkpt>
      <trkpt lat="47.2751" lon="-0.13056">
        <ele>65.8</ele>
        <time>2026-06-20T06:01:04Z</time>
      </trkpt>
      <trkpt lat="47.27505" lon="-0.1305">
        <ele>65.6</ele>
        <time>2026-06-20T06:01:05Z</time>
      </trkpt>
      <trkpt lat="47.27499" lon="-0.13045">
        <ele>65.4</ele>
        <time>2026-06-20T06:01:06Z</time>
      </trkpt>
      <trkpt lat="47.27494" lon="-0.1304">
        <ele>65</ele>
        <time>2026-06-20T06:01:07Z</time>
      </trkpt>
      <trkpt lat="47.27489" lon="-0.13034">
        <ele>64.8</ele>
        <time>2026-06-20T06:01:08Z</time>
      </trkpt>
      <trkpt lat="47.27483" lon="-0.13028">
        <ele>64.4</ele>
        <time>2026-06-20T06:01:09Z</time>
      </trkpt>
      <trkpt lat="47.27478" lon="-0.13022">
        <ele>64.2</ele>
        <time>2026-06-20T06:01:10Z</time>
      </trkpt>
      <trkpt lat="47.27473" lon="-0.13016">
        <ele>64</ele>
        <time>2026-06-20T06:01:11Z</time>
      </trkpt>
      <trkpt lat="47.27467" lon="-0.1301">
        <ele>63.6</ele>
        <time>2026-06-20T06:01:12Z</time>
      </trkpt>
      <trkpt lat="47.27462" lon="-0.13004">
        <ele>63.6</ele>
        <time>2026-06-20T06:01:13Z</time>
      </trkpt>
      <trkpt lat="47.27457" lon="-0.12997">
        <ele>63.2</ele>
        <time>2026-06-20T06:01:14Z</time>
      </trkpt>
      <trkpt lat="47.27453" lon="-0.12991">
        <ele>63</ele>
        <time>2026-06-20T06:01:15Z</time>
      </trkpt>
      <trkpt lat="47.27448" lon="-0.12985">
        <ele>62.8</ele>
        <time>2026-06-20T06:01:16Z</time>
      </trkpt>
      <trkpt lat="47.27442" lon="-0.12979">
        <ele>62.6</ele>
        <time>2026-06-20T06:01:17Z</time>
      </trkpt>
      <trkpt lat="47.27437" lon="-0.12973">
        <ele>62.4</ele>
        <time>2026-06-20T06:01:18Z</time>
      </trkpt>
      <trkpt lat="47.27432" lon="-0.12968">
        <ele>62.2</ele>
        <time>2026-06-20T06:01:19Z</time>
      </trkpt>
      <trkpt lat="47.27426" lon="-0.12962">
        <ele>62</ele>
        <time>2026-06-20T06:01:20Z</time>
      </trkpt>
      <trkpt lat="47.27421" lon="-0.12956">
        <ele>61.8</ele>
        <time>2026-06-20T06:01:21Z</time>
      </trkpt>
      <trkpt lat="47.27416" lon="-0.1295">
        <ele>61.6</ele>
        <time>2026-06-20T06:01:22Z</time>
      </trkpt>
      <trkpt lat="47.27411" lon="-0.12944">
        <ele>61.4</ele>
        <time>2026-06-20T06:01:23Z</time>
      </trkpt>
      <trkpt lat="47.27406" lon="-0.12938">
        <ele>61.2</ele>
        <time>2026-06-20T06:01:24Z</time>
      </trkpt>
      <trkpt lat="47.274" lon="-0.12932">
        <ele>61</ele>
        <time>2026-06-20T06:01:25Z</time>
      </trkpt>
      <trkpt lat="47.27395" lon="-0.12926">
        <ele>60.8</ele>
        <time>2026-06-20T06:01:26Z</time>
      </trkpt>
      <trkpt lat="47.2739" lon="-0.12921">
        <ele>60.6</ele>
        <time>2026-06-20T06:01:27Z</time>
      </trkpt>
      <trkpt lat="47.27385" lon="-0.12916">
        <ele>60.4</ele>
        <time>2026-06-20T06:01:28Z</time>
      </trkpt>
      <trkpt lat="47.2738" lon="-0.12912">
        <ele>60.2</ele>
        <time>2026-06-20T06:01:29Z</time>
      </trkpt>
      <trkpt lat="47.27374" lon="-0.12907">
        <ele>60</ele>
        <time>2026-06-20T06:01:30Z</time>
      </trkpt>
      <trkpt lat="47.27369" lon="-0.12902">
        <ele>59.8</ele>
        <time>2026-06-20T06:01:31Z</time>
      </trkpt>
      <trkpt lat="47.27363" lon="-0.12898">
        <ele>59.6</ele>
        <time>2026-06-20T06:01:32Z</time>
      </trkpt>
      <trkpt lat="47.27358" lon="-0.12893">
        <ele>59.4</ele>
        <time>2026-06-20T06:01:33Z</time>
      </trkpt>
      <trkpt lat="47.27352" lon="-0.12889">
        <ele>59.4</ele>
        <time>2026-06-20T06:01:34Z</time>
      </trkpt>
      <trkpt lat="47.27346" lon="-0.12885">
        <ele>59.2</ele>
        <time>2026-06-20T06:01:35Z</time>
      </trkpt>
      <trkpt lat="47.27341" lon="-0.1288">
        <ele>59</ele>
        <time>2026-06-20T06:01:36Z</time>
      </trkpt>
      <trkpt lat="47.27336" lon="-0.12876">
        <ele>59</ele>
        <time>2026-06-20T06:01:37Z</time>
      </trkpt>
      <trkpt lat="47.27331" lon="-0.12871">
        <ele>58.8</ele>
        <time>2026-06-20T06:01:38Z</time>
      </trkpt>
      <trkpt lat="47.27326" lon="-0.12867">
        <ele>58.8</ele>
        <time>2026-06-20T06:01:39Z</time>
      </trkpt>
      <trkpt lat="47.27321" lon="-0.12862">
        <ele>58.8</ele>
        <time>2026-06-20T06:01:40Z</time>
      </trkpt>
      <trkpt lat="47.27315" lon="-0.12857">
        <ele>58.6</ele>
        <time>2026-06-20T06:01:41Z</time>
      </trkpt>
      <trkpt lat="47.2731" lon="-0.12852">
        <ele>58.6</ele>
        <time>2026-06-20T06:01:42Z</time>
      </trkpt>
      <trkpt lat="47.27304" lon="-0.12848">
        <ele>58.2</ele>
        <time>2026-06-20T06:01:43Z</time>
      </trkpt>
      <trkpt lat="47.27299" lon="-0.12843">
        <ele>57.8</ele>
        <time>2026-06-20T06:01:44Z</time>
      </trkpt>
      <trkpt lat="47.27294" lon="-0.12838">
        <ele>57.6</ele>
        <time>2026-06-20T06:01:45Z</time>
      </trkpt>
      <trkpt lat="47.27289" lon="-0.12833">
        <ele>57.4</ele>
        <time>2026-06-20T06:01:46Z</time>
      </trkpt>
      <trkpt lat="47.27283" lon="-0.12828">
        <ele>57.2</ele>
        <time>2026-06-20T06:01:47Z</time>
      </trkpt>
      <trkpt lat="47.27278" lon="-0.12824">
        <ele>57</ele>
        <time>2026-06-20T06:01:48Z</time>
      </trkpt>
      <trkpt lat="47.27273" lon="-0.12819">
        <ele>57</ele>
        <time>2026-06-20T06:01:49Z</time>
      </trkpt>
      <trkpt lat="47.27268" lon="-0.12815">
        <ele>57</ele>
        <time>2026-06-20T06:01:50Z</time>
      </trkpt>
      <trkpt lat="47.27263" lon="-0.12811">
        <ele>57</ele>
        <time>2026-06-20T06:01:51Z</time>
      </trkpt>
      <trkpt lat="47.27258" lon="-0.12806">
        <ele>56.8</ele>
        <time>2026-06-20T06:01:52Z</time>
      </trkpt>
      <trkpt lat="47.27254" lon="-0.12802">
        <ele>56.8</ele>
        <time>2026-06-20T06:01:53Z</time>
      </trkpt>
      <trkpt lat="47.27249" lon="-0.12798">
        <ele>56.8</ele>
        <time>2026-06-20T06:01:54Z</time>
      </trkpt>
      <trkpt lat="47.27245" lon="-0.12793">
        <ele>56.6</ele>
        <time>2026-06-20T06:01:55Z</time>
      </trkpt>
      <trkpt lat="47.27241" lon="-0.1279">
        <ele>56.6</ele>
        <time>2026-06-20T06:01:56Z</time>
      </trkpt>
      <trkpt lat="47.27237" lon="-0.12786">
        <ele>56.6</ele>
        <time>2026-06-20T06:01:57Z</time>
      </trkpt>
      <trkpt lat="47.27233" lon="-0.12782">
        <ele>56.8</ele>
        <time>2026-06-20T06:01:58Z</time>
      </trkpt>
      <trkpt lat="47.27229" lon="-0.1278">
        <ele>56.8</ele>
        <time>2026-06-20T06:01:59Z</time>
      </trkpt>
      <trkpt lat="47.27225" lon="-0.12779">
        <ele>57</ele>
        <time>2026-06-20T06:02:00Z</time>
      </trkpt>
      <trkpt lat="47.27222" lon="-0.12779">
        <ele>57</ele>
        <time>2026-06-20T06:02:01Z</time>
        <extensions>
          <visugpx:TrkExtension xmlns:visugpx="https://www.visugpx.com/editgpx/">
            <visugpx:node>1</visugpx:node>
            </visugpx:TrkExtension>
        </extensions>
      </trkpt>
      <trkpt lat="47.27201" lon="-0.12996">
        <ele>58.9</ele>
        <extensions>
          <visugpx:TrkExtension xmlns:visugpx="https://www.visugpx.com/editgpx/">
            <visugpx:node>2</visugpx:node>
            </visugpx:TrkExtension>
        </extensions>
      </trkpt>
      <trkpt lat="47.27199" lon="-0.13127">
        <ele>61.9</ele>
        <extensions>
          <visugpx:TrkExtension xmlns:visugpx="https://www.visugpx.com/editgpx/">
            <visugpx:node>3</visugpx:node>
            </visugpx:TrkExtension>
        </extensions>
      </trkpt>
      <trkpt lat="47.27196" lon="-0.13148">
        <ele>62.3</ele>
        <extensions>
          <visugpx:TrkExtension xmlns:visugpx="https://www.visugpx.com/editgpx/">
            <visugpx:node>4</visugpx:node>
            </visugpx:TrkExtension>
        </extensions>
      </trkpt>
      <trkpt lat="47.27119" lon="-0.13221">
        <ele>61.3</ele>
        <extensions>
          <visugpx:TrkExtension xmlns:visugpx="https://www.visugpx.com/editgpx/">
            <visugpx:node>5</visugpx:node>
            </visugpx:TrkExtension>
        </extensions>
      </trkpt>
      <trkpt lat="47.27066" lon="-0.1326">
        <ele>59.4</ele>
        <extensions>
          <visugpx:TrkExtension xmlns:visugpx="https://www.visugpx.com/editgpx/">
            <visugpx:node>6</visugpx:node>
            </visugpx:TrkExtension>
        </extensions>
      </trkpt>
      <trkpt lat="47.27031" lon="-0.13275">
        <ele>57.2</ele>
        <extensions>
          <visugpx:TrkExtension xmlns:visugpx="https://www.visugpx.com/editgpx/">
            <visugpx:node>7</visugpx:node>
            </visugpx:TrkExtension>
        </extensions>
      </trkpt>
      <trkpt lat="47.26982" lon="-0.13275">
        <ele>54.3</ele>
        <extensions>
          <visugpx:TrkExtension xmlns:visugpx="https://www.visugpx.com/editgpx/">
            <visugpx:node>8</visugpx:node>
            </visugpx:TrkExtension>
        </extensions>
      </trkpt>
      <trkpt lat="47.26958" lon="-0.1329">
        <ele>54</ele>
        <extensions>
          <visugpx:TrkExtension xmlns:visugpx="https://www.visugpx.com/editgpx/">
            <visugpx:node>9</visugpx:node>
            </visugpx:TrkExtension>
        </extensions>
      </trkpt>
      <trkpt lat="47.26957" lon="-0.13263">
        <ele>54</ele>
        <extensions>
          <visugpx:TrkExtension xmlns:visugpx="https://www.visugpx.com/editgpx/">
            <visugpx:node>10</visugpx:node>
            </visugpx:TrkExtension>
        </extensions>
      </trkpt>
      <trkpt lat="47.26946" lon="-0.1323">
        <ele>54</ele>
        <extensions>
          <visugpx:TrkExtension xmlns:visugpx="https://www.visugpx.com/editgpx/">
            <visugpx:node>11</visugpx:node>
            </visugpx:TrkExtension>
        </extensions>
      </trkpt>
      <trkpt lat="47.26941" lon="-0.13186">
        <ele>54.1</ele>
        <extensions>
          <visugpx:TrkExtension xmlns:visugpx="https://www.visugpx.com/editgpx/">
            <visugpx:node>12</visugpx:node>
            </visugpx:TrkExtension>
        </extensions>
      </trkpt>
      <trkpt lat="47.26948" lon="-0.13148">
        <ele>54</ele>
        <extensions>
          <visugpx:TrkExtension xmlns:visugpx="https://www.visugpx.com/editgpx/">
            <visugpx:node>13</visugpx:node>
            </visugpx:TrkExtension>
        </extensions>
      </trkpt>
      <trkpt lat="47.26953" lon="-0.13118">
        <ele>53.3</ele>
        <extensions>
          <visugpx:TrkExtension xmlns:visugpx="https://www.visugpx.com/editgpx/">
            <visugpx:node>14</visugpx:node>
            </visugpx:TrkExtension>
        </extensions>
      </trkpt>
      <trkpt lat="47.26952" lon="-0.1309">
        <ele>53</ele>
        <extensions>
          <visugpx:TrkExtension xmlns:visugpx="https://www.visugpx.com/editgpx/">
            <visugpx:node>15</visugpx:node>
            </visugpx:TrkExtension>
        </extensions>
      </trkpt>
      <trkpt lat="47.26946" lon="-0.13063">
        <ele>53</ele>
        <extensions>
          <visugpx:TrkExtension xmlns:visugpx="https://www.visugpx.com/editgpx/">
            <visugpx:node>16</visugpx:node>
            </visugpx:TrkExtension>
        </extensions>
      </trkpt>
      <trkpt lat="47.26945" lon="-0.1305">
        <ele>53</ele>
        <extensions>
          <visugpx:TrkExtension xmlns:visugpx="https://www.visugpx.com/editgpx/">
            <visugpx:node>17</visugpx:node>
            </visugpx:TrkExtension>
        </extensions>
      </trkpt>
      <trkpt lat="47.26949" lon="-0.13044">
        <ele>52.8</ele>
        <extensions>
          <visugpx:TrkExtension xmlns:visugpx="https://www.visugpx.com/editgpx/">
            <visugpx:node>18</visugpx:node>
            </visugpx:TrkExtension>
        </extensions>
      </trkpt>
      <trkpt lat="47.2695" lon="-0.13043">
        <ele>53</ele>
        <time>2026-06-20T06:06:28Z</time>
        <extensions>
          <visugpx:TrkExtension xmlns:visugpx="https://www.visugpx.com/editgpx/">
            <visugpx:node>19</visugpx:node>
            </visugpx:TrkExtension>
        </extensions>
      </trkpt>
      <trkpt lat="47.26949" lon="-0.13042">
        <ele>53</ele>
        <time>2026-06-20T06:06:29Z</time>
      </trkpt>
      <trkpt lat="47.26947" lon="-0.13041">
        <ele>53</ele>
        <time>2026-06-20T06:06:30Z</time>
      </trkpt>
      <trkpt lat="47.26944" lon="-0.1304">
        <ele>53</ele>
        <time>2026-06-20T06:06:31Z</time>
      </trkpt>
      <trkpt lat="47.26941" lon="-0.13037">
        <ele>53</ele>
        <time>2026-06-20T06:06:32Z</time>
      </trkpt>
      <trkpt lat="47.26936" lon="-0.13035">
        <ele>53.2</ele>
        <time>2026-06-20T06:06:33Z</time>
      </trkpt>
      <trkpt lat="47.26932" lon="-0.13032">
        <ele>53.2</ele>
        <time>2026-06-20T06:06:34Z</time>
      </trkpt>
      <trkpt lat="47.26929" lon="-0.1303">
        <ele>53.2</ele>
        <time>2026-06-20T06:06:35Z</time>
      </trkpt>
      <trkpt lat="47.26926" lon="-0.13028">
        <ele>53.4</ele>
        <time>2026-06-20T06:06:36Z</time>
      </trkpt>
      <trkpt lat="47.26923" lon="-0.13025">
        <ele>53.4</ele>
        <time>2026-06-20T06:06:37Z</time>
      </trkpt>
      <trkpt lat="47.26921" lon="-0.13021">
        <ele>53.6</ele>
        <time>2026-06-20T06:06:38Z</time>
      </trkpt>
      <trkpt lat="47.26919" lon="-0.13017">
        <ele>53.6</ele>
        <time>2026-06-20T06:06:39Z</time>
      </trkpt>
      <trkpt lat="47.26918" lon="-0.13013">
        <ele>53.8</ele>
        <time>2026-06-20T06:06:40Z</time>
      </trkpt>
      <trkpt lat="47.26917" lon="-0.13008">
        <ele>53.8</ele>
        <time>2026-06-20T06:06:41Z</time>
      </trkpt>
      <trkpt lat="47.26917" lon="-0.13004">
        <ele>53.8</ele>
        <time>2026-06-20T06:06:42Z</time>
      </trkpt>
      <trkpt lat="47.26918" lon="-0.12999">
        <ele>53.8</ele>
        <time>2026-06-20T06:06:43Z</time>
      </trkpt>
      <trkpt lat="47.26919" lon="-0.12992">
        <ele>53.8</ele>
        <time>2026-06-20T06:06:44Z</time>
      </trkpt>
      <trkpt lat="47.2692" lon="-0.12985">
        <ele>53.6</ele>
        <time>2026-06-20T06:06:45Z</time>
      </trkpt>
      <trkpt lat="47.26921" lon="-0.12977">
        <ele>53.4</ele>
        <time>2026-06-20T06:06:46Z</time>
      </trkpt>
      <trkpt lat="47.26923" lon="-0.12971">
        <ele>53.4</ele>
        <time>2026-06-20T06:06:47Z</time>
      </trkpt>
      <trkpt lat="47.26922" lon="-0.12965">
        <ele>53.2</ele>
        <time>2026-06-20T06:06:48Z</time>
      </trkpt>
      <trkpt lat="47.26923" lon="-0.12958">
        <ele>53</ele>
        <time>2026-06-20T06:06:49Z</time>
      </trkpt>
      <trkpt lat="47.26922" lon="-0.1295">
        <ele>53</ele>
        <time>2026-06-20T06:06:50Z</time>
      </trkpt>
      <trkpt lat="47.26921" lon="-0.12943">
        <ele>52.8</ele>
        <time>2026-06-20T06:06:51Z</time>
      </trkpt>
      <trkpt lat="47.2692" lon="-0.12936">
        <ele>52.8</ele>
        <time>2026-06-20T06:06:52Z</time>
      </trkpt>
      <trkpt lat="47.26918" lon="-0.12929">
        <ele>52.8</ele>
        <time>2026-06-20T06:06:53Z</time>
      </trkpt>
      <trkpt lat="47.26918" lon="-0.12922">
        <ele>52.8</ele>
        <time>2026-06-20T06:06:54Z</time>
      </trkpt>
      <trkpt lat="47.26917" lon="-0.12915">
        <ele>52.6</ele>
        <time>2026-06-20T06:06:55Z</time>
      </trkpt>
      <trkpt lat="47.26915" lon="-0.12909">
        <ele>52.6</ele>
        <time>2026-06-20T06:06:56Z</time>
      </trkpt>
      <trkpt lat="47.26912" lon="-0.12902">
        <ele>52.4</ele>
        <time>2026-06-20T06:06:57Z</time>
      </trkpt>
      <trkpt lat="47.2691" lon="-0.12896">
        <ele>52.4</ele>
        <time>2026-06-20T06:06:58Z</time>
      </trkpt>
      <trkpt lat="47.26908" lon="-0.12891">
        <ele>52.4</ele>
        <time>2026-06-20T06:06:59Z</time>
      </trkpt>
      <trkpt lat="47.26906" lon="-0.12887">
        <ele>52.4</ele>
        <time>2026-06-20T06:07:00Z</time>
      </trkpt>
      <trkpt lat="47.26904" lon="-0.12881">
        <ele>52.2</ele>
        <time>2026-06-20T06:07:01Z</time>
      </trkpt>
      <trkpt lat="47.26902" lon="-0.12875">
        <ele>52.2</ele>
        <time>2026-06-20T06:07:02Z</time>
      </trkpt>
      <trkpt lat="47.26901" lon="-0.12868">
        <ele>52.2</ele>
        <time>2026-06-20T06:07:03Z</time>
      </trkpt>
      <trkpt lat="47.26901" lon="-0.12861">
        <ele>52</ele>
        <time>2026-06-20T06:07:04Z</time>
      </trkpt>
      <trkpt lat="47.26902" lon="-0.12855">
        <ele>52</ele>
        <time>2026-06-20T06:07:05Z</time>
      </trkpt>
      <trkpt lat="47.26902" lon="-0.12848">
        <ele>51.8</ele>
        <time>2026-06-20T06:07:06Z</time>
      </trkpt>
      <trkpt lat="47.26903" lon="-0.12839">
        <ele>51.6</ele>
        <time>2026-06-20T06:07:07Z</time>
      </trkpt>
      <trkpt lat="47.26903" lon="-0.12831">
        <ele>51.6</ele>
        <time>2026-06-20T06:07:08Z</time>
      </trkpt>
      <trkpt lat="47.26902" lon="-0.12824">
        <ele>51.4</ele>
        <time>2026-06-20T06:07:09Z</time>
      </trkpt>
      <trkpt lat="47.269" lon="-0.12816">
        <ele>51.4</ele>
        <time>2026-06-20T06:07:10Z</time>
      </trkpt>
      <trkpt lat="47.26898" lon="-0.1281">
        <ele>51.4</ele>
        <time>2026-06-20T06:07:11Z</time>
      </trkpt>
      <trkpt lat="47.26898" lon="-0.12803">
        <ele>51.4</ele>
        <time>2026-06-20T06:07:12Z</time>
      </trkpt>
      <trkpt lat="47.26897" lon="-0.12797">
        <ele>51.2</ele>
        <time>2026-06-20T06:07:13Z</time>
      </trkpt>
      <trkpt lat="47.26896" lon="-0.1279">
        <ele>51.4</ele>
        <time>2026-06-20T06:07:14Z</time>
      </trkpt>
      <trkpt lat="47.26896" lon="-0.12784">
        <ele>51.4</ele>
        <time>2026-06-20T06:07:15Z</time>
      </trkpt>
      <trkpt lat="47.26894" lon="-0.12778">
        <ele>51.4</ele>
        <time>2026-06-20T06:07:16Z</time>
      </trkpt>
      <trkpt lat="47.26892" lon="-0.12774">
        <ele>51.6</ele>
        <time>2026-06-20T06:07:17Z</time>
      </trkpt>
      <trkpt lat="47.26889" lon="-0.1277">
        <ele>51.6</ele>
        <time>2026-06-20T06:07:18Z</time>
      </trkpt>
      <trkpt lat="47.26887" lon="-0.12764">
        <ele>51.4</ele>
        <time>2026-06-20T06:07:19Z</time>
      </trkpt>
      <trkpt lat="47.26885" lon="-0.12758">
        <ele>51.4</ele>
        <time>2026-06-20T06:07:20Z</time>
      </trkpt>
      <trkpt lat="47.26882" lon="-0.12751">
        <ele>51.4</ele>
        <time>2026-06-20T06:07:21Z</time>
      </trkpt>
      <trkpt lat="47.26877" lon="-0.12745">
        <ele>51.2</ele>
        <time>2026-06-20T06:07:22Z</time>
      </trkpt>
      <trkpt lat="47.26874" lon="-0.1274">
        <ele>51.2</ele>
        <time>2026-06-20T06:07:23Z</time>
      </trkpt>
      <trkpt lat="47.2687" lon="-0.12736">
        <ele>51.2</ele>
        <time>2026-06-20T06:07:24Z</time>
      </trkpt>
      <trkpt lat="47.26867" lon="-0.12731">
        <ele>51.2</ele>
        <time>2026-06-20T06:07:25Z</time>
      </trkpt>
      <trkpt lat="47.26865" lon="-0.12725">
        <ele>51.2</ele>
        <time>2026-06-20T06:07:26Z</time>
      </trkpt>
      <trkpt lat="47.26863" lon="-0.12721">
        <ele>51.4</ele>
        <time>2026-06-20T06:07:27Z</time>
      </trkpt>
      <trkpt lat="47.2686" lon="-0.12716">
        <ele>51.4</ele>
        <time>2026-06-20T06:07:28Z</time>
      </trkpt>
      <trkpt lat="47.26856" lon="-0.12714">
        <ele>51.6</ele>
        <time>2026-06-20T06:07:29Z</time>
      </trkpt>
      <trkpt lat="47.26854" lon="-0.12712">
        <ele>51.6</ele>
        <time>2026-06-20T06:07:30Z</time>
      </trkpt>
      <trkpt lat="47.26854" lon="-0.12708">
        <ele>51.6</ele>
        <time>2026-06-20T06:07:31Z</time>
      </trkpt>
      <trkpt lat="47.26854" lon="-0.12704">
        <ele>51.6</ele>
        <time>2026-06-20T06:07:32Z</time>
      </trkpt>
      <trkpt lat="47.26852" lon="-0.12699">
        <ele>51.6</ele>
        <time>2026-06-20T06:07:33Z</time>
      </trkpt>
      <trkpt lat="47.26853" lon="-0.12694">
        <ele>51.6</ele>
        <time>2026-06-20T06:07:34Z</time>
      </trkpt>
      <trkpt lat="47.26851" lon="-0.12688">
        <ele>51.6</ele>
        <time>2026-06-20T06:07:35Z</time>
      </trkpt>
      <trkpt lat="47.2685" lon="-0.12684">
        <ele>51.8</ele>
        <time>2026-06-20T06:07:36Z</time>
      </trkpt>
      <trkpt lat="47.26847" lon="-0.12678">
        <ele>51.8</ele>
        <time>2026-06-20T06:07:37Z</time>
      </trkpt>
      <trkpt lat="47.26846" lon="-0.12674">
        <ele>52</ele>
        <time>2026-06-20T06:07:38Z</time>
      </trkpt>
      <trkpt lat="47.26847" lon="-0.1267">
        <ele>52</ele>
        <time>2026-06-20T06:07:39Z</time>
      </trkpt>
      <trkpt lat="47.26847" lon="-0.12666">
        <ele>52.2</ele>
        <time>2026-06-20T06:07:40Z</time>
      </trkpt>
      <trkpt lat="47.26848" lon="-0.12663">
        <ele>52.2</ele>
        <time>2026-06-20T06:07:41Z</time>
      </trkpt>
      <trkpt lat="47.26848" lon="-0.1266">
        <ele>52.2</ele>
        <time>2026-06-20T06:07:42Z</time>
      </trkpt>
      <trkpt lat="47.26848" lon="-0.12657">
        <ele>52.2</ele>
        <time>2026-06-20T06:07:43Z</time>
      </trkpt>
      <trkpt lat="47.26849" lon="-0.12653">
        <ele>52.4</ele>
        <time>2026-06-20T06:07:44Z</time>
      </trkpt>
      <trkpt lat="47.26849" lon="-0.12651">
        <ele>52.4</ele>
        <time>2026-06-20T06:07:45Z</time>
      </trkpt>
      <trkpt lat="47.26851" lon="-0.12648">
        <ele>52.4</ele>
        <time>2026-06-20T06:07:46Z</time>
      </trkpt>
      <trkpt lat="47.26852" lon="-0.12644">
        <ele>52.4</ele>
        <time>2026-06-20T06:07:47Z</time>
      </trkpt>
      <trkpt lat="47.26852" lon="-0.1264">
        <ele>52.4</ele>
        <time>2026-06-20T06:07:48Z</time>
      </trkpt>
      <trkpt lat="47.26852" lon="-0.12637">
        <ele>52.4</ele>
        <time>2026-06-20T06:07:49Z</time>
      </trkpt>
      <trkpt lat="47.26851" lon="-0.12635">
        <ele>52.6</ele>
        <time>2026-06-20T06:07:50Z</time>
      </trkpt>
      <trkpt lat="47.2685" lon="-0.12635">
        <ele>52.6</ele>
        <time>2026-06-20T06:07:51Z</time>
      </trkpt>
      <trkpt lat="47.26848" lon="-0.12636">
        <ele>52.8</ele>
        <time>2026-06-20T06:07:52Z</time>
      </trkpt>
      <trkpt lat="47.26847" lon="-0.12637">
        <ele>52.8</ele>
        <time>2026-06-20T06:07:53Z</time>
      </trkpt>
      <trkpt lat="47.26846" lon="-0.12639">
        <ele>53</ele>
        <time>2026-06-20T06:07:54Z</time>
      </trkpt>
      <trkpt lat="47.26844" lon="-0.12641">
        <ele>53</ele>
        <time>2026-06-20T06:07:55Z</time>
      </trkpt>
      <trkpt lat="47.26842" lon="-0.12645">
        <ele>53</ele>
        <time>2026-06-20T06:07:56Z</time>
      </trkpt>
      <trkpt lat="47.2684" lon="-0.12649">
        <ele>53</ele>
        <time>2026-06-20T06:07:57Z</time>
      </trkpt>
      <trkpt lat="47.26838" lon="-0.12651">
        <ele>53</ele>
        <time>2026-06-20T06:07:58Z</time>
      </trkpt>
      <trkpt lat="47.26836" lon="-0.12653">
        <ele>53</ele>
        <time>2026-06-20T06:07:59Z</time>
      </trkpt>
      <trkpt lat="47.26834" lon="-0.12655">
        <ele>53.2</ele>
        <time>2026-06-20T06:08:00Z</time>
      </trkpt>
      <trkpt lat="47.26833" lon="-0.12657">
        <ele>53.2</ele>
        <time>2026-06-20T06:08:01Z</time>
      </trkpt>
      <trkpt lat="47.26832" lon="-0.12659">
        <ele>53.4</ele>
        <time>2026-06-20T06:08:02Z</time>
      </trkpt>
      <trkpt lat="47.26831" lon="-0.12661">
        <ele>53.6</ele>
        <time>2026-06-20T06:08:03Z</time>
      </trkpt>
      <trkpt lat="47.26831" lon="-0.12663">
        <ele>53.6</ele>
        <time>2026-06-20T06:08:04Z</time>
      </trkpt>
      <trkpt lat="47.26829" lon="-0.12664">
        <ele>53.8</ele>
        <time>2026-06-20T06:08:05Z</time>
      </trkpt>
      <trkpt lat="47.26828" lon="-0.12666">
        <ele>53.8</ele>
        <time>2026-06-20T06:08:06Z</time>
      </trkpt>
      <trkpt lat="47.26827" lon="-0.12666">
        <ele>53.8</ele>
        <time>2026-06-20T06:08:07Z</time>
      </trkpt>
      <trkpt lat="47.26826" lon="-0.12667">
        <ele>54</ele>
        <time>2026-06-20T06:08:08Z</time>
      </trkpt>
      <trkpt lat="47.26826" lon="-0.12669">
        <ele>54</ele>
        <time>2026-06-20T06:08:09Z</time>
      </trkpt>
      <trkpt lat="47.26824" lon="-0.12671">
        <ele>54.2</ele>
        <time>2026-06-20T06:08:10Z</time>
      </trkpt>
      <trkpt lat="47.26823" lon="-0.12674">
        <ele>54.2</ele>
        <time>2026-06-20T06:08:11Z</time>
      </trkpt>
      <trkpt lat="47.26822" lon="-0.12676">
        <ele>54.2</ele>
        <time>2026-06-20T06:08:12Z</time>
      </trkpt>
      <trkpt lat="47.2682" lon="-0.12678">
        <ele>54.2</ele>
        <time>2026-06-20T06:08:13Z</time>
      </trkpt>
      <trkpt lat="47.26819" lon="-0.12681">
        <ele>54.2</ele>
        <time>2026-06-20T06:08:14Z</time>
      </trkpt>
      <trkpt lat="47.26817" lon="-0.12684">
        <ele>54.2</ele>
        <time>2026-06-20T06:08:15Z</time>
      </trkpt>
      <trkpt lat="47.26815" lon="-0.12686">
        <ele>54.2</ele>
        <time>2026-06-20T06:08:16Z</time>
      </trkpt>
      <trkpt lat="47.26813" lon="-0.12689">
        <ele>54.2</ele>
        <time>2026-06-20T06:08:17Z</time>
      </trkpt>
      <trkpt lat="47.26811" lon="-0.12691">
        <ele>54.4</ele>
        <time>2026-06-20T06:08:18Z</time>
      </trkpt>
      <trkpt lat="47.26809" lon="-0.12694">
        <ele>54.4</ele>
        <time>2026-06-20T06:08:19Z</time>
      </trkpt>
      <trkpt lat="47.26808" lon="-0.12696">
        <ele>54.4</ele>
        <time>2026-06-20T06:08:20Z</time>
      </trkpt>
      <trkpt lat="47.26807" lon="-0.12698">
        <ele>54.6</ele>
        <time>2026-06-20T06:08:21Z</time>
      </trkpt>
      <trkpt lat="47.26805" lon="-0.12701">
        <ele>54.6</ele>
        <time>2026-06-20T06:08:22Z</time>
      </trkpt>
      <trkpt lat="47.26803" lon="-0.12703">
        <ele>54.8</ele>
        <time>2026-06-20T06:08:23Z</time>
      </trkpt>
      <trkpt lat="47.26801" lon="-0.12705">
        <ele>54.8</ele>
        <time>2026-06-20T06:08:24Z</time>
      </trkpt>
      <trkpt lat="47.26799" lon="-0.12707">
        <ele>55</ele>
        <time>2026-06-20T06:08:25Z</time>
      </trkpt>
      <trkpt lat="47.26797" lon="-0.12709">
        <ele>55</ele>
        <time>2026-06-20T06:08:26Z</time>
      </trkpt>
      <trkpt lat="47.26796" lon="-0.12711">
        <ele>55</ele>
        <time>2026-06-20T06:08:27Z</time>
      </trkpt>
      <trkpt lat="47.26794" lon="-0.12714">
        <ele>55.2</ele>
        <time>2026-06-20T06:08:28Z</time>
      </trkpt>
      <trkpt lat="47.26791" lon="-0.12717">
        <ele>55.2</ele>
        <time>2026-06-20T06:08:29Z</time>
      </trkpt>
      <trkpt lat="47.26789" lon="-0.12719">
        <ele>55.4</ele>
        <time>2026-06-20T06:08:30Z</time>
      </trkpt>
      <trkpt lat="47.26787" lon="-0.12722">
        <ele>55.4</ele>
        <time>2026-06-20T06:08:31Z</time>
      </trkpt>
      <trkpt lat="47.26785" lon="-0.12725">
        <ele>55.6</ele>
        <time>2026-06-20T06:08:32Z</time>
      </trkpt>
      <trkpt lat="47.26783" lon="-0.12727">
        <ele>55.6</ele>
        <time>2026-06-20T06:08:33Z</time>
      </trkpt>
      <trkpt lat="47.26781" lon="-0.1273">
        <ele>55.8</ele>
        <time>2026-06-20T06:08:34Z</time>
      </trkpt>
      <trkpt lat="47.26778" lon="-0.12732">
        <ele>55.8</ele>
        <time>2026-06-20T06:08:35Z</time>
      </trkpt>
      <trkpt lat="47.26777" lon="-0.12734">
        <ele>56</ele>
        <time>2026-06-20T06:08:36Z</time>
      </trkpt>
      <trkpt lat="47.26775" lon="-0.12736">
        <ele>56.2</ele>
        <time>2026-06-20T06:08:37Z</time>
      </trkpt>
      <trkpt lat="47.26773" lon="-0.12738">
        <ele>56.2</ele>
        <time>2026-06-20T06:08:38Z</time>
      </trkpt>
      <trkpt lat="47.2677" lon="-0.12739">
        <ele>56.4</ele>
        <time>2026-06-20T06:08:39Z</time>
      </trkpt>
      <trkpt lat="47.26768" lon="-0.12738">
        <ele>56.6</ele>
        <time>2026-06-20T06:08:40Z</time>
      </trkpt>
      <trkpt lat="47.26766" lon="-0.12737">
        <ele>56.6</ele>
        <time>2026-06-20T06:08:41Z</time>
      </trkpt>
      <trkpt lat="47.26764" lon="-0.12736">
        <ele>56.8</ele>
        <time>2026-06-20T06:08:42Z</time>
      </trkpt>
      <trkpt lat="47.26763" lon="-0.12734">
        <ele>56.8</ele>
        <time>2026-06-20T06:08:43Z</time>
      </trkpt>
      <trkpt lat="47.26761" lon="-0.12732">
        <ele>57</ele>
        <time>2026-06-20T06:08:44Z</time>
      </trkpt>
      <trkpt lat="47.26759" lon="-0.1273">
        <ele>57</ele>
        <time>2026-06-20T06:08:45Z</time>
      </trkpt>
      <trkpt lat="47.26757" lon="-0.12728">
        <ele>57.2</ele>
        <time>2026-06-20T06:08:46Z</time>
      </trkpt>
      <trkpt lat="47.26755" lon="-0.12726">
        <ele>57.4</ele>
        <time>2026-06-20T06:08:47Z</time>
      </trkpt>
      <trkpt lat="47.26753" lon="-0.12724">
        <ele>57.6</ele>
        <time>2026-06-20T06:08:48Z</time>
      </trkpt>
      <trkpt lat="47.26751" lon="-0.12723">
        <ele>57.8</ele>
        <time>2026-06-20T06:08:49Z</time>
      </trkpt>
      <trkpt lat="47.26749" lon="-0.12722">
        <ele>58</ele>
        <time>2026-06-20T06:08:50Z</time>
      </trkpt>
      <trkpt lat="47.26746" lon="-0.12721">
        <ele>58.2</ele>
        <time>2026-06-20T06:08:51Z</time>
      </trkpt>
      <trkpt lat="47.26744" lon="-0.12719">
        <ele>58.4</ele>
        <time>2026-06-20T06:08:52Z</time>
      </trkpt>
      <trkpt lat="47.26743" lon="-0.12718">
        <ele>58.4</ele>
        <time>2026-06-20T06:08:53Z</time>
      </trkpt>
      <trkpt lat="47.26741" lon="-0.12715">
        <ele>58.6</ele>
        <time>2026-06-20T06:08:54Z</time>
      </trkpt>
      <trkpt lat="47.26738" lon="-0.12713">
        <ele>58.6</ele>
        <time>2026-06-20T06:08:55Z</time>
      </trkpt>
      <trkpt lat="47.26736" lon="-0.12711">
        <ele>58.8</ele>
        <time>2026-06-20T06:08:56Z</time>
      </trkpt>
      <trkpt lat="47.26734" lon="-0.12709">
        <ele>58.8</ele>
        <time>2026-06-20T06:08:57Z</time>
      </trkpt>
      <trkpt lat="47.26732" lon="-0.12708">
        <ele>59</ele>
        <time>2026-06-20T06:08:58Z</time>
      </trkpt>
      <trkpt lat="47.2673" lon="-0.12707">
        <ele>59.2</ele>
        <time>2026-06-20T06:08:59Z</time>
      </trkpt>
      <trkpt lat="47.26727" lon="-0.12706">
        <ele>59.2</ele>
        <time>2026-06-20T06:09:00Z</time>
      </trkpt>
      <trkpt lat="47.26724" lon="-0.12704">
        <ele>59.4</ele>
        <time>2026-06-20T06:09:01Z</time>
      </trkpt>
      <trkpt lat="47.26722" lon="-0.12702">
        <ele>59.6</ele>
        <time>2026-06-20T06:09:02Z</time>
      </trkpt>
      <trkpt lat="47.2672" lon="-0.12699">
        <ele>59.8</ele>
        <time>2026-06-20T06:09:03Z</time>
      </trkpt>
      <trkpt lat="47.26718" lon="-0.12697">
        <ele>60</ele>
        <time>2026-06-20T06:09:04Z</time>
      </trkpt>
      <trkpt lat="47.26717" lon="-0.12696">
        <ele>60.2</ele>
        <time>2026-06-20T06:09:05Z</time>
      </trkpt>
      <trkpt lat="47.26715" lon="-0.12694">
        <ele>60.2</ele>
        <time>2026-06-20T06:09:06Z</time>
      </trkpt>
      <trkpt lat="47.26714" lon="-0.12692">
        <ele>60.4</ele>
        <time>2026-06-20T06:09:07Z</time>
      </trkpt>
      <trkpt lat="47.26711" lon="-0.1269">
        <ele>60.4</ele>
        <time>2026-06-20T06:09:08Z</time>
      </trkpt>
      <trkpt lat="47.26708" lon="-0.12688">
        <ele>60.6</ele>
        <time>2026-06-20T06:09:09Z</time>
      </trkpt>
      <trkpt lat="47.26706" lon="-0.12687">
        <ele>60.8</ele>
        <time>2026-06-20T06:09:10Z</time>
      </trkpt>
      <trkpt lat="47.26704" lon="-0.12685">
        <ele>61</ele>
        <time>2026-06-20T06:09:11Z</time>
      </trkpt>
      <trkpt lat="47.26702" lon="-0.12682">
        <ele>61</ele>
        <time>2026-06-20T06:09:12Z</time>
      </trkpt>
      <trkpt lat="47.26699" lon="-0.12679">
        <ele>61.2</ele>
        <time>2026-06-20T06:09:13Z</time>
      </trkpt>
      <trkpt lat="47.26696" lon="-0.12678">
        <ele>61.4</ele>
        <time>2026-06-20T06:09:14Z</time>
      </trkpt>
      <trkpt lat="47.26693" lon="-0.12676">
        <ele>61.4</ele>
        <time>2026-06-20T06:09:15Z</time>
      </trkpt>
      <trkpt lat="47.26692" lon="-0.12673">
        <ele>61.6</ele>
        <time>2026-06-20T06:09:16Z</time>
      </trkpt>
      <trkpt lat="47.26689" lon="-0.12669">
        <ele>61.8</ele>
        <time>2026-06-20T06:09:17Z</time>
      </trkpt>
      <trkpt lat="47.26688" lon="-0.12666">
        <ele>62</ele>
        <time>2026-06-20T06:09:18Z</time>
      </trkpt>
      <trkpt lat="47.26688" lon="-0.12665">
        <ele>62</ele>
        <time>2026-06-20T06:09:19Z</time>
      </trkpt>
      <trkpt lat="47.26685" lon="-0.12663">
        <ele>62</ele>
        <time>2026-06-20T06:09:20Z</time>
      </trkpt>
      <trkpt lat="47.26684" lon="-0.1266">
        <ele>62.2</ele>
        <time>2026-06-20T06:09:21Z</time>
      </trkpt>
      <trkpt lat="47.26683" lon="-0.12658">
        <ele>62.2</ele>
        <time>2026-06-20T06:09:22Z</time>
      </trkpt>
      <trkpt lat="47.26682" lon="-0.12656">
        <ele>62.4</ele>
        <time>2026-06-20T06:09:23Z</time>
      </trkpt>
      <trkpt lat="47.26681" lon="-0.12654">
        <ele>62.6</ele>
        <time>2026-06-20T06:09:24Z</time>
      </trkpt>
      <trkpt lat="47.2668" lon="-0.12653">
        <ele>62.8</ele>
        <time>2026-06-20T06:09:25Z</time>
      </trkpt>
      <trkpt lat="47.26679" lon="-0.12651">
        <ele>62.8</ele>
        <time>2026-06-20T06:09:26Z</time>
      </trkpt>
      <trkpt lat="47.26677" lon="-0.12651">
        <ele>63</ele>
        <time>2026-06-20T06:09:27Z</time>
      </trkpt>
      <trkpt lat="47.26675" lon="-0.12652">
        <ele>63.2</ele>
        <time>2026-06-20T06:09:28Z</time>
      </trkpt>
      <trkpt lat="47.26673" lon="-0.12653">
        <ele>63.2</ele>
        <time>2026-06-20T06:09:29Z</time>
      </trkpt>
      <trkpt lat="47.2667" lon="-0.12653">
        <ele>63</ele>
        <time>2026-06-20T06:09:30Z</time>
      </trkpt>
      <trkpt lat="47.26668" lon="-0.12653">
        <ele>63</ele>
        <time>2026-06-20T06:09:31Z</time>
      </trkpt>
      <trkpt lat="47.26665" lon="-0.12654">
        <ele>63.2</ele>
        <time>2026-06-20T06:09:32Z</time>
      </trkpt>
      <trkpt lat="47.26663" lon="-0.12654">
        <ele>63.4</ele>
        <time>2026-06-20T06:09:33Z</time>
      </trkpt>
      <trkpt lat="47.2666" lon="-0.12655">
        <ele>63.4</ele>
        <time>2026-06-20T06:09:34Z</time>
      </trkpt>
      <trkpt lat="47.26659" lon="-0.12656">
        <ele>63.6</ele>
        <time>2026-06-20T06:09:35Z</time>
      </trkpt>
      <trkpt lat="47.26656" lon="-0.12657">
        <ele>63.8</ele>
        <time>2026-06-20T06:09:36Z</time>
      </trkpt>
      <trkpt lat="47.26654" lon="-0.12656">
        <ele>63.8</ele>
        <time>2026-06-20T06:09:37Z</time>
      </trkpt>
      <trkpt lat="47.26651" lon="-0.12654">
        <ele>63.6</ele>
        <time>2026-06-20T06:09:38Z</time>
      </trkpt>
      <trkpt lat="47.26648" lon="-0.12652">
        <ele>63.6</ele>
        <time>2026-06-20T06:09:39Z</time>
      </trkpt>
      <trkpt lat="47.26645" lon="-0.12651">
        <ele>63.8</ele>
        <time>2026-06-20T06:09:40Z</time>
      </trkpt>
      <trkpt lat="47.26643" lon="-0.12651">
        <ele>63.8</ele>
        <time>2026-06-20T06:09:41Z</time>
      </trkpt>
      <trkpt lat="47.26641" lon="-0.12652">
        <ele>64</ele>
        <time>2026-06-20T06:09:42Z</time>
      </trkpt>
      <trkpt lat="47.26638" lon="-0.12653">
        <ele>64</ele>
        <time>2026-06-20T06:09:43Z</time>
      </trkpt>
      <trkpt lat="47.26636" lon="-0.12655">
        <ele>64.2</ele>
        <time>2026-06-20T06:09:44Z</time>
      </trkpt>
      <trkpt lat="47.26634" lon="-0.12657">
        <ele>64.2</ele>
        <time>2026-06-20T06:09:45Z</time>
      </trkpt>
      <trkpt lat="47.26632" lon="-0.12659">
        <ele>64.4</ele>
        <time>2026-06-20T06:09:46Z</time>
      </trkpt>
      <trkpt lat="47.2663" lon="-0.12662">
        <ele>64.6</ele>
        <time>2026-06-20T06:09:47Z</time>
      </trkpt>
      <trkpt lat="47.26627" lon="-0.12664">
        <ele>64.6</ele>
        <time>2026-06-20T06:09:48Z</time>
      </trkpt>
      <trkpt lat="47.26625" lon="-0.12667">
        <ele>64.8</ele>
        <time>2026-06-20T06:09:49Z</time>
      </trkpt>
      <trkpt lat="47.26623" lon="-0.12671">
        <ele>65</ele>
        <time>2026-06-20T06:09:50Z</time>
      </trkpt>
      <trkpt lat="47.26622" lon="-0.12674">
        <ele>65</ele>
        <time>2026-06-20T06:09:51Z</time>
      </trkpt>
      <trkpt lat="47.2662" lon="-0.12679">
        <ele>65.2</ele>
        <time>2026-06-20T06:09:52Z</time>
      </trkpt>
      <trkpt lat="47.26617" lon="-0.12683">
        <ele>65.2</ele>
        <time>2026-06-20T06:09:53Z</time>
      </trkpt>
      <trkpt lat="47.26615" lon="-0.12686">
        <ele>65.4</ele>
        <time>2026-06-20T06:09:54Z</time>
      </trkpt>
      <trkpt lat="47.26612" lon="-0.12691">
        <ele>65.6</ele>
        <time>2026-06-20T06:09:55Z</time>
      </trkpt>
      <trkpt lat="47.26611" lon="-0.12694">
        <ele>65.6</ele>
        <time>2026-06-20T06:09:56Z</time>
      </trkpt>
      <trkpt lat="47.2661" lon="-0.12697">
        <ele>65.8</ele>
        <time>2026-06-20T06:09:57Z</time>
      </trkpt>
      <trkpt lat="47.2661" lon="-0.12701">
        <ele>66</ele>
        <time>2026-06-20T06:09:58Z</time>
      </trkpt>
      <trkpt lat="47.2661" lon="-0.12705">
        <ele>66</ele>
        <time>2026-06-20T06:09:59Z</time>
      </trkpt>
      <trkpt lat="47.26609" lon="-0.12708">
        <ele>66.2</ele>
        <time>2026-06-20T06:10:00Z</time>
      </trkpt>
      <trkpt lat="47.26608" lon="-0.12711">
        <ele>66.4</ele>
        <time>2026-06-20T06:10:01Z</time>
      </trkpt>
      <trkpt lat="47.26607" lon="-0.12714">
        <ele>66.6</ele>
        <time>2026-06-20T06:10:02Z</time>
      </trkpt>
      <trkpt lat="47.26605" lon="-0.12716">
        <ele>66.8</ele>
        <time>2026-06-20T06:10:03Z</time>
      </trkpt>
      <trkpt lat="47.26604" lon="-0.12718">
        <ele>67</ele>
        <time>2026-06-20T06:10:04Z</time>
      </trkpt>
      <trkpt lat="47.26603" lon="-0.1272">
        <ele>67.2</ele>
        <time>2026-06-20T06:10:05Z</time>
      </trkpt>
      <trkpt lat="47.26601" lon="-0.12721">
        <ele>67.4</ele>
        <time>2026-06-20T06:10:06Z</time>
      </trkpt>
      <trkpt lat="47.26599" lon="-0.12723">
        <ele>67.6</ele>
        <time>2026-06-20T06:10:07Z</time>
      </trkpt>
      <trkpt lat="47.26597" lon="-0.12725">
        <ele>67.8</ele>
        <time>2026-06-20T06:10:08Z</time>
      </trkpt>
      <trkpt lat="47.26595" lon="-0.12726">
        <ele>68</ele>
        <time>2026-06-20T06:10:09Z</time>
      </trkpt>
      <trkpt lat="47.26593" lon="-0.12728">
        <ele>68.2</ele>
        <time>2026-06-20T06:10:10Z</time>
      </trkpt>
      <trkpt lat="47.26591" lon="-0.12731">
        <ele>68.4</ele>
        <time>2026-06-20T06:10:11Z</time>
      </trkpt>
      <trkpt lat="47.2659" lon="-0.12733">
        <ele>68.6</ele>
        <time>2026-06-20T06:10:12Z</time>
      </trkpt>
      <trkpt lat="47.26588" lon="-0.12736">
        <ele>68.8</ele>
        <time>2026-06-20T06:10:13Z</time>
      </trkpt>
      <trkpt lat="47.26588" lon="-0.12739">
        <ele>69</ele>
        <time>2026-06-20T06:10:14Z</time>
      </trkpt>
      <trkpt lat="47.26588" lon="-0.12744">
        <ele>69</ele>
        <time>2026-06-20T06:10:15Z</time>
      </trkpt>
      <trkpt lat="47.26588" lon="-0.12747">
        <ele>69.2</ele>
        <time>2026-06-20T06:10:16Z</time>
      </trkpt>
      <trkpt lat="47.26588" lon="-0.12751">
        <ele>69.2</ele>
        <time>2026-06-20T06:10:17Z</time>
      </trkpt>
      <trkpt lat="47.26588" lon="-0.12756">
        <ele>69.4</ele>
        <time>2026-06-20T06:10:18Z</time>
      </trkpt>
      <trkpt lat="47.26588" lon="-0.1276">
        <ele>69.4</ele>
        <time>2026-06-20T06:10:19Z</time>
      </trkpt>
      <trkpt lat="47.26588" lon="-0.12766">
        <ele>69.6</ele>
        <time>2026-06-20T06:10:20Z</time>
      </trkpt>
      <trkpt lat="47.26588" lon="-0.1277">
        <ele>69.6</ele>
        <time>2026-06-20T06:10:21Z</time>
      </trkpt>
      <trkpt lat="47.26588" lon="-0.12774">
        <ele>69.6</ele>
        <time>2026-06-20T06:10:22Z</time>
      </trkpt>
      <trkpt lat="47.26587" lon="-0.12779">
        <ele>69.8</ele>
        <time>2026-06-20T06:10:23Z</time>
      </trkpt>
      <trkpt lat="47.26586" lon="-0.12782">
        <ele>69.8</ele>
        <time>2026-06-20T06:10:24Z</time>
      </trkpt>
      <trkpt lat="47.26584" lon="-0.12786">
        <ele>70</ele>
        <time>2026-06-20T06:10:25Z</time>
      </trkpt>
      <trkpt lat="47.26582" lon="-0.12789">
        <ele>70</ele>
        <time>2026-06-20T06:10:26Z</time>
      </trkpt>
      <trkpt lat="47.2658" lon="-0.12793">
        <ele>70.2</ele>
        <time>2026-06-20T06:10:27Z</time>
      </trkpt>
      <trkpt lat="47.26578" lon="-0.12796">
        <ele>70.4</ele>
        <time>2026-06-20T06:10:28Z</time>
      </trkpt>
      <trkpt lat="47.26576" lon="-0.128">
        <ele>70.4</ele>
        <time>2026-06-20T06:10:29Z</time>
      </trkpt>
      <trkpt lat="47.26575" lon="-0.12803">
        <ele>70.6</ele>
        <time>2026-06-20T06:10:30Z</time>
      </trkpt>
      <trkpt lat="47.26573" lon="-0.12806">
        <ele>71</ele>
        <time>2026-06-20T06:10:31Z</time>
      </trkpt>
      <trkpt lat="47.26572" lon="-0.12809">
        <ele>71.2</ele>
        <time>2026-06-20T06:10:32Z</time>
      </trkpt>
      <trkpt lat="47.26569" lon="-0.12811">
        <ele>71.2</ele>
        <time>2026-06-20T06:10:33Z</time>
      </trkpt>
      <trkpt lat="47.26568" lon="-0.12814">
        <ele>71.4</ele>
        <time>2026-06-20T06:10:34Z</time>
      </trkpt>
      <trkpt lat="47.26566" lon="-0.12817">
        <ele>71.6</ele>
        <time>2026-06-20T06:10:35Z</time>
      </trkpt>
      <trkpt lat="47.26564" lon="-0.12818">
        <ele>71.8</ele>
        <time>2026-06-20T06:10:36Z</time>
      </trkpt>
      <trkpt lat="47.26561" lon="-0.12821">
        <ele>72</ele>
        <time>2026-06-20T06:10:37Z</time>
      </trkpt>
      <trkpt lat="47.26559" lon="-0.12823">
        <ele>72.2</ele>
        <time>2026-06-20T06:10:38Z</time>
      </trkpt>
      <trkpt lat="47.26556" lon="-0.12824">
        <ele>72.4</ele>
        <time>2026-06-20T06:10:39Z</time>
      </trkpt>
      <trkpt lat="47.26553" lon="-0.12825">
        <ele>72.4</ele>
        <time>2026-06-20T06:10:40Z</time>
      </trkpt>
      <trkpt lat="47.26553" lon="-0.12825">
        <ele>72.6</ele>
        <time>2026-06-20T06:10:41Z</time>
      </trkpt>
      <trkpt lat="47.26551" lon="-0.12826">
        <ele>72.8</ele>
        <time>2026-06-20T06:10:42Z</time>
      </trkpt>
      <trkpt lat="47.26549" lon="-0.12825">
        <ele>72.8</ele>
        <time>2026-06-20T06:10:43Z</time>
      </trkpt>
      <trkpt lat="47.26546" lon="-0.12824">
        <ele>73</ele>
        <time>2026-06-20T06:10:44Z</time>
      </trkpt>
      <trkpt lat="47.26544" lon="-0.12822">
        <ele>73</ele>
        <time>2026-06-20T06:10:45Z</time>
      </trkpt>
      <trkpt lat="47.26542" lon="-0.1282">
        <ele>73</ele>
        <time>2026-06-20T06:10:46Z</time>
      </trkpt>
      <trkpt lat="47.26541" lon="-0.12817">
        <ele>73</ele>
        <time>2026-06-20T06:10:47Z</time>
      </trkpt>
      <trkpt lat="47.26541" lon="-0.12812">
        <ele>73</ele>
        <time>2026-06-20T06:10:48Z</time>
      </trkpt>
      <trkpt lat="47.2654" lon="-0.12808">
        <ele>73</ele>
        <time>2026-06-20T06:10:49Z</time>
      </trkpt>
      <trkpt lat="47.2654" lon="-0.12802">
        <ele>72.8</ele>
        <time>2026-06-20T06:10:50Z</time>
      </trkpt>
      <trkpt lat="47.26539" lon="-0.12797">
        <ele>72.8</ele>
        <time>2026-06-20T06:10:51Z</time>
      </trkpt>
      <trkpt lat="47.2654" lon="-0.12792">
        <ele>72.6</ele>
        <time>2026-06-20T06:10:52Z</time>
      </trkpt>
      <trkpt lat="47.2654" lon="-0.12788">
        <ele>72.4</ele>
        <time>2026-06-20T06:10:53Z</time>
      </trkpt>
      <trkpt lat="47.26539" lon="-0.12785">
        <ele>72.4</ele>
        <time>2026-06-20T06:10:54Z</time>
      </trkpt>
      <trkpt lat="47.26539" lon="-0.12781">
        <ele>72.4</ele>
        <time>2026-06-20T06:10:55Z</time>
      </trkpt>
      <trkpt lat="47.26538" lon="-0.12777">
        <ele>72.4</ele>
        <time>2026-06-20T06:10:56Z</time>
      </trkpt>
      <trkpt lat="47.26539" lon="-0.12774">
        <ele>72.4</ele>
        <time>2026-06-20T06:10:57Z</time>
      </trkpt>
      <trkpt lat="47.2654" lon="-0.1277">
        <ele>72.4</ele>
        <time>2026-06-20T06:10:58Z</time>
      </trkpt>
      <trkpt lat="47.26542" lon="-0.12767">
        <ele>72.4</ele>
        <time>2026-06-20T06:10:59Z</time>
      </trkpt>
      <trkpt lat="47.26544" lon="-0.12766">
        <ele>72.4</ele>
        <time>2026-06-20T06:11:00Z</time>
      </trkpt>
      <trkpt lat="47.26546" lon="-0.12764">
        <ele>72.6</ele>
        <time>2026-06-20T06:11:01Z</time>
      </trkpt>
      <trkpt lat="47.26548" lon="-0.1276">
        <ele>72.6</ele>
        <time>2026-06-20T06:11:02Z</time>
      </trkpt>
      <trkpt lat="47.26547" lon="-0.12756">
        <ele>72.4</ele>
        <time>2026-06-20T06:11:03Z</time>
      </trkpt>
      <trkpt lat="47.26545" lon="-0.12753">
        <ele>72.4</ele>
        <time>2026-06-20T06:11:04Z</time>
      </trkpt>
      <trkpt lat="47.26543" lon="-0.1275">
        <ele>72.4</ele>
        <time>2026-06-20T06:11:05Z</time>
      </trkpt>
      <trkpt lat="47.26541" lon="-0.12748">
        <ele>72.4</ele>
        <time>2026-06-20T06:11:06Z</time>
      </trkpt>
      <trkpt lat="47.26539" lon="-0.12746">
        <ele>72.2</ele>
        <time>2026-06-20T06:11:07Z</time>
      </trkpt>
      <trkpt lat="47.26536" lon="-0.12744">
        <ele>72.4</ele>
        <time>2026-06-20T06:11:08Z</time>
      </trkpt>
      <trkpt lat="47.26534" lon="-0.12743">
        <ele>72.4</ele>
        <time>2026-06-20T06:11:09Z</time>
      </trkpt>
      <trkpt lat="47.26533" lon="-0.12743">
        <ele>72.4</ele>
        <time>2026-06-20T06:11:10Z</time>
      </trkpt>
      <trkpt lat="47.2653" lon="-0.12744">
        <ele>72.4</ele>
        <time>2026-06-20T06:11:11Z</time>
      </trkpt>
      <trkpt lat="47.26526" lon="-0.12746">
        <ele>72.4</ele>
        <time>2026-06-20T06:11:12Z</time>
      </trkpt>
      <trkpt lat="47.26524" lon="-0.12748">
        <ele>72.4</ele>
        <time>2026-06-20T06:11:13Z</time>
      </trkpt>
      <trkpt lat="47.26522" lon="-0.1275">
        <ele>72.4</ele>
        <time>2026-06-20T06:11:14Z</time>
      </trkpt>
      <trkpt lat="47.2652" lon="-0.12751">
        <ele>72.6</ele>
        <time>2026-06-20T06:11:15Z</time>
      </trkpt>
      <trkpt lat="47.26519" lon="-0.12752">
        <ele>72.6</ele>
        <time>2026-06-20T06:11:16Z</time>
      </trkpt>
      <trkpt lat="47.26517" lon="-0.12752">
        <ele>72.8</ele>
        <time>2026-06-20T06:11:17Z</time>
      </trkpt>
      <trkpt lat="47.26514" lon="-0.12753">
        <ele>72.8</ele>
        <time>2026-06-20T06:11:18Z</time>
      </trkpt>
      <trkpt lat="47.26512" lon="-0.12754">
        <ele>73</ele>
        <time>2026-06-20T06:11:19Z</time>
      </trkpt>
      <trkpt lat="47.26511" lon="-0.12754">
        <ele>73</ele>
        <time>2026-06-20T06:11:20Z</time>
      </trkpt>
      <trkpt lat="47.2651" lon="-0.12754">
        <ele>73</ele>
        <time>2026-06-20T06:11:21Z</time>
      </trkpt>
      <trkpt lat="47.26509" lon="-0.12753">
        <ele>73.2</ele>
        <time>2026-06-20T06:11:22Z</time>
      </trkpt>
      <trkpt lat="47.26506" lon="-0.12752">
        <ele>73.2</ele>
        <time>2026-06-20T06:11:23Z</time>
      </trkpt>
      <trkpt lat="47.26503" lon="-0.12752">
        <ele>73.2</ele>
        <time>2026-06-20T06:11:24Z</time>
      </trkpt>
      <trkpt lat="47.265" lon="-0.12751">
        <ele>73.2</ele>
        <time>2026-06-20T06:11:25Z</time>
      </trkpt>
      <trkpt lat="47.26497" lon="-0.1275">
        <ele>73.2</ele>
        <time>2026-06-20T06:11:26Z</time>
      </trkpt>
      <trkpt lat="47.26495" lon="-0.1275">
        <ele>73.2</ele>
        <time>2026-06-20T06:11:27Z</time>
      </trkpt>
      <trkpt lat="47.26492" lon="-0.12749">
        <ele>73.2</ele>
        <time>2026-06-20T06:11:28Z</time>
      </trkpt>
      <trkpt lat="47.26489" lon="-0.1275">
        <ele>73.4</ele>
        <time>2026-06-20T06:11:29Z</time>
      </trkpt>
      <trkpt lat="47.26487" lon="-0.12752">
        <ele>73.4</ele>
        <time>2026-06-20T06:11:30Z</time>
      </trkpt>
      <trkpt lat="47.26484" lon="-0.12755">
        <ele>73.4</ele>
        <time>2026-06-20T06:11:31Z</time>
      </trkpt>
      <trkpt lat="47.26482" lon="-0.12757">
        <ele>73.4</ele>
        <time>2026-06-20T06:11:32Z</time>
      </trkpt>
      <trkpt lat="47.26479" lon="-0.12759">
        <ele>73.4</ele>
        <time>2026-06-20T06:11:33Z</time>
      </trkpt>
      <trkpt lat="47.26477" lon="-0.1276">
        <ele>73.4</ele>
        <time>2026-06-20T06:11:34Z</time>
      </trkpt>
      <trkpt lat="47.26475" lon="-0.12762">
        <ele>73.4</ele>
        <time>2026-06-20T06:11:35Z</time>
      </trkpt>
      <trkpt lat="47.26474" lon="-0.12764">
        <ele>73.6</ele>
        <time>2026-06-20T06:11:36Z</time>
      </trkpt>
      <trkpt lat="47.26473" lon="-0.12766">
        <ele>73.6</ele>
        <time>2026-06-20T06:11:37Z</time>
      </trkpt>
      <trkpt lat="47.26473" lon="-0.1277">
        <ele>73.6</ele>
        <time>2026-06-20T06:11:38Z</time>
      </trkpt>
      <trkpt lat="47.26472" lon="-0.12774">
        <ele>73.8</ele>
        <time>2026-06-20T06:11:39Z</time>
      </trkpt>
      <trkpt lat="47.26471" lon="-0.12777">
        <ele>73.8</ele>
        <time>2026-06-20T06:11:40Z</time>
      </trkpt>
      <trkpt lat="47.26469" lon="-0.12778">
        <ele>73.8</ele>
        <time>2026-06-20T06:11:41Z</time>
      </trkpt>
      <trkpt lat="47.26467" lon="-0.1278">
        <ele>74</ele>
        <time>2026-06-20T06:11:42Z</time>
      </trkpt>
      <trkpt lat="47.26464" lon="-0.12783">
        <ele>74</ele>
        <time>2026-06-20T06:11:43Z</time>
      </trkpt>
      <trkpt lat="47.26462" lon="-0.12784">
        <ele>74</ele>
        <time>2026-06-20T06:11:44Z</time>
      </trkpt>
      <trkpt lat="47.26459" lon="-0.12784">
        <ele>74</ele>
        <time>2026-06-20T06:11:45Z</time>
      </trkpt>
      <trkpt lat="47.26455" lon="-0.12784">
        <ele>74</ele>
        <time>2026-06-20T06:11:46Z</time>
      </trkpt>
      <trkpt lat="47.26452" lon="-0.12785">
        <ele>73.8</ele>
        <time>2026-06-20T06:11:47Z</time>
      </trkpt>
      <trkpt lat="47.26449" lon="-0.12787">
        <ele>73.6</ele>
        <time>2026-06-20T06:11:48Z</time>
      </trkpt>
      <trkpt lat="47.26447" lon="-0.12789">
        <ele>73.4</ele>
        <time>2026-06-20T06:11:49Z</time>
      </trkpt>
      <trkpt lat="47.26444" lon="-0.12792">
        <ele>73.2</ele>
        <time>2026-06-20T06:11:50Z</time>
      </trkpt>
      <trkpt lat="47.26442" lon="-0.12795">
        <ele>73</ele>
        <time>2026-06-20T06:11:51Z</time>
      </trkpt>
      <trkpt lat="47.2644" lon="-0.12797">
        <ele>73</ele>
        <time>2026-06-20T06:11:52Z</time>
      </trkpt>
      <trkpt lat="47.26437" lon="-0.12798">
        <ele>73</ele>
        <time>2026-06-20T06:11:53Z</time>
      </trkpt>
      <trkpt lat="47.26435" lon="-0.12798">
        <ele>73</ele>
        <time>2026-06-20T06:11:54Z</time>
      </trkpt>
      <trkpt lat="47.26432" lon="-0.12798">
        <ele>73.2</ele>
        <time>2026-06-20T06:11:55Z</time>
      </trkpt>
      <trkpt lat="47.2643" lon="-0.12796">
        <ele>73.2</ele>
        <time>2026-06-20T06:11:56Z</time>
      </trkpt>
      <trkpt lat="47.26427" lon="-0.12794">
        <ele>73.4</ele>
        <time>2026-06-20T06:11:57Z</time>
      </trkpt>
      <trkpt lat="47.26423" lon="-0.12792">
        <ele>73.4</ele>
        <time>2026-06-20T06:11:58Z</time>
      </trkpt>
      <trkpt lat="47.2642" lon="-0.12789">
        <ele>73.2</ele>
        <time>2026-06-20T06:11:59Z</time>
      </trkpt>
      <trkpt lat="47.26416" lon="-0.12786">
        <ele>73</ele>
        <time>2026-06-20T06:12:00Z</time>
      </trkpt>
      <trkpt lat="47.26413" lon="-0.12784">
        <ele>72.8</ele>
        <time>2026-06-20T06:12:01Z</time>
      </trkpt>
      <trkpt lat="47.2641" lon="-0.12783">
        <ele>72.2</ele>
        <time>2026-06-20T06:12:02Z</time>
      </trkpt>
      <trkpt lat="47.26407" lon="-0.12779">
        <ele>71.6</ele>
        <time>2026-06-20T06:12:03Z</time>
      </trkpt>
      <trkpt lat="47.26405" lon="-0.12776">
        <ele>71</ele>
        <time>2026-06-20T06:12:04Z</time>
      </trkpt>
      <trkpt lat="47.26403" lon="-0.12775">
        <ele>70.6</ele>
        <time>2026-06-20T06:12:05Z</time>
      </trkpt>
      <trkpt lat="47.26401" lon="-0.12776">
        <ele>70</ele>
        <time>2026-06-20T06:12:06Z</time>
      </trkpt>
      <trkpt lat="47.26398" lon="-0.12777">
        <ele>69.8</ele>
        <time>2026-06-20T06:12:07Z</time>
      </trkpt>
      <trkpt lat="47.26396" lon="-0.12776">
        <ele>69.4</ele>
        <time>2026-06-20T06:12:08Z</time>
      </trkpt>
      <trkpt lat="47.26393" lon="-0.12774">
        <ele>69</ele>
        <time>2026-06-20T06:12:09Z</time>
      </trkpt>
      <trkpt lat="47.2639" lon="-0.12772">
        <ele>68.6</ele>
        <time>2026-06-20T06:12:10Z</time>
      </trkpt>
      <trkpt lat="47.26387" lon="-0.1277">
        <ele>68.4</ele>
        <time>2026-06-20T06:12:11Z</time>
      </trkpt>
      <trkpt lat="47.26385" lon="-0.12767">
        <ele>68.2</ele>
        <time>2026-06-20T06:12:12Z</time>
      </trkpt>
      <trkpt lat="47.26383" lon="-0.12763">
        <ele>68</ele>
        <time>2026-06-20T06:12:13Z</time>
      </trkpt>
      <trkpt lat="47.26382" lon="-0.12758">
        <ele>67.8</ele>
        <time>2026-06-20T06:12:14Z</time>
      </trkpt>
      <trkpt lat="47.26382" lon="-0.12753">
        <ele>67.6</ele>
        <time>2026-06-20T06:12:15Z</time>
      </trkpt>
      <trkpt lat="47.2638" lon="-0.1275">
        <ele>67.2</ele>
        <time>2026-06-20T06:12:16Z</time>
      </trkpt>
      <trkpt lat="47.26378" lon="-0.12747">
        <ele>66.8</ele>
        <time>2026-06-20T06:12:17Z</time>
      </trkpt>
      <trkpt lat="47.26374" lon="-0.12745">
        <ele>66.6</ele>
        <time>2026-06-20T06:12:18Z</time>
      </trkpt>
      <trkpt lat="47.26371" lon="-0.12744">
        <ele>66.2</ele>
        <time>2026-06-20T06:12:19Z</time>
      </trkpt>
      <trkpt lat="47.26368" lon="-0.12742">
        <ele>65.8</ele>
        <time>2026-06-20T06:12:20Z</time>
      </trkpt>
      <trkpt lat="47.26365" lon="-0.12741">
        <ele>65.4</ele>
        <time>2026-06-20T06:12:21Z</time>
      </trkpt>
      <trkpt lat="47.26364" lon="-0.1274">
        <ele>65.2</ele>
        <time>2026-06-20T06:12:22Z</time>
      </trkpt>
      <trkpt lat="47.26362" lon="-0.12741">
        <ele>65</ele>
        <time>2026-06-20T06:12:23Z</time>
      </trkpt>
      <trkpt lat="47.26361" lon="-0.12744">
        <ele>65.2</ele>
        <time>2026-06-20T06:12:24Z</time>
      </trkpt>
      <trkpt lat="47.26361" lon="-0.12747">
        <ele>65.2</ele>
        <time>2026-06-20T06:12:25Z</time>
      </trkpt>
      <trkpt lat="47.26361" lon="-0.12751">
        <ele>65.4</ele>
        <time>2026-06-20T06:12:26Z</time>
      </trkpt>
      <trkpt lat="47.26361" lon="-0.12754">
        <ele>65.4</ele>
        <time>2026-06-20T06:12:27Z</time>
      </trkpt>
      <trkpt lat="47.2636" lon="-0.12758">
        <ele>65.6</ele>
        <time>2026-06-20T06:12:28Z</time>
      </trkpt>
      <trkpt lat="47.2636" lon="-0.12762">
        <ele>65.8</ele>
        <time>2026-06-20T06:12:29Z</time>
      </trkpt>
      <trkpt lat="47.2636" lon="-0.12766">
        <ele>66</ele>
        <time>2026-06-20T06:12:30Z</time>
      </trkpt>
      <trkpt lat="47.2636" lon="-0.12769">
        <ele>66.2</ele>
        <time>2026-06-20T06:12:31Z</time>
      </trkpt>
      <trkpt lat="47.26362" lon="-0.12772">
        <ele>66.4</ele>
        <time>2026-06-20T06:12:32Z</time>
      </trkpt>
      <trkpt lat="47.26364" lon="-0.12774">
        <ele>66.4</ele>
        <time>2026-06-20T06:12:33Z</time>
      </trkpt>
      <trkpt lat="47.26365" lon="-0.12776">
        <ele>66.6</ele>
        <time>2026-06-20T06:12:34Z</time>
      </trkpt>
      <trkpt lat="47.26367" lon="-0.12778">
        <ele>66.8</ele>
        <time>2026-06-20T06:12:35Z</time>
      </trkpt>
      <trkpt lat="47.26369" lon="-0.12779">
        <ele>66.8</ele>
        <time>2026-06-20T06:12:36Z</time>
      </trkpt>
      <trkpt lat="47.26371" lon="-0.12779">
        <ele>66.8</ele>
        <time>2026-06-20T06:12:37Z</time>
      </trkpt>
      <trkpt lat="47.26373" lon="-0.12779">
        <ele>67</ele>
        <time>2026-06-20T06:12:38Z</time>
      </trkpt>
      <trkpt lat="47.26375" lon="-0.1278">
        <ele>67</ele>
        <time>2026-06-20T06:12:39Z</time>
      </trkpt>
      <trkpt lat="47.26377" lon="-0.12782">
        <ele>67</ele>
        <time>2026-06-20T06:12:40Z</time>
      </trkpt>
      <trkpt lat="47.26379" lon="-0.12784">
        <ele>67.4</ele>
        <time>2026-06-20T06:12:41Z</time>
      </trkpt>
      <trkpt lat="47.26381" lon="-0.12787">
        <ele>67.6</ele>
        <time>2026-06-20T06:12:42Z</time>
      </trkpt>
      <trkpt lat="47.26383" lon="-0.1279">
        <ele>67.8</ele>
        <time>2026-06-20T06:12:43Z</time>
      </trkpt>
      <trkpt lat="47.26385" lon="-0.12792">
        <ele>68</ele>
        <time>2026-06-20T06:12:44Z</time>
      </trkpt>
      <trkpt lat="47.26387" lon="-0.12795">
        <ele>68.4</ele>
        <time>2026-06-20T06:12:45Z</time>
      </trkpt>
      <trkpt lat="47.2639" lon="-0.12797">
        <ele>68.6</ele>
        <time>2026-06-20T06:12:46Z</time>
      </trkpt>
      <trkpt lat="47.26392" lon="-0.12799">
        <ele>69</ele>
        <time>2026-06-20T06:12:47Z</time>
      </trkpt>
      <trkpt lat="47.26394" lon="-0.12801">
        <ele>69.2</ele>
        <time>2026-06-20T06:12:48Z</time>
      </trkpt>
      <trkpt lat="47.26396" lon="-0.12804">
        <ele>69.6</ele>
        <time>2026-06-20T06:12:49Z</time>
      </trkpt>
      <trkpt lat="47.26398" lon="-0.12806">
        <ele>69.8</ele>
        <time>2026-06-20T06:12:50Z</time>
      </trkpt>
      <trkpt lat="47.264" lon="-0.12808">
        <ele>70</ele>
        <time>2026-06-20T06:12:51Z</time>
      </trkpt>
      <trkpt lat="47.26402" lon="-0.1281">
        <ele>70.2</ele>
        <time>2026-06-20T06:12:52Z</time>
      </trkpt>
      <trkpt lat="47.26404" lon="-0.12812">
        <ele>70.6</ele>
        <time>2026-06-20T06:12:53Z</time>
      </trkpt>
      <trkpt lat="47.26406" lon="-0.12814">
        <ele>70.8</ele>
        <time>2026-06-20T06:12:54Z</time>
      </trkpt>
      <trkpt lat="47.26408" lon="-0.12816">
        <ele>71</ele>
        <time>2026-06-20T06:12:55Z</time>
      </trkpt>
      <trkpt lat="47.2641" lon="-0.12819">
        <ele>71.2</ele>
        <time>2026-06-20T06:12:56Z</time>
      </trkpt>
      <trkpt lat="47.26412" lon="-0.12821">
        <ele>71.4</ele>
        <time>2026-06-20T06:12:57Z</time>
      </trkpt>
      <trkpt lat="47.26414" lon="-0.12822">
        <ele>71.6</ele>
        <time>2026-06-20T06:12:58Z</time>
      </trkpt>
      <trkpt lat="47.26416" lon="-0.12824">
        <ele>71.8</ele>
        <time>2026-06-20T06:12:59Z</time>
      </trkpt>
      <trkpt lat="47.26418" lon="-0.12826">
        <ele>71.8</ele>
        <time>2026-06-20T06:13:00Z</time>
      </trkpt>
      <trkpt lat="47.2642" lon="-0.12828">
        <ele>72</ele>
        <time>2026-06-20T06:13:01Z</time>
      </trkpt>
      <trkpt lat="47.26421" lon="-0.1283">
        <ele>72.2</ele>
        <time>2026-06-20T06:13:02Z</time>
      </trkpt>
      <trkpt lat="47.26423" lon="-0.12832">
        <ele>72.2</ele>
        <time>2026-06-20T06:13:03Z</time>
      </trkpt>
      <trkpt lat="47.26425" lon="-0.12834">
        <ele>72.4</ele>
        <time>2026-06-20T06:13:04Z</time>
      </trkpt>
      <trkpt lat="47.26427" lon="-0.12837">
        <ele>72.6</ele>
        <time>2026-06-20T06:13:05Z</time>
      </trkpt>
      <trkpt lat="47.26429" lon="-0.12838">
        <ele>72.8</ele>
        <time>2026-06-20T06:13:06Z</time>
      </trkpt>
      <trkpt lat="47.26431" lon="-0.1284">
        <ele>72.8</ele>
        <time>2026-06-20T06:13:07Z</time>
      </trkpt>
      <trkpt lat="47.26434" lon="-0.1284">
        <ele>73</ele>
        <time>2026-06-20T06:13:08Z</time>
      </trkpt>
      <trkpt lat="47.26435" lon="-0.12838">
        <ele>73.2</ele>
        <time>2026-06-20T06:13:09Z</time>
      </trkpt>
      <trkpt lat="47.26437" lon="-0.12836">
        <ele>73.2</ele>
        <time>2026-06-20T06:13:10Z</time>
      </trkpt>
      <trkpt lat="47.26439" lon="-0.12835">
        <ele>73.4</ele>
        <time>2026-06-20T06:13:11Z</time>
      </trkpt>
      <trkpt lat="47.26441" lon="-0.12834">
        <ele>73.6</ele>
        <time>2026-06-20T06:13:12Z</time>
      </trkpt>
      <trkpt lat="47.26443" lon="-0.12834">
        <ele>73.6</ele>
        <time>2026-06-20T06:13:13Z</time>
      </trkpt>
      <trkpt lat="47.26445" lon="-0.12832">
        <ele>73.6</ele>
        <time>2026-06-20T06:13:14Z</time>
      </trkpt>
      <trkpt lat="47.26448" lon="-0.1283">
        <ele>73.6</ele>
        <time>2026-06-20T06:13:15Z</time>
      </trkpt>
      <trkpt lat="47.2645" lon="-0.12828">
        <ele>73.6</ele>
        <time>2026-06-20T06:13:16Z</time>
      </trkpt>
      <trkpt lat="47.26453" lon="-0.12826">
        <ele>73.6</ele>
        <time>2026-06-20T06:13:17Z</time>
      </trkpt>
      <trkpt lat="47.26455" lon="-0.12823">
        <ele>73.4</ele>
        <time>2026-06-20T06:13:18Z</time>
      </trkpt>
      <trkpt lat="47.26457" lon="-0.12821">
        <ele>73.4</ele>
        <time>2026-06-20T06:13:19Z</time>
      </trkpt>
      <trkpt lat="47.26459" lon="-0.12819">
        <ele>73.2</ele>
        <time>2026-06-20T06:13:20Z</time>
      </trkpt>
      <trkpt lat="47.26462" lon="-0.12818">
        <ele>73.2</ele>
        <time>2026-06-20T06:13:21Z</time>
      </trkpt>
      <trkpt lat="47.26464" lon="-0.12816">
        <ele>73.2</ele>
        <time>2026-06-20T06:13:22Z</time>
      </trkpt>
      <trkpt lat="47.26466" lon="-0.12815">
        <ele>73.2</ele>
        <time>2026-06-20T06:13:23Z</time>
      </trkpt>
      <trkpt lat="47.26469" lon="-0.12813">
        <ele>73.4</ele>
        <time>2026-06-20T06:13:24Z</time>
      </trkpt>
      <trkpt lat="47.26471" lon="-0.12812">
        <ele>73.4</ele>
        <time>2026-06-20T06:13:25Z</time>
      </trkpt>
      <trkpt lat="47.26473" lon="-0.1281">
        <ele>73.6</ele>
        <time>2026-06-20T06:13:26Z</time>
      </trkpt>
      <trkpt lat="47.26475" lon="-0.12807">
        <ele>73.6</ele>
        <time>2026-06-20T06:13:27Z</time>
      </trkpt>
      <trkpt lat="47.26478" lon="-0.12805">
        <ele>73.6</ele>
        <time>2026-06-20T06:13:28Z</time>
      </trkpt>
      <trkpt lat="47.2648" lon="-0.12804">
        <ele>73.6</ele>
        <time>2026-06-20T06:13:29Z</time>
      </trkpt>
      <trkpt lat="47.26484" lon="-0.12803">
        <ele>73.6</ele>
        <time>2026-06-20T06:13:30Z</time>
      </trkpt>
      <trkpt lat="47.26487" lon="-0.12803">
        <ele>73.6</ele>
        <time>2026-06-20T06:13:31Z</time>
      </trkpt>
      <trkpt lat="47.2649" lon="-0.12805">
        <ele>73.4</ele>
        <time>2026-06-20T06:13:32Z</time>
      </trkpt>
      <trkpt lat="47.26492" lon="-0.12807">
        <ele>73.4</ele>
        <time>2026-06-20T06:13:33Z</time>
      </trkpt>
      <trkpt lat="47.26494" lon="-0.1281">
        <ele>73.4</ele>
        <time>2026-06-20T06:13:34Z</time>
      </trkpt>
      <trkpt lat="47.26497" lon="-0.12813">
        <ele>73.4</ele>
        <time>2026-06-20T06:13:35Z</time>
      </trkpt>
      <trkpt lat="47.26502" lon="-0.12814">
        <ele>73.2</ele>
        <time>2026-06-20T06:13:36Z</time>
      </trkpt>
      <trkpt lat="47.26506" lon="-0.12816">
        <ele>73</ele>
        <time>2026-06-20T06:13:37Z</time>
      </trkpt>
      <trkpt lat="47.26509" lon="-0.12818">
        <ele>72.8</ele>
        <time>2026-06-20T06:13:38Z</time>
      </trkpt>
      <trkpt lat="47.2651" lon="-0.12818">
        <ele>72.8</ele>
        <time>2026-06-20T06:13:39Z</time>
      </trkpt>
      <trkpt lat="47.2651" lon="-0.12818">
        <ele>73</ele>
        <time>2026-06-20T06:13:40Z</time>
      </trkpt>
      <trkpt lat="47.26512" lon="-0.12824">
        <ele>73.2</ele>
        <time>2026-06-20T06:13:49Z</time>
      </trkpt>
      <trkpt lat="47.26513" lon="-0.12826">
        <ele>73.2</ele>
        <time>2026-06-20T06:13:50Z</time>
      </trkpt>
      <trkpt lat="47.26514" lon="-0.12828">
        <ele>73.2</ele>
        <time>2026-06-20T06:13:51Z</time>
      </trkpt>
      <trkpt lat="47.26516" lon="-0.1283">
        <ele>73.2</ele>
        <time>2026-06-20T06:13:52Z</time>
      </trkpt>
      <trkpt lat="47.26518" lon="-0.12833">
        <ele>73.2</ele>
        <time>2026-06-20T06:13:53Z</time>
      </trkpt>
      <trkpt lat="47.2652" lon="-0.12836">
        <ele>73.2</ele>
        <time>2026-06-20T06:13:54Z</time>
      </trkpt>
      <trkpt lat="47.2652" lon="-0.12837">
        <ele>73.2</ele>
        <time>2026-06-20T06:13:55Z</time>
      </trkpt>
      <trkpt lat="47.2652" lon="-0.12838">
        <ele>73.2</ele>
        <time>2026-06-20T06:13:56Z</time>
      </trkpt>
      <trkpt lat="47.26518" lon="-0.1284">
        <ele>73.2</ele>
        <time>2026-06-20T06:13:57Z</time>
      </trkpt>
      <trkpt lat="47.26515" lon="-0.12842">
        <ele>73</ele>
        <time>2026-06-20T06:13:58Z</time>
      </trkpt>
      <trkpt lat="47.26513" lon="-0.12844">
        <ele>73</ele>
        <time>2026-06-20T06:13:59Z</time>
      </trkpt>
      <trkpt lat="47.26511" lon="-0.12846">
        <ele>73</ele>
        <time>2026-06-20T06:14:00Z</time>
      </trkpt>
      <trkpt lat="47.26508" lon="-0.12849">
        <ele>73</ele>
        <time>2026-06-20T06:14:01Z</time>
      </trkpt>
      <trkpt lat="47.26506" lon="-0.12851">
        <ele>73</ele>
        <time>2026-06-20T06:14:02Z</time>
      </trkpt>
      <trkpt lat="47.26504" lon="-0.12855">
        <ele>73</ele>
        <time>2026-06-20T06:14:03Z</time>
      </trkpt>
      <trkpt lat="47.26502" lon="-0.12858">
        <ele>73</ele>
        <time>2026-06-20T06:14:04Z</time>
      </trkpt>
      <trkpt lat="47.26499" lon="-0.12859">
        <ele>73</ele>
        <time>2026-06-20T06:14:05Z</time>
      </trkpt>
      <trkpt lat="47.26495" lon="-0.12861">
        <ele>72.8</ele>
        <time>2026-06-20T06:14:06Z</time>
      </trkpt>
      <trkpt lat="47.26492" lon="-0.12862">
        <ele>72.8</ele>
        <time>2026-06-20T06:14:07Z</time>
      </trkpt>
      <trkpt lat="47.26489" lon="-0.12862">
        <ele>72.8</ele>
        <time>2026-06-20T06:14:08Z</time>
      </trkpt>
      <trkpt lat="47.26488" lon="-0.12863">
        <ele>72.8</ele>
        <time>2026-06-20T06:14:09Z</time>
      </trkpt>
      <trkpt lat="47.26487" lon="-0.12866">
        <ele>73</ele>
        <time>2026-06-20T06:14:10Z</time>
      </trkpt>
      <trkpt lat="47.26487" lon="-0.1287">
        <ele>73</ele>
        <time>2026-06-20T06:14:11Z</time>
      </trkpt>
      <trkpt lat="47.26487" lon="-0.12874">
        <ele>73.2</ele>
        <time>2026-06-20T06:14:12Z</time>
      </trkpt>
      <trkpt lat="47.26487" lon="-0.12879">
        <ele>73.2</ele>
        <time>2026-06-20T06:14:13Z</time>
      </trkpt>
      <trkpt lat="47.26488" lon="-0.12885">
        <ele>73.2</ele>
        <time>2026-06-20T06:14:14Z</time>
      </trkpt>
      <trkpt lat="47.26489" lon="-0.12889">
        <ele>73.2</ele>
        <time>2026-06-20T06:14:15Z</time>
      </trkpt>
      <trkpt lat="47.26491" lon="-0.12893">
        <ele>73.2</ele>
        <time>2026-06-20T06:14:16Z</time>
      </trkpt>
      <trkpt lat="47.26494" lon="-0.12896">
        <ele>73.2</ele>
        <time>2026-06-20T06:14:17Z</time>
      </trkpt>
      <trkpt lat="47.26495" lon="-0.12901">
        <ele>73.2</ele>
        <time>2026-06-20T06:14:18Z</time>
      </trkpt>
      <trkpt lat="47.26496" lon="-0.12905">
        <ele>73.2</ele>
        <time>2026-06-20T06:14:19Z</time>
      </trkpt>
      <trkpt lat="47.26499" lon="-0.12908">
        <ele>73.2</ele>
        <time>2026-06-20T06:14:20Z</time>
      </trkpt>
      <trkpt lat="47.26502" lon="-0.1291">
        <ele>73.4</ele>
        <time>2026-06-20T06:14:21Z</time>
      </trkpt>
      <trkpt lat="47.26503" lon="-0.12911">
        <ele>73.4</ele>
        <time>2026-06-20T06:14:22Z</time>
      </trkpt>
      <trkpt lat="47.26504" lon="-0.12913">
        <ele>73.4</ele>
        <time>2026-06-20T06:14:23Z</time>
      </trkpt>
      <trkpt lat="47.26505" lon="-0.12917">
        <ele>73.4</ele>
        <time>2026-06-20T06:14:24Z</time>
      </trkpt>
      <trkpt lat="47.26506" lon="-0.1292">
        <ele>73.6</ele>
        <time>2026-06-20T06:14:25Z</time>
      </trkpt>
      <trkpt lat="47.26508" lon="-0.12921">
        <ele>73.8</ele>
        <time>2026-06-20T06:14:26Z</time>
      </trkpt>
      <trkpt lat="47.2651" lon="-0.12922">
        <ele>73.8</ele>
        <time>2026-06-20T06:14:27Z</time>
      </trkpt>
      <trkpt lat="47.26512" lon="-0.12921">
        <ele>74</ele>
        <time>2026-06-20T06:14:28Z</time>
      </trkpt>
      <trkpt lat="47.26514" lon="-0.1292">
        <ele>74</ele>
        <time>2026-06-20T06:14:29Z</time>
      </trkpt>
      <trkpt lat="47.26517" lon="-0.12918">
        <ele>74</ele>
        <time>2026-06-20T06:14:30Z</time>
      </trkpt>
      <trkpt lat="47.26519" lon="-0.12917">
        <ele>74</ele>
        <time>2026-06-20T06:14:31Z</time>
      </trkpt>
      <trkpt lat="47.26523" lon="-0.12915">
        <ele>74</ele>
        <time>2026-06-20T06:14:32Z</time>
      </trkpt>
      <trkpt lat="47.26527" lon="-0.12914">
        <ele>74</ele>
        <time>2026-06-20T06:14:33Z</time>
      </trkpt>
      <trkpt lat="47.26531" lon="-0.12913">
        <ele>74</ele>
        <time>2026-06-20T06:14:34Z</time>
      </trkpt>
      <trkpt lat="47.26534" lon="-0.12913">
        <ele>74</ele>
        <time>2026-06-20T06:14:35Z</time>
      </trkpt>
      <trkpt lat="47.26538" lon="-0.12913">
        <ele>73.8</ele>
        <time>2026-06-20T06:14:36Z</time>
      </trkpt>
      <trkpt lat="47.26541" lon="-0.12912">
        <ele>73.8</ele>
        <time>2026-06-20T06:14:37Z</time>
      </trkpt>
      <trkpt lat="47.26544" lon="-0.1291">
        <ele>73.6</ele>
        <time>2026-06-20T06:14:38Z</time>
      </trkpt>
      <trkpt lat="47.26547" lon="-0.12911">
        <ele>73.4</ele>
        <time>2026-06-20T06:14:39Z</time>
      </trkpt>
      <trkpt lat="47.2655" lon="-0.12912">
        <ele>73.2</ele>
        <time>2026-06-20T06:14:40Z</time>
      </trkpt>
      <trkpt lat="47.26554" lon="-0.12915">
        <ele>73</ele>
        <time>2026-06-20T06:14:41Z</time>
      </trkpt>
      <trkpt lat="47.26556" lon="-0.12918">
        <ele>72.8</ele>
        <time>2026-06-20T06:14:42Z</time>
      </trkpt>
      <trkpt lat="47.26557" lon="-0.1292">
        <ele>72.6</ele>
        <time>2026-06-20T06:14:43Z</time>
      </trkpt>
      <trkpt lat="47.26558" lon="-0.12925">
        <ele>72.2</ele>
        <time>2026-06-20T06:14:44Z</time>
      </trkpt>
      <trkpt lat="47.26559" lon="-0.12931">
        <ele>72.2</ele>
        <time>2026-06-20T06:14:45Z</time>
      </trkpt>
      <trkpt lat="47.26561" lon="-0.12936">
        <ele>72</ele>
        <time>2026-06-20T06:14:46Z</time>
      </trkpt>
      <trkpt lat="47.26564" lon="-0.12941">
        <ele>72</ele>
        <time>2026-06-20T06:14:47Z</time>
      </trkpt>
      <trkpt lat="47.26568" lon="-0.12946">
        <ele>71.8</ele>
        <time>2026-06-20T06:14:48Z</time>
      </trkpt>
      <trkpt lat="47.26571" lon="-0.12951">
        <ele>71.6</ele>
        <time>2026-06-20T06:14:49Z</time>
      </trkpt>
      <trkpt lat="47.26574" lon="-0.12957">
        <ele>71.4</ele>
        <time>2026-06-20T06:14:50Z</time>
      </trkpt>
      <trkpt lat="47.26578" lon="-0.12963">
        <ele>71</ele>
        <time>2026-06-20T06:14:51Z</time>
      </trkpt>
      <trkpt lat="47.26581" lon="-0.12971">
        <ele>70.8</ele>
        <time>2026-06-20T06:14:52Z</time>
      </trkpt>
      <trkpt lat="47.26585" lon="-0.12978">
        <ele>70.6</ele>
        <time>2026-06-20T06:14:53Z</time>
      </trkpt>
      <trkpt lat="47.2659" lon="-0.12983">
        <ele>70.2</ele>
        <time>2026-06-20T06:14:54Z</time>
      </trkpt>
      <trkpt lat="47.26594" lon="-0.12987">
        <ele>69.8</ele>
        <time>2026-06-20T06:14:55Z</time>
      </trkpt>
      <trkpt lat="47.26599" lon="-0.12992">
        <ele>69.4</ele>
        <time>2026-06-20T06:14:56Z</time>
      </trkpt>
      <trkpt lat="47.26603" lon="-0.12998">
        <ele>69.2</ele>
        <time>2026-06-20T06:14:57Z</time>
      </trkpt>
      <trkpt lat="47.26606" lon="-0.13003">
        <ele>69</ele>
        <time>2026-06-20T06:14:58Z</time>
      </trkpt>
      <trkpt lat="47.2661" lon="-0.13009">
        <ele>68.8</ele>
        <time>2026-06-20T06:14:59Z</time>
      </trkpt>
      <trkpt lat="47.26614" lon="-0.13015">
        <ele>68.8</ele>
        <time>2026-06-20T06:15:00Z</time>
      </trkpt>
      <trkpt lat="47.26618" lon="-0.1302">
        <ele>69</ele>
        <time>2026-06-20T06:15:01Z</time>
      </trkpt>
      <trkpt lat="47.26622" lon="-0.13026">
        <ele>69</ele>
        <time>2026-06-20T06:15:02Z</time>
      </trkpt>
      <trkpt lat="47.26624" lon="-0.13032">
        <ele>69</ele>
        <time>2026-06-20T06:15:03Z</time>
      </trkpt>
      <trkpt lat="47.26627" lon="-0.13039">
        <ele>69.2</ele>
        <time>2026-06-20T06:15:04Z</time>
      </trkpt>
      <trkpt lat="47.26628" lon="-0.13045">
        <ele>69.2</ele>
        <time>2026-06-20T06:15:05Z</time>
      </trkpt>
      <trkpt lat="47.2663" lon="-0.13051">
        <ele>69.2</ele>
        <time>2026-06-20T06:15:06Z</time>
      </trkpt>
      <trkpt lat="47.2663" lon="-0.13055">
        <ele>69.4</ele>
        <time>2026-06-20T06:15:07Z</time>
      </trkpt>
      <trkpt lat="47.26629" lon="-0.13059">
        <ele>69.4</ele>
        <time>2026-06-20T06:15:08Z</time>
      </trkpt>
      <trkpt lat="47.2663" lon="-0.13062">
        <ele>69.6</ele>
        <time>2026-06-20T06:15:09Z</time>
      </trkpt>
      <trkpt lat="47.26632" lon="-0.13065">
        <ele>69.8</ele>
        <time>2026-06-20T06:15:10Z</time>
      </trkpt>
      <trkpt lat="47.26635" lon="-0.13068">
        <ele>69.8</ele>
        <time>2026-06-20T06:15:11Z</time>
      </trkpt>
      <trkpt lat="47.26639" lon="-0.13069">
        <ele>69.8</ele>
        <time>2026-06-20T06:15:12Z</time>
      </trkpt>
      <trkpt lat="47.26643" lon="-0.13072">
        <ele>69.8</ele>
        <time>2026-06-20T06:15:13Z</time>
      </trkpt>
      <trkpt lat="47.26645" lon="-0.13077">
        <ele>69.6</ele>
        <time>2026-06-20T06:15:14Z</time>
      </trkpt>
      <trkpt lat="47.26647" lon="-0.13083">
        <ele>69.6</ele>
        <time>2026-06-20T06:15:15Z</time>
      </trkpt>
      <trkpt lat="47.26647" lon="-0.13089">
        <ele>69.8</ele>
        <time>2026-06-20T06:15:16Z</time>
      </trkpt>
      <trkpt lat="47.26648" lon="-0.13093">
        <ele>70</ele>
        <time>2026-06-20T06:15:17Z</time>
      </trkpt>
      <trkpt lat="47.2665" lon="-0.13097">
        <ele>70.4</ele>
        <time>2026-06-20T06:15:18Z</time>
      </trkpt>
      <trkpt lat="47.26652" lon="-0.131">
        <ele>70.6</ele>
        <time>2026-06-20T06:15:19Z</time>
      </trkpt>
      <trkpt lat="47.26653" lon="-0.13104">
        <ele>71</ele>
        <time>2026-06-20T06:15:20Z</time>
      </trkpt>
      <trkpt lat="47.26655" lon="-0.13108">
        <ele>71.2</ele>
        <time>2026-06-20T06:15:21Z</time>
      </trkpt>
      <trkpt lat="47.26656" lon="-0.13112">
        <ele>71.6</ele>
        <time>2026-06-20T06:15:22Z</time>
      </trkpt>
      <trkpt lat="47.26658" lon="-0.13116">
        <ele>71.8</ele>
        <time>2026-06-20T06:15:23Z</time>
      </trkpt>
      <trkpt lat="47.26659" lon="-0.1312">
        <ele>72.2</ele>
        <time>2026-06-20T06:15:24Z</time>
      </trkpt>
      <trkpt lat="47.26659" lon="-0.13124">
        <ele>72.4</ele>
        <time>2026-06-20T06:15:25Z</time>
      </trkpt>
      <trkpt lat="47.26659" lon="-0.13128">
        <ele>72.6</ele>
        <time>2026-06-20T06:15:26Z</time>
      </trkpt>
      <trkpt lat="47.26659" lon="-0.13132">
        <ele>72.8</ele>
        <time>2026-06-20T06:15:27Z</time>
      </trkpt>
      <trkpt lat="47.2666" lon="-0.13136">
        <ele>73</ele>
        <time>2026-06-20T06:15:28Z</time>
      </trkpt>
      <trkpt lat="47.26661" lon="-0.1314">
        <ele>73.2</ele>
        <time>2026-06-20T06:15:29Z</time>
      </trkpt>
      <trkpt lat="47.26661" lon="-0.13144">
        <ele>73.4</ele>
        <time>2026-06-20T06:15:30Z</time>
      </trkpt>
      <trkpt lat="47.2666" lon="-0.13147">
        <ele>73.6</ele>
        <time>2026-06-20T06:15:31Z</time>
      </trkpt>
      <trkpt lat="47.26658" lon="-0.1315">
        <ele>73.6</ele>
        <time>2026-06-20T06:15:32Z</time>
      </trkpt>
      <trkpt lat="47.26657" lon="-0.13153">
        <ele>73.8</ele>
        <time>2026-06-20T06:15:33Z</time>
      </trkpt>
      <trkpt lat="47.26656" lon="-0.13156">
        <ele>74</ele>
        <time>2026-06-20T06:15:34Z</time>
      </trkpt>
      <trkpt lat="47.26656" lon="-0.1316">
        <ele>74</ele>
        <time>2026-06-20T06:15:35Z</time>
      </trkpt>
      <trkpt lat="47.26655" lon="-0.13165">
        <ele>74</ele>
        <time>2026-06-20T06:15:36Z</time>
      </trkpt>
      <trkpt lat="47.26655" lon="-0.13169">
        <ele>74</ele>
        <time>2026-06-20T06:15:37Z</time>
      </trkpt>
      <trkpt lat="47.26655" lon="-0.13173">
        <ele>74.2</ele>
        <time>2026-06-20T06:15:38Z</time>
      </trkpt>
      <trkpt lat="47.26656" lon="-0.13177">
        <ele>74.2</ele>
        <time>2026-06-20T06:15:39Z</time>
      </trkpt>
      <trkpt lat="47.26657" lon="-0.13181">
        <ele>74</ele>
        <time>2026-06-20T06:15:40Z</time>
      </trkpt>
      <trkpt lat="47.26657" lon="-0.13186">
        <ele>74</ele>
        <time>2026-06-20T06:15:41Z</time>
      </trkpt>
      <trkpt lat="47.26656" lon="-0.1319">
        <ele>74</ele>
        <time>2026-06-20T06:15:42Z</time>
      </trkpt>
      <trkpt lat="47.26655" lon="-0.13195">
        <ele>74</ele>
        <time>2026-06-20T06:15:43Z</time>
      </trkpt>
      <trkpt lat="47.26654" lon="-0.13198">
        <ele>74</ele>
        <time>2026-06-20T06:15:44Z</time>
      </trkpt>
      <trkpt lat="47.26654" lon="-0.13203">
        <ele>74</ele>
        <time>2026-06-20T06:15:45Z</time>
      </trkpt>
      <trkpt lat="47.26654" lon="-0.13208">
        <ele>73.8</ele>
        <time>2026-06-20T06:15:46Z</time>
      </trkpt>
      <trkpt lat="47.26655" lon="-0.13214">
        <ele>73.8</ele>
        <time>2026-06-20T06:15:47Z</time>
      </trkpt>
      <trkpt lat="47.26656" lon="-0.13219">
        <ele>73.8</ele>
        <time>2026-06-20T06:15:48Z</time>
      </trkpt>
      <trkpt lat="47.26657" lon="-0.13225">
        <ele>73.6</ele>
        <time>2026-06-20T06:15:49Z</time>
      </trkpt>
      <trkpt lat="47.26656" lon="-0.1323">
        <ele>73.6</ele>
        <time>2026-06-20T06:15:50Z</time>
      </trkpt>
      <trkpt lat="47.26655" lon="-0.13235">
        <ele>73.4</ele>
        <time>2026-06-20T06:15:51Z</time>
      </trkpt>
      <trkpt lat="47.26655" lon="-0.13241">
        <ele>73.4</ele>
        <time>2026-06-20T06:15:52Z</time>
      </trkpt>
      <trkpt lat="47.26656" lon="-0.13247">
        <ele>73.4</ele>
        <time>2026-06-20T06:15:53Z</time>
      </trkpt>
      <trkpt lat="47.26656" lon="-0.13251">
        <ele>73.4</ele>
        <time>2026-06-20T06:15:54Z</time>
      </trkpt>
      <trkpt lat="47.26656" lon="-0.13257">
        <ele>73.4</ele>
        <time>2026-06-20T06:15:55Z</time>
      </trkpt>
      <trkpt lat="47.26656" lon="-0.13263">
        <ele>73.4</ele>
        <time>2026-06-20T06:15:56Z</time>
      </trkpt>
      <trkpt lat="47.26656" lon="-0.1327">
        <ele>73.2</ele>
        <time>2026-06-20T06:15:57Z</time>
      </trkpt>
      <trkpt lat="47.26657" lon="-0.13277">
        <ele>73.2</ele>
        <time>2026-06-20T06:15:58Z</time>
      </trkpt>
      <trkpt lat="47.26657" lon="-0.13283">
        <ele>73.2</ele>
        <time>2026-06-20T06:15:59Z</time>
      </trkpt>
      <trkpt lat="47.26658" lon="-0.13289">
        <ele>73.2</ele>
        <time>2026-06-20T06:16:00Z</time>
      </trkpt>
      <trkpt lat="47.26658" lon="-0.13294">
        <ele>73.2</ele>
        <time>2026-06-20T06:16:01Z</time>
      </trkpt>
      <trkpt lat="47.26658" lon="-0.13298">
        <ele>73.4</ele>
        <time>2026-06-20T06:16:02Z</time>
      </trkpt>
      <trkpt lat="47.26659" lon="-0.13303">
        <ele>73.6</ele>
        <time>2026-06-20T06:16:03Z</time>
      </trkpt>
      <trkpt lat="47.2666" lon="-0.1331">
        <ele>73.6</ele>
        <time>2026-06-20T06:16:04Z</time>
      </trkpt>
      <trkpt lat="47.26661" lon="-0.13315">
        <ele>73.8</ele>
        <time>2026-06-20T06:16:05Z</time>
      </trkpt>
      <trkpt lat="47.26661" lon="-0.13321">
        <ele>73.8</ele>
        <time>2026-06-20T06:16:06Z</time>
      </trkpt>
      <trkpt lat="47.26661" lon="-0.13328">
        <ele>73.8</ele>
        <time>2026-06-20T06:16:07Z</time>
      </trkpt>
      <trkpt lat="47.26662" lon="-0.13334">
        <ele>74</ele>
        <time>2026-06-20T06:16:08Z</time>
      </trkpt>
      <trkpt lat="47.26663" lon="-0.13341">
        <ele>74</ele>
        <time>2026-06-20T06:16:09Z</time>
      </trkpt>
      <trkpt lat="47.26664" lon="-0.13347">
        <ele>74</ele>
        <time>2026-06-20T06:16:10Z</time>
      </trkpt>
      <trkpt lat="47.26664" lon="-0.13354">
        <ele>73.8</ele>
        <time>2026-06-20T06:16:11Z</time>
      </trkpt>
      <trkpt lat="47.26662" lon="-0.1336">
        <ele>73.8</ele>
        <time>2026-06-20T06:16:12Z</time>
      </trkpt>
      <trkpt lat="47.2666" lon="-0.13363">
        <ele>73.8</ele>
        <time>2026-06-20T06:16:13Z</time>
      </trkpt>
      <trkpt lat="47.26657" lon="-0.13367">
        <ele>73.6</ele>
        <time>2026-06-20T06:16:14Z</time>
      </trkpt>
      <trkpt lat="47.26653" lon="-0.13373">
        <ele>73.6</ele>
        <time>2026-06-20T06:16:15Z</time>
      </trkpt>
      <trkpt lat="47.26652" lon="-0.13381">
        <ele>73.6</ele>
        <time>2026-06-20T06:16:16Z</time>
      </trkpt>
      <trkpt lat="47.26651" lon="-0.13387">
        <ele>73.4</ele>
        <time>2026-06-20T06:16:17Z</time>
      </trkpt>
      <trkpt lat="47.26652" lon="-0.13392">
        <ele>73.4</ele>
        <time>2026-06-20T06:16:18Z</time>
      </trkpt>
      <trkpt lat="47.26653" lon="-0.13399">
        <ele>73.4</ele>
        <time>2026-06-20T06:16:19Z</time>
      </trkpt>
      <trkpt lat="47.26653" lon="-0.13405">
        <ele>73.4</ele>
        <time>2026-06-20T06:16:20Z</time>
      </trkpt>
      <trkpt lat="47.26654" lon="-0.1341">
        <ele>73.6</ele>
        <time>2026-06-20T06:16:21Z</time>
      </trkpt>
      <trkpt lat="47.26655" lon="-0.13416">
        <ele>73.6</ele>
        <time>2026-06-20T06:16:22Z</time>
      </trkpt>
      <trkpt lat="47.26655" lon="-0.13421">
        <ele>73.6</ele>
        <time>2026-06-20T06:16:23Z</time>
      </trkpt>
      <trkpt lat="47.26654" lon="-0.13426">
        <ele>74</ele>
        <time>2026-06-20T06:16:24Z</time>
      </trkpt>
      <trkpt lat="47.26653" lon="-0.13429">
        <ele>74</ele>
        <time>2026-06-20T06:16:25Z</time>
      </trkpt>
      <trkpt lat="47.26651" lon="-0.13433">
        <ele>74.2</ele>
        <time>2026-06-20T06:16:26Z</time>
        <extensions>
          <visugpx:TrkExtension xmlns:visugpx="https://www.visugpx.com/editgpx/">
            <visugpx:node>20</visugpx:node>
            </visugpx:TrkExtension>
        </extensions>
      </trkpt>
      <trkpt lat="47.26644" lon="-0.13449">
        <ele>72.8</ele>
      </trkpt>
      <trkpt lat="47.26638" lon="-0.13514">
        <ele>73</ele>
      </trkpt>
      <trkpt lat="47.26638" lon="-0.13559">
        <ele>74</ele>
      </trkpt>
      <trkpt lat="47.26647" lon="-0.13599">
        <ele>73.7</ele>
      </trkpt>
      <trkpt lat="47.26651" lon="-0.13623">
        <ele>74</ele>
        <extensions>
          <visugpx:TrkExtension xmlns:visugpx="https://www.visugpx.com/editgpx/">
            <visugpx:node>21</visugpx:node>
            </visugpx:TrkExtension>
        </extensions>
      </trkpt>
      <trkpt lat="47.26654" lon="-0.13642">
        <ele>74.5</ele>
      </trkpt>
      <trkpt lat="47.26657" lon="-0.13684">
        <ele>74.8</ele>
      </trkpt>
      <trkpt lat="47.26666" lon="-0.13716">
        <ele>75</ele>
        <extensions>
          <visugpx:TrkExtension xmlns:visugpx="https://www.visugpx.com/editgpx/">
            <visugpx:node>22</visugpx:node>
            </visugpx:TrkExtension>
        </extensions>
      </trkpt>
      <trkpt lat="47.26667" lon="-0.13722">
        <ele>75</ele>
      </trkpt>
      <trkpt lat="47.2668" lon="-0.13761">
        <ele>75.7</ele>
      </trkpt>
      <trkpt lat="47.26703" lon="-0.13787">
        <ele>75.7</ele>
      </trkpt>
      <trkpt lat="47.26714" lon="-0.13796">
        <ele>75.3</ele>
        <extensions>
          <visugpx:TrkExtension xmlns:visugpx="https://www.visugpx.com/editgpx/">
            <visugpx:node>23</visugpx:node>
            </visugpx:TrkExtension>
        </extensions>
      </trkpt>
      <trkpt lat="47.26755" lon="-0.13832">
        <ele>73.8</ele>
      </trkpt>
      <trkpt lat="47.26782" lon="-0.13864">
        <ele>73.7</ele>
      </trkpt>
      <trkpt lat="47.26793" lon="-0.13872">
        <ele>73.1</ele>
        <extensions>
          <visugpx:TrkExtension xmlns:visugpx="https://www.visugpx.com/editgpx/">
            <visugpx:node>24</visugpx:node>
            </visugpx:TrkExtension>
        </extensions>
      </trkpt>
      <trkpt lat="47.26799" lon="-0.13877">
        <ele>72.9</ele>
      </trkpt>
      <trkpt lat="47.26815" lon="-0.1388">
        <ele>72.3</ele>
        <extensions>
          <visugpx:TrkExtension xmlns:visugpx="https://www.visugpx.com/editgpx/">
            <visugpx:node>25</visugpx:node>
            </visugpx:TrkExtension>
        </extensions>
      </trkpt>
      <trkpt lat="47.26828" lon="-0.13871">
        <ele>71.5</ele>
      </trkpt>
      <trkpt lat="47.26842" lon="-0.13861">
        <ele>70.4</ele>
      </trkpt>
      <trkpt lat="47.26935" lon="-0.13812">
        <ele>63.7</ele>
        <extensions>
          <visugpx:TrkExtension xmlns:visugpx="https://www.visugpx.com/editgpx/">
            <visugpx:node>26</visugpx:node>
            </visugpx:TrkExtension>
        </extensions>
      </trkpt>
      <trkpt lat="47.26982" lon="-0.13789">
        <ele>59.9</ele>
        <extensions>
          <visugpx:TrkExtension xmlns:visugpx="https://www.visugpx.com/editgpx/">
            <visugpx:node>27</visugpx:node>
            </visugpx:TrkExtension>
        </extensions>
      </trkpt>
      <trkpt lat="47.26994" lon="-0.13889">
        <ele>60.4</ele>
      </trkpt>
      <trkpt lat="47.26992" lon="-0.14008">
        <ele>62.6</ele>
      </trkpt>
      <trkpt lat="47.26988" lon="-0.14143">
        <ele>65.5</ele>
      </trkpt>
      <trkpt lat="47.2698" lon="-0.14203">
        <ele>67.1</ele>
        <extensions>
          <visugpx:TrkExtension xmlns:visugpx="https://www.visugpx.com/editgpx/">
            <visugpx:node>28</visugpx:node>
            </visugpx:TrkExtension>
        </extensions>
      </trkpt>
      <trkpt lat="47.26973" lon="-0.14251">
        <ele>68</ele>
      </trkpt>
      <trkpt lat="47.26959" lon="-0.14316">
        <ele>68</ele>
      </trkpt>
      <trkpt lat="47.26932" lon="-0.1438">
        <ele>68.5</ele>
      </trkpt>
      <trkpt lat="47.26926" lon="-0.14389">
        <ele>68.7</ele>
        <extensions>
          <visugpx:TrkExtension xmlns:visugpx="https://www.visugpx.com/editgpx/">
            <visugpx:node>29</visugpx:node>
            </visugpx:TrkExtension>
        </extensions>
      </trkpt>
      <trkpt lat="47.26897" lon="-0.14429">
        <ele>69.4</ele>
      </trkpt>
      <trkpt lat="47.26869" lon="-0.14496">
        <ele>69.7</ele>
      </trkpt>
      <trkpt lat="47.26858" lon="-0.14516">
        <ele>70.1</ele>
        <extensions>
          <visugpx:TrkExtension xmlns:visugpx="https://www.visugpx.com/editgpx/">
            <visugpx:node>30</visugpx:node>
            </visugpx:TrkExtension>
        </extensions>
      </trkpt>
      <trkpt lat="47.26852" lon="-0.14529">
        <ele>70.3</ele>
      </trkpt>
      <trkpt lat="47.26853" lon="-0.14542">
        <ele>70.3</ele>
      </trkpt>
      <trkpt lat="47.26862" lon="-0.14562">
        <ele>70</ele>
      </trkpt>
      <trkpt lat="47.26894" lon="-0.14607">
        <ele>69</ele>
      </trkpt>
      <trkpt lat="47.26904" lon="-0.14612">
        <ele>69</ele>
      </trkpt>
      <trkpt lat="47.26909" lon="-0.14611">
        <ele>69</ele>
      </trkpt>
      <trkpt lat="47.26907" lon="-0.14638">
        <ele>69.3</ele>
        <extensions>
          <visugpx:TrkExtension xmlns:visugpx="https://www.visugpx.com/editgpx/">
            <visugpx:node>31</visugpx:node>
            </visugpx:TrkExtension>
        </extensions>
      </trkpt>
      <trkpt lat="47.26902" lon="-0.14707">
        <ele>70</ele>
      </trkpt>
      <trkpt lat="47.26878" lon="-0.14773">
        <ele>71.3</ele>
        <extensions>
          <visugpx:TrkExtension xmlns:visugpx="https://www.visugpx.com/editgpx/">
            <visugpx:node>32</visugpx:node>
            </visugpx:TrkExtension>
        </extensions>
      </trkpt>
      <trkpt lat="47.26877" lon="-0.14776">
        <ele>71.4</ele>
      </trkpt>
      <trkpt lat="47.2689" lon="-0.14823">
        <ele>72</ele>
      </trkpt>
      <trkpt lat="47.26893" lon="-0.14887">
        <ele>72.8</ele>
      </trkpt>
      <trkpt lat="47.26887" lon="-0.14914">
        <ele>73.1</ele>
        <extensions>
          <visugpx:TrkExtension xmlns:visugpx="https://www.visugpx.com/editgpx/">
            <visugpx:node>33</visugpx:node>
            </visugpx:TrkExtension>
        </extensions>
      </trkpt>
      <trkpt lat="47.26849" lon="-0.1507">
        <ele>75.4</ele>
      </trkpt>
      <trkpt lat="47.26853" lon="-0.15093">
        <ele>75.3</ele>
        <extensions>
          <visugpx:TrkExtension xmlns:visugpx="https://www.visugpx.com/editgpx/">
            <visugpx:node>34</visugpx:node>
            </visugpx:TrkExtension>
        </extensions>
      </trkpt>
      <trkpt lat="47.26863" lon="-0.15168">
        <ele>75</ele>
      </trkpt>
      <trkpt lat="47.2686" lon="-0.15189">
        <ele>75.1</ele>
        <extensions>
          <visugpx:TrkExtension xmlns:visugpx="https://www.visugpx.com/editgpx/">
            <visugpx:node>35</visugpx:node>
            </visugpx:TrkExtension>
        </extensions>
      </trkpt>
      <trkpt lat="47.26841" lon="-0.15353">
        <ele>78.9</ele>
      </trkpt>
      <trkpt lat="47.26828" lon="-0.15428">
        <ele>79.3</ele>
        <extensions>
          <visugpx:TrkExtension xmlns:visugpx="https://www.visugpx.com/editgpx/">
            <visugpx:node>36</visugpx:node>
            </visugpx:TrkExtension>
        </extensions>
      </trkpt>
      <trkpt lat="47.26696" lon="-0.15452">
        <ele>86.2</ele>
      </trkpt>
      <trkpt lat="47.26695" lon="-0.15445">
        <ele>86</ele>
        <extensions>
          <visugpx:TrkExtension xmlns:visugpx="https://www.visugpx.com/editgpx/">
            <visugpx:node>37</visugpx:node>
            </visugpx:TrkExtension>
        </extensions>
      </trkpt>
      <trkpt lat="47.26692" lon="-0.15403">
        <ele>86.1</ele>
      </trkpt>
      <trkpt lat="47.2668" lon="-0.15345">
        <ele>86.5</ele>
      </trkpt>
      <trkpt lat="47.26678" lon="-0.15339">
        <ele>86.6</ele>
      </trkpt>
      <trkpt lat="47.26678" lon="-0.15336">
        <ele>86.6</ele>
        <extensions>
          <visugpx:TrkExtension xmlns:visugpx="https://www.visugpx.com/editgpx/">
            <visugpx:node>38</visugpx:node>
            </visugpx:TrkExtension>
        </extensions>
      </trkpt>
      <trkpt lat="47.26678" lon="-0.15339">
        <ele>86.6</ele>
      </trkpt>
      <trkpt lat="47.2668" lon="-0.15345">
        <ele>86.5</ele>
      </trkpt>
      <trkpt lat="47.2669" lon="-0.15333">
        <ele>86.2</ele>
      </trkpt>
      <trkpt lat="47.26709" lon="-0.15353">
        <ele>85.3</ele>
      </trkpt>
      <trkpt lat="47.26732" lon="-0.15361">
        <ele>84.3</ele>
      </trkpt>
      <trkpt lat="47.26743" lon="-0.15346">
        <ele>83.4</ele>
      </trkpt>
      <trkpt lat="47.26778" lon="-0.15337">
        <ele>82</ele>
        <extensions>
          <visugpx:TrkExtension xmlns:visugpx="https://www.visugpx.com/editgpx/">
            <visugpx:node>39</visugpx:node>
            </visugpx:TrkExtension>
        </extensions>
      </trkpt>
      <trkpt lat="47.26779" lon="-0.15337">
        <ele>81.9</ele>
      </trkpt>
      <trkpt lat="47.26797" lon="-0.15298">
        <ele>80.5</ele>
        <extensions>
          <visugpx:TrkExtension xmlns:visugpx="https://www.visugpx.com/editgpx/">
            <visugpx:node>40</visugpx:node>
            </visugpx:TrkExtension>
        </extensions>
      </trkpt>
      <trkpt lat="47.26798" lon="-0.15295">
        <ele>80.4</ele>
      </trkpt>
      <trkpt lat="47.26787" lon="-0.15262">
        <ele>80.5</ele>
      </trkpt>
      <trkpt lat="47.26773" lon="-0.1524">
        <ele>81</ele>
      </trkpt>
      <trkpt lat="47.26753" lon="-0.15209">
        <ele>81.8</ele>
      </trkpt>
      <trkpt lat="47.26745" lon="-0.15192">
        <ele>82.1</ele>
        <extensions>
          <visugpx:TrkExtension xmlns:visugpx="https://www.visugpx.com/editgpx/">
            <visugpx:node>41</visugpx:node>
            </visugpx:TrkExtension>
        </extensions>
      </trkpt>
      <trkpt lat="47.26736" lon="-0.15173">
        <ele>82.1</ele>
      </trkpt>
      <trkpt lat="47.2675" lon="-0.15102">
        <ele>81</ele>
        <extensions>
          <visugpx:TrkExtension xmlns:visugpx="https://www.visugpx.com/editgpx/">
            <visugpx:node>42</visugpx:node>
            </visugpx:TrkExtension>
        </extensions>
      </trkpt>
      <trkpt lat="47.2675" lon="-0.15101">
        <ele>81</ele>
      </trkpt>
      <trkpt lat="47.26775" lon="-0.15098">
        <ele>80.1</ele>
      </trkpt>
      <trkpt lat="47.26806" lon="-0.15085">
        <ele>78</ele>
      </trkpt>
      <trkpt lat="47.26823" lon="-0.1506">
        <ele>76.7</ele>
        <extensions>
          <visugpx:TrkExtension xmlns:visugpx="https://www.visugpx.com/editgpx/">
            <visugpx:node>43</visugpx:node>
            </visugpx:TrkExtension>
        </extensions>
      </trkpt>
      <trkpt lat="47.26825" lon="-0.15058">
        <ele>76.6</ele>
      </trkpt>
      <trkpt lat="47.2683" lon="-0.15027">
        <ele>76.2</ele>
      </trkpt>
      <trkpt lat="47.26826" lon="-0.15003">
        <ele>76.5</ele>
      </trkpt>
      <trkpt lat="47.26839" lon="-0.14959">
        <ele>75.6</ele>
      </trkpt>
      <trkpt lat="47.26838" lon="-0.14939">
        <ele>75.7</ele>
        <extensions>
          <visugpx:TrkExtension xmlns:visugpx="https://www.visugpx.com/editgpx/">
            <visugpx:node>44</visugpx:node>
            </visugpx:TrkExtension>
        </extensions>
      </trkpt>
      <trkpt lat="47.26837" lon="-0.14916">
        <ele>75.7</ele>
      </trkpt>
      <trkpt lat="47.26818" lon="-0.14869">
        <ele>76.3</ele>
      </trkpt>
      <trkpt lat="47.26804" lon="-0.14819">
        <ele>76.1</ele>
      </trkpt>
      <trkpt lat="47.26801" lon="-0.14792">
        <ele>75.9</ele>
        <extensions>
          <visugpx:TrkExtension xmlns:visugpx="https://www.visugpx.com/editgpx/">
            <visugpx:node>45</visugpx:node>
            </visugpx:TrkExtension>
        </extensions>
      </trkpt>
      <trkpt lat="47.26794" lon="-0.14746">
        <ele>74.8</ele>
      </trkpt>
      <trkpt lat="47.26795" lon="-0.14696">
        <ele>73.8</ele>
      </trkpt>
      <trkpt lat="47.26794" lon="-0.1467">
        <ele>73.8</ele>
        <extensions>
          <visugpx:TrkExtension xmlns:visugpx="https://www.visugpx.com/editgpx/">
            <visugpx:node>46</visugpx:node>
            </visugpx:TrkExtension>
        </extensions>
      </trkpt>
      <trkpt lat="47.26786" lon="-0.1468">
        <ele>74.4</ele>
      </trkpt>
      <trkpt lat="47.26737" lon="-0.1471">
        <ele>77.9</ele>
      </trkpt>
      <trkpt lat="47.26691" lon="-0.14744">
        <ele>81.9</ele>
      </trkpt>
      <trkpt lat="47.26676" lon="-0.14758">
        <ele>82.9</ele>
      </trkpt>
      <trkpt lat="47.26673" lon="-0.14758">
        <ele>83</ele>
        <extensions>
          <visugpx:TrkExtension xmlns:visugpx="https://www.visugpx.com/editgpx/">
            <visugpx:node>47</visugpx:node>
            </visugpx:TrkExtension>
        </extensions>
      </trkpt>
      <trkpt lat="47.26662" lon="-0.14759">
        <ele>83.5</ele>
      </trkpt>
      <trkpt lat="47.26634" lon="-0.14751">
        <ele>84.2</ele>
      </trkpt>
      <trkpt lat="47.2662" lon="-0.14736">
        <ele>84.7</ele>
        <extensions>
          <visugpx:TrkExtension xmlns:visugpx="https://www.visugpx.com/editgpx/">
            <visugpx:node>48</visugpx:node>
            </visugpx:TrkExtension>
        </extensions>
      </trkpt>
      <trkpt lat="47.26616" lon="-0.14732">
        <ele>84.8</ele>
      </trkpt>
      <trkpt lat="47.26606" lon="-0.14718">
        <ele>85</ele>
      </trkpt>
      <trkpt lat="47.26598" lon="-0.14695">
        <ele>85</ele>
      </trkpt>
      <trkpt lat="47.26595" lon="-0.1468">
        <ele>85</ele>
      </trkpt>
      <trkpt lat="47.26592" lon="-0.1467">
        <ele>85</ele>
        <extensions>
          <visugpx:TrkExtension xmlns:visugpx="https://www.visugpx.com/editgpx/">
            <visugpx:node>49</visugpx:node>
            </visugpx:TrkExtension>
        </extensions>
      </trkpt>
      <trkpt lat="47.26588" lon="-0.14659">
        <ele>85</ele>
      </trkpt>
      <trkpt lat="47.26622" lon="-0.14647">
        <ele>84.2</ele>
      </trkpt>
      <trkpt lat="47.26672" lon="-0.14637">
        <ele>81.6</ele>
      </trkpt>
      <trkpt lat="47.26704" lon="-0.14631">
        <ele>79.7</ele>
      </trkpt>
      <trkpt lat="47.26711" lon="-0.14628">
        <ele>79.4</ele>
      </trkpt>
      <trkpt lat="47.26716" lon="-0.1462">
        <ele>79.2</ele>
        <extensions>
          <visugpx:TrkExtension xmlns:visugpx="https://www.visugpx.com/editgpx/">
            <visugpx:node>50</visugpx:node>
            </visugpx:TrkExtension>
        </extensions>
      </trkpt>
      <trkpt lat="47.26716" lon="-0.14619">
        <ele>79.2</ele>
      </trkpt>
      <trkpt lat="47.26718" lon="-0.14603">
        <ele>79.1</ele>
      </trkpt>
      <trkpt lat="47.26714" lon="-0.14503">
        <ele>79.3</ele>
      </trkpt>
      <trkpt lat="47.26712" lon="-0.14436">
        <ele>79.4</ele>
      </trkpt>
      <trkpt lat="47.26713" lon="-0.14376">
        <ele>79.3</ele>
      </trkpt>
      <trkpt lat="47.26714" lon="-0.14374">
        <ele>79.3</ele>
        <extensions>
          <visugpx:TrkExtension xmlns:visugpx="https://www.visugpx.com/editgpx/">
            <visugpx:node>51</visugpx:node>
            </visugpx:TrkExtension>
        </extensions>
      </trkpt>
      <trkpt lat="47.26717" lon="-0.14355">
        <ele>79.2</ele>
      </trkpt>
      <trkpt lat="47.26718" lon="-0.14354">
        <ele>79.2</ele>
        <extensions>
          <visugpx:TrkExtension xmlns:visugpx="https://www.visugpx.com/editgpx/">
            <visugpx:node>52</visugpx:node>
            </visugpx:TrkExtension>
        </extensions>
      </trkpt>
      <trkpt lat="47.26722" lon="-0.14345">
        <ele>79</ele>
        <extensions>
          <visugpx:TrkExtension xmlns:visugpx="https://www.visugpx.com/editgpx/">
            <visugpx:node>53</visugpx:node>
            </visugpx:TrkExtension>
        </extensions>
      </trkpt>
      <trkpt lat="47.26702" lon="-0.14311">
        <ele>79.7</ele>
      </trkpt>
      <trkpt lat="47.26675" lon="-0.14271">
        <ele>80.5</ele>
      </trkpt>
      <trkpt lat="47.26661" lon="-0.14256">
        <ele>80.4</ele>
      </trkpt>
      <trkpt lat="47.26653" lon="-0.14244">
        <ele>80.5</ele>
        <extensions>
          <visugpx:TrkExtension xmlns:visugpx="https://www.visugpx.com/editgpx/">
            <visugpx:node>54</visugpx:node>
            </visugpx:TrkExtension>
        </extensions>
      </trkpt>
      <trkpt lat="47.26646" lon="-0.14235">
        <ele>80.7</ele>
        <extensions>
          <visugpx:TrkExtension xmlns:visugpx="https://www.visugpx.com/editgpx/">
            <visugpx:node>55</visugpx:node>
            </visugpx:TrkExtension>
        </extensions>
      </trkpt>
      <trkpt lat="47.2664" lon="-0.14235">
        <ele>82.6</ele>
        <time>2026-06-20T06:18:59Z</time>
        <extensions>
          <visugpx:TrkExtension xmlns:visugpx="https://www.visugpx.com/editgpx/">
            <visugpx:node>56</visugpx:node>
            </visugpx:TrkExtension>
        </extensions>
      </trkpt>
      <trkpt lat="47.26639" lon="-0.14237">
        <ele>82.6</ele>
        <time>2026-06-20T06:19:00Z</time>
      </trkpt>
      <trkpt lat="47.26636" lon="-0.14239">
        <ele>82.6</ele>
        <time>2026-06-20T06:19:01Z</time>
      </trkpt>
      <trkpt lat="47.26633" lon="-0.1424">
        <ele>82.8</ele>
        <time>2026-06-20T06:19:02Z</time>
      </trkpt>
      <trkpt lat="47.26628" lon="-0.14241">
        <ele>82.8</ele>
        <time>2026-06-20T06:19:03Z</time>
      </trkpt>
      <trkpt lat="47.26623" lon="-0.14242">
        <ele>83</ele>
        <time>2026-06-20T06:19:04Z</time>
      </trkpt>
      <trkpt lat="47.2662" lon="-0.14243">
        <ele>83</ele>
        <time>2026-06-20T06:19:05Z</time>
      </trkpt>
      <trkpt lat="47.26616" lon="-0.14243">
        <ele>83.2</ele>
        <time>2026-06-20T06:19:06Z</time>
      </trkpt>
      <trkpt lat="47.26612" lon="-0.14244">
        <ele>83.2</ele>
        <time>2026-06-20T06:19:07Z</time>
      </trkpt>
      <trkpt lat="47.26606" lon="-0.14245">
        <ele>83.2</ele>
        <time>2026-06-20T06:19:08Z</time>
      </trkpt>
      <trkpt lat="47.26601" lon="-0.14246">
        <ele>83.4</ele>
        <time>2026-06-20T06:19:09Z</time>
      </trkpt>
      <trkpt lat="47.26597" lon="-0.14248">
        <ele>83.4</ele>
        <time>2026-06-20T06:19:10Z</time>
      </trkpt>
      <trkpt lat="47.26592" lon="-0.14249">
        <ele>83.6</ele>
        <time>2026-06-20T06:19:11Z</time>
      </trkpt>
      <trkpt lat="47.26587" lon="-0.14251">
        <ele>83.6</ele>
        <time>2026-06-20T06:19:12Z</time>
      </trkpt>
      <trkpt lat="47.26583" lon="-0.14252">
        <ele>83.8</ele>
        <time>2026-06-20T06:19:13Z</time>
      </trkpt>
      <trkpt lat="47.26578" lon="-0.14254">
        <ele>83.8</ele>
        <time>2026-06-20T06:19:14Z</time>
      </trkpt>
      <trkpt lat="47.26574" lon="-0.14255">
        <ele>84</ele>
        <time>2026-06-20T06:19:15Z</time>
      </trkpt>
      <trkpt lat="47.2657" lon="-0.14257">
        <ele>84.2</ele>
        <time>2026-06-20T06:19:16Z</time>
      </trkpt>
      <trkpt lat="47.26566" lon="-0.14258">
        <ele>84.6</ele>
        <time>2026-06-20T06:19:17Z</time>
      </trkpt>
      <trkpt lat="47.26562" lon="-0.1426">
        <ele>84.8</ele>
        <time>2026-06-20T06:19:18Z</time>
      </trkpt>
      <trkpt lat="47.26558" lon="-0.14261">
        <ele>84.8</ele>
        <time>2026-06-20T06:19:19Z</time>
      </trkpt>
      <trkpt lat="47.26554" lon="-0.14263">
        <ele>85</ele>
        <time>2026-06-20T06:19:20Z</time>
      </trkpt>
      <trkpt lat="47.2655" lon="-0.14265">
        <ele>85.2</ele>
        <time>2026-06-20T06:19:21Z</time>
      </trkpt>
      <trkpt lat="47.26546" lon="-0.14267">
        <ele>85.2</ele>
        <time>2026-06-20T06:19:22Z</time>
      </trkpt>
      <trkpt lat="47.26542" lon="-0.1427">
        <ele>85.4</ele>
        <time>2026-06-20T06:19:23Z</time>
      </trkpt>
      <trkpt lat="47.2654" lon="-0.14274">
        <ele>85.4</ele>
        <time>2026-06-20T06:19:24Z</time>
      </trkpt>
      <trkpt lat="47.26539" lon="-0.1428">
        <ele>85.4</ele>
        <time>2026-06-20T06:19:25Z</time>
      </trkpt>
      <trkpt lat="47.26539" lon="-0.14287">
        <ele>85.4</ele>
        <time>2026-06-20T06:19:26Z</time>
      </trkpt>
      <trkpt lat="47.2654" lon="-0.14293">
        <ele>85.4</ele>
        <time>2026-06-20T06:19:27Z</time>
      </trkpt>
      <trkpt lat="47.2654" lon="-0.14297">
        <ele>85.2</ele>
        <time>2026-06-20T06:19:28Z</time>
      </trkpt>
      <trkpt lat="47.2654" lon="-0.14301">
        <ele>85.4</ele>
        <time>2026-06-20T06:19:29Z</time>
      </trkpt>
      <trkpt lat="47.26539" lon="-0.14305">
        <ele>85.6</ele>
        <time>2026-06-20T06:19:30Z</time>
      </trkpt>
      <trkpt lat="47.26537" lon="-0.14308">
        <ele>85.6</ele>
        <time>2026-06-20T06:19:31Z</time>
      </trkpt>
      <trkpt lat="47.26534" lon="-0.14311">
        <ele>85.8</ele>
        <time>2026-06-20T06:19:32Z</time>
      </trkpt>
      <trkpt lat="47.26531" lon="-0.14313">
        <ele>86</ele>
        <time>2026-06-20T06:19:33Z</time>
      </trkpt>
      <trkpt lat="47.26527" lon="-0.14314">
        <ele>86.2</ele>
        <time>2026-06-20T06:19:34Z</time>
      </trkpt>
      <trkpt lat="47.26524" lon="-0.14317">
        <ele>86.4</ele>
        <time>2026-06-20T06:19:35Z</time>
      </trkpt>
      <trkpt lat="47.26521" lon="-0.14318">
        <ele>86.4</ele>
        <time>2026-06-20T06:19:36Z</time>
      </trkpt>
      <trkpt lat="47.26518" lon="-0.1432">
        <ele>86.6</ele>
        <time>2026-06-20T06:19:37Z</time>
      </trkpt>
      <trkpt lat="47.26514" lon="-0.14322">
        <ele>86.8</ele>
        <time>2026-06-20T06:19:38Z</time>
      </trkpt>
      <trkpt lat="47.26511" lon="-0.14324">
        <ele>86.8</ele>
        <time>2026-06-20T06:19:39Z</time>
      </trkpt>
      <trkpt lat="47.26508" lon="-0.14327">
        <ele>86.8</ele>
        <time>2026-06-20T06:19:40Z</time>
      </trkpt>
      <trkpt lat="47.26504" lon="-0.14329">
        <ele>87</ele>
        <time>2026-06-20T06:19:41Z</time>
      </trkpt>
      <trkpt lat="47.26501" lon="-0.14331">
        <ele>87</ele>
        <time>2026-06-20T06:19:42Z</time>
      </trkpt>
      <trkpt lat="47.26498" lon="-0.14333">
        <ele>87.2</ele>
        <time>2026-06-20T06:19:43Z</time>
      </trkpt>
      <trkpt lat="47.26494" lon="-0.14335">
        <ele>87.2</ele>
        <time>2026-06-20T06:19:44Z</time>
      </trkpt>
      <trkpt lat="47.26491" lon="-0.14339">
        <ele>87.2</ele>
        <time>2026-06-20T06:19:45Z</time>
      </trkpt>
      <trkpt lat="47.2649" lon="-0.14344">
        <ele>87.2</ele>
        <time>2026-06-20T06:19:46Z</time>
      </trkpt>
      <trkpt lat="47.26489" lon="-0.1435">
        <ele>87.2</ele>
        <time>2026-06-20T06:19:47Z</time>
      </trkpt>
      <trkpt lat="47.26489" lon="-0.14356">
        <ele>87.4</ele>
        <time>2026-06-20T06:19:48Z</time>
      </trkpt>
      <trkpt lat="47.26489" lon="-0.14362">
        <ele>87.4</ele>
        <time>2026-06-20T06:19:49Z</time>
      </trkpt>
      <trkpt lat="47.26489" lon="-0.14367">
        <ele>87.4</ele>
        <time>2026-06-20T06:19:50Z</time>
      </trkpt>
      <trkpt lat="47.26488" lon="-0.14372">
        <ele>87.4</ele>
        <time>2026-06-20T06:19:51Z</time>
      </trkpt>
      <trkpt lat="47.26486" lon="-0.14374">
        <ele>87.6</ele>
        <time>2026-06-20T06:19:52Z</time>
      </trkpt>
      <trkpt lat="47.26483" lon="-0.14375">
        <ele>87.6</ele>
        <time>2026-06-20T06:19:53Z</time>
      </trkpt>
      <trkpt lat="47.2648" lon="-0.14377">
        <ele>87.8</ele>
        <time>2026-06-20T06:19:54Z</time>
      </trkpt>
      <trkpt lat="47.26476" lon="-0.14379">
        <ele>88</ele>
        <time>2026-06-20T06:19:55Z</time>
      </trkpt>
      <trkpt lat="47.26472" lon="-0.14382">
        <ele>88</ele>
        <time>2026-06-20T06:19:56Z</time>
      </trkpt>
      <trkpt lat="47.26469" lon="-0.14384">
        <ele>88.2</ele>
        <time>2026-06-20T06:19:57Z</time>
      </trkpt>
      <trkpt lat="47.26466" lon="-0.14386">
        <ele>88.2</ele>
        <time>2026-06-20T06:19:58Z</time>
      </trkpt>
      <trkpt lat="47.26463" lon="-0.14388">
        <ele>88.2</ele>
        <time>2026-06-20T06:19:59Z</time>
      </trkpt>
      <trkpt lat="47.26459" lon="-0.1439">
        <ele>88.2</ele>
        <time>2026-06-20T06:20:00Z</time>
      </trkpt>
      <trkpt lat="47.26456" lon="-0.14393">
        <ele>88.2</ele>
        <time>2026-06-20T06:20:01Z</time>
      </trkpt>
      <trkpt lat="47.26452" lon="-0.14395">
        <ele>88.2</ele>
        <time>2026-06-20T06:20:02Z</time>
      </trkpt>
      <trkpt lat="47.26448" lon="-0.14398">
        <ele>88.2</ele>
        <time>2026-06-20T06:20:03Z</time>
      </trkpt>
      <trkpt lat="47.26444" lon="-0.144">
        <ele>88.2</ele>
        <time>2026-06-20T06:20:04Z</time>
      </trkpt>
      <trkpt lat="47.2644" lon="-0.14402">
        <ele>88.2</ele>
        <time>2026-06-20T06:20:05Z</time>
      </trkpt>
      <trkpt lat="47.26436" lon="-0.14404">
        <ele>88.2</ele>
        <time>2026-06-20T06:20:06Z</time>
      </trkpt>
      <trkpt lat="47.26432" lon="-0.14409">
        <ele>88</ele>
        <time>2026-06-20T06:20:07Z</time>
      </trkpt>
      <trkpt lat="47.26429" lon="-0.14413">
        <ele>88</ele>
        <time>2026-06-20T06:20:08Z</time>
      </trkpt>
      <trkpt lat="47.26426" lon="-0.14417">
        <ele>88</ele>
        <time>2026-06-20T06:20:09Z</time>
      </trkpt>
      <trkpt lat="47.26423" lon="-0.14421">
        <ele>88</ele>
        <time>2026-06-20T06:20:10Z</time>
      </trkpt>
      <trkpt lat="47.2642" lon="-0.14425">
        <ele>88</ele>
        <time>2026-06-20T06:20:11Z</time>
      </trkpt>
      <trkpt lat="47.26417" lon="-0.1443">
        <ele>87.8</ele>
        <time>2026-06-20T06:20:12Z</time>
      </trkpt>
      <trkpt lat="47.26413" lon="-0.14434">
        <ele>87.8</ele>
        <time>2026-06-20T06:20:13Z</time>
      </trkpt>
      <trkpt lat="47.26409" lon="-0.14439">
        <ele>87.8</ele>
        <time>2026-06-20T06:20:14Z</time>
      </trkpt>
      <trkpt lat="47.26404" lon="-0.14444">
        <ele>87.6</ele>
        <time>2026-06-20T06:20:15Z</time>
      </trkpt>
      <trkpt lat="47.264" lon="-0.14449">
        <ele>87.6</ele>
        <time>2026-06-20T06:20:16Z</time>
      </trkpt>
      <trkpt lat="47.26398" lon="-0.14455">
        <ele>87.6</ele>
        <time>2026-06-20T06:20:17Z</time>
      </trkpt>
      <trkpt lat="47.26397" lon="-0.14462">
        <ele>87.6</ele>
        <time>2026-06-20T06:20:18Z</time>
      </trkpt>
      <trkpt lat="47.26397" lon="-0.1447">
        <ele>87.4</ele>
        <time>2026-06-20T06:20:19Z</time>
      </trkpt>
      <trkpt lat="47.26398" lon="-0.14477">
        <ele>87.4</ele>
        <time>2026-06-20T06:20:20Z</time>
      </trkpt>
      <trkpt lat="47.26399" lon="-0.14484">
        <ele>87.4</ele>
        <time>2026-06-20T06:20:21Z</time>
      </trkpt>
      <trkpt lat="47.26401" lon="-0.14491">
        <ele>87.6</ele>
        <time>2026-06-20T06:20:22Z</time>
      </trkpt>
      <trkpt lat="47.26402" lon="-0.14497">
        <ele>87.6</ele>
        <time>2026-06-20T06:20:23Z</time>
      </trkpt>
      <trkpt lat="47.26404" lon="-0.14504">
        <ele>87.6</ele>
        <time>2026-06-20T06:20:24Z</time>
      </trkpt>
      <trkpt lat="47.26406" lon="-0.1451">
        <ele>87.8</ele>
        <time>2026-06-20T06:20:25Z</time>
      </trkpt>
      <trkpt lat="47.26407" lon="-0.14516">
        <ele>87.8</ele>
        <time>2026-06-20T06:20:26Z</time>
      </trkpt>
      <trkpt lat="47.26409" lon="-0.14521">
        <ele>88</ele>
        <time>2026-06-20T06:20:27Z</time>
      </trkpt>
      <trkpt lat="47.26407" lon="-0.14525">
        <ele>88</ele>
        <time>2026-06-20T06:20:28Z</time>
      </trkpt>
      <trkpt lat="47.26405" lon="-0.14529">
        <ele>88.2</ele>
        <time>2026-06-20T06:20:29Z</time>
      </trkpt>
      <trkpt lat="47.264" lon="-0.14534">
        <ele>88.2</ele>
        <time>2026-06-20T06:20:30Z</time>
      </trkpt>
      <trkpt lat="47.26396" lon="-0.1454">
        <ele>88</ele>
        <time>2026-06-20T06:20:31Z</time>
      </trkpt>
      <trkpt lat="47.26391" lon="-0.14546">
        <ele>88</ele>
        <time>2026-06-20T06:20:32Z</time>
      </trkpt>
      <trkpt lat="47.26386" lon="-0.1455">
        <ele>87.8</ele>
        <time>2026-06-20T06:20:33Z</time>
      </trkpt>
      <trkpt lat="47.26381" lon="-0.14554">
        <ele>87.8</ele>
        <time>2026-06-20T06:20:34Z</time>
      </trkpt>
      <trkpt lat="47.26376" lon="-0.14557">
        <ele>87.6</ele>
        <time>2026-06-20T06:20:35Z</time>
      </trkpt>
      <trkpt lat="47.26373" lon="-0.1456">
        <ele>87.6</ele>
        <time>2026-06-20T06:20:36Z</time>
      </trkpt>
      <trkpt lat="47.26367" lon="-0.14564">
        <ele>87.4</ele>
        <time>2026-06-20T06:20:37Z</time>
      </trkpt>
      <trkpt lat="47.26363" lon="-0.14567">
        <ele>87.4</ele>
        <time>2026-06-20T06:20:38Z</time>
      </trkpt>
      <trkpt lat="47.26357" lon="-0.14571">
        <ele>87.2</ele>
        <time>2026-06-20T06:20:39Z</time>
      </trkpt>
      <trkpt lat="47.26352" lon="-0.14574">
        <ele>87.2</ele>
        <time>2026-06-20T06:20:40Z</time>
      </trkpt>
      <trkpt lat="47.26347" lon="-0.14577">
        <ele>87</ele>
        <time>2026-06-20T06:20:41Z</time>
      </trkpt>
      <trkpt lat="47.26342" lon="-0.14581">
        <ele>87</ele>
        <time>2026-06-20T06:20:42Z</time>
      </trkpt>
      <trkpt lat="47.26337" lon="-0.14584">
        <ele>86.8</ele>
        <time>2026-06-20T06:20:43Z</time>
      </trkpt>
      <trkpt lat="47.26332" lon="-0.14587">
        <ele>86.6</ele>
        <time>2026-06-20T06:20:44Z</time>
      </trkpt>
      <trkpt lat="47.26327" lon="-0.14591">
        <ele>86.4</ele>
        <time>2026-06-20T06:20:45Z</time>
      </trkpt>
      <trkpt lat="47.26321" lon="-0.14594">
        <ele>86.2</ele>
        <time>2026-06-20T06:20:46Z</time>
      </trkpt>
      <trkpt lat="47.26316" lon="-0.14598">
        <ele>86</ele>
        <time>2026-06-20T06:20:47Z</time>
      </trkpt>
      <trkpt lat="47.2631" lon="-0.14601">
        <ele>85.8</ele>
        <time>2026-06-20T06:20:48Z</time>
      </trkpt>
      <trkpt lat="47.26304" lon="-0.14604">
        <ele>85.6</ele>
        <time>2026-06-20T06:20:49Z</time>
      </trkpt>
      <trkpt lat="47.26299" lon="-0.14607">
        <ele>85.4</ele>
        <time>2026-06-20T06:20:50Z</time>
      </trkpt>
      <trkpt lat="47.26295" lon="-0.1461">
        <ele>85.2</ele>
        <time>2026-06-20T06:20:51Z</time>
      </trkpt>
      <trkpt lat="47.26289" lon="-0.14615">
        <ele>85</ele>
        <time>2026-06-20T06:20:52Z</time>
      </trkpt>
      <trkpt lat="47.26284" lon="-0.14619">
        <ele>84.8</ele>
        <time>2026-06-20T06:20:53Z</time>
      </trkpt>
      <trkpt lat="47.26278" lon="-0.14624">
        <ele>84.4</ele>
        <time>2026-06-20T06:20:54Z</time>
      </trkpt>
      <trkpt lat="47.26272" lon="-0.14629">
        <ele>84</ele>
        <time>2026-06-20T06:20:55Z</time>
      </trkpt>
      <trkpt lat="47.26267" lon="-0.14632">
        <ele>83.6</ele>
        <time>2026-06-20T06:20:56Z</time>
      </trkpt>
      <trkpt lat="47.26263" lon="-0.14635">
        <ele>83.2</ele>
        <time>2026-06-20T06:20:57Z</time>
      </trkpt>
      <trkpt lat="47.26261" lon="-0.14638">
        <ele>83.2</ele>
        <time>2026-06-20T06:20:58Z</time>
      </trkpt>
      <trkpt lat="47.26261" lon="-0.14641">
        <ele>83</ele>
        <time>2026-06-20T06:20:59Z</time>
      </trkpt>
      <trkpt lat="47.26262" lon="-0.14644">
        <ele>83</ele>
        <time>2026-06-20T06:21:00Z</time>
      </trkpt>
      <trkpt lat="47.26261" lon="-0.14647">
        <ele>83</ele>
        <time>2026-06-20T06:21:01Z</time>
      </trkpt>
      <trkpt lat="47.2626" lon="-0.14652">
        <ele>83</ele>
        <time>2026-06-20T06:21:02Z</time>
      </trkpt>
      <trkpt lat="47.2626" lon="-0.14656">
        <ele>83</ele>
        <time>2026-06-20T06:21:03Z</time>
      </trkpt>
      <trkpt lat="47.26262" lon="-0.1466">
        <ele>82.8</ele>
        <time>2026-06-20T06:21:04Z</time>
      </trkpt>
      <trkpt lat="47.26264" lon="-0.14664">
        <ele>82.8</ele>
        <time>2026-06-20T06:21:05Z</time>
      </trkpt>
      <trkpt lat="47.26265" lon="-0.14669">
        <ele>82.6</ele>
        <time>2026-06-20T06:21:06Z</time>
      </trkpt>
      <trkpt lat="47.26266" lon="-0.14675">
        <ele>82.6</ele>
        <time>2026-06-20T06:21:07Z</time>
      </trkpt>
      <trkpt lat="47.26267" lon="-0.14682">
        <ele>82.4</ele>
        <time>2026-06-20T06:21:08Z</time>
      </trkpt>
      <trkpt lat="47.26268" lon="-0.14688">
        <ele>82.2</ele>
        <time>2026-06-20T06:21:09Z</time>
      </trkpt>
      <trkpt lat="47.26269" lon="-0.14695">
        <ele>82</ele>
        <time>2026-06-20T06:21:10Z</time>
      </trkpt>
      <trkpt lat="47.26271" lon="-0.14702">
        <ele>82</ele>
        <time>2026-06-20T06:21:11Z</time>
      </trkpt>
      <trkpt lat="47.26273" lon="-0.1471">
        <ele>81.8</ele>
        <time>2026-06-20T06:21:12Z</time>
      </trkpt>
      <trkpt lat="47.26277" lon="-0.14717">
        <ele>81.6</ele>
        <time>2026-06-20T06:21:13Z</time>
      </trkpt>
      <trkpt lat="47.2628" lon="-0.14722">
        <ele>81.4</ele>
        <time>2026-06-20T06:21:14Z</time>
      </trkpt>
      <trkpt lat="47.26284" lon="-0.14725">
        <ele>81.2</ele>
        <time>2026-06-20T06:21:15Z</time>
      </trkpt>
      <trkpt lat="47.26287" lon="-0.14725">
        <ele>81.2</ele>
        <time>2026-06-20T06:21:16Z</time>
      </trkpt>
      <trkpt lat="47.26291" lon="-0.14723">
        <ele>81.2</ele>
        <time>2026-06-20T06:21:17Z</time>
      </trkpt>
      <trkpt lat="47.26294" lon="-0.1472">
        <ele>81.2</ele>
        <time>2026-06-20T06:21:18Z</time>
      </trkpt>
      <trkpt lat="47.26297" lon="-0.14718">
        <ele>81.2</ele>
        <time>2026-06-20T06:21:19Z</time>
      </trkpt>
      <trkpt lat="47.263" lon="-0.14716">
        <ele>81.4</ele>
        <time>2026-06-20T06:21:20Z</time>
      </trkpt>
      <trkpt lat="47.26303" lon="-0.14715">
        <ele>81.6</ele>
        <time>2026-06-20T06:21:21Z</time>
      </trkpt>
      <trkpt lat="47.26306" lon="-0.14713">
        <ele>81.8</ele>
        <time>2026-06-20T06:21:22Z</time>
      </trkpt>
      <trkpt lat="47.26308" lon="-0.14712">
        <ele>82.2</ele>
        <time>2026-06-20T06:21:23Z</time>
      </trkpt>
      <trkpt lat="47.26311" lon="-0.14709">
        <ele>82.4</ele>
        <time>2026-06-20T06:21:24Z</time>
      </trkpt>
      <trkpt lat="47.26314" lon="-0.14707">
        <ele>82.6</ele>
        <time>2026-06-20T06:21:25Z</time>
      </trkpt>
      <trkpt lat="47.26317" lon="-0.14706">
        <ele>83</ele>
        <time>2026-06-20T06:21:26Z</time>
      </trkpt>
      <trkpt lat="47.26319" lon="-0.14704">
        <ele>83.2</ele>
        <time>2026-06-20T06:21:27Z</time>
      </trkpt>
      <trkpt lat="47.2632" lon="-0.14703">
        <ele>83.6</ele>
        <time>2026-06-20T06:21:28Z</time>
      </trkpt>
      <trkpt lat="47.26324" lon="-0.14701">
        <ele>83.8</ele>
        <time>2026-06-20T06:21:29Z</time>
      </trkpt>
      <trkpt lat="47.26327" lon="-0.14699">
        <ele>84</ele>
        <time>2026-06-20T06:21:30Z</time>
      </trkpt>
      <trkpt lat="47.26329" lon="-0.14697">
        <ele>84.2</ele>
        <time>2026-06-20T06:21:31Z</time>
      </trkpt>
      <trkpt lat="47.26331" lon="-0.14696">
        <ele>84.4</ele>
        <time>2026-06-20T06:21:32Z</time>
      </trkpt>
      <trkpt lat="47.26333" lon="-0.14694">
        <ele>84.6</ele>
        <time>2026-06-20T06:21:33Z</time>
      </trkpt>
      <trkpt lat="47.26335" lon="-0.14693">
        <ele>84.8</ele>
        <time>2026-06-20T06:21:34Z</time>
      </trkpt>
      <trkpt lat="47.26338" lon="-0.14691">
        <ele>85</ele>
        <time>2026-06-20T06:21:35Z</time>
      </trkpt>
      <trkpt lat="47.2634" lon="-0.1469">
        <ele>85.2</ele>
        <time>2026-06-20T06:21:36Z</time>
      </trkpt>
      <trkpt lat="47.26343" lon="-0.14688">
        <ele>85.4</ele>
        <time>2026-06-20T06:21:37Z</time>
      </trkpt>
      <trkpt lat="47.26345" lon="-0.14686">
        <ele>85.6</ele>
        <time>2026-06-20T06:21:38Z</time>
      </trkpt>
      <trkpt lat="47.26348" lon="-0.14685">
        <ele>85.8</ele>
        <time>2026-06-20T06:21:39Z</time>
      </trkpt>
      <trkpt lat="47.26351" lon="-0.14684">
        <ele>86</ele>
        <time>2026-06-20T06:21:40Z</time>
      </trkpt>
      <trkpt lat="47.26354" lon="-0.14685">
        <ele>86.2</ele>
        <time>2026-06-20T06:21:41Z</time>
      </trkpt>
      <trkpt lat="47.26357" lon="-0.14687">
        <ele>86.4</ele>
        <time>2026-06-20T06:21:42Z</time>
      </trkpt>
      <trkpt lat="47.26358" lon="-0.1469">
        <ele>86.6</ele>
        <time>2026-06-20T06:21:43Z</time>
      </trkpt>
      <trkpt lat="47.26361" lon="-0.14694">
        <ele>86.8</ele>
        <time>2026-06-20T06:21:44Z</time>
      </trkpt>
      <trkpt lat="47.26362" lon="-0.14698">
        <ele>86.8</ele>
        <time>2026-06-20T06:21:45Z</time>
      </trkpt>
      <trkpt lat="47.26364" lon="-0.14702">
        <ele>86.8</ele>
        <time>2026-06-20T06:21:46Z</time>
      </trkpt>
      <trkpt lat="47.26366" lon="-0.14708">
        <ele>86.6</ele>
        <time>2026-06-20T06:21:47Z</time>
      </trkpt>
      <trkpt lat="47.26368" lon="-0.14713">
        <ele>86.6</ele>
        <time>2026-06-20T06:21:48Z</time>
      </trkpt>
      <trkpt lat="47.2637" lon="-0.14719">
        <ele>86.6</ele>
        <time>2026-06-20T06:21:49Z</time>
      </trkpt>
      <trkpt lat="47.26373" lon="-0.14724">
        <ele>86.4</ele>
        <time>2026-06-20T06:21:50Z</time>
      </trkpt>
      <trkpt lat="47.26375" lon="-0.14729">
        <ele>86.4</ele>
        <time>2026-06-20T06:21:51Z</time>
      </trkpt>
      <trkpt lat="47.26377" lon="-0.14734">
        <ele>86.6</ele>
        <time>2026-06-20T06:21:52Z</time>
      </trkpt>
      <trkpt lat="47.26379" lon="-0.14739">
        <ele>86.8</ele>
        <time>2026-06-20T06:21:53Z</time>
      </trkpt>
      <trkpt lat="47.26383" lon="-0.14742">
        <ele>86.8</ele>
        <time>2026-06-20T06:21:54Z</time>
      </trkpt>
      <trkpt lat="47.26387" lon="-0.14742">
        <ele>87</ele>
        <time>2026-06-20T06:21:55Z</time>
      </trkpt>
      <trkpt lat="47.26391" lon="-0.14741">
        <ele>87</ele>
        <time>2026-06-20T06:21:56Z</time>
      </trkpt>
      <trkpt lat="47.26395" lon="-0.1474">
        <ele>87</ele>
        <time>2026-06-20T06:21:57Z</time>
      </trkpt>
      <trkpt lat="47.26398" lon="-0.14738">
        <ele>87</ele>
        <time>2026-06-20T06:21:58Z</time>
      </trkpt>
      <trkpt lat="47.26402" lon="-0.14736">
        <ele>87.2</ele>
        <time>2026-06-20T06:21:59Z</time>
      </trkpt>
      <trkpt lat="47.26406" lon="-0.14735">
        <ele>87.2</ele>
        <time>2026-06-20T06:22:00Z</time>
      </trkpt>
      <trkpt lat="47.26411" lon="-0.14734">
        <ele>87.2</ele>
        <time>2026-06-20T06:22:01Z</time>
      </trkpt>
      <trkpt lat="47.26415" lon="-0.14732">
        <ele>87.4</ele>
        <time>2026-06-20T06:22:02Z</time>
      </trkpt>
      <trkpt lat="47.2642" lon="-0.14729">
        <ele>87.4</ele>
        <time>2026-06-20T06:22:03Z</time>
      </trkpt>
      <trkpt lat="47.26424" lon="-0.14728">
        <ele>87.4</ele>
        <time>2026-06-20T06:22:04Z</time>
      </trkpt>
      <trkpt lat="47.26428" lon="-0.14726">
        <ele>87.6</ele>
        <time>2026-06-20T06:22:05Z</time>
      </trkpt>
      <trkpt lat="47.26432" lon="-0.14724">
        <ele>87.6</ele>
        <time>2026-06-20T06:22:06Z</time>
      </trkpt>
      <trkpt lat="47.26436" lon="-0.14722">
        <ele>87.6</ele>
        <time>2026-06-20T06:22:07Z</time>
      </trkpt>
      <trkpt lat="47.2644" lon="-0.14721">
        <ele>87.8</ele>
        <time>2026-06-20T06:22:08Z</time>
      </trkpt>
      <trkpt lat="47.26445" lon="-0.14719">
        <ele>87.8</ele>
        <time>2026-06-20T06:22:09Z</time>
      </trkpt>
      <trkpt lat="47.2645" lon="-0.14717">
        <ele>87.8</ele>
        <time>2026-06-20T06:22:10Z</time>
      </trkpt>
      <trkpt lat="47.26454" lon="-0.14715">
        <ele>87.8</ele>
        <time>2026-06-20T06:22:11Z</time>
      </trkpt>
      <trkpt lat="47.26459" lon="-0.14713">
        <ele>87.6</ele>
        <time>2026-06-20T06:22:12Z</time>
      </trkpt>
      <trkpt lat="47.26463" lon="-0.14712">
        <ele>87.6</ele>
        <time>2026-06-20T06:22:13Z</time>
      </trkpt>
      <trkpt lat="47.26467" lon="-0.1471">
        <ele>87.6</ele>
        <time>2026-06-20T06:22:14Z</time>
      </trkpt>
      <trkpt lat="47.26472" lon="-0.14708">
        <ele>87.6</ele>
        <time>2026-06-20T06:22:15Z</time>
      </trkpt>
      <trkpt lat="47.26476" lon="-0.14706">
        <ele>87.6</ele>
        <time>2026-06-20T06:22:16Z</time>
      </trkpt>
      <trkpt lat="47.2648" lon="-0.14705">
        <ele>87.8</ele>
        <time>2026-06-20T06:22:17Z</time>
      </trkpt>
      <trkpt lat="47.26483" lon="-0.14707">
        <ele>87.8</ele>
        <time>2026-06-20T06:22:18Z</time>
      </trkpt>
      <trkpt lat="47.26484" lon="-0.1471">
        <ele>87.8</ele>
        <time>2026-06-20T06:22:19Z</time>
      </trkpt>
      <trkpt lat="47.26484" lon="-0.14714">
        <ele>87.8</ele>
        <time>2026-06-20T06:22:20Z</time>
      </trkpt>
      <trkpt lat="47.26483" lon="-0.14718">
        <ele>87.8</ele>
        <time>2026-06-20T06:22:21Z</time>
      </trkpt>
      <trkpt lat="47.2648" lon="-0.14722">
        <ele>87.8</ele>
        <time>2026-06-20T06:22:22Z</time>
      </trkpt>
      <trkpt lat="47.26479" lon="-0.14725">
        <ele>87.8</ele>
        <time>2026-06-20T06:22:23Z</time>
      </trkpt>
      <trkpt lat="47.26477" lon="-0.14731">
        <ele>87.6</ele>
        <time>2026-06-20T06:22:24Z</time>
      </trkpt>
      <trkpt lat="47.26475" lon="-0.14735">
        <ele>87.6</ele>
        <time>2026-06-20T06:22:25Z</time>
      </trkpt>
      <trkpt lat="47.26472" lon="-0.14741">
        <ele>87.4</ele>
        <time>2026-06-20T06:22:26Z</time>
      </trkpt>
      <trkpt lat="47.26469" lon="-0.14743">
        <ele>87.6</ele>
        <time>2026-06-20T06:22:27Z</time>
      </trkpt>
      <trkpt lat="47.26465" lon="-0.14745">
        <ele>87.6</ele>
        <time>2026-06-20T06:22:28Z</time>
      </trkpt>
      <trkpt lat="47.26462" lon="-0.14746">
        <ele>87.6</ele>
        <time>2026-06-20T06:22:29Z</time>
      </trkpt>
      <trkpt lat="47.26458" lon="-0.14744">
        <ele>87.6</ele>
        <time>2026-06-20T06:22:30Z</time>
      </trkpt>
      <trkpt lat="47.26455" lon="-0.14743">
        <ele>87.6</ele>
        <time>2026-06-20T06:22:31Z</time>
      </trkpt>
      <trkpt lat="47.2645" lon="-0.14744">
        <ele>87.6</ele>
        <time>2026-06-20T06:22:32Z</time>
      </trkpt>
      <trkpt lat="47.26445" lon="-0.14746">
        <ele>87.6</ele>
        <time>2026-06-20T06:22:33Z</time>
      </trkpt>
      <trkpt lat="47.26441" lon="-0.1475">
        <ele>87.6</ele>
        <time>2026-06-20T06:22:34Z</time>
      </trkpt>
      <trkpt lat="47.26438" lon="-0.14753">
        <ele>87.6</ele>
        <time>2026-06-20T06:22:35Z</time>
      </trkpt>
      <trkpt lat="47.26434" lon="-0.14757">
        <ele>87.6</ele>
        <time>2026-06-20T06:22:36Z</time>
      </trkpt>
      <trkpt lat="47.26431" lon="-0.14762">
        <ele>87.4</ele>
        <time>2026-06-20T06:22:37Z</time>
      </trkpt>
      <trkpt lat="47.26427" lon="-0.14768">
        <ele>87.4</ele>
        <time>2026-06-20T06:22:38Z</time>
      </trkpt>
      <trkpt lat="47.26422" lon="-0.14773">
        <ele>87.4</ele>
        <time>2026-06-20T06:22:39Z</time>
      </trkpt>
      <trkpt lat="47.26419" lon="-0.14779">
        <ele>87.2</ele>
        <time>2026-06-20T06:22:40Z</time>
      </trkpt>
      <trkpt lat="47.26415" lon="-0.14786">
        <ele>87.2</ele>
        <time>2026-06-20T06:22:41Z</time>
      </trkpt>
      <trkpt lat="47.26413" lon="-0.14793">
        <ele>87.2</ele>
        <time>2026-06-20T06:22:42Z</time>
      </trkpt>
      <trkpt lat="47.2641" lon="-0.148">
        <ele>87.2</ele>
        <time>2026-06-20T06:22:43Z</time>
      </trkpt>
      <trkpt lat="47.26407" lon="-0.14807">
        <ele>87</ele>
        <time>2026-06-20T06:22:44Z</time>
      </trkpt>
      <trkpt lat="47.26403" lon="-0.14812">
        <ele>87</ele>
        <time>2026-06-20T06:22:45Z</time>
      </trkpt>
      <trkpt lat="47.26399" lon="-0.14816">
        <ele>86.8</ele>
        <time>2026-06-20T06:22:46Z</time>
      </trkpt>
      <trkpt lat="47.26395" lon="-0.14821">
        <ele>86.8</ele>
        <time>2026-06-20T06:22:47Z</time>
      </trkpt>
      <trkpt lat="47.2639" lon="-0.14826">
        <ele>86.6</ele>
        <time>2026-06-20T06:22:48Z</time>
      </trkpt>
      <trkpt lat="47.26384" lon="-0.14832">
        <ele>86.4</ele>
        <time>2026-06-20T06:22:49Z</time>
      </trkpt>
      <trkpt lat="47.26378" lon="-0.14838">
        <ele>86</ele>
        <time>2026-06-20T06:22:50Z</time>
      </trkpt>
      <trkpt lat="47.26373" lon="-0.14844">
        <ele>85.8</ele>
        <time>2026-06-20T06:22:51Z</time>
      </trkpt>
      <trkpt lat="47.26368" lon="-0.14851">
        <ele>85.8</ele>
        <time>2026-06-20T06:22:52Z</time>
      </trkpt>
      <trkpt lat="47.26363" lon="-0.14857">
        <ele>85.4</ele>
        <time>2026-06-20T06:22:53Z</time>
      </trkpt>
      <trkpt lat="47.26357" lon="-0.14865">
        <ele>84.8</ele>
        <time>2026-06-20T06:22:54Z</time>
      </trkpt>
      <trkpt lat="47.26351" lon="-0.14874">
        <ele>84.2</ele>
        <time>2026-06-20T06:22:55Z</time>
      </trkpt>
      <trkpt lat="47.26346" lon="-0.14881">
        <ele>83.6</ele>
        <time>2026-06-20T06:22:56Z</time>
      </trkpt>
      <trkpt lat="47.2634" lon="-0.14891">
        <ele>83</ele>
        <time>2026-06-20T06:22:57Z</time>
      </trkpt>
      <trkpt lat="47.26334" lon="-0.14899">
        <ele>82.4</ele>
        <time>2026-06-20T06:22:58Z</time>
      </trkpt>
      <trkpt lat="47.26329" lon="-0.14906">
        <ele>81.8</ele>
        <time>2026-06-20T06:22:59Z</time>
      </trkpt>
      <trkpt lat="47.26322" lon="-0.14912">
        <ele>81.2</ele>
        <time>2026-06-20T06:23:00Z</time>
      </trkpt>
      <trkpt lat="47.26315" lon="-0.14917">
        <ele>80.6</ele>
        <time>2026-06-20T06:23:01Z</time>
      </trkpt>
      <trkpt lat="47.26308" lon="-0.14924">
        <ele>79.8</ele>
        <time>2026-06-20T06:23:02Z</time>
      </trkpt>
      <trkpt lat="47.26301" lon="-0.14932">
        <ele>79</ele>
        <time>2026-06-20T06:23:03Z</time>
      </trkpt>
      <trkpt lat="47.26294" lon="-0.1494">
        <ele>78</ele>
        <time>2026-06-20T06:23:04Z</time>
      </trkpt>
      <trkpt lat="47.26286" lon="-0.14947">
        <ele>77</ele>
        <time>2026-06-20T06:23:05Z</time>
      </trkpt>
      <trkpt lat="47.26277" lon="-0.14954">
        <ele>75.6</ele>
        <time>2026-06-20T06:23:06Z</time>
      </trkpt>
      <trkpt lat="47.2627" lon="-0.1496">
        <ele>74.6</ele>
        <time>2026-06-20T06:23:07Z</time>
      </trkpt>
      <trkpt lat="47.26263" lon="-0.14968">
        <ele>73.6</ele>
        <time>2026-06-20T06:23:08Z</time>
      </trkpt>
      <trkpt lat="47.26257" lon="-0.14975">
        <ele>72.8</ele>
        <time>2026-06-20T06:23:09Z</time>
      </trkpt>
      <trkpt lat="47.26251" lon="-0.14981">
        <ele>72.2</ele>
        <time>2026-06-20T06:23:10Z</time>
      </trkpt>
      <trkpt lat="47.26245" lon="-0.14988">
        <ele>71.6</ele>
        <time>2026-06-20T06:23:11Z</time>
      </trkpt>
      <trkpt lat="47.26239" lon="-0.14996">
        <ele>70.8</ele>
        <time>2026-06-20T06:23:12Z</time>
      </trkpt>
      <trkpt lat="47.26233" lon="-0.15005">
        <ele>70.2</ele>
        <time>2026-06-20T06:23:13Z</time>
      </trkpt>
      <trkpt lat="47.26227" lon="-0.15013">
        <ele>69.6</ele>
        <time>2026-06-20T06:23:14Z</time>
      </trkpt>
      <trkpt lat="47.26221" lon="-0.1502">
        <ele>69</ele>
        <time>2026-06-20T06:23:15Z</time>
      </trkpt>
      <trkpt lat="47.26215" lon="-0.15028">
        <ele>68.6</ele>
        <time>2026-06-20T06:23:16Z</time>
      </trkpt>
      <trkpt lat="47.26209" lon="-0.15036">
        <ele>68</ele>
        <time>2026-06-20T06:23:17Z</time>
      </trkpt>
      <trkpt lat="47.26203" lon="-0.15042">
        <ele>67.6</ele>
        <time>2026-06-20T06:23:18Z</time>
      </trkpt>
      <trkpt lat="47.26196" lon="-0.15047">
        <ele>67.2</ele>
        <time>2026-06-20T06:23:19Z</time>
      </trkpt>
      <trkpt lat="47.26189" lon="-0.15051">
        <ele>66.8</ele>
        <time>2026-06-20T06:23:20Z</time>
      </trkpt>
      <trkpt lat="47.26182" lon="-0.15055">
        <ele>66.6</ele>
        <time>2026-06-20T06:23:21Z</time>
      </trkpt>
      <trkpt lat="47.26176" lon="-0.15059">
        <ele>66.4</ele>
        <time>2026-06-20T06:23:22Z</time>
      </trkpt>
      <trkpt lat="47.2617" lon="-0.15062">
        <ele>66.2</ele>
        <time>2026-06-20T06:23:23Z</time>
      </trkpt>
      <trkpt lat="47.26163" lon="-0.15065">
        <ele>66.2</ele>
        <time>2026-06-20T06:23:24Z</time>
      </trkpt>
      <trkpt lat="47.26158" lon="-0.15068">
        <ele>66.2</ele>
        <time>2026-06-20T06:23:25Z</time>
      </trkpt>
      <trkpt lat="47.26153" lon="-0.1507">
        <ele>66.2</ele>
        <time>2026-06-20T06:23:26Z</time>
      </trkpt>
      <trkpt lat="47.26146" lon="-0.15074">
        <ele>66.2</ele>
        <time>2026-06-20T06:23:27Z</time>
      </trkpt>
      <trkpt lat="47.26141" lon="-0.15079">
        <ele>66</ele>
        <time>2026-06-20T06:23:28Z</time>
      </trkpt>
      <trkpt lat="47.26135" lon="-0.15083">
        <ele>66</ele>
        <time>2026-06-20T06:23:29Z</time>
      </trkpt>
      <trkpt lat="47.2613" lon="-0.15089">
        <ele>66</ele>
        <time>2026-06-20T06:23:30Z</time>
      </trkpt>
      <trkpt lat="47.26125" lon="-0.15094">
        <ele>65.8</ele>
        <time>2026-06-20T06:23:31Z</time>
      </trkpt>
      <trkpt lat="47.2612" lon="-0.15099">
        <ele>65.8</ele>
        <time>2026-06-20T06:23:32Z</time>
      </trkpt>
      <trkpt lat="47.26116" lon="-0.15104">
        <ele>65.6</ele>
        <time>2026-06-20T06:23:33Z</time>
      </trkpt>
      <trkpt lat="47.26111" lon="-0.15109">
        <ele>65.6</ele>
        <time>2026-06-20T06:23:34Z</time>
      </trkpt>
      <trkpt lat="47.26106" lon="-0.15114">
        <ele>65.4</ele>
        <time>2026-06-20T06:23:35Z</time>
      </trkpt>
      <trkpt lat="47.26102" lon="-0.15118">
        <ele>65.2</ele>
        <time>2026-06-20T06:23:36Z</time>
      </trkpt>
      <trkpt lat="47.26098" lon="-0.15123">
        <ele>65.2</ele>
        <time>2026-06-20T06:23:37Z</time>
      </trkpt>
      <trkpt lat="47.26094" lon="-0.15128">
        <ele>65</ele>
        <time>2026-06-20T06:23:38Z</time>
      </trkpt>
      <trkpt lat="47.26089" lon="-0.15134">
        <ele>64.8</ele>
        <time>2026-06-20T06:23:39Z</time>
      </trkpt>
      <trkpt lat="47.26084" lon="-0.1514">
        <ele>64.6</ele>
        <time>2026-06-20T06:23:40Z</time>
      </trkpt>
      <trkpt lat="47.26078" lon="-0.15146">
        <ele>64.6</ele>
        <time>2026-06-20T06:23:41Z</time>
      </trkpt>
      <trkpt lat="47.26073" lon="-0.15151">
        <ele>64.6</ele>
        <time>2026-06-20T06:23:42Z</time>
      </trkpt>
      <trkpt lat="47.26068" lon="-0.15157">
        <ele>64.6</ele>
        <time>2026-06-20T06:23:43Z</time>
      </trkpt>
      <trkpt lat="47.26064" lon="-0.15163">
        <ele>64.6</ele>
        <time>2026-06-20T06:23:44Z</time>
      </trkpt>
      <trkpt lat="47.2606" lon="-0.15169">
        <ele>64.8</ele>
        <time>2026-06-20T06:23:45Z</time>
      </trkpt>
      <trkpt lat="47.26055" lon="-0.15175">
        <ele>64.8</ele>
        <time>2026-06-20T06:23:46Z</time>
      </trkpt>
      <trkpt lat="47.26051" lon="-0.15181">
        <ele>65</ele>
        <time>2026-06-20T06:23:47Z</time>
      </trkpt>
      <trkpt lat="47.26046" lon="-0.15187">
        <ele>65</ele>
        <time>2026-06-20T06:23:48Z</time>
      </trkpt>
      <trkpt lat="47.26042" lon="-0.15192">
        <ele>65.2</ele>
        <time>2026-06-20T06:23:49Z</time>
      </trkpt>
      <trkpt lat="47.26038" lon="-0.15198">
        <ele>65.2</ele>
        <time>2026-06-20T06:23:50Z</time>
      </trkpt>
      <trkpt lat="47.26033" lon="-0.15203">
        <ele>65.4</ele>
        <time>2026-06-20T06:23:51Z</time>
      </trkpt>
      <trkpt lat="47.26028" lon="-0.15209">
        <ele>65.4</ele>
        <time>2026-06-20T06:23:52Z</time>
      </trkpt>
      <trkpt lat="47.26023" lon="-0.15215">
        <ele>65.6</ele>
        <time>2026-06-20T06:23:53Z</time>
      </trkpt>
      <trkpt lat="47.2602" lon="-0.15221">
        <ele>65.6</ele>
        <time>2026-06-20T06:23:54Z</time>
      </trkpt>
      <trkpt lat="47.26016" lon="-0.15226">
        <ele>65.8</ele>
        <time>2026-06-20T06:23:55Z</time>
      </trkpt>
      <trkpt lat="47.26012" lon="-0.1523">
        <ele>66</ele>
        <time>2026-06-20T06:23:56Z</time>
      </trkpt>
      <trkpt lat="47.26007" lon="-0.15235">
        <ele>66</ele>
        <time>2026-06-20T06:23:57Z</time>
      </trkpt>
      <trkpt lat="47.26004" lon="-0.1524">
        <ele>66.2</ele>
        <time>2026-06-20T06:23:58Z</time>
      </trkpt>
      <trkpt lat="47.26" lon="-0.15245">
        <ele>66.2</ele>
        <time>2026-06-20T06:23:59Z</time>
      </trkpt>
      <trkpt lat="47.25996" lon="-0.1525">
        <ele>66.4</ele>
        <time>2026-06-20T06:24:00Z</time>
      </trkpt>
      <trkpt lat="47.25992" lon="-0.15255">
        <ele>66.4</ele>
        <time>2026-06-20T06:24:01Z</time>
      </trkpt>
      <trkpt lat="47.25987" lon="-0.15259">
        <ele>66.4</ele>
        <time>2026-06-20T06:24:02Z</time>
      </trkpt>
      <trkpt lat="47.25983" lon="-0.15264">
        <ele>66.4</ele>
        <time>2026-06-20T06:24:03Z</time>
      </trkpt>
      <trkpt lat="47.25978" lon="-0.15269">
        <ele>66.4</ele>
        <time>2026-06-20T06:24:04Z</time>
      </trkpt>
      <trkpt lat="47.25972" lon="-0.15275">
        <ele>66.2</ele>
        <time>2026-06-20T06:24:05Z</time>
      </trkpt>
      <trkpt lat="47.25967" lon="-0.15283">
        <ele>66</ele>
        <time>2026-06-20T06:24:06Z</time>
      </trkpt>
      <trkpt lat="47.25961" lon="-0.15289">
        <ele>65.8</ele>
        <time>2026-06-20T06:24:07Z</time>
      </trkpt>
      <trkpt lat="47.25956" lon="-0.15295">
        <ele>65.6</ele>
        <time>2026-06-20T06:24:08Z</time>
      </trkpt>
      <trkpt lat="47.25949" lon="-0.15303">
        <ele>65.4</ele>
        <time>2026-06-20T06:24:09Z</time>
      </trkpt>
      <trkpt lat="47.25942" lon="-0.15309">
        <ele>65.2</ele>
        <time>2026-06-20T06:24:10Z</time>
      </trkpt>
      <trkpt lat="47.25937" lon="-0.15314">
        <ele>65</ele>
        <time>2026-06-20T06:24:11Z</time>
      </trkpt>
      <trkpt lat="47.25932" lon="-0.15317">
        <ele>64.8</ele>
        <time>2026-06-20T06:24:12Z</time>
      </trkpt>
      <trkpt lat="47.25927" lon="-0.1532">
        <ele>64.6</ele>
        <time>2026-06-20T06:24:13Z</time>
      </trkpt>
      <trkpt lat="47.25922" lon="-0.15322">
        <ele>64.4</ele>
        <time>2026-06-20T06:24:14Z</time>
      </trkpt>
      <trkpt lat="47.25916" lon="-0.15325">
        <ele>64.4</ele>
        <time>2026-06-20T06:24:15Z</time>
      </trkpt>
      <trkpt lat="47.25912" lon="-0.15327">
        <ele>64.4</ele>
        <time>2026-06-20T06:24:16Z</time>
      </trkpt>
      <trkpt lat="47.25905" lon="-0.15329">
        <ele>64.4</ele>
        <time>2026-06-20T06:24:17Z</time>
      </trkpt>
      <trkpt lat="47.259" lon="-0.15331">
        <ele>64.4</ele>
        <time>2026-06-20T06:24:18Z</time>
      </trkpt>
      <trkpt lat="47.25895" lon="-0.15333">
        <ele>64.6</ele>
        <time>2026-06-20T06:24:19Z</time>
      </trkpt>
      <trkpt lat="47.25889" lon="-0.15335">
        <ele>64.6</ele>
        <time>2026-06-20T06:24:20Z</time>
      </trkpt>
      <trkpt lat="47.25884" lon="-0.15336">
        <ele>64.6</ele>
        <time>2026-06-20T06:24:21Z</time>
      </trkpt>
      <trkpt lat="47.25878" lon="-0.15336">
        <ele>64.6</ele>
        <time>2026-06-20T06:24:22Z</time>
      </trkpt>
      <trkpt lat="47.25872" lon="-0.15336">
        <ele>64.4</ele>
        <time>2026-06-20T06:24:23Z</time>
      </trkpt>
      <trkpt lat="47.25866" lon="-0.15337">
        <ele>64.4</ele>
        <time>2026-06-20T06:24:24Z</time>
      </trkpt>
      <trkpt lat="47.25861" lon="-0.15338">
        <ele>64.4</ele>
        <time>2026-06-20T06:24:25Z</time>
      </trkpt>
      <trkpt lat="47.25855" lon="-0.15338">
        <ele>64.2</ele>
        <time>2026-06-20T06:24:26Z</time>
      </trkpt>
      <trkpt lat="47.25849" lon="-0.15339">
        <ele>64.2</ele>
        <time>2026-06-20T06:24:27Z</time>
      </trkpt>
      <trkpt lat="47.25844" lon="-0.1534">
        <ele>64</ele>
        <time>2026-06-20T06:24:28Z</time>
      </trkpt>
      <trkpt lat="47.25838" lon="-0.15341">
        <ele>64</ele>
        <time>2026-06-20T06:24:29Z</time>
      </trkpt>
      <trkpt lat="47.25833" lon="-0.15342">
        <ele>63.8</ele>
        <time>2026-06-20T06:24:30Z</time>
      </trkpt>
      <trkpt lat="47.25828" lon="-0.15345">
        <ele>63.8</ele>
        <time>2026-06-20T06:24:31Z</time>
      </trkpt>
      <trkpt lat="47.25822" lon="-0.15348">
        <ele>63.8</ele>
        <time>2026-06-20T06:24:32Z</time>
      </trkpt>
      <trkpt lat="47.25817" lon="-0.15351">
        <ele>63.8</ele>
        <time>2026-06-20T06:24:33Z</time>
      </trkpt>
      <trkpt lat="47.25813" lon="-0.15353">
        <ele>63.8</ele>
        <time>2026-06-20T06:24:34Z</time>
      </trkpt>
      <trkpt lat="47.25807" lon="-0.15357">
        <ele>63.8</ele>
        <time>2026-06-20T06:24:35Z</time>
      </trkpt>
      <trkpt lat="47.25802" lon="-0.1536">
        <ele>63.8</ele>
        <time>2026-06-20T06:24:36Z</time>
      </trkpt>
      <trkpt lat="47.25797" lon="-0.15364">
        <ele>63.8</ele>
        <time>2026-06-20T06:24:37Z</time>
      </trkpt>
      <trkpt lat="47.25792" lon="-0.15366">
        <ele>63.8</ele>
        <time>2026-06-20T06:24:38Z</time>
      </trkpt>
      <trkpt lat="47.25787" lon="-0.15369">
        <ele>63.8</ele>
        <time>2026-06-20T06:24:39Z</time>
      </trkpt>
      <trkpt lat="47.25783" lon="-0.15371">
        <ele>64</ele>
        <time>2026-06-20T06:24:40Z</time>
      </trkpt>
      <trkpt lat="47.25778" lon="-0.15372">
        <ele>64</ele>
        <time>2026-06-20T06:24:41Z</time>
      </trkpt>
      <trkpt lat="47.25773" lon="-0.15372">
        <ele>64</ele>
        <time>2026-06-20T06:24:42Z</time>
      </trkpt>
      <trkpt lat="47.25768" lon="-0.15373">
        <ele>64.2</ele>
        <time>2026-06-20T06:24:43Z</time>
      </trkpt>
      <trkpt lat="47.25764" lon="-0.15373">
        <ele>64.4</ele>
        <time>2026-06-20T06:24:44Z</time>
      </trkpt>
      <trkpt lat="47.2576" lon="-0.15373">
        <ele>64.6</ele>
        <time>2026-06-20T06:24:45Z</time>
      </trkpt>
      <trkpt lat="47.25756" lon="-0.15373">
        <ele>64.8</ele>
        <time>2026-06-20T06:24:46Z</time>
      </trkpt>
      <trkpt lat="47.25753" lon="-0.15373">
        <ele>65.2</ele>
        <time>2026-06-20T06:24:47Z</time>
      </trkpt>
      <trkpt lat="47.25748" lon="-0.15373">
        <ele>65.2</ele>
        <time>2026-06-20T06:24:48Z</time>
      </trkpt>
      <trkpt lat="47.25743" lon="-0.15373">
        <ele>65.2</ele>
        <time>2026-06-20T06:24:49Z</time>
      </trkpt>
      <trkpt lat="47.2574" lon="-0.15373">
        <ele>65.2</ele>
        <time>2026-06-20T06:24:50Z</time>
      </trkpt>
      <trkpt lat="47.25734" lon="-0.15373">
        <ele>65.2</ele>
        <time>2026-06-20T06:24:51Z</time>
      </trkpt>
      <trkpt lat="47.2573" lon="-0.15372">
        <ele>65</ele>
        <time>2026-06-20T06:24:52Z</time>
      </trkpt>
      <trkpt lat="47.25725" lon="-0.15372">
        <ele>64.8</ele>
        <time>2026-06-20T06:24:53Z</time>
      </trkpt>
      <trkpt lat="47.25721" lon="-0.15372">
        <ele>64.6</ele>
        <time>2026-06-20T06:24:54Z</time>
      </trkpt>
      <trkpt lat="47.25715" lon="-0.15371">
        <ele>64.6</ele>
        <time>2026-06-20T06:24:55Z</time>
      </trkpt>
      <trkpt lat="47.25712" lon="-0.1537">
        <ele>64.4</ele>
        <time>2026-06-20T06:24:56Z</time>
      </trkpt>
      <trkpt lat="47.25706" lon="-0.15368">
        <ele>64.4</ele>
        <time>2026-06-20T06:24:57Z</time>
      </trkpt>
      <trkpt lat="47.25702" lon="-0.15365">
        <ele>64.4</ele>
        <time>2026-06-20T06:24:58Z</time>
      </trkpt>
      <trkpt lat="47.25697" lon="-0.15363">
        <ele>64.4</ele>
        <time>2026-06-20T06:24:59Z</time>
      </trkpt>
      <trkpt lat="47.25693" lon="-0.15361">
        <ele>64.4</ele>
        <time>2026-06-20T06:25:00Z</time>
      </trkpt>
      <trkpt lat="47.25687" lon="-0.15359">
        <ele>64.4</ele>
        <time>2026-06-20T06:25:01Z</time>
      </trkpt>
      <trkpt lat="47.25682" lon="-0.15356">
        <ele>64.4</ele>
        <time>2026-06-20T06:25:02Z</time>
      </trkpt>
      <trkpt lat="47.25678" lon="-0.15354">
        <ele>64.2</ele>
        <time>2026-06-20T06:25:03Z</time>
      </trkpt>
      <trkpt lat="47.25674" lon="-0.15351">
        <ele>64.2</ele>
        <time>2026-06-20T06:25:04Z</time>
      </trkpt>
      <trkpt lat="47.25674" lon="-0.15351">
        <ele>64.2</ele>
        <time>2026-06-20T06:25:05Z</time>
      </trkpt>
      <trkpt lat="47.25667" lon="-0.15344">
        <ele>64.2</ele>
        <time>2026-06-20T06:25:06Z</time>
      </trkpt>
      <trkpt lat="47.25665" lon="-0.1534">
        <ele>64.4</ele>
        <time>2026-06-20T06:25:07Z</time>
      </trkpt>
      <trkpt lat="47.25665" lon="-0.15336">
        <ele>64.4</ele>
        <time>2026-06-20T06:25:08Z</time>
      </trkpt>
      <trkpt lat="47.25667" lon="-0.15332">
        <ele>64.6</ele>
        <time>2026-06-20T06:25:09Z</time>
      </trkpt>
      <trkpt lat="47.25669" lon="-0.15328">
        <ele>64.8</ele>
        <time>2026-06-20T06:25:10Z</time>
      </trkpt>
      <trkpt lat="47.25672" lon="-0.15324">
        <ele>65</ele>
        <time>2026-06-20T06:25:11Z</time>
      </trkpt>
      <trkpt lat="47.25674" lon="-0.15319">
        <ele>65</ele>
        <time>2026-06-20T06:25:12Z</time>
      </trkpt>
      <trkpt lat="47.25677" lon="-0.15315">
        <ele>65.2</ele>
        <time>2026-06-20T06:25:13Z</time>
      </trkpt>
      <trkpt lat="47.2568" lon="-0.1531">
        <ele>65.2</ele>
        <time>2026-06-20T06:25:14Z</time>
      </trkpt>
      <trkpt lat="47.25683" lon="-0.15306">
        <ele>65.2</ele>
        <time>2026-06-20T06:25:15Z</time>
      </trkpt>
      <trkpt lat="47.25685" lon="-0.15302">
        <ele>65.2</ele>
        <time>2026-06-20T06:25:16Z</time>
      </trkpt>
      <trkpt lat="47.25688" lon="-0.15297">
        <ele>65.2</ele>
        <time>2026-06-20T06:25:17Z</time>
      </trkpt>
      <trkpt lat="47.25691" lon="-0.15293">
        <ele>65.4</ele>
        <time>2026-06-20T06:25:18Z</time>
      </trkpt>
      <trkpt lat="47.25694" lon="-0.15289">
        <ele>65.4</ele>
        <time>2026-06-20T06:25:19Z</time>
      </trkpt>
      <trkpt lat="47.25694" lon="-0.15289">
        <ele>65.6</ele>
        <time>2026-06-20T06:25:20Z</time>
      </trkpt>
      <trkpt lat="47.25696" lon="-0.15284">
        <ele>65.8</ele>
        <time>2026-06-20T06:25:21Z</time>
      </trkpt>
      <trkpt lat="47.25701" lon="-0.15277">
        <ele>66</ele>
        <time>2026-06-20T06:25:22Z</time>
      </trkpt>
      <trkpt lat="47.25704" lon="-0.15272">
        <ele>66.2</ele>
        <time>2026-06-20T06:25:23Z</time>
      </trkpt>
      <trkpt lat="47.25707" lon="-0.15269">
        <ele>66.2</ele>
        <time>2026-06-20T06:25:24Z</time>
      </trkpt>
      <trkpt lat="47.25707" lon="-0.15269">
        <ele>66.4</ele>
        <time>2026-06-20T06:25:25Z</time>
      </trkpt>
      <trkpt lat="47.25711" lon="-0.15261">
        <ele>66.4</ele>
        <time>2026-06-20T06:25:26Z</time>
      </trkpt>
      <trkpt lat="47.25714" lon="-0.15257">
        <ele>66.6</ele>
        <time>2026-06-20T06:25:27Z</time>
      </trkpt>
      <trkpt lat="47.25717" lon="-0.15254">
        <ele>66.6</ele>
        <time>2026-06-20T06:25:28Z</time>
      </trkpt>
      <trkpt lat="47.25717" lon="-0.15254">
        <ele>66.8</ele>
        <time>2026-06-20T06:25:29Z</time>
      </trkpt>
      <trkpt lat="47.25722" lon="-0.15245">
        <ele>67</ele>
        <time>2026-06-20T06:25:30Z</time>
      </trkpt>
      <trkpt lat="47.25722" lon="-0.15245">
        <ele>67</ele>
        <time>2026-06-20T06:25:31Z</time>
      </trkpt>
      <trkpt lat="47.25724" lon="-0.15241">
        <ele>67.2</ele>
        <time>2026-06-20T06:25:32Z</time>
      </trkpt>
      <trkpt lat="47.25728" lon="-0.15235">
        <ele>67.2</ele>
        <time>2026-06-20T06:25:33Z</time>
      </trkpt>
      <trkpt lat="47.25731" lon="-0.1523">
        <ele>67.4</ele>
        <time>2026-06-20T06:25:34Z</time>
      </trkpt>
      <trkpt lat="47.25733" lon="-0.15225">
        <ele>67.6</ele>
        <time>2026-06-20T06:25:35Z</time>
      </trkpt>
      <trkpt lat="47.25734" lon="-0.1522">
        <ele>67.8</ele>
        <time>2026-06-20T06:25:36Z</time>
      </trkpt>
      <trkpt lat="47.25735" lon="-0.15215">
        <ele>68</ele>
        <time>2026-06-20T06:25:37Z</time>
      </trkpt>
      <trkpt lat="47.25736" lon="-0.1521">
        <ele>68.2</ele>
        <time>2026-06-20T06:25:38Z</time>
      </trkpt>
      <trkpt lat="47.25737" lon="-0.15206">
        <ele>68.4</ele>
        <time>2026-06-20T06:25:39Z</time>
      </trkpt>
      <trkpt lat="47.25737" lon="-0.15206">
        <ele>68.6</ele>
        <time>2026-06-20T06:25:40Z</time>
      </trkpt>
      <trkpt lat="47.25739" lon="-0.15197">
        <ele>69</ele>
        <time>2026-06-20T06:25:41Z</time>
      </trkpt>
      <trkpt lat="47.25739" lon="-0.15197">
        <ele>69.2</ele>
        <time>2026-06-20T06:25:42Z</time>
      </trkpt>
      <trkpt lat="47.25739" lon="-0.1519">
        <ele>69.4</ele>
        <time>2026-06-20T06:25:43Z</time>
      </trkpt>
      <trkpt lat="47.2574" lon="-0.15186">
        <ele>69.8</ele>
        <time>2026-06-20T06:25:44Z</time>
      </trkpt>
      <trkpt lat="47.25741" lon="-0.15181">
        <ele>70.2</ele>
        <time>2026-06-20T06:25:45Z</time>
      </trkpt>
      <trkpt lat="47.25742" lon="-0.15177">
        <ele>70.4</ele>
        <time>2026-06-20T06:25:46Z</time>
      </trkpt>
      <trkpt lat="47.25743" lon="-0.15173">
        <ele>70.8</ele>
        <time>2026-06-20T06:25:47Z</time>
      </trkpt>
      <trkpt lat="47.25744" lon="-0.15168">
        <ele>71</ele>
        <time>2026-06-20T06:25:48Z</time>
      </trkpt>
      <trkpt lat="47.25744" lon="-0.15164">
        <ele>71.4</ele>
        <time>2026-06-20T06:25:49Z</time>
      </trkpt>
      <trkpt lat="47.25744" lon="-0.15164">
        <ele>71.6</ele>
        <time>2026-06-20T06:25:50Z</time>
      </trkpt>
      <trkpt lat="47.25746" lon="-0.15156">
        <ele>72</ele>
        <time>2026-06-20T06:25:51Z</time>
      </trkpt>
      <trkpt lat="47.25746" lon="-0.15153">
        <ele>72.2</ele>
        <time>2026-06-20T06:25:52Z</time>
      </trkpt>
      <trkpt lat="47.25747" lon="-0.15149">
        <ele>72.4</ele>
        <time>2026-06-20T06:25:53Z</time>
      </trkpt>
      <trkpt lat="47.25749" lon="-0.15145">
        <ele>72.8</ele>
        <time>2026-06-20T06:25:54Z</time>
      </trkpt>
      <trkpt lat="47.2575" lon="-0.15142">
        <ele>73</ele>
        <time>2026-06-20T06:25:55Z</time>
      </trkpt>
      <trkpt lat="47.25752" lon="-0.15138">
        <ele>73.2</ele>
        <time>2026-06-20T06:25:56Z</time>
      </trkpt>
      <trkpt lat="47.25754" lon="-0.15134">
        <ele>73.2</ele>
        <time>2026-06-20T06:25:57Z</time>
      </trkpt>
      <trkpt lat="47.25756" lon="-0.15131">
        <ele>73.4</ele>
        <time>2026-06-20T06:25:58Z</time>
      </trkpt>
      <trkpt lat="47.25758" lon="-0.15127">
        <ele>73.6</ele>
        <time>2026-06-20T06:25:59Z</time>
      </trkpt>
      <trkpt lat="47.2576" lon="-0.15123">
        <ele>73.8</ele>
        <time>2026-06-20T06:26:00Z</time>
      </trkpt>
      <trkpt lat="47.25762" lon="-0.1512">
        <ele>74</ele>
        <time>2026-06-20T06:26:01Z</time>
      </trkpt>
      <trkpt lat="47.25764" lon="-0.15116">
        <ele>74</ele>
        <time>2026-06-20T06:26:02Z</time>
      </trkpt>
      <trkpt lat="47.25767" lon="-0.15112">
        <ele>74.2</ele>
        <time>2026-06-20T06:26:03Z</time>
      </trkpt>
      <trkpt lat="47.25769" lon="-0.15109">
        <ele>74.2</ele>
        <time>2026-06-20T06:26:04Z</time>
      </trkpt>
      <trkpt lat="47.25771" lon="-0.15105">
        <ele>74.4</ele>
        <time>2026-06-20T06:26:05Z</time>
      </trkpt>
      <trkpt lat="47.25773" lon="-0.15101">
        <ele>74.4</ele>
        <time>2026-06-20T06:26:06Z</time>
      </trkpt>
      <trkpt lat="47.25776" lon="-0.15097">
        <ele>74.4</ele>
        <time>2026-06-20T06:26:07Z</time>
      </trkpt>
      <trkpt lat="47.25778" lon="-0.15093">
        <ele>74.6</ele>
        <time>2026-06-20T06:26:08Z</time>
      </trkpt>
      <trkpt lat="47.25781" lon="-0.15089">
        <ele>74.6</ele>
        <time>2026-06-20T06:26:09Z</time>
      </trkpt>
      <trkpt lat="47.25783" lon="-0.15084">
        <ele>74.6</ele>
        <time>2026-06-20T06:26:10Z</time>
      </trkpt>
      <trkpt lat="47.25786" lon="-0.1508">
        <ele>74.8</ele>
        <time>2026-06-20T06:26:11Z</time>
      </trkpt>
      <trkpt lat="47.25788" lon="-0.15075">
        <ele>74.8</ele>
        <time>2026-06-20T06:26:12Z</time>
      </trkpt>
      <trkpt lat="47.2579" lon="-0.15069">
        <ele>74.8</ele>
        <time>2026-06-20T06:26:13Z</time>
      </trkpt>
      <trkpt lat="47.25792" lon="-0.15064">
        <ele>74.8</ele>
        <time>2026-06-20T06:26:14Z</time>
      </trkpt>
      <trkpt lat="47.25794" lon="-0.15058">
        <ele>74.8</ele>
        <time>2026-06-20T06:26:15Z</time>
      </trkpt>
      <trkpt lat="47.25795" lon="-0.15051">
        <ele>74.8</ele>
        <time>2026-06-20T06:26:16Z</time>
      </trkpt>
      <trkpt lat="47.25796" lon="-0.15045">
        <ele>74.8</ele>
        <time>2026-06-20T06:26:17Z</time>
      </trkpt>
      <trkpt lat="47.25797" lon="-0.15039">
        <ele>74.8</ele>
        <time>2026-06-20T06:26:18Z</time>
      </trkpt>
      <trkpt lat="47.25799" lon="-0.15033">
        <ele>75</ele>
        <time>2026-06-20T06:26:19Z</time>
      </trkpt>
      <trkpt lat="47.258" lon="-0.15028">
        <ele>75</ele>
        <time>2026-06-20T06:26:20Z</time>
      </trkpt>
      <trkpt lat="47.25801" lon="-0.15022">
        <ele>75</ele>
        <time>2026-06-20T06:26:21Z</time>
      </trkpt>
      <trkpt lat="47.25802" lon="-0.15016">
        <ele>75</ele>
        <time>2026-06-20T06:26:22Z</time>
      </trkpt>
      <trkpt lat="47.25803" lon="-0.1501">
        <ele>75.2</ele>
        <time>2026-06-20T06:26:23Z</time>
      </trkpt>
      <trkpt lat="47.25804" lon="-0.15003">
        <ele>75.2</ele>
        <time>2026-06-20T06:26:24Z</time>
      </trkpt>
      <trkpt lat="47.25806" lon="-0.14997">
        <ele>75.2</ele>
        <time>2026-06-20T06:26:25Z</time>
      </trkpt>
      <trkpt lat="47.25807" lon="-0.14991">
        <ele>75.2</ele>
        <time>2026-06-20T06:26:26Z</time>
      </trkpt>
      <trkpt lat="47.25808" lon="-0.14984">
        <ele>75.2</ele>
        <time>2026-06-20T06:26:27Z</time>
      </trkpt>
      <trkpt lat="47.2581" lon="-0.14978">
        <ele>75.2</ele>
        <time>2026-06-20T06:26:28Z</time>
      </trkpt>
      <trkpt lat="47.25811" lon="-0.14971">
        <ele>75.2</ele>
        <time>2026-06-20T06:26:29Z</time>
      </trkpt>
      <trkpt lat="47.25812" lon="-0.14965">
        <ele>75.4</ele>
        <time>2026-06-20T06:26:30Z</time>
      </trkpt>
      <trkpt lat="47.25814" lon="-0.14958">
        <ele>75.4</ele>
        <time>2026-06-20T06:26:31Z</time>
      </trkpt>
      <trkpt lat="47.25816" lon="-0.14952">
        <ele>75.4</ele>
        <time>2026-06-20T06:26:32Z</time>
      </trkpt>
      <trkpt lat="47.25817" lon="-0.14945">
        <ele>75.4</ele>
        <time>2026-06-20T06:26:33Z</time>
      </trkpt>
      <trkpt lat="47.25819" lon="-0.14939">
        <ele>75.4</ele>
        <time>2026-06-20T06:26:34Z</time>
      </trkpt>
      <trkpt lat="47.2582" lon="-0.14932">
        <ele>75.4</ele>
        <time>2026-06-20T06:26:35Z</time>
      </trkpt>
      <trkpt lat="47.25822" lon="-0.14925">
        <ele>75.4</ele>
        <time>2026-06-20T06:26:36Z</time>
      </trkpt>
      <trkpt lat="47.25824" lon="-0.14918">
        <ele>75.4</ele>
        <time>2026-06-20T06:26:37Z</time>
      </trkpt>
      <trkpt lat="47.25826" lon="-0.14911">
        <ele>75.6</ele>
        <time>2026-06-20T06:26:38Z</time>
      </trkpt>
      <trkpt lat="47.25827" lon="-0.14904">
        <ele>75.6</ele>
        <time>2026-06-20T06:26:39Z</time>
      </trkpt>
      <trkpt lat="47.25829" lon="-0.14897">
        <ele>75.6</ele>
        <time>2026-06-20T06:26:40Z</time>
      </trkpt>
      <trkpt lat="47.2583" lon="-0.1489">
        <ele>75.6</ele>
        <time>2026-06-20T06:26:41Z</time>
      </trkpt>
      <trkpt lat="47.25831" lon="-0.14883">
        <ele>75.6</ele>
        <time>2026-06-20T06:26:42Z</time>
      </trkpt>
      <trkpt lat="47.25832" lon="-0.14876">
        <ele>75.8</ele>
        <time>2026-06-20T06:26:43Z</time>
      </trkpt>
      <trkpt lat="47.25833" lon="-0.1487">
        <ele>75.8</ele>
        <time>2026-06-20T06:26:44Z</time>
      </trkpt>
      <trkpt lat="47.25834" lon="-0.14863">
        <ele>76</ele>
        <time>2026-06-20T06:26:45Z</time>
      </trkpt>
      <trkpt lat="47.25835" lon="-0.14856">
        <ele>76.2</ele>
        <time>2026-06-20T06:26:46Z</time>
      </trkpt>
      <trkpt lat="47.25835" lon="-0.1485">
        <ele>76.4</ele>
        <time>2026-06-20T06:26:47Z</time>
      </trkpt>
      <trkpt lat="47.25835" lon="-0.1485">
        <ele>76.6</ele>
        <time>2026-06-20T06:26:48Z</time>
      </trkpt>
      <trkpt lat="47.25837" lon="-0.14837">
        <ele>76.8</ele>
        <time>2026-06-20T06:26:49Z</time>
      </trkpt>
      <trkpt lat="47.25838" lon="-0.14831">
        <ele>77</ele>
        <time>2026-06-20T06:26:50Z</time>
      </trkpt>
      <trkpt lat="47.25839" lon="-0.14824">
        <ele>77.2</ele>
        <time>2026-06-20T06:26:51Z</time>
      </trkpt>
      <trkpt lat="47.2584" lon="-0.14818">
        <ele>77.6</ele>
        <time>2026-06-20T06:26:52Z</time>
      </trkpt>
      <trkpt lat="47.2584" lon="-0.14812">
        <ele>77.8</ele>
        <time>2026-06-20T06:26:53Z</time>
      </trkpt>
      <trkpt lat="47.25841" lon="-0.14806">
        <ele>78</ele>
        <time>2026-06-20T06:26:54Z</time>
      </trkpt>
      <trkpt lat="47.25841" lon="-0.148">
        <ele>78.2</ele>
        <time>2026-06-20T06:26:55Z</time>
      </trkpt>
      <trkpt lat="47.25841" lon="-0.148">
        <ele>78.4</ele>
        <time>2026-06-20T06:26:56Z</time>
      </trkpt>
      <trkpt lat="47.25842" lon="-0.14787">
        <ele>78.6</ele>
        <time>2026-06-20T06:26:57Z</time>
      </trkpt>
      <trkpt lat="47.25843" lon="-0.14781">
        <ele>78.8</ele>
        <time>2026-06-20T06:26:58Z</time>
      </trkpt>
      <trkpt lat="47.25843" lon="-0.14775">
        <ele>79</ele>
        <time>2026-06-20T06:26:59Z</time>
      </trkpt>
      <trkpt lat="47.25843" lon="-0.14768">
        <ele>79</ele>
        <time>2026-06-20T06:27:00Z</time>
      </trkpt>
      <trkpt lat="47.25844" lon="-0.14762">
        <ele>79.2</ele>
        <time>2026-06-20T06:27:01Z</time>
      </trkpt>
      <trkpt lat="47.25844" lon="-0.14755">
        <ele>79.2</ele>
        <time>2026-06-20T06:27:02Z</time>
      </trkpt>
      <trkpt lat="47.25845" lon="-0.14749">
        <ele>79.4</ele>
        <time>2026-06-20T06:27:03Z</time>
      </trkpt>
      <trkpt lat="47.25847" lon="-0.14743">
        <ele>79.4</ele>
        <time>2026-06-20T06:27:04Z</time>
      </trkpt>
      <trkpt lat="47.25849" lon="-0.14737">
        <ele>79.6</ele>
        <time>2026-06-20T06:27:05Z</time>
      </trkpt>
      <trkpt lat="47.25852" lon="-0.14732">
        <ele>79.6</ele>
        <time>2026-06-20T06:27:06Z</time>
      </trkpt>
      <trkpt lat="47.25854" lon="-0.14726">
        <ele>79.8</ele>
        <time>2026-06-20T06:27:07Z</time>
      </trkpt>
      <trkpt lat="47.25856" lon="-0.1472">
        <ele>79.8</ele>
        <time>2026-06-20T06:27:08Z</time>
      </trkpt>
      <trkpt lat="47.25857" lon="-0.14714">
        <ele>80</ele>
        <time>2026-06-20T06:27:09Z</time>
      </trkpt>
      <trkpt lat="47.25858" lon="-0.14708">
        <ele>80.2</ele>
        <time>2026-06-20T06:27:10Z</time>
      </trkpt>
      <trkpt lat="47.2586" lon="-0.14702">
        <ele>80.2</ele>
        <time>2026-06-20T06:27:11Z</time>
      </trkpt>
      <trkpt lat="47.25862" lon="-0.14696">
        <ele>80.4</ele>
        <time>2026-06-20T06:27:12Z</time>
      </trkpt>
      <trkpt lat="47.25864" lon="-0.14691">
        <ele>80.6</ele>
        <time>2026-06-20T06:27:13Z</time>
      </trkpt>
      <trkpt lat="47.25867" lon="-0.14686">
        <ele>80.8</ele>
        <time>2026-06-20T06:27:14Z</time>
      </trkpt>
      <trkpt lat="47.25869" lon="-0.14681">
        <ele>80.8</ele>
        <time>2026-06-20T06:27:15Z</time>
      </trkpt>
      <trkpt lat="47.25872" lon="-0.14676">
        <ele>81</ele>
        <time>2026-06-20T06:27:16Z</time>
      </trkpt>
      <trkpt lat="47.25875" lon="-0.14671">
        <ele>81</ele>
        <time>2026-06-20T06:27:17Z</time>
      </trkpt>
      <trkpt lat="47.25875" lon="-0.14671">
        <ele>81.2</ele>
        <time>2026-06-20T06:27:18Z</time>
      </trkpt>
      <trkpt lat="47.2588" lon="-0.14661">
        <ele>81.2</ele>
        <time>2026-06-20T06:27:19Z</time>
      </trkpt>
      <trkpt lat="47.2588" lon="-0.14661">
        <ele>81.4</ele>
        <time>2026-06-20T06:27:20Z</time>
      </trkpt>
      <trkpt lat="47.25885" lon="-0.1465">
        <ele>81.4</ele>
        <time>2026-06-20T06:27:21Z</time>
      </trkpt>
      <trkpt lat="47.25887" lon="-0.14644">
        <ele>81.4</ele>
        <time>2026-06-20T06:27:22Z</time>
      </trkpt>
      <trkpt lat="47.25889" lon="-0.14638">
        <ele>81.4</ele>
        <time>2026-06-20T06:27:23Z</time>
      </trkpt>
      <trkpt lat="47.25889" lon="-0.14638">
        <ele>81.4</ele>
        <time>2026-06-20T06:27:24Z</time>
      </trkpt>
      <trkpt lat="47.25892" lon="-0.14624">
        <ele>81.2</ele>
        <time>2026-06-20T06:27:25Z</time>
      </trkpt>
      <trkpt lat="47.25893" lon="-0.14616">
        <ele>81</ele>
        <time>2026-06-20T06:27:26Z</time>
      </trkpt>
      <trkpt lat="47.25894" lon="-0.14609">
        <ele>80.6</ele>
        <time>2026-06-20T06:27:27Z</time>
      </trkpt>
      <trkpt lat="47.25895" lon="-0.14601">
        <ele>80.4</ele>
        <time>2026-06-20T06:27:28Z</time>
      </trkpt>
      <trkpt lat="47.25895" lon="-0.14593">
        <ele>80.2</ele>
        <time>2026-06-20T06:27:29Z</time>
      </trkpt>
      <trkpt lat="47.25896" lon="-0.14585">
        <ele>80</ele>
        <time>2026-06-20T06:27:30Z</time>
      </trkpt>
      <trkpt lat="47.25896" lon="-0.14577">
        <ele>80</ele>
        <time>2026-06-20T06:27:31Z</time>
      </trkpt>
      <trkpt lat="47.25896" lon="-0.14569">
        <ele>80</ele>
        <time>2026-06-20T06:27:32Z</time>
      </trkpt>
      <trkpt lat="47.25894" lon="-0.14561">
        <ele>80</ele>
        <time>2026-06-20T06:27:33Z</time>
      </trkpt>
      <trkpt lat="47.25891" lon="-0.14556">
        <ele>80</ele>
        <time>2026-06-20T06:27:34Z</time>
      </trkpt>
      <trkpt lat="47.25887" lon="-0.14552">
        <ele>80.2</ele>
        <time>2026-06-20T06:27:35Z</time>
      </trkpt>
      <trkpt lat="47.25883" lon="-0.14549">
        <ele>80.4</ele>
        <time>2026-06-20T06:27:36Z</time>
      </trkpt>
      <trkpt lat="47.25878" lon="-0.14548">
        <ele>80.6</ele>
        <time>2026-06-20T06:27:37Z</time>
      </trkpt>
      <trkpt lat="47.25874" lon="-0.14546">
        <ele>80.6</ele>
        <time>2026-06-20T06:27:38Z</time>
      </trkpt>
      <trkpt lat="47.25869" lon="-0.14545">
        <ele>80.8</ele>
        <time>2026-06-20T06:27:39Z</time>
      </trkpt>
      <trkpt lat="47.25864" lon="-0.14544">
        <ele>81</ele>
        <time>2026-06-20T06:27:40Z</time>
      </trkpt>
      <trkpt lat="47.25864" lon="-0.14544">
        <ele>81</ele>
        <time>2026-06-20T06:27:41Z</time>
      </trkpt>
      <trkpt lat="47.25854" lon="-0.14544">
        <ele>81.2</ele>
        <time>2026-06-20T06:27:42Z</time>
      </trkpt>
      <trkpt lat="47.25849" lon="-0.14543">
        <ele>81.2</ele>
        <time>2026-06-20T06:27:43Z</time>
      </trkpt>
      <trkpt lat="47.25844" lon="-0.14543">
        <ele>81.4</ele>
        <time>2026-06-20T06:27:44Z</time>
      </trkpt>
      <trkpt lat="47.25839" lon="-0.14543">
        <ele>81.4</ele>
        <time>2026-06-20T06:27:45Z</time>
      </trkpt>
      <trkpt lat="47.25834" lon="-0.14543">
        <ele>81.6</ele>
        <time>2026-06-20T06:27:46Z</time>
      </trkpt>
      <trkpt lat="47.25829" lon="-0.14544">
        <ele>81.6</ele>
        <time>2026-06-20T06:27:47Z</time>
      </trkpt>
      <trkpt lat="47.25825" lon="-0.14543">
        <ele>81.8</ele>
        <time>2026-06-20T06:27:48Z</time>
      </trkpt>
      <trkpt lat="47.25821" lon="-0.14542">
        <ele>81.8</ele>
        <time>2026-06-20T06:27:49Z</time>
      </trkpt>
      <trkpt lat="47.25816" lon="-0.14542">
        <ele>82</ele>
        <time>2026-06-20T06:27:50Z</time>
      </trkpt>
      <trkpt lat="47.25812" lon="-0.14542">
        <ele>82</ele>
        <time>2026-06-20T06:27:51Z</time>
      </trkpt>
      <trkpt lat="47.25807" lon="-0.14541">
        <ele>82.2</ele>
        <time>2026-06-20T06:27:52Z</time>
      </trkpt>
      <trkpt lat="47.25803" lon="-0.1454">
        <ele>82.2</ele>
        <time>2026-06-20T06:27:53Z</time>
      </trkpt>
      <trkpt lat="47.25799" lon="-0.14537">
        <ele>82.2</ele>
        <time>2026-06-20T06:27:54Z</time>
      </trkpt>
      <trkpt lat="47.25795" lon="-0.14535">
        <ele>82.4</ele>
        <time>2026-06-20T06:27:55Z</time>
      </trkpt>
      <trkpt lat="47.2579" lon="-0.14533">
        <ele>82.4</ele>
        <time>2026-06-20T06:27:56Z</time>
      </trkpt>
      <trkpt lat="47.25786" lon="-0.14532">
        <ele>82.6</ele>
        <time>2026-06-20T06:27:57Z</time>
      </trkpt>
      <trkpt lat="47.25781" lon="-0.14533">
        <ele>82.8</ele>
        <time>2026-06-20T06:27:58Z</time>
      </trkpt>
      <trkpt lat="47.25777" lon="-0.14535">
        <ele>82.8</ele>
        <time>2026-06-20T06:27:59Z</time>
      </trkpt>
      <trkpt lat="47.25772" lon="-0.14537">
        <ele>82.8</ele>
        <time>2026-06-20T06:28:00Z</time>
      </trkpt>
      <trkpt lat="47.25767" lon="-0.14538">
        <ele>83</ele>
        <time>2026-06-20T06:28:01Z</time>
      </trkpt>
      <trkpt lat="47.25763" lon="-0.14537">
        <ele>83</ele>
        <time>2026-06-20T06:28:02Z</time>
      </trkpt>
      <trkpt lat="47.25758" lon="-0.14536">
        <ele>83</ele>
        <time>2026-06-20T06:28:03Z</time>
      </trkpt>
      <trkpt lat="47.25758" lon="-0.14536">
        <ele>83</ele>
        <time>2026-06-20T06:28:04Z</time>
      </trkpt>
      <trkpt lat="47.25748" lon="-0.14531">
        <ele>83</ele>
        <time>2026-06-20T06:28:05Z</time>
      </trkpt>
      <trkpt lat="47.25744" lon="-0.1453">
        <ele>83</ele>
        <time>2026-06-20T06:28:06Z</time>
      </trkpt>
      <trkpt lat="47.25739" lon="-0.14528">
        <ele>82.8</ele>
        <time>2026-06-20T06:28:07Z</time>
      </trkpt>
      <trkpt lat="47.25734" lon="-0.14527">
        <ele>82.8</ele>
        <time>2026-06-20T06:28:08Z</time>
      </trkpt>
      <trkpt lat="47.25729" lon="-0.14526">
        <ele>82.8</ele>
        <time>2026-06-20T06:28:09Z</time>
      </trkpt>
      <trkpt lat="47.25724" lon="-0.14524">
        <ele>82.8</ele>
        <time>2026-06-20T06:28:10Z</time>
      </trkpt>
      <trkpt lat="47.25719" lon="-0.14522">
        <ele>82.8</ele>
        <time>2026-06-20T06:28:11Z</time>
      </trkpt>
      <trkpt lat="47.25714" lon="-0.14521">
        <ele>82.8</ele>
        <time>2026-06-20T06:28:12Z</time>
      </trkpt>
      <trkpt lat="47.25709" lon="-0.14519">
        <ele>82.8</ele>
        <time>2026-06-20T06:28:13Z</time>
      </trkpt>
      <trkpt lat="47.25704" lon="-0.14517">
        <ele>82.8</ele>
        <time>2026-06-20T06:28:14Z</time>
      </trkpt>
      <trkpt lat="47.25699" lon="-0.14514">
        <ele>82.6</ele>
        <time>2026-06-20T06:28:15Z</time>
      </trkpt>
      <trkpt lat="47.25693" lon="-0.14512">
        <ele>82.6</ele>
        <time>2026-06-20T06:28:16Z</time>
      </trkpt>
      <trkpt lat="47.25688" lon="-0.1451">
        <ele>82.6</ele>
        <time>2026-06-20T06:28:17Z</time>
      </trkpt>
      <trkpt lat="47.25682" lon="-0.14508">
        <ele>82.4</ele>
        <time>2026-06-20T06:28:18Z</time>
      </trkpt>
      <trkpt lat="47.25677" lon="-0.14506">
        <ele>82.2</ele>
        <time>2026-06-20T06:28:19Z</time>
      </trkpt>
      <trkpt lat="47.25671" lon="-0.14504">
        <ele>82</ele>
        <time>2026-06-20T06:28:20Z</time>
      </trkpt>
      <trkpt lat="47.25665" lon="-0.14501">
        <ele>81.6</ele>
        <time>2026-06-20T06:28:21Z</time>
      </trkpt>
      <trkpt lat="47.2566" lon="-0.14499">
        <ele>81.4</ele>
        <time>2026-06-20T06:28:22Z</time>
      </trkpt>
      <trkpt lat="47.25654" lon="-0.14495">
        <ele>81</ele>
        <time>2026-06-20T06:28:23Z</time>
      </trkpt>
      <trkpt lat="47.2565" lon="-0.14492">
        <ele>80.8</ele>
        <time>2026-06-20T06:28:24Z</time>
      </trkpt>
      <trkpt lat="47.25643" lon="-0.14486">
        <ele>80.6</ele>
        <time>2026-06-20T06:28:25Z</time>
      </trkpt>
      <trkpt lat="47.25638" lon="-0.1448">
        <ele>80.4</ele>
        <time>2026-06-20T06:28:26Z</time>
      </trkpt>
      <trkpt lat="47.25632" lon="-0.14475">
        <ele>80.2</ele>
        <time>2026-06-20T06:28:27Z</time>
      </trkpt>
      <trkpt lat="47.25626" lon="-0.1447">
        <ele>79.8</ele>
        <time>2026-06-20T06:28:28Z</time>
      </trkpt>
      <trkpt lat="47.2562" lon="-0.14464">
        <ele>79.4</ele>
        <time>2026-06-20T06:28:29Z</time>
      </trkpt>
      <trkpt lat="47.25614" lon="-0.14459">
        <ele>79.2</ele>
        <time>2026-06-20T06:28:30Z</time>
      </trkpt>
      <trkpt lat="47.25608" lon="-0.14455">
        <ele>78.8</ele>
        <time>2026-06-20T06:28:31Z</time>
      </trkpt>
      <trkpt lat="47.25601" lon="-0.1445">
        <ele>78.6</ele>
        <time>2026-06-20T06:28:32Z</time>
      </trkpt>
      <trkpt lat="47.25595" lon="-0.14446">
        <ele>78.4</ele>
        <time>2026-06-20T06:28:33Z</time>
      </trkpt>
      <trkpt lat="47.25588" lon="-0.14441">
        <ele>78.2</ele>
        <time>2026-06-20T06:28:34Z</time>
      </trkpt>
      <trkpt lat="47.25582" lon="-0.14437">
        <ele>78</ele>
        <time>2026-06-20T06:28:35Z</time>
      </trkpt>
      <trkpt lat="47.25575" lon="-0.14433">
        <ele>77.8</ele>
        <time>2026-06-20T06:28:36Z</time>
      </trkpt>
      <trkpt lat="47.25568" lon="-0.1443">
        <ele>77.8</ele>
        <time>2026-06-20T06:28:37Z</time>
      </trkpt>
      <trkpt lat="47.25561" lon="-0.14426">
        <ele>77.8</ele>
        <time>2026-06-20T06:28:38Z</time>
      </trkpt>
      <trkpt lat="47.25554" lon="-0.14423">
        <ele>77.6</ele>
        <time>2026-06-20T06:28:39Z</time>
      </trkpt>
      <trkpt lat="47.25548" lon="-0.14419">
        <ele>77.6</ele>
        <time>2026-06-20T06:28:40Z</time>
      </trkpt>
      <trkpt lat="47.25542" lon="-0.14415">
        <ele>77.4</ele>
        <time>2026-06-20T06:28:41Z</time>
      </trkpt>
      <trkpt lat="47.25535" lon="-0.14411">
        <ele>77.4</ele>
        <time>2026-06-20T06:28:42Z</time>
      </trkpt>
      <trkpt lat="47.25529" lon="-0.14406">
        <ele>77.2</ele>
        <time>2026-06-20T06:28:43Z</time>
      </trkpt>
      <trkpt lat="47.25522" lon="-0.14402">
        <ele>77</ele>
        <time>2026-06-20T06:28:44Z</time>
      </trkpt>
      <trkpt lat="47.25515" lon="-0.14398">
        <ele>77</ele>
        <time>2026-06-20T06:28:45Z</time>
      </trkpt>
      <trkpt lat="47.25509" lon="-0.14394">
        <ele>76.8</ele>
        <time>2026-06-20T06:28:46Z</time>
      </trkpt>
      <trkpt lat="47.25503" lon="-0.14391">
        <ele>76.6</ele>
        <time>2026-06-20T06:28:47Z</time>
      </trkpt>
      <trkpt lat="47.25497" lon="-0.14387">
        <ele>76.6</ele>
        <time>2026-06-20T06:28:48Z</time>
      </trkpt>
      <trkpt lat="47.25491" lon="-0.14385">
        <ele>76.4</ele>
        <time>2026-06-20T06:28:49Z</time>
      </trkpt>
      <trkpt lat="47.25485" lon="-0.14382">
        <ele>76.4</ele>
        <time>2026-06-20T06:28:50Z</time>
      </trkpt>
      <trkpt lat="47.25479" lon="-0.14379">
        <ele>76.4</ele>
        <time>2026-06-20T06:28:51Z</time>
      </trkpt>
      <trkpt lat="47.25479" lon="-0.14379">
        <ele>76.4</ele>
        <time>2026-06-20T06:28:52Z</time>
      </trkpt>
      <trkpt lat="47.25466" lon="-0.14374">
        <ele>76.2</ele>
        <time>2026-06-20T06:28:53Z</time>
      </trkpt>
      <trkpt lat="47.2546" lon="-0.14371">
        <ele>76.2</ele>
        <time>2026-06-20T06:28:54Z</time>
      </trkpt>
      <trkpt lat="47.25454" lon="-0.14368">
        <ele>76.2</ele>
        <time>2026-06-20T06:28:55Z</time>
      </trkpt>
      <trkpt lat="47.25448" lon="-0.14366">
        <ele>76</ele>
        <time>2026-06-20T06:28:56Z</time>
      </trkpt>
      <trkpt lat="47.25442" lon="-0.14362">
        <ele>76</ele>
        <time>2026-06-20T06:28:57Z</time>
      </trkpt>
      <trkpt lat="47.25436" lon="-0.14358">
        <ele>75.8</ele>
        <time>2026-06-20T06:28:58Z</time>
      </trkpt>
      <trkpt lat="47.2543" lon="-0.14355">
        <ele>75.8</ele>
        <time>2026-06-20T06:28:59Z</time>
      </trkpt>
      <trkpt lat="47.25424" lon="-0.14353">
        <ele>75.8</ele>
        <time>2026-06-20T06:29:00Z</time>
      </trkpt>
      <trkpt lat="47.25419" lon="-0.14351">
        <ele>75.6</ele>
        <time>2026-06-20T06:29:01Z</time>
      </trkpt>
      <trkpt lat="47.25412" lon="-0.14349">
        <ele>75.6</ele>
        <time>2026-06-20T06:29:02Z</time>
      </trkpt>
      <trkpt lat="47.25406" lon="-0.14346">
        <ele>75.8</ele>
        <time>2026-06-20T06:29:03Z</time>
      </trkpt>
      <trkpt lat="47.25401" lon="-0.14344">
        <ele>75.8</ele>
        <time>2026-06-20T06:29:04Z</time>
      </trkpt>
      <trkpt lat="47.25396" lon="-0.14342">
        <ele>75.8</ele>
        <time>2026-06-20T06:29:05Z</time>
      </trkpt>
      <trkpt lat="47.2539" lon="-0.1434">
        <ele>75.8</ele>
        <time>2026-06-20T06:29:06Z</time>
      </trkpt>
      <trkpt lat="47.25384" lon="-0.14338">
        <ele>75.8</ele>
        <time>2026-06-20T06:29:07Z</time>
      </trkpt>
      <trkpt lat="47.25379" lon="-0.14336">
        <ele>75.8</ele>
        <time>2026-06-20T06:29:08Z</time>
      </trkpt>
      <trkpt lat="47.25373" lon="-0.14333">
        <ele>75.8</ele>
        <time>2026-06-20T06:29:09Z</time>
      </trkpt>
      <trkpt lat="47.25367" lon="-0.1433">
        <ele>75.8</ele>
        <time>2026-06-20T06:29:10Z</time>
      </trkpt>
      <trkpt lat="47.25361" lon="-0.14328">
        <ele>75.6</ele>
        <time>2026-06-20T06:29:11Z</time>
      </trkpt>
      <trkpt lat="47.25355" lon="-0.14326">
        <ele>75.6</ele>
        <time>2026-06-20T06:29:12Z</time>
      </trkpt>
      <trkpt lat="47.25349" lon="-0.14323">
        <ele>75.4</ele>
        <time>2026-06-20T06:29:13Z</time>
      </trkpt>
      <trkpt lat="47.25343" lon="-0.14321">
        <ele>75.4</ele>
        <time>2026-06-20T06:29:14Z</time>
      </trkpt>
      <trkpt lat="47.25337" lon="-0.14318">
        <ele>75.2</ele>
        <time>2026-06-20T06:29:15Z</time>
      </trkpt>
      <trkpt lat="47.25331" lon="-0.14316">
        <ele>75.2</ele>
        <time>2026-06-20T06:29:16Z</time>
      </trkpt>
      <trkpt lat="47.25325" lon="-0.14314">
        <ele>75</ele>
        <time>2026-06-20T06:29:17Z</time>
      </trkpt>
      <trkpt lat="47.25318" lon="-0.14312">
        <ele>74.8</ele>
        <time>2026-06-20T06:29:18Z</time>
      </trkpt>
      <trkpt lat="47.25311" lon="-0.14311">
        <ele>74.6</ele>
        <time>2026-06-20T06:29:19Z</time>
      </trkpt>
      <trkpt lat="47.25304" lon="-0.1431">
        <ele>74.4</ele>
        <time>2026-06-20T06:29:20Z</time>
      </trkpt>
      <trkpt lat="47.25297" lon="-0.14309">
        <ele>73.8</ele>
        <time>2026-06-20T06:29:21Z</time>
      </trkpt>
      <trkpt lat="47.25289" lon="-0.14308">
        <ele>73.4</ele>
        <time>2026-06-20T06:29:22Z</time>
      </trkpt>
      <trkpt lat="47.25282" lon="-0.14306">
        <ele>73</ele>
        <time>2026-06-20T06:29:23Z</time>
      </trkpt>
      <trkpt lat="47.25275" lon="-0.14302">
        <ele>72.4</ele>
        <time>2026-06-20T06:29:24Z</time>
      </trkpt>
      <trkpt lat="47.25268" lon="-0.14298">
        <ele>72</ele>
        <time>2026-06-20T06:29:25Z</time>
      </trkpt>
      <trkpt lat="47.25261" lon="-0.14294">
        <ele>71.6</ele>
        <time>2026-06-20T06:29:26Z</time>
      </trkpt>
      <trkpt lat="47.25254" lon="-0.14289">
        <ele>71.2</ele>
        <time>2026-06-20T06:29:27Z</time>
      </trkpt>
      <trkpt lat="47.25247" lon="-0.14284">
        <ele>70.8</ele>
        <time>2026-06-20T06:29:28Z</time>
      </trkpt>
      <trkpt lat="47.2524" lon="-0.14279">
        <ele>70.4</ele>
        <time>2026-06-20T06:29:29Z</time>
      </trkpt>
      <trkpt lat="47.25233" lon="-0.14274">
        <ele>69.8</ele>
        <time>2026-06-20T06:29:30Z</time>
      </trkpt>
      <trkpt lat="47.25226" lon="-0.14269">
        <ele>69.4</ele>
        <time>2026-06-20T06:29:31Z</time>
      </trkpt>
      <trkpt lat="47.25219" lon="-0.14264">
        <ele>69.2</ele>
        <time>2026-06-20T06:29:32Z</time>
      </trkpt>
      <trkpt lat="47.25213" lon="-0.14259">
        <ele>69</ele>
        <time>2026-06-20T06:29:33Z</time>
      </trkpt>
      <trkpt lat="47.25206" lon="-0.14255">
        <ele>68.8</ele>
        <time>2026-06-20T06:29:34Z</time>
      </trkpt>
      <trkpt lat="47.252" lon="-0.14251">
        <ele>68.8</ele>
        <time>2026-06-20T06:29:35Z</time>
      </trkpt>
      <trkpt lat="47.25194" lon="-0.14247">
        <ele>68.8</ele>
        <time>2026-06-20T06:29:36Z</time>
      </trkpt>
      <trkpt lat="47.25188" lon="-0.14244">
        <ele>68.8</ele>
        <time>2026-06-20T06:29:37Z</time>
      </trkpt>
      <trkpt lat="47.25182" lon="-0.14242">
        <ele>68.8</ele>
        <time>2026-06-20T06:29:38Z</time>
      </trkpt>
      <trkpt lat="47.25176" lon="-0.14239">
        <ele>68.8</ele>
        <time>2026-06-20T06:29:39Z</time>
      </trkpt>
      <trkpt lat="47.2517" lon="-0.14237">
        <ele>68.6</ele>
        <time>2026-06-20T06:29:40Z</time>
      </trkpt>
      <trkpt lat="47.25165" lon="-0.14236">
        <ele>68.6</ele>
        <time>2026-06-20T06:29:41Z</time>
      </trkpt>
      <trkpt lat="47.25159" lon="-0.14234">
        <ele>68.6</ele>
        <time>2026-06-20T06:29:42Z</time>
      </trkpt>
      <trkpt lat="47.25154" lon="-0.14232">
        <ele>68.6</ele>
        <time>2026-06-20T06:29:43Z</time>
      </trkpt>
      <trkpt lat="47.25149" lon="-0.14231">
        <ele>68.6</ele>
        <time>2026-06-20T06:29:44Z</time>
      </trkpt>
      <trkpt lat="47.25145" lon="-0.14232">
        <ele>68.6</ele>
        <time>2026-06-20T06:29:45Z</time>
      </trkpt>
      <trkpt lat="47.2514" lon="-0.14234">
        <ele>68.4</ele>
        <time>2026-06-20T06:29:46Z</time>
      </trkpt>
      <trkpt lat="47.25137" lon="-0.14237">
        <ele>68.4</ele>
        <time>2026-06-20T06:29:47Z</time>
      </trkpt>
      <trkpt lat="47.25133" lon="-0.14242">
        <ele>68.2</ele>
        <time>2026-06-20T06:29:48Z</time>
      </trkpt>
      <trkpt lat="47.2513" lon="-0.14248">
        <ele>68.2</ele>
        <time>2026-06-20T06:29:49Z</time>
      </trkpt>
      <trkpt lat="47.25128" lon="-0.14254">
        <ele>68</ele>
        <time>2026-06-20T06:29:50Z</time>
      </trkpt>
      <trkpt lat="47.25128" lon="-0.14254">
        <ele>68</ele>
        <time>2026-06-20T06:29:51Z</time>
      </trkpt>
      <trkpt lat="47.25126" lon="-0.1426">
        <ele>68</ele>
        <time>2026-06-20T06:29:52Z</time>
      </trkpt>
      <trkpt lat="47.25123" lon="-0.14268">
        <ele>68</ele>
        <time>2026-06-20T06:29:53Z</time>
      </trkpt>
      <trkpt lat="47.2512" lon="-0.14272">
        <ele>68.2</ele>
        <time>2026-06-20T06:29:54Z</time>
      </trkpt>
      <trkpt lat="47.25117" lon="-0.14271">
        <ele>68.2</ele>
        <time>2026-06-20T06:29:55Z</time>
      </trkpt>
      <trkpt lat="47.25114" lon="-0.14268">
        <ele>68.2</ele>
        <time>2026-06-20T06:29:56Z</time>
      </trkpt>
      <trkpt lat="47.25112" lon="-0.14264">
        <ele>68.2</ele>
        <time>2026-06-20T06:29:57Z</time>
      </trkpt>
      <trkpt lat="47.2511" lon="-0.1426">
        <ele>68.2</ele>
        <time>2026-06-20T06:29:58Z</time>
      </trkpt>
      <trkpt lat="47.25107" lon="-0.14256">
        <ele>68.2</ele>
        <time>2026-06-20T06:29:59Z</time>
      </trkpt>
      <trkpt lat="47.25104" lon="-0.14251">
        <ele>68.2</ele>
        <time>2026-06-20T06:30:00Z</time>
      </trkpt>
      <trkpt lat="47.25101" lon="-0.14247">
        <ele>68</ele>
        <time>2026-06-20T06:30:01Z</time>
      </trkpt>
      <trkpt lat="47.25097" lon="-0.14242">
        <ele>68</ele>
        <time>2026-06-20T06:30:02Z</time>
      </trkpt>
      <trkpt lat="47.25094" lon="-0.14238">
        <ele>68</ele>
        <time>2026-06-20T06:30:03Z</time>
      </trkpt>
      <trkpt lat="47.2509" lon="-0.14233">
        <ele>68</ele>
        <time>2026-06-20T06:30:04Z</time>
      </trkpt>
      <trkpt lat="47.25087" lon="-0.14228">
        <ele>68</ele>
        <time>2026-06-20T06:30:05Z</time>
      </trkpt>
      <trkpt lat="47.25083" lon="-0.14222">
        <ele>67.8</ele>
        <time>2026-06-20T06:30:06Z</time>
      </trkpt>
      <trkpt lat="47.25079" lon="-0.14216">
        <ele>67.8</ele>
        <time>2026-06-20T06:30:07Z</time>
      </trkpt>
      <trkpt lat="47.25075" lon="-0.14211">
        <ele>67.8</ele>
        <time>2026-06-20T06:30:08Z</time>
      </trkpt>
      <trkpt lat="47.25071" lon="-0.14205">
        <ele>67.8</ele>
        <time>2026-06-20T06:30:09Z</time>
      </trkpt>
      <trkpt lat="47.25066" lon="-0.142">
        <ele>67.8</ele>
        <time>2026-06-20T06:30:10Z</time>
      </trkpt>
      <trkpt lat="47.25062" lon="-0.14195">
        <ele>67.8</ele>
        <time>2026-06-20T06:30:11Z</time>
      </trkpt>
      <trkpt lat="47.25058" lon="-0.14189">
        <ele>67.8</ele>
        <time>2026-06-20T06:30:12Z</time>
      </trkpt>
      <trkpt lat="47.25054" lon="-0.14184">
        <ele>67.6</ele>
        <time>2026-06-20T06:30:13Z</time>
      </trkpt>
      <trkpt lat="47.2505" lon="-0.14179">
        <ele>67.6</ele>
        <time>2026-06-20T06:30:14Z</time>
      </trkpt>
      <trkpt lat="47.25046" lon="-0.14173">
        <ele>67.6</ele>
        <time>2026-06-20T06:30:15Z</time>
      </trkpt>
      <trkpt lat="47.25042" lon="-0.14168">
        <ele>67.6</ele>
        <time>2026-06-20T06:30:16Z</time>
      </trkpt>
      <trkpt lat="47.25038" lon="-0.14162">
        <ele>67.6</ele>
        <time>2026-06-20T06:30:17Z</time>
      </trkpt>
      <trkpt lat="47.25034" lon="-0.14157">
        <ele>67.4</ele>
        <time>2026-06-20T06:30:18Z</time>
      </trkpt>
      <trkpt lat="47.2503" lon="-0.14152">
        <ele>67.4</ele>
        <time>2026-06-20T06:30:19Z</time>
      </trkpt>
      <trkpt lat="47.25026" lon="-0.14146">
        <ele>67.4</ele>
        <time>2026-06-20T06:30:20Z</time>
      </trkpt>
      <trkpt lat="47.25021" lon="-0.14141">
        <ele>67.4</ele>
        <time>2026-06-20T06:30:21Z</time>
      </trkpt>
      <trkpt lat="47.25017" lon="-0.14135">
        <ele>67.2</ele>
        <time>2026-06-20T06:30:22Z</time>
      </trkpt>
      <trkpt lat="47.25013" lon="-0.14129">
        <ele>67.2</ele>
        <time>2026-06-20T06:30:23Z</time>
      </trkpt>
      <trkpt lat="47.25008" lon="-0.14123">
        <ele>67.2</ele>
        <time>2026-06-20T06:30:24Z</time>
      </trkpt>
      <trkpt lat="47.25004" lon="-0.14118">
        <ele>67.2</ele>
        <time>2026-06-20T06:30:25Z</time>
      </trkpt>
      <trkpt lat="47.25" lon="-0.14112">
        <ele>67</ele>
        <time>2026-06-20T06:30:26Z</time>
      </trkpt>
      <trkpt lat="47.24996" lon="-0.14106">
        <ele>67</ele>
        <time>2026-06-20T06:30:27Z</time>
      </trkpt>
      <trkpt lat="47.24992" lon="-0.14101">
        <ele>67</ele>
        <time>2026-06-20T06:30:28Z</time>
      </trkpt>
      <trkpt lat="47.24988" lon="-0.14096">
        <ele>66.8</ele>
        <time>2026-06-20T06:30:29Z</time>
      </trkpt>
      <trkpt lat="47.24983" lon="-0.14091">
        <ele>66.8</ele>
        <time>2026-06-20T06:30:30Z</time>
      </trkpt>
      <trkpt lat="47.24979" lon="-0.14085">
        <ele>66.8</ele>
        <time>2026-06-20T06:30:31Z</time>
      </trkpt>
      <trkpt lat="47.24975" lon="-0.1408">
        <ele>66.8</ele>
        <time>2026-06-20T06:30:32Z</time>
      </trkpt>
      <trkpt lat="47.24971" lon="-0.14074">
        <ele>66.8</ele>
        <time>2026-06-20T06:30:33Z</time>
      </trkpt>
      <trkpt lat="47.24967" lon="-0.1407">
        <ele>66.8</ele>
        <time>2026-06-20T06:30:34Z</time>
      </trkpt>
      <trkpt lat="47.24963" lon="-0.14065">
        <ele>66.6</ele>
        <time>2026-06-20T06:30:35Z</time>
      </trkpt>
      <trkpt lat="47.24959" lon="-0.14058">
        <ele>66.6</ele>
        <time>2026-06-20T06:30:36Z</time>
      </trkpt>
      <trkpt lat="47.24959" lon="-0.14058">
        <ele>66.6</ele>
        <time>2026-06-20T06:30:37Z</time>
      </trkpt>
      <trkpt lat="47.24951" lon="-0.14047">
        <ele>66.6</ele>
        <time>2026-06-20T06:30:38Z</time>
      </trkpt>
      <trkpt lat="47.24946" lon="-0.14042">
        <ele>66.6</ele>
        <time>2026-06-20T06:30:39Z</time>
      </trkpt>
      <trkpt lat="47.24942" lon="-0.14036">
        <ele>66.6</ele>
        <time>2026-06-20T06:30:40Z</time>
      </trkpt>
      <trkpt lat="47.24938" lon="-0.14031">
        <ele>66.6</ele>
        <time>2026-06-20T06:30:41Z</time>
      </trkpt>
      <trkpt lat="47.24934" lon="-0.14025">
        <ele>66.6</ele>
        <time>2026-06-20T06:30:42Z</time>
      </trkpt>
      <trkpt lat="47.24929" lon="-0.14019">
        <ele>66.4</ele>
        <time>2026-06-20T06:30:43Z</time>
      </trkpt>
      <trkpt lat="47.24925" lon="-0.14014">
        <ele>66.2</ele>
        <time>2026-06-20T06:30:44Z</time>
      </trkpt>
      <trkpt lat="47.24921" lon="-0.14008">
        <ele>66.2</ele>
        <time>2026-06-20T06:30:45Z</time>
      </trkpt>
      <trkpt lat="47.24916" lon="-0.14002">
        <ele>66</ele>
        <time>2026-06-20T06:30:46Z</time>
      </trkpt>
      <trkpt lat="47.24911" lon="-0.13998">
        <ele>65.8</ele>
        <time>2026-06-20T06:30:47Z</time>
      </trkpt>
      <trkpt lat="47.24907" lon="-0.13995">
        <ele>65.8</ele>
        <time>2026-06-20T06:30:48Z</time>
      </trkpt>
      <trkpt lat="47.24902" lon="-0.13997">
        <ele>65.6</ele>
        <time>2026-06-20T06:30:49Z</time>
      </trkpt>
      <trkpt lat="47.24899" lon="-0.14002">
        <ele>65.6</ele>
        <time>2026-06-20T06:30:50Z</time>
      </trkpt>
      <trkpt lat="47.24897" lon="-0.14007">
        <ele>65.6</ele>
        <time>2026-06-20T06:30:51Z</time>
      </trkpt>
      <trkpt lat="47.24894" lon="-0.14014">
        <ele>65.6</ele>
        <time>2026-06-20T06:30:52Z</time>
      </trkpt>
      <trkpt lat="47.24891" lon="-0.14021">
        <ele>65.6</ele>
        <time>2026-06-20T06:30:53Z</time>
      </trkpt>
      <trkpt lat="47.24889" lon="-0.14027">
        <ele>65.6</ele>
        <time>2026-06-20T06:30:54Z</time>
      </trkpt>
      <trkpt lat="47.24886" lon="-0.14034">
        <ele>65.6</ele>
        <time>2026-06-20T06:30:55Z</time>
      </trkpt>
      <trkpt lat="47.24884" lon="-0.14041">
        <ele>65.4</ele>
        <time>2026-06-20T06:30:56Z</time>
      </trkpt>
      <trkpt lat="47.24881" lon="-0.14047">
        <ele>65.4</ele>
        <time>2026-06-20T06:30:57Z</time>
      </trkpt>
      <trkpt lat="47.24879" lon="-0.14054">
        <ele>65.4</ele>
        <time>2026-06-20T06:30:58Z</time>
      </trkpt>
      <trkpt lat="47.24876" lon="-0.1406">
        <ele>65.6</ele>
        <time>2026-06-20T06:30:59Z</time>
      </trkpt>
      <trkpt lat="47.24874" lon="-0.14066">
        <ele>65.6</ele>
        <time>2026-06-20T06:31:00Z</time>
      </trkpt>
      <trkpt lat="47.24872" lon="-0.14073">
        <ele>65.6</ele>
        <time>2026-06-20T06:31:01Z</time>
      </trkpt>
      <trkpt lat="47.24869" lon="-0.14079">
        <ele>65.8</ele>
        <time>2026-06-20T06:31:02Z</time>
      </trkpt>
      <trkpt lat="47.24867" lon="-0.14086">
        <ele>66</ele>
        <time>2026-06-20T06:31:03Z</time>
      </trkpt>
      <trkpt lat="47.24865" lon="-0.14092">
        <ele>66</ele>
        <time>2026-06-20T06:31:04Z</time>
      </trkpt>
      <trkpt lat="47.24863" lon="-0.14098">
        <ele>66.2</ele>
        <time>2026-06-20T06:31:05Z</time>
      </trkpt>
      <trkpt lat="47.24861" lon="-0.14104">
        <ele>66.2</ele>
        <time>2026-06-20T06:31:06Z</time>
      </trkpt>
      <trkpt lat="47.24859" lon="-0.1411">
        <ele>66.2</ele>
        <time>2026-06-20T06:31:07Z</time>
      </trkpt>
      <trkpt lat="47.24856" lon="-0.14116">
        <ele>66.4</ele>
        <time>2026-06-20T06:31:08Z</time>
      </trkpt>
      <trkpt lat="47.24854" lon="-0.14121">
        <ele>66.4</ele>
        <time>2026-06-20T06:31:09Z</time>
      </trkpt>
      <trkpt lat="47.24854" lon="-0.14121">
        <ele>66.4</ele>
        <time>2026-06-20T06:31:10Z</time>
      </trkpt>
      <trkpt lat="47.2485" lon="-0.14132">
        <ele>66.6</ele>
        <time>2026-06-20T06:31:11Z</time>
      </trkpt>
      <trkpt lat="47.24847" lon="-0.14138">
        <ele>66.6</ele>
        <time>2026-06-20T06:31:12Z</time>
      </trkpt>
      <trkpt lat="47.24845" lon="-0.14144">
        <ele>66.8</ele>
        <time>2026-06-20T06:31:13Z</time>
      </trkpt>
      <trkpt lat="47.24843" lon="-0.1415">
        <ele>66.8</ele>
        <time>2026-06-20T06:31:14Z</time>
      </trkpt>
      <trkpt lat="47.2484" lon="-0.14156">
        <ele>67</ele>
        <time>2026-06-20T06:31:15Z</time>
      </trkpt>
      <trkpt lat="47.24838" lon="-0.14163">
        <ele>67</ele>
        <time>2026-06-20T06:31:16Z</time>
      </trkpt>
      <trkpt lat="47.24836" lon="-0.14167">
        <ele>67</ele>
        <time>2026-06-20T06:31:17Z</time>
      </trkpt>
      <trkpt lat="47.24833" lon="-0.14174">
        <ele>67.2</ele>
        <time>2026-06-20T06:31:18Z</time>
      </trkpt>
      <trkpt lat="47.24831" lon="-0.1418">
        <ele>67.2</ele>
        <time>2026-06-20T06:31:19Z</time>
      </trkpt>
      <trkpt lat="47.24829" lon="-0.14187">
        <ele>67.4</ele>
        <time>2026-06-20T06:31:20Z</time>
      </trkpt>
      <trkpt lat="47.24827" lon="-0.14193">
        <ele>67.4</ele>
        <time>2026-06-20T06:31:21Z</time>
      </trkpt>
      <trkpt lat="47.24825" lon="-0.14199">
        <ele>67.6</ele>
        <time>2026-06-20T06:31:22Z</time>
      </trkpt>
      <trkpt lat="47.24822" lon="-0.14205">
        <ele>67.6</ele>
        <time>2026-06-20T06:31:23Z</time>
      </trkpt>
      <trkpt lat="47.2482" lon="-0.1421">
        <ele>67.8</ele>
        <time>2026-06-20T06:31:24Z</time>
      </trkpt>
      <trkpt lat="47.24819" lon="-0.14216">
        <ele>67.8</ele>
        <time>2026-06-20T06:31:25Z</time>
      </trkpt>
      <trkpt lat="47.24816" lon="-0.14221">
        <ele>68</ele>
        <time>2026-06-20T06:31:26Z</time>
      </trkpt>
      <trkpt lat="47.24814" lon="-0.14226">
        <ele>68.4</ele>
        <time>2026-06-20T06:31:27Z</time>
      </trkpt>
      <trkpt lat="47.24812" lon="-0.14232">
        <ele>68.6</ele>
        <time>2026-06-20T06:31:28Z</time>
      </trkpt>
      <trkpt lat="47.24809" lon="-0.14236">
        <ele>68.8</ele>
        <time>2026-06-20T06:31:29Z</time>
      </trkpt>
      <trkpt lat="47.24806" lon="-0.14241">
        <ele>69</ele>
        <time>2026-06-20T06:31:30Z</time>
      </trkpt>
      <trkpt lat="47.24804" lon="-0.14246">
        <ele>69</ele>
        <time>2026-06-20T06:31:31Z</time>
      </trkpt>
      <trkpt lat="47.24801" lon="-0.1425">
        <ele>69.2</ele>
        <time>2026-06-20T06:31:32Z</time>
      </trkpt>
      <trkpt lat="47.24798" lon="-0.14255">
        <ele>69.4</ele>
        <time>2026-06-20T06:31:33Z</time>
      </trkpt>
      <trkpt lat="47.24795" lon="-0.14259">
        <ele>69.6</ele>
        <time>2026-06-20T06:31:34Z</time>
      </trkpt>
      <trkpt lat="47.24793" lon="-0.14263">
        <ele>69.6</ele>
        <time>2026-06-20T06:31:35Z</time>
      </trkpt>
      <trkpt lat="47.2479" lon="-0.14267">
        <ele>69.8</ele>
        <time>2026-06-20T06:31:36Z</time>
      </trkpt>
      <trkpt lat="47.24788" lon="-0.14271">
        <ele>70</ele>
        <time>2026-06-20T06:31:37Z</time>
      </trkpt>
      <trkpt lat="47.24785" lon="-0.14276">
        <ele>70.2</ele>
        <time>2026-06-20T06:31:38Z</time>
      </trkpt>
      <trkpt lat="47.24782" lon="-0.14281">
        <ele>70.4</ele>
        <time>2026-06-20T06:31:39Z</time>
      </trkpt>
      <trkpt lat="47.24779" lon="-0.14286">
        <ele>70.6</ele>
        <time>2026-06-20T06:31:40Z</time>
      </trkpt>
      <trkpt lat="47.24777" lon="-0.1429">
        <ele>70.8</ele>
        <time>2026-06-20T06:31:41Z</time>
      </trkpt>
      <trkpt lat="47.24773" lon="-0.14294">
        <ele>70.8</ele>
        <time>2026-06-20T06:31:42Z</time>
      </trkpt>
      <trkpt lat="47.2477" lon="-0.14297">
        <ele>71</ele>
        <time>2026-06-20T06:31:43Z</time>
      </trkpt>
      <trkpt lat="47.24767" lon="-0.14301">
        <ele>71.2</ele>
        <time>2026-06-20T06:31:44Z</time>
      </trkpt>
      <trkpt lat="47.24763" lon="-0.14305">
        <ele>71.2</ele>
        <time>2026-06-20T06:31:45Z</time>
      </trkpt>
      <trkpt lat="47.24761" lon="-0.14308">
        <ele>71.4</ele>
        <time>2026-06-20T06:31:46Z</time>
      </trkpt>
      <trkpt lat="47.24758" lon="-0.14312">
        <ele>71.4</ele>
        <time>2026-06-20T06:31:47Z</time>
      </trkpt>
      <trkpt lat="47.24754" lon="-0.14316">
        <ele>71.6</ele>
        <time>2026-06-20T06:31:48Z</time>
      </trkpt>
      <trkpt lat="47.24751" lon="-0.14319">
        <ele>71.8</ele>
        <time>2026-06-20T06:31:49Z</time>
      </trkpt>
      <trkpt lat="47.24749" lon="-0.14324">
        <ele>72</ele>
        <time>2026-06-20T06:31:50Z</time>
      </trkpt>
      <trkpt lat="47.24746" lon="-0.14328">
        <ele>72</ele>
        <time>2026-06-20T06:31:51Z</time>
      </trkpt>
      <trkpt lat="47.24743" lon="-0.14333">
        <ele>72.2</ele>
        <time>2026-06-20T06:31:52Z</time>
      </trkpt>
      <trkpt lat="47.24739" lon="-0.14335">
        <ele>72.2</ele>
        <time>2026-06-20T06:31:53Z</time>
      </trkpt>
      <trkpt lat="47.24734" lon="-0.14335">
        <ele>72.2</ele>
        <time>2026-06-20T06:31:54Z</time>
      </trkpt>
      <trkpt lat="47.24728" lon="-0.14334">
        <ele>72</ele>
        <time>2026-06-20T06:31:55Z</time>
      </trkpt>
      <trkpt lat="47.24723" lon="-0.14331">
        <ele>71.6</ele>
        <time>2026-06-20T06:31:56Z</time>
      </trkpt>
      <trkpt lat="47.24718" lon="-0.14328">
        <ele>71.2</ele>
        <time>2026-06-20T06:31:57Z</time>
      </trkpt>
      <trkpt lat="47.24712" lon="-0.14324">
        <ele>70.6</ele>
        <time>2026-06-20T06:31:58Z</time>
      </trkpt>
      <trkpt lat="47.24707" lon="-0.14319">
        <ele>70</ele>
        <time>2026-06-20T06:31:59Z</time>
      </trkpt>
      <trkpt lat="47.24702" lon="-0.14312">
        <ele>69.2</ele>
        <time>2026-06-20T06:32:00Z</time>
      </trkpt>
      <trkpt lat="47.24696" lon="-0.14306">
        <ele>68.4</ele>
        <time>2026-06-20T06:32:01Z</time>
      </trkpt>
      <trkpt lat="47.2469" lon="-0.14299">
        <ele>67.6</ele>
        <time>2026-06-20T06:32:02Z</time>
      </trkpt>
      <trkpt lat="47.24684" lon="-0.14295">
        <ele>66.6</ele>
        <time>2026-06-20T06:32:03Z</time>
      </trkpt>
      <trkpt lat="47.24679" lon="-0.14293">
        <ele>65.8</ele>
        <time>2026-06-20T06:32:04Z</time>
      </trkpt>
      <trkpt lat="47.24676" lon="-0.14293">
        <ele>65</ele>
        <time>2026-06-20T06:32:05Z</time>
      </trkpt>
      <trkpt lat="47.24675" lon="-0.14294">
        <ele>64.6</ele>
        <time>2026-06-20T06:32:06Z</time>
      </trkpt>
      <trkpt lat="47.24675" lon="-0.14294">
        <ele>64.4</ele>
        <time>2026-06-20T06:32:07Z</time>
      </trkpt>
      <trkpt lat="47.24675" lon="-0.14294">
        <ele>64.2</ele>
        <time>2026-06-20T06:32:08Z</time>
      </trkpt>
      <trkpt lat="47.24672" lon="-0.14305">
        <ele>63.6</ele>
        <time>2026-06-20T06:32:16Z</time>
      </trkpt>
      <trkpt lat="47.24672" lon="-0.14309">
        <ele>63.2</ele>
        <time>2026-06-20T06:32:17Z</time>
      </trkpt>
      <trkpt lat="47.24671" lon="-0.14313">
        <ele>63</ele>
        <time>2026-06-20T06:32:18Z</time>
      </trkpt>
      <trkpt lat="47.24671" lon="-0.14318">
        <ele>62.4</ele>
        <time>2026-06-20T06:32:19Z</time>
      </trkpt>
      <trkpt lat="47.24671" lon="-0.14323">
        <ele>62</ele>
        <time>2026-06-20T06:32:20Z</time>
      </trkpt>
      <trkpt lat="47.2467" lon="-0.14329">
        <ele>61.2</ele>
        <time>2026-06-20T06:32:21Z</time>
      </trkpt>
      <trkpt lat="47.24668" lon="-0.14335">
        <ele>60.6</ele>
        <time>2026-06-20T06:32:22Z</time>
      </trkpt>
      <trkpt lat="47.24667" lon="-0.14342">
        <ele>59.8</ele>
        <time>2026-06-20T06:32:23Z</time>
      </trkpt>
      <trkpt lat="47.24666" lon="-0.14348">
        <ele>59.2</ele>
        <time>2026-06-20T06:32:24Z</time>
      </trkpt>
      <trkpt lat="47.24666" lon="-0.14353">
        <ele>58.6</ele>
        <time>2026-06-20T06:32:25Z</time>
      </trkpt>
      <trkpt lat="47.24667" lon="-0.14358">
        <ele>58.4</ele>
        <time>2026-06-20T06:32:26Z</time>
      </trkpt>
      <trkpt lat="47.24667" lon="-0.14363">
        <ele>58</ele>
        <time>2026-06-20T06:32:27Z</time>
      </trkpt>
      <trkpt lat="47.24668" lon="-0.14368">
        <ele>57.6</ele>
        <time>2026-06-20T06:32:28Z</time>
      </trkpt>
      <trkpt lat="47.24668" lon="-0.14374">
        <ele>57.4</ele>
        <time>2026-06-20T06:32:29Z</time>
      </trkpt>
      <trkpt lat="47.24668" lon="-0.1438">
        <ele>57</ele>
        <time>2026-06-20T06:32:30Z</time>
      </trkpt>
      <trkpt lat="47.24669" lon="-0.14387">
        <ele>56.4</ele>
        <time>2026-06-20T06:32:31Z</time>
      </trkpt>
      <trkpt lat="47.24669" lon="-0.14393">
        <ele>56</ele>
        <time>2026-06-20T06:32:32Z</time>
      </trkpt>
      <trkpt lat="47.24669" lon="-0.14397">
        <ele>55.6</ele>
        <time>2026-06-20T06:32:33Z</time>
      </trkpt>
      <trkpt lat="47.24669" lon="-0.144">
        <ele>55.2</ele>
        <time>2026-06-20T06:32:34Z</time>
      </trkpt>
      <trkpt lat="47.24669" lon="-0.14402">
        <ele>55</ele>
        <time>2026-06-20T06:32:35Z</time>
      </trkpt>
      <trkpt lat="47.24669" lon="-0.14403">
        <ele>54.6</ele>
        <time>2026-06-20T06:32:36Z</time>
      </trkpt>
      <trkpt lat="47.24669" lon="-0.14403">
        <ele>54.4</ele>
        <time>2026-06-20T06:32:37Z</time>
      </trkpt>
      <trkpt lat="47.24669" lon="-0.14403">
        <ele>54.2</ele>
        <time>2026-06-20T06:32:38Z</time>
      </trkpt>
      <trkpt lat="47.24668" lon="-0.14407">
        <ele>53.8</ele>
        <time>2026-06-20T06:32:41Z</time>
      </trkpt>
      <trkpt lat="47.24668" lon="-0.1441">
        <ele>53.6</ele>
        <time>2026-06-20T06:32:42Z</time>
      </trkpt>
      <trkpt lat="47.24667" lon="-0.14413">
        <ele>53.4</ele>
        <time>2026-06-20T06:32:43Z</time>
      </trkpt>
      <trkpt lat="47.24667" lon="-0.14418">
        <ele>53.2</ele>
        <time>2026-06-20T06:32:44Z</time>
      </trkpt>
      <trkpt lat="47.24667" lon="-0.14425">
        <ele>52.6</ele>
        <time>2026-06-20T06:32:45Z</time>
      </trkpt>
      <trkpt lat="47.24666" lon="-0.14432">
        <ele>52</ele>
        <time>2026-06-20T06:32:46Z</time>
      </trkpt>
      <trkpt lat="47.24666" lon="-0.1444">
        <ele>51.4</ele>
        <time>2026-06-20T06:32:47Z</time>
      </trkpt>
      <trkpt lat="47.24666" lon="-0.14449">
        <ele>50.6</ele>
        <time>2026-06-20T06:32:48Z</time>
      </trkpt>
      <trkpt lat="47.24666" lon="-0.14458">
        <ele>49.8</ele>
        <time>2026-06-20T06:32:49Z</time>
      </trkpt>
      <trkpt lat="47.24668" lon="-0.14466">
        <ele>49.2</ele>
        <time>2026-06-20T06:32:50Z</time>
      </trkpt>
      <trkpt lat="47.24669" lon="-0.14473">
        <ele>48.8</ele>
        <time>2026-06-20T06:32:51Z</time>
      </trkpt>
      <trkpt lat="47.2467" lon="-0.14481">
        <ele>48.2</ele>
        <time>2026-06-20T06:32:52Z</time>
      </trkpt>
      <trkpt lat="47.24671" lon="-0.14488">
        <ele>47.8</ele>
        <time>2026-06-20T06:32:53Z</time>
      </trkpt>
      <trkpt lat="47.24673" lon="-0.14494">
        <ele>47.6</ele>
        <time>2026-06-20T06:32:54Z</time>
      </trkpt>
      <trkpt lat="47.24675" lon="-0.14499">
        <ele>47.4</ele>
        <time>2026-06-20T06:32:55Z</time>
      </trkpt>
      <trkpt lat="47.24676" lon="-0.14505">
        <ele>47.2</ele>
        <time>2026-06-20T06:32:56Z</time>
      </trkpt>
      <trkpt lat="47.24676" lon="-0.14512">
        <ele>47.2</ele>
        <time>2026-06-20T06:32:57Z</time>
      </trkpt>
      <trkpt lat="47.24674" lon="-0.14519">
        <ele>47.4</ele>
        <time>2026-06-20T06:32:58Z</time>
      </trkpt>
      <trkpt lat="47.24673" lon="-0.14526">
        <ele>47.4</ele>
        <time>2026-06-20T06:32:59Z</time>
      </trkpt>
      <trkpt lat="47.24671" lon="-0.14532">
        <ele>47.4</ele>
        <time>2026-06-20T06:33:00Z</time>
      </trkpt>
      <trkpt lat="47.24669" lon="-0.14539">
        <ele>47.6</ele>
        <time>2026-06-20T06:33:01Z</time>
      </trkpt>
      <trkpt lat="47.24666" lon="-0.14546">
        <ele>47.6</ele>
        <time>2026-06-20T06:33:02Z</time>
      </trkpt>
      <trkpt lat="47.24665" lon="-0.14553">
        <ele>47.6</ele>
        <time>2026-06-20T06:33:03Z</time>
      </trkpt>
      <trkpt lat="47.24663" lon="-0.14558">
        <ele>47.6</ele>
        <time>2026-06-20T06:33:04Z</time>
      </trkpt>
      <trkpt lat="47.24661" lon="-0.14567">
        <ele>47.8</ele>
        <time>2026-06-20T06:33:05Z</time>
      </trkpt>
      <trkpt lat="47.24659" lon="-0.14574">
        <ele>47.8</ele>
        <time>2026-06-20T06:33:06Z</time>
      </trkpt>
      <trkpt lat="47.24658" lon="-0.14581">
        <ele>48</ele>
        <time>2026-06-20T06:33:07Z</time>
      </trkpt>
      <trkpt lat="47.24656" lon="-0.14588">
        <ele>48.2</ele>
        <time>2026-06-20T06:33:08Z</time>
      </trkpt>
      <trkpt lat="47.24655" lon="-0.14596">
        <ele>48.2</ele>
        <time>2026-06-20T06:33:09Z</time>
      </trkpt>
      <trkpt lat="47.24653" lon="-0.14603">
        <ele>48.2</ele>
        <time>2026-06-20T06:33:10Z</time>
      </trkpt>
      <trkpt lat="47.24652" lon="-0.14611">
        <ele>48.2</ele>
        <time>2026-06-20T06:33:11Z</time>
      </trkpt>
      <trkpt lat="47.2465" lon="-0.14618">
        <ele>48.2</ele>
        <time>2026-06-20T06:33:12Z</time>
      </trkpt>
      <trkpt lat="47.24649" lon="-0.14625">
        <ele>48</ele>
        <time>2026-06-20T06:33:13Z</time>
      </trkpt>
      <trkpt lat="47.24649" lon="-0.14634">
        <ele>47.8</ele>
        <time>2026-06-20T06:33:14Z</time>
      </trkpt>
      <trkpt lat="47.24649" lon="-0.1464">
        <ele>47.8</ele>
        <time>2026-06-20T06:33:15Z</time>
      </trkpt>
      <trkpt lat="47.24649" lon="-0.14648">
        <ele>47.6</ele>
        <time>2026-06-20T06:33:16Z</time>
      </trkpt>
      <trkpt lat="47.24648" lon="-0.14656">
        <ele>47.6</ele>
        <time>2026-06-20T06:33:17Z</time>
      </trkpt>
      <trkpt lat="47.24647" lon="-0.14664">
        <ele>47.6</ele>
        <time>2026-06-20T06:33:18Z</time>
      </trkpt>
      <trkpt lat="47.24644" lon="-0.14671">
        <ele>47.6</ele>
        <time>2026-06-20T06:33:19Z</time>
      </trkpt>
      <trkpt lat="47.24641" lon="-0.14677">
        <ele>47.4</ele>
        <time>2026-06-20T06:33:20Z</time>
      </trkpt>
      <trkpt lat="47.24636" lon="-0.14683">
        <ele>47.4</ele>
        <time>2026-06-20T06:33:21Z</time>
      </trkpt>
      <trkpt lat="47.24632" lon="-0.14688">
        <ele>47.4</ele>
        <time>2026-06-20T06:33:22Z</time>
      </trkpt>
      <trkpt lat="47.24628" lon="-0.14693">
        <ele>47.4</ele>
        <time>2026-06-20T06:33:23Z</time>
      </trkpt>
      <trkpt lat="47.24623" lon="-0.14698">
        <ele>47.4</ele>
        <time>2026-06-20T06:33:24Z</time>
      </trkpt>
      <trkpt lat="47.24619" lon="-0.14704">
        <ele>47.4</ele>
        <time>2026-06-20T06:33:25Z</time>
      </trkpt>
      <trkpt lat="47.24615" lon="-0.14709">
        <ele>47.4</ele>
        <time>2026-06-20T06:33:26Z</time>
      </trkpt>
      <trkpt lat="47.24611" lon="-0.14713">
        <ele>47.4</ele>
        <time>2026-06-20T06:33:27Z</time>
      </trkpt>
      <trkpt lat="47.24607" lon="-0.14718">
        <ele>47.6</ele>
        <time>2026-06-20T06:33:28Z</time>
      </trkpt>
      <trkpt lat="47.24604" lon="-0.14723">
        <ele>47.6</ele>
        <time>2026-06-20T06:33:29Z</time>
      </trkpt>
      <trkpt lat="47.246" lon="-0.14727">
        <ele>47.8</ele>
        <time>2026-06-20T06:33:30Z</time>
      </trkpt>
      <trkpt lat="47.24596" lon="-0.14732">
        <ele>48</ele>
        <time>2026-06-20T06:33:31Z</time>
      </trkpt>
      <trkpt lat="47.24593" lon="-0.14736">
        <ele>48.2</ele>
        <time>2026-06-20T06:33:32Z</time>
      </trkpt>
      <trkpt lat="47.24589" lon="-0.14741">
        <ele>48.4</ele>
        <time>2026-06-20T06:33:33Z</time>
      </trkpt>
      <trkpt lat="47.24586" lon="-0.14745">
        <ele>48.6</ele>
        <time>2026-06-20T06:33:34Z</time>
      </trkpt>
      <trkpt lat="47.24583" lon="-0.14749">
        <ele>48.8</ele>
        <time>2026-06-20T06:33:35Z</time>
      </trkpt>
      <trkpt lat="47.2458" lon="-0.14754">
        <ele>49</ele>
        <time>2026-06-20T06:33:36Z</time>
      </trkpt>
      <trkpt lat="47.24576" lon="-0.14757">
        <ele>49.2</ele>
        <time>2026-06-20T06:33:37Z</time>
      </trkpt>
      <trkpt lat="47.24573" lon="-0.14761">
        <ele>49.4</ele>
        <time>2026-06-20T06:33:38Z</time>
      </trkpt>
      <trkpt lat="47.2457" lon="-0.14765">
        <ele>49.6</ele>
        <time>2026-06-20T06:33:39Z</time>
      </trkpt>
      <trkpt lat="47.24567" lon="-0.14769">
        <ele>50</ele>
        <time>2026-06-20T06:33:40Z</time>
      </trkpt>
      <trkpt lat="47.24563" lon="-0.14773">
        <ele>50.2</ele>
        <time>2026-06-20T06:33:41Z</time>
      </trkpt>
      <trkpt lat="47.2456" lon="-0.14777">
        <ele>50.6</ele>
        <time>2026-06-20T06:33:42Z</time>
      </trkpt>
      <trkpt lat="47.24557" lon="-0.14781">
        <ele>50.8</ele>
        <time>2026-06-20T06:33:43Z</time>
      </trkpt>
      <trkpt lat="47.24554" lon="-0.14785">
        <ele>51.2</ele>
        <time>2026-06-20T06:33:44Z</time>
      </trkpt>
      <trkpt lat="47.24551" lon="-0.14789">
        <ele>51.6</ele>
        <time>2026-06-20T06:33:45Z</time>
      </trkpt>
      <trkpt lat="47.24548" lon="-0.14793">
        <ele>51.8</ele>
        <time>2026-06-20T06:33:46Z</time>
      </trkpt>
      <trkpt lat="47.24544" lon="-0.14796">
        <ele>52.2</ele>
        <time>2026-06-20T06:33:47Z</time>
      </trkpt>
      <trkpt lat="47.24542" lon="-0.148">
        <ele>52.4</ele>
        <time>2026-06-20T06:33:48Z</time>
      </trkpt>
      <trkpt lat="47.24539" lon="-0.14804">
        <ele>52.8</ele>
        <time>2026-06-20T06:33:49Z</time>
      </trkpt>
      <trkpt lat="47.24536" lon="-0.14807">
        <ele>53</ele>
        <time>2026-06-20T06:33:50Z</time>
      </trkpt>
      <trkpt lat="47.24533" lon="-0.14811">
        <ele>53.4</ele>
        <time>2026-06-20T06:33:51Z</time>
      </trkpt>
      <trkpt lat="47.24531" lon="-0.14814">
        <ele>53.6</ele>
        <time>2026-06-20T06:33:52Z</time>
      </trkpt>
      <trkpt lat="47.24528" lon="-0.14817">
        <ele>53.8</ele>
        <time>2026-06-20T06:33:53Z</time>
      </trkpt>
      <trkpt lat="47.24526" lon="-0.1482">
        <ele>54.2</ele>
        <time>2026-06-20T06:33:54Z</time>
      </trkpt>
      <trkpt lat="47.24523" lon="-0.14822">
        <ele>54.4</ele>
        <time>2026-06-20T06:33:55Z</time>
      </trkpt>
      <trkpt lat="47.24521" lon="-0.14825">
        <ele>54.8</ele>
        <time>2026-06-20T06:33:56Z</time>
      </trkpt>
      <trkpt lat="47.24519" lon="-0.14828">
        <ele>55.2</ele>
        <time>2026-06-20T06:33:57Z</time>
      </trkpt>
      <trkpt lat="47.24516" lon="-0.1483">
        <ele>55.4</ele>
        <time>2026-06-20T06:33:58Z</time>
      </trkpt>
      <trkpt lat="47.24514" lon="-0.14833">
        <ele>55.6</ele>
        <time>2026-06-20T06:33:59Z</time>
      </trkpt>
      <trkpt lat="47.24511" lon="-0.14836">
        <ele>55.8</ele>
        <time>2026-06-20T06:34:00Z</time>
      </trkpt>
      <trkpt lat="47.24509" lon="-0.1484">
        <ele>56.2</ele>
        <time>2026-06-20T06:34:01Z</time>
      </trkpt>
      <trkpt lat="47.24506" lon="-0.14843">
        <ele>56.2</ele>
        <time>2026-06-20T06:34:02Z</time>
      </trkpt>
      <trkpt lat="47.24504" lon="-0.14846">
        <ele>56.4</ele>
        <time>2026-06-20T06:34:03Z</time>
      </trkpt>
      <trkpt lat="47.24501" lon="-0.14848">
        <ele>56.6</ele>
        <time>2026-06-20T06:34:04Z</time>
      </trkpt>
      <trkpt lat="47.24499" lon="-0.14851">
        <ele>56.8</ele>
        <time>2026-06-20T06:34:05Z</time>
      </trkpt>
      <trkpt lat="47.24496" lon="-0.14853">
        <ele>57</ele>
        <time>2026-06-20T06:34:06Z</time>
      </trkpt>
      <trkpt lat="47.24494" lon="-0.14856">
        <ele>57.2</ele>
        <time>2026-06-20T06:34:07Z</time>
      </trkpt>
      <trkpt lat="47.24491" lon="-0.14858">
        <ele>57.4</ele>
        <time>2026-06-20T06:34:08Z</time>
      </trkpt>
      <trkpt lat="47.24489" lon="-0.1486">
        <ele>57.8</ele>
        <time>2026-06-20T06:34:09Z</time>
      </trkpt>
      <trkpt lat="47.24486" lon="-0.14861">
        <ele>58</ele>
        <time>2026-06-20T06:34:10Z</time>
      </trkpt>
      <trkpt lat="47.24483" lon="-0.14863">
        <ele>58.2</ele>
        <time>2026-06-20T06:34:11Z</time>
      </trkpt>
      <trkpt lat="47.2448" lon="-0.14865">
        <ele>58.4</ele>
        <time>2026-06-20T06:34:12Z</time>
      </trkpt>
      <trkpt lat="47.24477" lon="-0.14867">
        <ele>58.6</ele>
        <time>2026-06-20T06:34:13Z</time>
      </trkpt>
      <trkpt lat="47.24474" lon="-0.1487">
        <ele>58.8</ele>
        <time>2026-06-20T06:34:14Z</time>
      </trkpt>
      <trkpt lat="47.24472" lon="-0.14873">
        <ele>59</ele>
        <time>2026-06-20T06:34:15Z</time>
      </trkpt>
      <trkpt lat="47.24469" lon="-0.14876">
        <ele>59.4</ele>
        <time>2026-06-20T06:34:16Z</time>
      </trkpt>
      <trkpt lat="47.24465" lon="-0.14878">
        <ele>59.6</ele>
        <time>2026-06-20T06:34:17Z</time>
      </trkpt>
      <trkpt lat="47.24462" lon="-0.1488">
        <ele>59.8</ele>
        <time>2026-06-20T06:34:18Z</time>
      </trkpt>
      <trkpt lat="47.24459" lon="-0.14882">
        <ele>60</ele>
        <time>2026-06-20T06:34:19Z</time>
      </trkpt>
      <trkpt lat="47.24456" lon="-0.14883">
        <ele>60.2</ele>
        <time>2026-06-20T06:34:20Z</time>
      </trkpt>
      <trkpt lat="47.24453" lon="-0.14885">
        <ele>60.2</ele>
        <time>2026-06-20T06:34:21Z</time>
      </trkpt>
      <trkpt lat="47.2445" lon="-0.14886">
        <ele>60.6</ele>
        <time>2026-06-20T06:34:22Z</time>
      </trkpt>
      <trkpt lat="47.24446" lon="-0.14888">
        <ele>60.8</ele>
        <time>2026-06-20T06:34:23Z</time>
      </trkpt>
      <trkpt lat="47.24443" lon="-0.14889">
        <ele>61</ele>
        <time>2026-06-20T06:34:24Z</time>
      </trkpt>
      <trkpt lat="47.2444" lon="-0.14891">
        <ele>61.2</ele>
        <time>2026-06-20T06:34:25Z</time>
      </trkpt>
      <trkpt lat="47.24436" lon="-0.14892">
        <ele>61.4</ele>
        <time>2026-06-20T06:34:26Z</time>
      </trkpt>
      <trkpt lat="47.24433" lon="-0.14893">
        <ele>61.6</ele>
        <time>2026-06-20T06:34:27Z</time>
      </trkpt>
      <trkpt lat="47.24431" lon="-0.14895">
        <ele>62</ele>
        <time>2026-06-20T06:34:28Z</time>
      </trkpt>
      <trkpt lat="47.24428" lon="-0.14898">
        <ele>62.2</ele>
        <time>2026-06-20T06:34:29Z</time>
      </trkpt>
      <trkpt lat="47.24425" lon="-0.149">
        <ele>62.4</ele>
        <time>2026-06-20T06:34:30Z</time>
      </trkpt>
      <trkpt lat="47.24423" lon="-0.14901">
        <ele>62.4</ele>
        <time>2026-06-20T06:34:31Z</time>
      </trkpt>
      <trkpt lat="47.2442" lon="-0.14903">
        <ele>62.6</ele>
        <time>2026-06-20T06:34:32Z</time>
      </trkpt>
      <trkpt lat="47.24417" lon="-0.14905">
        <ele>62.8</ele>
        <time>2026-06-20T06:34:33Z</time>
      </trkpt>
      <trkpt lat="47.24415" lon="-0.14907">
        <ele>62.8</ele>
        <time>2026-06-20T06:34:34Z</time>
      </trkpt>
      <trkpt lat="47.24412" lon="-0.14909">
        <ele>63</ele>
        <time>2026-06-20T06:34:35Z</time>
      </trkpt>
      <trkpt lat="47.24409" lon="-0.14912">
        <ele>63.2</ele>
        <time>2026-06-20T06:34:36Z</time>
      </trkpt>
      <trkpt lat="47.24406" lon="-0.14915">
        <ele>63.2</ele>
        <time>2026-06-20T06:34:37Z</time>
      </trkpt>
      <trkpt lat="47.24404" lon="-0.14918">
        <ele>63.4</ele>
        <time>2026-06-20T06:34:38Z</time>
      </trkpt>
      <trkpt lat="47.24401" lon="-0.14922">
        <ele>63.4</ele>
        <time>2026-06-20T06:34:39Z</time>
      </trkpt>
      <trkpt lat="47.24399" lon="-0.14925">
        <ele>63.6</ele>
        <time>2026-06-20T06:34:40Z</time>
      </trkpt>
      <trkpt lat="47.24396" lon="-0.14928">
        <ele>63.8</ele>
        <time>2026-06-20T06:34:41Z</time>
      </trkpt>
      <trkpt lat="47.24394" lon="-0.14931">
        <ele>64</ele>
        <time>2026-06-20T06:34:42Z</time>
      </trkpt>
      <trkpt lat="47.24391" lon="-0.14934">
        <ele>64</ele>
        <time>2026-06-20T06:34:43Z</time>
      </trkpt>
      <trkpt lat="47.24389" lon="-0.14938">
        <ele>64.2</ele>
        <time>2026-06-20T06:34:44Z</time>
      </trkpt>
      <trkpt lat="47.24387" lon="-0.1494">
        <ele>64.4</ele>
        <time>2026-06-20T06:34:45Z</time>
      </trkpt>
      <trkpt lat="47.24385" lon="-0.14943">
        <ele>64.6</ele>
        <time>2026-06-20T06:34:46Z</time>
      </trkpt>
      <trkpt lat="47.24383" lon="-0.14946">
        <ele>64.6</ele>
        <time>2026-06-20T06:34:47Z</time>
      </trkpt>
      <trkpt lat="47.2438" lon="-0.14949">
        <ele>64.8</ele>
        <time>2026-06-20T06:34:48Z</time>
      </trkpt>
      <trkpt lat="47.24378" lon="-0.14952">
        <ele>64.8</ele>
        <time>2026-06-20T06:34:49Z</time>
      </trkpt>
      <trkpt lat="47.24375" lon="-0.14955">
        <ele>65</ele>
        <time>2026-06-20T06:34:50Z</time>
      </trkpt>
      <trkpt lat="47.24372" lon="-0.14959">
        <ele>65</ele>
        <time>2026-06-20T06:34:51Z</time>
      </trkpt>
      <trkpt lat="47.24369" lon="-0.14963">
        <ele>65</ele>
        <time>2026-06-20T06:34:52Z</time>
      </trkpt>
      <trkpt lat="47.24366" lon="-0.14966">
        <ele>65.2</ele>
        <time>2026-06-20T06:34:53Z</time>
      </trkpt>
      <trkpt lat="47.24362" lon="-0.1497">
        <ele>65.2</ele>
        <time>2026-06-20T06:34:54Z</time>
      </trkpt>
      <trkpt lat="47.24359" lon="-0.14974">
        <ele>65.4</ele>
        <time>2026-06-20T06:34:55Z</time>
      </trkpt>
      <trkpt lat="47.24356" lon="-0.14979">
        <ele>65.6</ele>
        <time>2026-06-20T06:34:56Z</time>
      </trkpt>
      <trkpt lat="47.24353" lon="-0.14982">
        <ele>65.8</ele>
        <time>2026-06-20T06:34:57Z</time>
      </trkpt>
      <trkpt lat="47.2435" lon="-0.14985">
        <ele>65.8</ele>
        <time>2026-06-20T06:34:58Z</time>
      </trkpt>
      <trkpt lat="47.24347" lon="-0.14989">
        <ele>66</ele>
        <time>2026-06-20T06:34:59Z</time>
      </trkpt>
      <trkpt lat="47.24344" lon="-0.14992">
        <ele>66.2</ele>
        <time>2026-06-20T06:35:00Z</time>
      </trkpt>
      <trkpt lat="47.24341" lon="-0.14996">
        <ele>66.4</ele>
        <time>2026-06-20T06:35:01Z</time>
      </trkpt>
      <trkpt lat="47.24338" lon="-0.14999">
        <ele>66.6</ele>
        <time>2026-06-20T06:35:02Z</time>
      </trkpt>
      <trkpt lat="47.24335" lon="-0.15003">
        <ele>66.6</ele>
        <time>2026-06-20T06:35:03Z</time>
      </trkpt>
      <trkpt lat="47.24333" lon="-0.15006">
        <ele>66.8</ele>
        <time>2026-06-20T06:35:04Z</time>
      </trkpt>
      <trkpt lat="47.2433" lon="-0.1501">
        <ele>66.8</ele>
        <time>2026-06-20T06:35:05Z</time>
      </trkpt>
      <trkpt lat="47.24327" lon="-0.15013">
        <ele>67</ele>
        <time>2026-06-20T06:35:06Z</time>
      </trkpt>
      <trkpt lat="47.24325" lon="-0.15016">
        <ele>67.2</ele>
        <time>2026-06-20T06:35:07Z</time>
      </trkpt>
      <trkpt lat="47.24323" lon="-0.15019">
        <ele>67.2</ele>
        <time>2026-06-20T06:35:08Z</time>
      </trkpt>
      <trkpt lat="47.24321" lon="-0.15022">
        <ele>67.4</ele>
        <time>2026-06-20T06:35:09Z</time>
      </trkpt>
      <trkpt lat="47.24318" lon="-0.15025">
        <ele>67.4</ele>
        <time>2026-06-20T06:35:10Z</time>
      </trkpt>
      <trkpt lat="47.24314" lon="-0.15027">
        <ele>67.4</ele>
        <time>2026-06-20T06:35:11Z</time>
      </trkpt>
      <trkpt lat="47.2431" lon="-0.1503">
        <ele>67.4</ele>
        <time>2026-06-20T06:35:12Z</time>
      </trkpt>
      <trkpt lat="47.24306" lon="-0.15033">
        <ele>67.2</ele>
        <time>2026-06-20T06:35:13Z</time>
      </trkpt>
      <trkpt lat="47.24301" lon="-0.15037">
        <ele>67</ele>
        <time>2026-06-20T06:35:14Z</time>
      </trkpt>
      <trkpt lat="47.24296" lon="-0.1504">
        <ele>66.8</ele>
        <time>2026-06-20T06:35:15Z</time>
      </trkpt>
      <trkpt lat="47.2429" lon="-0.15044">
        <ele>66.6</ele>
        <time>2026-06-20T06:35:16Z</time>
      </trkpt>
      <trkpt lat="47.24285" lon="-0.15049">
        <ele>66.2</ele>
        <time>2026-06-20T06:35:17Z</time>
      </trkpt>
      <trkpt lat="47.24279" lon="-0.15054">
        <ele>65.6</ele>
        <time>2026-06-20T06:35:18Z</time>
      </trkpt>
      <trkpt lat="47.24272" lon="-0.15058">
        <ele>65</ele>
        <time>2026-06-20T06:35:19Z</time>
      </trkpt>
      <trkpt lat="47.24266" lon="-0.15063">
        <ele>64.6</ele>
        <time>2026-06-20T06:35:20Z</time>
      </trkpt>
      <trkpt lat="47.2426" lon="-0.15069">
        <ele>64</ele>
        <time>2026-06-20T06:35:21Z</time>
      </trkpt>
      <trkpt lat="47.24254" lon="-0.15075">
        <ele>63.2</ele>
        <time>2026-06-20T06:35:22Z</time>
      </trkpt>
      <trkpt lat="47.24247" lon="-0.15082">
        <ele>62.6</ele>
        <time>2026-06-20T06:35:23Z</time>
      </trkpt>
      <trkpt lat="47.2424" lon="-0.15089">
        <ele>61.6</ele>
        <time>2026-06-20T06:35:24Z</time>
      </trkpt>
      <trkpt lat="47.24233" lon="-0.15095">
        <ele>60.8</ele>
        <time>2026-06-20T06:35:25Z</time>
      </trkpt>
      <trkpt lat="47.24228" lon="-0.15102">
        <ele>59.8</ele>
        <time>2026-06-20T06:35:26Z</time>
      </trkpt>
      <trkpt lat="47.24224" lon="-0.15109">
        <ele>59</ele>
        <time>2026-06-20T06:35:27Z</time>
      </trkpt>
      <trkpt lat="47.24222" lon="-0.15115">
        <ele>58.4</ele>
        <time>2026-06-20T06:35:28Z</time>
      </trkpt>
      <trkpt lat="47.24222" lon="-0.15121">
        <ele>57.8</ele>
        <time>2026-06-20T06:35:29Z</time>
      </trkpt>
      <trkpt lat="47.24224" lon="-0.15127">
        <ele>57.4</ele>
        <time>2026-06-20T06:35:30Z</time>
      </trkpt>
      <trkpt lat="47.24227" lon="-0.1513">
        <ele>57.4</ele>
        <time>2026-06-20T06:35:31Z</time>
      </trkpt>
      <trkpt lat="47.2423" lon="-0.15132">
        <ele>57.2</ele>
        <time>2026-06-20T06:35:32Z</time>
      </trkpt>
      <trkpt lat="47.24232" lon="-0.15135">
        <ele>57.4</ele>
        <time>2026-06-20T06:35:33Z</time>
      </trkpt>
      <trkpt lat="47.24235" lon="-0.15139">
        <ele>57.4</ele>
        <time>2026-06-20T06:35:34Z</time>
      </trkpt>
      <trkpt lat="47.24238" lon="-0.15143">
        <ele>57.6</ele>
        <time>2026-06-20T06:35:35Z</time>
      </trkpt>
      <trkpt lat="47.24241" lon="-0.15148">
        <ele>57.6</ele>
        <time>2026-06-20T06:35:36Z</time>
      </trkpt>
      <trkpt lat="47.24243" lon="-0.15153">
        <ele>57.8</ele>
        <time>2026-06-20T06:35:37Z</time>
      </trkpt>
      <trkpt lat="47.24246" lon="-0.15158">
        <ele>58</ele>
        <time>2026-06-20T06:35:38Z</time>
      </trkpt>
      <trkpt lat="47.24249" lon="-0.15162">
        <ele>58.2</ele>
        <time>2026-06-20T06:35:39Z</time>
      </trkpt>
      <trkpt lat="47.24252" lon="-0.15166">
        <ele>58.4</ele>
        <time>2026-06-20T06:35:40Z</time>
      </trkpt>
      <trkpt lat="47.24255" lon="-0.15171">
        <ele>58.8</ele>
        <time>2026-06-20T06:35:41Z</time>
      </trkpt>
      <trkpt lat="47.24258" lon="-0.15176">
        <ele>59</ele>
        <time>2026-06-20T06:35:42Z</time>
      </trkpt>
      <trkpt lat="47.24261" lon="-0.15181">
        <ele>59.2</ele>
        <time>2026-06-20T06:35:43Z</time>
      </trkpt>
      <trkpt lat="47.24264" lon="-0.15185">
        <ele>59.4</ele>
        <time>2026-06-20T06:35:44Z</time>
      </trkpt>
      <trkpt lat="47.24269" lon="-0.1519">
        <ele>59.6</ele>
        <time>2026-06-20T06:35:45Z</time>
      </trkpt>
      <trkpt lat="47.24273" lon="-0.15195">
        <ele>59.6</ele>
        <time>2026-06-20T06:35:46Z</time>
      </trkpt>
      <trkpt lat="47.24276" lon="-0.152">
        <ele>59.8</ele>
        <time>2026-06-20T06:35:47Z</time>
      </trkpt>
      <trkpt lat="47.2428" lon="-0.15205">
        <ele>59.8</ele>
        <time>2026-06-20T06:35:48Z</time>
      </trkpt>
      <trkpt lat="47.24283" lon="-0.15209">
        <ele>59.8</ele>
        <time>2026-06-20T06:35:49Z</time>
      </trkpt>
      <trkpt lat="47.24287" lon="-0.15212">
        <ele>60</ele>
        <time>2026-06-20T06:35:50Z</time>
      </trkpt>
      <trkpt lat="47.2429" lon="-0.15217">
        <ele>60</ele>
        <time>2026-06-20T06:35:51Z</time>
      </trkpt>
      <trkpt lat="47.24294" lon="-0.15222">
        <ele>60</ele>
        <time>2026-06-20T06:35:52Z</time>
      </trkpt>
      <trkpt lat="47.24298" lon="-0.15226">
        <ele>60</ele>
        <time>2026-06-20T06:35:53Z</time>
      </trkpt>
      <trkpt lat="47.24303" lon="-0.15229">
        <ele>60</ele>
        <time>2026-06-20T06:35:54Z</time>
      </trkpt>
      <trkpt lat="47.24307" lon="-0.15233">
        <ele>60</ele>
        <time>2026-06-20T06:35:55Z</time>
      </trkpt>
      <trkpt lat="47.24311" lon="-0.15236">
        <ele>60</ele>
        <time>2026-06-20T06:35:56Z</time>
      </trkpt>
      <trkpt lat="47.24315" lon="-0.15239">
        <ele>60.2</ele>
        <time>2026-06-20T06:35:57Z</time>
      </trkpt>
      <trkpt lat="47.24319" lon="-0.15244">
        <ele>60.2</ele>
        <time>2026-06-20T06:35:58Z</time>
      </trkpt>
      <trkpt lat="47.24323" lon="-0.15248">
        <ele>60.2</ele>
        <time>2026-06-20T06:35:59Z</time>
      </trkpt>
      <trkpt lat="47.24328" lon="-0.15252">
        <ele>60.2</ele>
        <time>2026-06-20T06:36:00Z</time>
      </trkpt>
      <trkpt lat="47.24332" lon="-0.15255">
        <ele>60.2</ele>
        <time>2026-06-20T06:36:01Z</time>
      </trkpt>
      <trkpt lat="47.24337" lon="-0.15258">
        <ele>60.2</ele>
        <time>2026-06-20T06:36:02Z</time>
      </trkpt>
      <trkpt lat="47.24341" lon="-0.15263">
        <ele>60.2</ele>
        <time>2026-06-20T06:36:03Z</time>
      </trkpt>
      <trkpt lat="47.24344" lon="-0.15268">
        <ele>60</ele>
        <time>2026-06-20T06:36:04Z</time>
      </trkpt>
      <trkpt lat="47.24348" lon="-0.15273">
        <ele>60</ele>
        <time>2026-06-20T06:36:05Z</time>
      </trkpt>
      <trkpt lat="47.24352" lon="-0.15279">
        <ele>59.8</ele>
        <time>2026-06-20T06:36:06Z</time>
      </trkpt>
      <trkpt lat="47.24356" lon="-0.15284">
        <ele>59.8</ele>
        <time>2026-06-20T06:36:07Z</time>
      </trkpt>
      <trkpt lat="47.2436" lon="-0.15289">
        <ele>59.6</ele>
        <time>2026-06-20T06:36:08Z</time>
      </trkpt>
      <trkpt lat="47.24365" lon="-0.15294">
        <ele>59.4</ele>
        <time>2026-06-20T06:36:09Z</time>
      </trkpt>
      <trkpt lat="47.24369" lon="-0.15299">
        <ele>59.2</ele>
        <time>2026-06-20T06:36:10Z</time>
      </trkpt>
      <trkpt lat="47.24373" lon="-0.15304">
        <ele>59</ele>
        <time>2026-06-20T06:36:11Z</time>
      </trkpt>
      <trkpt lat="47.24378" lon="-0.1531">
        <ele>58.8</ele>
        <time>2026-06-20T06:36:12Z</time>
      </trkpt>
      <trkpt lat="47.24383" lon="-0.15315">
        <ele>58.4</ele>
        <time>2026-06-20T06:36:13Z</time>
      </trkpt>
      <trkpt lat="47.24388" lon="-0.1532">
        <ele>58.2</ele>
        <time>2026-06-20T06:36:14Z</time>
      </trkpt>
      <trkpt lat="47.24393" lon="-0.15326">
        <ele>58</ele>
        <time>2026-06-20T06:36:15Z</time>
      </trkpt>
      <trkpt lat="47.24399" lon="-0.15332">
        <ele>57.6</ele>
        <time>2026-06-20T06:36:16Z</time>
      </trkpt>
      <trkpt lat="47.24403" lon="-0.15337">
        <ele>57.4</ele>
        <time>2026-06-20T06:36:17Z</time>
      </trkpt>
      <trkpt lat="47.24409" lon="-0.15342">
        <ele>57.4</ele>
        <time>2026-06-20T06:36:18Z</time>
      </trkpt>
      <trkpt lat="47.24414" lon="-0.15346">
        <ele>57.2</ele>
        <time>2026-06-20T06:36:19Z</time>
      </trkpt>
      <trkpt lat="47.2442" lon="-0.15351">
        <ele>57</ele>
        <time>2026-06-20T06:36:20Z</time>
      </trkpt>
      <trkpt lat="47.24426" lon="-0.15356">
        <ele>57</ele>
        <time>2026-06-20T06:36:21Z</time>
      </trkpt>
      <trkpt lat="47.24432" lon="-0.1536">
        <ele>57</ele>
        <time>2026-06-20T06:36:22Z</time>
      </trkpt>
      <trkpt lat="47.24438" lon="-0.15365">
        <ele>56.8</ele>
        <time>2026-06-20T06:36:23Z</time>
      </trkpt>
      <trkpt lat="47.24444" lon="-0.15369">
        <ele>56.8</ele>
        <time>2026-06-20T06:36:24Z</time>
      </trkpt>
      <trkpt lat="47.2445" lon="-0.15373">
        <ele>56.8</ele>
        <time>2026-06-20T06:36:25Z</time>
      </trkpt>
      <trkpt lat="47.24456" lon="-0.15377">
        <ele>56.8</ele>
        <time>2026-06-20T06:36:26Z</time>
      </trkpt>
      <trkpt lat="47.24463" lon="-0.15381">
        <ele>56.8</ele>
        <time>2026-06-20T06:36:27Z</time>
      </trkpt>
      <trkpt lat="47.24469" lon="-0.15384">
        <ele>56.8</ele>
        <time>2026-06-20T06:36:28Z</time>
      </trkpt>
      <trkpt lat="47.24474" lon="-0.15388">
        <ele>56.8</ele>
        <time>2026-06-20T06:36:29Z</time>
      </trkpt>
      <trkpt lat="47.24482" lon="-0.15393">
        <ele>56.8</ele>
        <time>2026-06-20T06:36:30Z</time>
      </trkpt>
      <trkpt lat="47.24487" lon="-0.15396">
        <ele>56.8</ele>
        <time>2026-06-20T06:36:31Z</time>
      </trkpt>
      <trkpt lat="47.24492" lon="-0.15399">
        <ele>56.8</ele>
        <time>2026-06-20T06:36:32Z</time>
      </trkpt>
      <trkpt lat="47.24497" lon="-0.15403">
        <ele>56.8</ele>
        <time>2026-06-20T06:36:33Z</time>
      </trkpt>
      <trkpt lat="47.24502" lon="-0.15407">
        <ele>56.8</ele>
        <time>2026-06-20T06:36:34Z</time>
      </trkpt>
      <trkpt lat="47.24509" lon="-0.15412">
        <ele>56.8</ele>
        <time>2026-06-20T06:36:35Z</time>
      </trkpt>
      <trkpt lat="47.24514" lon="-0.15416">
        <ele>57</ele>
        <time>2026-06-20T06:36:36Z</time>
      </trkpt>
      <trkpt lat="47.2452" lon="-0.1542">
        <ele>57</ele>
        <time>2026-06-20T06:36:37Z</time>
      </trkpt>
      <trkpt lat="47.24525" lon="-0.15425">
        <ele>57</ele>
        <time>2026-06-20T06:36:38Z</time>
      </trkpt>
      <trkpt lat="47.24529" lon="-0.15429">
        <ele>57</ele>
        <time>2026-06-20T06:36:39Z</time>
      </trkpt>
      <trkpt lat="47.24535" lon="-0.15435">
        <ele>57</ele>
        <time>2026-06-20T06:36:40Z</time>
      </trkpt>
      <trkpt lat="47.24539" lon="-0.1544">
        <ele>57</ele>
        <time>2026-06-20T06:36:41Z</time>
      </trkpt>
      <trkpt lat="47.24544" lon="-0.15446">
        <ele>57</ele>
        <time>2026-06-20T06:36:42Z</time>
      </trkpt>
      <trkpt lat="47.24548" lon="-0.15452">
        <ele>57</ele>
        <time>2026-06-20T06:36:43Z</time>
      </trkpt>
      <trkpt lat="47.24553" lon="-0.15458">
        <ele>57</ele>
        <time>2026-06-20T06:36:44Z</time>
      </trkpt>
      <trkpt lat="47.24556" lon="-0.15463">
        <ele>57</ele>
        <time>2026-06-20T06:36:45Z</time>
      </trkpt>
      <trkpt lat="47.2456" lon="-0.15469">
        <ele>57</ele>
        <time>2026-06-20T06:36:46Z</time>
      </trkpt>
      <trkpt lat="47.24563" lon="-0.15474">
        <ele>57</ele>
        <time>2026-06-20T06:36:47Z</time>
      </trkpt>
      <trkpt lat="47.24565" lon="-0.15479">
        <ele>57</ele>
        <time>2026-06-20T06:36:48Z</time>
      </trkpt>
      <trkpt lat="47.24566" lon="-0.15484">
        <ele>57</ele>
        <time>2026-06-20T06:36:49Z</time>
      </trkpt>
      <trkpt lat="47.24565" lon="-0.15488">
        <ele>57.2</ele>
        <time>2026-06-20T06:36:50Z</time>
      </trkpt>
      <trkpt lat="47.24563" lon="-0.15492">
        <ele>57.2</ele>
        <time>2026-06-20T06:36:51Z</time>
      </trkpt>
      <trkpt lat="47.24559" lon="-0.15496">
        <ele>57.2</ele>
        <time>2026-06-20T06:36:52Z</time>
      </trkpt>
      <trkpt lat="47.24555" lon="-0.15499">
        <ele>57</ele>
        <time>2026-06-20T06:36:53Z</time>
      </trkpt>
      <trkpt lat="47.24551" lon="-0.15502">
        <ele>56.8</ele>
        <time>2026-06-20T06:36:54Z</time>
      </trkpt>
      <trkpt lat="47.24546" lon="-0.15506">
        <ele>56.6</ele>
        <time>2026-06-20T06:36:55Z</time>
      </trkpt>
      <trkpt lat="47.24541" lon="-0.15509">
        <ele>56.2</ele>
        <time>2026-06-20T06:36:56Z</time>
      </trkpt>
      <trkpt lat="47.24536" lon="-0.15513">
        <ele>56</ele>
        <time>2026-06-20T06:36:57Z</time>
      </trkpt>
      <trkpt lat="47.2453" lon="-0.15518">
        <ele>55.6</ele>
        <time>2026-06-20T06:36:58Z</time>
      </trkpt>
      <trkpt lat="47.24525" lon="-0.15522">
        <ele>55.2</ele>
        <time>2026-06-20T06:36:59Z</time>
      </trkpt>
      <trkpt lat="47.24519" lon="-0.15527">
        <ele>55</ele>
        <time>2026-06-20T06:37:00Z</time>
      </trkpt>
      <trkpt lat="47.24513" lon="-0.15531">
        <ele>54.8</ele>
        <time>2026-06-20T06:37:01Z</time>
      </trkpt>
      <trkpt lat="47.24507" lon="-0.15535">
        <ele>54.4</ele>
        <time>2026-06-20T06:37:02Z</time>
      </trkpt>
      <trkpt lat="47.24501" lon="-0.15538">
        <ele>54.2</ele>
        <time>2026-06-20T06:37:03Z</time>
      </trkpt>
      <trkpt lat="47.24495" lon="-0.15542">
        <ele>53.8</ele>
        <time>2026-06-20T06:37:04Z</time>
      </trkpt>
      <trkpt lat="47.24489" lon="-0.15546">
        <ele>53.6</ele>
        <time>2026-06-20T06:37:05Z</time>
      </trkpt>
      <trkpt lat="47.24482" lon="-0.15549">
        <ele>53.2</ele>
        <time>2026-06-20T06:37:06Z</time>
      </trkpt>
      <trkpt lat="47.24476" lon="-0.15552">
        <ele>53</ele>
        <time>2026-06-20T06:37:07Z</time>
      </trkpt>
      <trkpt lat="47.24469" lon="-0.15555">
        <ele>52.8</ele>
        <time>2026-06-20T06:37:08Z</time>
      </trkpt>
      <trkpt lat="47.24463" lon="-0.15558">
        <ele>52.6</ele>
        <time>2026-06-20T06:37:09Z</time>
      </trkpt>
      <trkpt lat="47.24457" lon="-0.15562">
        <ele>52.2</ele>
        <time>2026-06-20T06:37:10Z</time>
      </trkpt>
      <trkpt lat="47.2445" lon="-0.15565">
        <ele>52.2</ele>
        <time>2026-06-20T06:37:11Z</time>
      </trkpt>
      <trkpt lat="47.24444" lon="-0.15568">
        <ele>52</ele>
        <time>2026-06-20T06:37:12Z</time>
      </trkpt>
      <trkpt lat="47.24438" lon="-0.15571">
        <ele>52</ele>
        <time>2026-06-20T06:37:13Z</time>
      </trkpt>
      <trkpt lat="47.24431" lon="-0.15574">
        <ele>51.8</ele>
        <time>2026-06-20T06:37:14Z</time>
      </trkpt>
      <trkpt lat="47.24425" lon="-0.15578">
        <ele>51.8</ele>
        <time>2026-06-20T06:37:15Z</time>
      </trkpt>
      <trkpt lat="47.24419" lon="-0.15581">
        <ele>51.8</ele>
        <time>2026-06-20T06:37:16Z</time>
      </trkpt>
      <trkpt lat="47.24413" lon="-0.15584">
        <ele>51.8</ele>
        <time>2026-06-20T06:37:17Z</time>
      </trkpt>
      <trkpt lat="47.24407" lon="-0.15587">
        <ele>51.8</ele>
        <time>2026-06-20T06:37:18Z</time>
      </trkpt>
      <trkpt lat="47.24401" lon="-0.1559">
        <ele>51.8</ele>
        <time>2026-06-20T06:37:19Z</time>
      </trkpt>
      <trkpt lat="47.24395" lon="-0.15593">
        <ele>51.8</ele>
        <time>2026-06-20T06:37:20Z</time>
      </trkpt>
      <trkpt lat="47.24389" lon="-0.15595">
        <ele>51.8</ele>
        <time>2026-06-20T06:37:21Z</time>
      </trkpt>
      <trkpt lat="47.24383" lon="-0.15597">
        <ele>52</ele>
        <time>2026-06-20T06:37:22Z</time>
      </trkpt>
      <trkpt lat="47.24377" lon="-0.15599">
        <ele>52.2</ele>
        <time>2026-06-20T06:37:23Z</time>
      </trkpt>
      <trkpt lat="47.24371" lon="-0.15601">
        <ele>52.2</ele>
        <time>2026-06-20T06:37:24Z</time>
      </trkpt>
      <trkpt lat="47.24365" lon="-0.15603">
        <ele>52.2</ele>
        <time>2026-06-20T06:37:25Z</time>
      </trkpt>
      <trkpt lat="47.24359" lon="-0.15605">
        <ele>52.4</ele>
        <time>2026-06-20T06:37:26Z</time>
      </trkpt>
      <trkpt lat="47.24353" lon="-0.15606">
        <ele>52.4</ele>
        <time>2026-06-20T06:37:27Z</time>
      </trkpt>
      <trkpt lat="47.24347" lon="-0.15608">
        <ele>52.4</ele>
        <time>2026-06-20T06:37:28Z</time>
      </trkpt>
      <trkpt lat="47.24341" lon="-0.1561">
        <ele>52.4</ele>
        <time>2026-06-20T06:37:29Z</time>
      </trkpt>
      <trkpt lat="47.24335" lon="-0.15611">
        <ele>52.4</ele>
        <time>2026-06-20T06:37:30Z</time>
      </trkpt>
      <trkpt lat="47.2433" lon="-0.15612">
        <ele>52.6</ele>
        <time>2026-06-20T06:37:31Z</time>
      </trkpt>
      <trkpt lat="47.24324" lon="-0.15614">
        <ele>52.6</ele>
        <time>2026-06-20T06:37:32Z</time>
      </trkpt>
      <trkpt lat="47.24319" lon="-0.15616">
        <ele>52.6</ele>
        <time>2026-06-20T06:37:33Z</time>
      </trkpt>
      <trkpt lat="47.24313" lon="-0.15617">
        <ele>52.8</ele>
        <time>2026-06-20T06:37:34Z</time>
      </trkpt>
      <trkpt lat="47.24308" lon="-0.15618">
        <ele>52.8</ele>
        <time>2026-06-20T06:37:35Z</time>
      </trkpt>
      <trkpt lat="47.24303" lon="-0.1562">
        <ele>52.8</ele>
        <time>2026-06-20T06:37:36Z</time>
      </trkpt>
      <trkpt lat="47.24298" lon="-0.15624">
        <ele>52.8</ele>
        <time>2026-06-20T06:37:37Z</time>
      </trkpt>
      <trkpt lat="47.24297" lon="-0.1563">
        <ele>53</ele>
        <time>2026-06-20T06:37:38Z</time>
      </trkpt>
      <trkpt lat="47.24296" lon="-0.15638">
        <ele>52.8</ele>
        <time>2026-06-20T06:37:39Z</time>
      </trkpt>
      <trkpt lat="47.24297" lon="-0.15647">
        <ele>52.8</ele>
        <time>2026-06-20T06:37:40Z</time>
      </trkpt>
      <trkpt lat="47.24298" lon="-0.15655">
        <ele>52.8</ele>
        <time>2026-06-20T06:37:41Z</time>
      </trkpt>
      <trkpt lat="47.24299" lon="-0.15662">
        <ele>52.8</ele>
        <time>2026-06-20T06:37:42Z</time>
      </trkpt>
      <trkpt lat="47.243" lon="-0.1567">
        <ele>52.6</ele>
        <time>2026-06-20T06:37:43Z</time>
      </trkpt>
      <trkpt lat="47.24301" lon="-0.15677">
        <ele>52.8</ele>
        <time>2026-06-20T06:37:44Z</time>
      </trkpt>
      <trkpt lat="47.24303" lon="-0.15685">
        <ele>52.8</ele>
        <time>2026-06-20T06:37:45Z</time>
      </trkpt>
      <trkpt lat="47.24304" lon="-0.15692">
        <ele>53</ele>
        <time>2026-06-20T06:37:46Z</time>
      </trkpt>
      <trkpt lat="47.24305" lon="-0.15699">
        <ele>53</ele>
        <time>2026-06-20T06:37:47Z</time>
      </trkpt>
      <trkpt lat="47.24306" lon="-0.15706">
        <ele>53</ele>
        <time>2026-06-20T06:37:48Z</time>
      </trkpt>
      <trkpt lat="47.24306" lon="-0.15712">
        <ele>53</ele>
        <time>2026-06-20T06:37:49Z</time>
      </trkpt>
      <trkpt lat="47.24307" lon="-0.15721">
        <ele>53.2</ele>
        <time>2026-06-20T06:37:50Z</time>
      </trkpt>
      <trkpt lat="47.24308" lon="-0.15728">
        <ele>53.2</ele>
        <time>2026-06-20T06:37:51Z</time>
      </trkpt>
      <trkpt lat="47.24308" lon="-0.15734">
        <ele>53.2</ele>
        <time>2026-06-20T06:37:52Z</time>
      </trkpt>
      <trkpt lat="47.24309" lon="-0.15742">
        <ele>53.4</ele>
        <time>2026-06-20T06:37:53Z</time>
      </trkpt>
      <trkpt lat="47.2431" lon="-0.15748">
        <ele>53.4</ele>
        <time>2026-06-20T06:37:54Z</time>
      </trkpt>
      <trkpt lat="47.24311" lon="-0.15755">
        <ele>53.6</ele>
        <time>2026-06-20T06:37:55Z</time>
      </trkpt>
      <trkpt lat="47.24312" lon="-0.15762">
        <ele>53.6</ele>
        <time>2026-06-20T06:37:56Z</time>
      </trkpt>
      <trkpt lat="47.24313" lon="-0.15769">
        <ele>53.6</ele>
        <time>2026-06-20T06:37:57Z</time>
      </trkpt>
      <trkpt lat="47.24314" lon="-0.15776">
        <ele>53.6</ele>
        <time>2026-06-20T06:37:58Z</time>
      </trkpt>
      <trkpt lat="47.24314" lon="-0.15783">
        <ele>53.6</ele>
        <time>2026-06-20T06:37:59Z</time>
      </trkpt>
      <trkpt lat="47.24315" lon="-0.15789">
        <ele>53.8</ele>
        <time>2026-06-20T06:38:00Z</time>
      </trkpt>
      <trkpt lat="47.24316" lon="-0.15797">
        <ele>53.8</ele>
        <time>2026-06-20T06:38:01Z</time>
      </trkpt>
      <trkpt lat="47.24317" lon="-0.15804">
        <ele>53.8</ele>
        <time>2026-06-20T06:38:02Z</time>
      </trkpt>
      <trkpt lat="47.24318" lon="-0.1581">
        <ele>53.8</ele>
        <time>2026-06-20T06:38:03Z</time>
      </trkpt>
      <trkpt lat="47.24319" lon="-0.15818">
        <ele>53.8</ele>
        <time>2026-06-20T06:38:04Z</time>
      </trkpt>
      <trkpt lat="47.2432" lon="-0.15826">
        <ele>53.6</ele>
        <time>2026-06-20T06:38:05Z</time>
      </trkpt>
      <trkpt lat="47.24321" lon="-0.15833">
        <ele>53.6</ele>
        <time>2026-06-20T06:38:06Z</time>
      </trkpt>
      <trkpt lat="47.24322" lon="-0.15841">
        <ele>53.6</ele>
        <time>2026-06-20T06:38:07Z</time>
      </trkpt>
      <trkpt lat="47.24323" lon="-0.15848">
        <ele>53.6</ele>
        <time>2026-06-20T06:38:08Z</time>
      </trkpt>
      <trkpt lat="47.24324" lon="-0.15855">
        <ele>53.8</ele>
        <time>2026-06-20T06:38:09Z</time>
      </trkpt>
      <trkpt lat="47.24325" lon="-0.15862">
        <ele>53.8</ele>
        <time>2026-06-20T06:38:10Z</time>
      </trkpt>
      <trkpt lat="47.24326" lon="-0.1587">
        <ele>53.8</ele>
        <time>2026-06-20T06:38:11Z</time>
      </trkpt>
      <trkpt lat="47.24327" lon="-0.15877">
        <ele>53.8</ele>
        <time>2026-06-20T06:38:12Z</time>
      </trkpt>
      <trkpt lat="47.24327" lon="-0.15885">
        <ele>53.8</ele>
        <time>2026-06-20T06:38:13Z</time>
      </trkpt>
      <trkpt lat="47.24328" lon="-0.15892">
        <ele>53.8</ele>
        <time>2026-06-20T06:38:14Z</time>
      </trkpt>
      <trkpt lat="47.24329" lon="-0.159">
        <ele>53.8</ele>
        <time>2026-06-20T06:38:15Z</time>
      </trkpt>
      <trkpt lat="47.2433" lon="-0.15908">
        <ele>53.8</ele>
        <time>2026-06-20T06:38:16Z</time>
      </trkpt>
      <trkpt lat="47.24331" lon="-0.15916">
        <ele>53.8</ele>
        <time>2026-06-20T06:38:17Z</time>
      </trkpt>
      <trkpt lat="47.24332" lon="-0.15923">
        <ele>53.8</ele>
        <time>2026-06-20T06:38:18Z</time>
      </trkpt>
      <trkpt lat="47.24333" lon="-0.15931">
        <ele>53.8</ele>
        <time>2026-06-20T06:38:19Z</time>
      </trkpt>
      <trkpt lat="47.24334" lon="-0.15938">
        <ele>53.8</ele>
        <time>2026-06-20T06:38:20Z</time>
      </trkpt>
      <trkpt lat="47.24335" lon="-0.15945">
        <ele>53.8</ele>
        <time>2026-06-20T06:38:21Z</time>
      </trkpt>
      <trkpt lat="47.24335" lon="-0.15952">
        <ele>54</ele>
        <time>2026-06-20T06:38:22Z</time>
      </trkpt>
      <trkpt lat="47.24337" lon="-0.15959">
        <ele>54</ele>
        <time>2026-06-20T06:38:23Z</time>
      </trkpt>
      <trkpt lat="47.2434" lon="-0.15964">
        <ele>54</ele>
        <time>2026-06-20T06:38:24Z</time>
      </trkpt>
      <trkpt lat="47.24343" lon="-0.15967">
        <ele>54.2</ele>
        <time>2026-06-20T06:38:25Z</time>
      </trkpt>
      <trkpt lat="47.24348" lon="-0.15969">
        <ele>54.4</ele>
        <time>2026-06-20T06:38:26Z</time>
      </trkpt>
      <trkpt lat="47.24352" lon="-0.15971">
        <ele>54.6</ele>
        <time>2026-06-20T06:38:27Z</time>
      </trkpt>
      <trkpt lat="47.24355" lon="-0.15974">
        <ele>54.8</ele>
        <time>2026-06-20T06:38:28Z</time>
      </trkpt>
      <trkpt lat="47.24359" lon="-0.15977">
        <ele>54.8</ele>
        <time>2026-06-20T06:38:29Z</time>
      </trkpt>
      <trkpt lat="47.24362" lon="-0.15979">
        <ele>55</ele>
        <time>2026-06-20T06:38:30Z</time>
      </trkpt>
      <trkpt lat="47.24366" lon="-0.15982">
        <ele>55.4</ele>
        <time>2026-06-20T06:38:31Z</time>
      </trkpt>
      <trkpt lat="47.24369" lon="-0.15985">
        <ele>55.6</ele>
        <time>2026-06-20T06:38:32Z</time>
      </trkpt>
      <trkpt lat="47.24372" lon="-0.15987">
        <ele>55.8</ele>
        <time>2026-06-20T06:38:33Z</time>
      </trkpt>
      <trkpt lat="47.24375" lon="-0.1599">
        <ele>56</ele>
        <time>2026-06-20T06:38:34Z</time>
      </trkpt>
      <trkpt lat="47.24379" lon="-0.15992">
        <ele>56</ele>
        <time>2026-06-20T06:38:35Z</time>
      </trkpt>
      <trkpt lat="47.24382" lon="-0.15995">
        <ele>56.2</ele>
        <time>2026-06-20T06:38:36Z</time>
      </trkpt>
      <trkpt lat="47.24385" lon="-0.15997">
        <ele>56.4</ele>
        <time>2026-06-20T06:38:37Z</time>
      </trkpt>
      <trkpt lat="47.24389" lon="-0.16">
        <ele>56.6</ele>
        <time>2026-06-20T06:38:38Z</time>
      </trkpt>
      <trkpt lat="47.24393" lon="-0.16004">
        <ele>56.8</ele>
        <time>2026-06-20T06:38:39Z</time>
      </trkpt>
      <trkpt lat="47.24397" lon="-0.16007">
        <ele>57</ele>
        <time>2026-06-20T06:38:40Z</time>
      </trkpt>
      <trkpt lat="47.244" lon="-0.1601">
        <ele>57</ele>
        <time>2026-06-20T06:38:41Z</time>
      </trkpt>
      <trkpt lat="47.24404" lon="-0.16013">
        <ele>57.2</ele>
        <time>2026-06-20T06:38:42Z</time>
      </trkpt>
      <trkpt lat="47.24408" lon="-0.16017">
        <ele>57.2</ele>
        <time>2026-06-20T06:38:43Z</time>
      </trkpt>
      <trkpt lat="47.24412" lon="-0.16021">
        <ele>57.2</ele>
        <time>2026-06-20T06:38:44Z</time>
      </trkpt>
      <trkpt lat="47.24416" lon="-0.16025">
        <ele>57.4</ele>
        <time>2026-06-20T06:38:45Z</time>
      </trkpt>
      <trkpt lat="47.2442" lon="-0.16029">
        <ele>57.4</ele>
        <time>2026-06-20T06:38:46Z</time>
      </trkpt>
      <trkpt lat="47.24424" lon="-0.16033">
        <ele>57.4</ele>
        <time>2026-06-20T06:38:47Z</time>
      </trkpt>
      <trkpt lat="47.24428" lon="-0.16036">
        <ele>57.6</ele>
        <time>2026-06-20T06:38:48Z</time>
      </trkpt>
      <trkpt lat="47.24432" lon="-0.16039">
        <ele>57.6</ele>
        <time>2026-06-20T06:38:49Z</time>
      </trkpt>
      <trkpt lat="47.24436" lon="-0.16043">
        <ele>57.6</ele>
        <time>2026-06-20T06:38:50Z</time>
      </trkpt>
      <trkpt lat="47.24439" lon="-0.16046">
        <ele>57.6</ele>
        <time>2026-06-20T06:38:51Z</time>
      </trkpt>
      <trkpt lat="47.24443" lon="-0.1605">
        <ele>57.6</ele>
        <time>2026-06-20T06:38:52Z</time>
      </trkpt>
      <trkpt lat="47.24447" lon="-0.16054">
        <ele>57.6</ele>
        <time>2026-06-20T06:38:53Z</time>
      </trkpt>
      <trkpt lat="47.2445" lon="-0.16058">
        <ele>57.8</ele>
        <time>2026-06-20T06:38:54Z</time>
      </trkpt>
      <trkpt lat="47.24453" lon="-0.16062">
        <ele>57.8</ele>
        <time>2026-06-20T06:38:55Z</time>
      </trkpt>
      <trkpt lat="47.24457" lon="-0.16065">
        <ele>57.8</ele>
        <time>2026-06-20T06:38:56Z</time>
      </trkpt>
      <trkpt lat="47.2446" lon="-0.16069">
        <ele>58</ele>
        <time>2026-06-20T06:38:57Z</time>
      </trkpt>
      <trkpt lat="47.24463" lon="-0.16073">
        <ele>58</ele>
        <time>2026-06-20T06:38:58Z</time>
      </trkpt>
      <trkpt lat="47.24466" lon="-0.16077">
        <ele>58.2</ele>
        <time>2026-06-20T06:38:59Z</time>
      </trkpt>
      <trkpt lat="47.24469" lon="-0.1608">
        <ele>58.2</ele>
        <time>2026-06-20T06:39:00Z</time>
      </trkpt>
      <trkpt lat="47.24473" lon="-0.16083">
        <ele>58.4</ele>
        <time>2026-06-20T06:39:01Z</time>
      </trkpt>
      <trkpt lat="47.24477" lon="-0.16087">
        <ele>58.6</ele>
        <time>2026-06-20T06:39:02Z</time>
      </trkpt>
      <trkpt lat="47.2448" lon="-0.16091">
        <ele>58.8</ele>
        <time>2026-06-20T06:39:03Z</time>
      </trkpt>
      <trkpt lat="47.24484" lon="-0.16094">
        <ele>58.8</ele>
        <time>2026-06-20T06:39:04Z</time>
      </trkpt>
      <trkpt lat="47.24488" lon="-0.16098">
        <ele>59</ele>
        <time>2026-06-20T06:39:05Z</time>
      </trkpt>
      <trkpt lat="47.24492" lon="-0.16102">
        <ele>59</ele>
        <time>2026-06-20T06:39:06Z</time>
      </trkpt>
      <trkpt lat="47.24496" lon="-0.16105">
        <ele>59</ele>
        <time>2026-06-20T06:39:07Z</time>
      </trkpt>
      <trkpt lat="47.245" lon="-0.16109">
        <ele>58.8</ele>
        <time>2026-06-20T06:39:08Z</time>
      </trkpt>
      <trkpt lat="47.24504" lon="-0.16113">
        <ele>58.8</ele>
        <time>2026-06-20T06:39:09Z</time>
      </trkpt>
      <trkpt lat="47.24508" lon="-0.16116">
        <ele>58.8</ele>
        <time>2026-06-20T06:39:10Z</time>
      </trkpt>
      <trkpt lat="47.24512" lon="-0.1612">
        <ele>58.8</ele>
        <time>2026-06-20T06:39:11Z</time>
      </trkpt>
      <trkpt lat="47.24516" lon="-0.16124">
        <ele>58.8</ele>
        <time>2026-06-20T06:39:12Z</time>
      </trkpt>
      <trkpt lat="47.24519" lon="-0.16127">
        <ele>58.8</ele>
        <time>2026-06-20T06:39:13Z</time>
      </trkpt>
      <trkpt lat="47.24523" lon="-0.16133">
        <ele>58.8</ele>
        <time>2026-06-20T06:39:14Z</time>
      </trkpt>
      <trkpt lat="47.24526" lon="-0.16138">
        <ele>58.8</ele>
        <time>2026-06-20T06:39:15Z</time>
      </trkpt>
      <trkpt lat="47.2453" lon="-0.16143">
        <ele>58.6</ele>
        <time>2026-06-20T06:39:16Z</time>
      </trkpt>
      <trkpt lat="47.24533" lon="-0.16148">
        <ele>58.6</ele>
        <time>2026-06-20T06:39:17Z</time>
      </trkpt>
      <trkpt lat="47.24536" lon="-0.16152">
        <ele>58.6</ele>
        <time>2026-06-20T06:39:18Z</time>
      </trkpt>
      <trkpt lat="47.24539" lon="-0.16157">
        <ele>58.6</ele>
        <time>2026-06-20T06:39:19Z</time>
      </trkpt>
      <trkpt lat="47.24543" lon="-0.16162">
        <ele>58.6</ele>
        <time>2026-06-20T06:39:20Z</time>
      </trkpt>
      <trkpt lat="47.24546" lon="-0.16166">
        <ele>58.6</ele>
        <time>2026-06-20T06:39:21Z</time>
      </trkpt>
      <trkpt lat="47.2455" lon="-0.1617">
        <ele>58.8</ele>
        <time>2026-06-20T06:39:22Z</time>
      </trkpt>
      <trkpt lat="47.24554" lon="-0.16175">
        <ele>58.8</ele>
        <time>2026-06-20T06:39:23Z</time>
      </trkpt>
      <trkpt lat="47.24557" lon="-0.1618">
        <ele>58.8</ele>
        <time>2026-06-20T06:39:24Z</time>
      </trkpt>
      <trkpt lat="47.24561" lon="-0.16185">
        <ele>58.8</ele>
        <time>2026-06-20T06:39:25Z</time>
      </trkpt>
      <trkpt lat="47.24565" lon="-0.1619">
        <ele>58.8</ele>
        <time>2026-06-20T06:39:26Z</time>
      </trkpt>
      <trkpt lat="47.24569" lon="-0.16195">
        <ele>58.8</ele>
        <time>2026-06-20T06:39:27Z</time>
      </trkpt>
      <trkpt lat="47.24572" lon="-0.162">
        <ele>58.6</ele>
        <time>2026-06-20T06:39:28Z</time>
      </trkpt>
      <trkpt lat="47.24576" lon="-0.16206">
        <ele>58.6</ele>
        <time>2026-06-20T06:39:29Z</time>
      </trkpt>
      <trkpt lat="47.2458" lon="-0.16211">
        <ele>58.4</ele>
        <time>2026-06-20T06:39:30Z</time>
      </trkpt>
      <trkpt lat="47.24583" lon="-0.16217">
        <ele>58.4</ele>
        <time>2026-06-20T06:39:31Z</time>
      </trkpt>
      <trkpt lat="47.24587" lon="-0.16222">
        <ele>58.4</ele>
        <time>2026-06-20T06:39:32Z</time>
      </trkpt>
      <trkpt lat="47.24591" lon="-0.16227">
        <ele>58.4</ele>
        <time>2026-06-20T06:39:33Z</time>
      </trkpt>
      <trkpt lat="47.24595" lon="-0.16232">
        <ele>58.4</ele>
        <time>2026-06-20T06:39:34Z</time>
      </trkpt>
      <trkpt lat="47.24599" lon="-0.16238">
        <ele>58.6</ele>
        <time>2026-06-20T06:39:35Z</time>
      </trkpt>
      <trkpt lat="47.24601" lon="-0.16243">
        <ele>58.6</ele>
        <time>2026-06-20T06:39:36Z</time>
      </trkpt>
      <trkpt lat="47.24601" lon="-0.16248">
        <ele>58.8</ele>
        <time>2026-06-20T06:39:37Z</time>
      </trkpt>
      <trkpt lat="47.246" lon="-0.16255">
        <ele>58.8</ele>
        <time>2026-06-20T06:39:38Z</time>
      </trkpt>
      <trkpt lat="47.24598" lon="-0.16258">
        <ele>59</ele>
        <time>2026-06-20T06:39:39Z</time>
      </trkpt>
      <trkpt lat="47.24595" lon="-0.16262">
        <ele>59</ele>
        <time>2026-06-20T06:39:40Z</time>
      </trkpt>
      <trkpt lat="47.24593" lon="-0.16266">
        <ele>59.2</ele>
        <time>2026-06-20T06:39:41Z</time>
      </trkpt>
      <trkpt lat="47.2459" lon="-0.16269">
        <ele>59.2</ele>
        <time>2026-06-20T06:39:42Z</time>
      </trkpt>
      <trkpt lat="47.24588" lon="-0.16272">
        <ele>59.4</ele>
        <time>2026-06-20T06:39:43Z</time>
      </trkpt>
      <trkpt lat="47.24586" lon="-0.16275">
        <ele>59.4</ele>
        <time>2026-06-20T06:39:44Z</time>
      </trkpt>
      <trkpt lat="47.24584" lon="-0.16281">
        <ele>59.6</ele>
        <time>2026-06-20T06:39:45Z</time>
      </trkpt>
      <trkpt lat="47.24583" lon="-0.16285">
        <ele>59.8</ele>
        <time>2026-06-20T06:39:46Z</time>
      </trkpt>
      <trkpt lat="47.24582" lon="-0.16288">
        <ele>60</ele>
        <time>2026-06-20T06:39:47Z</time>
      </trkpt>
      <trkpt lat="47.24581" lon="-0.1629">
        <ele>60.2</ele>
        <time>2026-06-20T06:39:48Z</time>
      </trkpt>
      <trkpt lat="47.24581" lon="-0.16293">
        <ele>60.2</ele>
        <time>2026-06-20T06:39:49Z</time>
      </trkpt>
      <trkpt lat="47.2458" lon="-0.16298">
        <ele>60.4</ele>
        <time>2026-06-20T06:39:50Z</time>
      </trkpt>
      <trkpt lat="47.2458" lon="-0.16301">
        <ele>60.6</ele>
        <time>2026-06-20T06:39:51Z</time>
      </trkpt>
      <trkpt lat="47.2458" lon="-0.16304">
        <ele>60.8</ele>
        <time>2026-06-20T06:39:52Z</time>
      </trkpt>
      <trkpt lat="47.24579" lon="-0.16307">
        <ele>61</ele>
        <time>2026-06-20T06:39:53Z</time>
      </trkpt>
      <trkpt lat="47.24578" lon="-0.16311">
        <ele>61.2</ele>
        <time>2026-06-20T06:39:54Z</time>
      </trkpt>
      <trkpt lat="47.24577" lon="-0.16314">
        <ele>61.4</ele>
        <time>2026-06-20T06:39:55Z</time>
      </trkpt>
      <trkpt lat="47.24576" lon="-0.16317">
        <ele>61.6</ele>
        <time>2026-06-20T06:39:56Z</time>
      </trkpt>
      <trkpt lat="47.24574" lon="-0.16321">
        <ele>61.8</ele>
        <time>2026-06-20T06:39:57Z</time>
      </trkpt>
      <trkpt lat="47.24572" lon="-0.16324">
        <ele>62</ele>
        <time>2026-06-20T06:39:58Z</time>
      </trkpt>
      <trkpt lat="47.2457" lon="-0.16327">
        <ele>62.2</ele>
        <time>2026-06-20T06:39:59Z</time>
      </trkpt>
      <trkpt lat="47.24569" lon="-0.16331">
        <ele>62.6</ele>
        <time>2026-06-20T06:40:00Z</time>
      </trkpt>
      <trkpt lat="47.24567" lon="-0.16334">
        <ele>62.8</ele>
        <time>2026-06-20T06:40:01Z</time>
      </trkpt>
      <trkpt lat="47.24565" lon="-0.16337">
        <ele>63</ele>
        <time>2026-06-20T06:40:02Z</time>
      </trkpt>
      <trkpt lat="47.24562" lon="-0.1634">
        <ele>63.2</ele>
        <time>2026-06-20T06:40:03Z</time>
      </trkpt>
      <trkpt lat="47.24559" lon="-0.16344">
        <ele>63.4</ele>
        <time>2026-06-20T06:40:04Z</time>
      </trkpt>
      <trkpt lat="47.24556" lon="-0.16348">
        <ele>63.4</ele>
        <time>2026-06-20T06:40:05Z</time>
      </trkpt>
      <trkpt lat="47.24553" lon="-0.16352">
        <ele>63.6</ele>
        <time>2026-06-20T06:40:06Z</time>
      </trkpt>
      <trkpt lat="47.2455" lon="-0.16358">
        <ele>63.8</ele>
        <time>2026-06-20T06:40:07Z</time>
      </trkpt>
      <trkpt lat="47.24547" lon="-0.16364">
        <ele>64</ele>
        <time>2026-06-20T06:40:08Z</time>
      </trkpt>
      <trkpt lat="47.24545" lon="-0.16367">
        <ele>64.2</ele>
        <time>2026-06-20T06:40:09Z</time>
      </trkpt>
      <trkpt lat="47.24543" lon="-0.16371">
        <ele>64.4</ele>
        <time>2026-06-20T06:40:10Z</time>
      </trkpt>
      <trkpt lat="47.24541" lon="-0.16373">
        <ele>64.6</ele>
        <time>2026-06-20T06:40:11Z</time>
      </trkpt>
      <trkpt lat="47.24539" lon="-0.16375">
        <ele>64.8</ele>
        <time>2026-06-20T06:40:12Z</time>
      </trkpt>
      <trkpt lat="47.24535" lon="-0.1638">
        <ele>65.2</ele>
        <time>2026-06-20T06:40:13Z</time>
      </trkpt>
      <trkpt lat="47.24533" lon="-0.16384">
        <ele>65.4</ele>
        <time>2026-06-20T06:40:14Z</time>
      </trkpt>
      <trkpt lat="47.24532" lon="-0.16389">
        <ele>65.6</ele>
        <time>2026-06-20T06:40:15Z</time>
      </trkpt>
      <trkpt lat="47.24531" lon="-0.16392">
        <ele>66</ele>
        <time>2026-06-20T06:40:16Z</time>
      </trkpt>
      <trkpt lat="47.24529" lon="-0.16395">
        <ele>66.4</ele>
        <time>2026-06-20T06:40:17Z</time>
      </trkpt>
      <trkpt lat="47.24527" lon="-0.16397">
        <ele>66.6</ele>
        <time>2026-06-20T06:40:18Z</time>
      </trkpt>
      <trkpt lat="47.24526" lon="-0.164">
        <ele>67</ele>
        <time>2026-06-20T06:40:19Z</time>
      </trkpt>
      <trkpt lat="47.24524" lon="-0.16402">
        <ele>67.2</ele>
        <time>2026-06-20T06:40:20Z</time>
      </trkpt>
      <trkpt lat="47.24521" lon="-0.16404">
        <ele>67.4</ele>
        <time>2026-06-20T06:40:21Z</time>
      </trkpt>
      <trkpt lat="47.2452" lon="-0.16407">
        <ele>67.8</ele>
        <time>2026-06-20T06:40:22Z</time>
      </trkpt>
      <trkpt lat="47.24518" lon="-0.1641">
        <ele>68</ele>
        <time>2026-06-20T06:40:23Z</time>
      </trkpt>
      <trkpt lat="47.24516" lon="-0.16413">
        <ele>68.4</ele>
        <time>2026-06-20T06:40:24Z</time>
      </trkpt>
      <trkpt lat="47.24515" lon="-0.16415">
        <ele>68.6</ele>
        <time>2026-06-20T06:40:25Z</time>
      </trkpt>
      <trkpt lat="47.24513" lon="-0.16418">
        <ele>68.8</ele>
        <time>2026-06-20T06:40:26Z</time>
      </trkpt>
      <trkpt lat="47.24511" lon="-0.16422">
        <ele>69</ele>
        <time>2026-06-20T06:40:27Z</time>
      </trkpt>
      <trkpt lat="47.24509" lon="-0.16425">
        <ele>69.4</ele>
        <time>2026-06-20T06:40:28Z</time>
      </trkpt>
      <trkpt lat="47.24508" lon="-0.16428">
        <ele>69.6</ele>
        <time>2026-06-20T06:40:29Z</time>
      </trkpt>
      <trkpt lat="47.24506" lon="-0.16431">
        <ele>69.8</ele>
        <time>2026-06-20T06:40:30Z</time>
      </trkpt>
      <trkpt lat="47.24505" lon="-0.16434">
        <ele>70</ele>
        <time>2026-06-20T06:40:31Z</time>
      </trkpt>
      <trkpt lat="47.24504" lon="-0.16438">
        <ele>70.2</ele>
        <time>2026-06-20T06:40:32Z</time>
      </trkpt>
      <trkpt lat="47.24503" lon="-0.16441">
        <ele>70.2</ele>
        <time>2026-06-20T06:40:33Z</time>
      </trkpt>
      <trkpt lat="47.24502" lon="-0.16445">
        <ele>70.4</ele>
        <time>2026-06-20T06:40:34Z</time>
      </trkpt>
      <trkpt lat="47.24501" lon="-0.16448">
        <ele>70.6</ele>
        <time>2026-06-20T06:40:35Z</time>
      </trkpt>
      <trkpt lat="47.24499" lon="-0.16452">
        <ele>70.6</ele>
        <time>2026-06-20T06:40:36Z</time>
      </trkpt>
      <trkpt lat="47.24498" lon="-0.16455">
        <ele>70.8</ele>
        <time>2026-06-20T06:40:37Z</time>
      </trkpt>
      <trkpt lat="47.24498" lon="-0.16458">
        <ele>71</ele>
        <time>2026-06-20T06:40:38Z</time>
      </trkpt>
      <trkpt lat="47.24497" lon="-0.16462">
        <ele>71</ele>
        <time>2026-06-20T06:40:39Z</time>
      </trkpt>
      <trkpt lat="47.24497" lon="-0.16465">
        <ele>71.2</ele>
        <time>2026-06-20T06:40:40Z</time>
      </trkpt>
      <trkpt lat="47.24497" lon="-0.16468">
        <ele>71.4</ele>
        <time>2026-06-20T06:40:41Z</time>
      </trkpt>
      <trkpt lat="47.24496" lon="-0.16472">
        <ele>71.4</ele>
        <time>2026-06-20T06:40:42Z</time>
      </trkpt>
      <trkpt lat="47.24495" lon="-0.16477">
        <ele>71.4</ele>
        <time>2026-06-20T06:40:43Z</time>
      </trkpt>
      <trkpt lat="47.24494" lon="-0.16483">
        <ele>71.6</ele>
        <time>2026-06-20T06:40:44Z</time>
      </trkpt>
      <trkpt lat="47.24494" lon="-0.16489">
        <ele>71.6</ele>
        <time>2026-06-20T06:40:45Z</time>
      </trkpt>
      <trkpt lat="47.24494" lon="-0.16496">
        <ele>71.8</ele>
        <time>2026-06-20T06:40:46Z</time>
      </trkpt>
      <trkpt lat="47.24494" lon="-0.16502">
        <ele>72</ele>
        <time>2026-06-20T06:40:47Z</time>
      </trkpt>
      <trkpt lat="47.24495" lon="-0.16508">
        <ele>72</ele>
        <time>2026-06-20T06:40:48Z</time>
      </trkpt>
      <trkpt lat="47.24495" lon="-0.16514">
        <ele>72.2</ele>
        <time>2026-06-20T06:40:49Z</time>
      </trkpt>
      <trkpt lat="47.24496" lon="-0.16519">
        <ele>72.2</ele>
        <time>2026-06-20T06:40:50Z</time>
      </trkpt>
      <trkpt lat="47.24497" lon="-0.16525">
        <ele>72.4</ele>
        <time>2026-06-20T06:40:51Z</time>
      </trkpt>
      <trkpt lat="47.24497" lon="-0.1653">
        <ele>72.6</ele>
        <time>2026-06-20T06:40:52Z</time>
      </trkpt>
      <trkpt lat="47.24497" lon="-0.16536">
        <ele>72.8</ele>
        <time>2026-06-20T06:40:53Z</time>
      </trkpt>
      <trkpt lat="47.24497" lon="-0.16541">
        <ele>72.8</ele>
        <time>2026-06-20T06:40:54Z</time>
      </trkpt>
      <trkpt lat="47.24497" lon="-0.16547">
        <ele>73</ele>
        <time>2026-06-20T06:40:55Z</time>
      </trkpt>
      <trkpt lat="47.24496" lon="-0.16554">
        <ele>73</ele>
        <time>2026-06-20T06:40:56Z</time>
      </trkpt>
      <trkpt lat="47.24496" lon="-0.1656">
        <ele>73.2</ele>
        <time>2026-06-20T06:40:57Z</time>
      </trkpt>
      <trkpt lat="47.24496" lon="-0.16566">
        <ele>73.2</ele>
        <time>2026-06-20T06:40:58Z</time>
      </trkpt>
      <trkpt lat="47.24495" lon="-0.16572">
        <ele>73.2</ele>
        <time>2026-06-20T06:40:59Z</time>
      </trkpt>
      <trkpt lat="47.24494" lon="-0.16577">
        <ele>73.4</ele>
        <time>2026-06-20T06:41:00Z</time>
      </trkpt>
      <trkpt lat="47.24493" lon="-0.16582">
        <ele>73.4</ele>
        <time>2026-06-20T06:41:01Z</time>
      </trkpt>
      <trkpt lat="47.24493" lon="-0.16587">
        <ele>73.6</ele>
        <time>2026-06-20T06:41:02Z</time>
      </trkpt>
      <trkpt lat="47.24491" lon="-0.16593">
        <ele>73.8</ele>
        <time>2026-06-20T06:41:03Z</time>
      </trkpt>
      <trkpt lat="47.2449" lon="-0.16599">
        <ele>73.8</ele>
        <time>2026-06-20T06:41:04Z</time>
      </trkpt>
      <trkpt lat="47.24488" lon="-0.16604">
        <ele>73.8</ele>
        <time>2026-06-20T06:41:05Z</time>
      </trkpt>
      <trkpt lat="47.24487" lon="-0.16608">
        <ele>74</ele>
        <time>2026-06-20T06:41:06Z</time>
      </trkpt>
      <trkpt lat="47.24486" lon="-0.16614">
        <ele>74</ele>
        <time>2026-06-20T06:41:07Z</time>
      </trkpt>
      <trkpt lat="47.24485" lon="-0.16619">
        <ele>74</ele>
        <time>2026-06-20T06:41:08Z</time>
      </trkpt>
      <trkpt lat="47.24483" lon="-0.16624">
        <ele>74</ele>
        <time>2026-06-20T06:41:09Z</time>
      </trkpt>
      <trkpt lat="47.24482" lon="-0.16629">
        <ele>74</ele>
        <time>2026-06-20T06:41:10Z</time>
      </trkpt>
      <trkpt lat="47.24481" lon="-0.16634">
        <ele>73.8</ele>
        <time>2026-06-20T06:41:11Z</time>
      </trkpt>
      <trkpt lat="47.2448" lon="-0.16639">
        <ele>73.8</ele>
        <time>2026-06-20T06:41:12Z</time>
      </trkpt>
      <trkpt lat="47.24479" lon="-0.16644">
        <ele>73.8</ele>
        <time>2026-06-20T06:41:13Z</time>
      </trkpt>
      <trkpt lat="47.24476" lon="-0.16648">
        <ele>73.8</ele>
        <time>2026-06-20T06:41:14Z</time>
      </trkpt>
      <trkpt lat="47.24473" lon="-0.16651">
        <ele>73.8</ele>
        <time>2026-06-20T06:41:15Z</time>
      </trkpt>
      <trkpt lat="47.2447" lon="-0.16654">
        <ele>73.8</ele>
        <time>2026-06-20T06:41:16Z</time>
      </trkpt>
      <trkpt lat="47.24466" lon="-0.16656">
        <ele>73.8</ele>
        <time>2026-06-20T06:41:17Z</time>
      </trkpt>
      <trkpt lat="47.24463" lon="-0.16659">
        <ele>73.8</ele>
        <time>2026-06-20T06:41:18Z</time>
      </trkpt>
      <trkpt lat="47.24461" lon="-0.16665">
        <ele>73.8</ele>
        <time>2026-06-20T06:41:19Z</time>
      </trkpt>
      <trkpt lat="47.2446" lon="-0.16671">
        <ele>73.6</ele>
        <time>2026-06-20T06:41:20Z</time>
      </trkpt>
      <trkpt lat="47.24458" lon="-0.16677">
        <ele>73.6</ele>
        <time>2026-06-20T06:41:21Z</time>
      </trkpt>
      <trkpt lat="47.24457" lon="-0.16684">
        <ele>73.4</ele>
        <time>2026-06-20T06:41:22Z</time>
      </trkpt>
      <trkpt lat="47.24455" lon="-0.16689">
        <ele>73.4</ele>
        <time>2026-06-20T06:41:23Z</time>
      </trkpt>
      <trkpt lat="47.24454" lon="-0.16695">
        <ele>73.4</ele>
        <time>2026-06-20T06:41:24Z</time>
      </trkpt>
      <trkpt lat="47.24452" lon="-0.16701">
        <ele>73.4</ele>
        <time>2026-06-20T06:41:25Z</time>
      </trkpt>
      <trkpt lat="47.2445" lon="-0.16707">
        <ele>73.4</ele>
        <time>2026-06-20T06:41:26Z</time>
      </trkpt>
      <trkpt lat="47.24449" lon="-0.16713">
        <ele>73.4</ele>
        <time>2026-06-20T06:41:27Z</time>
      </trkpt>
      <trkpt lat="47.24447" lon="-0.16719">
        <ele>73.4</ele>
        <time>2026-06-20T06:41:28Z</time>
      </trkpt>
      <trkpt lat="47.24445" lon="-0.16725">
        <ele>73.4</ele>
        <time>2026-06-20T06:41:29Z</time>
      </trkpt>
      <trkpt lat="47.24444" lon="-0.16732">
        <ele>73.4</ele>
        <time>2026-06-20T06:41:30Z</time>
      </trkpt>
      <trkpt lat="47.24442" lon="-0.16738">
        <ele>73.6</ele>
        <time>2026-06-20T06:41:31Z</time>
      </trkpt>
      <trkpt lat="47.2444" lon="-0.16745">
        <ele>73.6</ele>
        <time>2026-06-20T06:41:32Z</time>
      </trkpt>
      <trkpt lat="47.24438" lon="-0.16752">
        <ele>73.6</ele>
        <time>2026-06-20T06:41:33Z</time>
      </trkpt>
      <trkpt lat="47.24436" lon="-0.16759">
        <ele>73.6</ele>
        <time>2026-06-20T06:41:34Z</time>
      </trkpt>
      <trkpt lat="47.24434" lon="-0.16766">
        <ele>73.6</ele>
        <time>2026-06-20T06:41:35Z</time>
      </trkpt>
      <trkpt lat="47.24432" lon="-0.16772">
        <ele>73.6</ele>
        <time>2026-06-20T06:41:36Z</time>
      </trkpt>
      <trkpt lat="47.2443" lon="-0.16779">
        <ele>73.4</ele>
        <time>2026-06-20T06:41:37Z</time>
      </trkpt>
      <trkpt lat="47.24427" lon="-0.16785">
        <ele>73.4</ele>
        <time>2026-06-20T06:41:38Z</time>
      </trkpt>
      <trkpt lat="47.24424" lon="-0.16791">
        <ele>73.4</ele>
        <time>2026-06-20T06:41:39Z</time>
      </trkpt>
      <trkpt lat="47.24421" lon="-0.16797">
        <ele>73.2</ele>
        <time>2026-06-20T06:41:40Z</time>
      </trkpt>
      <trkpt lat="47.24418" lon="-0.16802">
        <ele>73.4</ele>
        <time>2026-06-20T06:41:41Z</time>
      </trkpt>
      <trkpt lat="47.24415" lon="-0.16808">
        <ele>73.4</ele>
        <time>2026-06-20T06:41:42Z</time>
      </trkpt>
      <trkpt lat="47.24412" lon="-0.16813">
        <ele>73.4</ele>
        <time>2026-06-20T06:41:43Z</time>
      </trkpt>
      <trkpt lat="47.24408" lon="-0.16819">
        <ele>73.6</ele>
        <time>2026-06-20T06:41:44Z</time>
      </trkpt>
      <trkpt lat="47.24404" lon="-0.16823">
        <ele>73.6</ele>
        <time>2026-06-20T06:41:45Z</time>
      </trkpt>
      <trkpt lat="47.244" lon="-0.16828">
        <ele>73.6</ele>
        <time>2026-06-20T06:41:46Z</time>
      </trkpt>
      <trkpt lat="47.24397" lon="-0.16832">
        <ele>73.6</ele>
        <time>2026-06-20T06:41:47Z</time>
      </trkpt>
      <trkpt lat="47.24393" lon="-0.16837">
        <ele>73.8</ele>
        <time>2026-06-20T06:41:48Z</time>
      </trkpt>
      <trkpt lat="47.24389" lon="-0.16842">
        <ele>73.8</ele>
        <time>2026-06-20T06:41:49Z</time>
      </trkpt>
      <trkpt lat="47.24386" lon="-0.16848">
        <ele>73.8</ele>
        <time>2026-06-20T06:41:50Z</time>
      </trkpt>
      <trkpt lat="47.24383" lon="-0.16854">
        <ele>73.8</ele>
        <time>2026-06-20T06:41:51Z</time>
      </trkpt>
      <trkpt lat="47.2438" lon="-0.1686">
        <ele>73.8</ele>
        <time>2026-06-20T06:41:52Z</time>
      </trkpt>
      <trkpt lat="47.24376" lon="-0.16866">
        <ele>73.6</ele>
        <time>2026-06-20T06:41:53Z</time>
      </trkpt>
      <trkpt lat="47.24374" lon="-0.16871">
        <ele>73.6</ele>
        <time>2026-06-20T06:41:54Z</time>
      </trkpt>
      <trkpt lat="47.24371" lon="-0.16878">
        <ele>73.6</ele>
        <time>2026-06-20T06:41:55Z</time>
      </trkpt>
      <trkpt lat="47.24369" lon="-0.16884">
        <ele>73.6</ele>
        <time>2026-06-20T06:41:56Z</time>
      </trkpt>
      <trkpt lat="47.24366" lon="-0.1689">
        <ele>73.6</ele>
        <time>2026-06-20T06:41:57Z</time>
      </trkpt>
      <trkpt lat="47.24364" lon="-0.16896">
        <ele>73.6</ele>
        <time>2026-06-20T06:41:58Z</time>
      </trkpt>
      <trkpt lat="47.24362" lon="-0.16902">
        <ele>73.4</ele>
        <time>2026-06-20T06:41:59Z</time>
      </trkpt>
      <trkpt lat="47.24361" lon="-0.16908">
        <ele>73.4</ele>
        <time>2026-06-20T06:42:00Z</time>
      </trkpt>
      <trkpt lat="47.24359" lon="-0.16914">
        <ele>73.2</ele>
        <time>2026-06-20T06:42:01Z</time>
      </trkpt>
      <trkpt lat="47.24358" lon="-0.1692">
        <ele>73.2</ele>
        <time>2026-06-20T06:42:02Z</time>
      </trkpt>
      <trkpt lat="47.24357" lon="-0.16927">
        <ele>73.2</ele>
        <time>2026-06-20T06:42:03Z</time>
      </trkpt>
      <trkpt lat="47.24355" lon="-0.16934">
        <ele>73</ele>
        <time>2026-06-20T06:42:04Z</time>
      </trkpt>
      <trkpt lat="47.24352" lon="-0.16941">
        <ele>73</ele>
        <time>2026-06-20T06:42:05Z</time>
      </trkpt>
      <trkpt lat="47.2435" lon="-0.16948">
        <ele>73</ele>
        <time>2026-06-20T06:42:06Z</time>
      </trkpt>
      <trkpt lat="47.24348" lon="-0.16954">
        <ele>73</ele>
        <time>2026-06-20T06:42:07Z</time>
      </trkpt>
      <trkpt lat="47.24346" lon="-0.16961">
        <ele>73</ele>
        <time>2026-06-20T06:42:08Z</time>
      </trkpt>
      <trkpt lat="47.24344" lon="-0.16969">
        <ele>73</ele>
        <time>2026-06-20T06:42:09Z</time>
      </trkpt>
      <trkpt lat="47.24342" lon="-0.16977">
        <ele>73</ele>
        <time>2026-06-20T06:42:10Z</time>
      </trkpt>
      <trkpt lat="47.2434" lon="-0.16985">
        <ele>73.2</ele>
        <time>2026-06-20T06:42:11Z</time>
      </trkpt>
      <trkpt lat="47.24338" lon="-0.16993">
        <ele>73.2</ele>
        <time>2026-06-20T06:42:12Z</time>
      </trkpt>
      <trkpt lat="47.24338" lon="-0.16999">
        <ele>73.2</ele>
        <time>2026-06-20T06:42:13Z</time>
      </trkpt>
      <trkpt lat="47.24336" lon="-0.17005">
        <ele>73.2</ele>
        <time>2026-06-20T06:42:14Z</time>
      </trkpt>
      <trkpt lat="47.24336" lon="-0.17012">
        <ele>73</ele>
        <time>2026-06-20T06:42:15Z</time>
      </trkpt>
      <trkpt lat="47.24336" lon="-0.1702">
        <ele>73</ele>
        <time>2026-06-20T06:42:16Z</time>
      </trkpt>
      <trkpt lat="47.24336" lon="-0.17029">
        <ele>73</ele>
        <time>2026-06-20T06:42:17Z</time>
      </trkpt>
      <trkpt lat="47.24336" lon="-0.17037">
        <ele>73</ele>
        <time>2026-06-20T06:42:18Z</time>
      </trkpt>
      <trkpt lat="47.24335" lon="-0.17045">
        <ele>73</ele>
        <time>2026-06-20T06:42:19Z</time>
      </trkpt>
      <trkpt lat="47.24336" lon="-0.17052">
        <ele>73</ele>
        <time>2026-06-20T06:42:20Z</time>
      </trkpt>
      <trkpt lat="47.24335" lon="-0.17059">
        <ele>73.2</ele>
        <time>2026-06-20T06:42:21Z</time>
      </trkpt>
      <trkpt lat="47.24334" lon="-0.17065">
        <ele>73.2</ele>
        <time>2026-06-20T06:42:22Z</time>
      </trkpt>
      <trkpt lat="47.24331" lon="-0.1707">
        <ele>73.2</ele>
        <time>2026-06-20T06:42:23Z</time>
      </trkpt>
      <trkpt lat="47.24329" lon="-0.17071">
        <ele>73.4</ele>
        <time>2026-06-20T06:42:24Z</time>
      </trkpt>
      <trkpt lat="47.24326" lon="-0.1707">
        <ele>73.6</ele>
        <time>2026-06-20T06:42:25Z</time>
      </trkpt>
      <trkpt lat="47.24324" lon="-0.17067">
        <ele>73.6</ele>
        <time>2026-06-20T06:42:26Z</time>
      </trkpt>
      <trkpt lat="47.2432" lon="-0.17065">
        <ele>73.8</ele>
        <time>2026-06-20T06:42:27Z</time>
      </trkpt>
      <trkpt lat="47.24318" lon="-0.17062">
        <ele>74</ele>
        <time>2026-06-20T06:42:28Z</time>
      </trkpt>
      <trkpt lat="47.24316" lon="-0.17059">
        <ele>74</ele>
        <time>2026-06-20T06:42:29Z</time>
      </trkpt>
      <trkpt lat="47.24313" lon="-0.17055">
        <ele>74.2</ele>
        <time>2026-06-20T06:42:30Z</time>
      </trkpt>
      <trkpt lat="47.2431" lon="-0.17052">
        <ele>74.4</ele>
        <time>2026-06-20T06:42:31Z</time>
      </trkpt>
      <trkpt lat="47.24307" lon="-0.17048">
        <ele>74.4</ele>
        <time>2026-06-20T06:42:32Z</time>
      </trkpt>
      <trkpt lat="47.24305" lon="-0.17045">
        <ele>74.6</ele>
        <time>2026-06-20T06:42:33Z</time>
      </trkpt>
      <trkpt lat="47.24303" lon="-0.17042">
        <ele>74.8</ele>
        <time>2026-06-20T06:42:34Z</time>
      </trkpt>
      <trkpt lat="47.243" lon="-0.17038">
        <ele>75</ele>
        <time>2026-06-20T06:42:35Z</time>
      </trkpt>
      <trkpt lat="47.24298" lon="-0.17034">
        <ele>75</ele>
        <time>2026-06-20T06:42:36Z</time>
      </trkpt>
      <trkpt lat="47.24296" lon="-0.1703">
        <ele>75.2</ele>
        <time>2026-06-20T06:42:37Z</time>
      </trkpt>
      <trkpt lat="47.24295" lon="-0.17027">
        <ele>75.2</ele>
        <time>2026-06-20T06:42:38Z</time>
      </trkpt>
      <trkpt lat="47.24292" lon="-0.17023">
        <ele>75.2</ele>
        <time>2026-06-20T06:42:39Z</time>
      </trkpt>
      <trkpt lat="47.24289" lon="-0.17018">
        <ele>75.4</ele>
        <time>2026-06-20T06:42:40Z</time>
      </trkpt>
      <trkpt lat="47.24287" lon="-0.17013">
        <ele>75.4</ele>
        <time>2026-06-20T06:42:41Z</time>
      </trkpt>
      <trkpt lat="47.24284" lon="-0.17008">
        <ele>75.4</ele>
        <time>2026-06-20T06:42:42Z</time>
      </trkpt>
      <trkpt lat="47.24282" lon="-0.17002">
        <ele>75.4</ele>
        <time>2026-06-20T06:42:43Z</time>
      </trkpt>
      <trkpt lat="47.2428" lon="-0.16997">
        <ele>75.4</ele>
        <time>2026-06-20T06:42:44Z</time>
      </trkpt>
      <trkpt lat="47.24277" lon="-0.16992">
        <ele>75.2</ele>
        <time>2026-06-20T06:42:45Z</time>
      </trkpt>
      <trkpt lat="47.24275" lon="-0.16986">
        <ele>75.2</ele>
        <time>2026-06-20T06:42:46Z</time>
      </trkpt>
      <trkpt lat="47.24274" lon="-0.16979">
        <ele>75.2</ele>
        <time>2026-06-20T06:42:47Z</time>
      </trkpt>
      <trkpt lat="47.24272" lon="-0.16972">
        <ele>75.2</ele>
        <time>2026-06-20T06:42:48Z</time>
      </trkpt>
      <trkpt lat="47.2427" lon="-0.16966">
        <ele>75</ele>
        <time>2026-06-20T06:42:49Z</time>
      </trkpt>
      <trkpt lat="47.24268" lon="-0.16959">
        <ele>75</ele>
        <time>2026-06-20T06:42:50Z</time>
      </trkpt>
      <trkpt lat="47.24266" lon="-0.16954">
        <ele>75</ele>
        <time>2026-06-20T06:42:51Z</time>
      </trkpt>
      <trkpt lat="47.24265" lon="-0.16947">
        <ele>74.8</ele>
        <time>2026-06-20T06:42:52Z</time>
      </trkpt>
      <trkpt lat="47.24263" lon="-0.1694">
        <ele>74.6</ele>
        <time>2026-06-20T06:42:53Z</time>
      </trkpt>
      <trkpt lat="47.24262" lon="-0.16933">
        <ele>74.6</ele>
        <time>2026-06-20T06:42:54Z</time>
      </trkpt>
      <trkpt lat="47.2426" lon="-0.16929">
        <ele>74.4</ele>
        <time>2026-06-20T06:42:55Z</time>
      </trkpt>
      <trkpt lat="47.24259" lon="-0.16927">
        <ele>74.2</ele>
        <time>2026-06-20T06:42:56Z</time>
      </trkpt>
      <trkpt lat="47.24257" lon="-0.16926">
        <ele>74.2</ele>
        <time>2026-06-20T06:42:57Z</time>
      </trkpt>
      <trkpt lat="47.24255" lon="-0.16927">
        <ele>74</ele>
        <time>2026-06-20T06:42:58Z</time>
      </trkpt>
      <trkpt lat="47.24253" lon="-0.16929">
        <ele>74</ele>
        <time>2026-06-20T06:42:59Z</time>
      </trkpt>
      <trkpt lat="47.24251" lon="-0.16932">
        <ele>74</ele>
        <time>2026-06-20T06:43:00Z</time>
      </trkpt>
      <trkpt lat="47.24249" lon="-0.16935">
        <ele>74</ele>
        <time>2026-06-20T06:43:01Z</time>
      </trkpt>
      <trkpt lat="47.24245" lon="-0.16939">
        <ele>74</ele>
        <time>2026-06-20T06:43:02Z</time>
      </trkpt>
      <trkpt lat="47.24242" lon="-0.16943">
        <ele>74</ele>
        <time>2026-06-20T06:43:03Z</time>
      </trkpt>
      <trkpt lat="47.24238" lon="-0.16945">
        <ele>74</ele>
        <time>2026-06-20T06:43:04Z</time>
      </trkpt>
      <trkpt lat="47.24233" lon="-0.16947">
        <ele>74</ele>
        <time>2026-06-20T06:43:05Z</time>
      </trkpt>
      <trkpt lat="47.2423" lon="-0.16949">
        <ele>74</ele>
        <time>2026-06-20T06:43:06Z</time>
      </trkpt>
      <trkpt lat="47.24227" lon="-0.16952">
        <ele>73.8</ele>
        <time>2026-06-20T06:43:07Z</time>
      </trkpt>
      <trkpt lat="47.24226" lon="-0.16957">
        <ele>73.8</ele>
        <time>2026-06-20T06:43:08Z</time>
      </trkpt>
      <trkpt lat="47.24226" lon="-0.16962">
        <ele>73.6</ele>
        <time>2026-06-20T06:43:09Z</time>
      </trkpt>
      <trkpt lat="47.24228" lon="-0.16967">
        <ele>73.8</ele>
        <time>2026-06-20T06:43:10Z</time>
      </trkpt>
      <trkpt lat="47.2423" lon="-0.16971">
        <ele>73.8</ele>
        <time>2026-06-20T06:43:11Z</time>
      </trkpt>
      <trkpt lat="47.24232" lon="-0.16975">
        <ele>74</ele>
        <time>2026-06-20T06:43:12Z</time>
      </trkpt>
      <trkpt lat="47.24234" lon="-0.16979">
        <ele>74.2</ele>
        <time>2026-06-20T06:43:13Z</time>
      </trkpt>
      <trkpt lat="47.24236" lon="-0.16983">
        <ele>74.6</ele>
        <time>2026-06-20T06:43:14Z</time>
      </trkpt>
      <trkpt lat="47.24237" lon="-0.16988">
        <ele>74.8</ele>
        <time>2026-06-20T06:43:15Z</time>
      </trkpt>
      <trkpt lat="47.24237" lon="-0.16993">
        <ele>75</ele>
        <time>2026-06-20T06:43:16Z</time>
      </trkpt>
      <trkpt lat="47.24236" lon="-0.16997">
        <ele>75.2</ele>
        <time>2026-06-20T06:43:17Z</time>
      </trkpt>
      <trkpt lat="47.24234" lon="-0.17001">
        <ele>75.2</ele>
        <time>2026-06-20T06:43:18Z</time>
      </trkpt>
      <trkpt lat="47.24231" lon="-0.17004">
        <ele>75.2</ele>
        <time>2026-06-20T06:43:19Z</time>
      </trkpt>
      <trkpt lat="47.24229" lon="-0.17009">
        <ele>75.2</ele>
        <time>2026-06-20T06:43:20Z</time>
      </trkpt>
      <trkpt lat="47.24228" lon="-0.17012">
        <ele>75.4</ele>
        <time>2026-06-20T06:43:21Z</time>
      </trkpt>
      <trkpt lat="47.24226" lon="-0.17016">
        <ele>75.4</ele>
        <time>2026-06-20T06:43:22Z</time>
      </trkpt>
      <trkpt lat="47.24224" lon="-0.1702">
        <ele>75.4</ele>
        <time>2026-06-20T06:43:23Z</time>
      </trkpt>
      <trkpt lat="47.24223" lon="-0.17024">
        <ele>75.6</ele>
        <time>2026-06-20T06:43:24Z</time>
      </trkpt>
      <trkpt lat="47.24222" lon="-0.17028">
        <ele>75.8</ele>
        <time>2026-06-20T06:43:25Z</time>
      </trkpt>
      <trkpt lat="47.2422" lon="-0.17032">
        <ele>75.8</ele>
        <time>2026-06-20T06:43:26Z</time>
      </trkpt>
      <trkpt lat="47.24219" lon="-0.17036">
        <ele>76</ele>
        <time>2026-06-20T06:43:27Z</time>
      </trkpt>
      <trkpt lat="47.24218" lon="-0.1704">
        <ele>76.2</ele>
        <time>2026-06-20T06:43:28Z</time>
      </trkpt>
      <trkpt lat="47.24216" lon="-0.17044">
        <ele>76.4</ele>
        <time>2026-06-20T06:43:29Z</time>
      </trkpt>
      <trkpt lat="47.24215" lon="-0.17048">
        <ele>76.6</ele>
        <time>2026-06-20T06:43:30Z</time>
      </trkpt>
      <trkpt lat="47.24214" lon="-0.17052">
        <ele>76.8</ele>
        <time>2026-06-20T06:43:31Z</time>
      </trkpt>
      <trkpt lat="47.24214" lon="-0.17055">
        <ele>77</ele>
        <time>2026-06-20T06:43:32Z</time>
      </trkpt>
      <trkpt lat="47.24213" lon="-0.17055">
        <ele>77.2</ele>
        <time>2026-06-20T06:43:33Z</time>
      </trkpt>
      <trkpt lat="47.24212" lon="-0.17054">
        <ele>77.2</ele>
        <time>2026-06-20T06:43:34Z</time>
      </trkpt>
      <trkpt lat="47.24211" lon="-0.17052">
        <ele>77.4</ele>
        <time>2026-06-20T06:43:35Z</time>
      </trkpt>
      <trkpt lat="47.24211" lon="-0.1705">
        <ele>77.6</ele>
        <time>2026-06-20T06:43:36Z</time>
      </trkpt>
      <trkpt lat="47.24209" lon="-0.17047">
        <ele>77.6</ele>
        <time>2026-06-20T06:43:37Z</time>
      </trkpt>
      <trkpt lat="47.24208" lon="-0.17044">
        <ele>77.4</ele>
        <time>2026-06-20T06:43:38Z</time>
      </trkpt>
      <trkpt lat="47.24206" lon="-0.1704">
        <ele>77.4</ele>
        <time>2026-06-20T06:43:39Z</time>
      </trkpt>
      <trkpt lat="47.24205" lon="-0.17033">
        <ele>77</ele>
        <time>2026-06-20T06:43:40Z</time>
      </trkpt>
      <trkpt lat="47.24204" lon="-0.17028">
        <ele>76.6</ele>
        <time>2026-06-20T06:43:41Z</time>
      </trkpt>
      <trkpt lat="47.24202" lon="-0.17021">
        <ele>76.2</ele>
        <time>2026-06-20T06:43:42Z</time>
      </trkpt>
      <trkpt lat="47.242" lon="-0.17012">
        <ele>75.6</ele>
        <time>2026-06-20T06:43:43Z</time>
      </trkpt>
      <trkpt lat="47.24198" lon="-0.17005">
        <ele>75.2</ele>
        <time>2026-06-20T06:43:44Z</time>
      </trkpt>
      <trkpt lat="47.24195" lon="-0.17001">
        <ele>74.8</ele>
        <time>2026-06-20T06:43:45Z</time>
      </trkpt>
      <trkpt lat="47.24192" lon="-0.16999">
        <ele>74.6</ele>
        <time>2026-06-20T06:43:46Z</time>
      </trkpt>
      <trkpt lat="47.2419" lon="-0.16998">
        <ele>74.2</ele>
        <time>2026-06-20T06:43:47Z</time>
      </trkpt>
      <trkpt lat="47.24187" lon="-0.16999">
        <ele>73.8</ele>
        <time>2026-06-20T06:43:48Z</time>
      </trkpt>
      <trkpt lat="47.24184" lon="-0.17002">
        <ele>73.6</ele>
        <time>2026-06-20T06:43:49Z</time>
      </trkpt>
      <trkpt lat="47.2418" lon="-0.17005">
        <ele>73.4</ele>
        <time>2026-06-20T06:43:50Z</time>
      </trkpt>
      <trkpt lat="47.24176" lon="-0.17008">
        <ele>73</ele>
        <time>2026-06-20T06:43:51Z</time>
      </trkpt>
      <trkpt lat="47.24172" lon="-0.17012">
        <ele>72.8</ele>
        <time>2026-06-20T06:43:52Z</time>
      </trkpt>
      <trkpt lat="47.24169" lon="-0.17015">
        <ele>72.6</ele>
        <time>2026-06-20T06:43:53Z</time>
      </trkpt>
      <trkpt lat="47.24166" lon="-0.17018">
        <ele>72.4</ele>
        <time>2026-06-20T06:43:54Z</time>
      </trkpt>
      <trkpt lat="47.24163" lon="-0.17022">
        <ele>72.2</ele>
        <time>2026-06-20T06:43:55Z</time>
      </trkpt>
      <trkpt lat="47.2416" lon="-0.17026">
        <ele>72.2</ele>
        <time>2026-06-20T06:43:56Z</time>
      </trkpt>
      <trkpt lat="47.24157" lon="-0.1703">
        <ele>72</ele>
        <time>2026-06-20T06:43:57Z</time>
      </trkpt>
      <trkpt lat="47.24154" lon="-0.17035">
        <ele>72</ele>
        <time>2026-06-20T06:43:58Z</time>
      </trkpt>
      <trkpt lat="47.24151" lon="-0.17041">
        <ele>72</ele>
        <time>2026-06-20T06:43:59Z</time>
      </trkpt>
      <trkpt lat="47.24148" lon="-0.17045">
        <ele>71.8</ele>
        <time>2026-06-20T06:44:00Z</time>
      </trkpt>
      <trkpt lat="47.24145" lon="-0.17049">
        <ele>72</ele>
        <time>2026-06-20T06:44:01Z</time>
      </trkpt>
      <trkpt lat="47.24141" lon="-0.17054">
        <ele>72</ele>
        <time>2026-06-20T06:44:02Z</time>
      </trkpt>
      <trkpt lat="47.24138" lon="-0.17059">
        <ele>72</ele>
        <time>2026-06-20T06:44:03Z</time>
      </trkpt>
      <trkpt lat="47.24135" lon="-0.17063">
        <ele>72.2</ele>
        <time>2026-06-20T06:44:04Z</time>
      </trkpt>
      <trkpt lat="47.24133" lon="-0.17067">
        <ele>72.4</ele>
        <time>2026-06-20T06:44:05Z</time>
      </trkpt>
      <trkpt lat="47.24132" lon="-0.17071">
        <ele>72.6</ele>
        <time>2026-06-20T06:44:06Z</time>
      </trkpt>
      <trkpt lat="47.2413" lon="-0.17074">
        <ele>72.8</ele>
        <time>2026-06-20T06:44:07Z</time>
      </trkpt>
      <trkpt lat="47.24129" lon="-0.17079">
        <ele>73</ele>
        <time>2026-06-20T06:44:08Z</time>
      </trkpt>
      <trkpt lat="47.24129" lon="-0.17082">
        <ele>73.2</ele>
        <time>2026-06-20T06:44:09Z</time>
      </trkpt>
      <trkpt lat="47.24129" lon="-0.17086">
        <ele>73.6</ele>
        <time>2026-06-20T06:44:10Z</time>
      </trkpt>
      <trkpt lat="47.2413" lon="-0.17088">
        <ele>73.8</ele>
        <time>2026-06-20T06:44:11Z</time>
      </trkpt>
      <trkpt lat="47.24132" lon="-0.17091">
        <ele>74.2</ele>
        <time>2026-06-20T06:44:12Z</time>
      </trkpt>
      <trkpt lat="47.24133" lon="-0.17093">
        <ele>74.6</ele>
        <time>2026-06-20T06:44:13Z</time>
      </trkpt>
      <trkpt lat="47.24136" lon="-0.17096">
        <ele>75</ele>
        <time>2026-06-20T06:44:14Z</time>
      </trkpt>
      <trkpt lat="47.24137" lon="-0.17099">
        <ele>75.4</ele>
        <time>2026-06-20T06:44:15Z</time>
      </trkpt>
      <trkpt lat="47.24138" lon="-0.17102">
        <ele>75.6</ele>
        <time>2026-06-20T06:44:16Z</time>
      </trkpt>
      <trkpt lat="47.24138" lon="-0.17105">
        <ele>76</ele>
        <time>2026-06-20T06:44:17Z</time>
      </trkpt>
      <trkpt lat="47.24138" lon="-0.17107">
        <ele>76.2</ele>
        <time>2026-06-20T06:44:18Z</time>
      </trkpt>
      <trkpt lat="47.24136" lon="-0.17109">
        <ele>76.6</ele>
        <time>2026-06-20T06:44:19Z</time>
      </trkpt>
      <trkpt lat="47.24134" lon="-0.17109">
        <ele>76.8</ele>
        <time>2026-06-20T06:44:20Z</time>
      </trkpt>
      <trkpt lat="47.24131" lon="-0.1711">
        <ele>76.8</ele>
        <time>2026-06-20T06:44:21Z</time>
      </trkpt>
      <trkpt lat="47.24128" lon="-0.17111">
        <ele>76.8</ele>
        <time>2026-06-20T06:44:22Z</time>
      </trkpt>
      <trkpt lat="47.24125" lon="-0.17114">
        <ele>76.8</ele>
        <time>2026-06-20T06:44:23Z</time>
      </trkpt>
      <trkpt lat="47.24123" lon="-0.17117">
        <ele>76.6</ele>
        <time>2026-06-20T06:44:24Z</time>
      </trkpt>
      <trkpt lat="47.2412" lon="-0.17121">
        <ele>76.4</ele>
        <time>2026-06-20T06:44:25Z</time>
      </trkpt>
      <trkpt lat="47.24117" lon="-0.17126">
        <ele>76.2</ele>
        <time>2026-06-20T06:44:26Z</time>
      </trkpt>
      <trkpt lat="47.24116" lon="-0.17132">
        <ele>76</ele>
        <time>2026-06-20T06:44:27Z</time>
      </trkpt>
      <trkpt lat="47.24114" lon="-0.17137">
        <ele>75.8</ele>
        <time>2026-06-20T06:44:28Z</time>
      </trkpt>
      <trkpt lat="47.24111" lon="-0.17139">
        <ele>75.6</ele>
        <time>2026-06-20T06:44:29Z</time>
      </trkpt>
      <trkpt lat="47.24107" lon="-0.17141">
        <ele>75.4</ele>
        <time>2026-06-20T06:44:30Z</time>
      </trkpt>
      <trkpt lat="47.24104" lon="-0.17143">
        <ele>75.2</ele>
        <time>2026-06-20T06:44:31Z</time>
      </trkpt>
      <trkpt lat="47.24102" lon="-0.17147">
        <ele>75</ele>
        <time>2026-06-20T06:44:32Z</time>
      </trkpt>
      <trkpt lat="47.24099" lon="-0.1715">
        <ele>74.8</ele>
        <time>2026-06-20T06:44:33Z</time>
      </trkpt>
      <trkpt lat="47.24097" lon="-0.17153">
        <ele>74.4</ele>
        <time>2026-06-20T06:44:34Z</time>
      </trkpt>
      <trkpt lat="47.24094" lon="-0.17157">
        <ele>74.4</ele>
        <time>2026-06-20T06:44:35Z</time>
      </trkpt>
      <trkpt lat="47.24092" lon="-0.17161">
        <ele>74.2</ele>
        <time>2026-06-20T06:44:36Z</time>
      </trkpt>
      <trkpt lat="47.2409" lon="-0.17167">
        <ele>74</ele>
        <time>2026-06-20T06:44:37Z</time>
      </trkpt>
      <trkpt lat="47.24089" lon="-0.17173">
        <ele>74</ele>
        <time>2026-06-20T06:44:38Z</time>
      </trkpt>
      <trkpt lat="47.24088" lon="-0.17179">
        <ele>74</ele>
        <time>2026-06-20T06:44:39Z</time>
      </trkpt>
      <trkpt lat="47.24088" lon="-0.17184">
        <ele>74</ele>
        <time>2026-06-20T06:44:40Z</time>
      </trkpt>
      <trkpt lat="47.24089" lon="-0.17189">
        <ele>74</ele>
        <time>2026-06-20T06:44:41Z</time>
      </trkpt>
      <trkpt lat="47.2409" lon="-0.17194">
        <ele>74</ele>
        <time>2026-06-20T06:44:42Z</time>
      </trkpt>
      <trkpt lat="47.24091" lon="-0.17198">
        <ele>74.2</ele>
        <time>2026-06-20T06:44:43Z</time>
      </trkpt>
      <trkpt lat="47.24091" lon="-0.17203">
        <ele>74.4</ele>
        <time>2026-06-20T06:44:44Z</time>
      </trkpt>
      <trkpt lat="47.24092" lon="-0.1721">
        <ele>74.6</ele>
        <time>2026-06-20T06:44:45Z</time>
      </trkpt>
      <trkpt lat="47.24093" lon="-0.17215">
        <ele>74.6</ele>
        <time>2026-06-20T06:44:46Z</time>
      </trkpt>
      <trkpt lat="47.24094" lon="-0.1722">
        <ele>74.8</ele>
        <time>2026-06-20T06:44:47Z</time>
      </trkpt>
      <trkpt lat="47.24094" lon="-0.17223">
        <ele>74.8</ele>
        <time>2026-06-20T06:44:48Z</time>
      </trkpt>
      <trkpt lat="47.24096" lon="-0.17227">
        <ele>74.8</ele>
        <time>2026-06-20T06:44:49Z</time>
      </trkpt>
      <trkpt lat="47.24098" lon="-0.17231">
        <ele>74.8</ele>
        <time>2026-06-20T06:44:50Z</time>
      </trkpt>
      <trkpt lat="47.24101" lon="-0.17235">
        <ele>74.8</ele>
        <time>2026-06-20T06:44:51Z</time>
      </trkpt>
      <trkpt lat="47.24104" lon="-0.17238">
        <ele>75</ele>
        <time>2026-06-20T06:44:52Z</time>
      </trkpt>
      <trkpt lat="47.24106" lon="-0.1724">
        <ele>75</ele>
        <time>2026-06-20T06:44:53Z</time>
      </trkpt>
      <trkpt lat="47.24109" lon="-0.17243">
        <ele>75.2</ele>
        <time>2026-06-20T06:44:54Z</time>
      </trkpt>
      <trkpt lat="47.24112" lon="-0.17246">
        <ele>75.4</ele>
        <time>2026-06-20T06:44:55Z</time>
      </trkpt>
      <trkpt lat="47.24114" lon="-0.17248">
        <ele>75.6</ele>
        <time>2026-06-20T06:44:56Z</time>
      </trkpt>
      <trkpt lat="47.24117" lon="-0.17249">
        <ele>75.6</ele>
        <time>2026-06-20T06:44:57Z</time>
      </trkpt>
      <trkpt lat="47.24119" lon="-0.17249">
        <ele>75.8</ele>
        <time>2026-06-20T06:44:58Z</time>
      </trkpt>
      <trkpt lat="47.24122" lon="-0.17248">
        <ele>76</ele>
        <time>2026-06-20T06:44:59Z</time>
      </trkpt>
      <trkpt lat="47.24125" lon="-0.17248">
        <ele>76</ele>
        <time>2026-06-20T06:45:00Z</time>
      </trkpt>
      <trkpt lat="47.24128" lon="-0.17247">
        <ele>76.2</ele>
        <time>2026-06-20T06:45:01Z</time>
      </trkpt>
      <trkpt lat="47.24131" lon="-0.17246">
        <ele>76.4</ele>
        <time>2026-06-20T06:45:02Z</time>
      </trkpt>
      <trkpt lat="47.24134" lon="-0.17245">
        <ele>76.4</ele>
        <time>2026-06-20T06:45:03Z</time>
      </trkpt>
      <trkpt lat="47.24137" lon="-0.17243">
        <ele>76.6</ele>
        <time>2026-06-20T06:45:04Z</time>
      </trkpt>
      <trkpt lat="47.2414" lon="-0.1724">
        <ele>76.6</ele>
        <time>2026-06-20T06:45:05Z</time>
      </trkpt>
      <trkpt lat="47.24142" lon="-0.17238">
        <ele>76.8</ele>
        <time>2026-06-20T06:45:06Z</time>
      </trkpt>
      <trkpt lat="47.24145" lon="-0.17236">
        <ele>77</ele>
        <time>2026-06-20T06:45:07Z</time>
      </trkpt>
      <trkpt lat="47.24147" lon="-0.17233">
        <ele>77</ele>
        <time>2026-06-20T06:45:08Z</time>
      </trkpt>
      <trkpt lat="47.24149" lon="-0.17231">
        <ele>77.2</ele>
        <time>2026-06-20T06:45:09Z</time>
      </trkpt>
      <trkpt lat="47.2415" lon="-0.17227">
        <ele>77.2</ele>
        <time>2026-06-20T06:45:10Z</time>
      </trkpt>
      <trkpt lat="47.2415" lon="-0.17223">
        <ele>77.4</ele>
        <time>2026-06-20T06:45:11Z</time>
      </trkpt>
      <trkpt lat="47.2415" lon="-0.17219">
        <ele>77.4</ele>
        <time>2026-06-20T06:45:12Z</time>
      </trkpt>
      <trkpt lat="47.24151" lon="-0.17215">
        <ele>77.6</ele>
        <time>2026-06-20T06:45:13Z</time>
      </trkpt>
      <trkpt lat="47.24152" lon="-0.17212">
        <ele>77.6</ele>
        <time>2026-06-20T06:45:14Z</time>
      </trkpt>
      <trkpt lat="47.24154" lon="-0.1721">
        <ele>77.8</ele>
        <time>2026-06-20T06:45:15Z</time>
      </trkpt>
      <trkpt lat="47.24156" lon="-0.17208">
        <ele>77.8</ele>
        <time>2026-06-20T06:45:16Z</time>
      </trkpt>
      <trkpt lat="47.24158" lon="-0.17207">
        <ele>78</ele>
        <time>2026-06-20T06:45:17Z</time>
      </trkpt>
      <trkpt lat="47.2416" lon="-0.17205">
        <ele>78</ele>
        <time>2026-06-20T06:45:18Z</time>
      </trkpt>
      <trkpt lat="47.24163" lon="-0.17203">
        <ele>78.2</ele>
        <time>2026-06-20T06:45:19Z</time>
      </trkpt>
      <trkpt lat="47.24166" lon="-0.17202">
        <ele>78.2</ele>
        <time>2026-06-20T06:45:20Z</time>
      </trkpt>
      <trkpt lat="47.24169" lon="-0.17202">
        <ele>78.2</ele>
        <time>2026-06-20T06:45:21Z</time>
      </trkpt>
      <trkpt lat="47.24171" lon="-0.17204">
        <ele>78.2</ele>
        <time>2026-06-20T06:45:22Z</time>
      </trkpt>
      <trkpt lat="47.24172" lon="-0.17206">
        <ele>78.2</ele>
        <time>2026-06-20T06:45:23Z</time>
      </trkpt>
      <trkpt lat="47.24174" lon="-0.17207">
        <ele>78.4</ele>
        <time>2026-06-20T06:45:24Z</time>
      </trkpt>
      <trkpt lat="47.24177" lon="-0.17206">
        <ele>78.6</ele>
        <time>2026-06-20T06:45:25Z</time>
      </trkpt>
      <trkpt lat="47.24179" lon="-0.17204">
        <ele>78.6</ele>
        <time>2026-06-20T06:45:26Z</time>
      </trkpt>
      <trkpt lat="47.2418" lon="-0.172">
        <ele>78.8</ele>
        <time>2026-06-20T06:45:27Z</time>
      </trkpt>
      <trkpt lat="47.24182" lon="-0.17197">
        <ele>79</ele>
        <time>2026-06-20T06:45:28Z</time>
      </trkpt>
      <trkpt lat="47.24184" lon="-0.17194">
        <ele>79.2</ele>
        <time>2026-06-20T06:45:29Z</time>
      </trkpt>
      <trkpt lat="47.24185" lon="-0.1719">
        <ele>79.2</ele>
        <time>2026-06-20T06:45:30Z</time>
      </trkpt>
      <trkpt lat="47.24186" lon="-0.17187">
        <ele>79.2</ele>
        <time>2026-06-20T06:45:31Z</time>
      </trkpt>
      <trkpt lat="47.24187" lon="-0.17183">
        <ele>79.4</ele>
        <time>2026-06-20T06:45:32Z</time>
      </trkpt>
      <trkpt lat="47.24188" lon="-0.1718">
        <ele>79.2</ele>
        <time>2026-06-20T06:45:33Z</time>
      </trkpt>
      <trkpt lat="47.24189" lon="-0.17176">
        <ele>79.2</ele>
        <time>2026-06-20T06:45:34Z</time>
      </trkpt>
      <trkpt lat="47.2419" lon="-0.17172">
        <ele>79</ele>
        <time>2026-06-20T06:45:35Z</time>
      </trkpt>
      <trkpt lat="47.24192" lon="-0.17169">
        <ele>79</ele>
        <time>2026-06-20T06:45:36Z</time>
      </trkpt>
      <trkpt lat="47.24194" lon="-0.17166">
        <ele>79</ele>
        <time>2026-06-20T06:45:37Z</time>
      </trkpt>
      <trkpt lat="47.24197" lon="-0.17165">
        <ele>79</ele>
        <time>2026-06-20T06:45:38Z</time>
      </trkpt>
      <trkpt lat="47.24199" lon="-0.17163">
        <ele>79</ele>
        <time>2026-06-20T06:45:39Z</time>
      </trkpt>
      <trkpt lat="47.24203" lon="-0.17161">
        <ele>79</ele>
        <time>2026-06-20T06:45:40Z</time>
      </trkpt>
      <trkpt lat="47.24205" lon="-0.1716">
        <ele>79.2</ele>
        <time>2026-06-20T06:45:41Z</time>
      </trkpt>
      <trkpt lat="47.24209" lon="-0.17159">
        <ele>79.2</ele>
        <time>2026-06-20T06:45:42Z</time>
      </trkpt>
      <trkpt lat="47.24212" lon="-0.17157">
        <ele>79.2</ele>
        <time>2026-06-20T06:45:43Z</time>
      </trkpt>
      <trkpt lat="47.24215" lon="-0.17156">
        <ele>79.4</ele>
        <time>2026-06-20T06:45:44Z</time>
      </trkpt>
      <trkpt lat="47.24216" lon="-0.17155">
        <ele>79.6</ele>
        <time>2026-06-20T06:45:45Z</time>
      </trkpt>
      <trkpt lat="47.24218" lon="-0.17155">
        <ele>79.8</ele>
        <time>2026-06-20T06:45:46Z</time>
      </trkpt>
      <trkpt lat="47.24221" lon="-0.17156">
        <ele>80</ele>
        <time>2026-06-20T06:45:47Z</time>
      </trkpt>
      <trkpt lat="47.24225" lon="-0.17157">
        <ele>80</ele>
        <time>2026-06-20T06:45:48Z</time>
      </trkpt>
      <trkpt lat="47.24229" lon="-0.17157">
        <ele>80</ele>
        <time>2026-06-20T06:45:49Z</time>
      </trkpt>
      <trkpt lat="47.24233" lon="-0.17158">
        <ele>79.8</ele>
        <time>2026-06-20T06:45:50Z</time>
      </trkpt>
      <trkpt lat="47.24238" lon="-0.17161">
        <ele>79.6</ele>
        <time>2026-06-20T06:45:51Z</time>
      </trkpt>
      <trkpt lat="47.24242" lon="-0.17164">
        <ele>79.2</ele>
        <time>2026-06-20T06:45:52Z</time>
      </trkpt>
      <trkpt lat="47.24245" lon="-0.17169">
        <ele>78.8</ele>
        <time>2026-06-20T06:45:53Z</time>
      </trkpt>
      <trkpt lat="47.24248" lon="-0.17175">
        <ele>78.4</ele>
        <time>2026-06-20T06:45:54Z</time>
      </trkpt>
      <trkpt lat="47.2425" lon="-0.17181">
        <ele>78</ele>
        <time>2026-06-20T06:45:55Z</time>
      </trkpt>
      <trkpt lat="47.24253" lon="-0.17188">
        <ele>77.6</ele>
        <time>2026-06-20T06:45:56Z</time>
      </trkpt>
      <trkpt lat="47.24257" lon="-0.17195">
        <ele>77.2</ele>
        <time>2026-06-20T06:45:57Z</time>
      </trkpt>
      <trkpt lat="47.24261" lon="-0.17202">
        <ele>76.4</ele>
        <time>2026-06-20T06:45:58Z</time>
      </trkpt>
      <trkpt lat="47.24264" lon="-0.1721">
        <ele>75.8</ele>
        <time>2026-06-20T06:45:59Z</time>
      </trkpt>
      <trkpt lat="47.24266" lon="-0.17219">
        <ele>75.4</ele>
        <time>2026-06-20T06:46:00Z</time>
      </trkpt>
      <trkpt lat="47.24267" lon="-0.17228">
        <ele>75</ele>
        <time>2026-06-20T06:46:01Z</time>
      </trkpt>
      <trkpt lat="47.24267" lon="-0.17235">
        <ele>74.6</ele>
        <time>2026-06-20T06:46:02Z</time>
      </trkpt>
      <trkpt lat="47.24266" lon="-0.17243">
        <ele>74.4</ele>
        <time>2026-06-20T06:46:03Z</time>
      </trkpt>
      <trkpt lat="47.24265" lon="-0.17251">
        <ele>74.2</ele>
        <time>2026-06-20T06:46:04Z</time>
      </trkpt>
      <trkpt lat="47.24265" lon="-0.17259">
        <ele>74.2</ele>
        <time>2026-06-20T06:46:05Z</time>
      </trkpt>
      <trkpt lat="47.24264" lon="-0.17267">
        <ele>74</ele>
        <time>2026-06-20T06:46:06Z</time>
      </trkpt>
      <trkpt lat="47.24263" lon="-0.17277">
        <ele>73.8</ele>
        <time>2026-06-20T06:46:07Z</time>
      </trkpt>
      <trkpt lat="47.24263" lon="-0.17288">
        <ele>73.8</ele>
        <time>2026-06-20T06:46:08Z</time>
      </trkpt>
      <trkpt lat="47.24265" lon="-0.17297">
        <ele>73.4</ele>
        <time>2026-06-20T06:46:09Z</time>
      </trkpt>
      <trkpt lat="47.24268" lon="-0.17305">
        <ele>73</ele>
        <time>2026-06-20T06:46:10Z</time>
      </trkpt>
      <trkpt lat="47.24271" lon="-0.17312">
        <ele>72.2</ele>
        <time>2026-06-20T06:46:11Z</time>
      </trkpt>
      <trkpt lat="47.24275" lon="-0.17319">
        <ele>71.6</ele>
        <time>2026-06-20T06:46:12Z</time>
      </trkpt>
      <trkpt lat="47.2428" lon="-0.17326">
        <ele>70.6</ele>
        <time>2026-06-20T06:46:13Z</time>
      </trkpt>
      <trkpt lat="47.24283" lon="-0.17331">
        <ele>70</ele>
        <time>2026-06-20T06:46:14Z</time>
      </trkpt>
      <trkpt lat="47.24283" lon="-0.17332">
        <ele>69.6</ele>
        <time>2026-06-20T06:46:15Z</time>
      </trkpt>
      <trkpt lat="47.24282" lon="-0.17334">
        <ele>69.4</ele>
        <time>2026-06-20T06:46:16Z</time>
      </trkpt>
      <trkpt lat="47.2428" lon="-0.17336">
        <ele>69.4</ele>
        <time>2026-06-20T06:46:17Z</time>
      </trkpt>
      <trkpt lat="47.24278" lon="-0.17339">
        <ele>69.4</ele>
        <time>2026-06-20T06:46:18Z</time>
      </trkpt>
      <trkpt lat="47.24277" lon="-0.17343">
        <ele>69.2</ele>
        <time>2026-06-20T06:46:19Z</time>
      </trkpt>
      <trkpt lat="47.24278" lon="-0.17348">
        <ele>69</ele>
        <time>2026-06-20T06:46:20Z</time>
      </trkpt>
      <trkpt lat="47.24277" lon="-0.17354">
        <ele>68.6</ele>
        <time>2026-06-20T06:46:21Z</time>
      </trkpt>
      <trkpt lat="47.24275" lon="-0.17361">
        <ele>68.2</ele>
        <time>2026-06-20T06:46:22Z</time>
      </trkpt>
      <trkpt lat="47.24273" lon="-0.17368">
        <ele>67.6</ele>
        <time>2026-06-20T06:46:23Z</time>
      </trkpt>
      <trkpt lat="47.24273" lon="-0.17374">
        <ele>67.2</ele>
        <time>2026-06-20T06:46:24Z</time>
      </trkpt>
      <trkpt lat="47.24273" lon="-0.17381">
        <ele>66.8</ele>
        <time>2026-06-20T06:46:25Z</time>
      </trkpt>
      <trkpt lat="47.24271" lon="-0.17389">
        <ele>66.4</ele>
        <time>2026-06-20T06:46:26Z</time>
      </trkpt>
      <trkpt lat="47.2427" lon="-0.17398">
        <ele>66</ele>
        <time>2026-06-20T06:46:27Z</time>
      </trkpt>
      <trkpt lat="47.24269" lon="-0.17407">
        <ele>65.2</ele>
        <time>2026-06-20T06:46:28Z</time>
      </trkpt>
      <trkpt lat="47.24268" lon="-0.17415">
        <ele>64.6</ele>
        <time>2026-06-20T06:46:29Z</time>
      </trkpt>
      <trkpt lat="47.24268" lon="-0.17422">
        <ele>63.8</ele>
        <time>2026-06-20T06:46:30Z</time>
      </trkpt>
      <trkpt lat="47.24269" lon="-0.17426">
        <ele>63.4</ele>
        <time>2026-06-20T06:46:31Z</time>
      </trkpt>
      <trkpt lat="47.24271" lon="-0.17428">
        <ele>63</ele>
        <time>2026-06-20T06:46:32Z</time>
      </trkpt>
      <trkpt lat="47.24273" lon="-0.1743">
        <ele>62.8</ele>
        <time>2026-06-20T06:46:33Z</time>
      </trkpt>
      <trkpt lat="47.24276" lon="-0.17432">
        <ele>62.6</ele>
        <time>2026-06-20T06:46:34Z</time>
      </trkpt>
      <trkpt lat="47.24279" lon="-0.17432">
        <ele>62.6</ele>
        <time>2026-06-20T06:46:35Z</time>
      </trkpt>
      <trkpt lat="47.24282" lon="-0.17429">
        <ele>62.6</ele>
        <time>2026-06-20T06:46:36Z</time>
      </trkpt>
      <trkpt lat="47.24284" lon="-0.17427">
        <ele>62.6</ele>
        <time>2026-06-20T06:46:37Z</time>
      </trkpt>
      <trkpt lat="47.24286" lon="-0.17425">
        <ele>62.6</ele>
        <time>2026-06-20T06:46:38Z</time>
      </trkpt>
      <trkpt lat="47.24288" lon="-0.17424">
        <ele>62.6</ele>
        <time>2026-06-20T06:46:39Z</time>
      </trkpt>
      <trkpt lat="47.24291" lon="-0.17421">
        <ele>62.8</ele>
        <time>2026-06-20T06:46:40Z</time>
      </trkpt>
      <trkpt lat="47.24294" lon="-0.17418">
        <ele>62.8</ele>
        <time>2026-06-20T06:46:41Z</time>
      </trkpt>
      <trkpt lat="47.24296" lon="-0.17416">
        <ele>63.2</ele>
        <time>2026-06-20T06:46:42Z</time>
      </trkpt>
      <trkpt lat="47.24298" lon="-0.17413">
        <ele>63.2</ele>
        <time>2026-06-20T06:46:43Z</time>
      </trkpt>
      <trkpt lat="47.243" lon="-0.1741">
        <ele>63.4</ele>
        <time>2026-06-20T06:46:44Z</time>
      </trkpt>
      <trkpt lat="47.24302" lon="-0.17407">
        <ele>63.6</ele>
        <time>2026-06-20T06:46:45Z</time>
      </trkpt>
      <trkpt lat="47.24304" lon="-0.17404">
        <ele>63.8</ele>
        <time>2026-06-20T06:46:46Z</time>
      </trkpt>
      <trkpt lat="47.24305" lon="-0.17401">
        <ele>64</ele>
        <time>2026-06-20T06:46:47Z</time>
      </trkpt>
      <trkpt lat="47.24306" lon="-0.17399">
        <ele>64.2</ele>
        <time>2026-06-20T06:46:48Z</time>
      </trkpt>
      <trkpt lat="47.24307" lon="-0.17396">
        <ele>64.4</ele>
        <time>2026-06-20T06:46:49Z</time>
      </trkpt>
      <trkpt lat="47.24308" lon="-0.17392">
        <ele>64.6</ele>
        <time>2026-06-20T06:46:50Z</time>
      </trkpt>
      <trkpt lat="47.24309" lon="-0.17389">
        <ele>64.8</ele>
        <time>2026-06-20T06:46:51Z</time>
      </trkpt>
      <trkpt lat="47.2431" lon="-0.17386">
        <ele>65</ele>
        <time>2026-06-20T06:46:52Z</time>
      </trkpt>
      <trkpt lat="47.24311" lon="-0.17383">
        <ele>65.2</ele>
        <time>2026-06-20T06:46:53Z</time>
      </trkpt>
      <trkpt lat="47.24312" lon="-0.17379">
        <ele>65.4</ele>
        <time>2026-06-20T06:46:54Z</time>
      </trkpt>
      <trkpt lat="47.24313" lon="-0.17375">
        <ele>65.6</ele>
        <time>2026-06-20T06:46:55Z</time>
      </trkpt>
      <trkpt lat="47.24313" lon="-0.17372">
        <ele>65.8</ele>
        <time>2026-06-20T06:46:56Z</time>
      </trkpt>
      <trkpt lat="47.24314" lon="-0.17369">
        <ele>66</ele>
        <time>2026-06-20T06:46:57Z</time>
      </trkpt>
      <trkpt lat="47.24315" lon="-0.17366">
        <ele>66.2</ele>
        <time>2026-06-20T06:46:58Z</time>
      </trkpt>
      <trkpt lat="47.24315" lon="-0.17362">
        <ele>66.4</ele>
        <time>2026-06-20T06:46:59Z</time>
      </trkpt>
      <trkpt lat="47.24316" lon="-0.1736">
        <ele>66.4</ele>
        <time>2026-06-20T06:47:00Z</time>
      </trkpt>
      <trkpt lat="47.24317" lon="-0.1736">
        <ele>66.6</ele>
        <time>2026-06-20T06:47:01Z</time>
      </trkpt>
      <trkpt lat="47.24319" lon="-0.17361">
        <ele>66.6</ele>
        <time>2026-06-20T06:47:02Z</time>
      </trkpt>
      <trkpt lat="47.24321" lon="-0.17362">
        <ele>66.6</ele>
        <time>2026-06-20T06:47:03Z</time>
      </trkpt>
      <trkpt lat="47.24323" lon="-0.17362">
        <ele>66.6</ele>
        <time>2026-06-20T06:47:04Z</time>
      </trkpt>
      <trkpt lat="47.24327" lon="-0.17363">
        <ele>66.4</ele>
        <time>2026-06-20T06:47:05Z</time>
      </trkpt>
      <trkpt lat="47.2433" lon="-0.17364">
        <ele>66</ele>
        <time>2026-06-20T06:47:06Z</time>
      </trkpt>
      <trkpt lat="47.24334" lon="-0.17364">
        <ele>65.6</ele>
        <time>2026-06-20T06:47:07Z</time>
      </trkpt>
      <trkpt lat="47.24338" lon="-0.17363">
        <ele>65.2</ele>
        <time>2026-06-20T06:47:08Z</time>
      </trkpt>
      <trkpt lat="47.24342" lon="-0.17361">
        <ele>64.8</ele>
        <time>2026-06-20T06:47:09Z</time>
      </trkpt>
      <trkpt lat="47.24346" lon="-0.17358">
        <ele>64.4</ele>
        <time>2026-06-20T06:47:10Z</time>
      </trkpt>
      <trkpt lat="47.24349" lon="-0.17357">
        <ele>64</ele>
        <time>2026-06-20T06:47:11Z</time>
      </trkpt>
      <trkpt lat="47.24353" lon="-0.17356">
        <ele>63.6</ele>
        <time>2026-06-20T06:47:12Z</time>
      </trkpt>
      <trkpt lat="47.24356" lon="-0.17355">
        <ele>63.4</ele>
        <time>2026-06-20T06:47:13Z</time>
      </trkpt>
      <trkpt lat="47.2436" lon="-0.17357">
        <ele>63.4</ele>
        <time>2026-06-20T06:47:14Z</time>
      </trkpt>
      <trkpt lat="47.24363" lon="-0.1736">
        <ele>63.4</ele>
        <time>2026-06-20T06:47:15Z</time>
      </trkpt>
      <trkpt lat="47.24364" lon="-0.17362">
        <ele>63.4</ele>
        <time>2026-06-20T06:47:16Z</time>
      </trkpt>
      <trkpt lat="47.24365" lon="-0.17366">
        <ele>63.4</ele>
        <time>2026-06-20T06:47:17Z</time>
      </trkpt>
      <trkpt lat="47.24366" lon="-0.1737">
        <ele>63.4</ele>
        <time>2026-06-20T06:47:18Z</time>
      </trkpt>
      <trkpt lat="47.24367" lon="-0.17374">
        <ele>63.4</ele>
        <time>2026-06-20T06:47:19Z</time>
      </trkpt>
      <trkpt lat="47.24367" lon="-0.17377">
        <ele>63.4</ele>
        <time>2026-06-20T06:47:20Z</time>
      </trkpt>
      <trkpt lat="47.24367" lon="-0.17377">
        <ele>63.4</ele>
        <time>2026-06-20T06:47:21Z</time>
      </trkpt>
      <trkpt lat="47.24367" lon="-0.17377">
        <ele>63.6</ele>
        <time>2026-06-20T06:47:22Z</time>
      </trkpt>
      <trkpt lat="47.24372" lon="-0.17395">
        <ele>64.4</ele>
        <time>2026-06-20T06:49:44Z</time>
      </trkpt>
      <trkpt lat="47.24373" lon="-0.17399">
        <ele>64.4</ele>
        <time>2026-06-20T06:49:45Z</time>
      </trkpt>
      <trkpt lat="47.24373" lon="-0.17403">
        <ele>64.4</ele>
        <time>2026-06-20T06:49:46Z</time>
      </trkpt>
      <trkpt lat="47.24373" lon="-0.17407">
        <ele>64.4</ele>
        <time>2026-06-20T06:49:47Z</time>
      </trkpt>
      <trkpt lat="47.24374" lon="-0.17412">
        <ele>64.4</ele>
        <time>2026-06-20T06:49:48Z</time>
      </trkpt>
      <trkpt lat="47.24374" lon="-0.17417">
        <ele>64.4</ele>
        <time>2026-06-20T06:49:49Z</time>
      </trkpt>
      <trkpt lat="47.24375" lon="-0.17422">
        <ele>64.6</ele>
        <time>2026-06-20T06:49:50Z</time>
      </trkpt>
      <trkpt lat="47.24376" lon="-0.17423">
        <ele>64.6</ele>
        <time>2026-06-20T06:49:51Z</time>
      </trkpt>
      <trkpt lat="47.24376" lon="-0.17423">
        <ele>64.8</ele>
        <time>2026-06-20T06:49:52Z</time>
      </trkpt>
      <trkpt lat="47.24376" lon="-0.17423">
        <ele>64.8</ele>
        <time>2026-06-20T06:49:53Z</time>
      </trkpt>
      <trkpt lat="47.24378" lon="-0.17434">
        <ele>65</ele>
        <time>2026-06-20T06:50:20Z</time>
      </trkpt>
      <trkpt lat="47.24378" lon="-0.17438">
        <ele>65</ele>
        <time>2026-06-20T06:50:21Z</time>
      </trkpt>
      <trkpt lat="47.24378" lon="-0.17443">
        <ele>65</ele>
        <time>2026-06-20T06:50:22Z</time>
      </trkpt>
      <trkpt lat="47.24379" lon="-0.1745">
        <ele>64.8</ele>
        <time>2026-06-20T06:50:23Z</time>
      </trkpt>
      <trkpt lat="47.24379" lon="-0.17457">
        <ele>64.8</ele>
        <time>2026-06-20T06:50:24Z</time>
      </trkpt>
      <trkpt lat="47.24378" lon="-0.17464">
        <ele>64.6</ele>
        <time>2026-06-20T06:50:25Z</time>
      </trkpt>
      <trkpt lat="47.24378" lon="-0.17471">
        <ele>64.6</ele>
        <time>2026-06-20T06:50:26Z</time>
      </trkpt>
      <trkpt lat="47.24378" lon="-0.17479">
        <ele>64.6</ele>
        <time>2026-06-20T06:50:27Z</time>
      </trkpt>
      <trkpt lat="47.24378" lon="-0.17487">
        <ele>64.6</ele>
        <time>2026-06-20T06:50:28Z</time>
      </trkpt>
      <trkpt lat="47.24378" lon="-0.17495">
        <ele>64.6</ele>
        <time>2026-06-20T06:50:29Z</time>
      </trkpt>
      <trkpt lat="47.24379" lon="-0.17503">
        <ele>64.4</ele>
        <time>2026-06-20T06:50:30Z</time>
      </trkpt>
      <trkpt lat="47.24379" lon="-0.17511">
        <ele>64.4</ele>
        <time>2026-06-20T06:50:31Z</time>
      </trkpt>
      <trkpt lat="47.2438" lon="-0.1752">
        <ele>64.4</ele>
        <time>2026-06-20T06:50:32Z</time>
      </trkpt>
      <trkpt lat="47.24379" lon="-0.17529">
        <ele>64.4</ele>
        <time>2026-06-20T06:50:33Z</time>
      </trkpt>
      <trkpt lat="47.2438" lon="-0.17537">
        <ele>64.4</ele>
        <time>2026-06-20T06:50:34Z</time>
      </trkpt>
      <trkpt lat="47.2438" lon="-0.17545">
        <ele>64.4</ele>
        <time>2026-06-20T06:50:35Z</time>
      </trkpt>
      <trkpt lat="47.24382" lon="-0.17552">
        <ele>64.4</ele>
        <time>2026-06-20T06:50:36Z</time>
      </trkpt>
      <trkpt lat="47.24383" lon="-0.17559">
        <ele>64.6</ele>
        <time>2026-06-20T06:50:37Z</time>
      </trkpt>
      <trkpt lat="47.24385" lon="-0.17565">
        <ele>64.6</ele>
        <time>2026-06-20T06:50:38Z</time>
      </trkpt>
      <trkpt lat="47.24387" lon="-0.17571">
        <ele>64.8</ele>
        <time>2026-06-20T06:50:39Z</time>
      </trkpt>
      <trkpt lat="47.24389" lon="-0.1758">
        <ele>64.8</ele>
        <time>2026-06-20T06:50:40Z</time>
      </trkpt>
      <trkpt lat="47.24391" lon="-0.17587">
        <ele>64.8</ele>
        <time>2026-06-20T06:50:41Z</time>
      </trkpt>
      <trkpt lat="47.24394" lon="-0.17595">
        <ele>64.8</ele>
        <time>2026-06-20T06:50:42Z</time>
      </trkpt>
      <trkpt lat="47.24398" lon="-0.17602">
        <ele>64.8</ele>
        <time>2026-06-20T06:50:43Z</time>
      </trkpt>
      <trkpt lat="47.244" lon="-0.17608">
        <ele>64.6</ele>
        <time>2026-06-20T06:50:44Z</time>
      </trkpt>
      <trkpt lat="47.24403" lon="-0.17615">
        <ele>64.6</ele>
        <time>2026-06-20T06:50:45Z</time>
      </trkpt>
      <trkpt lat="47.24407" lon="-0.17622">
        <ele>64.6</ele>
        <time>2026-06-20T06:50:46Z</time>
      </trkpt>
      <trkpt lat="47.2441" lon="-0.17628">
        <ele>64.8</ele>
        <time>2026-06-20T06:50:47Z</time>
      </trkpt>
      <trkpt lat="47.24413" lon="-0.17635">
        <ele>64.8</ele>
        <time>2026-06-20T06:50:48Z</time>
      </trkpt>
      <trkpt lat="47.24415" lon="-0.17643">
        <ele>64.8</ele>
        <time>2026-06-20T06:50:49Z</time>
      </trkpt>
      <trkpt lat="47.24415" lon="-0.17651">
        <ele>64.8</ele>
        <time>2026-06-20T06:50:50Z</time>
      </trkpt>
      <trkpt lat="47.24417" lon="-0.17659">
        <ele>64.8</ele>
        <time>2026-06-20T06:50:51Z</time>
      </trkpt>
      <trkpt lat="47.24418" lon="-0.17667">
        <ele>65</ele>
        <time>2026-06-20T06:50:52Z</time>
      </trkpt>
      <trkpt lat="47.24419" lon="-0.17677">
        <ele>65</ele>
        <time>2026-06-20T06:50:53Z</time>
      </trkpt>
      <trkpt lat="47.24418" lon="-0.17686">
        <ele>65.2</ele>
        <time>2026-06-20T06:50:54Z</time>
      </trkpt>
      <trkpt lat="47.24418" lon="-0.17694">
        <ele>65.2</ele>
        <time>2026-06-20T06:50:55Z</time>
      </trkpt>
      <trkpt lat="47.24419" lon="-0.17702">
        <ele>65.2</ele>
        <time>2026-06-20T06:50:56Z</time>
      </trkpt>
      <trkpt lat="47.2442" lon="-0.17709">
        <ele>65.2</ele>
        <time>2026-06-20T06:50:57Z</time>
      </trkpt>
      <trkpt lat="47.24422" lon="-0.17717">
        <ele>65.2</ele>
        <time>2026-06-20T06:50:58Z</time>
      </trkpt>
      <trkpt lat="47.24423" lon="-0.17724">
        <ele>65.4</ele>
        <time>2026-06-20T06:50:59Z</time>
      </trkpt>
      <trkpt lat="47.24425" lon="-0.17732">
        <ele>65.2</ele>
        <time>2026-06-20T06:51:00Z</time>
      </trkpt>
      <trkpt lat="47.24426" lon="-0.17739">
        <ele>65.2</ele>
        <time>2026-06-20T06:51:01Z</time>
      </trkpt>
      <trkpt lat="47.24427" lon="-0.17747">
        <ele>65.2</ele>
        <time>2026-06-20T06:51:02Z</time>
      </trkpt>
      <trkpt lat="47.24429" lon="-0.17754">
        <ele>65.2</ele>
        <time>2026-06-20T06:51:03Z</time>
      </trkpt>
      <trkpt lat="47.24431" lon="-0.17761">
        <ele>65.2</ele>
        <time>2026-06-20T06:51:04Z</time>
      </trkpt>
      <trkpt lat="47.24433" lon="-0.17768">
        <ele>65.2</ele>
        <time>2026-06-20T06:51:05Z</time>
      </trkpt>
      <trkpt lat="47.24435" lon="-0.17775">
        <ele>65.2</ele>
        <time>2026-06-20T06:51:06Z</time>
      </trkpt>
      <trkpt lat="47.24436" lon="-0.17782">
        <ele>65.2</ele>
        <time>2026-06-20T06:51:07Z</time>
      </trkpt>
      <trkpt lat="47.24438" lon="-0.17789">
        <ele>65.2</ele>
        <time>2026-06-20T06:51:08Z</time>
      </trkpt>
      <trkpt lat="47.2444" lon="-0.17797">
        <ele>65.4</ele>
        <time>2026-06-20T06:51:09Z</time>
      </trkpt>
      <trkpt lat="47.24441" lon="-0.17803">
        <ele>65.6</ele>
        <time>2026-06-20T06:51:10Z</time>
      </trkpt>
      <trkpt lat="47.24443" lon="-0.17808">
        <ele>65.8</ele>
        <time>2026-06-20T06:51:11Z</time>
      </trkpt>
      <trkpt lat="47.24445" lon="-0.17813">
        <ele>66</ele>
        <time>2026-06-20T06:51:12Z</time>
      </trkpt>
      <trkpt lat="47.24446" lon="-0.17819">
        <ele>66.2</ele>
        <time>2026-06-20T06:51:13Z</time>
      </trkpt>
      <trkpt lat="47.24448" lon="-0.17824">
        <ele>66.4</ele>
        <time>2026-06-20T06:51:14Z</time>
      </trkpt>
      <trkpt lat="47.2445" lon="-0.1783">
        <ele>66.6</ele>
        <time>2026-06-20T06:51:15Z</time>
      </trkpt>
      <trkpt lat="47.24452" lon="-0.17835">
        <ele>66.8</ele>
        <time>2026-06-20T06:51:16Z</time>
      </trkpt>
      <trkpt lat="47.24453" lon="-0.17841">
        <ele>67</ele>
        <time>2026-06-20T06:51:17Z</time>
      </trkpt>
      <trkpt lat="47.24456" lon="-0.17846">
        <ele>67</ele>
        <time>2026-06-20T06:51:18Z</time>
      </trkpt>
      <trkpt lat="47.24458" lon="-0.17852">
        <ele>67</ele>
        <time>2026-06-20T06:51:19Z</time>
      </trkpt>
      <trkpt lat="47.24459" lon="-0.17857">
        <ele>67</ele>
        <time>2026-06-20T06:51:20Z</time>
      </trkpt>
      <trkpt lat="47.24462" lon="-0.17863">
        <ele>67</ele>
        <time>2026-06-20T06:51:21Z</time>
      </trkpt>
      <trkpt lat="47.24463" lon="-0.17869">
        <ele>67</ele>
        <time>2026-06-20T06:51:22Z</time>
      </trkpt>
      <trkpt lat="47.24464" lon="-0.17876">
        <ele>67</ele>
        <time>2026-06-20T06:51:23Z</time>
      </trkpt>
      <trkpt lat="47.24465" lon="-0.17882">
        <ele>67</ele>
        <time>2026-06-20T06:51:24Z</time>
      </trkpt>
      <trkpt lat="47.24465" lon="-0.17889">
        <ele>67</ele>
        <time>2026-06-20T06:51:25Z</time>
      </trkpt>
      <trkpt lat="47.24466" lon="-0.17895">
        <ele>67.2</ele>
        <time>2026-06-20T06:51:26Z</time>
      </trkpt>
      <trkpt lat="47.24466" lon="-0.17901">
        <ele>67.4</ele>
        <time>2026-06-20T06:51:27Z</time>
      </trkpt>
      <trkpt lat="47.24467" lon="-0.17906">
        <ele>67.6</ele>
        <time>2026-06-20T06:51:28Z</time>
      </trkpt>
      <trkpt lat="47.24467" lon="-0.17911">
        <ele>67.8</ele>
        <time>2026-06-20T06:51:29Z</time>
      </trkpt>
      <trkpt lat="47.24468" lon="-0.17916">
        <ele>68.2</ele>
        <time>2026-06-20T06:51:30Z</time>
      </trkpt>
      <trkpt lat="47.24468" lon="-0.17921">
        <ele>68.4</ele>
        <time>2026-06-20T06:51:31Z</time>
      </trkpt>
      <trkpt lat="47.24469" lon="-0.17926">
        <ele>68.6</ele>
        <time>2026-06-20T06:51:32Z</time>
      </trkpt>
      <trkpt lat="47.24469" lon="-0.17931">
        <ele>68.8</ele>
        <time>2026-06-20T06:51:33Z</time>
      </trkpt>
      <trkpt lat="47.2447" lon="-0.17936">
        <ele>69</ele>
        <time>2026-06-20T06:51:34Z</time>
      </trkpt>
      <trkpt lat="47.2447" lon="-0.1794">
        <ele>69.2</ele>
        <time>2026-06-20T06:51:35Z</time>
      </trkpt>
      <trkpt lat="47.2447" lon="-0.17945">
        <ele>69.4</ele>
        <time>2026-06-20T06:51:36Z</time>
      </trkpt>
      <trkpt lat="47.24471" lon="-0.1795">
        <ele>69.6</ele>
        <time>2026-06-20T06:51:37Z</time>
      </trkpt>
      <trkpt lat="47.24471" lon="-0.17955">
        <ele>69.8</ele>
        <time>2026-06-20T06:51:38Z</time>
      </trkpt>
      <trkpt lat="47.24471" lon="-0.1796">
        <ele>69.8</ele>
        <time>2026-06-20T06:51:39Z</time>
      </trkpt>
      <trkpt lat="47.24471" lon="-0.17966">
        <ele>70</ele>
        <time>2026-06-20T06:51:40Z</time>
      </trkpt>
      <trkpt lat="47.24471" lon="-0.17971">
        <ele>70.2</ele>
        <time>2026-06-20T06:51:41Z</time>
      </trkpt>
      <trkpt lat="47.24471" lon="-0.17975">
        <ele>70.2</ele>
        <time>2026-06-20T06:51:42Z</time>
      </trkpt>
      <trkpt lat="47.24472" lon="-0.1798">
        <ele>70.4</ele>
        <time>2026-06-20T06:51:43Z</time>
      </trkpt>
      <trkpt lat="47.24472" lon="-0.17985">
        <ele>70.6</ele>
        <time>2026-06-20T06:51:44Z</time>
      </trkpt>
      <trkpt lat="47.24472" lon="-0.1799">
        <ele>70.8</ele>
        <time>2026-06-20T06:51:45Z</time>
      </trkpt>
      <trkpt lat="47.24473" lon="-0.17994">
        <ele>71</ele>
        <time>2026-06-20T06:51:46Z</time>
      </trkpt>
      <trkpt lat="47.24473" lon="-0.17998">
        <ele>71.2</ele>
        <time>2026-06-20T06:51:47Z</time>
      </trkpt>
      <trkpt lat="47.24473" lon="-0.18003">
        <ele>71.2</ele>
        <time>2026-06-20T06:51:48Z</time>
      </trkpt>
      <trkpt lat="47.24473" lon="-0.18008">
        <ele>71.4</ele>
        <time>2026-06-20T06:51:49Z</time>
      </trkpt>
      <trkpt lat="47.24474" lon="-0.18013">
        <ele>71.6</ele>
        <time>2026-06-20T06:51:50Z</time>
      </trkpt>
      <trkpt lat="47.24474" lon="-0.18017">
        <ele>71.8</ele>
        <time>2026-06-20T06:51:51Z</time>
      </trkpt>
      <trkpt lat="47.24474" lon="-0.18021">
        <ele>72</ele>
        <time>2026-06-20T06:51:52Z</time>
      </trkpt>
      <trkpt lat="47.24475" lon="-0.18025">
        <ele>72.2</ele>
        <time>2026-06-20T06:51:53Z</time>
      </trkpt>
      <trkpt lat="47.24475" lon="-0.18029">
        <ele>72.4</ele>
        <time>2026-06-20T06:51:54Z</time>
      </trkpt>
      <trkpt lat="47.24476" lon="-0.18033">
        <ele>72.6</ele>
        <time>2026-06-20T06:51:55Z</time>
      </trkpt>
      <trkpt lat="47.24476" lon="-0.18036">
        <ele>72.8</ele>
        <time>2026-06-20T06:51:56Z</time>
      </trkpt>
      <trkpt lat="47.24477" lon="-0.18039">
        <ele>73.2</ele>
        <time>2026-06-20T06:51:57Z</time>
      </trkpt>
      <trkpt lat="47.24477" lon="-0.18041">
        <ele>73.4</ele>
        <time>2026-06-20T06:51:58Z</time>
      </trkpt>
      <trkpt lat="47.24478" lon="-0.18043">
        <ele>73.6</ele>
        <time>2026-06-20T06:51:59Z</time>
      </trkpt>
      <trkpt lat="47.24479" lon="-0.18046">
        <ele>73.8</ele>
        <time>2026-06-20T06:52:00Z</time>
      </trkpt>
      <trkpt lat="47.2448" lon="-0.18048">
        <ele>74</ele>
        <time>2026-06-20T06:52:01Z</time>
      </trkpt>
      <trkpt lat="47.24481" lon="-0.18051">
        <ele>74.4</ele>
        <time>2026-06-20T06:52:02Z</time>
      </trkpt>
      <trkpt lat="47.24482" lon="-0.18055">
        <ele>74.6</ele>
        <time>2026-06-20T06:52:03Z</time>
      </trkpt>
      <trkpt lat="47.24483" lon="-0.18058">
        <ele>74.8</ele>
        <time>2026-06-20T06:52:04Z</time>
      </trkpt>
      <trkpt lat="47.24484" lon="-0.18061">
        <ele>75</ele>
        <time>2026-06-20T06:52:05Z</time>
      </trkpt>
      <trkpt lat="47.24485" lon="-0.18064">
        <ele>75.2</ele>
        <time>2026-06-20T06:52:06Z</time>
      </trkpt>
      <trkpt lat="47.24486" lon="-0.18068">
        <ele>75.4</ele>
        <time>2026-06-20T06:52:07Z</time>
      </trkpt>
      <trkpt lat="47.24488" lon="-0.18071">
        <ele>75.6</ele>
        <time>2026-06-20T06:52:08Z</time>
      </trkpt>
      <trkpt lat="47.24489" lon="-0.18073">
        <ele>75.8</ele>
        <time>2026-06-20T06:52:09Z</time>
      </trkpt>
      <trkpt lat="47.2449" lon="-0.18076">
        <ele>76</ele>
        <time>2026-06-20T06:52:10Z</time>
      </trkpt>
      <trkpt lat="47.24492" lon="-0.18079">
        <ele>76.2</ele>
        <time>2026-06-20T06:52:11Z</time>
      </trkpt>
      <trkpt lat="47.24493" lon="-0.18081">
        <ele>76.4</ele>
        <time>2026-06-20T06:52:12Z</time>
      </trkpt>
      <trkpt lat="47.24494" lon="-0.18084">
        <ele>76.6</ele>
        <time>2026-06-20T06:52:13Z</time>
      </trkpt>
      <trkpt lat="47.24495" lon="-0.18087">
        <ele>76.8</ele>
        <time>2026-06-20T06:52:14Z</time>
      </trkpt>
      <trkpt lat="47.24496" lon="-0.1809">
        <ele>76.8</ele>
        <time>2026-06-20T06:52:15Z</time>
      </trkpt>
      <trkpt lat="47.24498" lon="-0.18093">
        <ele>77</ele>
        <time>2026-06-20T06:52:16Z</time>
      </trkpt>
      <trkpt lat="47.245" lon="-0.18096">
        <ele>77</ele>
        <time>2026-06-20T06:52:17Z</time>
      </trkpt>
      <trkpt lat="47.24502" lon="-0.18099">
        <ele>77.2</ele>
        <time>2026-06-20T06:52:18Z</time>
      </trkpt>
      <trkpt lat="47.24504" lon="-0.18102">
        <ele>77.2</ele>
        <time>2026-06-20T06:52:19Z</time>
      </trkpt>
      <trkpt lat="47.24506" lon="-0.18106">
        <ele>77.4</ele>
        <time>2026-06-20T06:52:20Z</time>
      </trkpt>
      <trkpt lat="47.24509" lon="-0.18109">
        <ele>77.4</ele>
        <time>2026-06-20T06:52:21Z</time>
      </trkpt>
      <trkpt lat="47.24511" lon="-0.18113">
        <ele>77.4</ele>
        <time>2026-06-20T06:52:22Z</time>
      </trkpt>
      <trkpt lat="47.24514" lon="-0.18117">
        <ele>77.4</ele>
        <time>2026-06-20T06:52:23Z</time>
      </trkpt>
      <trkpt lat="47.24517" lon="-0.18122">
        <ele>77.4</ele>
        <time>2026-06-20T06:52:24Z</time>
      </trkpt>
      <trkpt lat="47.24519" lon="-0.18126">
        <ele>77.2</ele>
        <time>2026-06-20T06:52:25Z</time>
      </trkpt>
      <trkpt lat="47.24522" lon="-0.18129">
        <ele>77.2</ele>
        <time>2026-06-20T06:52:26Z</time>
      </trkpt>
      <trkpt lat="47.24525" lon="-0.18134">
        <ele>77.2</ele>
        <time>2026-06-20T06:52:27Z</time>
      </trkpt>
      <trkpt lat="47.24528" lon="-0.18138">
        <ele>77.2</ele>
        <time>2026-06-20T06:52:28Z</time>
      </trkpt>
      <trkpt lat="47.2453" lon="-0.18143">
        <ele>77.2</ele>
        <time>2026-06-20T06:52:29Z</time>
      </trkpt>
      <trkpt lat="47.24533" lon="-0.18147">
        <ele>77.2</ele>
        <time>2026-06-20T06:52:30Z</time>
      </trkpt>
      <trkpt lat="47.24536" lon="-0.18151">
        <ele>77.2</ele>
        <time>2026-06-20T06:52:31Z</time>
      </trkpt>
      <trkpt lat="47.24539" lon="-0.18156">
        <ele>77.2</ele>
        <time>2026-06-20T06:52:32Z</time>
      </trkpt>
      <trkpt lat="47.24543" lon="-0.18161">
        <ele>77.2</ele>
        <time>2026-06-20T06:52:33Z</time>
      </trkpt>
      <trkpt lat="47.24547" lon="-0.18165">
        <ele>77.2</ele>
        <time>2026-06-20T06:52:34Z</time>
      </trkpt>
      <trkpt lat="47.2455" lon="-0.18169">
        <ele>77.2</ele>
        <time>2026-06-20T06:52:35Z</time>
      </trkpt>
      <trkpt lat="47.24553" lon="-0.18173">
        <ele>77.2</ele>
        <time>2026-06-20T06:52:36Z</time>
      </trkpt>
      <trkpt lat="47.24556" lon="-0.18177">
        <ele>77.4</ele>
        <time>2026-06-20T06:52:37Z</time>
      </trkpt>
      <trkpt lat="47.24558" lon="-0.18182">
        <ele>77.4</ele>
        <time>2026-06-20T06:52:38Z</time>
      </trkpt>
      <trkpt lat="47.24561" lon="-0.18187">
        <ele>77.6</ele>
        <time>2026-06-20T06:52:39Z</time>
      </trkpt>
      <trkpt lat="47.24563" lon="-0.18192">
        <ele>77.6</ele>
        <time>2026-06-20T06:52:40Z</time>
      </trkpt>
      <trkpt lat="47.24565" lon="-0.18196">
        <ele>77.8</ele>
        <time>2026-06-20T06:52:41Z</time>
      </trkpt>
      <trkpt lat="47.24567" lon="-0.182">
        <ele>77.8</ele>
        <time>2026-06-20T06:52:42Z</time>
      </trkpt>
      <trkpt lat="47.24569" lon="-0.18204">
        <ele>78</ele>
        <time>2026-06-20T06:52:43Z</time>
      </trkpt>
      <trkpt lat="47.24571" lon="-0.18208">
        <ele>78.2</ele>
        <time>2026-06-20T06:52:44Z</time>
      </trkpt>
      <trkpt lat="47.24572" lon="-0.18213">
        <ele>78.4</ele>
        <time>2026-06-20T06:52:45Z</time>
      </trkpt>
      <trkpt lat="47.24574" lon="-0.18217">
        <ele>78.6</ele>
        <time>2026-06-20T06:52:46Z</time>
      </trkpt>
      <trkpt lat="47.24576" lon="-0.18222">
        <ele>78.8</ele>
        <time>2026-06-20T06:52:47Z</time>
      </trkpt>
      <trkpt lat="47.24578" lon="-0.18227">
        <ele>78.8</ele>
        <time>2026-06-20T06:52:48Z</time>
      </trkpt>
      <trkpt lat="47.2458" lon="-0.18231">
        <ele>78.8</ele>
        <time>2026-06-20T06:52:49Z</time>
      </trkpt>
      <trkpt lat="47.24583" lon="-0.18235">
        <ele>78.8</ele>
        <time>2026-06-20T06:52:50Z</time>
      </trkpt>
      <trkpt lat="47.24585" lon="-0.1824">
        <ele>78.8</ele>
        <time>2026-06-20T06:52:51Z</time>
      </trkpt>
      <trkpt lat="47.24587" lon="-0.18245">
        <ele>78.8</ele>
        <time>2026-06-20T06:52:52Z</time>
      </trkpt>
      <trkpt lat="47.24589" lon="-0.18251">
        <ele>78.8</ele>
        <time>2026-06-20T06:52:53Z</time>
      </trkpt>
      <trkpt lat="47.2459" lon="-0.18256">
        <ele>79</ele>
        <time>2026-06-20T06:52:54Z</time>
      </trkpt>
      <trkpt lat="47.24592" lon="-0.18261">
        <ele>79</ele>
        <time>2026-06-20T06:52:55Z</time>
      </trkpt>
      <trkpt lat="47.24593" lon="-0.18267">
        <ele>79.2</ele>
        <time>2026-06-20T06:52:56Z</time>
      </trkpt>
      <trkpt lat="47.24594" lon="-0.18271">
        <ele>79.2</ele>
        <time>2026-06-20T06:52:57Z</time>
      </trkpt>
      <trkpt lat="47.24594" lon="-0.18275">
        <ele>79.4</ele>
        <time>2026-06-20T06:52:58Z</time>
      </trkpt>
      <trkpt lat="47.24593" lon="-0.1828">
        <ele>79.4</ele>
        <time>2026-06-20T06:52:59Z</time>
      </trkpt>
      <trkpt lat="47.24592" lon="-0.18286">
        <ele>79.4</ele>
        <time>2026-06-20T06:53:00Z</time>
      </trkpt>
      <trkpt lat="47.24591" lon="-0.18291">
        <ele>79.4</ele>
        <time>2026-06-20T06:53:01Z</time>
      </trkpt>
      <trkpt lat="47.24588" lon="-0.18297">
        <ele>79</ele>
        <time>2026-06-20T06:53:02Z</time>
      </trkpt>
      <trkpt lat="47.24585" lon="-0.18299">
        <ele>78.6</ele>
        <time>2026-06-20T06:53:03Z</time>
      </trkpt>
      <trkpt lat="47.24581" lon="-0.18302">
        <ele>78</ele>
        <time>2026-06-20T06:53:04Z</time>
      </trkpt>
      <trkpt lat="47.24577" lon="-0.18305">
        <ele>77</ele>
        <time>2026-06-20T06:53:05Z</time>
      </trkpt>
      <trkpt lat="47.24572" lon="-0.18311">
        <ele>76</ele>
        <time>2026-06-20T06:53:06Z</time>
      </trkpt>
      <trkpt lat="47.24566" lon="-0.18316">
        <ele>75</ele>
        <time>2026-06-20T06:53:07Z</time>
      </trkpt>
      <trkpt lat="47.2456" lon="-0.18322">
        <ele>73.8</ele>
        <time>2026-06-20T06:53:08Z</time>
      </trkpt>
      <trkpt lat="47.24555" lon="-0.18327">
        <ele>72.8</ele>
        <time>2026-06-20T06:53:09Z</time>
      </trkpt>
      <trkpt lat="47.24551" lon="-0.18332">
        <ele>71.8</ele>
        <time>2026-06-20T06:53:10Z</time>
      </trkpt>
      <trkpt lat="47.24548" lon="-0.18336">
        <ele>71</ele>
        <time>2026-06-20T06:53:11Z</time>
      </trkpt>
      <trkpt lat="47.24548" lon="-0.18339">
        <ele>70.6</ele>
        <time>2026-06-20T06:53:12Z</time>
      </trkpt>
      <trkpt lat="47.24549" lon="-0.18341">
        <ele>70.4</ele>
        <time>2026-06-20T06:53:13Z</time>
      </trkpt>
      <trkpt lat="47.24549" lon="-0.18342">
        <ele>70.2</ele>
        <time>2026-06-20T06:53:14Z</time>
      </trkpt>
      <trkpt lat="47.2455" lon="-0.18343">
        <ele>70.2</ele>
        <time>2026-06-20T06:53:15Z</time>
      </trkpt>
      <trkpt lat="47.24553" lon="-0.18344">
        <ele>70.4</ele>
        <time>2026-06-20T06:53:16Z</time>
      </trkpt>
      <trkpt lat="47.24555" lon="-0.18347">
        <ele>70.6</ele>
        <time>2026-06-20T06:53:17Z</time>
      </trkpt>
      <trkpt lat="47.24554" lon="-0.1835">
        <ele>70.8</ele>
        <time>2026-06-20T06:53:18Z</time>
      </trkpt>
      <trkpt lat="47.24555" lon="-0.18351">
        <ele>71</ele>
        <time>2026-06-20T06:53:19Z</time>
      </trkpt>
      <trkpt lat="47.24557" lon="-0.18353">
        <ele>71.2</ele>
        <time>2026-06-20T06:53:20Z</time>
      </trkpt>
      <trkpt lat="47.24559" lon="-0.18354">
        <ele>71.6</ele>
        <time>2026-06-20T06:53:21Z</time>
      </trkpt>
      <trkpt lat="47.2456" lon="-0.18355">
        <ele>71.8</ele>
        <time>2026-06-20T06:53:22Z</time>
      </trkpt>
      <trkpt lat="47.24561" lon="-0.18356">
        <ele>72.2</ele>
        <time>2026-06-20T06:53:23Z</time>
      </trkpt>
      <trkpt lat="47.24562" lon="-0.18357">
        <ele>72.4</ele>
        <time>2026-06-20T06:53:24Z</time>
      </trkpt>
      <trkpt lat="47.24562" lon="-0.18358">
        <ele>72.6</ele>
        <time>2026-06-20T06:53:25Z</time>
      </trkpt>
      <trkpt lat="47.24563" lon="-0.18359">
        <ele>73</ele>
        <time>2026-06-20T06:53:26Z</time>
      </trkpt>
      <trkpt lat="47.24565" lon="-0.1836">
        <ele>73.2</ele>
        <time>2026-06-20T06:53:27Z</time>
      </trkpt>
      <trkpt lat="47.24566" lon="-0.18361">
        <ele>73.4</ele>
        <time>2026-06-20T06:53:28Z</time>
      </trkpt>
      <trkpt lat="47.24567" lon="-0.18363">
        <ele>73.8</ele>
        <time>2026-06-20T06:53:29Z</time>
      </trkpt>
      <trkpt lat="47.24568" lon="-0.18364">
        <ele>74.2</ele>
        <time>2026-06-20T06:53:30Z</time>
      </trkpt>
      <trkpt lat="47.24569" lon="-0.18365">
        <ele>74.4</ele>
        <time>2026-06-20T06:53:31Z</time>
      </trkpt>
      <trkpt lat="47.24571" lon="-0.18366">
        <ele>74.6</ele>
        <time>2026-06-20T06:53:32Z</time>
      </trkpt>
      <trkpt lat="47.24572" lon="-0.18368">
        <ele>75</ele>
        <time>2026-06-20T06:53:33Z</time>
      </trkpt>
      <trkpt lat="47.24573" lon="-0.18368">
        <ele>75.2</ele>
        <time>2026-06-20T06:53:34Z</time>
      </trkpt>
      <trkpt lat="47.24574" lon="-0.1837">
        <ele>75.4</ele>
        <time>2026-06-20T06:53:35Z</time>
      </trkpt>
      <trkpt lat="47.24575" lon="-0.18371">
        <ele>75.6</ele>
        <time>2026-06-20T06:53:36Z</time>
      </trkpt>
      <trkpt lat="47.24576" lon="-0.18372">
        <ele>76</ele>
        <time>2026-06-20T06:53:37Z</time>
      </trkpt>
      <trkpt lat="47.24577" lon="-0.18373">
        <ele>76.2</ele>
        <time>2026-06-20T06:53:38Z</time>
      </trkpt>
      <trkpt lat="47.24578" lon="-0.18374">
        <ele>76.4</ele>
        <time>2026-06-20T06:53:39Z</time>
      </trkpt>
      <trkpt lat="47.2458" lon="-0.18375">
        <ele>76.6</ele>
        <time>2026-06-20T06:53:40Z</time>
      </trkpt>
      <trkpt lat="47.24582" lon="-0.18376">
        <ele>76.8</ele>
        <time>2026-06-20T06:53:41Z</time>
      </trkpt>
      <trkpt lat="47.24584" lon="-0.18378">
        <ele>77</ele>
        <time>2026-06-20T06:53:42Z</time>
      </trkpt>
      <trkpt lat="47.24586" lon="-0.18379">
        <ele>77.2</ele>
        <time>2026-06-20T06:53:43Z</time>
      </trkpt>
      <trkpt lat="47.24588" lon="-0.18381">
        <ele>77.4</ele>
        <time>2026-06-20T06:53:44Z</time>
      </trkpt>
      <trkpt lat="47.24589" lon="-0.18382">
        <ele>77.6</ele>
        <time>2026-06-20T06:53:45Z</time>
      </trkpt>
      <trkpt lat="47.2459" lon="-0.18383">
        <ele>77.8</ele>
        <time>2026-06-20T06:53:46Z</time>
      </trkpt>
      <trkpt lat="47.24592" lon="-0.18385">
        <ele>77.8</ele>
        <time>2026-06-20T06:53:47Z</time>
      </trkpt>
      <trkpt lat="47.24594" lon="-0.18387">
        <ele>78</ele>
        <time>2026-06-20T06:53:48Z</time>
      </trkpt>
      <trkpt lat="47.24596" lon="-0.18389">
        <ele>78.2</ele>
        <time>2026-06-20T06:53:49Z</time>
      </trkpt>
      <trkpt lat="47.24598" lon="-0.18391">
        <ele>78.2</ele>
        <time>2026-06-20T06:53:50Z</time>
      </trkpt>
      <trkpt lat="47.246" lon="-0.18393">
        <ele>78.2</ele>
        <time>2026-06-20T06:53:51Z</time>
      </trkpt>
      <trkpt lat="47.24602" lon="-0.18395">
        <ele>78.4</ele>
        <time>2026-06-20T06:53:52Z</time>
      </trkpt>
      <trkpt lat="47.24604" lon="-0.18398">
        <ele>78.4</ele>
        <time>2026-06-20T06:53:53Z</time>
      </trkpt>
      <trkpt lat="47.24606" lon="-0.184">
        <ele>78.6</ele>
        <time>2026-06-20T06:53:54Z</time>
      </trkpt>
      <trkpt lat="47.24609" lon="-0.18403">
        <ele>78.6</ele>
        <time>2026-06-20T06:53:55Z</time>
      </trkpt>
      <trkpt lat="47.24611" lon="-0.18405">
        <ele>78.8</ele>
        <time>2026-06-20T06:53:56Z</time>
      </trkpt>
      <trkpt lat="47.24613" lon="-0.18407">
        <ele>79</ele>
        <time>2026-06-20T06:53:57Z</time>
      </trkpt>
      <trkpt lat="47.24615" lon="-0.18409">
        <ele>79.2</ele>
        <time>2026-06-20T06:53:58Z</time>
      </trkpt>
      <trkpt lat="47.24617" lon="-0.18411">
        <ele>79.4</ele>
        <time>2026-06-20T06:53:59Z</time>
      </trkpt>
      <trkpt lat="47.2462" lon="-0.18414">
        <ele>79.6</ele>
        <time>2026-06-20T06:54:00Z</time>
      </trkpt>
      <trkpt lat="47.24623" lon="-0.18416">
        <ele>79.8</ele>
        <time>2026-06-20T06:54:01Z</time>
      </trkpt>
      <trkpt lat="47.24625" lon="-0.18418">
        <ele>80</ele>
        <time>2026-06-20T06:54:02Z</time>
      </trkpt>
      <trkpt lat="47.24627" lon="-0.18419">
        <ele>80</ele>
        <time>2026-06-20T06:54:03Z</time>
      </trkpt>
      <trkpt lat="47.2463" lon="-0.1842">
        <ele>80.2</ele>
        <time>2026-06-20T06:54:04Z</time>
      </trkpt>
      <trkpt lat="47.24633" lon="-0.18422">
        <ele>80.4</ele>
        <time>2026-06-20T06:54:05Z</time>
      </trkpt>
      <trkpt lat="47.24636" lon="-0.18422">
        <ele>80.6</ele>
        <time>2026-06-20T06:54:06Z</time>
      </trkpt>
      <trkpt lat="47.24638" lon="-0.18422">
        <ele>80.8</ele>
        <time>2026-06-20T06:54:07Z</time>
      </trkpt>
      <trkpt lat="47.2464" lon="-0.18423">
        <ele>81</ele>
        <time>2026-06-20T06:54:08Z</time>
      </trkpt>
      <trkpt lat="47.24642" lon="-0.18423">
        <ele>81.2</ele>
        <time>2026-06-20T06:54:09Z</time>
      </trkpt>
      <trkpt lat="47.24644" lon="-0.18425">
        <ele>81.4</ele>
        <time>2026-06-20T06:54:10Z</time>
      </trkpt>
      <trkpt lat="47.24646" lon="-0.18427">
        <ele>81.4</ele>
        <time>2026-06-20T06:54:11Z</time>
      </trkpt>
      <trkpt lat="47.24647" lon="-0.18429">
        <ele>81.6</ele>
        <time>2026-06-20T06:54:12Z</time>
      </trkpt>
      <trkpt lat="47.24649" lon="-0.18431">
        <ele>81.8</ele>
        <time>2026-06-20T06:54:13Z</time>
      </trkpt>
      <trkpt lat="47.24652" lon="-0.18432">
        <ele>82</ele>
        <time>2026-06-20T06:54:14Z</time>
      </trkpt>
      <trkpt lat="47.24654" lon="-0.18433">
        <ele>82</ele>
        <time>2026-06-20T06:54:15Z</time>
      </trkpt>
      <trkpt lat="47.24657" lon="-0.18434">
        <ele>82.2</ele>
        <time>2026-06-20T06:54:16Z</time>
      </trkpt>
      <trkpt lat="47.24659" lon="-0.18435">
        <ele>82.2</ele>
        <time>2026-06-20T06:54:17Z</time>
      </trkpt>
      <trkpt lat="47.24661" lon="-0.18437">
        <ele>82.4</ele>
        <time>2026-06-20T06:54:18Z</time>
      </trkpt>
      <trkpt lat="47.24664" lon="-0.18439">
        <ele>82.4</ele>
        <time>2026-06-20T06:54:19Z</time>
      </trkpt>
      <trkpt lat="47.24666" lon="-0.1844">
        <ele>82.6</ele>
        <time>2026-06-20T06:54:20Z</time>
      </trkpt>
      <trkpt lat="47.24669" lon="-0.18443">
        <ele>82.6</ele>
        <time>2026-06-20T06:54:21Z</time>
      </trkpt>
      <trkpt lat="47.24673" lon="-0.18445">
        <ele>82.8</ele>
        <time>2026-06-20T06:54:22Z</time>
      </trkpt>
      <trkpt lat="47.24676" lon="-0.18448">
        <ele>82.8</ele>
        <time>2026-06-20T06:54:23Z</time>
      </trkpt>
      <trkpt lat="47.24679" lon="-0.1845">
        <ele>82.8</ele>
        <time>2026-06-20T06:54:24Z</time>
      </trkpt>
      <trkpt lat="47.24683" lon="-0.18451">
        <ele>82.8</ele>
        <time>2026-06-20T06:54:25Z</time>
      </trkpt>
      <trkpt lat="47.24687" lon="-0.18453">
        <ele>83</ele>
        <time>2026-06-20T06:54:26Z</time>
      </trkpt>
      <trkpt lat="47.24691" lon="-0.18456">
        <ele>83</ele>
        <time>2026-06-20T06:54:27Z</time>
      </trkpt>
      <trkpt lat="47.24695" lon="-0.18458">
        <ele>83</ele>
        <time>2026-06-20T06:54:28Z</time>
      </trkpt>
      <trkpt lat="47.247" lon="-0.18461">
        <ele>83</ele>
        <time>2026-06-20T06:54:29Z</time>
      </trkpt>
      <trkpt lat="47.24705" lon="-0.18463">
        <ele>83</ele>
        <time>2026-06-20T06:54:30Z</time>
      </trkpt>
      <trkpt lat="47.24709" lon="-0.18465">
        <ele>83</ele>
        <time>2026-06-20T06:54:31Z</time>
      </trkpt>
      <trkpt lat="47.24713" lon="-0.18467">
        <ele>83</ele>
        <time>2026-06-20T06:54:32Z</time>
      </trkpt>
      <trkpt lat="47.24718" lon="-0.18468">
        <ele>82.8</ele>
        <time>2026-06-20T06:54:33Z</time>
      </trkpt>
      <trkpt lat="47.24722" lon="-0.1847">
        <ele>82.8</ele>
        <time>2026-06-20T06:54:34Z</time>
      </trkpt>
      <trkpt lat="47.24727" lon="-0.18471">
        <ele>82.8</ele>
        <time>2026-06-20T06:54:35Z</time>
      </trkpt>
      <trkpt lat="47.24733" lon="-0.18472">
        <ele>82.8</ele>
        <time>2026-06-20T06:54:36Z</time>
      </trkpt>
      <trkpt lat="47.24738" lon="-0.1847">
        <ele>82.6</ele>
        <time>2026-06-20T06:54:37Z</time>
      </trkpt>
      <trkpt lat="47.24742" lon="-0.1847">
        <ele>82.6</ele>
        <time>2026-06-20T06:54:38Z</time>
      </trkpt>
      <trkpt lat="47.24747" lon="-0.18469">
        <ele>82.6</ele>
        <time>2026-06-20T06:54:39Z</time>
      </trkpt>
      <trkpt lat="47.24753" lon="-0.18469">
        <ele>82.4</ele>
        <time>2026-06-20T06:54:40Z</time>
      </trkpt>
      <trkpt lat="47.24758" lon="-0.18469">
        <ele>82.4</ele>
        <time>2026-06-20T06:54:41Z</time>
      </trkpt>
      <trkpt lat="47.24764" lon="-0.18469">
        <ele>82.4</ele>
        <time>2026-06-20T06:54:42Z</time>
      </trkpt>
      <trkpt lat="47.24769" lon="-0.18471">
        <ele>82.4</ele>
        <time>2026-06-20T06:54:43Z</time>
      </trkpt>
      <trkpt lat="47.24773" lon="-0.18473">
        <ele>82.6</ele>
        <time>2026-06-20T06:54:44Z</time>
      </trkpt>
      <trkpt lat="47.24778" lon="-0.18474">
        <ele>82.6</ele>
        <time>2026-06-20T06:54:45Z</time>
      </trkpt>
      <trkpt lat="47.24782" lon="-0.18476">
        <ele>82.8</ele>
        <time>2026-06-20T06:54:46Z</time>
      </trkpt>
      <trkpt lat="47.24786" lon="-0.18477">
        <ele>82.8</ele>
        <time>2026-06-20T06:54:47Z</time>
      </trkpt>
      <trkpt lat="47.24789" lon="-0.18479">
        <ele>83</ele>
        <time>2026-06-20T06:54:48Z</time>
      </trkpt>
      <trkpt lat="47.24792" lon="-0.18481">
        <ele>83.2</ele>
        <time>2026-06-20T06:54:49Z</time>
      </trkpt>
      <trkpt lat="47.24796" lon="-0.18483">
        <ele>83.4</ele>
        <time>2026-06-20T06:54:50Z</time>
      </trkpt>
      <trkpt lat="47.248" lon="-0.18484">
        <ele>83.6</ele>
        <time>2026-06-20T06:54:51Z</time>
      </trkpt>
      <trkpt lat="47.24803" lon="-0.18485">
        <ele>83.6</ele>
        <time>2026-06-20T06:54:52Z</time>
      </trkpt>
      <trkpt lat="47.24807" lon="-0.18487">
        <ele>83.8</ele>
        <time>2026-06-20T06:54:53Z</time>
      </trkpt>
      <trkpt lat="47.24811" lon="-0.18488">
        <ele>83.8</ele>
        <time>2026-06-20T06:54:54Z</time>
      </trkpt>
      <trkpt lat="47.24814" lon="-0.18488">
        <ele>84</ele>
        <time>2026-06-20T06:54:55Z</time>
      </trkpt>
      <trkpt lat="47.24818" lon="-0.18489">
        <ele>84.2</ele>
        <time>2026-06-20T06:54:56Z</time>
      </trkpt>
      <trkpt lat="47.24822" lon="-0.18489">
        <ele>84.2</ele>
        <time>2026-06-20T06:54:57Z</time>
      </trkpt>
      <trkpt lat="47.24827" lon="-0.18489">
        <ele>84.4</ele>
        <time>2026-06-20T06:54:58Z</time>
      </trkpt>
      <trkpt lat="47.24832" lon="-0.18488">
        <ele>84.4</ele>
        <time>2026-06-20T06:54:59Z</time>
      </trkpt>
      <trkpt lat="47.24836" lon="-0.18487">
        <ele>84.2</ele>
        <time>2026-06-20T06:55:00Z</time>
      </trkpt>
      <trkpt lat="47.24841" lon="-0.18487">
        <ele>84</ele>
        <time>2026-06-20T06:55:01Z</time>
      </trkpt>
      <trkpt lat="47.24845" lon="-0.18486">
        <ele>83.8</ele>
        <time>2026-06-20T06:55:02Z</time>
      </trkpt>
      <trkpt lat="47.2485" lon="-0.18486">
        <ele>83.4</ele>
        <time>2026-06-20T06:55:03Z</time>
      </trkpt>
      <trkpt lat="47.24856" lon="-0.18484">
        <ele>83</ele>
        <time>2026-06-20T06:55:04Z</time>
      </trkpt>
      <trkpt lat="47.24863" lon="-0.18483">
        <ele>82.4</ele>
        <time>2026-06-20T06:55:05Z</time>
      </trkpt>
      <trkpt lat="47.2487" lon="-0.18482">
        <ele>81.8</ele>
        <time>2026-06-20T06:55:06Z</time>
      </trkpt>
      <trkpt lat="47.24875" lon="-0.18483">
        <ele>81.2</ele>
        <time>2026-06-20T06:55:07Z</time>
      </trkpt>
      <trkpt lat="47.24878" lon="-0.18486">
        <ele>80.6</ele>
        <time>2026-06-20T06:55:08Z</time>
      </trkpt>
      <trkpt lat="47.24881" lon="-0.18491">
        <ele>80.2</ele>
        <time>2026-06-20T06:55:09Z</time>
      </trkpt>
      <trkpt lat="47.24882" lon="-0.18495">
        <ele>80.2</ele>
        <time>2026-06-20T06:55:10Z</time>
      </trkpt>
      <trkpt lat="47.24883" lon="-0.185">
        <ele>80.2</ele>
        <time>2026-06-20T06:55:11Z</time>
      </trkpt>
      <trkpt lat="47.24883" lon="-0.18504">
        <ele>80.2</ele>
        <time>2026-06-20T06:55:12Z</time>
      </trkpt>
      <trkpt lat="47.24884" lon="-0.18508">
        <ele>80.4</ele>
        <time>2026-06-20T06:55:13Z</time>
      </trkpt>
      <trkpt lat="47.24884" lon="-0.18512">
        <ele>80.6</ele>
        <time>2026-06-20T06:55:14Z</time>
      </trkpt>
      <trkpt lat="47.24885" lon="-0.18516">
        <ele>80.8</ele>
        <time>2026-06-20T06:55:15Z</time>
      </trkpt>
      <trkpt lat="47.24884" lon="-0.18521">
        <ele>81</ele>
        <time>2026-06-20T06:55:16Z</time>
      </trkpt>
      <trkpt lat="47.24885" lon="-0.18526">
        <ele>81.2</ele>
        <time>2026-06-20T06:55:17Z</time>
      </trkpt>
      <trkpt lat="47.24885" lon="-0.1853">
        <ele>81.4</ele>
        <time>2026-06-20T06:55:18Z</time>
      </trkpt>
      <trkpt lat="47.24885" lon="-0.18534">
        <ele>81.6</ele>
        <time>2026-06-20T06:55:19Z</time>
      </trkpt>
      <trkpt lat="47.24885" lon="-0.18539">
        <ele>81.8</ele>
        <time>2026-06-20T06:55:20Z</time>
      </trkpt>
      <trkpt lat="47.24885" lon="-0.18543">
        <ele>82.2</ele>
        <time>2026-06-20T06:55:21Z</time>
      </trkpt>
      <trkpt lat="47.24885" lon="-0.18549">
        <ele>82.4</ele>
        <time>2026-06-20T06:55:22Z</time>
      </trkpt>
      <trkpt lat="47.24885" lon="-0.18553">
        <ele>82.6</ele>
        <time>2026-06-20T06:55:23Z</time>
      </trkpt>
      <trkpt lat="47.24885" lon="-0.18557">
        <ele>82.8</ele>
        <time>2026-06-20T06:55:24Z</time>
      </trkpt>
      <trkpt lat="47.24885" lon="-0.18561">
        <ele>83</ele>
        <time>2026-06-20T06:55:25Z</time>
      </trkpt>
      <trkpt lat="47.24885" lon="-0.18565">
        <ele>83</ele>
        <time>2026-06-20T06:55:26Z</time>
      </trkpt>
      <trkpt lat="47.24885" lon="-0.1857">
        <ele>83.2</ele>
        <time>2026-06-20T06:55:27Z</time>
      </trkpt>
      <trkpt lat="47.24885" lon="-0.18575">
        <ele>83.4</ele>
        <time>2026-06-20T06:55:28Z</time>
      </trkpt>
      <trkpt lat="47.24885" lon="-0.18581">
        <ele>83.6</ele>
        <time>2026-06-20T06:55:29Z</time>
      </trkpt>
      <trkpt lat="47.24885" lon="-0.18586">
        <ele>83.8</ele>
        <time>2026-06-20T06:55:30Z</time>
      </trkpt>
      <trkpt lat="47.24885" lon="-0.18591">
        <ele>84</ele>
        <time>2026-06-20T06:55:31Z</time>
      </trkpt>
      <trkpt lat="47.24886" lon="-0.18596">
        <ele>84.2</ele>
        <time>2026-06-20T06:55:32Z</time>
      </trkpt>
      <trkpt lat="47.24886" lon="-0.18601">
        <ele>84.4</ele>
        <time>2026-06-20T06:55:33Z</time>
      </trkpt>
      <trkpt lat="47.24886" lon="-0.18606">
        <ele>84.6</ele>
        <time>2026-06-20T06:55:34Z</time>
      </trkpt>
      <trkpt lat="47.24887" lon="-0.1861">
        <ele>84.8</ele>
        <time>2026-06-20T06:55:35Z</time>
      </trkpt>
      <trkpt lat="47.24886" lon="-0.18614">
        <ele>85</ele>
        <time>2026-06-20T06:55:36Z</time>
      </trkpt>
      <trkpt lat="47.24887" lon="-0.18618">
        <ele>85.2</ele>
        <time>2026-06-20T06:55:37Z</time>
      </trkpt>
      <trkpt lat="47.24887" lon="-0.18622">
        <ele>85.2</ele>
        <time>2026-06-20T06:55:38Z</time>
      </trkpt>
      <trkpt lat="47.24887" lon="-0.18626">
        <ele>85.4</ele>
        <time>2026-06-20T06:55:39Z</time>
      </trkpt>
      <trkpt lat="47.24887" lon="-0.1863">
        <ele>85.6</ele>
        <time>2026-06-20T06:55:40Z</time>
      </trkpt>
      <trkpt lat="47.24887" lon="-0.18634">
        <ele>85.8</ele>
        <time>2026-06-20T06:55:41Z</time>
      </trkpt>
      <trkpt lat="47.24887" lon="-0.18639">
        <ele>86</ele>
        <time>2026-06-20T06:55:42Z</time>
      </trkpt>
      <trkpt lat="47.24886" lon="-0.18643">
        <ele>86.2</ele>
        <time>2026-06-20T06:55:43Z</time>
      </trkpt>
      <trkpt lat="47.24886" lon="-0.18647">
        <ele>86.2</ele>
        <time>2026-06-20T06:55:44Z</time>
      </trkpt>
      <trkpt lat="47.24886" lon="-0.18652">
        <ele>86.4</ele>
        <time>2026-06-20T06:55:45Z</time>
      </trkpt>
      <trkpt lat="47.24886" lon="-0.18656">
        <ele>86.4</ele>
        <time>2026-06-20T06:55:46Z</time>
      </trkpt>
      <trkpt lat="47.24886" lon="-0.18661">
        <ele>86.6</ele>
        <time>2026-06-20T06:55:47Z</time>
      </trkpt>
      <trkpt lat="47.24886" lon="-0.18665">
        <ele>86.6</ele>
        <time>2026-06-20T06:55:48Z</time>
      </trkpt>
      <trkpt lat="47.24887" lon="-0.1867">
        <ele>86.6</ele>
        <time>2026-06-20T06:55:49Z</time>
      </trkpt>
      <trkpt lat="47.24887" lon="-0.18675">
        <ele>86.8</ele>
        <time>2026-06-20T06:55:50Z</time>
      </trkpt>
      <trkpt lat="47.24887" lon="-0.18679">
        <ele>86.8</ele>
        <time>2026-06-20T06:55:51Z</time>
      </trkpt>
      <trkpt lat="47.24887" lon="-0.18684">
        <ele>86.8</ele>
        <time>2026-06-20T06:55:52Z</time>
      </trkpt>
      <trkpt lat="47.24888" lon="-0.18688">
        <ele>86.6</ele>
        <time>2026-06-20T06:55:53Z</time>
      </trkpt>
      <trkpt lat="47.24888" lon="-0.18692">
        <ele>86.6</ele>
        <time>2026-06-20T06:55:54Z</time>
      </trkpt>
      <trkpt lat="47.24888" lon="-0.18697">
        <ele>86.6</ele>
        <time>2026-06-20T06:55:55Z</time>
      </trkpt>
      <trkpt lat="47.24889" lon="-0.18701">
        <ele>86.6</ele>
        <time>2026-06-20T06:55:56Z</time>
      </trkpt>
      <trkpt lat="47.24889" lon="-0.18706">
        <ele>86.6</ele>
        <time>2026-06-20T06:55:57Z</time>
      </trkpt>
      <trkpt lat="47.24889" lon="-0.18711">
        <ele>86.6</ele>
        <time>2026-06-20T06:55:58Z</time>
      </trkpt>
      <trkpt lat="47.2489" lon="-0.18716">
        <ele>86.6</ele>
        <time>2026-06-20T06:55:59Z</time>
      </trkpt>
      <trkpt lat="47.2489" lon="-0.18721">
        <ele>86.6</ele>
        <time>2026-06-20T06:56:00Z</time>
      </trkpt>
      <trkpt lat="47.2489" lon="-0.18726">
        <ele>86.6</ele>
        <time>2026-06-20T06:56:01Z</time>
      </trkpt>
      <trkpt lat="47.24891" lon="-0.18732">
        <ele>86.6</ele>
        <time>2026-06-20T06:56:02Z</time>
      </trkpt>
      <trkpt lat="47.24891" lon="-0.18737">
        <ele>86.6</ele>
        <time>2026-06-20T06:56:03Z</time>
      </trkpt>
      <trkpt lat="47.24892" lon="-0.18742">
        <ele>86.4</ele>
        <time>2026-06-20T06:56:04Z</time>
      </trkpt>
      <trkpt lat="47.24893" lon="-0.18747">
        <ele>86.4</ele>
        <time>2026-06-20T06:56:05Z</time>
      </trkpt>
      <trkpt lat="47.24893" lon="-0.18753">
        <ele>86.4</ele>
        <time>2026-06-20T06:56:06Z</time>
      </trkpt>
      <trkpt lat="47.24894" lon="-0.18758">
        <ele>86.2</ele>
        <time>2026-06-20T06:56:07Z</time>
      </trkpt>
      <trkpt lat="47.24894" lon="-0.18763">
        <ele>86.2</ele>
        <time>2026-06-20T06:56:08Z</time>
      </trkpt>
      <trkpt lat="47.24894" lon="-0.18768">
        <ele>86.2</ele>
        <time>2026-06-20T06:56:09Z</time>
      </trkpt>
      <trkpt lat="47.24894" lon="-0.18774">
        <ele>86.4</ele>
        <time>2026-06-20T06:56:10Z</time>
      </trkpt>
      <trkpt lat="47.24895" lon="-0.18779">
        <ele>86.4</ele>
        <time>2026-06-20T06:56:11Z</time>
      </trkpt>
      <trkpt lat="47.24895" lon="-0.18784">
        <ele>86.4</ele>
        <time>2026-06-20T06:56:12Z</time>
      </trkpt>
      <trkpt lat="47.24895" lon="-0.1879">
        <ele>86.4</ele>
        <time>2026-06-20T06:56:13Z</time>
      </trkpt>
      <trkpt lat="47.24894" lon="-0.18796">
        <ele>86.2</ele>
        <time>2026-06-20T06:56:14Z</time>
      </trkpt>
      <trkpt lat="47.24893" lon="-0.18801">
        <ele>86.2</ele>
        <time>2026-06-20T06:56:15Z</time>
      </trkpt>
      <trkpt lat="47.24893" lon="-0.18807">
        <ele>86.2</ele>
        <time>2026-06-20T06:56:16Z</time>
      </trkpt>
      <trkpt lat="47.24892" lon="-0.18812">
        <ele>86</ele>
        <time>2026-06-20T06:56:17Z</time>
      </trkpt>
      <trkpt lat="47.24891" lon="-0.18818">
        <ele>85.8</ele>
        <time>2026-06-20T06:56:18Z</time>
      </trkpt>
      <trkpt lat="47.2489" lon="-0.18824">
        <ele>85.8</ele>
        <time>2026-06-20T06:56:19Z</time>
      </trkpt>
      <trkpt lat="47.24889" lon="-0.1883">
        <ele>86</ele>
        <time>2026-06-20T06:56:20Z</time>
      </trkpt>
      <trkpt lat="47.24888" lon="-0.18837">
        <ele>86</ele>
        <time>2026-06-20T06:56:21Z</time>
      </trkpt>
      <trkpt lat="47.24887" lon="-0.18843">
        <ele>85.8</ele>
        <time>2026-06-20T06:56:22Z</time>
      </trkpt>
      <trkpt lat="47.24886" lon="-0.1885">
        <ele>85.8</ele>
        <time>2026-06-20T06:56:23Z</time>
      </trkpt>
      <trkpt lat="47.24885" lon="-0.18856">
        <ele>85.8</ele>
        <time>2026-06-20T06:56:24Z</time>
      </trkpt>
      <trkpt lat="47.24884" lon="-0.18863">
        <ele>85.6</ele>
        <time>2026-06-20T06:56:25Z</time>
      </trkpt>
      <trkpt lat="47.24884" lon="-0.1887">
        <ele>85.6</ele>
        <time>2026-06-20T06:56:26Z</time>
      </trkpt>
      <trkpt lat="47.24883" lon="-0.18876">
        <ele>85.6</ele>
        <time>2026-06-20T06:56:27Z</time>
      </trkpt>
      <trkpt lat="47.24882" lon="-0.18883">
        <ele>85.8</ele>
        <time>2026-06-20T06:56:28Z</time>
      </trkpt>
      <trkpt lat="47.24882" lon="-0.18889">
        <ele>85.6</ele>
        <time>2026-06-20T06:56:29Z</time>
      </trkpt>
      <trkpt lat="47.24881" lon="-0.18896">
        <ele>85.6</ele>
        <time>2026-06-20T06:56:30Z</time>
      </trkpt>
      <trkpt lat="47.2488" lon="-0.18902">
        <ele>85.6</ele>
        <time>2026-06-20T06:56:31Z</time>
      </trkpt>
      <trkpt lat="47.24879" lon="-0.18908">
        <ele>85.6</ele>
        <time>2026-06-20T06:56:32Z</time>
      </trkpt>
      <trkpt lat="47.24879" lon="-0.18915">
        <ele>85.4</ele>
        <time>2026-06-20T06:56:33Z</time>
      </trkpt>
      <trkpt lat="47.24878" lon="-0.18921">
        <ele>85.4</ele>
        <time>2026-06-20T06:56:34Z</time>
      </trkpt>
      <trkpt lat="47.24877" lon="-0.18927">
        <ele>85.4</ele>
        <time>2026-06-20T06:56:35Z</time>
      </trkpt>
      <trkpt lat="47.24877" lon="-0.18934">
        <ele>85.4</ele>
        <time>2026-06-20T06:56:36Z</time>
      </trkpt>
      <trkpt lat="47.24876" lon="-0.1894">
        <ele>85.4</ele>
        <time>2026-06-20T06:56:37Z</time>
      </trkpt>
      <trkpt lat="47.24876" lon="-0.18947">
        <ele>85.4</ele>
        <time>2026-06-20T06:56:38Z</time>
      </trkpt>
      <trkpt lat="47.24876" lon="-0.18953">
        <ele>85.4</ele>
        <time>2026-06-20T06:56:39Z</time>
      </trkpt>
      <trkpt lat="47.24876" lon="-0.1896">
        <ele>85.2</ele>
        <time>2026-06-20T06:56:40Z</time>
      </trkpt>
      <trkpt lat="47.24877" lon="-0.18968">
        <ele>85.2</ele>
        <time>2026-06-20T06:56:41Z</time>
      </trkpt>
      <trkpt lat="47.24878" lon="-0.18975">
        <ele>85</ele>
        <time>2026-06-20T06:56:42Z</time>
      </trkpt>
      <trkpt lat="47.2488" lon="-0.18983">
        <ele>84.6</ele>
        <time>2026-06-20T06:56:43Z</time>
      </trkpt>
      <trkpt lat="47.24881" lon="-0.18991">
        <ele>84.2</ele>
        <time>2026-06-20T06:56:44Z</time>
      </trkpt>
      <trkpt lat="47.24883" lon="-0.18998">
        <ele>83.8</ele>
        <time>2026-06-20T06:56:45Z</time>
      </trkpt>
      <trkpt lat="47.24886" lon="-0.19005">
        <ele>83.4</ele>
        <time>2026-06-20T06:56:46Z</time>
      </trkpt>
      <trkpt lat="47.24889" lon="-0.19012">
        <ele>83.2</ele>
        <time>2026-06-20T06:56:47Z</time>
      </trkpt>
      <trkpt lat="47.24893" lon="-0.19018">
        <ele>83</ele>
        <time>2026-06-20T06:56:48Z</time>
      </trkpt>
      <trkpt lat="47.24897" lon="-0.19023">
        <ele>83</ele>
        <time>2026-06-20T06:56:49Z</time>
      </trkpt>
      <trkpt lat="47.24901" lon="-0.19027">
        <ele>83</ele>
        <time>2026-06-20T06:56:50Z</time>
      </trkpt>
      <trkpt lat="47.24904" lon="-0.1903">
        <ele>83</ele>
        <time>2026-06-20T06:56:51Z</time>
      </trkpt>
      <trkpt lat="47.24908" lon="-0.19033">
        <ele>83.4</ele>
        <time>2026-06-20T06:56:52Z</time>
      </trkpt>
      <trkpt lat="47.2491" lon="-0.19035">
        <ele>83.8</ele>
        <time>2026-06-20T06:56:53Z</time>
      </trkpt>
      <trkpt lat="47.2491" lon="-0.19037">
        <ele>84</ele>
        <time>2026-06-20T06:56:54Z</time>
      </trkpt>
      <trkpt lat="47.24909" lon="-0.19037">
        <ele>84.4</ele>
        <time>2026-06-20T06:56:55Z</time>
      </trkpt>
      <trkpt lat="47.24906" lon="-0.19036">
        <ele>84.6</ele>
        <time>2026-06-20T06:56:56Z</time>
      </trkpt>
      <trkpt lat="47.24903" lon="-0.19036">
        <ele>84.6</ele>
        <time>2026-06-20T06:56:57Z</time>
      </trkpt>
      <trkpt lat="47.24898" lon="-0.19035">
        <ele>84.2</ele>
        <time>2026-06-20T06:56:58Z</time>
      </trkpt>
      <trkpt lat="47.24893" lon="-0.19034">
        <ele>83.8</ele>
        <time>2026-06-20T06:56:59Z</time>
      </trkpt>
      <trkpt lat="47.24887" lon="-0.19034">
        <ele>83.2</ele>
        <time>2026-06-20T06:57:00Z</time>
      </trkpt>
      <trkpt lat="47.2488" lon="-0.19034">
        <ele>82.4</ele>
        <time>2026-06-20T06:57:01Z</time>
      </trkpt>
      <trkpt lat="47.24874" lon="-0.19036">
        <ele>81.4</ele>
        <time>2026-06-20T06:57:02Z</time>
      </trkpt>
      <trkpt lat="47.2487" lon="-0.1904">
        <ele>80.8</ele>
        <time>2026-06-20T06:57:03Z</time>
      </trkpt>
      <trkpt lat="47.24867" lon="-0.19047">
        <ele>80.2</ele>
        <time>2026-06-20T06:57:04Z</time>
      </trkpt>
      <trkpt lat="47.24863" lon="-0.19055">
        <ele>79.6</ele>
        <time>2026-06-20T06:57:05Z</time>
      </trkpt>
      <trkpt lat="47.24859" lon="-0.19064">
        <ele>79.2</ele>
        <time>2026-06-20T06:57:06Z</time>
      </trkpt>
      <trkpt lat="47.24855" lon="-0.19072">
        <ele>79</ele>
        <time>2026-06-20T06:57:07Z</time>
      </trkpt>
      <trkpt lat="47.24851" lon="-0.19081">
        <ele>78.6</ele>
        <time>2026-06-20T06:57:08Z</time>
      </trkpt>
      <trkpt lat="47.24846" lon="-0.19089">
        <ele>78.4</ele>
        <time>2026-06-20T06:57:09Z</time>
      </trkpt>
      <trkpt lat="47.24842" lon="-0.19097">
        <ele>78.2</ele>
        <time>2026-06-20T06:57:10Z</time>
      </trkpt>
      <trkpt lat="47.24839" lon="-0.19105">
        <ele>78</ele>
        <time>2026-06-20T06:57:11Z</time>
      </trkpt>
      <trkpt lat="47.24835" lon="-0.19113">
        <ele>77.8</ele>
        <time>2026-06-20T06:57:12Z</time>
      </trkpt>
      <trkpt lat="47.24832" lon="-0.19121">
        <ele>77.8</ele>
        <time>2026-06-20T06:57:13Z</time>
      </trkpt>
      <trkpt lat="47.24828" lon="-0.1913">
        <ele>77.8</ele>
        <time>2026-06-20T06:57:14Z</time>
      </trkpt>
      <trkpt lat="47.24824" lon="-0.19138">
        <ele>78</ele>
        <time>2026-06-20T06:57:15Z</time>
      </trkpt>
      <trkpt lat="47.24821" lon="-0.19145">
        <ele>78.2</ele>
        <time>2026-06-20T06:57:16Z</time>
      </trkpt>
      <trkpt lat="47.24818" lon="-0.19152">
        <ele>78.4</ele>
        <time>2026-06-20T06:57:17Z</time>
      </trkpt>
      <trkpt lat="47.24816" lon="-0.19158">
        <ele>78.6</ele>
        <time>2026-06-20T06:57:18Z</time>
      </trkpt>
      <trkpt lat="47.24813" lon="-0.19164">
        <ele>78.8</ele>
        <time>2026-06-20T06:57:19Z</time>
      </trkpt>
      <trkpt lat="47.24811" lon="-0.19169">
        <ele>79.2</ele>
        <time>2026-06-20T06:57:20Z</time>
      </trkpt>
      <trkpt lat="47.24808" lon="-0.19174">
        <ele>79.4</ele>
        <time>2026-06-20T06:57:21Z</time>
      </trkpt>
      <trkpt lat="47.24806" lon="-0.1918">
        <ele>79.6</ele>
        <time>2026-06-20T06:57:22Z</time>
      </trkpt>
      <trkpt lat="47.24803" lon="-0.19185">
        <ele>79.8</ele>
        <time>2026-06-20T06:57:23Z</time>
      </trkpt>
      <trkpt lat="47.248" lon="-0.19189">
        <ele>80</ele>
        <time>2026-06-20T06:57:24Z</time>
      </trkpt>
      <trkpt lat="47.24798" lon="-0.19195">
        <ele>80.2</ele>
        <time>2026-06-20T06:57:25Z</time>
      </trkpt>
      <trkpt lat="47.24795" lon="-0.192">
        <ele>80.2</ele>
        <time>2026-06-20T06:57:26Z</time>
      </trkpt>
      <trkpt lat="47.24793" lon="-0.19205">
        <ele>80.4</ele>
        <time>2026-06-20T06:57:27Z</time>
      </trkpt>
      <trkpt lat="47.2479" lon="-0.19211">
        <ele>80.4</ele>
        <time>2026-06-20T06:57:28Z</time>
      </trkpt>
      <trkpt lat="47.24788" lon="-0.19216">
        <ele>80.4</ele>
        <time>2026-06-20T06:57:29Z</time>
      </trkpt>
      <trkpt lat="47.24785" lon="-0.19222">
        <ele>80.4</ele>
        <time>2026-06-20T06:57:30Z</time>
      </trkpt>
      <trkpt lat="47.24783" lon="-0.19228">
        <ele>80.4</ele>
        <time>2026-06-20T06:57:31Z</time>
      </trkpt>
      <trkpt lat="47.2478" lon="-0.19234">
        <ele>80.4</ele>
        <time>2026-06-20T06:57:32Z</time>
      </trkpt>
      <trkpt lat="47.24776" lon="-0.19241">
        <ele>80.2</ele>
        <time>2026-06-20T06:57:33Z</time>
      </trkpt>
      <trkpt lat="47.24773" lon="-0.19247">
        <ele>80.4</ele>
        <time>2026-06-20T06:57:34Z</time>
      </trkpt>
      <trkpt lat="47.24771" lon="-0.19253">
        <ele>80.4</ele>
        <time>2026-06-20T06:57:35Z</time>
      </trkpt>
      <trkpt lat="47.24768" lon="-0.19259">
        <ele>80.4</ele>
        <time>2026-06-20T06:57:36Z</time>
      </trkpt>
      <trkpt lat="47.24765" lon="-0.19264">
        <ele>80.4</ele>
        <time>2026-06-20T06:57:37Z</time>
      </trkpt>
      <trkpt lat="47.24762" lon="-0.19271">
        <ele>80.4</ele>
        <time>2026-06-20T06:57:38Z</time>
      </trkpt>
      <trkpt lat="47.24759" lon="-0.19277">
        <ele>80.4</ele>
        <time>2026-06-20T06:57:39Z</time>
      </trkpt>
      <trkpt lat="47.24757" lon="-0.19283">
        <ele>80.6</ele>
        <time>2026-06-20T06:57:40Z</time>
      </trkpt>
      <trkpt lat="47.24755" lon="-0.1929">
        <ele>80.8</ele>
        <time>2026-06-20T06:57:41Z</time>
      </trkpt>
      <trkpt lat="47.24754" lon="-0.19295">
        <ele>80.8</ele>
        <time>2026-06-20T06:57:42Z</time>
      </trkpt>
      <trkpt lat="47.24753" lon="-0.19301">
        <ele>81</ele>
        <time>2026-06-20T06:57:43Z</time>
      </trkpt>
      <trkpt lat="47.24751" lon="-0.19308">
        <ele>81</ele>
        <time>2026-06-20T06:57:44Z</time>
      </trkpt>
      <trkpt lat="47.24749" lon="-0.19315">
        <ele>81.2</ele>
        <time>2026-06-20T06:57:45Z</time>
      </trkpt>
      <trkpt lat="47.24748" lon="-0.19322">
        <ele>81.4</ele>
        <time>2026-06-20T06:57:46Z</time>
      </trkpt>
      <trkpt lat="47.24747" lon="-0.19329">
        <ele>81.4</ele>
        <time>2026-06-20T06:57:47Z</time>
      </trkpt>
      <trkpt lat="47.24745" lon="-0.19337">
        <ele>81.6</ele>
        <time>2026-06-20T06:57:48Z</time>
      </trkpt>
      <trkpt lat="47.24744" lon="-0.19345">
        <ele>81.8</ele>
        <time>2026-06-20T06:57:49Z</time>
      </trkpt>
      <trkpt lat="47.24742" lon="-0.19351">
        <ele>82</ele>
        <time>2026-06-20T06:57:50Z</time>
      </trkpt>
      <trkpt lat="47.24741" lon="-0.19356">
        <ele>82.2</ele>
        <time>2026-06-20T06:57:51Z</time>
      </trkpt>
      <trkpt lat="47.24739" lon="-0.19361">
        <ele>82.2</ele>
        <time>2026-06-20T06:57:52Z</time>
      </trkpt>
      <trkpt lat="47.24738" lon="-0.1937">
        <ele>82.4</ele>
        <time>2026-06-20T06:57:53Z</time>
      </trkpt>
      <trkpt lat="47.24737" lon="-0.19376">
        <ele>82.6</ele>
        <time>2026-06-20T06:57:54Z</time>
      </trkpt>
      <trkpt lat="47.24737" lon="-0.1938">
        <ele>82.8</ele>
        <time>2026-06-20T06:57:55Z</time>
      </trkpt>
      <trkpt lat="47.24737" lon="-0.19386">
        <ele>83.2</ele>
        <time>2026-06-20T06:57:56Z</time>
      </trkpt>
      <trkpt lat="47.24737" lon="-0.19391">
        <ele>83.4</ele>
        <time>2026-06-20T06:57:57Z</time>
      </trkpt>
      <trkpt lat="47.24736" lon="-0.19398">
        <ele>83.6</ele>
        <time>2026-06-20T06:57:58Z</time>
      </trkpt>
      <trkpt lat="47.24735" lon="-0.19403">
        <ele>83.8</ele>
        <time>2026-06-20T06:57:59Z</time>
      </trkpt>
      <trkpt lat="47.24735" lon="-0.1941">
        <ele>84</ele>
        <time>2026-06-20T06:58:00Z</time>
      </trkpt>
      <trkpt lat="47.24735" lon="-0.19415">
        <ele>84.2</ele>
        <time>2026-06-20T06:58:01Z</time>
      </trkpt>
      <trkpt lat="47.24734" lon="-0.19421">
        <ele>84.4</ele>
        <time>2026-06-20T06:58:02Z</time>
      </trkpt>
      <trkpt lat="47.24733" lon="-0.19425">
        <ele>84.6</ele>
        <time>2026-06-20T06:58:03Z</time>
      </trkpt>
      <trkpt lat="47.24732" lon="-0.1943">
        <ele>84.8</ele>
        <time>2026-06-20T06:58:04Z</time>
      </trkpt>
      <trkpt lat="47.24731" lon="-0.19434">
        <ele>85</ele>
        <time>2026-06-20T06:58:05Z</time>
      </trkpt>
      <trkpt lat="47.24728" lon="-0.19441">
        <ele>85</ele>
        <time>2026-06-20T06:58:06Z</time>
      </trkpt>
      <trkpt lat="47.24727" lon="-0.19447">
        <ele>85.2</ele>
        <time>2026-06-20T06:58:07Z</time>
      </trkpt>
      <trkpt lat="47.24726" lon="-0.19453">
        <ele>85.4</ele>
        <time>2026-06-20T06:58:08Z</time>
      </trkpt>
      <trkpt lat="47.24724" lon="-0.19457">
        <ele>85.4</ele>
        <time>2026-06-20T06:58:09Z</time>
      </trkpt>
      <trkpt lat="47.24723" lon="-0.19459">
        <ele>85.6</ele>
        <time>2026-06-20T06:58:10Z</time>
      </trkpt>
      <trkpt lat="47.24722" lon="-0.19462">
        <ele>85.6</ele>
        <time>2026-06-20T06:58:11Z</time>
      </trkpt>
      <trkpt lat="47.2472" lon="-0.19468">
        <ele>85.6</ele>
        <time>2026-06-20T06:58:12Z</time>
      </trkpt>
      <trkpt lat="47.24718" lon="-0.19474">
        <ele>85.8</ele>
        <time>2026-06-20T06:58:13Z</time>
      </trkpt>
      <trkpt lat="47.24717" lon="-0.19478">
        <ele>85.8</ele>
        <time>2026-06-20T06:58:14Z</time>
      </trkpt>
      <trkpt lat="47.24716" lon="-0.19482">
        <ele>85.8</ele>
        <time>2026-06-20T06:58:15Z</time>
      </trkpt>
      <trkpt lat="47.24715" lon="-0.19486">
        <ele>86</ele>
        <time>2026-06-20T06:58:16Z</time>
      </trkpt>
      <trkpt lat="47.24713" lon="-0.1949">
        <ele>86</ele>
        <time>2026-06-20T06:58:17Z</time>
      </trkpt>
      <trkpt lat="47.24712" lon="-0.19496">
        <ele>86</ele>
        <time>2026-06-20T06:58:18Z</time>
      </trkpt>
      <trkpt lat="47.24712" lon="-0.19501">
        <ele>86.2</ele>
        <time>2026-06-20T06:58:19Z</time>
      </trkpt>
      <trkpt lat="47.24712" lon="-0.19506">
        <ele>86.2</ele>
        <time>2026-06-20T06:58:20Z</time>
      </trkpt>
      <trkpt lat="47.24712" lon="-0.1951">
        <ele>86.2</ele>
        <time>2026-06-20T06:58:21Z</time>
      </trkpt>
      <trkpt lat="47.2471" lon="-0.19514">
        <ele>86.2</ele>
        <time>2026-06-20T06:58:22Z</time>
      </trkpt>
      <trkpt lat="47.24709" lon="-0.19518">
        <ele>86.4</ele>
        <time>2026-06-20T06:58:23Z</time>
      </trkpt>
      <trkpt lat="47.24707" lon="-0.19524">
        <ele>86.4</ele>
        <time>2026-06-20T06:58:24Z</time>
      </trkpt>
      <trkpt lat="47.24704" lon="-0.19532">
        <ele>86.4</ele>
        <time>2026-06-20T06:58:25Z</time>
      </trkpt>
      <trkpt lat="47.24702" lon="-0.19537">
        <ele>86.4</ele>
        <time>2026-06-20T06:58:26Z</time>
      </trkpt>
      <trkpt lat="47.24701" lon="-0.19543">
        <ele>86.6</ele>
        <time>2026-06-20T06:58:27Z</time>
      </trkpt>
      <trkpt lat="47.24699" lon="-0.19548">
        <ele>86.6</ele>
        <time>2026-06-20T06:58:28Z</time>
      </trkpt>
      <trkpt lat="47.24698" lon="-0.19555">
        <ele>86.6</ele>
        <time>2026-06-20T06:58:29Z</time>
      </trkpt>
      <trkpt lat="47.24696" lon="-0.19562">
        <ele>86.8</ele>
        <time>2026-06-20T06:58:30Z</time>
      </trkpt>
      <trkpt lat="47.24694" lon="-0.19567">
        <ele>86.8</ele>
        <time>2026-06-20T06:58:31Z</time>
      </trkpt>
      <trkpt lat="47.24691" lon="-0.19572">
        <ele>86.8</ele>
        <time>2026-06-20T06:58:32Z</time>
      </trkpt>
      <trkpt lat="47.24689" lon="-0.19577">
        <ele>86.8</ele>
        <time>2026-06-20T06:58:33Z</time>
      </trkpt>
      <trkpt lat="47.24688" lon="-0.19583">
        <ele>87</ele>
        <time>2026-06-20T06:58:34Z</time>
      </trkpt>
      <trkpt lat="47.24684" lon="-0.19587">
        <ele>87</ele>
        <time>2026-06-20T06:58:35Z</time>
      </trkpt>
      <trkpt lat="47.24681" lon="-0.19592">
        <ele>87</ele>
        <time>2026-06-20T06:58:36Z</time>
      </trkpt>
      <trkpt lat="47.24678" lon="-0.19595">
        <ele>87.2</ele>
        <time>2026-06-20T06:58:37Z</time>
      </trkpt>
      <trkpt lat="47.24675" lon="-0.19599">
        <ele>87.2</ele>
        <time>2026-06-20T06:58:38Z</time>
      </trkpt>
      <trkpt lat="47.24671" lon="-0.19603">
        <ele>87.2</ele>
        <time>2026-06-20T06:58:39Z</time>
      </trkpt>
      <trkpt lat="47.24667" lon="-0.19608">
        <ele>87.2</ele>
        <time>2026-06-20T06:58:40Z</time>
      </trkpt>
      <trkpt lat="47.24664" lon="-0.19613">
        <ele>87.2</ele>
        <time>2026-06-20T06:58:41Z</time>
      </trkpt>
      <trkpt lat="47.24661" lon="-0.19615">
        <ele>87.2</ele>
        <time>2026-06-20T06:58:42Z</time>
      </trkpt>
      <trkpt lat="47.24658" lon="-0.19618">
        <ele>87.2</ele>
        <time>2026-06-20T06:58:43Z</time>
      </trkpt>
      <trkpt lat="47.24654" lon="-0.19621">
        <ele>87.4</ele>
        <time>2026-06-20T06:58:44Z</time>
      </trkpt>
      <trkpt lat="47.2465" lon="-0.19625">
        <ele>87.4</ele>
        <time>2026-06-20T06:58:45Z</time>
      </trkpt>
      <trkpt lat="47.24645" lon="-0.1963">
        <ele>87.4</ele>
        <time>2026-06-20T06:58:46Z</time>
      </trkpt>
      <trkpt lat="47.24642" lon="-0.19632">
        <ele>87.4</ele>
        <time>2026-06-20T06:58:47Z</time>
      </trkpt>
      <trkpt lat="47.24638" lon="-0.19635">
        <ele>87.4</ele>
        <time>2026-06-20T06:58:48Z</time>
      </trkpt>
      <trkpt lat="47.24634" lon="-0.19638">
        <ele>87.4</ele>
        <time>2026-06-20T06:58:49Z</time>
      </trkpt>
      <trkpt lat="47.24631" lon="-0.19641">
        <ele>87.4</ele>
        <time>2026-06-20T06:58:50Z</time>
      </trkpt>
      <trkpt lat="47.24627" lon="-0.19644">
        <ele>87.6</ele>
        <time>2026-06-20T06:58:51Z</time>
      </trkpt>
      <trkpt lat="47.24623" lon="-0.19648">
        <ele>87.6</ele>
        <time>2026-06-20T06:58:52Z</time>
      </trkpt>
      <trkpt lat="47.24619" lon="-0.19653">
        <ele>87.6</ele>
        <time>2026-06-20T06:58:53Z</time>
      </trkpt>
      <trkpt lat="47.24616" lon="-0.19657">
        <ele>87.6</ele>
        <time>2026-06-20T06:58:54Z</time>
      </trkpt>
      <trkpt lat="47.24613" lon="-0.19662">
        <ele>87.6</ele>
        <time>2026-06-20T06:58:55Z</time>
      </trkpt>
      <trkpt lat="47.2461" lon="-0.19666">
        <ele>87.6</ele>
        <time>2026-06-20T06:58:56Z</time>
      </trkpt>
      <trkpt lat="47.24608" lon="-0.19671">
        <ele>87.8</ele>
        <time>2026-06-20T06:58:57Z</time>
      </trkpt>
      <trkpt lat="47.24605" lon="-0.19675">
        <ele>87.8</ele>
        <time>2026-06-20T06:58:58Z</time>
      </trkpt>
      <trkpt lat="47.24602" lon="-0.1968">
        <ele>87.8</ele>
        <time>2026-06-20T06:58:59Z</time>
      </trkpt>
      <trkpt lat="47.24599" lon="-0.19685">
        <ele>88</ele>
        <time>2026-06-20T06:59:00Z</time>
      </trkpt>
      <trkpt lat="47.24596" lon="-0.19692">
        <ele>88</ele>
        <time>2026-06-20T06:59:01Z</time>
      </trkpt>
      <trkpt lat="47.24593" lon="-0.19697">
        <ele>88</ele>
        <time>2026-06-20T06:59:02Z</time>
      </trkpt>
      <trkpt lat="47.2459" lon="-0.19702">
        <ele>88</ele>
        <time>2026-06-20T06:59:03Z</time>
      </trkpt>
      <trkpt lat="47.24587" lon="-0.19707">
        <ele>88</ele>
        <time>2026-06-20T06:59:04Z</time>
      </trkpt>
      <trkpt lat="47.24584" lon="-0.19712">
        <ele>88</ele>
        <time>2026-06-20T06:59:05Z</time>
      </trkpt>
      <trkpt lat="47.24582" lon="-0.19716">
        <ele>88.2</ele>
        <time>2026-06-20T06:59:06Z</time>
      </trkpt>
      <trkpt lat="47.24578" lon="-0.1972">
        <ele>88.2</ele>
        <time>2026-06-20T06:59:07Z</time>
      </trkpt>
      <trkpt lat="47.24575" lon="-0.19726">
        <ele>88.2</ele>
        <time>2026-06-20T06:59:08Z</time>
      </trkpt>
      <trkpt lat="47.24572" lon="-0.19731">
        <ele>88.2</ele>
        <time>2026-06-20T06:59:09Z</time>
      </trkpt>
      <trkpt lat="47.24569" lon="-0.19737">
        <ele>88.4</ele>
        <time>2026-06-20T06:59:10Z</time>
      </trkpt>
      <trkpt lat="47.24565" lon="-0.19744">
        <ele>88.4</ele>
        <time>2026-06-20T06:59:11Z</time>
      </trkpt>
      <trkpt lat="47.2456" lon="-0.19753">
        <ele>88.4</ele>
        <time>2026-06-20T06:59:12Z</time>
      </trkpt>
      <trkpt lat="47.24557" lon="-0.19761">
        <ele>88.4</ele>
        <time>2026-06-20T06:59:13Z</time>
      </trkpt>
      <trkpt lat="47.24555" lon="-0.19766">
        <ele>88.2</ele>
        <time>2026-06-20T06:59:14Z</time>
      </trkpt>
      <trkpt lat="47.24552" lon="-0.19773">
        <ele>88.2</ele>
        <time>2026-06-20T06:59:15Z</time>
      </trkpt>
      <trkpt lat="47.2455" lon="-0.1978">
        <ele>88.2</ele>
        <time>2026-06-20T06:59:16Z</time>
      </trkpt>
      <trkpt lat="47.24547" lon="-0.19786">
        <ele>88.2</ele>
        <time>2026-06-20T06:59:17Z</time>
      </trkpt>
      <trkpt lat="47.24545" lon="-0.19793">
        <ele>88.4</ele>
        <time>2026-06-20T06:59:18Z</time>
      </trkpt>
      <trkpt lat="47.24542" lon="-0.19799">
        <ele>88.4</ele>
        <time>2026-06-20T06:59:19Z</time>
      </trkpt>
      <trkpt lat="47.2454" lon="-0.19805">
        <ele>88.6</ele>
        <time>2026-06-20T06:59:20Z</time>
      </trkpt>
      <trkpt lat="47.24537" lon="-0.19811">
        <ele>88.6</ele>
        <time>2026-06-20T06:59:21Z</time>
      </trkpt>
      <trkpt lat="47.24534" lon="-0.19817">
        <ele>88.6</ele>
        <time>2026-06-20T06:59:22Z</time>
      </trkpt>
      <trkpt lat="47.24532" lon="-0.19823">
        <ele>88.8</ele>
        <time>2026-06-20T06:59:23Z</time>
      </trkpt>
      <trkpt lat="47.24529" lon="-0.19828">
        <ele>88.8</ele>
        <time>2026-06-20T06:59:24Z</time>
      </trkpt>
      <trkpt lat="47.24527" lon="-0.19834">
        <ele>88.8</ele>
        <time>2026-06-20T06:59:25Z</time>
      </trkpt>
      <trkpt lat="47.24525" lon="-0.19839">
        <ele>88.8</ele>
        <time>2026-06-20T06:59:26Z</time>
      </trkpt>
      <trkpt lat="47.24523" lon="-0.19845">
        <ele>89</ele>
        <time>2026-06-20T06:59:27Z</time>
      </trkpt>
      <trkpt lat="47.2452" lon="-0.19851">
        <ele>89</ele>
        <time>2026-06-20T06:59:28Z</time>
      </trkpt>
      <trkpt lat="47.24517" lon="-0.19857">
        <ele>89</ele>
        <time>2026-06-20T06:59:29Z</time>
      </trkpt>
      <trkpt lat="47.24515" lon="-0.19862">
        <ele>89</ele>
        <time>2026-06-20T06:59:30Z</time>
      </trkpt>
      <trkpt lat="47.24513" lon="-0.19867">
        <ele>89.2</ele>
        <time>2026-06-20T06:59:31Z</time>
      </trkpt>
      <trkpt lat="47.2451" lon="-0.19872">
        <ele>89.4</ele>
        <time>2026-06-20T06:59:32Z</time>
      </trkpt>
      <trkpt lat="47.24508" lon="-0.19878">
        <ele>89.4</ele>
        <time>2026-06-20T06:59:33Z</time>
      </trkpt>
      <trkpt lat="47.24505" lon="-0.19883">
        <ele>89.6</ele>
        <time>2026-06-20T06:59:34Z</time>
      </trkpt>
      <trkpt lat="47.24503" lon="-0.19888">
        <ele>89.8</ele>
        <time>2026-06-20T06:59:35Z</time>
      </trkpt>
      <trkpt lat="47.245" lon="-0.19893">
        <ele>90</ele>
        <time>2026-06-20T06:59:36Z</time>
      </trkpt>
      <trkpt lat="47.24498" lon="-0.19898">
        <ele>90.4</ele>
        <time>2026-06-20T06:59:37Z</time>
      </trkpt>
      <trkpt lat="47.24496" lon="-0.19903">
        <ele>90.6</ele>
        <time>2026-06-20T06:59:38Z</time>
      </trkpt>
      <trkpt lat="47.24494" lon="-0.19908">
        <ele>90.8</ele>
        <time>2026-06-20T06:59:39Z</time>
      </trkpt>
      <trkpt lat="47.24491" lon="-0.19913">
        <ele>90.8</ele>
        <time>2026-06-20T06:59:40Z</time>
      </trkpt>
      <trkpt lat="47.24489" lon="-0.19918">
        <ele>91</ele>
        <time>2026-06-20T06:59:41Z</time>
      </trkpt>
      <trkpt lat="47.24487" lon="-0.19923">
        <ele>91</ele>
        <time>2026-06-20T06:59:42Z</time>
      </trkpt>
      <trkpt lat="47.24485" lon="-0.19928">
        <ele>91</ele>
        <time>2026-06-20T06:59:43Z</time>
      </trkpt>
      <trkpt lat="47.24482" lon="-0.19934">
        <ele>91.2</ele>
        <time>2026-06-20T06:59:44Z</time>
      </trkpt>
      <trkpt lat="47.24479" lon="-0.19939">
        <ele>91.2</ele>
        <time>2026-06-20T06:59:45Z</time>
      </trkpt>
      <trkpt lat="47.24477" lon="-0.19945">
        <ele>91.2</ele>
        <time>2026-06-20T06:59:46Z</time>
      </trkpt>
      <trkpt lat="47.24474" lon="-0.1995">
        <ele>91.4</ele>
        <time>2026-06-20T06:59:47Z</time>
      </trkpt>
      <trkpt lat="47.24471" lon="-0.19956">
        <ele>91.2</ele>
        <time>2026-06-20T06:59:48Z</time>
      </trkpt>
      <trkpt lat="47.24468" lon="-0.19961">
        <ele>91.4</ele>
        <time>2026-06-20T06:59:49Z</time>
      </trkpt>
      <trkpt lat="47.24466" lon="-0.19966">
        <ele>91.4</ele>
        <time>2026-06-20T06:59:50Z</time>
      </trkpt>
      <trkpt lat="47.24463" lon="-0.19972">
        <ele>91.4</ele>
        <time>2026-06-20T06:59:51Z</time>
      </trkpt>
      <trkpt lat="47.24461" lon="-0.19978">
        <ele>91.4</ele>
        <time>2026-06-20T06:59:52Z</time>
      </trkpt>
      <trkpt lat="47.24458" lon="-0.19984">
        <ele>91.6</ele>
        <time>2026-06-20T06:59:53Z</time>
      </trkpt>
      <trkpt lat="47.24456" lon="-0.19989">
        <ele>91.6</ele>
        <time>2026-06-20T06:59:54Z</time>
      </trkpt>
      <trkpt lat="47.24453" lon="-0.19995">
        <ele>91.6</ele>
        <time>2026-06-20T06:59:55Z</time>
      </trkpt>
      <trkpt lat="47.24451" lon="-0.20001">
        <ele>91.6</ele>
        <time>2026-06-20T06:59:56Z</time>
      </trkpt>
      <trkpt lat="47.24449" lon="-0.20006">
        <ele>91.8</ele>
        <time>2026-06-20T06:59:57Z</time>
      </trkpt>
      <trkpt lat="47.24447" lon="-0.2001">
        <ele>91.8</ele>
        <time>2026-06-20T06:59:58Z</time>
      </trkpt>
      <trkpt lat="47.24444" lon="-0.20015">
        <ele>91.8</ele>
        <time>2026-06-20T06:59:59Z</time>
      </trkpt>
      <trkpt lat="47.24442" lon="-0.20021">
        <ele>91.8</ele>
        <time>2026-06-20T07:00:00Z</time>
      </trkpt>
      <trkpt lat="47.2444" lon="-0.20027">
        <ele>92</ele>
        <time>2026-06-20T07:00:01Z</time>
      </trkpt>
      <trkpt lat="47.24438" lon="-0.20032">
        <ele>92</ele>
        <time>2026-06-20T07:00:02Z</time>
      </trkpt>
      <trkpt lat="47.24435" lon="-0.20037">
        <ele>92.2</ele>
        <time>2026-06-20T07:00:03Z</time>
      </trkpt>
      <trkpt lat="47.24433" lon="-0.20042">
        <ele>92.2</ele>
        <time>2026-06-20T07:00:04Z</time>
      </trkpt>
      <trkpt lat="47.24431" lon="-0.20046">
        <ele>92.4</ele>
        <time>2026-06-20T07:00:05Z</time>
      </trkpt>
      <trkpt lat="47.24428" lon="-0.20051">
        <ele>92.4</ele>
        <time>2026-06-20T07:00:06Z</time>
      </trkpt>
      <trkpt lat="47.24425" lon="-0.20056">
        <ele>92.4</ele>
        <time>2026-06-20T07:00:07Z</time>
      </trkpt>
      <trkpt lat="47.24422" lon="-0.20062">
        <ele>92.6</ele>
        <time>2026-06-20T07:00:08Z</time>
      </trkpt>
      <trkpt lat="47.24419" lon="-0.20068">
        <ele>92.6</ele>
        <time>2026-06-20T07:00:09Z</time>
      </trkpt>
      <trkpt lat="47.24417" lon="-0.20075">
        <ele>92.6</ele>
        <time>2026-06-20T07:00:10Z</time>
      </trkpt>
      <trkpt lat="47.24414" lon="-0.20081">
        <ele>92.6</ele>
        <time>2026-06-20T07:00:11Z</time>
      </trkpt>
      <trkpt lat="47.24411" lon="-0.20087">
        <ele>92.6</ele>
        <time>2026-06-20T07:00:12Z</time>
      </trkpt>
      <trkpt lat="47.24409" lon="-0.20093">
        <ele>92.6</ele>
        <time>2026-06-20T07:00:13Z</time>
      </trkpt>
      <trkpt lat="47.24407" lon="-0.20098">
        <ele>92.6</ele>
        <time>2026-06-20T07:00:14Z</time>
      </trkpt>
      <trkpt lat="47.24404" lon="-0.20104">
        <ele>92.8</ele>
        <time>2026-06-20T07:00:15Z</time>
      </trkpt>
      <trkpt lat="47.24402" lon="-0.2011">
        <ele>92.8</ele>
        <time>2026-06-20T07:00:16Z</time>
      </trkpt>
      <trkpt lat="47.24399" lon="-0.20115">
        <ele>92.8</ele>
        <time>2026-06-20T07:00:17Z</time>
      </trkpt>
      <trkpt lat="47.24396" lon="-0.20121">
        <ele>93</ele>
        <time>2026-06-20T07:00:18Z</time>
      </trkpt>
      <trkpt lat="47.24393" lon="-0.20128">
        <ele>93</ele>
        <time>2026-06-20T07:00:19Z</time>
      </trkpt>
      <trkpt lat="47.24391" lon="-0.20133">
        <ele>93</ele>
        <time>2026-06-20T07:00:20Z</time>
      </trkpt>
      <trkpt lat="47.24388" lon="-0.2014">
        <ele>93</ele>
        <time>2026-06-20T07:00:21Z</time>
      </trkpt>
      <trkpt lat="47.24385" lon="-0.20146">
        <ele>93.2</ele>
        <time>2026-06-20T07:00:22Z</time>
      </trkpt>
      <trkpt lat="47.24383" lon="-0.20151">
        <ele>93.2</ele>
        <time>2026-06-20T07:00:23Z</time>
      </trkpt>
      <trkpt lat="47.24382" lon="-0.20156">
        <ele>93.4</ele>
        <time>2026-06-20T07:00:24Z</time>
      </trkpt>
      <trkpt lat="47.2438" lon="-0.20161">
        <ele>93.4</ele>
        <time>2026-06-20T07:00:25Z</time>
      </trkpt>
      <trkpt lat="47.24379" lon="-0.20166">
        <ele>93.6</ele>
        <time>2026-06-20T07:00:26Z</time>
      </trkpt>
      <trkpt lat="47.24377" lon="-0.20171">
        <ele>93.6</ele>
        <time>2026-06-20T07:00:27Z</time>
      </trkpt>
      <trkpt lat="47.24374" lon="-0.20176">
        <ele>93.8</ele>
        <time>2026-06-20T07:00:28Z</time>
      </trkpt>
      <trkpt lat="47.24372" lon="-0.20181">
        <ele>93.8</ele>
        <time>2026-06-20T07:00:29Z</time>
      </trkpt>
      <trkpt lat="47.24369" lon="-0.20186">
        <ele>93.8</ele>
        <time>2026-06-20T07:00:30Z</time>
      </trkpt>
      <trkpt lat="47.24367" lon="-0.20191">
        <ele>94</ele>
        <time>2026-06-20T07:00:31Z</time>
      </trkpt>
      <trkpt lat="47.24365" lon="-0.20196">
        <ele>94</ele>
        <time>2026-06-20T07:00:32Z</time>
      </trkpt>
      <trkpt lat="47.24362" lon="-0.202">
        <ele>94.2</ele>
        <time>2026-06-20T07:00:33Z</time>
      </trkpt>
      <trkpt lat="47.2436" lon="-0.20205">
        <ele>94.2</ele>
        <time>2026-06-20T07:00:34Z</time>
      </trkpt>
      <trkpt lat="47.24356" lon="-0.20211">
        <ele>94.2</ele>
        <time>2026-06-20T07:00:35Z</time>
      </trkpt>
      <trkpt lat="47.24354" lon="-0.20216">
        <ele>94.2</ele>
        <time>2026-06-20T07:00:36Z</time>
      </trkpt>
      <trkpt lat="47.24352" lon="-0.20222">
        <ele>94.4</ele>
        <time>2026-06-20T07:00:37Z</time>
      </trkpt>
      <trkpt lat="47.2435" lon="-0.20229">
        <ele>94.4</ele>
        <time>2026-06-20T07:00:38Z</time>
      </trkpt>
      <trkpt lat="47.24348" lon="-0.20234">
        <ele>94.4</ele>
        <time>2026-06-20T07:00:39Z</time>
      </trkpt>
      <trkpt lat="47.24346" lon="-0.20239">
        <ele>94.4</ele>
        <time>2026-06-20T07:00:40Z</time>
      </trkpt>
      <trkpt lat="47.24343" lon="-0.20244">
        <ele>94.4</ele>
        <time>2026-06-20T07:00:41Z</time>
      </trkpt>
      <trkpt lat="47.24341" lon="-0.2025">
        <ele>94.6</ele>
        <time>2026-06-20T07:00:42Z</time>
      </trkpt>
      <trkpt lat="47.24339" lon="-0.20255">
        <ele>94.6</ele>
        <time>2026-06-20T07:00:43Z</time>
      </trkpt>
      <trkpt lat="47.24335" lon="-0.20262">
        <ele>94.8</ele>
        <time>2026-06-20T07:00:44Z</time>
      </trkpt>
      <trkpt lat="47.24333" lon="-0.20268">
        <ele>95</ele>
        <time>2026-06-20T07:00:45Z</time>
      </trkpt>
      <trkpt lat="47.24331" lon="-0.20274">
        <ele>95</ele>
        <time>2026-06-20T07:00:46Z</time>
      </trkpt>
      <trkpt lat="47.24328" lon="-0.2028">
        <ele>95</ele>
        <time>2026-06-20T07:00:47Z</time>
      </trkpt>
      <trkpt lat="47.24326" lon="-0.20287">
        <ele>95.2</ele>
        <time>2026-06-20T07:00:48Z</time>
      </trkpt>
      <trkpt lat="47.24323" lon="-0.20294">
        <ele>95.2</ele>
        <time>2026-06-20T07:00:49Z</time>
      </trkpt>
      <trkpt lat="47.2432" lon="-0.20299">
        <ele>95.2</ele>
        <time>2026-06-20T07:00:50Z</time>
      </trkpt>
      <trkpt lat="47.24317" lon="-0.20305">
        <ele>95.2</ele>
        <time>2026-06-20T07:00:51Z</time>
      </trkpt>
      <trkpt lat="47.24314" lon="-0.2031">
        <ele>95.4</ele>
        <time>2026-06-20T07:00:52Z</time>
      </trkpt>
      <trkpt lat="47.24311" lon="-0.20316">
        <ele>95.4</ele>
        <time>2026-06-20T07:00:53Z</time>
      </trkpt>
      <trkpt lat="47.24308" lon="-0.20321">
        <ele>95.4</ele>
        <time>2026-06-20T07:00:54Z</time>
      </trkpt>
      <trkpt lat="47.24305" lon="-0.20326">
        <ele>95.6</ele>
        <time>2026-06-20T07:00:55Z</time>
      </trkpt>
      <trkpt lat="47.24302" lon="-0.20329">
        <ele>95.6</ele>
        <time>2026-06-20T07:00:56Z</time>
      </trkpt>
      <trkpt lat="47.24299" lon="-0.20335">
        <ele>95.8</ele>
        <time>2026-06-20T07:00:57Z</time>
      </trkpt>
      <trkpt lat="47.24297" lon="-0.2034">
        <ele>95.8</ele>
        <time>2026-06-20T07:00:58Z</time>
      </trkpt>
      <trkpt lat="47.24294" lon="-0.20345">
        <ele>95.8</ele>
        <time>2026-06-20T07:00:59Z</time>
      </trkpt>
      <trkpt lat="47.24291" lon="-0.20349">
        <ele>96</ele>
        <time>2026-06-20T07:01:00Z</time>
      </trkpt>
      <trkpt lat="47.24288" lon="-0.20353">
        <ele>96</ele>
        <time>2026-06-20T07:01:01Z</time>
      </trkpt>
      <trkpt lat="47.24285" lon="-0.20358">
        <ele>96</ele>
        <time>2026-06-20T07:01:02Z</time>
      </trkpt>
      <trkpt lat="47.24282" lon="-0.20363">
        <ele>96</ele>
        <time>2026-06-20T07:01:03Z</time>
      </trkpt>
      <trkpt lat="47.24279" lon="-0.20368">
        <ele>96.2</ele>
        <time>2026-06-20T07:01:04Z</time>
      </trkpt>
      <trkpt lat="47.24276" lon="-0.20372">
        <ele>96.4</ele>
        <time>2026-06-20T07:01:05Z</time>
      </trkpt>
      <trkpt lat="47.24272" lon="-0.20376">
        <ele>96.4</ele>
        <time>2026-06-20T07:01:06Z</time>
      </trkpt>
      <trkpt lat="47.24269" lon="-0.20381">
        <ele>96.6</ele>
        <time>2026-06-20T07:01:07Z</time>
      </trkpt>
      <trkpt lat="47.24265" lon="-0.20386">
        <ele>96.6</ele>
        <time>2026-06-20T07:01:08Z</time>
      </trkpt>
      <trkpt lat="47.24261" lon="-0.20391">
        <ele>96.8</ele>
        <time>2026-06-20T07:01:09Z</time>
      </trkpt>
      <trkpt lat="47.24258" lon="-0.20395">
        <ele>96.8</ele>
        <time>2026-06-20T07:01:10Z</time>
      </trkpt>
      <trkpt lat="47.24255" lon="-0.204">
        <ele>96.8</ele>
        <time>2026-06-20T07:01:11Z</time>
      </trkpt>
      <trkpt lat="47.24251" lon="-0.20404">
        <ele>97</ele>
        <time>2026-06-20T07:01:12Z</time>
      </trkpt>
      <trkpt lat="47.24248" lon="-0.20408">
        <ele>97</ele>
        <time>2026-06-20T07:01:13Z</time>
      </trkpt>
      <trkpt lat="47.24244" lon="-0.20413">
        <ele>97.2</ele>
        <time>2026-06-20T07:01:14Z</time>
      </trkpt>
      <trkpt lat="47.24241" lon="-0.20417">
        <ele>97.2</ele>
        <time>2026-06-20T07:01:15Z</time>
      </trkpt>
      <trkpt lat="47.24238" lon="-0.20422">
        <ele>97.2</ele>
        <time>2026-06-20T07:01:16Z</time>
      </trkpt>
      <trkpt lat="47.24234" lon="-0.20426">
        <ele>97.4</ele>
        <time>2026-06-20T07:01:17Z</time>
      </trkpt>
      <trkpt lat="47.24231" lon="-0.20429">
        <ele>97.4</ele>
        <time>2026-06-20T07:01:18Z</time>
      </trkpt>
      <trkpt lat="47.24228" lon="-0.20432">
        <ele>97.4</ele>
        <time>2026-06-20T07:01:19Z</time>
      </trkpt>
      <trkpt lat="47.24225" lon="-0.20435">
        <ele>97.6</ele>
        <time>2026-06-20T07:01:20Z</time>
      </trkpt>
      <trkpt lat="47.24221" lon="-0.2044">
        <ele>97.6</ele>
        <time>2026-06-20T07:01:21Z</time>
      </trkpt>
      <trkpt lat="47.24218" lon="-0.20445">
        <ele>97.8</ele>
        <time>2026-06-20T07:01:22Z</time>
      </trkpt>
      <trkpt lat="47.24215" lon="-0.20449">
        <ele>97.8</ele>
        <time>2026-06-20T07:01:23Z</time>
      </trkpt>
      <trkpt lat="47.24211" lon="-0.20454">
        <ele>97.8</ele>
        <time>2026-06-20T07:01:24Z</time>
      </trkpt>
      <trkpt lat="47.24208" lon="-0.20458">
        <ele>97.8</ele>
        <time>2026-06-20T07:01:25Z</time>
      </trkpt>
      <trkpt lat="47.24204" lon="-0.20463">
        <ele>97.8</ele>
        <time>2026-06-20T07:01:26Z</time>
      </trkpt>
      <trkpt lat="47.24201" lon="-0.20468">
        <ele>97.8</ele>
        <time>2026-06-20T07:01:27Z</time>
      </trkpt>
      <trkpt lat="47.24197" lon="-0.20473">
        <ele>97.8</ele>
        <time>2026-06-20T07:01:28Z</time>
      </trkpt>
      <trkpt lat="47.24193" lon="-0.20478">
        <ele>97.8</ele>
        <time>2026-06-20T07:01:29Z</time>
      </trkpt>
      <trkpt lat="47.2419" lon="-0.20483">
        <ele>97.8</ele>
        <time>2026-06-20T07:01:30Z</time>
      </trkpt>
      <trkpt lat="47.24186" lon="-0.20487">
        <ele>97.8</ele>
        <time>2026-06-20T07:01:31Z</time>
      </trkpt>
      <trkpt lat="47.24182" lon="-0.20492">
        <ele>97.8</ele>
        <time>2026-06-20T07:01:32Z</time>
      </trkpt>
      <trkpt lat="47.24179" lon="-0.20497">
        <ele>97.8</ele>
        <time>2026-06-20T07:01:33Z</time>
      </trkpt>
      <trkpt lat="47.24175" lon="-0.20502">
        <ele>97.8</ele>
        <time>2026-06-20T07:01:34Z</time>
      </trkpt>
      <trkpt lat="47.24171" lon="-0.20507">
        <ele>97.8</ele>
        <time>2026-06-20T07:01:35Z</time>
      </trkpt>
      <trkpt lat="47.24168" lon="-0.20512">
        <ele>97.8</ele>
        <time>2026-06-20T07:01:36Z</time>
      </trkpt>
      <trkpt lat="47.24164" lon="-0.20517">
        <ele>97.8</ele>
        <time>2026-06-20T07:01:37Z</time>
      </trkpt>
      <trkpt lat="47.2416" lon="-0.20523">
        <ele>97.8</ele>
        <time>2026-06-20T07:01:38Z</time>
      </trkpt>
      <trkpt lat="47.24156" lon="-0.20528">
        <ele>97.6</ele>
        <time>2026-06-20T07:01:39Z</time>
      </trkpt>
      <trkpt lat="47.24152" lon="-0.20533">
        <ele>97.6</ele>
        <time>2026-06-20T07:01:40Z</time>
      </trkpt>
      <trkpt lat="47.24148" lon="-0.20538">
        <ele>97.6</ele>
        <time>2026-06-20T07:01:41Z</time>
      </trkpt>
      <trkpt lat="47.24143" lon="-0.20543">
        <ele>97.4</ele>
        <time>2026-06-20T07:01:42Z</time>
      </trkpt>
      <trkpt lat="47.24138" lon="-0.20546">
        <ele>97.4</ele>
        <time>2026-06-20T07:01:43Z</time>
      </trkpt>
      <trkpt lat="47.24134" lon="-0.2055">
        <ele>97.4</ele>
        <time>2026-06-20T07:01:44Z</time>
      </trkpt>
      <trkpt lat="47.24129" lon="-0.20553">
        <ele>97.4</ele>
        <time>2026-06-20T07:01:45Z</time>
      </trkpt>
      <trkpt lat="47.24124" lon="-0.20556">
        <ele>97.4</ele>
        <time>2026-06-20T07:01:46Z</time>
      </trkpt>
      <trkpt lat="47.24119" lon="-0.20559">
        <ele>97.4</ele>
        <time>2026-06-20T07:01:47Z</time>
      </trkpt>
      <trkpt lat="47.24114" lon="-0.20562">
        <ele>97.4</ele>
        <time>2026-06-20T07:01:48Z</time>
      </trkpt>
      <trkpt lat="47.24109" lon="-0.20565">
        <ele>97.2</ele>
        <time>2026-06-20T07:01:49Z</time>
      </trkpt>
      <trkpt lat="47.24104" lon="-0.20567">
        <ele>97.2</ele>
        <time>2026-06-20T07:01:50Z</time>
      </trkpt>
      <trkpt lat="47.24098" lon="-0.2057">
        <ele>97.2</ele>
        <time>2026-06-20T07:01:51Z</time>
      </trkpt>
      <trkpt lat="47.24093" lon="-0.20572">
        <ele>97</ele>
        <time>2026-06-20T07:01:52Z</time>
      </trkpt>
      <trkpt lat="47.24088" lon="-0.20575">
        <ele>97</ele>
        <time>2026-06-20T07:01:53Z</time>
      </trkpt>
      <trkpt lat="47.24083" lon="-0.20578">
        <ele>97</ele>
        <time>2026-06-20T07:01:54Z</time>
      </trkpt>
      <trkpt lat="47.24078" lon="-0.20581">
        <ele>97</ele>
        <time>2026-06-20T07:01:55Z</time>
      </trkpt>
      <trkpt lat="47.24073" lon="-0.20583">
        <ele>97</ele>
        <time>2026-06-20T07:01:56Z</time>
      </trkpt>
      <trkpt lat="47.24068" lon="-0.20587">
        <ele>96.8</ele>
        <time>2026-06-20T07:01:57Z</time>
      </trkpt>
      <trkpt lat="47.24062" lon="-0.2059">
        <ele>96.8</ele>
        <time>2026-06-20T07:01:58Z</time>
      </trkpt>
      <trkpt lat="47.24057" lon="-0.20593">
        <ele>96.8</ele>
        <time>2026-06-20T07:01:59Z</time>
      </trkpt>
      <trkpt lat="47.24052" lon="-0.20597">
        <ele>96.8</ele>
        <time>2026-06-20T07:02:00Z</time>
      </trkpt>
      <trkpt lat="47.24046" lon="-0.206">
        <ele>96.8</ele>
        <time>2026-06-20T07:02:01Z</time>
      </trkpt>
      <trkpt lat="47.24041" lon="-0.20603">
        <ele>96.6</ele>
        <time>2026-06-20T07:02:02Z</time>
      </trkpt>
      <trkpt lat="47.24035" lon="-0.20607">
        <ele>96.6</ele>
        <time>2026-06-20T07:02:03Z</time>
      </trkpt>
      <trkpt lat="47.2403" lon="-0.2061">
        <ele>96.4</ele>
        <time>2026-06-20T07:02:04Z</time>
      </trkpt>
      <trkpt lat="47.24024" lon="-0.20614">
        <ele>96.4</ele>
        <time>2026-06-20T07:02:05Z</time>
      </trkpt>
      <trkpt lat="47.24018" lon="-0.20618">
        <ele>96.2</ele>
        <time>2026-06-20T07:02:06Z</time>
      </trkpt>
      <trkpt lat="47.24013" lon="-0.20621">
        <ele>96.2</ele>
        <time>2026-06-20T07:02:07Z</time>
      </trkpt>
      <trkpt lat="47.24007" lon="-0.20625">
        <ele>96</ele>
        <time>2026-06-20T07:02:08Z</time>
      </trkpt>
      <trkpt lat="47.24001" lon="-0.20628">
        <ele>96</ele>
        <time>2026-06-20T07:02:09Z</time>
      </trkpt>
      <trkpt lat="47.23995" lon="-0.20632">
        <ele>95.8</ele>
        <time>2026-06-20T07:02:10Z</time>
      </trkpt>
      <trkpt lat="47.2399" lon="-0.20635">
        <ele>95.4</ele>
        <time>2026-06-20T07:02:11Z</time>
      </trkpt>
      <trkpt lat="47.23984" lon="-0.20639">
        <ele>95.2</ele>
        <time>2026-06-20T07:02:12Z</time>
      </trkpt>
      <trkpt lat="47.23979" lon="-0.20642">
        <ele>95</ele>
        <time>2026-06-20T07:02:13Z</time>
      </trkpt>
      <trkpt lat="47.23973" lon="-0.20646">
        <ele>94.8</ele>
        <time>2026-06-20T07:02:14Z</time>
      </trkpt>
      <trkpt lat="47.23967" lon="-0.20649">
        <ele>94.4</ele>
        <time>2026-06-20T07:02:15Z</time>
      </trkpt>
      <trkpt lat="47.2396" lon="-0.20651">
        <ele>94.2</ele>
        <time>2026-06-20T07:02:16Z</time>
      </trkpt>
      <trkpt lat="47.23954" lon="-0.20651">
        <ele>93.8</ele>
        <time>2026-06-20T07:02:17Z</time>
      </trkpt>
      <trkpt lat="47.23948" lon="-0.20647">
        <ele>93.4</ele>
        <time>2026-06-20T07:02:18Z</time>
      </trkpt>
      <trkpt lat="47.23942" lon="-0.20642">
        <ele>93.2</ele>
        <time>2026-06-20T07:02:19Z</time>
      </trkpt>
      <trkpt lat="47.23938" lon="-0.20636">
        <ele>92.8</ele>
        <time>2026-06-20T07:02:20Z</time>
      </trkpt>
      <trkpt lat="47.23932" lon="-0.20632">
        <ele>92.6</ele>
        <time>2026-06-20T07:02:21Z</time>
      </trkpt>
      <trkpt lat="47.23927" lon="-0.20627">
        <ele>92.4</ele>
        <time>2026-06-20T07:02:22Z</time>
      </trkpt>
      <trkpt lat="47.23922" lon="-0.20622">
        <ele>92.2</ele>
        <time>2026-06-20T07:02:23Z</time>
      </trkpt>
      <trkpt lat="47.23917" lon="-0.20618">
        <ele>92.2</ele>
        <time>2026-06-20T07:02:24Z</time>
      </trkpt>
      <trkpt lat="47.23912" lon="-0.20614">
        <ele>92.2</ele>
        <time>2026-06-20T07:02:25Z</time>
      </trkpt>
      <trkpt lat="47.23907" lon="-0.2061">
        <ele>92</ele>
        <time>2026-06-20T07:02:26Z</time>
      </trkpt>
      <trkpt lat="47.23903" lon="-0.20606">
        <ele>92</ele>
        <time>2026-06-20T07:02:27Z</time>
      </trkpt>
      <trkpt lat="47.23898" lon="-0.20605">
        <ele>91.8</ele>
        <time>2026-06-20T07:02:28Z</time>
      </trkpt>
      <trkpt lat="47.23894" lon="-0.20606">
        <ele>91.8</ele>
        <time>2026-06-20T07:02:29Z</time>
      </trkpt>
      <trkpt lat="47.2389" lon="-0.20609">
        <ele>91.8</ele>
        <time>2026-06-20T07:02:30Z</time>
      </trkpt>
      <trkpt lat="47.23887" lon="-0.20614">
        <ele>91.8</ele>
        <time>2026-06-20T07:02:31Z</time>
      </trkpt>
      <trkpt lat="47.23885" lon="-0.2062">
        <ele>91.8</ele>
        <time>2026-06-20T07:02:32Z</time>
      </trkpt>
      <trkpt lat="47.23883" lon="-0.20626">
        <ele>91.8</ele>
        <time>2026-06-20T07:02:33Z</time>
      </trkpt>
      <trkpt lat="47.23881" lon="-0.20632">
        <ele>91.8</ele>
        <time>2026-06-20T07:02:34Z</time>
      </trkpt>
      <trkpt lat="47.23879" lon="-0.20639">
        <ele>91.6</ele>
        <time>2026-06-20T07:02:35Z</time>
      </trkpt>
      <trkpt lat="47.23877" lon="-0.20645">
        <ele>91.6</ele>
        <time>2026-06-20T07:02:36Z</time>
      </trkpt>
      <trkpt lat="47.23874" lon="-0.20651">
        <ele>91.6</ele>
        <time>2026-06-20T07:02:37Z</time>
      </trkpt>
      <trkpt lat="47.23872" lon="-0.20658">
        <ele>91.6</ele>
        <time>2026-06-20T07:02:38Z</time>
      </trkpt>
      <trkpt lat="47.23869" lon="-0.20665">
        <ele>91.6</ele>
        <time>2026-06-20T07:02:39Z</time>
      </trkpt>
      <trkpt lat="47.23867" lon="-0.20671">
        <ele>91.4</ele>
        <time>2026-06-20T07:02:40Z</time>
      </trkpt>
      <trkpt lat="47.23864" lon="-0.20677">
        <ele>91.4</ele>
        <time>2026-06-20T07:02:41Z</time>
      </trkpt>
      <trkpt lat="47.23862" lon="-0.20683">
        <ele>91.6</ele>
        <time>2026-06-20T07:02:42Z</time>
      </trkpt>
      <trkpt lat="47.23859" lon="-0.20689">
        <ele>91.6</ele>
        <time>2026-06-20T07:02:43Z</time>
      </trkpt>
      <trkpt lat="47.23857" lon="-0.20695">
        <ele>91.8</ele>
        <time>2026-06-20T07:02:44Z</time>
      </trkpt>
      <trkpt lat="47.23855" lon="-0.207">
        <ele>92</ele>
        <time>2026-06-20T07:02:45Z</time>
      </trkpt>
      <trkpt lat="47.23853" lon="-0.20705">
        <ele>92.2</ele>
        <time>2026-06-20T07:02:46Z</time>
      </trkpt>
      <trkpt lat="47.2385" lon="-0.20711">
        <ele>92.4</ele>
        <time>2026-06-20T07:02:47Z</time>
      </trkpt>
      <trkpt lat="47.23848" lon="-0.20716">
        <ele>92.6</ele>
        <time>2026-06-20T07:02:48Z</time>
      </trkpt>
      <trkpt lat="47.23846" lon="-0.20721">
        <ele>92.8</ele>
        <time>2026-06-20T07:02:49Z</time>
      </trkpt>
      <trkpt lat="47.23843" lon="-0.20725">
        <ele>93</ele>
        <time>2026-06-20T07:02:50Z</time>
      </trkpt>
      <trkpt lat="47.23841" lon="-0.2073">
        <ele>93.2</ele>
        <time>2026-06-20T07:02:51Z</time>
      </trkpt>
      <trkpt lat="47.23838" lon="-0.20734">
        <ele>93.4</ele>
        <time>2026-06-20T07:02:52Z</time>
      </trkpt>
      <trkpt lat="47.23836" lon="-0.20739">
        <ele>93.6</ele>
        <time>2026-06-20T07:02:53Z</time>
      </trkpt>
      <trkpt lat="47.23833" lon="-0.20742">
        <ele>94</ele>
        <time>2026-06-20T07:02:54Z</time>
      </trkpt>
      <trkpt lat="47.2383" lon="-0.20746">
        <ele>94.2</ele>
        <time>2026-06-20T07:02:55Z</time>
      </trkpt>
      <trkpt lat="47.23827" lon="-0.2075">
        <ele>94.4</ele>
        <time>2026-06-20T07:02:56Z</time>
      </trkpt>
      <trkpt lat="47.23824" lon="-0.20754">
        <ele>94.4</ele>
        <time>2026-06-20T07:02:57Z</time>
      </trkpt>
      <trkpt lat="47.23821" lon="-0.20757">
        <ele>94.6</ele>
        <time>2026-06-20T07:02:58Z</time>
      </trkpt>
      <trkpt lat="47.23817" lon="-0.20761">
        <ele>94.6</ele>
        <time>2026-06-20T07:02:59Z</time>
      </trkpt>
      <trkpt lat="47.23813" lon="-0.20765">
        <ele>94.6</ele>
        <time>2026-06-20T07:03:00Z</time>
      </trkpt>
      <trkpt lat="47.2381" lon="-0.20769">
        <ele>94.6</ele>
        <time>2026-06-20T07:03:01Z</time>
      </trkpt>
      <trkpt lat="47.23806" lon="-0.20773">
        <ele>94.6</ele>
        <time>2026-06-20T07:03:02Z</time>
      </trkpt>
      <trkpt lat="47.23802" lon="-0.20777">
        <ele>94.8</ele>
        <time>2026-06-20T07:03:03Z</time>
      </trkpt>
      <trkpt lat="47.23798" lon="-0.20781">
        <ele>94.8</ele>
        <time>2026-06-20T07:03:04Z</time>
      </trkpt>
      <trkpt lat="47.23795" lon="-0.20785">
        <ele>94.8</ele>
        <time>2026-06-20T07:03:05Z</time>
      </trkpt>
      <trkpt lat="47.2379" lon="-0.20789">
        <ele>94.8</ele>
        <time>2026-06-20T07:03:06Z</time>
      </trkpt>
      <trkpt lat="47.23786" lon="-0.20793">
        <ele>94.8</ele>
        <time>2026-06-20T07:03:07Z</time>
      </trkpt>
      <trkpt lat="47.23782" lon="-0.20797">
        <ele>94.6</ele>
        <time>2026-06-20T07:03:08Z</time>
      </trkpt>
      <trkpt lat="47.23778" lon="-0.20801">
        <ele>94.6</ele>
        <time>2026-06-20T07:03:09Z</time>
      </trkpt>
      <trkpt lat="47.23774" lon="-0.20805">
        <ele>94.4</ele>
        <time>2026-06-20T07:03:10Z</time>
      </trkpt>
      <trkpt lat="47.2377" lon="-0.20809">
        <ele>94.4</ele>
        <time>2026-06-20T07:03:11Z</time>
      </trkpt>
      <trkpt lat="47.23766" lon="-0.20813">
        <ele>94.4</ele>
        <time>2026-06-20T07:03:12Z</time>
      </trkpt>
      <trkpt lat="47.23762" lon="-0.20817">
        <ele>94.2</ele>
        <time>2026-06-20T07:03:13Z</time>
      </trkpt>
      <trkpt lat="47.23757" lon="-0.2082">
        <ele>94.2</ele>
        <time>2026-06-20T07:03:14Z</time>
      </trkpt>
      <trkpt lat="47.23753" lon="-0.20824">
        <ele>94.2</ele>
        <time>2026-06-20T07:03:15Z</time>
      </trkpt>
      <trkpt lat="47.23749" lon="-0.20828">
        <ele>94.2</ele>
        <time>2026-06-20T07:03:16Z</time>
      </trkpt>
      <trkpt lat="47.23745" lon="-0.20831">
        <ele>94</ele>
        <time>2026-06-20T07:03:17Z</time>
      </trkpt>
      <trkpt lat="47.23741" lon="-0.20835">
        <ele>94</ele>
        <time>2026-06-20T07:03:18Z</time>
      </trkpt>
      <trkpt lat="47.23737" lon="-0.20839">
        <ele>94</ele>
        <time>2026-06-20T07:03:19Z</time>
      </trkpt>
      <trkpt lat="47.23733" lon="-0.20843">
        <ele>93.8</ele>
        <time>2026-06-20T07:03:20Z</time>
      </trkpt>
      <trkpt lat="47.23729" lon="-0.20847">
        <ele>93.6</ele>
        <time>2026-06-20T07:03:21Z</time>
      </trkpt>
      <trkpt lat="47.23725" lon="-0.20852">
        <ele>93.4</ele>
        <time>2026-06-20T07:03:22Z</time>
      </trkpt>
      <trkpt lat="47.23721" lon="-0.20856">
        <ele>93.4</ele>
        <time>2026-06-20T07:03:23Z</time>
      </trkpt>
      <trkpt lat="47.23716" lon="-0.2086">
        <ele>93.2</ele>
        <time>2026-06-20T07:03:24Z</time>
      </trkpt>
      <trkpt lat="47.23712" lon="-0.20864">
        <ele>93</ele>
        <time>2026-06-20T07:03:25Z</time>
      </trkpt>
      <trkpt lat="47.23707" lon="-0.20869">
        <ele>92.8</ele>
        <time>2026-06-20T07:03:26Z</time>
      </trkpt>
      <trkpt lat="47.23703" lon="-0.20873">
        <ele>92.8</ele>
        <time>2026-06-20T07:03:27Z</time>
      </trkpt>
      <trkpt lat="47.23698" lon="-0.20878">
        <ele>92.6</ele>
        <time>2026-06-20T07:03:28Z</time>
      </trkpt>
      <trkpt lat="47.23693" lon="-0.20882">
        <ele>92.4</ele>
        <time>2026-06-20T07:03:29Z</time>
      </trkpt>
      <trkpt lat="47.23689" lon="-0.20886">
        <ele>92.2</ele>
        <time>2026-06-20T07:03:30Z</time>
      </trkpt>
      <trkpt lat="47.23684" lon="-0.20891">
        <ele>92.2</ele>
        <time>2026-06-20T07:03:31Z</time>
      </trkpt>
      <trkpt lat="47.2368" lon="-0.20897">
        <ele>92</ele>
        <time>2026-06-20T07:03:32Z</time>
      </trkpt>
      <trkpt lat="47.23675" lon="-0.20902">
        <ele>92</ele>
        <time>2026-06-20T07:03:33Z</time>
      </trkpt>
      <trkpt lat="47.2367" lon="-0.20907">
        <ele>91.8</ele>
        <time>2026-06-20T07:03:34Z</time>
      </trkpt>
      <trkpt lat="47.23665" lon="-0.20911">
        <ele>91.8</ele>
        <time>2026-06-20T07:03:35Z</time>
      </trkpt>
      <trkpt lat="47.2366" lon="-0.20916">
        <ele>91.6</ele>
        <time>2026-06-20T07:03:36Z</time>
      </trkpt>
      <trkpt lat="47.23655" lon="-0.2092">
        <ele>91.4</ele>
        <time>2026-06-20T07:03:37Z</time>
      </trkpt>
      <trkpt lat="47.2365" lon="-0.20923">
        <ele>91.2</ele>
        <time>2026-06-20T07:03:38Z</time>
      </trkpt>
      <trkpt lat="47.23645" lon="-0.20925">
        <ele>91</ele>
        <time>2026-06-20T07:03:39Z</time>
      </trkpt>
      <trkpt lat="47.2364" lon="-0.20927">
        <ele>90.8</ele>
        <time>2026-06-20T07:03:40Z</time>
      </trkpt>
      <trkpt lat="47.23634" lon="-0.20928">
        <ele>90.8</ele>
        <time>2026-06-20T07:03:41Z</time>
      </trkpt>
      <trkpt lat="47.23629" lon="-0.20929">
        <ele>90.6</ele>
        <time>2026-06-20T07:03:42Z</time>
      </trkpt>
      <trkpt lat="47.23624" lon="-0.20932">
        <ele>90.4</ele>
        <time>2026-06-20T07:03:43Z</time>
      </trkpt>
      <trkpt lat="47.2362" lon="-0.20937">
        <ele>90.4</ele>
        <time>2026-06-20T07:03:44Z</time>
      </trkpt>
      <trkpt lat="47.23618" lon="-0.20944">
        <ele>90.2</ele>
        <time>2026-06-20T07:03:45Z</time>
      </trkpt>
      <trkpt lat="47.23618" lon="-0.20952">
        <ele>90</ele>
        <time>2026-06-20T07:03:46Z</time>
      </trkpt>
      <trkpt lat="47.23619" lon="-0.2096">
        <ele>89.6</ele>
        <time>2026-06-20T07:03:47Z</time>
      </trkpt>
      <trkpt lat="47.23622" lon="-0.20968">
        <ele>89.4</ele>
        <time>2026-06-20T07:03:48Z</time>
      </trkpt>
      <trkpt lat="47.23625" lon="-0.20976">
        <ele>89</ele>
        <time>2026-06-20T07:03:49Z</time>
      </trkpt>
      <trkpt lat="47.23629" lon="-0.20984">
        <ele>88.8</ele>
        <time>2026-06-20T07:03:50Z</time>
      </trkpt>
      <trkpt lat="47.23633" lon="-0.20991">
        <ele>88.4</ele>
        <time>2026-06-20T07:03:51Z</time>
      </trkpt>
      <trkpt lat="47.23636" lon="-0.20999">
        <ele>88.2</ele>
        <time>2026-06-20T07:03:52Z</time>
      </trkpt>
      <trkpt lat="47.2364" lon="-0.21007">
        <ele>88.2</ele>
        <time>2026-06-20T07:03:53Z</time>
      </trkpt>
      <trkpt lat="47.23642" lon="-0.21015">
        <ele>88.2</ele>
        <time>2026-06-20T07:03:54Z</time>
      </trkpt>
      <trkpt lat="47.23645" lon="-0.21023">
        <ele>88.4</ele>
        <time>2026-06-20T07:03:55Z</time>
      </trkpt>
      <trkpt lat="47.23648" lon="-0.21031">
        <ele>88.4</ele>
        <time>2026-06-20T07:03:56Z</time>
      </trkpt>
      <trkpt lat="47.2365" lon="-0.21039">
        <ele>88.6</ele>
        <time>2026-06-20T07:03:57Z</time>
      </trkpt>
      <trkpt lat="47.23652" lon="-0.21047">
        <ele>89</ele>
        <time>2026-06-20T07:03:58Z</time>
      </trkpt>
      <trkpt lat="47.23655" lon="-0.21055">
        <ele>89</ele>
        <time>2026-06-20T07:03:59Z</time>
      </trkpt>
      <trkpt lat="47.23657" lon="-0.21063">
        <ele>89.2</ele>
        <time>2026-06-20T07:04:00Z</time>
      </trkpt>
      <trkpt lat="47.2366" lon="-0.21071">
        <ele>89.2</ele>
        <time>2026-06-20T07:04:01Z</time>
      </trkpt>
      <trkpt lat="47.23662" lon="-0.21079">
        <ele>89.2</ele>
        <time>2026-06-20T07:04:02Z</time>
      </trkpt>
      <trkpt lat="47.23665" lon="-0.21088">
        <ele>89</ele>
        <time>2026-06-20T07:04:03Z</time>
      </trkpt>
      <trkpt lat="47.23667" lon="-0.21096">
        <ele>88.8</ele>
        <time>2026-06-20T07:04:04Z</time>
      </trkpt>
      <trkpt lat="47.23671" lon="-0.21104">
        <ele>88.8</ele>
        <time>2026-06-20T07:04:05Z</time>
      </trkpt>
      <trkpt lat="47.23673" lon="-0.21112">
        <ele>88.6</ele>
        <time>2026-06-20T07:04:06Z</time>
      </trkpt>
      <trkpt lat="47.23676" lon="-0.2112">
        <ele>88.4</ele>
        <time>2026-06-20T07:04:07Z</time>
      </trkpt>
      <trkpt lat="47.23679" lon="-0.21129">
        <ele>88.2</ele>
        <time>2026-06-20T07:04:08Z</time>
      </trkpt>
      <trkpt lat="47.23682" lon="-0.21138">
        <ele>87.8</ele>
        <time>2026-06-20T07:04:09Z</time>
      </trkpt>
      <trkpt lat="47.23686" lon="-0.21146">
        <ele>87.4</ele>
        <time>2026-06-20T07:04:10Z</time>
      </trkpt>
      <trkpt lat="47.23689" lon="-0.21156">
        <ele>87</ele>
        <time>2026-06-20T07:04:11Z</time>
      </trkpt>
      <trkpt lat="47.23692" lon="-0.21165">
        <ele>86.8</ele>
        <time>2026-06-20T07:04:12Z</time>
      </trkpt>
      <trkpt lat="47.23695" lon="-0.21174">
        <ele>86.4</ele>
        <time>2026-06-20T07:04:13Z</time>
      </trkpt>
      <trkpt lat="47.23698" lon="-0.21183">
        <ele>86.2</ele>
        <time>2026-06-20T07:04:14Z</time>
      </trkpt>
      <trkpt lat="47.23701" lon="-0.21192">
        <ele>85.8</ele>
        <time>2026-06-20T07:04:15Z</time>
      </trkpt>
      <trkpt lat="47.23704" lon="-0.212">
        <ele>85.6</ele>
        <time>2026-06-20T07:04:16Z</time>
      </trkpt>
      <trkpt lat="47.23707" lon="-0.21209">
        <ele>85.6</ele>
        <time>2026-06-20T07:04:17Z</time>
      </trkpt>
      <trkpt lat="47.2371" lon="-0.21217">
        <ele>85.4</ele>
        <time>2026-06-20T07:04:18Z</time>
      </trkpt>
      <trkpt lat="47.23712" lon="-0.21226">
        <ele>85.4</ele>
        <time>2026-06-20T07:04:19Z</time>
      </trkpt>
      <trkpt lat="47.23715" lon="-0.21233">
        <ele>85.4</ele>
        <time>2026-06-20T07:04:20Z</time>
      </trkpt>
      <trkpt lat="47.23718" lon="-0.21241">
        <ele>85.6</ele>
        <time>2026-06-20T07:04:21Z</time>
      </trkpt>
      <trkpt lat="47.2372" lon="-0.21248">
        <ele>85.6</ele>
        <time>2026-06-20T07:04:22Z</time>
      </trkpt>
      <trkpt lat="47.23722" lon="-0.21255">
        <ele>85.6</ele>
        <time>2026-06-20T07:04:23Z</time>
      </trkpt>
      <trkpt lat="47.23724" lon="-0.21261">
        <ele>85.8</ele>
        <time>2026-06-20T07:04:24Z</time>
      </trkpt>
      <trkpt lat="47.23725" lon="-0.21267">
        <ele>85.8</ele>
        <time>2026-06-20T07:04:25Z</time>
      </trkpt>
      <trkpt lat="47.23726" lon="-0.21273">
        <ele>85.8</ele>
        <time>2026-06-20T07:04:26Z</time>
      </trkpt>
      <trkpt lat="47.23725" lon="-0.2128">
        <ele>85.8</ele>
        <time>2026-06-20T07:04:27Z</time>
      </trkpt>
      <trkpt lat="47.23722" lon="-0.21287">
        <ele>85.8</ele>
        <time>2026-06-20T07:04:28Z</time>
      </trkpt>
      <trkpt lat="47.2372" lon="-0.21293">
        <ele>85.6</ele>
        <time>2026-06-20T07:04:29Z</time>
      </trkpt>
      <trkpt lat="47.23717" lon="-0.21299">
        <ele>85.4</ele>
        <time>2026-06-20T07:04:30Z</time>
      </trkpt>
      <trkpt lat="47.23713" lon="-0.21305">
        <ele>85.2</ele>
        <time>2026-06-20T07:04:31Z</time>
      </trkpt>
      <trkpt lat="47.2371" lon="-0.21312">
        <ele>84.8</ele>
        <time>2026-06-20T07:04:32Z</time>
      </trkpt>
      <trkpt lat="47.23706" lon="-0.21318">
        <ele>84.6</ele>
        <time>2026-06-20T07:04:33Z</time>
      </trkpt>
      <trkpt lat="47.23703" lon="-0.21325">
        <ele>84.4</ele>
        <time>2026-06-20T07:04:34Z</time>
      </trkpt>
      <trkpt lat="47.237" lon="-0.21332">
        <ele>84.4</ele>
        <time>2026-06-20T07:04:35Z</time>
      </trkpt>
      <trkpt lat="47.23697" lon="-0.21339">
        <ele>84.2</ele>
        <time>2026-06-20T07:04:36Z</time>
      </trkpt>
      <trkpt lat="47.23693" lon="-0.21345">
        <ele>84</ele>
        <time>2026-06-20T07:04:37Z</time>
      </trkpt>
      <trkpt lat="47.23691" lon="-0.2135">
        <ele>84</ele>
        <time>2026-06-20T07:04:38Z</time>
      </trkpt>
      <trkpt lat="47.23691" lon="-0.21355">
        <ele>84</ele>
        <time>2026-06-20T07:04:39Z</time>
      </trkpt>
      <trkpt lat="47.23694" lon="-0.21357">
        <ele>83.8</ele>
        <time>2026-06-20T07:04:40Z</time>
      </trkpt>
      <trkpt lat="47.23696" lon="-0.21357">
        <ele>84</ele>
        <time>2026-06-20T07:04:41Z</time>
      </trkpt>
      <trkpt lat="47.23699" lon="-0.21356">
        <ele>84</ele>
        <time>2026-06-20T07:04:42Z</time>
      </trkpt>
      <trkpt lat="47.23702" lon="-0.21355">
        <ele>84</ele>
        <time>2026-06-20T07:04:43Z</time>
      </trkpt>
      <trkpt lat="47.23706" lon="-0.21354">
        <ele>84.2</ele>
        <time>2026-06-20T07:04:44Z</time>
      </trkpt>
      <trkpt lat="47.23709" lon="-0.21353">
        <ele>84.2</ele>
        <time>2026-06-20T07:04:45Z</time>
      </trkpt>
      <trkpt lat="47.23713" lon="-0.21352">
        <ele>84.2</ele>
        <time>2026-06-20T07:04:46Z</time>
      </trkpt>
      <trkpt lat="47.23717" lon="-0.2135">
        <ele>84.2</ele>
        <time>2026-06-20T07:04:47Z</time>
      </trkpt>
      <trkpt lat="47.23721" lon="-0.21348">
        <ele>84.4</ele>
        <time>2026-06-20T07:04:48Z</time>
      </trkpt>
      <trkpt lat="47.23725" lon="-0.21347">
        <ele>84.4</ele>
        <time>2026-06-20T07:04:49Z</time>
      </trkpt>
      <trkpt lat="47.23729" lon="-0.21345">
        <ele>84.4</ele>
        <time>2026-06-20T07:04:50Z</time>
      </trkpt>
      <trkpt lat="47.23733" lon="-0.21344">
        <ele>84.4</ele>
        <time>2026-06-20T07:04:51Z</time>
      </trkpt>
      <trkpt lat="47.23737" lon="-0.21342">
        <ele>84.6</ele>
        <time>2026-06-20T07:04:52Z</time>
      </trkpt>
      <trkpt lat="47.2374" lon="-0.2134">
        <ele>84.8</ele>
        <time>2026-06-20T07:04:53Z</time>
      </trkpt>
      <trkpt lat="47.23744" lon="-0.21337">
        <ele>84.8</ele>
        <time>2026-06-20T07:04:54Z</time>
      </trkpt>
      <trkpt lat="47.23748" lon="-0.21335">
        <ele>85</ele>
        <time>2026-06-20T07:04:55Z</time>
      </trkpt>
      <trkpt lat="47.23752" lon="-0.21333">
        <ele>85</ele>
        <time>2026-06-20T07:04:56Z</time>
      </trkpt>
      <trkpt lat="47.23756" lon="-0.21332">
        <ele>85.2</ele>
        <time>2026-06-20T07:04:57Z</time>
      </trkpt>
      <trkpt lat="47.23759" lon="-0.21331">
        <ele>85.2</ele>
        <time>2026-06-20T07:04:58Z</time>
      </trkpt>
      <trkpt lat="47.23763" lon="-0.21329">
        <ele>85.4</ele>
        <time>2026-06-20T07:04:59Z</time>
      </trkpt>
      <trkpt lat="47.23767" lon="-0.21327">
        <ele>85.6</ele>
        <time>2026-06-20T07:05:00Z</time>
      </trkpt>
      <trkpt lat="47.23771" lon="-0.21326">
        <ele>85.8</ele>
        <time>2026-06-20T07:05:01Z</time>
      </trkpt>
      <trkpt lat="47.23774" lon="-0.21325">
        <ele>86</ele>
        <time>2026-06-20T07:05:02Z</time>
      </trkpt>
      <trkpt lat="47.23778" lon="-0.21324">
        <ele>86.2</ele>
        <time>2026-06-20T07:05:03Z</time>
      </trkpt>
      <trkpt lat="47.23782" lon="-0.21323">
        <ele>86.4</ele>
        <time>2026-06-20T07:05:04Z</time>
      </trkpt>
      <trkpt lat="47.23785" lon="-0.21322">
        <ele>86.6</ele>
        <time>2026-06-20T07:05:05Z</time>
      </trkpt>
      <trkpt lat="47.23788" lon="-0.21321">
        <ele>86.8</ele>
        <time>2026-06-20T07:05:06Z</time>
      </trkpt>
      <trkpt lat="47.23792" lon="-0.2132">
        <ele>87</ele>
        <time>2026-06-20T07:05:07Z</time>
      </trkpt>
      <trkpt lat="47.23794" lon="-0.21319">
        <ele>87.2</ele>
        <time>2026-06-20T07:05:08Z</time>
      </trkpt>
      <trkpt lat="47.23797" lon="-0.21318">
        <ele>87.4</ele>
        <time>2026-06-20T07:05:09Z</time>
      </trkpt>
      <trkpt lat="47.238" lon="-0.21318">
        <ele>87.6</ele>
        <time>2026-06-20T07:05:10Z</time>
      </trkpt>
      <trkpt lat="47.23803" lon="-0.21317">
        <ele>87.8</ele>
        <time>2026-06-20T07:05:11Z</time>
      </trkpt>
      <trkpt lat="47.23806" lon="-0.21316">
        <ele>88</ele>
        <time>2026-06-20T07:05:12Z</time>
      </trkpt>
      <trkpt lat="47.23809" lon="-0.21316">
        <ele>88.2</ele>
        <time>2026-06-20T07:05:13Z</time>
      </trkpt>
      <trkpt lat="47.23812" lon="-0.21315">
        <ele>88.4</ele>
        <time>2026-06-20T07:05:14Z</time>
      </trkpt>
      <trkpt lat="47.23815" lon="-0.21314">
        <ele>88.6</ele>
        <time>2026-06-20T07:05:15Z</time>
      </trkpt>
      <trkpt lat="47.23818" lon="-0.21313">
        <ele>88.8</ele>
        <time>2026-06-20T07:05:16Z</time>
      </trkpt>
      <trkpt lat="47.23821" lon="-0.21313">
        <ele>88.8</ele>
        <time>2026-06-20T07:05:17Z</time>
      </trkpt>
      <trkpt lat="47.23824" lon="-0.21312">
        <ele>89</ele>
        <time>2026-06-20T07:05:18Z</time>
      </trkpt>
      <trkpt lat="47.23828" lon="-0.21312">
        <ele>89</ele>
        <time>2026-06-20T07:05:19Z</time>
      </trkpt>
      <trkpt lat="47.23832" lon="-0.21311">
        <ele>89</ele>
        <time>2026-06-20T07:05:20Z</time>
      </trkpt>
      <trkpt lat="47.23835" lon="-0.21311">
        <ele>89</ele>
        <time>2026-06-20T07:05:21Z</time>
      </trkpt>
      <trkpt lat="47.23839" lon="-0.2131">
        <ele>89</ele>
        <time>2026-06-20T07:05:22Z</time>
      </trkpt>
      <trkpt lat="47.23843" lon="-0.21309">
        <ele>89.2</ele>
        <time>2026-06-20T07:05:23Z</time>
      </trkpt>
      <trkpt lat="47.23847" lon="-0.21308">
        <ele>89.2</ele>
        <time>2026-06-20T07:05:24Z</time>
      </trkpt>
      <trkpt lat="47.23851" lon="-0.21307">
        <ele>89.2</ele>
        <time>2026-06-20T07:05:25Z</time>
      </trkpt>
      <trkpt lat="47.23855" lon="-0.21307">
        <ele>89.2</ele>
        <time>2026-06-20T07:05:26Z</time>
      </trkpt>
      <trkpt lat="47.23859" lon="-0.21306">
        <ele>89.4</ele>
        <time>2026-06-20T07:05:27Z</time>
      </trkpt>
      <trkpt lat="47.23863" lon="-0.21306">
        <ele>89.4</ele>
        <time>2026-06-20T07:05:28Z</time>
      </trkpt>
      <trkpt lat="47.23866" lon="-0.21305">
        <ele>89.4</ele>
        <time>2026-06-20T07:05:29Z</time>
      </trkpt>
      <trkpt lat="47.2387" lon="-0.21305">
        <ele>89.6</ele>
        <time>2026-06-20T07:05:30Z</time>
      </trkpt>
      <trkpt lat="47.23874" lon="-0.21304">
        <ele>89.6</ele>
        <time>2026-06-20T07:05:31Z</time>
      </trkpt>
      <trkpt lat="47.23877" lon="-0.21303">
        <ele>89.6</ele>
        <time>2026-06-20T07:05:32Z</time>
      </trkpt>
      <trkpt lat="47.23881" lon="-0.21302">
        <ele>89.8</ele>
        <time>2026-06-20T07:05:33Z</time>
      </trkpt>
      <trkpt lat="47.23885" lon="-0.21301">
        <ele>89.8</ele>
        <time>2026-06-20T07:05:34Z</time>
      </trkpt>
      <trkpt lat="47.23888" lon="-0.213">
        <ele>90</ele>
        <time>2026-06-20T07:05:35Z</time>
      </trkpt>
      <trkpt lat="47.23892" lon="-0.21299">
        <ele>90</ele>
        <time>2026-06-20T07:05:36Z</time>
      </trkpt>
      <trkpt lat="47.23896" lon="-0.21297">
        <ele>90</ele>
        <time>2026-06-20T07:05:37Z</time>
      </trkpt>
      <trkpt lat="47.239" lon="-0.21296">
        <ele>90.2</ele>
        <time>2026-06-20T07:05:38Z</time>
      </trkpt>
      <trkpt lat="47.23903" lon="-0.21295">
        <ele>90.2</ele>
        <time>2026-06-20T07:05:39Z</time>
      </trkpt>
      <trkpt lat="47.23907" lon="-0.21295">
        <ele>90.4</ele>
        <time>2026-06-20T07:05:40Z</time>
      </trkpt>
      <trkpt lat="47.2391" lon="-0.21295">
        <ele>90.6</ele>
        <time>2026-06-20T07:05:41Z</time>
      </trkpt>
      <trkpt lat="47.23913" lon="-0.21295">
        <ele>90.8</ele>
        <time>2026-06-20T07:05:42Z</time>
      </trkpt>
      <trkpt lat="47.23917" lon="-0.21296">
        <ele>91</ele>
        <time>2026-06-20T07:05:43Z</time>
      </trkpt>
      <trkpt lat="47.23919" lon="-0.21297">
        <ele>91.2</ele>
        <time>2026-06-20T07:05:44Z</time>
      </trkpt>
      <trkpt lat="47.23922" lon="-0.213">
        <ele>91.4</ele>
        <time>2026-06-20T07:05:45Z</time>
      </trkpt>
      <trkpt lat="47.23924" lon="-0.21304">
        <ele>91.4</ele>
        <time>2026-06-20T07:05:46Z</time>
      </trkpt>
      <trkpt lat="47.23927" lon="-0.21308">
        <ele>91.6</ele>
        <time>2026-06-20T07:05:47Z</time>
      </trkpt>
      <trkpt lat="47.2393" lon="-0.21312">
        <ele>91.6</ele>
        <time>2026-06-20T07:05:48Z</time>
      </trkpt>
      <trkpt lat="47.23932" lon="-0.21316">
        <ele>91.8</ele>
        <time>2026-06-20T07:05:49Z</time>
      </trkpt>
      <trkpt lat="47.23934" lon="-0.21321">
        <ele>91.8</ele>
        <time>2026-06-20T07:05:50Z</time>
      </trkpt>
      <trkpt lat="47.23936" lon="-0.21325">
        <ele>91.8</ele>
        <time>2026-06-20T07:05:51Z</time>
      </trkpt>
      <trkpt lat="47.23939" lon="-0.2133">
        <ele>91.8</ele>
        <time>2026-06-20T07:05:52Z</time>
      </trkpt>
      <trkpt lat="47.23941" lon="-0.21333">
        <ele>91.8</ele>
        <time>2026-06-20T07:05:53Z</time>
      </trkpt>
      <trkpt lat="47.23944" lon="-0.21337">
        <ele>92</ele>
        <time>2026-06-20T07:05:54Z</time>
      </trkpt>
      <trkpt lat="47.23947" lon="-0.21341">
        <ele>92</ele>
        <time>2026-06-20T07:05:55Z</time>
      </trkpt>
      <trkpt lat="47.2395" lon="-0.21345">
        <ele>92.2</ele>
        <time>2026-06-20T07:05:56Z</time>
      </trkpt>
      <trkpt lat="47.23953" lon="-0.21349">
        <ele>92.2</ele>
        <time>2026-06-20T07:05:57Z</time>
      </trkpt>
      <trkpt lat="47.23955" lon="-0.21352">
        <ele>92.4</ele>
        <time>2026-06-20T07:05:58Z</time>
      </trkpt>
      <trkpt lat="47.23957" lon="-0.21355">
        <ele>92.6</ele>
        <time>2026-06-20T07:05:59Z</time>
      </trkpt>
      <trkpt lat="47.2396" lon="-0.21358">
        <ele>92.8</ele>
        <time>2026-06-20T07:06:00Z</time>
      </trkpt>
      <trkpt lat="47.23963" lon="-0.21361">
        <ele>93</ele>
        <time>2026-06-20T07:06:01Z</time>
      </trkpt>
      <trkpt lat="47.23966" lon="-0.21364">
        <ele>93</ele>
        <time>2026-06-20T07:06:02Z</time>
      </trkpt>
      <trkpt lat="47.23968" lon="-0.21368">
        <ele>93.2</ele>
        <time>2026-06-20T07:06:03Z</time>
      </trkpt>
      <trkpt lat="47.23971" lon="-0.21371">
        <ele>93.2</ele>
        <time>2026-06-20T07:06:04Z</time>
      </trkpt>
      <trkpt lat="47.23973" lon="-0.21375">
        <ele>93.2</ele>
        <time>2026-06-20T07:06:05Z</time>
      </trkpt>
      <trkpt lat="47.23976" lon="-0.21378">
        <ele>93.4</ele>
        <time>2026-06-20T07:06:06Z</time>
      </trkpt>
      <trkpt lat="47.23979" lon="-0.21381">
        <ele>93.6</ele>
        <time>2026-06-20T07:06:07Z</time>
      </trkpt>
      <trkpt lat="47.23983" lon="-0.21384">
        <ele>93.6</ele>
        <time>2026-06-20T07:06:08Z</time>
      </trkpt>
      <trkpt lat="47.23986" lon="-0.21388">
        <ele>93.6</ele>
        <time>2026-06-20T07:06:09Z</time>
      </trkpt>
      <trkpt lat="47.23989" lon="-0.21391">
        <ele>93.8</ele>
        <time>2026-06-20T07:06:10Z</time>
      </trkpt>
      <trkpt lat="47.23993" lon="-0.21394">
        <ele>93.8</ele>
        <time>2026-06-20T07:06:11Z</time>
      </trkpt>
      <trkpt lat="47.23996" lon="-0.21398">
        <ele>93.8</ele>
        <time>2026-06-20T07:06:12Z</time>
      </trkpt>
      <trkpt lat="47.24" lon="-0.21401">
        <ele>94</ele>
        <time>2026-06-20T07:06:13Z</time>
      </trkpt>
      <trkpt lat="47.24003" lon="-0.21405">
        <ele>94</ele>
        <time>2026-06-20T07:06:14Z</time>
      </trkpt>
      <trkpt lat="47.24006" lon="-0.21408">
        <ele>94</ele>
        <time>2026-06-20T07:06:15Z</time>
      </trkpt>
      <trkpt lat="47.2401" lon="-0.21412">
        <ele>94.2</ele>
        <time>2026-06-20T07:06:16Z</time>
      </trkpt>
      <trkpt lat="47.24013" lon="-0.21416">
        <ele>94.2</ele>
        <time>2026-06-20T07:06:17Z</time>
      </trkpt>
      <trkpt lat="47.24016" lon="-0.2142">
        <ele>94.2</ele>
        <time>2026-06-20T07:06:18Z</time>
      </trkpt>
      <trkpt lat="47.2402" lon="-0.21424">
        <ele>94.2</ele>
        <time>2026-06-20T07:06:19Z</time>
      </trkpt>
      <trkpt lat="47.24023" lon="-0.21428">
        <ele>94.4</ele>
        <time>2026-06-20T07:06:20Z</time>
      </trkpt>
      <trkpt lat="47.24027" lon="-0.21432">
        <ele>94.4</ele>
        <time>2026-06-20T07:06:21Z</time>
      </trkpt>
      <trkpt lat="47.2403" lon="-0.21436">
        <ele>94.4</ele>
        <time>2026-06-20T07:06:22Z</time>
      </trkpt>
      <trkpt lat="47.24033" lon="-0.2144">
        <ele>94.6</ele>
        <time>2026-06-20T07:06:23Z</time>
      </trkpt>
      <trkpt lat="47.24037" lon="-0.21444">
        <ele>94.6</ele>
        <time>2026-06-20T07:06:24Z</time>
      </trkpt>
      <trkpt lat="47.2404" lon="-0.21448">
        <ele>94.6</ele>
        <time>2026-06-20T07:06:25Z</time>
      </trkpt>
      <trkpt lat="47.24044" lon="-0.21452">
        <ele>94.8</ele>
        <time>2026-06-20T07:06:26Z</time>
      </trkpt>
      <trkpt lat="47.24047" lon="-0.21456">
        <ele>94.8</ele>
        <time>2026-06-20T07:06:27Z</time>
      </trkpt>
      <trkpt lat="47.24051" lon="-0.2146">
        <ele>94.8</ele>
        <time>2026-06-20T07:06:28Z</time>
      </trkpt>
      <trkpt lat="47.24055" lon="-0.21463">
        <ele>95</ele>
        <time>2026-06-20T07:06:29Z</time>
      </trkpt>
      <trkpt lat="47.24058" lon="-0.21466">
        <ele>95</ele>
        <time>2026-06-20T07:06:30Z</time>
      </trkpt>
      <trkpt lat="47.24062" lon="-0.2147">
        <ele>95</ele>
        <time>2026-06-20T07:06:31Z</time>
      </trkpt>
      <trkpt lat="47.24066" lon="-0.21474">
        <ele>95</ele>
        <time>2026-06-20T07:06:32Z</time>
      </trkpt>
      <trkpt lat="47.24069" lon="-0.21478">
        <ele>95.2</ele>
        <time>2026-06-20T07:06:33Z</time>
      </trkpt>
      <trkpt lat="47.24073" lon="-0.21481">
        <ele>95.2</ele>
        <time>2026-06-20T07:06:34Z</time>
      </trkpt>
      <trkpt lat="47.24077" lon="-0.21485">
        <ele>95.2</ele>
        <time>2026-06-20T07:06:35Z</time>
      </trkpt>
      <trkpt lat="47.24081" lon="-0.21489">
        <ele>95.4</ele>
        <time>2026-06-20T07:06:36Z</time>
      </trkpt>
      <trkpt lat="47.24085" lon="-0.21493">
        <ele>95.4</ele>
        <time>2026-06-20T07:06:37Z</time>
      </trkpt>
      <trkpt lat="47.24088" lon="-0.21498">
        <ele>95.6</ele>
        <time>2026-06-20T07:06:38Z</time>
      </trkpt>
      <trkpt lat="47.24092" lon="-0.21502">
        <ele>95.6</ele>
        <time>2026-06-20T07:06:39Z</time>
      </trkpt>
      <trkpt lat="47.24095" lon="-0.21506">
        <ele>95.8</ele>
        <time>2026-06-20T07:06:40Z</time>
      </trkpt>
      <trkpt lat="47.24098" lon="-0.21511">
        <ele>95.8</ele>
        <time>2026-06-20T07:06:41Z</time>
      </trkpt>
      <trkpt lat="47.24101" lon="-0.21516">
        <ele>95.8</ele>
        <time>2026-06-20T07:06:42Z</time>
      </trkpt>
      <trkpt lat="47.24103" lon="-0.21522">
        <ele>96</ele>
        <time>2026-06-20T07:06:43Z</time>
      </trkpt>
      <trkpt lat="47.24105" lon="-0.21528">
        <ele>96</ele>
        <time>2026-06-20T07:06:44Z</time>
      </trkpt>
      <trkpt lat="47.24107" lon="-0.21533">
        <ele>96.2</ele>
        <time>2026-06-20T07:06:45Z</time>
      </trkpt>
      <trkpt lat="47.24109" lon="-0.21538">
        <ele>96.2</ele>
        <time>2026-06-20T07:06:46Z</time>
      </trkpt>
      <trkpt lat="47.24112" lon="-0.21544">
        <ele>96.2</ele>
        <time>2026-06-20T07:06:47Z</time>
      </trkpt>
      <trkpt lat="47.24114" lon="-0.21549">
        <ele>96.2</ele>
        <time>2026-06-20T07:06:48Z</time>
      </trkpt>
      <trkpt lat="47.24116" lon="-0.21555">
        <ele>96.2</ele>
        <time>2026-06-20T07:06:49Z</time>
      </trkpt>
      <trkpt lat="47.24118" lon="-0.21561">
        <ele>96.2</ele>
        <time>2026-06-20T07:06:50Z</time>
      </trkpt>
      <trkpt lat="47.2412" lon="-0.21567">
        <ele>96.2</ele>
        <time>2026-06-20T07:06:51Z</time>
      </trkpt>
      <trkpt lat="47.24122" lon="-0.21573">
        <ele>96.2</ele>
        <time>2026-06-20T07:06:52Z</time>
      </trkpt>
      <trkpt lat="47.24124" lon="-0.2158">
        <ele>96.2</ele>
        <time>2026-06-20T07:06:53Z</time>
      </trkpt>
      <trkpt lat="47.24126" lon="-0.21587">
        <ele>96.2</ele>
        <time>2026-06-20T07:06:54Z</time>
      </trkpt>
      <trkpt lat="47.24129" lon="-0.21594">
        <ele>96</ele>
        <time>2026-06-20T07:06:55Z</time>
      </trkpt>
      <trkpt lat="47.24131" lon="-0.216">
        <ele>96</ele>
        <time>2026-06-20T07:06:56Z</time>
      </trkpt>
      <trkpt lat="47.24133" lon="-0.21607">
        <ele>96</ele>
        <time>2026-06-20T07:06:57Z</time>
      </trkpt>
      <trkpt lat="47.24135" lon="-0.21614">
        <ele>95.8</ele>
        <time>2026-06-20T07:06:58Z</time>
      </trkpt>
      <trkpt lat="47.24137" lon="-0.2162">
        <ele>95.8</ele>
        <time>2026-06-20T07:06:59Z</time>
      </trkpt>
      <trkpt lat="47.24139" lon="-0.21627">
        <ele>95.8</ele>
        <time>2026-06-20T07:07:00Z</time>
      </trkpt>
      <trkpt lat="47.24141" lon="-0.21634">
        <ele>95.6</ele>
        <time>2026-06-20T07:07:01Z</time>
      </trkpt>
      <trkpt lat="47.24144" lon="-0.21641">
        <ele>95.6</ele>
        <time>2026-06-20T07:07:02Z</time>
      </trkpt>
      <trkpt lat="47.24146" lon="-0.21648">
        <ele>95.6</ele>
        <time>2026-06-20T07:07:03Z</time>
      </trkpt>
      <trkpt lat="47.24148" lon="-0.21655">
        <ele>95.6</ele>
        <time>2026-06-20T07:07:04Z</time>
      </trkpt>
      <trkpt lat="47.2415" lon="-0.21662">
        <ele>95.6</ele>
        <time>2026-06-20T07:07:05Z</time>
      </trkpt>
      <trkpt lat="47.24152" lon="-0.2167">
        <ele>95.6</ele>
        <time>2026-06-20T07:07:06Z</time>
      </trkpt>
      <trkpt lat="47.24154" lon="-0.21678">
        <ele>95.6</ele>
        <time>2026-06-20T07:07:07Z</time>
      </trkpt>
      <trkpt lat="47.24157" lon="-0.21685">
        <ele>95.6</ele>
        <time>2026-06-20T07:07:08Z</time>
      </trkpt>
      <trkpt lat="47.24159" lon="-0.21692">
        <ele>95.6</ele>
        <time>2026-06-20T07:07:09Z</time>
      </trkpt>
      <trkpt lat="47.2416" lon="-0.217">
        <ele>95.6</ele>
        <time>2026-06-20T07:07:10Z</time>
      </trkpt>
      <trkpt lat="47.24162" lon="-0.21707">
        <ele>95.6</ele>
        <time>2026-06-20T07:07:11Z</time>
      </trkpt>
      <trkpt lat="47.24164" lon="-0.21715">
        <ele>95.6</ele>
        <time>2026-06-20T07:07:12Z</time>
      </trkpt>
      <trkpt lat="47.24166" lon="-0.21722">
        <ele>95.6</ele>
        <time>2026-06-20T07:07:13Z</time>
      </trkpt>
      <trkpt lat="47.24168" lon="-0.2173">
        <ele>95.6</ele>
        <time>2026-06-20T07:07:14Z</time>
      </trkpt>
      <trkpt lat="47.24169" lon="-0.21738">
        <ele>95.6</ele>
        <time>2026-06-20T07:07:15Z</time>
      </trkpt>
      <trkpt lat="47.24171" lon="-0.21744">
        <ele>95.6</ele>
        <time>2026-06-20T07:07:16Z</time>
      </trkpt>
      <trkpt lat="47.24174" lon="-0.2175">
        <ele>95.6</ele>
        <time>2026-06-20T07:07:17Z</time>
      </trkpt>
      <trkpt lat="47.24176" lon="-0.21756">
        <ele>95.4</ele>
        <time>2026-06-20T07:07:18Z</time>
      </trkpt>
      <trkpt lat="47.2418" lon="-0.2176">
        <ele>95.4</ele>
        <time>2026-06-20T07:07:19Z</time>
      </trkpt>
      <trkpt lat="47.24184" lon="-0.21765">
        <ele>95.4</ele>
        <time>2026-06-20T07:07:20Z</time>
      </trkpt>
      <trkpt lat="47.24187" lon="-0.21771">
        <ele>95.4</ele>
        <time>2026-06-20T07:07:21Z</time>
      </trkpt>
      <trkpt lat="47.2419" lon="-0.21776">
        <ele>95.2</ele>
        <time>2026-06-20T07:07:22Z</time>
      </trkpt>
      <trkpt lat="47.24193" lon="-0.21782">
        <ele>95.2</ele>
        <time>2026-06-20T07:07:23Z</time>
      </trkpt>
      <trkpt lat="47.24196" lon="-0.21787">
        <ele>95.2</ele>
        <time>2026-06-20T07:07:24Z</time>
      </trkpt>
      <trkpt lat="47.242" lon="-0.21791">
        <ele>95.2</ele>
        <time>2026-06-20T07:07:25Z</time>
      </trkpt>
      <trkpt lat="47.24205" lon="-0.21795">
        <ele>95</ele>
        <time>2026-06-20T07:07:26Z</time>
      </trkpt>
      <trkpt lat="47.24209" lon="-0.21799">
        <ele>95</ele>
        <time>2026-06-20T07:07:27Z</time>
      </trkpt>
      <trkpt lat="47.24213" lon="-0.21803">
        <ele>94.8</ele>
        <time>2026-06-20T07:07:28Z</time>
      </trkpt>
      <trkpt lat="47.24218" lon="-0.21806">
        <ele>94.6</ele>
        <time>2026-06-20T07:07:29Z</time>
      </trkpt>
      <trkpt lat="47.24222" lon="-0.21809">
        <ele>94.6</ele>
        <time>2026-06-20T07:07:30Z</time>
      </trkpt>
      <trkpt lat="47.24227" lon="-0.21812">
        <ele>94.6</ele>
        <time>2026-06-20T07:07:31Z</time>
      </trkpt>
      <trkpt lat="47.24231" lon="-0.21813">
        <ele>94.6</ele>
        <time>2026-06-20T07:07:32Z</time>
      </trkpt>
      <trkpt lat="47.24236" lon="-0.21815">
        <ele>94.6</ele>
        <time>2026-06-20T07:07:33Z</time>
      </trkpt>
      <trkpt lat="47.2424" lon="-0.21816">
        <ele>94.6</ele>
        <time>2026-06-20T07:07:34Z</time>
      </trkpt>
      <trkpt lat="47.24245" lon="-0.21818">
        <ele>94.6</ele>
        <time>2026-06-20T07:07:35Z</time>
      </trkpt>
      <trkpt lat="47.24249" lon="-0.21819">
        <ele>94.6</ele>
        <time>2026-06-20T07:07:36Z</time>
      </trkpt>
      <trkpt lat="47.24253" lon="-0.21821">
        <ele>94.6</ele>
        <time>2026-06-20T07:07:37Z</time>
      </trkpt>
      <trkpt lat="47.24257" lon="-0.21823">
        <ele>94.8</ele>
        <time>2026-06-20T07:07:38Z</time>
      </trkpt>
      <trkpt lat="47.2426" lon="-0.21826">
        <ele>94.8</ele>
        <time>2026-06-20T07:07:39Z</time>
      </trkpt>
      <trkpt lat="47.24264" lon="-0.2183">
        <ele>94.8</ele>
        <time>2026-06-20T07:07:40Z</time>
      </trkpt>
      <trkpt lat="47.24268" lon="-0.21835">
        <ele>94.8</ele>
        <time>2026-06-20T07:07:41Z</time>
      </trkpt>
      <trkpt lat="47.24271" lon="-0.21839">
        <ele>94.6</ele>
        <time>2026-06-20T07:07:42Z</time>
      </trkpt>
      <trkpt lat="47.24275" lon="-0.21844">
        <ele>94.6</ele>
        <time>2026-06-20T07:07:43Z</time>
      </trkpt>
      <trkpt lat="47.24279" lon="-0.21849">
        <ele>94.4</ele>
        <time>2026-06-20T07:07:44Z</time>
      </trkpt>
      <trkpt lat="47.24283" lon="-0.21854">
        <ele>94.2</ele>
        <time>2026-06-20T07:07:45Z</time>
      </trkpt>
      <trkpt lat="47.24287" lon="-0.21857">
        <ele>94</ele>
        <time>2026-06-20T07:07:46Z</time>
      </trkpt>
      <trkpt lat="47.24291" lon="-0.21861">
        <ele>93.8</ele>
        <time>2026-06-20T07:07:47Z</time>
      </trkpt>
      <trkpt lat="47.24295" lon="-0.21866">
        <ele>93.8</ele>
        <time>2026-06-20T07:07:48Z</time>
      </trkpt>
      <trkpt lat="47.24299" lon="-0.2187">
        <ele>93.8</ele>
        <time>2026-06-20T07:07:49Z</time>
      </trkpt>
      <trkpt lat="47.24303" lon="-0.21874">
        <ele>93.6</ele>
        <time>2026-06-20T07:07:50Z</time>
      </trkpt>
      <trkpt lat="47.24307" lon="-0.21877">
        <ele>93.6</ele>
        <time>2026-06-20T07:07:51Z</time>
      </trkpt>
      <trkpt lat="47.24311" lon="-0.2188">
        <ele>93.6</ele>
        <time>2026-06-20T07:07:52Z</time>
      </trkpt>
      <trkpt lat="47.24315" lon="-0.21883">
        <ele>93.8</ele>
        <time>2026-06-20T07:07:53Z</time>
      </trkpt>
      <trkpt lat="47.24319" lon="-0.21886">
        <ele>93.6</ele>
        <time>2026-06-20T07:07:54Z</time>
      </trkpt>
      <trkpt lat="47.24323" lon="-0.21889">
        <ele>93.8</ele>
        <time>2026-06-20T07:07:55Z</time>
      </trkpt>
      <trkpt lat="47.24327" lon="-0.21891">
        <ele>93.8</ele>
        <time>2026-06-20T07:07:56Z</time>
      </trkpt>
      <trkpt lat="47.24331" lon="-0.21893">
        <ele>93.8</ele>
        <time>2026-06-20T07:07:57Z</time>
      </trkpt>
      <trkpt lat="47.24334" lon="-0.21895">
        <ele>93.8</ele>
        <time>2026-06-20T07:07:58Z</time>
      </trkpt>
      <trkpt lat="47.24338" lon="-0.21896">
        <ele>93.8</ele>
        <time>2026-06-20T07:07:59Z</time>
      </trkpt>
      <trkpt lat="47.24342" lon="-0.21899">
        <ele>93.8</ele>
        <time>2026-06-20T07:08:00Z</time>
      </trkpt>
      <trkpt lat="47.24346" lon="-0.21902">
        <ele>93.6</ele>
        <time>2026-06-20T07:08:01Z</time>
      </trkpt>
      <trkpt lat="47.24349" lon="-0.21904">
        <ele>93.6</ele>
        <time>2026-06-20T07:08:02Z</time>
      </trkpt>
      <trkpt lat="47.24353" lon="-0.21908">
        <ele>93.6</ele>
        <time>2026-06-20T07:08:03Z</time>
      </trkpt>
      <trkpt lat="47.24357" lon="-0.21911">
        <ele>93.6</ele>
        <time>2026-06-20T07:08:04Z</time>
      </trkpt>
      <trkpt lat="47.24361" lon="-0.21914">
        <ele>93.4</ele>
        <time>2026-06-20T07:08:05Z</time>
      </trkpt>
      <trkpt lat="47.24365" lon="-0.21916">
        <ele>93.4</ele>
        <time>2026-06-20T07:08:06Z</time>
      </trkpt>
      <trkpt lat="47.24369" lon="-0.21919">
        <ele>93.4</ele>
        <time>2026-06-20T07:08:07Z</time>
      </trkpt>
      <trkpt lat="47.24373" lon="-0.21922">
        <ele>93.2</ele>
        <time>2026-06-20T07:08:08Z</time>
      </trkpt>
      <trkpt lat="47.24378" lon="-0.21924">
        <ele>93.2</ele>
        <time>2026-06-20T07:08:09Z</time>
      </trkpt>
      <trkpt lat="47.24383" lon="-0.21926">
        <ele>93</ele>
        <time>2026-06-20T07:08:10Z</time>
      </trkpt>
      <trkpt lat="47.24388" lon="-0.21929">
        <ele>93</ele>
        <time>2026-06-20T07:08:11Z</time>
      </trkpt>
      <trkpt lat="47.24393" lon="-0.21931">
        <ele>93</ele>
        <time>2026-06-20T07:08:12Z</time>
      </trkpt>
      <trkpt lat="47.24398" lon="-0.21934">
        <ele>92.8</ele>
        <time>2026-06-20T07:08:13Z</time>
      </trkpt>
      <trkpt lat="47.24402" lon="-0.21937">
        <ele>92.8</ele>
        <time>2026-06-20T07:08:14Z</time>
      </trkpt>
      <trkpt lat="47.24406" lon="-0.21939">
        <ele>92.8</ele>
        <time>2026-06-20T07:08:15Z</time>
      </trkpt>
      <trkpt lat="47.2441" lon="-0.21941">
        <ele>93</ele>
        <time>2026-06-20T07:08:16Z</time>
      </trkpt>
      <trkpt lat="47.24414" lon="-0.21943">
        <ele>93</ele>
        <time>2026-06-20T07:08:17Z</time>
      </trkpt>
      <trkpt lat="47.24418" lon="-0.21944">
        <ele>93</ele>
        <time>2026-06-20T07:08:18Z</time>
      </trkpt>
      <trkpt lat="47.24423" lon="-0.21944">
        <ele>93.2</ele>
        <time>2026-06-20T07:08:19Z</time>
      </trkpt>
      <trkpt lat="47.24428" lon="-0.21945">
        <ele>93.2</ele>
        <time>2026-06-20T07:08:20Z</time>
      </trkpt>
      <trkpt lat="47.24432" lon="-0.21946">
        <ele>93.2</ele>
        <time>2026-06-20T07:08:21Z</time>
      </trkpt>
      <trkpt lat="47.24437" lon="-0.21947">
        <ele>93.2</ele>
        <time>2026-06-20T07:08:22Z</time>
      </trkpt>
      <trkpt lat="47.24442" lon="-0.21947">
        <ele>93.2</ele>
        <time>2026-06-20T07:08:23Z</time>
      </trkpt>
      <trkpt lat="47.24446" lon="-0.21949">
        <ele>93</ele>
        <time>2026-06-20T07:08:24Z</time>
      </trkpt>
      <trkpt lat="47.24451" lon="-0.2195">
        <ele>93</ele>
        <time>2026-06-20T07:08:25Z</time>
      </trkpt>
      <trkpt lat="47.24455" lon="-0.21951">
        <ele>93</ele>
        <time>2026-06-20T07:08:26Z</time>
      </trkpt>
      <trkpt lat="47.2446" lon="-0.2195">
        <ele>93</ele>
        <time>2026-06-20T07:08:27Z</time>
      </trkpt>
      <trkpt lat="47.24464" lon="-0.2195">
        <ele>92.8</ele>
        <time>2026-06-20T07:08:28Z</time>
      </trkpt>
      <trkpt lat="47.24469" lon="-0.21949">
        <ele>92.8</ele>
        <time>2026-06-20T07:08:29Z</time>
      </trkpt>
      <trkpt lat="47.24473" lon="-0.21948">
        <ele>92.8</ele>
        <time>2026-06-20T07:08:30Z</time>
      </trkpt>
      <trkpt lat="47.24477" lon="-0.21945">
        <ele>92.8</ele>
        <time>2026-06-20T07:08:31Z</time>
      </trkpt>
      <trkpt lat="47.2448" lon="-0.21942">
        <ele>93</ele>
        <time>2026-06-20T07:08:32Z</time>
      </trkpt>
      <trkpt lat="47.24484" lon="-0.21939">
        <ele>92.8</ele>
        <time>2026-06-20T07:08:33Z</time>
      </trkpt>
      <trkpt lat="47.24487" lon="-0.21936">
        <ele>93</ele>
        <time>2026-06-20T07:08:34Z</time>
      </trkpt>
      <trkpt lat="47.24491" lon="-0.21933">
        <ele>93</ele>
        <time>2026-06-20T07:08:35Z</time>
      </trkpt>
      <trkpt lat="47.24494" lon="-0.21931">
        <ele>93</ele>
        <time>2026-06-20T07:08:36Z</time>
      </trkpt>
      <trkpt lat="47.24498" lon="-0.21928">
        <ele>93</ele>
        <time>2026-06-20T07:08:37Z</time>
      </trkpt>
      <trkpt lat="47.24501" lon="-0.21926">
        <ele>93</ele>
        <time>2026-06-20T07:08:38Z</time>
      </trkpt>
      <trkpt lat="47.24505" lon="-0.21924">
        <ele>93</ele>
        <time>2026-06-20T07:08:39Z</time>
      </trkpt>
      <trkpt lat="47.24509" lon="-0.21922">
        <ele>93.2</ele>
        <time>2026-06-20T07:08:40Z</time>
      </trkpt>
      <trkpt lat="47.24512" lon="-0.2192">
        <ele>93.2</ele>
        <time>2026-06-20T07:08:41Z</time>
      </trkpt>
      <trkpt lat="47.24516" lon="-0.21918">
        <ele>93.2</ele>
        <time>2026-06-20T07:08:42Z</time>
      </trkpt>
      <trkpt lat="47.24519" lon="-0.21917">
        <ele>93.4</ele>
        <time>2026-06-20T07:08:43Z</time>
      </trkpt>
      <trkpt lat="47.24522" lon="-0.21916">
        <ele>93.4</ele>
        <time>2026-06-20T07:08:44Z</time>
      </trkpt>
      <trkpt lat="47.24526" lon="-0.21914">
        <ele>93.6</ele>
        <time>2026-06-20T07:08:45Z</time>
      </trkpt>
      <trkpt lat="47.24529" lon="-0.21913">
        <ele>93.6</ele>
        <time>2026-06-20T07:08:46Z</time>
      </trkpt>
      <trkpt lat="47.24533" lon="-0.21912">
        <ele>93.8</ele>
        <time>2026-06-20T07:08:47Z</time>
      </trkpt>
      <trkpt lat="47.24537" lon="-0.21911">
        <ele>93.8</ele>
        <time>2026-06-20T07:08:48Z</time>
      </trkpt>
      <trkpt lat="47.2454" lon="-0.21911">
        <ele>94</ele>
        <time>2026-06-20T07:08:49Z</time>
      </trkpt>
      <trkpt lat="47.24544" lon="-0.21912">
        <ele>94</ele>
        <time>2026-06-20T07:08:50Z</time>
      </trkpt>
      <trkpt lat="47.24547" lon="-0.21912">
        <ele>94</ele>
        <time>2026-06-20T07:08:51Z</time>
      </trkpt>
      <trkpt lat="47.2455" lon="-0.21911">
        <ele>94</ele>
        <time>2026-06-20T07:08:52Z</time>
      </trkpt>
      <trkpt lat="47.24554" lon="-0.21911">
        <ele>94.2</ele>
        <time>2026-06-20T07:08:53Z</time>
      </trkpt>
      <trkpt lat="47.24557" lon="-0.21911">
        <ele>94.2</ele>
        <time>2026-06-20T07:08:54Z</time>
      </trkpt>
      <trkpt lat="47.2456" lon="-0.21911">
        <ele>94.2</ele>
        <time>2026-06-20T07:08:55Z</time>
      </trkpt>
      <trkpt lat="47.24564" lon="-0.21911">
        <ele>94.2</ele>
        <time>2026-06-20T07:08:56Z</time>
      </trkpt>
      <trkpt lat="47.24567" lon="-0.21912">
        <ele>94.2</ele>
        <time>2026-06-20T07:08:57Z</time>
      </trkpt>
      <trkpt lat="47.24571" lon="-0.21913">
        <ele>94.4</ele>
        <time>2026-06-20T07:08:58Z</time>
      </trkpt>
      <trkpt lat="47.24574" lon="-0.21913">
        <ele>94.4</ele>
        <time>2026-06-20T07:08:59Z</time>
      </trkpt>
      <trkpt lat="47.24577" lon="-0.21914">
        <ele>94.4</ele>
        <time>2026-06-20T07:09:00Z</time>
      </trkpt>
      <trkpt lat="47.24581" lon="-0.21915">
        <ele>94.6</ele>
        <time>2026-06-20T07:09:01Z</time>
      </trkpt>
      <trkpt lat="47.24584" lon="-0.21915">
        <ele>94.6</ele>
        <time>2026-06-20T07:09:02Z</time>
      </trkpt>
      <trkpt lat="47.24588" lon="-0.21916">
        <ele>94.6</ele>
        <time>2026-06-20T07:09:03Z</time>
      </trkpt>
      <trkpt lat="47.24591" lon="-0.21916">
        <ele>94.4</ele>
        <time>2026-06-20T07:09:04Z</time>
      </trkpt>
      <trkpt lat="47.24595" lon="-0.21916">
        <ele>94.4</ele>
        <time>2026-06-20T07:09:05Z</time>
      </trkpt>
      <trkpt lat="47.24598" lon="-0.21916">
        <ele>94.6</ele>
        <time>2026-06-20T07:09:06Z</time>
      </trkpt>
      <trkpt lat="47.24601" lon="-0.21917">
        <ele>94.6</ele>
        <time>2026-06-20T07:09:07Z</time>
      </trkpt>
      <trkpt lat="47.24605" lon="-0.21918">
        <ele>94.6</ele>
        <time>2026-06-20T07:09:08Z</time>
      </trkpt>
      <trkpt lat="47.24608" lon="-0.21919">
        <ele>94.8</ele>
        <time>2026-06-20T07:09:09Z</time>
      </trkpt>
      <trkpt lat="47.24612" lon="-0.2192">
        <ele>94.8</ele>
        <time>2026-06-20T07:09:10Z</time>
      </trkpt>
      <trkpt lat="47.24615" lon="-0.2192">
        <ele>95</ele>
        <time>2026-06-20T07:09:11Z</time>
      </trkpt>
      <trkpt lat="47.24619" lon="-0.21921">
        <ele>95</ele>
        <time>2026-06-20T07:09:12Z</time>
      </trkpt>
      <trkpt lat="47.24622" lon="-0.21922">
        <ele>95</ele>
        <time>2026-06-20T07:09:13Z</time>
      </trkpt>
      <trkpt lat="47.24626" lon="-0.21922">
        <ele>95.2</ele>
        <time>2026-06-20T07:09:14Z</time>
      </trkpt>
      <trkpt lat="47.24629" lon="-0.21924">
        <ele>95.4</ele>
        <time>2026-06-20T07:09:15Z</time>
      </trkpt>
      <trkpt lat="47.24632" lon="-0.21924">
        <ele>95.4</ele>
        <time>2026-06-20T07:09:16Z</time>
      </trkpt>
      <trkpt lat="47.24636" lon="-0.21925">
        <ele>95.6</ele>
        <time>2026-06-20T07:09:17Z</time>
      </trkpt>
      <trkpt lat="47.24639" lon="-0.21926">
        <ele>95.8</ele>
        <time>2026-06-20T07:09:18Z</time>
      </trkpt>
      <trkpt lat="47.24643" lon="-0.21926">
        <ele>95.8</ele>
        <time>2026-06-20T07:09:19Z</time>
      </trkpt>
      <trkpt lat="47.24646" lon="-0.21926">
        <ele>95.8</ele>
        <time>2026-06-20T07:09:20Z</time>
      </trkpt>
      <trkpt lat="47.24649" lon="-0.21926">
        <ele>96</ele>
        <time>2026-06-20T07:09:21Z</time>
      </trkpt>
      <trkpt lat="47.24652" lon="-0.21925">
        <ele>96</ele>
        <time>2026-06-20T07:09:22Z</time>
      </trkpt>
      <trkpt lat="47.24656" lon="-0.21926">
        <ele>96</ele>
        <time>2026-06-20T07:09:23Z</time>
      </trkpt>
      <trkpt lat="47.24659" lon="-0.21927">
        <ele>96.2</ele>
        <time>2026-06-20T07:09:24Z</time>
      </trkpt>
      <trkpt lat="47.24663" lon="-0.21928">
        <ele>96.2</ele>
        <time>2026-06-20T07:09:25Z</time>
      </trkpt>
      <trkpt lat="47.24666" lon="-0.21928">
        <ele>96.4</ele>
        <time>2026-06-20T07:09:26Z</time>
      </trkpt>
      <trkpt lat="47.24669" lon="-0.21928">
        <ele>96.4</ele>
        <time>2026-06-20T07:09:27Z</time>
      </trkpt>
      <trkpt lat="47.24672" lon="-0.21928">
        <ele>96.6</ele>
        <time>2026-06-20T07:09:28Z</time>
      </trkpt>
      <trkpt lat="47.24675" lon="-0.21928">
        <ele>96.6</ele>
        <time>2026-06-20T07:09:29Z</time>
      </trkpt>
      <trkpt lat="47.24678" lon="-0.21928">
        <ele>96.6</ele>
        <time>2026-06-20T07:09:30Z</time>
      </trkpt>
      <trkpt lat="47.24681" lon="-0.21928">
        <ele>96.6</ele>
        <time>2026-06-20T07:09:31Z</time>
      </trkpt>
      <trkpt lat="47.24685" lon="-0.21928">
        <ele>96.6</ele>
        <time>2026-06-20T07:09:32Z</time>
      </trkpt>
      <trkpt lat="47.24688" lon="-0.21927">
        <ele>96.8</ele>
        <time>2026-06-20T07:09:33Z</time>
      </trkpt>
      <trkpt lat="47.24692" lon="-0.21927">
        <ele>96.8</ele>
        <time>2026-06-20T07:09:34Z</time>
      </trkpt>
      <trkpt lat="47.24695" lon="-0.21927">
        <ele>96.8</ele>
        <time>2026-06-20T07:09:35Z</time>
      </trkpt>
      <trkpt lat="47.24699" lon="-0.21928">
        <ele>96.6</ele>
        <time>2026-06-20T07:09:36Z</time>
      </trkpt>
      <trkpt lat="47.24703" lon="-0.21928">
        <ele>96.6</ele>
        <time>2026-06-20T07:09:37Z</time>
      </trkpt>
      <trkpt lat="47.24706" lon="-0.21929">
        <ele>96.6</ele>
        <time>2026-06-20T07:09:38Z</time>
      </trkpt>
      <trkpt lat="47.2471" lon="-0.21929">
        <ele>96.6</ele>
        <time>2026-06-20T07:09:39Z</time>
      </trkpt>
      <trkpt lat="47.24714" lon="-0.21929">
        <ele>96.8</ele>
        <time>2026-06-20T07:09:40Z</time>
      </trkpt>
      <trkpt lat="47.24718" lon="-0.2193">
        <ele>96.8</ele>
        <time>2026-06-20T07:09:41Z</time>
      </trkpt>
      <trkpt lat="47.24722" lon="-0.2193">
        <ele>96.8</ele>
        <time>2026-06-20T07:09:42Z</time>
      </trkpt>
      <trkpt lat="47.24726" lon="-0.21931">
        <ele>96.8</ele>
        <time>2026-06-20T07:09:43Z</time>
      </trkpt>
      <trkpt lat="47.2473" lon="-0.21931">
        <ele>97</ele>
        <time>2026-06-20T07:09:44Z</time>
      </trkpt>
      <trkpt lat="47.24734" lon="-0.21931">
        <ele>97</ele>
        <time>2026-06-20T07:09:45Z</time>
      </trkpt>
      <trkpt lat="47.24738" lon="-0.21931">
        <ele>97</ele>
        <time>2026-06-20T07:09:46Z</time>
      </trkpt>
      <trkpt lat="47.24742" lon="-0.21931">
        <ele>97</ele>
        <time>2026-06-20T07:09:47Z</time>
      </trkpt>
      <trkpt lat="47.24746" lon="-0.21931">
        <ele>97.2</ele>
        <time>2026-06-20T07:09:48Z</time>
      </trkpt>
      <trkpt lat="47.2475" lon="-0.21931">
        <ele>97.2</ele>
        <time>2026-06-20T07:09:49Z</time>
      </trkpt>
      <trkpt lat="47.24754" lon="-0.21932">
        <ele>97.2</ele>
        <time>2026-06-20T07:09:50Z</time>
      </trkpt>
      <trkpt lat="47.24758" lon="-0.21933">
        <ele>97.2</ele>
        <time>2026-06-20T07:09:51Z</time>
      </trkpt>
      <trkpt lat="47.24763" lon="-0.21934">
        <ele>97.2</ele>
        <time>2026-06-20T07:09:52Z</time>
      </trkpt>
      <trkpt lat="47.24767" lon="-0.21934">
        <ele>97.2</ele>
        <time>2026-06-20T07:09:53Z</time>
      </trkpt>
      <trkpt lat="47.24771" lon="-0.21935">
        <ele>97.2</ele>
        <time>2026-06-20T07:09:54Z</time>
      </trkpt>
      <trkpt lat="47.24775" lon="-0.21936">
        <ele>97.2</ele>
        <time>2026-06-20T07:09:55Z</time>
      </trkpt>
      <trkpt lat="47.24779" lon="-0.21939">
        <ele>97.2</ele>
        <time>2026-06-20T07:09:56Z</time>
      </trkpt>
      <trkpt lat="47.24782" lon="-0.21942">
        <ele>97.2</ele>
        <time>2026-06-20T07:09:57Z</time>
      </trkpt>
      <trkpt lat="47.24786" lon="-0.21945">
        <ele>97</ele>
        <time>2026-06-20T07:09:58Z</time>
      </trkpt>
      <trkpt lat="47.24789" lon="-0.21948">
        <ele>97</ele>
        <time>2026-06-20T07:09:59Z</time>
      </trkpt>
      <trkpt lat="47.24793" lon="-0.21952">
        <ele>97</ele>
        <time>2026-06-20T07:10:00Z</time>
      </trkpt>
      <trkpt lat="47.24797" lon="-0.21956">
        <ele>96.8</ele>
        <time>2026-06-20T07:10:01Z</time>
      </trkpt>
      <trkpt lat="47.24801" lon="-0.21959">
        <ele>96.8</ele>
        <time>2026-06-20T07:10:02Z</time>
      </trkpt>
      <trkpt lat="47.24806" lon="-0.21961">
        <ele>96.6</ele>
        <time>2026-06-20T07:10:03Z</time>
      </trkpt>
      <trkpt lat="47.2481" lon="-0.21964">
        <ele>96.6</ele>
        <time>2026-06-20T07:10:04Z</time>
      </trkpt>
      <trkpt lat="47.24815" lon="-0.21968">
        <ele>96.4</ele>
        <time>2026-06-20T07:10:05Z</time>
      </trkpt>
      <trkpt lat="47.24819" lon="-0.21972">
        <ele>96.4</ele>
        <time>2026-06-20T07:10:06Z</time>
      </trkpt>
      <trkpt lat="47.24823" lon="-0.21975">
        <ele>96.2</ele>
        <time>2026-06-20T07:10:07Z</time>
      </trkpt>
      <trkpt lat="47.24826" lon="-0.21979">
        <ele>96.2</ele>
        <time>2026-06-20T07:10:08Z</time>
      </trkpt>
      <trkpt lat="47.2483" lon="-0.21983">
        <ele>96</ele>
        <time>2026-06-20T07:10:09Z</time>
      </trkpt>
      <trkpt lat="47.24835" lon="-0.21987">
        <ele>96</ele>
        <time>2026-06-20T07:10:10Z</time>
      </trkpt>
      <trkpt lat="47.2484" lon="-0.21989">
        <ele>95.8</ele>
        <time>2026-06-20T07:10:11Z</time>
      </trkpt>
      <trkpt lat="47.24845" lon="-0.21992">
        <ele>95.6</ele>
        <time>2026-06-20T07:10:12Z</time>
      </trkpt>
      <trkpt lat="47.24851" lon="-0.21995">
        <ele>95.2</ele>
        <time>2026-06-20T07:10:13Z</time>
      </trkpt>
      <trkpt lat="47.24856" lon="-0.21997">
        <ele>95</ele>
        <time>2026-06-20T07:10:14Z</time>
      </trkpt>
      <trkpt lat="47.24861" lon="-0.22001">
        <ele>94.8</ele>
        <time>2026-06-20T07:10:15Z</time>
      </trkpt>
      <trkpt lat="47.24865" lon="-0.22003">
        <ele>94.8</ele>
        <time>2026-06-20T07:10:16Z</time>
      </trkpt>
      <trkpt lat="47.2487" lon="-0.22006">
        <ele>94.8</ele>
        <time>2026-06-20T07:10:17Z</time>
      </trkpt>
      <trkpt lat="47.24875" lon="-0.22009">
        <ele>94.6</ele>
        <time>2026-06-20T07:10:18Z</time>
      </trkpt>
      <trkpt lat="47.2488" lon="-0.22011">
        <ele>94.6</ele>
        <time>2026-06-20T07:10:19Z</time>
      </trkpt>
      <trkpt lat="47.24884" lon="-0.22013">
        <ele>94.6</ele>
        <time>2026-06-20T07:10:20Z</time>
      </trkpt>
      <trkpt lat="47.24888" lon="-0.22015">
        <ele>94.6</ele>
        <time>2026-06-20T07:10:21Z</time>
      </trkpt>
      <trkpt lat="47.24893" lon="-0.22016">
        <ele>94.6</ele>
        <time>2026-06-20T07:10:22Z</time>
      </trkpt>
      <trkpt lat="47.24897" lon="-0.22018">
        <ele>94.6</ele>
        <time>2026-06-20T07:10:23Z</time>
      </trkpt>
      <trkpt lat="47.24901" lon="-0.22019">
        <ele>94.6</ele>
        <time>2026-06-20T07:10:24Z</time>
      </trkpt>
      <trkpt lat="47.24905" lon="-0.22022">
        <ele>94.4</ele>
        <time>2026-06-20T07:10:25Z</time>
      </trkpt>
      <trkpt lat="47.24909" lon="-0.22024">
        <ele>94.4</ele>
        <time>2026-06-20T07:10:26Z</time>
      </trkpt>
      <trkpt lat="47.24913" lon="-0.22026">
        <ele>94.4</ele>
        <time>2026-06-20T07:10:27Z</time>
      </trkpt>
      <trkpt lat="47.24917" lon="-0.22027">
        <ele>94.2</ele>
        <time>2026-06-20T07:10:28Z</time>
      </trkpt>
      <trkpt lat="47.24922" lon="-0.22026">
        <ele>94.2</ele>
        <time>2026-06-20T07:10:29Z</time>
      </trkpt>
      <trkpt lat="47.24927" lon="-0.22024">
        <ele>94</ele>
        <time>2026-06-20T07:10:30Z</time>
      </trkpt>
      <trkpt lat="47.24931" lon="-0.22023">
        <ele>94</ele>
        <time>2026-06-20T07:10:31Z</time>
      </trkpt>
      <trkpt lat="47.24936" lon="-0.22021">
        <ele>93.8</ele>
        <time>2026-06-20T07:10:32Z</time>
      </trkpt>
      <trkpt lat="47.24941" lon="-0.2202">
        <ele>93.8</ele>
        <time>2026-06-20T07:10:33Z</time>
      </trkpt>
      <trkpt lat="47.24946" lon="-0.2202">
        <ele>93.8</ele>
        <time>2026-06-20T07:10:34Z</time>
      </trkpt>
      <trkpt lat="47.24951" lon="-0.22019">
        <ele>93.6</ele>
        <time>2026-06-20T07:10:35Z</time>
      </trkpt>
      <trkpt lat="47.24956" lon="-0.22019">
        <ele>93.6</ele>
        <time>2026-06-20T07:10:36Z</time>
      </trkpt>
      <trkpt lat="47.24961" lon="-0.22019">
        <ele>93.6</ele>
        <time>2026-06-20T07:10:37Z</time>
      </trkpt>
      <trkpt lat="47.24966" lon="-0.22019">
        <ele>93.6</ele>
        <time>2026-06-20T07:10:38Z</time>
      </trkpt>
      <trkpt lat="47.24971" lon="-0.22019">
        <ele>93.6</ele>
        <time>2026-06-20T07:10:39Z</time>
      </trkpt>
      <trkpt lat="47.24976" lon="-0.22018">
        <ele>93.6</ele>
        <time>2026-06-20T07:10:40Z</time>
      </trkpt>
      <trkpt lat="47.2498" lon="-0.22018">
        <ele>93.6</ele>
        <time>2026-06-20T07:10:41Z</time>
      </trkpt>
      <trkpt lat="47.24985" lon="-0.22018">
        <ele>93.6</ele>
        <time>2026-06-20T07:10:42Z</time>
      </trkpt>
      <trkpt lat="47.2499" lon="-0.22018">
        <ele>93.6</ele>
        <time>2026-06-20T07:10:43Z</time>
      </trkpt>
      <trkpt lat="47.24995" lon="-0.22018">
        <ele>93.4</ele>
        <time>2026-06-20T07:10:44Z</time>
      </trkpt>
      <trkpt lat="47.25" lon="-0.22018">
        <ele>93.4</ele>
        <time>2026-06-20T07:10:45Z</time>
      </trkpt>
      <trkpt lat="47.25005" lon="-0.22017">
        <ele>93.4</ele>
        <time>2026-06-20T07:10:46Z</time>
      </trkpt>
      <trkpt lat="47.2501" lon="-0.22017">
        <ele>93.4</ele>
        <time>2026-06-20T07:10:47Z</time>
      </trkpt>
      <trkpt lat="47.25015" lon="-0.22016">
        <ele>93.4</ele>
        <time>2026-06-20T07:10:48Z</time>
      </trkpt>
      <trkpt lat="47.2502" lon="-0.22016">
        <ele>93.4</ele>
        <time>2026-06-20T07:10:49Z</time>
      </trkpt>
      <trkpt lat="47.25026" lon="-0.22015">
        <ele>93.4</ele>
        <time>2026-06-20T07:10:50Z</time>
      </trkpt>
      <trkpt lat="47.25031" lon="-0.22015">
        <ele>93.4</ele>
        <time>2026-06-20T07:10:51Z</time>
      </trkpt>
      <trkpt lat="47.25037" lon="-0.22015">
        <ele>93.2</ele>
        <time>2026-06-20T07:10:52Z</time>
      </trkpt>
      <trkpt lat="47.25042" lon="-0.22015">
        <ele>93.2</ele>
        <time>2026-06-20T07:10:53Z</time>
      </trkpt>
      <trkpt lat="47.25047" lon="-0.22015">
        <ele>93.2</ele>
        <time>2026-06-20T07:10:54Z</time>
      </trkpt>
      <trkpt lat="47.25052" lon="-0.22015">
        <ele>93.2</ele>
        <time>2026-06-20T07:10:55Z</time>
      </trkpt>
      <trkpt lat="47.25057" lon="-0.22014">
        <ele>93.2</ele>
        <time>2026-06-20T07:10:56Z</time>
      </trkpt>
      <trkpt lat="47.25062" lon="-0.22014">
        <ele>93.2</ele>
        <time>2026-06-20T07:10:57Z</time>
      </trkpt>
      <trkpt lat="47.25067" lon="-0.22013">
        <ele>93.2</ele>
        <time>2026-06-20T07:10:58Z</time>
      </trkpt>
      <trkpt lat="47.25072" lon="-0.22011">
        <ele>93.2</ele>
        <time>2026-06-20T07:10:59Z</time>
      </trkpt>
      <trkpt lat="47.25077" lon="-0.2201">
        <ele>93.2</ele>
        <time>2026-06-20T07:11:00Z</time>
      </trkpt>
      <trkpt lat="47.25082" lon="-0.22008">
        <ele>93.2</ele>
        <time>2026-06-20T07:11:01Z</time>
      </trkpt>
      <trkpt lat="47.25086" lon="-0.22007">
        <ele>93</ele>
        <time>2026-06-20T07:11:02Z</time>
      </trkpt>
      <trkpt lat="47.25091" lon="-0.22006">
        <ele>93.2</ele>
        <time>2026-06-20T07:11:03Z</time>
      </trkpt>
      <trkpt lat="47.25096" lon="-0.22006">
        <ele>93.2</ele>
        <time>2026-06-20T07:11:04Z</time>
      </trkpt>
      <trkpt lat="47.251" lon="-0.22008">
        <ele>93.2</ele>
        <time>2026-06-20T07:11:05Z</time>
      </trkpt>
      <trkpt lat="47.25103" lon="-0.22012">
        <ele>93.2</ele>
        <time>2026-06-20T07:11:06Z</time>
      </trkpt>
      <trkpt lat="47.25104" lon="-0.22018">
        <ele>93.2</ele>
        <time>2026-06-20T07:11:07Z</time>
      </trkpt>
      <trkpt lat="47.25104" lon="-0.22024">
        <ele>93.2</ele>
        <time>2026-06-20T07:11:08Z</time>
      </trkpt>
      <trkpt lat="47.25103" lon="-0.22031">
        <ele>93.2</ele>
        <time>2026-06-20T07:11:09Z</time>
      </trkpt>
      <trkpt lat="47.25102" lon="-0.22038">
        <ele>93.2</ele>
        <time>2026-06-20T07:11:10Z</time>
      </trkpt>
      <trkpt lat="47.25101" lon="-0.22045">
        <ele>93.2</ele>
        <time>2026-06-20T07:11:11Z</time>
      </trkpt>
      <trkpt lat="47.251" lon="-0.22052">
        <ele>93.2</ele>
        <time>2026-06-20T07:11:12Z</time>
      </trkpt>
      <trkpt lat="47.25098" lon="-0.22059">
        <ele>93.2</ele>
        <time>2026-06-20T07:11:13Z</time>
      </trkpt>
      <trkpt lat="47.25098" lon="-0.22066">
        <ele>93.2</ele>
        <time>2026-06-20T07:11:14Z</time>
      </trkpt>
      <trkpt lat="47.25097" lon="-0.22074">
        <ele>93.2</ele>
        <time>2026-06-20T07:11:15Z</time>
      </trkpt>
      <trkpt lat="47.25096" lon="-0.22081">
        <ele>93.4</ele>
        <time>2026-06-20T07:11:16Z</time>
      </trkpt>
      <trkpt lat="47.25095" lon="-0.22089">
        <ele>93.4</ele>
        <time>2026-06-20T07:11:17Z</time>
      </trkpt>
      <trkpt lat="47.25094" lon="-0.22097">
        <ele>93.4</ele>
        <time>2026-06-20T07:11:18Z</time>
      </trkpt>
      <trkpt lat="47.25093" lon="-0.22105">
        <ele>93.4</ele>
        <time>2026-06-20T07:11:19Z</time>
      </trkpt>
      <trkpt lat="47.25093" lon="-0.22113">
        <ele>93.4</ele>
        <time>2026-06-20T07:11:20Z</time>
      </trkpt>
      <trkpt lat="47.25092" lon="-0.22121">
        <ele>93.4</ele>
        <time>2026-06-20T07:11:21Z</time>
      </trkpt>
      <trkpt lat="47.25091" lon="-0.22129">
        <ele>93.2</ele>
        <time>2026-06-20T07:11:22Z</time>
      </trkpt>
      <trkpt lat="47.2509" lon="-0.22137">
        <ele>93.2</ele>
        <time>2026-06-20T07:11:23Z</time>
      </trkpt>
      <trkpt lat="47.25089" lon="-0.22145">
        <ele>93.2</ele>
        <time>2026-06-20T07:11:24Z</time>
      </trkpt>
      <trkpt lat="47.25089" lon="-0.22153">
        <ele>93.2</ele>
        <time>2026-06-20T07:11:25Z</time>
      </trkpt>
      <trkpt lat="47.25088" lon="-0.22161">
        <ele>93</ele>
        <time>2026-06-20T07:11:26Z</time>
      </trkpt>
      <trkpt lat="47.25087" lon="-0.22169">
        <ele>93</ele>
        <time>2026-06-20T07:11:27Z</time>
      </trkpt>
      <trkpt lat="47.25087" lon="-0.22177">
        <ele>93</ele>
        <time>2026-06-20T07:11:28Z</time>
      </trkpt>
      <trkpt lat="47.25086" lon="-0.22186">
        <ele>93.2</ele>
        <time>2026-06-20T07:11:29Z</time>
      </trkpt>
      <trkpt lat="47.25085" lon="-0.22194">
        <ele>93.2</ele>
        <time>2026-06-20T07:11:30Z</time>
      </trkpt>
      <trkpt lat="47.25085" lon="-0.22202">
        <ele>93.4</ele>
        <time>2026-06-20T07:11:31Z</time>
      </trkpt>
      <trkpt lat="47.25084" lon="-0.2221">
        <ele>93.4</ele>
        <time>2026-06-20T07:11:32Z</time>
      </trkpt>
      <trkpt lat="47.25083" lon="-0.22218">
        <ele>93.6</ele>
        <time>2026-06-20T07:11:33Z</time>
      </trkpt>
      <trkpt lat="47.25082" lon="-0.22227">
        <ele>93.6</ele>
        <time>2026-06-20T07:11:34Z</time>
      </trkpt>
      <trkpt lat="47.25082" lon="-0.22235">
        <ele>93.8</ele>
        <time>2026-06-20T07:11:35Z</time>
      </trkpt>
      <trkpt lat="47.25081" lon="-0.22243">
        <ele>93.8</ele>
        <time>2026-06-20T07:11:36Z</time>
      </trkpt>
      <trkpt lat="47.2508" lon="-0.22251">
        <ele>93.8</ele>
        <time>2026-06-20T07:11:37Z</time>
      </trkpt>
      <trkpt lat="47.25079" lon="-0.22259">
        <ele>93.8</ele>
        <time>2026-06-20T07:11:38Z</time>
      </trkpt>
      <trkpt lat="47.25079" lon="-0.22266">
        <ele>94</ele>
        <time>2026-06-20T07:11:39Z</time>
      </trkpt>
      <trkpt lat="47.25078" lon="-0.22274">
        <ele>94</ele>
        <time>2026-06-20T07:11:40Z</time>
      </trkpt>
      <trkpt lat="47.25077" lon="-0.22282">
        <ele>94.2</ele>
        <time>2026-06-20T07:11:41Z</time>
      </trkpt>
      <trkpt lat="47.25076" lon="-0.22289">
        <ele>94.2</ele>
        <time>2026-06-20T07:11:42Z</time>
      </trkpt>
      <trkpt lat="47.25076" lon="-0.22296">
        <ele>94.4</ele>
        <time>2026-06-20T07:11:43Z</time>
      </trkpt>
      <trkpt lat="47.25075" lon="-0.22304">
        <ele>94.4</ele>
        <time>2026-06-20T07:11:44Z</time>
      </trkpt>
      <trkpt lat="47.25075" lon="-0.22311">
        <ele>94.6</ele>
        <time>2026-06-20T07:11:45Z</time>
      </trkpt>
      <trkpt lat="47.25074" lon="-0.22318">
        <ele>94.6</ele>
        <time>2026-06-20T07:11:46Z</time>
      </trkpt>
      <trkpt lat="47.25073" lon="-0.22326">
        <ele>94.6</ele>
        <time>2026-06-20T07:11:47Z</time>
      </trkpt>
      <trkpt lat="47.25074" lon="-0.22333">
        <ele>94.6</ele>
        <time>2026-06-20T07:11:48Z</time>
      </trkpt>
      <trkpt lat="47.25077" lon="-0.22338">
        <ele>94.6</ele>
        <time>2026-06-20T07:11:49Z</time>
      </trkpt>
      <trkpt lat="47.25082" lon="-0.2234">
        <ele>94.6</ele>
        <time>2026-06-20T07:11:50Z</time>
      </trkpt>
      <trkpt lat="47.25087" lon="-0.2234">
        <ele>94.6</ele>
        <time>2026-06-20T07:11:51Z</time>
      </trkpt>
      <trkpt lat="47.25091" lon="-0.2234">
        <ele>94.6</ele>
        <time>2026-06-20T07:11:52Z</time>
      </trkpt>
      <trkpt lat="47.25096" lon="-0.22339">
        <ele>94.6</ele>
        <time>2026-06-20T07:11:53Z</time>
      </trkpt>
      <trkpt lat="47.25101" lon="-0.22338">
        <ele>94.8</ele>
        <time>2026-06-20T07:11:54Z</time>
      </trkpt>
      <trkpt lat="47.25107" lon="-0.22337">
        <ele>94.8</ele>
        <time>2026-06-20T07:11:55Z</time>
      </trkpt>
      <trkpt lat="47.25112" lon="-0.22336">
        <ele>94.8</ele>
        <time>2026-06-20T07:11:56Z</time>
      </trkpt>
      <trkpt lat="47.25117" lon="-0.22335">
        <ele>94.8</ele>
        <time>2026-06-20T07:11:57Z</time>
      </trkpt>
      <trkpt lat="47.25123" lon="-0.22334">
        <ele>94.8</ele>
        <time>2026-06-20T07:11:58Z</time>
      </trkpt>
      <trkpt lat="47.25128" lon="-0.22333">
        <ele>94.8</ele>
        <time>2026-06-20T07:11:59Z</time>
      </trkpt>
      <trkpt lat="47.25133" lon="-0.22333">
        <ele>94.8</ele>
        <time>2026-06-20T07:12:00Z</time>
      </trkpt>
      <trkpt lat="47.25138" lon="-0.22332">
        <ele>94.6</ele>
        <time>2026-06-20T07:12:01Z</time>
      </trkpt>
      <trkpt lat="47.25144" lon="-0.22331">
        <ele>94.6</ele>
        <time>2026-06-20T07:12:02Z</time>
      </trkpt>
      <trkpt lat="47.25149" lon="-0.22331">
        <ele>94.6</ele>
        <time>2026-06-20T07:12:03Z</time>
      </trkpt>
      <trkpt lat="47.25154" lon="-0.22329">
        <ele>94.6</ele>
        <time>2026-06-20T07:12:04Z</time>
      </trkpt>
      <trkpt lat="47.25159" lon="-0.22328">
        <ele>94.6</ele>
        <time>2026-06-20T07:12:05Z</time>
      </trkpt>
      <trkpt lat="47.25164" lon="-0.22326">
        <ele>94.6</ele>
        <time>2026-06-20T07:12:06Z</time>
      </trkpt>
      <trkpt lat="47.25169" lon="-0.22325">
        <ele>94.6</ele>
        <time>2026-06-20T07:12:07Z</time>
      </trkpt>
      <trkpt lat="47.25175" lon="-0.22323">
        <ele>94.4</ele>
        <time>2026-06-20T07:12:08Z</time>
      </trkpt>
      <trkpt lat="47.2518" lon="-0.22321">
        <ele>94.4</ele>
        <time>2026-06-20T07:12:09Z</time>
      </trkpt>
      <trkpt lat="47.25185" lon="-0.22318">
        <ele>94.6</ele>
        <time>2026-06-20T07:12:10Z</time>
      </trkpt>
      <trkpt lat="47.2519" lon="-0.22316">
        <ele>94.4</ele>
        <time>2026-06-20T07:12:11Z</time>
      </trkpt>
      <trkpt lat="47.25196" lon="-0.22314">
        <ele>94.6</ele>
        <time>2026-06-20T07:12:12Z</time>
      </trkpt>
      <trkpt lat="47.25201" lon="-0.22312">
        <ele>94.4</ele>
        <time>2026-06-20T07:12:13Z</time>
      </trkpt>
      <trkpt lat="47.25206" lon="-0.2231">
        <ele>94.4</ele>
        <time>2026-06-20T07:12:14Z</time>
      </trkpt>
      <trkpt lat="47.25211" lon="-0.22308">
        <ele>94.4</ele>
        <time>2026-06-20T07:12:15Z</time>
      </trkpt>
      <trkpt lat="47.25216" lon="-0.22306">
        <ele>94.2</ele>
        <time>2026-06-20T07:12:16Z</time>
      </trkpt>
      <trkpt lat="47.25222" lon="-0.22304">
        <ele>94.2</ele>
        <time>2026-06-20T07:12:17Z</time>
      </trkpt>
      <trkpt lat="47.25227" lon="-0.22302">
        <ele>94.2</ele>
        <time>2026-06-20T07:12:18Z</time>
      </trkpt>
      <trkpt lat="47.25232" lon="-0.223">
        <ele>94.2</ele>
        <time>2026-06-20T07:12:19Z</time>
      </trkpt>
      <trkpt lat="47.25237" lon="-0.22298">
        <ele>94.2</ele>
        <time>2026-06-20T07:12:20Z</time>
      </trkpt>
      <trkpt lat="47.25243" lon="-0.22296">
        <ele>94.2</ele>
        <time>2026-06-20T07:12:21Z</time>
      </trkpt>
      <trkpt lat="47.25248" lon="-0.22295">
        <ele>94</ele>
        <time>2026-06-20T07:12:22Z</time>
      </trkpt>
      <trkpt lat="47.25253" lon="-0.22293">
        <ele>94</ele>
        <time>2026-06-20T07:12:23Z</time>
      </trkpt>
      <trkpt lat="47.25259" lon="-0.22291">
        <ele>94</ele>
        <time>2026-06-20T07:12:24Z</time>
      </trkpt>
      <trkpt lat="47.25264" lon="-0.2229">
        <ele>94</ele>
        <time>2026-06-20T07:12:25Z</time>
      </trkpt>
      <trkpt lat="47.25269" lon="-0.22288">
        <ele>94</ele>
        <time>2026-06-20T07:12:26Z</time>
      </trkpt>
      <trkpt lat="47.25274" lon="-0.22287">
        <ele>94</ele>
        <time>2026-06-20T07:12:27Z</time>
      </trkpt>
      <trkpt lat="47.25279" lon="-0.22286">
        <ele>94</ele>
        <time>2026-06-20T07:12:28Z</time>
      </trkpt>
      <trkpt lat="47.25285" lon="-0.22285">
        <ele>94</ele>
        <time>2026-06-20T07:12:29Z</time>
      </trkpt>
      <trkpt lat="47.2529" lon="-0.22283">
        <ele>94</ele>
        <time>2026-06-20T07:12:30Z</time>
      </trkpt>
      <trkpt lat="47.25295" lon="-0.22282">
        <ele>94</ele>
        <time>2026-06-20T07:12:31Z</time>
      </trkpt>
      <trkpt lat="47.253" lon="-0.22281">
        <ele>94</ele>
        <time>2026-06-20T07:12:32Z</time>
      </trkpt>
      <trkpt lat="47.25305" lon="-0.2228">
        <ele>94</ele>
        <time>2026-06-20T07:12:33Z</time>
      </trkpt>
      <trkpt lat="47.2531" lon="-0.22278">
        <ele>94</ele>
        <time>2026-06-20T07:12:34Z</time>
      </trkpt>
      <trkpt lat="47.25315" lon="-0.22277">
        <ele>94</ele>
        <time>2026-06-20T07:12:35Z</time>
      </trkpt>
      <trkpt lat="47.2532" lon="-0.22276">
        <ele>94.2</ele>
        <time>2026-06-20T07:12:36Z</time>
      </trkpt>
      <trkpt lat="47.25325" lon="-0.22274">
        <ele>94</ele>
        <time>2026-06-20T07:12:37Z</time>
      </trkpt>
      <trkpt lat="47.25329" lon="-0.22273">
        <ele>94</ele>
        <time>2026-06-20T07:12:38Z</time>
      </trkpt>
      <trkpt lat="47.25334" lon="-0.22272">
        <ele>94</ele>
        <time>2026-06-20T07:12:39Z</time>
      </trkpt>
      <trkpt lat="47.25339" lon="-0.22271">
        <ele>94</ele>
        <time>2026-06-20T07:12:40Z</time>
      </trkpt>
      <trkpt lat="47.25344" lon="-0.22269">
        <ele>94</ele>
        <time>2026-06-20T07:12:41Z</time>
      </trkpt>
      <trkpt lat="47.25349" lon="-0.22268">
        <ele>94</ele>
        <time>2026-06-20T07:12:42Z</time>
      </trkpt>
      <trkpt lat="47.25354" lon="-0.22267">
        <ele>94.2</ele>
        <time>2026-06-20T07:12:43Z</time>
      </trkpt>
      <trkpt lat="47.25359" lon="-0.22266">
        <ele>94.2</ele>
        <time>2026-06-20T07:12:44Z</time>
      </trkpt>
      <trkpt lat="47.25364" lon="-0.22264">
        <ele>94.2</ele>
        <time>2026-06-20T07:12:45Z</time>
      </trkpt>
      <trkpt lat="47.25369" lon="-0.22263">
        <ele>94.2</ele>
        <time>2026-06-20T07:12:46Z</time>
      </trkpt>
      <trkpt lat="47.25373" lon="-0.22262">
        <ele>94.2</ele>
        <time>2026-06-20T07:12:47Z</time>
      </trkpt>
      <trkpt lat="47.25378" lon="-0.22261">
        <ele>94.2</ele>
        <time>2026-06-20T07:12:48Z</time>
      </trkpt>
      <trkpt lat="47.25383" lon="-0.2226">
        <ele>94.2</ele>
        <time>2026-06-20T07:12:49Z</time>
      </trkpt>
      <trkpt lat="47.25388" lon="-0.22259">
        <ele>94.2</ele>
        <time>2026-06-20T07:12:50Z</time>
      </trkpt>
      <trkpt lat="47.25393" lon="-0.22258">
        <ele>94.2</ele>
        <time>2026-06-20T07:12:51Z</time>
      </trkpt>
      <trkpt lat="47.25398" lon="-0.22257">
        <ele>94.2</ele>
        <time>2026-06-20T07:12:52Z</time>
      </trkpt>
      <trkpt lat="47.25403" lon="-0.22255">
        <ele>94.4</ele>
        <time>2026-06-20T07:12:53Z</time>
      </trkpt>
      <trkpt lat="47.25408" lon="-0.22254">
        <ele>94.4</ele>
        <time>2026-06-20T07:12:54Z</time>
      </trkpt>
      <trkpt lat="47.25412" lon="-0.22253">
        <ele>94.6</ele>
        <time>2026-06-20T07:12:55Z</time>
      </trkpt>
      <trkpt lat="47.25417" lon="-0.22252">
        <ele>94.8</ele>
        <time>2026-06-20T07:12:56Z</time>
      </trkpt>
      <trkpt lat="47.25421" lon="-0.2225">
        <ele>94.8</ele>
        <time>2026-06-20T07:12:57Z</time>
      </trkpt>
      <trkpt lat="47.25426" lon="-0.22249">
        <ele>94.8</ele>
        <time>2026-06-20T07:12:58Z</time>
      </trkpt>
      <trkpt lat="47.25431" lon="-0.22248">
        <ele>95</ele>
        <time>2026-06-20T07:12:59Z</time>
      </trkpt>
      <trkpt lat="47.25435" lon="-0.22247">
        <ele>95</ele>
        <time>2026-06-20T07:13:00Z</time>
      </trkpt>
      <trkpt lat="47.2544" lon="-0.22246">
        <ele>95</ele>
        <time>2026-06-20T07:13:01Z</time>
      </trkpt>
      <trkpt lat="47.25445" lon="-0.22245">
        <ele>95</ele>
        <time>2026-06-20T07:13:02Z</time>
      </trkpt>
      <trkpt lat="47.25449" lon="-0.22244">
        <ele>95</ele>
        <time>2026-06-20T07:13:03Z</time>
      </trkpt>
      <trkpt lat="47.25454" lon="-0.22243">
        <ele>95</ele>
        <time>2026-06-20T07:13:04Z</time>
      </trkpt>
      <trkpt lat="47.25459" lon="-0.22242">
        <ele>95</ele>
        <time>2026-06-20T07:13:05Z</time>
      </trkpt>
      <trkpt lat="47.25463" lon="-0.2224">
        <ele>95</ele>
        <time>2026-06-20T07:13:06Z</time>
      </trkpt>
      <trkpt lat="47.25468" lon="-0.2224">
        <ele>95</ele>
        <time>2026-06-20T07:13:07Z</time>
      </trkpt>
      <trkpt lat="47.25473" lon="-0.2224">
        <ele>95</ele>
        <time>2026-06-20T07:13:08Z</time>
      </trkpt>
      <trkpt lat="47.25477" lon="-0.22241">
        <ele>95</ele>
        <time>2026-06-20T07:13:09Z</time>
      </trkpt>
      <trkpt lat="47.25482" lon="-0.22242">
        <ele>95.2</ele>
        <time>2026-06-20T07:13:10Z</time>
      </trkpt>
      <trkpt lat="47.25487" lon="-0.22244">
        <ele>95.2</ele>
        <time>2026-06-20T07:13:11Z</time>
      </trkpt>
      <trkpt lat="47.25491" lon="-0.22245">
        <ele>95.2</ele>
        <time>2026-06-20T07:13:12Z</time>
      </trkpt>
      <trkpt lat="47.25496" lon="-0.22245">
        <ele>95.4</ele>
        <time>2026-06-20T07:13:13Z</time>
      </trkpt>
      <trkpt lat="47.25501" lon="-0.22245">
        <ele>95.2</ele>
        <time>2026-06-20T07:13:14Z</time>
      </trkpt>
      <trkpt lat="47.25507" lon="-0.22245">
        <ele>95.2</ele>
        <time>2026-06-20T07:13:15Z</time>
      </trkpt>
      <trkpt lat="47.25512" lon="-0.22244">
        <ele>95.2</ele>
        <time>2026-06-20T07:13:16Z</time>
      </trkpt>
      <trkpt lat="47.25518" lon="-0.22243">
        <ele>95</ele>
        <time>2026-06-20T07:13:17Z</time>
      </trkpt>
      <trkpt lat="47.25523" lon="-0.22242">
        <ele>95</ele>
        <time>2026-06-20T07:13:18Z</time>
      </trkpt>
      <trkpt lat="47.25528" lon="-0.2224">
        <ele>94.8</ele>
        <time>2026-06-20T07:13:19Z</time>
      </trkpt>
      <trkpt lat="47.25534" lon="-0.22239">
        <ele>94.8</ele>
        <time>2026-06-20T07:13:20Z</time>
      </trkpt>
      <trkpt lat="47.25539" lon="-0.22236">
        <ele>94.8</ele>
        <time>2026-06-20T07:13:21Z</time>
      </trkpt>
      <trkpt lat="47.25544" lon="-0.22234">
        <ele>94.8</ele>
        <time>2026-06-20T07:13:22Z</time>
      </trkpt>
      <trkpt lat="47.25549" lon="-0.22231">
        <ele>94.8</ele>
        <time>2026-06-20T07:13:23Z</time>
      </trkpt>
      <trkpt lat="47.25555" lon="-0.22228">
        <ele>95</ele>
        <time>2026-06-20T07:13:24Z</time>
      </trkpt>
      <trkpt lat="47.2556" lon="-0.22226">
        <ele>95</ele>
        <time>2026-06-20T07:13:25Z</time>
      </trkpt>
      <trkpt lat="47.25565" lon="-0.22224">
        <ele>95</ele>
        <time>2026-06-20T07:13:26Z</time>
      </trkpt>
      <trkpt lat="47.2557" lon="-0.22221">
        <ele>95</ele>
        <time>2026-06-20T07:13:27Z</time>
      </trkpt>
      <trkpt lat="47.25575" lon="-0.22219">
        <ele>95</ele>
        <time>2026-06-20T07:13:28Z</time>
      </trkpt>
      <trkpt lat="47.2558" lon="-0.22216">
        <ele>95.2</ele>
        <time>2026-06-20T07:13:29Z</time>
      </trkpt>
      <trkpt lat="47.25585" lon="-0.22213">
        <ele>95.2</ele>
        <time>2026-06-20T07:13:30Z</time>
      </trkpt>
      <trkpt lat="47.25591" lon="-0.22211">
        <ele>95.2</ele>
        <time>2026-06-20T07:13:31Z</time>
      </trkpt>
      <trkpt lat="47.25596" lon="-0.22208">
        <ele>95.2</ele>
        <time>2026-06-20T07:13:32Z</time>
      </trkpt>
      <trkpt lat="47.25601" lon="-0.22206">
        <ele>95.2</ele>
        <time>2026-06-20T07:13:33Z</time>
      </trkpt>
      <trkpt lat="47.25606" lon="-0.22203">
        <ele>95.4</ele>
        <time>2026-06-20T07:13:34Z</time>
      </trkpt>
      <trkpt lat="47.25611" lon="-0.222">
        <ele>95.4</ele>
        <time>2026-06-20T07:13:35Z</time>
      </trkpt>
      <trkpt lat="47.25616" lon="-0.22197">
        <ele>95.4</ele>
        <time>2026-06-20T07:13:36Z</time>
      </trkpt>
      <trkpt lat="47.25621" lon="-0.22194">
        <ele>95.4</ele>
        <time>2026-06-20T07:13:37Z</time>
      </trkpt>
      <trkpt lat="47.25626" lon="-0.22192">
        <ele>95.4</ele>
        <time>2026-06-20T07:13:38Z</time>
      </trkpt>
      <trkpt lat="47.25632" lon="-0.22189">
        <ele>95.4</ele>
        <time>2026-06-20T07:13:39Z</time>
      </trkpt>
      <trkpt lat="47.25637" lon="-0.22186">
        <ele>95.4</ele>
        <time>2026-06-20T07:13:40Z</time>
      </trkpt>
      <trkpt lat="47.25643" lon="-0.22183">
        <ele>95.2</ele>
        <time>2026-06-20T07:13:41Z</time>
      </trkpt>
      <trkpt lat="47.25649" lon="-0.2218">
        <ele>95</ele>
        <time>2026-06-20T07:13:42Z</time>
      </trkpt>
      <trkpt lat="47.25655" lon="-0.22177">
        <ele>95</ele>
        <time>2026-06-20T07:13:43Z</time>
      </trkpt>
      <trkpt lat="47.25661" lon="-0.22175">
        <ele>94.8</ele>
        <time>2026-06-20T07:13:44Z</time>
      </trkpt>
      <trkpt lat="47.25667" lon="-0.22173">
        <ele>94.4</ele>
        <time>2026-06-20T07:13:45Z</time>
      </trkpt>
      <trkpt lat="47.25673" lon="-0.22172">
        <ele>94.2</ele>
        <time>2026-06-20T07:13:46Z</time>
      </trkpt>
      <trkpt lat="47.25679" lon="-0.22171">
        <ele>93.8</ele>
        <time>2026-06-20T07:13:47Z</time>
      </trkpt>
      <trkpt lat="47.25684" lon="-0.2217">
        <ele>93.6</ele>
        <time>2026-06-20T07:13:48Z</time>
      </trkpt>
      <trkpt lat="47.25691" lon="-0.2217">
        <ele>93.4</ele>
        <time>2026-06-20T07:13:49Z</time>
      </trkpt>
      <trkpt lat="47.25697" lon="-0.2217">
        <ele>93.2</ele>
        <time>2026-06-20T07:13:50Z</time>
      </trkpt>
      <trkpt lat="47.25703" lon="-0.22171">
        <ele>93.2</ele>
        <time>2026-06-20T07:13:51Z</time>
      </trkpt>
      <trkpt lat="47.2571" lon="-0.22172">
        <ele>93</ele>
        <time>2026-06-20T07:13:52Z</time>
      </trkpt>
      <trkpt lat="47.25716" lon="-0.22173">
        <ele>92.8</ele>
        <time>2026-06-20T07:13:53Z</time>
      </trkpt>
      <trkpt lat="47.25722" lon="-0.22174">
        <ele>92.6</ele>
        <time>2026-06-20T07:13:54Z</time>
      </trkpt>
      <trkpt lat="47.25729" lon="-0.22176">
        <ele>92.4</ele>
        <time>2026-06-20T07:13:55Z</time>
      </trkpt>
      <trkpt lat="47.25736" lon="-0.22178">
        <ele>92.4</ele>
        <time>2026-06-20T07:13:56Z</time>
      </trkpt>
      <trkpt lat="47.25742" lon="-0.2218">
        <ele>92.2</ele>
        <time>2026-06-20T07:13:57Z</time>
      </trkpt>
      <trkpt lat="47.25749" lon="-0.22182">
        <ele>92</ele>
        <time>2026-06-20T07:13:58Z</time>
      </trkpt>
      <trkpt lat="47.25755" lon="-0.22185">
        <ele>92</ele>
        <time>2026-06-20T07:13:59Z</time>
      </trkpt>
      <trkpt lat="47.25762" lon="-0.22188">
        <ele>91.8</ele>
        <time>2026-06-20T07:14:00Z</time>
      </trkpt>
      <trkpt lat="47.25768" lon="-0.22191">
        <ele>91.8</ele>
        <time>2026-06-20T07:14:01Z</time>
      </trkpt>
      <trkpt lat="47.25774" lon="-0.22194">
        <ele>91.8</ele>
        <time>2026-06-20T07:14:02Z</time>
      </trkpt>
      <trkpt lat="47.25781" lon="-0.22198">
        <ele>91.8</ele>
        <time>2026-06-20T07:14:03Z</time>
      </trkpt>
      <trkpt lat="47.25787" lon="-0.22202">
        <ele>91.8</ele>
        <time>2026-06-20T07:14:04Z</time>
      </trkpt>
      <trkpt lat="47.25793" lon="-0.22206">
        <ele>91.8</ele>
        <time>2026-06-20T07:14:05Z</time>
      </trkpt>
      <trkpt lat="47.25798" lon="-0.2221">
        <ele>91.8</ele>
        <time>2026-06-20T07:14:06Z</time>
      </trkpt>
      <trkpt lat="47.25804" lon="-0.22214">
        <ele>91.8</ele>
        <time>2026-06-20T07:14:07Z</time>
      </trkpt>
      <trkpt lat="47.2581" lon="-0.22219">
        <ele>91.8</ele>
        <time>2026-06-20T07:14:08Z</time>
      </trkpt>
      <trkpt lat="47.25816" lon="-0.22224">
        <ele>91.8</ele>
        <time>2026-06-20T07:14:09Z</time>
      </trkpt>
      <trkpt lat="47.25821" lon="-0.22229">
        <ele>91.6</ele>
        <time>2026-06-20T07:14:10Z</time>
      </trkpt>
      <trkpt lat="47.25827" lon="-0.22235">
        <ele>91.6</ele>
        <time>2026-06-20T07:14:11Z</time>
      </trkpt>
      <trkpt lat="47.25832" lon="-0.22241">
        <ele>91.4</ele>
        <time>2026-06-20T07:14:12Z</time>
      </trkpt>
      <trkpt lat="47.25837" lon="-0.22247">
        <ele>91</ele>
        <time>2026-06-20T07:14:13Z</time>
      </trkpt>
      <trkpt lat="47.25842" lon="-0.22251">
        <ele>90.8</ele>
        <time>2026-06-20T07:14:14Z</time>
      </trkpt>
      <trkpt lat="47.25848" lon="-0.22254">
        <ele>90.6</ele>
        <time>2026-06-20T07:14:15Z</time>
      </trkpt>
      <trkpt lat="47.25855" lon="-0.22254">
        <ele>90.4</ele>
        <time>2026-06-20T07:14:16Z</time>
      </trkpt>
      <trkpt lat="47.25861" lon="-0.22252">
        <ele>90.2</ele>
        <time>2026-06-20T07:14:17Z</time>
      </trkpt>
      <trkpt lat="47.25867" lon="-0.22247">
        <ele>90.2</ele>
        <time>2026-06-20T07:14:18Z</time>
      </trkpt>
      <trkpt lat="47.25873" lon="-0.22243">
        <ele>90</ele>
        <time>2026-06-20T07:14:19Z</time>
      </trkpt>
      <trkpt lat="47.25878" lon="-0.22237">
        <ele>90</ele>
        <time>2026-06-20T07:14:20Z</time>
      </trkpt>
      <trkpt lat="47.25884" lon="-0.22232">
        <ele>90</ele>
        <time>2026-06-20T07:14:21Z</time>
      </trkpt>
      <trkpt lat="47.2589" lon="-0.22227">
        <ele>89.8</ele>
        <time>2026-06-20T07:14:22Z</time>
      </trkpt>
      <trkpt lat="47.25896" lon="-0.22223">
        <ele>89.8</ele>
        <time>2026-06-20T07:14:23Z</time>
      </trkpt>
      <trkpt lat="47.25902" lon="-0.22219">
        <ele>89.8</ele>
        <time>2026-06-20T07:14:24Z</time>
      </trkpt>
      <trkpt lat="47.25907" lon="-0.22215">
        <ele>89.8</ele>
        <time>2026-06-20T07:14:25Z</time>
      </trkpt>
      <trkpt lat="47.25913" lon="-0.22211">
        <ele>90</ele>
        <time>2026-06-20T07:14:26Z</time>
      </trkpt>
      <trkpt lat="47.25917" lon="-0.22207">
        <ele>90</ele>
        <time>2026-06-20T07:14:27Z</time>
      </trkpt>
      <trkpt lat="47.25922" lon="-0.22204">
        <ele>90.2</ele>
        <time>2026-06-20T07:14:28Z</time>
      </trkpt>
      <trkpt lat="47.25926" lon="-0.22201">
        <ele>90.4</ele>
        <time>2026-06-20T07:14:29Z</time>
      </trkpt>
      <trkpt lat="47.2593" lon="-0.22198">
        <ele>90.4</ele>
        <time>2026-06-20T07:14:30Z</time>
      </trkpt>
      <trkpt lat="47.25935" lon="-0.22195">
        <ele>90.4</ele>
        <time>2026-06-20T07:14:31Z</time>
      </trkpt>
      <trkpt lat="47.25939" lon="-0.22192">
        <ele>90.4</ele>
        <time>2026-06-20T07:14:32Z</time>
      </trkpt>
      <trkpt lat="47.25943" lon="-0.22189">
        <ele>90.4</ele>
        <time>2026-06-20T07:14:33Z</time>
      </trkpt>
      <trkpt lat="47.25947" lon="-0.22186">
        <ele>90.4</ele>
        <time>2026-06-20T07:14:34Z</time>
      </trkpt>
      <trkpt lat="47.25951" lon="-0.22183">
        <ele>90.4</ele>
        <time>2026-06-20T07:14:35Z</time>
      </trkpt>
      <trkpt lat="47.25955" lon="-0.2218">
        <ele>90.4</ele>
        <time>2026-06-20T07:14:36Z</time>
      </trkpt>
      <trkpt lat="47.25959" lon="-0.22178">
        <ele>90.4</ele>
        <time>2026-06-20T07:14:37Z</time>
      </trkpt>
      <trkpt lat="47.25964" lon="-0.22175">
        <ele>90.4</ele>
        <time>2026-06-20T07:14:38Z</time>
      </trkpt>
      <trkpt lat="47.25968" lon="-0.22172">
        <ele>90.4</ele>
        <time>2026-06-20T07:14:39Z</time>
      </trkpt>
      <trkpt lat="47.25972" lon="-0.2217">
        <ele>90.4</ele>
        <time>2026-06-20T07:14:40Z</time>
      </trkpt>
      <trkpt lat="47.25977" lon="-0.22168">
        <ele>90.2</ele>
        <time>2026-06-20T07:14:41Z</time>
      </trkpt>
      <trkpt lat="47.25981" lon="-0.22166">
        <ele>90.2</ele>
        <time>2026-06-20T07:14:42Z</time>
      </trkpt>
      <trkpt lat="47.25986" lon="-0.22164">
        <ele>90.2</ele>
        <time>2026-06-20T07:14:43Z</time>
      </trkpt>
      <trkpt lat="47.2599" lon="-0.22163">
        <ele>90.2</ele>
        <time>2026-06-20T07:14:44Z</time>
      </trkpt>
      <trkpt lat="47.25995" lon="-0.22162">
        <ele>90.2</ele>
        <time>2026-06-20T07:14:45Z</time>
      </trkpt>
      <trkpt lat="47.25999" lon="-0.2216">
        <ele>90.2</ele>
        <time>2026-06-20T07:14:46Z</time>
      </trkpt>
      <trkpt lat="47.26004" lon="-0.22159">
        <ele>90.2</ele>
        <time>2026-06-20T07:14:47Z</time>
      </trkpt>
      <trkpt lat="47.26008" lon="-0.22158">
        <ele>90.2</ele>
        <time>2026-06-20T07:14:48Z</time>
      </trkpt>
      <trkpt lat="47.26012" lon="-0.22157">
        <ele>90.2</ele>
        <time>2026-06-20T07:14:49Z</time>
      </trkpt>
      <trkpt lat="47.26016" lon="-0.22156">
        <ele>90.2</ele>
        <time>2026-06-20T07:14:50Z</time>
      </trkpt>
      <trkpt lat="47.2602" lon="-0.22155">
        <ele>90.2</ele>
        <time>2026-06-20T07:14:51Z</time>
      </trkpt>
      <trkpt lat="47.26024" lon="-0.22154">
        <ele>90.2</ele>
        <time>2026-06-20T07:14:52Z</time>
      </trkpt>
      <trkpt lat="47.26028" lon="-0.22153">
        <ele>90.2</ele>
        <time>2026-06-20T07:14:53Z</time>
      </trkpt>
      <trkpt lat="47.26031" lon="-0.22151">
        <ele>90.2</ele>
        <time>2026-06-20T07:14:54Z</time>
      </trkpt>
      <trkpt lat="47.26035" lon="-0.2215">
        <ele>90.2</ele>
        <time>2026-06-20T07:14:55Z</time>
      </trkpt>
      <trkpt lat="47.26038" lon="-0.22149">
        <ele>90.4</ele>
        <time>2026-06-20T07:14:56Z</time>
      </trkpt>
      <trkpt lat="47.26042" lon="-0.22149">
        <ele>90.4</ele>
        <time>2026-06-20T07:14:57Z</time>
      </trkpt>
      <trkpt lat="47.26046" lon="-0.22148">
        <ele>90.4</ele>
        <time>2026-06-20T07:14:58Z</time>
      </trkpt>
      <trkpt lat="47.2605" lon="-0.22147">
        <ele>90.4</ele>
        <time>2026-06-20T07:14:59Z</time>
      </trkpt>
      <trkpt lat="47.26053" lon="-0.22147">
        <ele>90.2</ele>
        <time>2026-06-20T07:15:00Z</time>
      </trkpt>
      <trkpt lat="47.26057" lon="-0.22146">
        <ele>90.2</ele>
        <time>2026-06-20T07:15:01Z</time>
      </trkpt>
      <trkpt lat="47.2606" lon="-0.22145">
        <ele>90.2</ele>
        <time>2026-06-20T07:15:02Z</time>
      </trkpt>
      <trkpt lat="47.26063" lon="-0.22144">
        <ele>90.2</ele>
        <time>2026-06-20T07:15:03Z</time>
      </trkpt>
      <trkpt lat="47.26067" lon="-0.22143">
        <ele>90.2</ele>
        <time>2026-06-20T07:15:04Z</time>
      </trkpt>
      <trkpt lat="47.2607" lon="-0.22143">
        <ele>90.2</ele>
        <time>2026-06-20T07:15:05Z</time>
      </trkpt>
      <trkpt lat="47.26072" lon="-0.22143">
        <ele>90.2</ele>
        <time>2026-06-20T07:15:06Z</time>
      </trkpt>
      <trkpt lat="47.26073" lon="-0.22142">
        <ele>90.2</ele>
        <time>2026-06-20T07:15:07Z</time>
      </trkpt>
      <trkpt lat="47.26073" lon="-0.22142">
        <ele>90.4</ele>
        <time>2026-06-20T07:15:08Z</time>
      </trkpt>
      <trkpt lat="47.26073" lon="-0.22142">
        <ele>90.4</ele>
        <time>2026-06-20T07:15:09Z</time>
      </trkpt>
      <trkpt lat="47.26082" lon="-0.22139">
        <ele>90.4</ele>
        <time>2026-06-20T07:15:17Z</time>
      </trkpt>
      <trkpt lat="47.26085" lon="-0.22138">
        <ele>90.4</ele>
        <time>2026-06-20T07:15:18Z</time>
      </trkpt>
      <trkpt lat="47.26089" lon="-0.22137">
        <ele>90.2</ele>
        <time>2026-06-20T07:15:19Z</time>
      </trkpt>
      <trkpt lat="47.26092" lon="-0.22136">
        <ele>90</ele>
        <time>2026-06-20T07:15:20Z</time>
      </trkpt>
      <trkpt lat="47.26096" lon="-0.22135">
        <ele>90</ele>
        <time>2026-06-20T07:15:21Z</time>
      </trkpt>
      <trkpt lat="47.26099" lon="-0.22134">
        <ele>89.8</ele>
        <time>2026-06-20T07:15:22Z</time>
      </trkpt>
      <trkpt lat="47.26103" lon="-0.22134">
        <ele>89.8</ele>
        <time>2026-06-20T07:15:23Z</time>
      </trkpt>
      <trkpt lat="47.26107" lon="-0.22133">
        <ele>89.8</ele>
        <time>2026-06-20T07:15:24Z</time>
      </trkpt>
      <trkpt lat="47.2611" lon="-0.22132">
        <ele>89.8</ele>
        <time>2026-06-20T07:15:25Z</time>
      </trkpt>
      <trkpt lat="47.26114" lon="-0.22131">
        <ele>89.6</ele>
        <time>2026-06-20T07:15:26Z</time>
      </trkpt>
      <trkpt lat="47.26117" lon="-0.2213">
        <ele>89.8</ele>
        <time>2026-06-20T07:15:27Z</time>
      </trkpt>
      <trkpt lat="47.2612" lon="-0.22129">
        <ele>89.8</ele>
        <time>2026-06-20T07:15:28Z</time>
      </trkpt>
      <trkpt lat="47.26123" lon="-0.22128">
        <ele>89.8</ele>
        <time>2026-06-20T07:15:29Z</time>
      </trkpt>
      <trkpt lat="47.26126" lon="-0.22128">
        <ele>89.8</ele>
        <time>2026-06-20T07:15:30Z</time>
      </trkpt>
      <trkpt lat="47.2613" lon="-0.22127">
        <ele>89.8</ele>
        <time>2026-06-20T07:15:31Z</time>
      </trkpt>
      <trkpt lat="47.26133" lon="-0.22126">
        <ele>89.8</ele>
        <time>2026-06-20T07:15:32Z</time>
      </trkpt>
      <trkpt lat="47.26137" lon="-0.22125">
        <ele>89.8</ele>
        <time>2026-06-20T07:15:33Z</time>
      </trkpt>
      <trkpt lat="47.2614" lon="-0.22125">
        <ele>89.8</ele>
        <time>2026-06-20T07:15:34Z</time>
      </trkpt>
      <trkpt lat="47.26144" lon="-0.22125">
        <ele>89.6</ele>
        <time>2026-06-20T07:15:35Z</time>
      </trkpt>
      <trkpt lat="47.26147" lon="-0.22125">
        <ele>89.6</ele>
        <time>2026-06-20T07:15:36Z</time>
      </trkpt>
      <trkpt lat="47.2615" lon="-0.22124">
        <ele>89.6</ele>
        <time>2026-06-20T07:15:37Z</time>
      </trkpt>
      <trkpt lat="47.26153" lon="-0.22124">
        <ele>89.6</ele>
        <time>2026-06-20T07:15:38Z</time>
      </trkpt>
      <trkpt lat="47.26157" lon="-0.22124">
        <ele>89.6</ele>
        <time>2026-06-20T07:15:39Z</time>
      </trkpt>
      <trkpt lat="47.26161" lon="-0.22124">
        <ele>89.6</ele>
        <time>2026-06-20T07:15:40Z</time>
      </trkpt>
      <trkpt lat="47.26164" lon="-0.22123">
        <ele>89.6</ele>
        <time>2026-06-20T07:15:41Z</time>
      </trkpt>
      <trkpt lat="47.26168" lon="-0.22123">
        <ele>89.6</ele>
        <time>2026-06-20T07:15:42Z</time>
      </trkpt>
      <trkpt lat="47.26171" lon="-0.22123">
        <ele>89.6</ele>
        <time>2026-06-20T07:15:43Z</time>
      </trkpt>
      <trkpt lat="47.26175" lon="-0.22123">
        <ele>89.6</ele>
        <time>2026-06-20T07:15:44Z</time>
      </trkpt>
      <trkpt lat="47.26178" lon="-0.22123">
        <ele>89.6</ele>
        <time>2026-06-20T07:15:45Z</time>
      </trkpt>
      <trkpt lat="47.26183" lon="-0.22122">
        <ele>89.6</ele>
        <time>2026-06-20T07:15:46Z</time>
      </trkpt>
      <trkpt lat="47.26187" lon="-0.22122">
        <ele>89.4</ele>
        <time>2026-06-20T07:15:47Z</time>
      </trkpt>
      <trkpt lat="47.26191" lon="-0.22121">
        <ele>89.4</ele>
        <time>2026-06-20T07:15:48Z</time>
      </trkpt>
      <trkpt lat="47.26195" lon="-0.22121">
        <ele>89.4</ele>
        <time>2026-06-20T07:15:49Z</time>
      </trkpt>
      <trkpt lat="47.26199" lon="-0.2212">
        <ele>89.4</ele>
        <time>2026-06-20T07:15:50Z</time>
      </trkpt>
      <trkpt lat="47.26203" lon="-0.22119">
        <ele>89.2</ele>
        <time>2026-06-20T07:15:51Z</time>
      </trkpt>
      <trkpt lat="47.26208" lon="-0.22119">
        <ele>89.2</ele>
        <time>2026-06-20T07:15:52Z</time>
      </trkpt>
      <trkpt lat="47.26212" lon="-0.22119">
        <ele>89.2</ele>
        <time>2026-06-20T07:15:53Z</time>
      </trkpt>
      <trkpt lat="47.26216" lon="-0.22118">
        <ele>89.2</ele>
        <time>2026-06-20T07:15:54Z</time>
      </trkpt>
      <trkpt lat="47.26219" lon="-0.22119">
        <ele>89.2</ele>
        <time>2026-06-20T07:15:55Z</time>
      </trkpt>
      <trkpt lat="47.26223" lon="-0.22119">
        <ele>89.2</ele>
        <time>2026-06-20T07:15:56Z</time>
      </trkpt>
      <trkpt lat="47.26227" lon="-0.22119">
        <ele>89.2</ele>
        <time>2026-06-20T07:15:57Z</time>
      </trkpt>
      <trkpt lat="47.26232" lon="-0.22119">
        <ele>89.2</ele>
        <time>2026-06-20T07:15:58Z</time>
      </trkpt>
      <trkpt lat="47.26236" lon="-0.22118">
        <ele>89.2</ele>
        <time>2026-06-20T07:15:59Z</time>
      </trkpt>
      <trkpt lat="47.26241" lon="-0.22118">
        <ele>89</ele>
        <time>2026-06-20T07:16:00Z</time>
      </trkpt>
      <trkpt lat="47.26245" lon="-0.22118">
        <ele>89</ele>
        <time>2026-06-20T07:16:01Z</time>
      </trkpt>
      <trkpt lat="47.26249" lon="-0.22118">
        <ele>89</ele>
        <time>2026-06-20T07:16:02Z</time>
      </trkpt>
      <trkpt lat="47.26254" lon="-0.22118">
        <ele>89</ele>
        <time>2026-06-20T07:16:03Z</time>
      </trkpt>
      <trkpt lat="47.26258" lon="-0.22118">
        <ele>89</ele>
        <time>2026-06-20T07:16:04Z</time>
      </trkpt>
      <trkpt lat="47.26262" lon="-0.22117">
        <ele>89</ele>
        <time>2026-06-20T07:16:05Z</time>
      </trkpt>
      <trkpt lat="47.26266" lon="-0.22117">
        <ele>88.8</ele>
        <time>2026-06-20T07:16:06Z</time>
      </trkpt>
      <trkpt lat="47.26271" lon="-0.22116">
        <ele>88.8</ele>
        <time>2026-06-20T07:16:07Z</time>
      </trkpt>
      <trkpt lat="47.26275" lon="-0.22116">
        <ele>88.6</ele>
        <time>2026-06-20T07:16:08Z</time>
      </trkpt>
      <trkpt lat="47.26279" lon="-0.22115">
        <ele>88.6</ele>
        <time>2026-06-20T07:16:09Z</time>
      </trkpt>
      <trkpt lat="47.26283" lon="-0.22115">
        <ele>88.4</ele>
        <time>2026-06-20T07:16:10Z</time>
      </trkpt>
      <trkpt lat="47.26287" lon="-0.22115">
        <ele>88.4</ele>
        <time>2026-06-20T07:16:11Z</time>
      </trkpt>
      <trkpt lat="47.26291" lon="-0.22115">
        <ele>88.4</ele>
        <time>2026-06-20T07:16:12Z</time>
      </trkpt>
      <trkpt lat="47.26295" lon="-0.22115">
        <ele>88.4</ele>
        <time>2026-06-20T07:16:13Z</time>
      </trkpt>
      <trkpt lat="47.26298" lon="-0.22115">
        <ele>88.4</ele>
        <time>2026-06-20T07:16:14Z</time>
      </trkpt>
      <trkpt lat="47.26301" lon="-0.22114">
        <ele>88.4</ele>
        <time>2026-06-20T07:16:15Z</time>
      </trkpt>
      <trkpt lat="47.26303" lon="-0.22112">
        <ele>88.4</ele>
        <time>2026-06-20T07:16:16Z</time>
      </trkpt>
      <trkpt lat="47.26306" lon="-0.22109">
        <ele>88.6</ele>
        <time>2026-06-20T07:16:17Z</time>
      </trkpt>
      <trkpt lat="47.26309" lon="-0.22107">
        <ele>88.6</ele>
        <time>2026-06-20T07:16:18Z</time>
      </trkpt>
      <trkpt lat="47.26311" lon="-0.22105">
        <ele>88.6</ele>
        <time>2026-06-20T07:16:19Z</time>
      </trkpt>
      <trkpt lat="47.26313" lon="-0.22102">
        <ele>88.6</ele>
        <time>2026-06-20T07:16:20Z</time>
      </trkpt>
      <trkpt lat="47.26315" lon="-0.221">
        <ele>88.8</ele>
        <time>2026-06-20T07:16:21Z</time>
      </trkpt>
      <trkpt lat="47.26317" lon="-0.22098">
        <ele>88.8</ele>
        <time>2026-06-20T07:16:22Z</time>
      </trkpt>
      <trkpt lat="47.26319" lon="-0.22095">
        <ele>88.8</ele>
        <time>2026-06-20T07:16:23Z</time>
      </trkpt>
      <trkpt lat="47.26322" lon="-0.22092">
        <ele>88.6</ele>
        <time>2026-06-20T07:16:24Z</time>
      </trkpt>
      <trkpt lat="47.26324" lon="-0.22089">
        <ele>88.6</ele>
        <time>2026-06-20T07:16:25Z</time>
      </trkpt>
      <trkpt lat="47.26326" lon="-0.22085">
        <ele>88.6</ele>
        <time>2026-06-20T07:16:26Z</time>
      </trkpt>
      <trkpt lat="47.26329" lon="-0.22082">
        <ele>88.6</ele>
        <time>2026-06-20T07:16:27Z</time>
      </trkpt>
      <trkpt lat="47.26332" lon="-0.22079">
        <ele>88.6</ele>
        <time>2026-06-20T07:16:28Z</time>
      </trkpt>
      <trkpt lat="47.26334" lon="-0.22076">
        <ele>88.6</ele>
        <time>2026-06-20T07:16:29Z</time>
      </trkpt>
      <trkpt lat="47.26337" lon="-0.22073">
        <ele>88.6</ele>
        <time>2026-06-20T07:16:30Z</time>
      </trkpt>
      <trkpt lat="47.2634" lon="-0.2207">
        <ele>88.6</ele>
        <time>2026-06-20T07:16:31Z</time>
      </trkpt>
      <trkpt lat="47.26343" lon="-0.22067">
        <ele>88.6</ele>
        <time>2026-06-20T07:16:32Z</time>
      </trkpt>
      <trkpt lat="47.26346" lon="-0.22064">
        <ele>88.6</ele>
        <time>2026-06-20T07:16:33Z</time>
      </trkpt>
      <trkpt lat="47.26349" lon="-0.22061">
        <ele>88.8</ele>
        <time>2026-06-20T07:16:34Z</time>
      </trkpt>
      <trkpt lat="47.26352" lon="-0.22059">
        <ele>88.8</ele>
        <time>2026-06-20T07:16:35Z</time>
      </trkpt>
      <trkpt lat="47.26355" lon="-0.22058">
        <ele>88.8</ele>
        <time>2026-06-20T07:16:36Z</time>
      </trkpt>
      <trkpt lat="47.26359" lon="-0.22056">
        <ele>89</ele>
        <time>2026-06-20T07:16:37Z</time>
      </trkpt>
      <trkpt lat="47.26362" lon="-0.22055">
        <ele>89</ele>
        <time>2026-06-20T07:16:38Z</time>
      </trkpt>
      <trkpt lat="47.26366" lon="-0.22053">
        <ele>89</ele>
        <time>2026-06-20T07:16:39Z</time>
      </trkpt>
      <trkpt lat="47.26369" lon="-0.22051">
        <ele>89</ele>
        <time>2026-06-20T07:16:40Z</time>
      </trkpt>
      <trkpt lat="47.26373" lon="-0.22048">
        <ele>89.2</ele>
        <time>2026-06-20T07:16:41Z</time>
      </trkpt>
      <trkpt lat="47.26376" lon="-0.22047">
        <ele>89.2</ele>
        <time>2026-06-20T07:16:42Z</time>
      </trkpt>
      <trkpt lat="47.2638" lon="-0.22046">
        <ele>89.2</ele>
        <time>2026-06-20T07:16:43Z</time>
      </trkpt>
      <trkpt lat="47.26384" lon="-0.22045">
        <ele>89.2</ele>
        <time>2026-06-20T07:16:44Z</time>
      </trkpt>
      <trkpt lat="47.26387" lon="-0.22044">
        <ele>89.2</ele>
        <time>2026-06-20T07:16:45Z</time>
      </trkpt>
      <trkpt lat="47.26391" lon="-0.22043">
        <ele>89.4</ele>
        <time>2026-06-20T07:16:46Z</time>
      </trkpt>
      <trkpt lat="47.26394" lon="-0.22043">
        <ele>89.4</ele>
        <time>2026-06-20T07:16:47Z</time>
      </trkpt>
      <trkpt lat="47.26398" lon="-0.22041">
        <ele>89.6</ele>
        <time>2026-06-20T07:16:48Z</time>
      </trkpt>
      <trkpt lat="47.26401" lon="-0.2204">
        <ele>89.6</ele>
        <time>2026-06-20T07:16:49Z</time>
      </trkpt>
      <trkpt lat="47.26404" lon="-0.2204">
        <ele>89.6</ele>
        <time>2026-06-20T07:16:50Z</time>
      </trkpt>
      <trkpt lat="47.26408" lon="-0.22037">
        <ele>89.8</ele>
        <time>2026-06-20T07:16:51Z</time>
      </trkpt>
      <trkpt lat="47.26411" lon="-0.22036">
        <ele>89.8</ele>
        <time>2026-06-20T07:16:52Z</time>
      </trkpt>
      <trkpt lat="47.26414" lon="-0.22035">
        <ele>89.8</ele>
        <time>2026-06-20T07:16:53Z</time>
      </trkpt>
      <trkpt lat="47.26418" lon="-0.22033">
        <ele>90</ele>
        <time>2026-06-20T07:16:54Z</time>
      </trkpt>
      <trkpt lat="47.26421" lon="-0.22032">
        <ele>90</ele>
        <time>2026-06-20T07:16:55Z</time>
      </trkpt>
      <trkpt lat="47.26424" lon="-0.22031">
        <ele>90</ele>
        <time>2026-06-20T07:16:56Z</time>
      </trkpt>
      <trkpt lat="47.26427" lon="-0.22031">
        <ele>90.2</ele>
        <time>2026-06-20T07:16:57Z</time>
      </trkpt>
      <trkpt lat="47.26431" lon="-0.22031">
        <ele>90.2</ele>
        <time>2026-06-20T07:16:58Z</time>
      </trkpt>
      <trkpt lat="47.26434" lon="-0.2203">
        <ele>90.2</ele>
        <time>2026-06-20T07:16:59Z</time>
      </trkpt>
      <trkpt lat="47.26437" lon="-0.22028">
        <ele>90.2</ele>
        <time>2026-06-20T07:17:00Z</time>
      </trkpt>
      <trkpt lat="47.2644" lon="-0.22028">
        <ele>90.4</ele>
        <time>2026-06-20T07:17:01Z</time>
      </trkpt>
      <trkpt lat="47.26443" lon="-0.22026">
        <ele>90.4</ele>
        <time>2026-06-20T07:17:02Z</time>
      </trkpt>
      <trkpt lat="47.26446" lon="-0.22027">
        <ele>90.4</ele>
        <time>2026-06-20T07:17:03Z</time>
      </trkpt>
      <trkpt lat="47.2645" lon="-0.22026">
        <ele>90.4</ele>
        <time>2026-06-20T07:17:04Z</time>
      </trkpt>
      <trkpt lat="47.26452" lon="-0.22025">
        <ele>90.4</ele>
        <time>2026-06-20T07:17:05Z</time>
      </trkpt>
      <trkpt lat="47.26455" lon="-0.22025">
        <ele>90.4</ele>
        <time>2026-06-20T07:17:06Z</time>
      </trkpt>
      <trkpt lat="47.26458" lon="-0.22024">
        <ele>90.2</ele>
        <time>2026-06-20T07:17:07Z</time>
      </trkpt>
      <trkpt lat="47.26462" lon="-0.22023">
        <ele>90.2</ele>
        <time>2026-06-20T07:17:08Z</time>
      </trkpt>
      <trkpt lat="47.26465" lon="-0.22022">
        <ele>90.2</ele>
        <time>2026-06-20T07:17:09Z</time>
      </trkpt>
      <trkpt lat="47.26469" lon="-0.22021">
        <ele>90</ele>
        <time>2026-06-20T07:17:10Z</time>
      </trkpt>
      <trkpt lat="47.26473" lon="-0.2202">
        <ele>90</ele>
        <time>2026-06-20T07:17:11Z</time>
      </trkpt>
      <trkpt lat="47.26477" lon="-0.22019">
        <ele>89.8</ele>
        <time>2026-06-20T07:17:12Z</time>
      </trkpt>
      <trkpt lat="47.2648" lon="-0.22018">
        <ele>89.8</ele>
        <time>2026-06-20T07:17:13Z</time>
      </trkpt>
      <trkpt lat="47.26484" lon="-0.22017">
        <ele>89.8</ele>
        <time>2026-06-20T07:17:14Z</time>
      </trkpt>
      <trkpt lat="47.26488" lon="-0.22016">
        <ele>89.8</ele>
        <time>2026-06-20T07:17:15Z</time>
      </trkpt>
      <trkpt lat="47.26492" lon="-0.22015">
        <ele>89.8</ele>
        <time>2026-06-20T07:17:16Z</time>
      </trkpt>
      <trkpt lat="47.26496" lon="-0.22015">
        <ele>89.8</ele>
        <time>2026-06-20T07:17:17Z</time>
      </trkpt>
      <trkpt lat="47.265" lon="-0.22014">
        <ele>89.8</ele>
        <time>2026-06-20T07:17:18Z</time>
      </trkpt>
      <trkpt lat="47.26504" lon="-0.22013">
        <ele>89.8</ele>
        <time>2026-06-20T07:17:19Z</time>
      </trkpt>
      <trkpt lat="47.26508" lon="-0.22012">
        <ele>89.8</ele>
        <time>2026-06-20T07:17:20Z</time>
      </trkpt>
      <trkpt lat="47.26511" lon="-0.2201">
        <ele>89.8</ele>
        <time>2026-06-20T07:17:21Z</time>
      </trkpt>
      <trkpt lat="47.26515" lon="-0.22009">
        <ele>90</ele>
        <time>2026-06-20T07:17:22Z</time>
      </trkpt>
      <trkpt lat="47.26519" lon="-0.22009">
        <ele>90</ele>
        <time>2026-06-20T07:17:23Z</time>
      </trkpt>
      <trkpt lat="47.26522" lon="-0.22008">
        <ele>90</ele>
        <time>2026-06-20T07:17:24Z</time>
      </trkpt>
      <trkpt lat="47.26526" lon="-0.22008">
        <ele>90</ele>
        <time>2026-06-20T07:17:25Z</time>
      </trkpt>
      <trkpt lat="47.2653" lon="-0.22007">
        <ele>90</ele>
        <time>2026-06-20T07:17:26Z</time>
      </trkpt>
      <trkpt lat="47.26535" lon="-0.22007">
        <ele>90</ele>
        <time>2026-06-20T07:17:27Z</time>
      </trkpt>
      <trkpt lat="47.26539" lon="-0.22007">
        <ele>90</ele>
        <time>2026-06-20T07:17:28Z</time>
      </trkpt>
      <trkpt lat="47.26542" lon="-0.22007">
        <ele>90.2</ele>
        <time>2026-06-20T07:17:29Z</time>
      </trkpt>
      <trkpt lat="47.26546" lon="-0.22009">
        <ele>90.2</ele>
        <time>2026-06-20T07:17:30Z</time>
      </trkpt>
      <trkpt lat="47.2655" lon="-0.2201">
        <ele>90.2</ele>
        <time>2026-06-20T07:17:31Z</time>
      </trkpt>
      <trkpt lat="47.26553" lon="-0.22013">
        <ele>90.4</ele>
        <time>2026-06-20T07:17:32Z</time>
      </trkpt>
      <trkpt lat="47.26557" lon="-0.22016">
        <ele>90.4</ele>
        <time>2026-06-20T07:17:33Z</time>
      </trkpt>
      <trkpt lat="47.26561" lon="-0.22018">
        <ele>90.6</ele>
        <time>2026-06-20T07:17:34Z</time>
      </trkpt>
      <trkpt lat="47.26565" lon="-0.2202">
        <ele>90.6</ele>
        <time>2026-06-20T07:17:35Z</time>
      </trkpt>
      <trkpt lat="47.26569" lon="-0.22021">
        <ele>90.8</ele>
        <time>2026-06-20T07:17:36Z</time>
      </trkpt>
      <trkpt lat="47.26573" lon="-0.22022">
        <ele>91</ele>
        <time>2026-06-20T07:17:37Z</time>
      </trkpt>
      <trkpt lat="47.26576" lon="-0.2202">
        <ele>91</ele>
        <time>2026-06-20T07:17:38Z</time>
      </trkpt>
      <trkpt lat="47.2658" lon="-0.22019">
        <ele>91</ele>
        <time>2026-06-20T07:17:39Z</time>
      </trkpt>
      <trkpt lat="47.26584" lon="-0.22018">
        <ele>91.2</ele>
        <time>2026-06-20T07:17:40Z</time>
      </trkpt>
      <trkpt lat="47.26588" lon="-0.22018">
        <ele>91.2</ele>
        <time>2026-06-20T07:17:41Z</time>
      </trkpt>
      <trkpt lat="47.26592" lon="-0.22017">
        <ele>91.2</ele>
        <time>2026-06-20T07:17:42Z</time>
      </trkpt>
      <trkpt lat="47.26596" lon="-0.22016">
        <ele>91.2</ele>
        <time>2026-06-20T07:17:43Z</time>
      </trkpt>
      <trkpt lat="47.26601" lon="-0.22015">
        <ele>91.2</ele>
        <time>2026-06-20T07:17:44Z</time>
      </trkpt>
      <trkpt lat="47.26606" lon="-0.22014">
        <ele>91.2</ele>
        <time>2026-06-20T07:17:45Z</time>
      </trkpt>
      <trkpt lat="47.26609" lon="-0.22015">
        <ele>91.2</ele>
        <time>2026-06-20T07:17:46Z</time>
      </trkpt>
      <trkpt lat="47.26612" lon="-0.22015">
        <ele>91.2</ele>
        <time>2026-06-20T07:17:47Z</time>
      </trkpt>
      <trkpt lat="47.26616" lon="-0.22015">
        <ele>91.4</ele>
        <time>2026-06-20T07:17:48Z</time>
      </trkpt>
      <trkpt lat="47.2662" lon="-0.22014">
        <ele>91.4</ele>
        <time>2026-06-20T07:17:49Z</time>
      </trkpt>
      <trkpt lat="47.26623" lon="-0.22013">
        <ele>91.4</ele>
        <time>2026-06-20T07:17:50Z</time>
      </trkpt>
      <trkpt lat="47.26628" lon="-0.22012">
        <ele>91.4</ele>
        <time>2026-06-20T07:17:51Z</time>
      </trkpt>
      <trkpt lat="47.26632" lon="-0.22012">
        <ele>91.4</ele>
        <time>2026-06-20T07:17:52Z</time>
      </trkpt>
      <trkpt lat="47.26636" lon="-0.22012">
        <ele>91.4</ele>
        <time>2026-06-20T07:17:53Z</time>
      </trkpt>
      <trkpt lat="47.26639" lon="-0.22013">
        <ele>91.4</ele>
        <time>2026-06-20T07:17:54Z</time>
      </trkpt>
      <trkpt lat="47.26643" lon="-0.22013">
        <ele>91.4</ele>
        <time>2026-06-20T07:17:55Z</time>
      </trkpt>
      <trkpt lat="47.26647" lon="-0.22012">
        <ele>91.4</ele>
        <time>2026-06-20T07:17:56Z</time>
      </trkpt>
      <trkpt lat="47.2665" lon="-0.22012">
        <ele>91.6</ele>
        <time>2026-06-20T07:17:57Z</time>
      </trkpt>
      <trkpt lat="47.26654" lon="-0.22013">
        <ele>91.6</ele>
        <time>2026-06-20T07:17:58Z</time>
      </trkpt>
      <trkpt lat="47.26658" lon="-0.22013">
        <ele>91.6</ele>
        <time>2026-06-20T07:17:59Z</time>
      </trkpt>
      <trkpt lat="47.26661" lon="-0.22012">
        <ele>91.8</ele>
        <time>2026-06-20T07:18:00Z</time>
      </trkpt>
      <trkpt lat="47.26665" lon="-0.22011">
        <ele>91.8</ele>
        <time>2026-06-20T07:18:01Z</time>
      </trkpt>
      <trkpt lat="47.26669" lon="-0.2201">
        <ele>91.8</ele>
        <time>2026-06-20T07:18:02Z</time>
      </trkpt>
      <trkpt lat="47.26673" lon="-0.22009">
        <ele>91.8</ele>
        <time>2026-06-20T07:18:03Z</time>
      </trkpt>
      <trkpt lat="47.26676" lon="-0.2201">
        <ele>91.8</ele>
        <time>2026-06-20T07:18:04Z</time>
      </trkpt>
      <trkpt lat="47.2668" lon="-0.2201">
        <ele>91.8</ele>
        <time>2026-06-20T07:18:05Z</time>
      </trkpt>
      <trkpt lat="47.26684" lon="-0.22011">
        <ele>92</ele>
        <time>2026-06-20T07:18:06Z</time>
      </trkpt>
      <trkpt lat="47.26688" lon="-0.22011">
        <ele>92</ele>
        <time>2026-06-20T07:18:07Z</time>
      </trkpt>
      <trkpt lat="47.26692" lon="-0.22011">
        <ele>92</ele>
        <time>2026-06-20T07:18:08Z</time>
      </trkpt>
      <trkpt lat="47.26696" lon="-0.22011">
        <ele>92</ele>
        <time>2026-06-20T07:18:09Z</time>
      </trkpt>
      <trkpt lat="47.26699" lon="-0.22011">
        <ele>92.2</ele>
        <time>2026-06-20T07:18:10Z</time>
      </trkpt>
      <trkpt lat="47.26703" lon="-0.22011">
        <ele>92.2</ele>
        <time>2026-06-20T07:18:11Z</time>
      </trkpt>
      <trkpt lat="47.26707" lon="-0.22011">
        <ele>92.2</ele>
        <time>2026-06-20T07:18:12Z</time>
      </trkpt>
      <trkpt lat="47.26711" lon="-0.22011">
        <ele>92.2</ele>
        <time>2026-06-20T07:18:13Z</time>
      </trkpt>
      <trkpt lat="47.26714" lon="-0.2201">
        <ele>92.2</ele>
        <time>2026-06-20T07:18:14Z</time>
      </trkpt>
      <trkpt lat="47.26718" lon="-0.22008">
        <ele>92.2</ele>
        <time>2026-06-20T07:18:15Z</time>
      </trkpt>
      <trkpt lat="47.26722" lon="-0.22008">
        <ele>92.2</ele>
        <time>2026-06-20T07:18:16Z</time>
      </trkpt>
      <trkpt lat="47.26726" lon="-0.22007">
        <ele>92.4</ele>
        <time>2026-06-20T07:18:17Z</time>
      </trkpt>
      <trkpt lat="47.2673" lon="-0.22007">
        <ele>92.4</ele>
        <time>2026-06-20T07:18:18Z</time>
      </trkpt>
      <trkpt lat="47.26733" lon="-0.22007">
        <ele>92.4</ele>
        <time>2026-06-20T07:18:19Z</time>
      </trkpt>
      <trkpt lat="47.26737" lon="-0.22007">
        <ele>92.4</ele>
        <time>2026-06-20T07:18:20Z</time>
      </trkpt>
      <trkpt lat="47.26741" lon="-0.22006">
        <ele>92.4</ele>
        <time>2026-06-20T07:18:21Z</time>
      </trkpt>
      <trkpt lat="47.26744" lon="-0.22006">
        <ele>92.4</ele>
        <time>2026-06-20T07:18:22Z</time>
      </trkpt>
      <trkpt lat="47.26748" lon="-0.22006">
        <ele>92.4</ele>
        <time>2026-06-20T07:18:23Z</time>
      </trkpt>
      <trkpt lat="47.26751" lon="-0.22006">
        <ele>92.6</ele>
        <time>2026-06-20T07:18:24Z</time>
      </trkpt>
      <trkpt lat="47.26755" lon="-0.22006">
        <ele>92.6</ele>
        <time>2026-06-20T07:18:25Z</time>
      </trkpt>
      <trkpt lat="47.26759" lon="-0.22006">
        <ele>92.6</ele>
        <time>2026-06-20T07:18:26Z</time>
      </trkpt>
      <trkpt lat="47.26763" lon="-0.22005">
        <ele>92.6</ele>
        <time>2026-06-20T07:18:27Z</time>
      </trkpt>
      <trkpt lat="47.26767" lon="-0.22004">
        <ele>92.4</ele>
        <time>2026-06-20T07:18:28Z</time>
      </trkpt>
      <trkpt lat="47.26771" lon="-0.22003">
        <ele>92.6</ele>
        <time>2026-06-20T07:18:29Z</time>
      </trkpt>
      <trkpt lat="47.26775" lon="-0.22002">
        <ele>92.6</ele>
        <time>2026-06-20T07:18:30Z</time>
      </trkpt>
      <trkpt lat="47.26779" lon="-0.22002">
        <ele>92.6</ele>
        <time>2026-06-20T07:18:31Z</time>
      </trkpt>
      <trkpt lat="47.26783" lon="-0.22001">
        <ele>92.4</ele>
        <time>2026-06-20T07:18:32Z</time>
      </trkpt>
      <trkpt lat="47.26787" lon="-0.22">
        <ele>92.4</ele>
        <time>2026-06-20T07:18:33Z</time>
      </trkpt>
      <trkpt lat="47.26791" lon="-0.21999">
        <ele>92.4</ele>
        <time>2026-06-20T07:18:34Z</time>
      </trkpt>
      <trkpt lat="47.26796" lon="-0.21998">
        <ele>92.4</ele>
        <time>2026-06-20T07:18:35Z</time>
      </trkpt>
      <trkpt lat="47.268" lon="-0.21997">
        <ele>92.4</ele>
        <time>2026-06-20T07:18:36Z</time>
      </trkpt>
      <trkpt lat="47.26804" lon="-0.21996">
        <ele>92.2</ele>
        <time>2026-06-20T07:18:37Z</time>
      </trkpt>
      <trkpt lat="47.26809" lon="-0.21995">
        <ele>92.2</ele>
        <time>2026-06-20T07:18:38Z</time>
      </trkpt>
      <trkpt lat="47.26813" lon="-0.21994">
        <ele>92.2</ele>
        <time>2026-06-20T07:18:39Z</time>
      </trkpt>
      <trkpt lat="47.26818" lon="-0.21993">
        <ele>92.2</ele>
        <time>2026-06-20T07:18:40Z</time>
      </trkpt>
      <trkpt lat="47.26823" lon="-0.21992">
        <ele>92.2</ele>
        <time>2026-06-20T07:18:41Z</time>
      </trkpt>
      <trkpt lat="47.26828" lon="-0.21991">
        <ele>92.2</ele>
        <time>2026-06-20T07:18:42Z</time>
      </trkpt>
      <trkpt lat="47.26832" lon="-0.2199">
        <ele>92.2</ele>
        <time>2026-06-20T07:18:43Z</time>
      </trkpt>
      <trkpt lat="47.26837" lon="-0.21989">
        <ele>92</ele>
        <time>2026-06-20T07:18:44Z</time>
      </trkpt>
      <trkpt lat="47.26842" lon="-0.21988">
        <ele>92.2</ele>
        <time>2026-06-20T07:18:45Z</time>
      </trkpt>
      <trkpt lat="47.26846" lon="-0.21987">
        <ele>92</ele>
        <time>2026-06-20T07:18:46Z</time>
      </trkpt>
      <trkpt lat="47.26851" lon="-0.21986">
        <ele>92</ele>
        <time>2026-06-20T07:18:47Z</time>
      </trkpt>
      <trkpt lat="47.26855" lon="-0.21985">
        <ele>92</ele>
        <time>2026-06-20T07:18:48Z</time>
      </trkpt>
      <trkpt lat="47.26859" lon="-0.21983">
        <ele>92</ele>
        <time>2026-06-20T07:18:49Z</time>
      </trkpt>
      <trkpt lat="47.26864" lon="-0.21983">
        <ele>92</ele>
        <time>2026-06-20T07:18:50Z</time>
      </trkpt>
      <trkpt lat="47.26868" lon="-0.21981">
        <ele>92</ele>
        <time>2026-06-20T07:18:51Z</time>
      </trkpt>
      <trkpt lat="47.26872" lon="-0.21979">
        <ele>92</ele>
        <time>2026-06-20T07:18:52Z</time>
      </trkpt>
      <trkpt lat="47.26875" lon="-0.21977">
        <ele>92</ele>
        <time>2026-06-20T07:18:53Z</time>
      </trkpt>
      <trkpt lat="47.26879" lon="-0.21975">
        <ele>92</ele>
        <time>2026-06-20T07:18:54Z</time>
      </trkpt>
      <trkpt lat="47.26882" lon="-0.21973">
        <ele>92</ele>
        <time>2026-06-20T07:18:55Z</time>
      </trkpt>
      <trkpt lat="47.26886" lon="-0.21971">
        <ele>92</ele>
        <time>2026-06-20T07:18:56Z</time>
      </trkpt>
      <trkpt lat="47.2689" lon="-0.21969">
        <ele>92</ele>
        <time>2026-06-20T07:18:57Z</time>
      </trkpt>
      <trkpt lat="47.26894" lon="-0.21968">
        <ele>92</ele>
        <time>2026-06-20T07:18:58Z</time>
      </trkpt>
      <trkpt lat="47.26899" lon="-0.21967">
        <ele>92</ele>
        <time>2026-06-20T07:18:59Z</time>
      </trkpt>
      <trkpt lat="47.26903" lon="-0.21965">
        <ele>92</ele>
        <time>2026-06-20T07:19:00Z</time>
      </trkpt>
      <trkpt lat="47.26907" lon="-0.21964">
        <ele>92</ele>
        <time>2026-06-20T07:19:01Z</time>
      </trkpt>
      <trkpt lat="47.2691" lon="-0.21964">
        <ele>92</ele>
        <time>2026-06-20T07:19:02Z</time>
      </trkpt>
      <trkpt lat="47.26913" lon="-0.21964">
        <ele>92.2</ele>
        <time>2026-06-20T07:19:03Z</time>
      </trkpt>
      <trkpt lat="47.26916" lon="-0.21964">
        <ele>92.2</ele>
        <time>2026-06-20T07:19:04Z</time>
      </trkpt>
      <trkpt lat="47.2692" lon="-0.21964">
        <ele>92</ele>
        <time>2026-06-20T07:19:05Z</time>
      </trkpt>
      <trkpt lat="47.26923" lon="-0.21964">
        <ele>92.2</ele>
        <time>2026-06-20T07:19:06Z</time>
      </trkpt>
      <trkpt lat="47.26927" lon="-0.21965">
        <ele>92</ele>
        <time>2026-06-20T07:19:07Z</time>
      </trkpt>
      <trkpt lat="47.26931" lon="-0.21966">
        <ele>92</ele>
        <time>2026-06-20T07:19:08Z</time>
      </trkpt>
      <trkpt lat="47.26934" lon="-0.21967">
        <ele>92</ele>
        <time>2026-06-20T07:19:09Z</time>
      </trkpt>
      <trkpt lat="47.26938" lon="-0.21969">
        <ele>91.8</ele>
        <time>2026-06-20T07:19:10Z</time>
      </trkpt>
      <trkpt lat="47.26942" lon="-0.2197">
        <ele>91.6</ele>
        <time>2026-06-20T07:19:11Z</time>
      </trkpt>
      <trkpt lat="47.26946" lon="-0.21971">
        <ele>91.6</ele>
        <time>2026-06-20T07:19:12Z</time>
      </trkpt>
      <trkpt lat="47.26951" lon="-0.21972">
        <ele>91.4</ele>
        <time>2026-06-20T07:19:13Z</time>
      </trkpt>
      <trkpt lat="47.26954" lon="-0.21973">
        <ele>91.4</ele>
        <time>2026-06-20T07:19:14Z</time>
      </trkpt>
      <trkpt lat="47.26959" lon="-0.21973">
        <ele>91.4</ele>
        <time>2026-06-20T07:19:15Z</time>
      </trkpt>
      <trkpt lat="47.26963" lon="-0.21973">
        <ele>91.4</ele>
        <time>2026-06-20T07:19:16Z</time>
      </trkpt>
      <trkpt lat="47.26967" lon="-0.21972">
        <ele>91.2</ele>
        <time>2026-06-20T07:19:17Z</time>
      </trkpt>
      <trkpt lat="47.2697" lon="-0.21973">
        <ele>91.2</ele>
        <time>2026-06-20T07:19:18Z</time>
      </trkpt>
      <trkpt lat="47.26975" lon="-0.21973">
        <ele>91</ele>
        <time>2026-06-20T07:19:19Z</time>
      </trkpt>
      <trkpt lat="47.2698" lon="-0.21973">
        <ele>91</ele>
        <time>2026-06-20T07:19:20Z</time>
      </trkpt>
      <trkpt lat="47.26984" lon="-0.21974">
        <ele>90.8</ele>
        <time>2026-06-20T07:19:21Z</time>
      </trkpt>
      <trkpt lat="47.26989" lon="-0.21975">
        <ele>90.8</ele>
        <time>2026-06-20T07:19:22Z</time>
      </trkpt>
      <trkpt lat="47.26993" lon="-0.21976">
        <ele>90.8</ele>
        <time>2026-06-20T07:19:23Z</time>
      </trkpt>
      <trkpt lat="47.26997" lon="-0.21977">
        <ele>90.8</ele>
        <time>2026-06-20T07:19:24Z</time>
      </trkpt>
      <trkpt lat="47.27001" lon="-0.21978">
        <ele>90.8</ele>
        <time>2026-06-20T07:19:25Z</time>
      </trkpt>
      <trkpt lat="47.27006" lon="-0.21978">
        <ele>90.8</ele>
        <time>2026-06-20T07:19:26Z</time>
      </trkpt>
      <trkpt lat="47.2701" lon="-0.21978">
        <ele>90.6</ele>
        <time>2026-06-20T07:19:27Z</time>
      </trkpt>
      <trkpt lat="47.27014" lon="-0.21978">
        <ele>90.6</ele>
        <time>2026-06-20T07:19:28Z</time>
      </trkpt>
      <trkpt lat="47.27019" lon="-0.21978">
        <ele>90.6</ele>
        <time>2026-06-20T07:19:29Z</time>
      </trkpt>
      <trkpt lat="47.27023" lon="-0.21978">
        <ele>90.4</ele>
        <time>2026-06-20T07:19:30Z</time>
      </trkpt>
      <trkpt lat="47.27028" lon="-0.21978">
        <ele>90.4</ele>
        <time>2026-06-20T07:19:31Z</time>
      </trkpt>
      <trkpt lat="47.27032" lon="-0.21976">
        <ele>90.4</ele>
        <time>2026-06-20T07:19:32Z</time>
      </trkpt>
      <trkpt lat="47.27037" lon="-0.21975">
        <ele>90.2</ele>
        <time>2026-06-20T07:19:33Z</time>
      </trkpt>
      <trkpt lat="47.27041" lon="-0.21975">
        <ele>90.2</ele>
        <time>2026-06-20T07:19:34Z</time>
      </trkpt>
      <trkpt lat="47.27045" lon="-0.21972">
        <ele>90.2</ele>
        <time>2026-06-20T07:19:35Z</time>
      </trkpt>
      <trkpt lat="47.27049" lon="-0.21971">
        <ele>90.2</ele>
        <time>2026-06-20T07:19:36Z</time>
      </trkpt>
      <trkpt lat="47.27053" lon="-0.2197">
        <ele>90</ele>
        <time>2026-06-20T07:19:37Z</time>
      </trkpt>
      <trkpt lat="47.27058" lon="-0.21969">
        <ele>90</ele>
        <time>2026-06-20T07:19:38Z</time>
      </trkpt>
      <trkpt lat="47.27063" lon="-0.21967">
        <ele>90</ele>
        <time>2026-06-20T07:19:39Z</time>
      </trkpt>
      <trkpt lat="47.27067" lon="-0.21965">
        <ele>90</ele>
        <time>2026-06-20T07:19:40Z</time>
      </trkpt>
      <trkpt lat="47.27071" lon="-0.21963">
        <ele>90</ele>
        <time>2026-06-20T07:19:41Z</time>
      </trkpt>
      <trkpt lat="47.27075" lon="-0.21962">
        <ele>90</ele>
        <time>2026-06-20T07:19:42Z</time>
      </trkpt>
      <trkpt lat="47.27081" lon="-0.2196">
        <ele>89.8</ele>
        <time>2026-06-20T07:19:43Z</time>
      </trkpt>
      <trkpt lat="47.27085" lon="-0.2196">
        <ele>89.8</ele>
        <time>2026-06-20T07:19:44Z</time>
      </trkpt>
      <trkpt lat="47.27091" lon="-0.21959">
        <ele>89.6</ele>
        <time>2026-06-20T07:19:45Z</time>
      </trkpt>
      <trkpt lat="47.27096" lon="-0.21957">
        <ele>89.6</ele>
        <time>2026-06-20T07:19:46Z</time>
      </trkpt>
      <trkpt lat="47.27101" lon="-0.21956">
        <ele>89.6</ele>
        <time>2026-06-20T07:19:47Z</time>
      </trkpt>
      <trkpt lat="47.27107" lon="-0.21954">
        <ele>89.6</ele>
        <time>2026-06-20T07:19:48Z</time>
      </trkpt>
      <trkpt lat="47.27111" lon="-0.21953">
        <ele>89.6</ele>
        <time>2026-06-20T07:19:49Z</time>
      </trkpt>
      <trkpt lat="47.27116" lon="-0.21951">
        <ele>89.6</ele>
        <time>2026-06-20T07:19:50Z</time>
      </trkpt>
      <trkpt lat="47.2712" lon="-0.21949">
        <ele>89.6</ele>
        <time>2026-06-20T07:19:51Z</time>
      </trkpt>
      <trkpt lat="47.27126" lon="-0.21948">
        <ele>89.6</ele>
        <time>2026-06-20T07:19:52Z</time>
      </trkpt>
      <trkpt lat="47.27131" lon="-0.21947">
        <ele>89.6</ele>
        <time>2026-06-20T07:19:53Z</time>
      </trkpt>
      <trkpt lat="47.27136" lon="-0.21946">
        <ele>89.4</ele>
        <time>2026-06-20T07:19:54Z</time>
      </trkpt>
      <trkpt lat="47.27142" lon="-0.21946">
        <ele>89.4</ele>
        <time>2026-06-20T07:19:55Z</time>
      </trkpt>
      <trkpt lat="47.27147" lon="-0.21945">
        <ele>89.4</ele>
        <time>2026-06-20T07:19:56Z</time>
      </trkpt>
      <trkpt lat="47.27153" lon="-0.21943">
        <ele>89.2</ele>
        <time>2026-06-20T07:19:57Z</time>
      </trkpt>
      <trkpt lat="47.27158" lon="-0.21942">
        <ele>89.2</ele>
        <time>2026-06-20T07:19:58Z</time>
      </trkpt>
      <trkpt lat="47.27163" lon="-0.21941">
        <ele>89</ele>
        <time>2026-06-20T07:19:59Z</time>
      </trkpt>
      <trkpt lat="47.27168" lon="-0.21938">
        <ele>89</ele>
        <time>2026-06-20T07:20:00Z</time>
      </trkpt>
      <trkpt lat="47.27173" lon="-0.21935">
        <ele>89</ele>
        <time>2026-06-20T07:20:01Z</time>
      </trkpt>
      <trkpt lat="47.27177" lon="-0.21933">
        <ele>89</ele>
        <time>2026-06-20T07:20:02Z</time>
      </trkpt>
      <trkpt lat="47.27181" lon="-0.2193">
        <ele>89</ele>
        <time>2026-06-20T07:20:03Z</time>
      </trkpt>
      <trkpt lat="47.27186" lon="-0.21928">
        <ele>89</ele>
        <time>2026-06-20T07:20:04Z</time>
      </trkpt>
      <trkpt lat="47.2719" lon="-0.21926">
        <ele>89.2</ele>
        <time>2026-06-20T07:20:05Z</time>
      </trkpt>
      <trkpt lat="47.27193" lon="-0.21926">
        <ele>89.2</ele>
        <time>2026-06-20T07:20:06Z</time>
      </trkpt>
      <trkpt lat="47.27196" lon="-0.21924">
        <ele>89.4</ele>
        <time>2026-06-20T07:20:07Z</time>
      </trkpt>
      <trkpt lat="47.272" lon="-0.21922">
        <ele>89.4</ele>
        <time>2026-06-20T07:20:08Z</time>
      </trkpt>
      <trkpt lat="47.27202" lon="-0.21922">
        <ele>89.6</ele>
        <time>2026-06-20T07:20:09Z</time>
      </trkpt>
      <trkpt lat="47.27204" lon="-0.21922">
        <ele>89.6</ele>
        <time>2026-06-20T07:20:10Z</time>
      </trkpt>
      <trkpt lat="47.27207" lon="-0.21923">
        <ele>89.6</ele>
        <time>2026-06-20T07:20:11Z</time>
      </trkpt>
      <trkpt lat="47.27211" lon="-0.21922">
        <ele>89.6</ele>
        <time>2026-06-20T07:20:12Z</time>
      </trkpt>
      <trkpt lat="47.27215" lon="-0.21921">
        <ele>89.6</ele>
        <time>2026-06-20T07:20:13Z</time>
      </trkpt>
      <trkpt lat="47.27219" lon="-0.21919">
        <ele>89.6</ele>
        <time>2026-06-20T07:20:14Z</time>
      </trkpt>
      <trkpt lat="47.27223" lon="-0.21918">
        <ele>89.6</ele>
        <time>2026-06-20T07:20:15Z</time>
      </trkpt>
      <trkpt lat="47.27227" lon="-0.21917">
        <ele>89.6</ele>
        <time>2026-06-20T07:20:16Z</time>
      </trkpt>
      <trkpt lat="47.27232" lon="-0.21917">
        <ele>89.6</ele>
        <time>2026-06-20T07:20:17Z</time>
      </trkpt>
      <trkpt lat="47.27236" lon="-0.21917">
        <ele>89.6</ele>
        <time>2026-06-20T07:20:18Z</time>
      </trkpt>
      <trkpt lat="47.27241" lon="-0.21916">
        <ele>89.6</ele>
        <time>2026-06-20T07:20:19Z</time>
      </trkpt>
      <trkpt lat="47.27245" lon="-0.21915">
        <ele>89.6</ele>
        <time>2026-06-20T07:20:20Z</time>
      </trkpt>
      <trkpt lat="47.27249" lon="-0.21915">
        <ele>89.6</ele>
        <time>2026-06-20T07:20:21Z</time>
      </trkpt>
      <trkpt lat="47.27254" lon="-0.21914">
        <ele>89.8</ele>
        <time>2026-06-20T07:20:22Z</time>
      </trkpt>
      <trkpt lat="47.27258" lon="-0.21915">
        <ele>89.8</ele>
        <time>2026-06-20T07:20:23Z</time>
      </trkpt>
      <trkpt lat="47.27262" lon="-0.21915">
        <ele>89.8</ele>
        <time>2026-06-20T07:20:24Z</time>
      </trkpt>
      <trkpt lat="47.27266" lon="-0.21915">
        <ele>90</ele>
        <time>2026-06-20T07:20:25Z</time>
      </trkpt>
      <trkpt lat="47.2727" lon="-0.21915">
        <ele>90.2</ele>
        <time>2026-06-20T07:20:26Z</time>
      </trkpt>
      <trkpt lat="47.27274" lon="-0.21916">
        <ele>90.4</ele>
        <time>2026-06-20T07:20:27Z</time>
      </trkpt>
      <trkpt lat="47.27277" lon="-0.21916">
        <ele>90.6</ele>
        <time>2026-06-20T07:20:28Z</time>
      </trkpt>
      <trkpt lat="47.2728" lon="-0.21916">
        <ele>90.6</ele>
        <time>2026-06-20T07:20:29Z</time>
      </trkpt>
      <trkpt lat="47.27283" lon="-0.21916">
        <ele>90.8</ele>
        <time>2026-06-20T07:20:30Z</time>
      </trkpt>
      <trkpt lat="47.27287" lon="-0.21916">
        <ele>91</ele>
        <time>2026-06-20T07:20:31Z</time>
      </trkpt>
      <trkpt lat="47.2729" lon="-0.21917">
        <ele>91</ele>
        <time>2026-06-20T07:20:32Z</time>
      </trkpt>
      <trkpt lat="47.27293" lon="-0.21917">
        <ele>91.2</ele>
        <time>2026-06-20T07:20:33Z</time>
      </trkpt>
      <trkpt lat="47.27297" lon="-0.21917">
        <ele>91.4</ele>
        <time>2026-06-20T07:20:34Z</time>
      </trkpt>
      <trkpt lat="47.273" lon="-0.21917">
        <ele>91.4</ele>
        <time>2026-06-20T07:20:35Z</time>
      </trkpt>
      <trkpt lat="47.27304" lon="-0.21917">
        <ele>91.4</ele>
        <time>2026-06-20T07:20:36Z</time>
      </trkpt>
      <trkpt lat="47.27307" lon="-0.21917">
        <ele>91.6</ele>
        <time>2026-06-20T07:20:37Z</time>
      </trkpt>
      <trkpt lat="47.2731" lon="-0.21918">
        <ele>91.6</ele>
        <time>2026-06-20T07:20:38Z</time>
      </trkpt>
      <trkpt lat="47.27313" lon="-0.21918">
        <ele>91.6</ele>
        <time>2026-06-20T07:20:39Z</time>
      </trkpt>
      <trkpt lat="47.27316" lon="-0.21918">
        <ele>91.6</ele>
        <time>2026-06-20T07:20:40Z</time>
      </trkpt>
      <trkpt lat="47.2732" lon="-0.21917">
        <ele>91.8</ele>
        <time>2026-06-20T07:20:41Z</time>
      </trkpt>
      <trkpt lat="47.27323" lon="-0.21915">
        <ele>91.8</ele>
        <time>2026-06-20T07:20:42Z</time>
      </trkpt>
      <trkpt lat="47.27327" lon="-0.21913">
        <ele>91.8</ele>
        <time>2026-06-20T07:20:43Z</time>
      </trkpt>
      <trkpt lat="47.2733" lon="-0.21912">
        <ele>91.8</ele>
        <time>2026-06-20T07:20:44Z</time>
      </trkpt>
      <trkpt lat="47.27333" lon="-0.21911">
        <ele>91.8</ele>
        <time>2026-06-20T07:20:45Z</time>
      </trkpt>
      <trkpt lat="47.27336" lon="-0.2191">
        <ele>91.8</ele>
        <time>2026-06-20T07:20:46Z</time>
      </trkpt>
      <trkpt lat="47.2734" lon="-0.21909">
        <ele>91.8</ele>
        <time>2026-06-20T07:20:47Z</time>
      </trkpt>
      <trkpt lat="47.27344" lon="-0.21908">
        <ele>91.8</ele>
        <time>2026-06-20T07:20:48Z</time>
      </trkpt>
      <trkpt lat="47.27348" lon="-0.21906">
        <ele>91.6</ele>
        <time>2026-06-20T07:20:49Z</time>
      </trkpt>
      <trkpt lat="47.27352" lon="-0.21904">
        <ele>91.6</ele>
        <time>2026-06-20T07:20:50Z</time>
      </trkpt>
      <trkpt lat="47.27356" lon="-0.21903">
        <ele>91.6</ele>
        <time>2026-06-20T07:20:51Z</time>
      </trkpt>
      <trkpt lat="47.27361" lon="-0.21902">
        <ele>91.4</ele>
        <time>2026-06-20T07:20:52Z</time>
      </trkpt>
      <trkpt lat="47.27365" lon="-0.21901">
        <ele>91.4</ele>
        <time>2026-06-20T07:20:53Z</time>
      </trkpt>
      <trkpt lat="47.2737" lon="-0.21901">
        <ele>91.2</ele>
        <time>2026-06-20T07:20:54Z</time>
      </trkpt>
      <trkpt lat="47.27374" lon="-0.219">
        <ele>91.2</ele>
        <time>2026-06-20T07:20:55Z</time>
      </trkpt>
      <trkpt lat="47.27378" lon="-0.21898">
        <ele>91</ele>
        <time>2026-06-20T07:20:56Z</time>
      </trkpt>
      <trkpt lat="47.27382" lon="-0.21896">
        <ele>91</ele>
        <time>2026-06-20T07:20:57Z</time>
      </trkpt>
      <trkpt lat="47.27386" lon="-0.21894">
        <ele>90.8</ele>
        <time>2026-06-20T07:20:58Z</time>
      </trkpt>
      <trkpt lat="47.27391" lon="-0.21893">
        <ele>90.6</ele>
        <time>2026-06-20T07:20:59Z</time>
      </trkpt>
      <trkpt lat="47.27396" lon="-0.21892">
        <ele>90.6</ele>
        <time>2026-06-20T07:21:00Z</time>
      </trkpt>
      <trkpt lat="47.27401" lon="-0.2189">
        <ele>90.4</ele>
        <time>2026-06-20T07:21:01Z</time>
      </trkpt>
      <trkpt lat="47.27407" lon="-0.2189">
        <ele>90.4</ele>
        <time>2026-06-20T07:21:02Z</time>
      </trkpt>
      <trkpt lat="47.27412" lon="-0.2189">
        <ele>90.2</ele>
        <time>2026-06-20T07:21:03Z</time>
      </trkpt>
      <trkpt lat="47.27417" lon="-0.2189">
        <ele>90.2</ele>
        <time>2026-06-20T07:21:04Z</time>
      </trkpt>
      <trkpt lat="47.27422" lon="-0.21891">
        <ele>90</ele>
        <time>2026-06-20T07:21:05Z</time>
      </trkpt>
      <trkpt lat="47.27427" lon="-0.21891">
        <ele>90</ele>
        <time>2026-06-20T07:21:06Z</time>
      </trkpt>
      <trkpt lat="47.27432" lon="-0.21893">
        <ele>89.8</ele>
        <time>2026-06-20T07:21:07Z</time>
      </trkpt>
      <trkpt lat="47.27437" lon="-0.21893">
        <ele>89.8</ele>
        <time>2026-06-20T07:21:08Z</time>
      </trkpt>
      <trkpt lat="47.27442" lon="-0.21895">
        <ele>89.8</ele>
        <time>2026-06-20T07:21:09Z</time>
      </trkpt>
      <trkpt lat="47.27447" lon="-0.21896">
        <ele>89.8</ele>
        <time>2026-06-20T07:21:10Z</time>
      </trkpt>
      <trkpt lat="47.27452" lon="-0.21897">
        <ele>89.8</ele>
        <time>2026-06-20T07:21:11Z</time>
      </trkpt>
      <trkpt lat="47.27457" lon="-0.21898">
        <ele>89.8</ele>
        <time>2026-06-20T07:21:12Z</time>
      </trkpt>
      <trkpt lat="47.27461" lon="-0.21899">
        <ele>89.8</ele>
        <time>2026-06-20T07:21:13Z</time>
      </trkpt>
      <trkpt lat="47.27467" lon="-0.21898">
        <ele>90</ele>
        <time>2026-06-20T07:21:14Z</time>
      </trkpt>
      <trkpt lat="47.27472" lon="-0.21899">
        <ele>90</ele>
        <time>2026-06-20T07:21:15Z</time>
      </trkpt>
      <trkpt lat="47.27477" lon="-0.219">
        <ele>90</ele>
        <time>2026-06-20T07:21:16Z</time>
      </trkpt>
      <trkpt lat="47.27482" lon="-0.21901">
        <ele>90</ele>
        <time>2026-06-20T07:21:17Z</time>
      </trkpt>
      <trkpt lat="47.27486" lon="-0.21902">
        <ele>90</ele>
        <time>2026-06-20T07:21:18Z</time>
      </trkpt>
      <trkpt lat="47.27491" lon="-0.21903">
        <ele>90</ele>
        <time>2026-06-20T07:21:19Z</time>
      </trkpt>
      <trkpt lat="47.27495" lon="-0.21904">
        <ele>90.2</ele>
        <time>2026-06-20T07:21:20Z</time>
      </trkpt>
      <trkpt lat="47.275" lon="-0.21906">
        <ele>90.2</ele>
        <time>2026-06-20T07:21:21Z</time>
      </trkpt>
      <trkpt lat="47.27504" lon="-0.21907">
        <ele>90.4</ele>
        <time>2026-06-20T07:21:22Z</time>
      </trkpt>
      <trkpt lat="47.27508" lon="-0.21909">
        <ele>90.4</ele>
        <time>2026-06-20T07:21:23Z</time>
      </trkpt>
      <trkpt lat="47.27512" lon="-0.21911">
        <ele>90.6</ele>
        <time>2026-06-20T07:21:24Z</time>
      </trkpt>
      <trkpt lat="47.27515" lon="-0.21913">
        <ele>90.6</ele>
        <time>2026-06-20T07:21:25Z</time>
      </trkpt>
      <trkpt lat="47.27519" lon="-0.21915">
        <ele>90.8</ele>
        <time>2026-06-20T07:21:26Z</time>
      </trkpt>
      <trkpt lat="47.27522" lon="-0.21917">
        <ele>91</ele>
        <time>2026-06-20T07:21:27Z</time>
      </trkpt>
      <trkpt lat="47.27526" lon="-0.2192">
        <ele>91.2</ele>
        <time>2026-06-20T07:21:28Z</time>
      </trkpt>
      <trkpt lat="47.27529" lon="-0.21922">
        <ele>91.4</ele>
        <time>2026-06-20T07:21:29Z</time>
      </trkpt>
      <trkpt lat="47.27533" lon="-0.21925">
        <ele>91.4</ele>
        <time>2026-06-20T07:21:30Z</time>
      </trkpt>
      <trkpt lat="47.27536" lon="-0.21928">
        <ele>91.6</ele>
        <time>2026-06-20T07:21:31Z</time>
      </trkpt>
      <trkpt lat="47.2754" lon="-0.2193">
        <ele>91.8</ele>
        <time>2026-06-20T07:21:32Z</time>
      </trkpt>
      <trkpt lat="47.27543" lon="-0.21932">
        <ele>91.8</ele>
        <time>2026-06-20T07:21:33Z</time>
      </trkpt>
      <trkpt lat="47.27547" lon="-0.21934">
        <ele>91.8</ele>
        <time>2026-06-20T07:21:34Z</time>
      </trkpt>
      <trkpt lat="47.27551" lon="-0.21936">
        <ele>92</ele>
        <time>2026-06-20T07:21:35Z</time>
      </trkpt>
      <trkpt lat="47.27555" lon="-0.21938">
        <ele>92</ele>
        <time>2026-06-20T07:21:36Z</time>
      </trkpt>
      <trkpt lat="47.27559" lon="-0.2194">
        <ele>92</ele>
        <time>2026-06-20T07:21:37Z</time>
      </trkpt>
      <trkpt lat="47.27563" lon="-0.21941">
        <ele>92</ele>
        <time>2026-06-20T07:21:38Z</time>
      </trkpt>
      <trkpt lat="47.27567" lon="-0.21943">
        <ele>92.2</ele>
        <time>2026-06-20T07:21:39Z</time>
      </trkpt>
      <trkpt lat="47.27571" lon="-0.21944">
        <ele>92.2</ele>
        <time>2026-06-20T07:21:40Z</time>
      </trkpt>
      <trkpt lat="47.27574" lon="-0.21946">
        <ele>92.2</ele>
        <time>2026-06-20T07:21:41Z</time>
      </trkpt>
      <trkpt lat="47.27578" lon="-0.21946">
        <ele>92.4</ele>
        <time>2026-06-20T07:21:42Z</time>
      </trkpt>
      <trkpt lat="47.27581" lon="-0.21948">
        <ele>92.4</ele>
        <time>2026-06-20T07:21:43Z</time>
      </trkpt>
      <trkpt lat="47.27585" lon="-0.21949">
        <ele>92.4</ele>
        <time>2026-06-20T07:21:44Z</time>
      </trkpt>
      <trkpt lat="47.27589" lon="-0.21951">
        <ele>92.4</ele>
        <time>2026-06-20T07:21:45Z</time>
      </trkpt>
      <trkpt lat="47.27593" lon="-0.21953">
        <ele>92.6</ele>
        <time>2026-06-20T07:21:46Z</time>
      </trkpt>
      <trkpt lat="47.27596" lon="-0.21955">
        <ele>92.4</ele>
        <time>2026-06-20T07:21:47Z</time>
      </trkpt>
      <trkpt lat="47.276" lon="-0.21958">
        <ele>92.4</ele>
        <time>2026-06-20T07:21:48Z</time>
      </trkpt>
      <trkpt lat="47.27604" lon="-0.21961">
        <ele>92.4</ele>
        <time>2026-06-20T07:21:49Z</time>
      </trkpt>
      <trkpt lat="47.27608" lon="-0.21964">
        <ele>92.4</ele>
        <time>2026-06-20T07:21:50Z</time>
      </trkpt>
      <trkpt lat="47.27611" lon="-0.21967">
        <ele>92.4</ele>
        <time>2026-06-20T07:21:51Z</time>
      </trkpt>
      <trkpt lat="47.27614" lon="-0.21971">
        <ele>92.4</ele>
        <time>2026-06-20T07:21:52Z</time>
      </trkpt>
      <trkpt lat="47.27617" lon="-0.21975">
        <ele>92.4</ele>
        <time>2026-06-20T07:21:53Z</time>
      </trkpt>
      <trkpt lat="47.27621" lon="-0.21978">
        <ele>92.4</ele>
        <time>2026-06-20T07:21:54Z</time>
      </trkpt>
      <trkpt lat="47.27625" lon="-0.21981">
        <ele>92.6</ele>
        <time>2026-06-20T07:21:55Z</time>
      </trkpt>
      <trkpt lat="47.27629" lon="-0.21983">
        <ele>92.6</ele>
        <time>2026-06-20T07:21:56Z</time>
      </trkpt>
      <trkpt lat="47.27633" lon="-0.21985">
        <ele>92.6</ele>
        <time>2026-06-20T07:21:57Z</time>
      </trkpt>
      <trkpt lat="47.27637" lon="-0.21986">
        <ele>92.4</ele>
        <time>2026-06-20T07:21:58Z</time>
      </trkpt>
      <trkpt lat="47.27641" lon="-0.21987">
        <ele>92.4</ele>
        <time>2026-06-20T07:21:59Z</time>
      </trkpt>
      <trkpt lat="47.27646" lon="-0.21988">
        <ele>92.4</ele>
        <time>2026-06-20T07:22:00Z</time>
      </trkpt>
      <trkpt lat="47.2765" lon="-0.21988">
        <ele>92.4</ele>
        <time>2026-06-20T07:22:01Z</time>
      </trkpt>
      <trkpt lat="47.27654" lon="-0.2199">
        <ele>92.4</ele>
        <time>2026-06-20T07:22:02Z</time>
      </trkpt>
      <trkpt lat="47.27658" lon="-0.21991">
        <ele>92.4</ele>
        <time>2026-06-20T07:22:03Z</time>
      </trkpt>
      <trkpt lat="47.27663" lon="-0.21991">
        <ele>92.2</ele>
        <time>2026-06-20T07:22:04Z</time>
      </trkpt>
      <trkpt lat="47.27667" lon="-0.21991">
        <ele>92.2</ele>
        <time>2026-06-20T07:22:05Z</time>
      </trkpt>
      <trkpt lat="47.2767" lon="-0.21991">
        <ele>92.2</ele>
        <time>2026-06-20T07:22:06Z</time>
      </trkpt>
      <trkpt lat="47.27674" lon="-0.2199">
        <ele>92.2</ele>
        <time>2026-06-20T07:22:07Z</time>
      </trkpt>
      <trkpt lat="47.27677" lon="-0.2199">
        <ele>92.2</ele>
        <time>2026-06-20T07:22:08Z</time>
      </trkpt>
      <trkpt lat="47.27681" lon="-0.21989">
        <ele>92.2</ele>
        <time>2026-06-20T07:22:09Z</time>
      </trkpt>
      <trkpt lat="47.27685" lon="-0.21989">
        <ele>92.2</ele>
        <time>2026-06-20T07:22:10Z</time>
      </trkpt>
      <trkpt lat="47.27689" lon="-0.21988">
        <ele>92.4</ele>
        <time>2026-06-20T07:22:11Z</time>
      </trkpt>
      <trkpt lat="47.27693" lon="-0.21987">
        <ele>92.2</ele>
        <time>2026-06-20T07:22:12Z</time>
      </trkpt>
      <trkpt lat="47.27697" lon="-0.21987">
        <ele>92.2</ele>
        <time>2026-06-20T07:22:13Z</time>
      </trkpt>
      <trkpt lat="47.27701" lon="-0.21987">
        <ele>92</ele>
        <time>2026-06-20T07:22:14Z</time>
      </trkpt>
      <trkpt lat="47.27705" lon="-0.21987">
        <ele>92</ele>
        <time>2026-06-20T07:22:15Z</time>
      </trkpt>
      <trkpt lat="47.27708" lon="-0.21986">
        <ele>91.8</ele>
        <time>2026-06-20T07:22:16Z</time>
      </trkpt>
      <trkpt lat="47.2771" lon="-0.21984">
        <ele>91.8</ele>
        <time>2026-06-20T07:22:17Z</time>
      </trkpt>
      <trkpt lat="47.27711" lon="-0.2198">
        <ele>92</ele>
        <time>2026-06-20T07:22:18Z</time>
      </trkpt>
      <trkpt lat="47.2771" lon="-0.21976">
        <ele>92</ele>
        <time>2026-06-20T07:22:19Z</time>
      </trkpt>
      <trkpt lat="47.27707" lon="-0.21972">
        <ele>92</ele>
        <time>2026-06-20T07:22:20Z</time>
      </trkpt>
      <trkpt lat="47.27704" lon="-0.21969">
        <ele>92</ele>
        <time>2026-06-20T07:22:21Z</time>
      </trkpt>
      <trkpt lat="47.27701" lon="-0.21965">
        <ele>92</ele>
        <time>2026-06-20T07:22:22Z</time>
      </trkpt>
      <trkpt lat="47.27698" lon="-0.2196">
        <ele>91.8</ele>
        <time>2026-06-20T07:22:23Z</time>
      </trkpt>
      <trkpt lat="47.27695" lon="-0.21956">
        <ele>91.8</ele>
        <time>2026-06-20T07:22:24Z</time>
      </trkpt>
      <trkpt lat="47.27691" lon="-0.21951">
        <ele>91.8</ele>
        <time>2026-06-20T07:22:25Z</time>
      </trkpt>
      <trkpt lat="47.27687" lon="-0.21947">
        <ele>91.8</ele>
        <time>2026-06-20T07:22:26Z</time>
      </trkpt>
      <trkpt lat="47.27684" lon="-0.21942">
        <ele>91.6</ele>
        <time>2026-06-20T07:22:27Z</time>
      </trkpt>
      <trkpt lat="47.2768" lon="-0.21937">
        <ele>91.6</ele>
        <time>2026-06-20T07:22:28Z</time>
      </trkpt>
      <trkpt lat="47.27676" lon="-0.21932">
        <ele>91.6</ele>
        <time>2026-06-20T07:22:29Z</time>
      </trkpt>
      <trkpt lat="47.27673" lon="-0.21928">
        <ele>91.6</ele>
        <time>2026-06-20T07:22:30Z</time>
      </trkpt>
      <trkpt lat="47.27669" lon="-0.21922">
        <ele>91.4</ele>
        <time>2026-06-20T07:22:31Z</time>
      </trkpt>
      <trkpt lat="47.27666" lon="-0.21917">
        <ele>91.4</ele>
        <time>2026-06-20T07:22:32Z</time>
      </trkpt>
      <trkpt lat="47.27663" lon="-0.21912">
        <ele>91.6</ele>
        <time>2026-06-20T07:22:33Z</time>
      </trkpt>
      <trkpt lat="47.2766" lon="-0.21907">
        <ele>91.6</ele>
        <time>2026-06-20T07:22:34Z</time>
      </trkpt>
      <trkpt lat="47.27656" lon="-0.21903">
        <ele>91.4</ele>
        <time>2026-06-20T07:22:35Z</time>
      </trkpt>
      <trkpt lat="47.27653" lon="-0.21898">
        <ele>91.6</ele>
        <time>2026-06-20T07:22:36Z</time>
      </trkpt>
      <trkpt lat="47.27649" lon="-0.21894">
        <ele>91.6</ele>
        <time>2026-06-20T07:22:37Z</time>
      </trkpt>
      <trkpt lat="47.27646" lon="-0.21889">
        <ele>91.4</ele>
        <time>2026-06-20T07:22:38Z</time>
      </trkpt>
      <trkpt lat="47.27642" lon="-0.21883">
        <ele>91.4</ele>
        <time>2026-06-20T07:22:39Z</time>
      </trkpt>
      <trkpt lat="47.27638" lon="-0.21878">
        <ele>91.4</ele>
        <time>2026-06-20T07:22:40Z</time>
      </trkpt>
      <trkpt lat="47.27635" lon="-0.21873">
        <ele>91.2</ele>
        <time>2026-06-20T07:22:41Z</time>
      </trkpt>
      <trkpt lat="47.27631" lon="-0.21868">
        <ele>91.2</ele>
        <time>2026-06-20T07:22:42Z</time>
      </trkpt>
      <trkpt lat="47.27628" lon="-0.21863">
        <ele>91</ele>
        <time>2026-06-20T07:22:43Z</time>
      </trkpt>
      <trkpt lat="47.27624" lon="-0.21858">
        <ele>91</ele>
        <time>2026-06-20T07:22:44Z</time>
      </trkpt>
      <trkpt lat="47.27621" lon="-0.21852">
        <ele>90.8</ele>
        <time>2026-06-20T07:22:45Z</time>
      </trkpt>
      <trkpt lat="47.27617" lon="-0.21847">
        <ele>90.6</ele>
        <time>2026-06-20T07:22:46Z</time>
      </trkpt>
      <trkpt lat="47.27614" lon="-0.21841">
        <ele>90.6</ele>
        <time>2026-06-20T07:22:47Z</time>
      </trkpt>
      <trkpt lat="47.2761" lon="-0.21835">
        <ele>90.6</ele>
        <time>2026-06-20T07:22:48Z</time>
      </trkpt>
      <trkpt lat="47.27606" lon="-0.2183">
        <ele>90.4</ele>
        <time>2026-06-20T07:22:49Z</time>
      </trkpt>
      <trkpt lat="47.27603" lon="-0.21824">
        <ele>90.4</ele>
        <time>2026-06-20T07:22:50Z</time>
      </trkpt>
      <trkpt lat="47.27599" lon="-0.21818">
        <ele>90.4</ele>
        <time>2026-06-20T07:22:51Z</time>
      </trkpt>
      <trkpt lat="47.27595" lon="-0.21813">
        <ele>90.4</ele>
        <time>2026-06-20T07:22:52Z</time>
      </trkpt>
      <trkpt lat="47.27592" lon="-0.21808">
        <ele>90.4</ele>
        <time>2026-06-20T07:22:53Z</time>
      </trkpt>
      <trkpt lat="47.27588" lon="-0.21803">
        <ele>90.4</ele>
        <time>2026-06-20T07:22:54Z</time>
      </trkpt>
      <trkpt lat="47.27585" lon="-0.21798">
        <ele>90.4</ele>
        <time>2026-06-20T07:22:55Z</time>
      </trkpt>
      <trkpt lat="47.27581" lon="-0.21793">
        <ele>90.4</ele>
        <time>2026-06-20T07:22:56Z</time>
      </trkpt>
      <trkpt lat="47.27578" lon="-0.21788">
        <ele>90.2</ele>
        <time>2026-06-20T07:22:57Z</time>
      </trkpt>
      <trkpt lat="47.27574" lon="-0.21783">
        <ele>90.2</ele>
        <time>2026-06-20T07:22:58Z</time>
      </trkpt>
      <trkpt lat="47.2757" lon="-0.21777">
        <ele>90.2</ele>
        <time>2026-06-20T07:22:59Z</time>
      </trkpt>
      <trkpt lat="47.27566" lon="-0.21772">
        <ele>90</ele>
        <time>2026-06-20T07:23:00Z</time>
      </trkpt>
      <trkpt lat="47.27562" lon="-0.21766">
        <ele>90</ele>
        <time>2026-06-20T07:23:01Z</time>
      </trkpt>
      <trkpt lat="47.27558" lon="-0.21761">
        <ele>89.8</ele>
        <time>2026-06-20T07:23:02Z</time>
      </trkpt>
      <trkpt lat="47.27555" lon="-0.21756">
        <ele>89.6</ele>
        <time>2026-06-20T07:23:03Z</time>
      </trkpt>
      <trkpt lat="47.27551" lon="-0.2175">
        <ele>89.6</ele>
        <time>2026-06-20T07:23:04Z</time>
      </trkpt>
      <trkpt lat="47.27547" lon="-0.21745">
        <ele>89.6</ele>
        <time>2026-06-20T07:23:05Z</time>
      </trkpt>
      <trkpt lat="47.27544" lon="-0.21741">
        <ele>89.6</ele>
        <time>2026-06-20T07:23:06Z</time>
      </trkpt>
      <trkpt lat="47.2754" lon="-0.21737">
        <ele>89.6</ele>
        <time>2026-06-20T07:23:07Z</time>
      </trkpt>
      <trkpt lat="47.27537" lon="-0.21732">
        <ele>89.6</ele>
        <time>2026-06-20T07:23:08Z</time>
      </trkpt>
      <trkpt lat="47.27533" lon="-0.21728">
        <ele>89.6</ele>
        <time>2026-06-20T07:23:09Z</time>
      </trkpt>
      <trkpt lat="47.27529" lon="-0.21724">
        <ele>89.6</ele>
        <time>2026-06-20T07:23:10Z</time>
      </trkpt>
      <trkpt lat="47.27525" lon="-0.2172">
        <ele>89.6</ele>
        <time>2026-06-20T07:23:11Z</time>
      </trkpt>
      <trkpt lat="47.27522" lon="-0.21716">
        <ele>89.6</ele>
        <time>2026-06-20T07:23:12Z</time>
      </trkpt>
      <trkpt lat="47.27521" lon="-0.21711">
        <ele>89.6</ele>
        <time>2026-06-20T07:23:13Z</time>
      </trkpt>
      <trkpt lat="47.27521" lon="-0.21706">
        <ele>89.8</ele>
        <time>2026-06-20T07:23:14Z</time>
      </trkpt>
      <trkpt lat="47.27523" lon="-0.21701">
        <ele>89.8</ele>
        <time>2026-06-20T07:23:15Z</time>
      </trkpt>
      <trkpt lat="47.27525" lon="-0.21696">
        <ele>89.8</ele>
        <time>2026-06-20T07:23:16Z</time>
      </trkpt>
      <trkpt lat="47.27527" lon="-0.21691">
        <ele>89.8</ele>
        <time>2026-06-20T07:23:17Z</time>
      </trkpt>
      <trkpt lat="47.27529" lon="-0.21687">
        <ele>89.8</ele>
        <time>2026-06-20T07:23:18Z</time>
      </trkpt>
      <trkpt lat="47.27532" lon="-0.21683">
        <ele>89.8</ele>
        <time>2026-06-20T07:23:19Z</time>
      </trkpt>
      <trkpt lat="47.27535" lon="-0.21678">
        <ele>89.6</ele>
        <time>2026-06-20T07:23:20Z</time>
      </trkpt>
      <trkpt lat="47.27538" lon="-0.21674">
        <ele>89.6</ele>
        <time>2026-06-20T07:23:21Z</time>
      </trkpt>
      <trkpt lat="47.27541" lon="-0.2167">
        <ele>89.6</ele>
        <time>2026-06-20T07:23:22Z</time>
      </trkpt>
      <trkpt lat="47.27544" lon="-0.21666">
        <ele>89.6</ele>
        <time>2026-06-20T07:23:23Z</time>
      </trkpt>
      <trkpt lat="47.27547" lon="-0.21661">
        <ele>89.6</ele>
        <time>2026-06-20T07:23:24Z</time>
      </trkpt>
      <trkpt lat="47.2755" lon="-0.21657">
        <ele>89.6</ele>
        <time>2026-06-20T07:23:25Z</time>
      </trkpt>
      <trkpt lat="47.27553" lon="-0.21653">
        <ele>89.4</ele>
        <time>2026-06-20T07:23:26Z</time>
      </trkpt>
      <trkpt lat="47.27555" lon="-0.21649">
        <ele>89.4</ele>
        <time>2026-06-20T07:23:27Z</time>
      </trkpt>
      <trkpt lat="47.27558" lon="-0.21645">
        <ele>89.4</ele>
        <time>2026-06-20T07:23:28Z</time>
      </trkpt>
      <trkpt lat="47.2756" lon="-0.2164">
        <ele>89.4</ele>
        <time>2026-06-20T07:23:29Z</time>
      </trkpt>
      <trkpt lat="47.27563" lon="-0.21636">
        <ele>89.4</ele>
        <time>2026-06-20T07:23:30Z</time>
      </trkpt>
      <trkpt lat="47.27566" lon="-0.21632">
        <ele>89.2</ele>
        <time>2026-06-20T07:23:31Z</time>
      </trkpt>
      <trkpt lat="47.27569" lon="-0.21627">
        <ele>89.2</ele>
        <time>2026-06-20T07:23:32Z</time>
      </trkpt>
      <trkpt lat="47.27571" lon="-0.21621">
        <ele>89.2</ele>
        <time>2026-06-20T07:23:33Z</time>
      </trkpt>
      <trkpt lat="47.27574" lon="-0.21617">
        <ele>89</ele>
        <time>2026-06-20T07:23:34Z</time>
      </trkpt>
      <trkpt lat="47.27576" lon="-0.21612">
        <ele>89</ele>
        <time>2026-06-20T07:23:35Z</time>
      </trkpt>
      <trkpt lat="47.27578" lon="-0.21608">
        <ele>88.8</ele>
        <time>2026-06-20T07:23:36Z</time>
      </trkpt>
      <trkpt lat="47.2758" lon="-0.21604">
        <ele>88.8</ele>
        <time>2026-06-20T07:23:37Z</time>
      </trkpt>
      <trkpt lat="47.27583" lon="-0.216">
        <ele>88.8</ele>
        <time>2026-06-20T07:23:38Z</time>
      </trkpt>
      <trkpt lat="47.27585" lon="-0.21595">
        <ele>88.6</ele>
        <time>2026-06-20T07:23:39Z</time>
      </trkpt>
      <trkpt lat="47.27587" lon="-0.2159">
        <ele>88.6</ele>
        <time>2026-06-20T07:23:40Z</time>
      </trkpt>
      <trkpt lat="47.2759" lon="-0.21586">
        <ele>88.6</ele>
        <time>2026-06-20T07:23:41Z</time>
      </trkpt>
      <trkpt lat="47.27592" lon="-0.21581">
        <ele>88.4</ele>
        <time>2026-06-20T07:23:42Z</time>
      </trkpt>
      <trkpt lat="47.27594" lon="-0.21576">
        <ele>88.4</ele>
        <time>2026-06-20T07:23:43Z</time>
      </trkpt>
      <trkpt lat="47.27597" lon="-0.21571">
        <ele>88.4</ele>
        <time>2026-06-20T07:23:44Z</time>
      </trkpt>
      <trkpt lat="47.27599" lon="-0.21567">
        <ele>88.4</ele>
        <time>2026-06-20T07:23:45Z</time>
      </trkpt>
      <trkpt lat="47.27601" lon="-0.21562">
        <ele>88.2</ele>
        <time>2026-06-20T07:23:46Z</time>
      </trkpt>
      <trkpt lat="47.27603" lon="-0.21558">
        <ele>88.2</ele>
        <time>2026-06-20T07:23:47Z</time>
      </trkpt>
      <trkpt lat="47.27605" lon="-0.21554">
        <ele>88.2</ele>
        <time>2026-06-20T07:23:48Z</time>
      </trkpt>
      <trkpt lat="47.27606" lon="-0.21551">
        <ele>88.2</ele>
        <time>2026-06-20T07:23:49Z</time>
      </trkpt>
      <trkpt lat="47.27608" lon="-0.21548">
        <ele>88.2</ele>
        <time>2026-06-20T07:23:50Z</time>
      </trkpt>
      <trkpt lat="47.2761" lon="-0.21544">
        <ele>88.4</ele>
        <time>2026-06-20T07:23:51Z</time>
      </trkpt>
      <trkpt lat="47.27612" lon="-0.2154">
        <ele>88.2</ele>
        <time>2026-06-20T07:23:52Z</time>
      </trkpt>
      <trkpt lat="47.27614" lon="-0.21536">
        <ele>88.2</ele>
        <time>2026-06-20T07:23:53Z</time>
      </trkpt>
      <trkpt lat="47.27616" lon="-0.21531">
        <ele>88</ele>
        <time>2026-06-20T07:23:54Z</time>
      </trkpt>
      <trkpt lat="47.27618" lon="-0.21526">
        <ele>88</ele>
        <time>2026-06-20T07:23:55Z</time>
      </trkpt>
      <trkpt lat="47.2762" lon="-0.21521">
        <ele>87.8</ele>
        <time>2026-06-20T07:23:56Z</time>
      </trkpt>
      <trkpt lat="47.27623" lon="-0.21516">
        <ele>87.8</ele>
        <time>2026-06-20T07:23:57Z</time>
      </trkpt>
      <trkpt lat="47.27625" lon="-0.21511">
        <ele>87.8</ele>
        <time>2026-06-20T07:23:58Z</time>
      </trkpt>
      <trkpt lat="47.27627" lon="-0.21506">
        <ele>87.6</ele>
        <time>2026-06-20T07:23:59Z</time>
      </trkpt>
      <trkpt lat="47.2763" lon="-0.21501">
        <ele>87.6</ele>
        <time>2026-06-20T07:24:00Z</time>
      </trkpt>
      <trkpt lat="47.27632" lon="-0.21497">
        <ele>87.6</ele>
        <time>2026-06-20T07:24:01Z</time>
      </trkpt>
      <trkpt lat="47.27634" lon="-0.21492">
        <ele>87.6</ele>
        <time>2026-06-20T07:24:02Z</time>
      </trkpt>
      <trkpt lat="47.27635" lon="-0.2149">
        <ele>87.6</ele>
        <time>2026-06-20T07:24:03Z</time>
      </trkpt>
      <trkpt lat="47.27636" lon="-0.21488">
        <ele>87.6</ele>
        <time>2026-06-20T07:24:04Z</time>
      </trkpt>
      <trkpt lat="47.27637" lon="-0.21485">
        <ele>87.6</ele>
        <time>2026-06-20T07:24:05Z</time>
      </trkpt>
      <trkpt lat="47.27638" lon="-0.21482">
        <ele>87.6</ele>
        <time>2026-06-20T07:24:06Z</time>
      </trkpt>
      <trkpt lat="47.2764" lon="-0.21478">
        <ele>87.6</ele>
        <time>2026-06-20T07:24:07Z</time>
      </trkpt>
      <trkpt lat="47.27641" lon="-0.21473">
        <ele>87.6</ele>
        <time>2026-06-20T07:24:08Z</time>
      </trkpt>
      <trkpt lat="47.27642" lon="-0.21469">
        <ele>87.6</ele>
        <time>2026-06-20T07:24:09Z</time>
      </trkpt>
      <trkpt lat="47.27642" lon="-0.21466">
        <ele>87.6</ele>
        <time>2026-06-20T07:24:10Z</time>
      </trkpt>
      <trkpt lat="47.27641" lon="-0.21462">
        <ele>87.4</ele>
        <time>2026-06-20T07:24:11Z</time>
      </trkpt>
      <trkpt lat="47.2764" lon="-0.21458">
        <ele>87.4</ele>
        <time>2026-06-20T07:24:12Z</time>
      </trkpt>
      <trkpt lat="47.27638" lon="-0.21454">
        <ele>87.4</ele>
        <time>2026-06-20T07:24:13Z</time>
      </trkpt>
      <trkpt lat="47.27636" lon="-0.2145">
        <ele>87.2</ele>
        <time>2026-06-20T07:24:14Z</time>
      </trkpt>
      <trkpt lat="47.27634" lon="-0.21447">
        <ele>87.2</ele>
        <time>2026-06-20T07:24:15Z</time>
      </trkpt>
      <trkpt lat="47.27632" lon="-0.21444">
        <ele>87.2</ele>
        <time>2026-06-20T07:24:16Z</time>
      </trkpt>
      <trkpt lat="47.2763" lon="-0.2144">
        <ele>87.2</ele>
        <time>2026-06-20T07:24:17Z</time>
      </trkpt>
      <trkpt lat="47.2763" lon="-0.21435">
        <ele>87.2</ele>
        <time>2026-06-20T07:24:18Z</time>
      </trkpt>
      <trkpt lat="47.27629" lon="-0.2143">
        <ele>87.2</ele>
        <time>2026-06-20T07:24:19Z</time>
      </trkpt>
      <trkpt lat="47.2763" lon="-0.21426">
        <ele>87.2</ele>
        <time>2026-06-20T07:24:20Z</time>
      </trkpt>
      <trkpt lat="47.27631" lon="-0.21422">
        <ele>87.2</ele>
        <time>2026-06-20T07:24:21Z</time>
      </trkpt>
      <trkpt lat="47.27633" lon="-0.21419">
        <ele>87.2</ele>
        <time>2026-06-20T07:24:22Z</time>
      </trkpt>
      <trkpt lat="47.27635" lon="-0.21415">
        <ele>87.2</ele>
        <time>2026-06-20T07:24:23Z</time>
      </trkpt>
      <trkpt lat="47.27637" lon="-0.21411">
        <ele>87.2</ele>
        <time>2026-06-20T07:24:24Z</time>
      </trkpt>
      <trkpt lat="47.27639" lon="-0.21406">
        <ele>87</ele>
        <time>2026-06-20T07:24:25Z</time>
      </trkpt>
      <trkpt lat="47.27641" lon="-0.21403">
        <ele>87</ele>
        <time>2026-06-20T07:24:26Z</time>
      </trkpt>
      <trkpt lat="47.27643" lon="-0.21399">
        <ele>87</ele>
        <time>2026-06-20T07:24:27Z</time>
      </trkpt>
      <trkpt lat="47.27645" lon="-0.21394">
        <ele>87</ele>
        <time>2026-06-20T07:24:28Z</time>
      </trkpt>
      <trkpt lat="47.27647" lon="-0.21391">
        <ele>87</ele>
        <time>2026-06-20T07:24:29Z</time>
      </trkpt>
      <trkpt lat="47.27649" lon="-0.21387">
        <ele>87</ele>
        <time>2026-06-20T07:24:30Z</time>
      </trkpt>
      <trkpt lat="47.27651" lon="-0.21382">
        <ele>87</ele>
        <time>2026-06-20T07:24:31Z</time>
      </trkpt>
      <trkpt lat="47.27653" lon="-0.21378">
        <ele>87</ele>
        <time>2026-06-20T07:24:32Z</time>
      </trkpt>
      <trkpt lat="47.27655" lon="-0.21374">
        <ele>87</ele>
        <time>2026-06-20T07:24:33Z</time>
      </trkpt>
      <trkpt lat="47.27657" lon="-0.2137">
        <ele>87</ele>
        <time>2026-06-20T07:24:34Z</time>
      </trkpt>
      <trkpt lat="47.27659" lon="-0.21365">
        <ele>87</ele>
        <time>2026-06-20T07:24:35Z</time>
      </trkpt>
      <trkpt lat="47.27662" lon="-0.2136">
        <ele>87</ele>
        <time>2026-06-20T07:24:36Z</time>
      </trkpt>
      <trkpt lat="47.27664" lon="-0.21355">
        <ele>87</ele>
        <time>2026-06-20T07:24:37Z</time>
      </trkpt>
      <trkpt lat="47.27665" lon="-0.2135">
        <ele>87</ele>
        <time>2026-06-20T07:24:38Z</time>
      </trkpt>
      <trkpt lat="47.27668" lon="-0.21345">
        <ele>86.8</ele>
        <time>2026-06-20T07:24:39Z</time>
      </trkpt>
      <trkpt lat="47.2767" lon="-0.2134">
        <ele>86.8</ele>
        <time>2026-06-20T07:24:40Z</time>
      </trkpt>
      <trkpt lat="47.27672" lon="-0.21335">
        <ele>86.8</ele>
        <time>2026-06-20T07:24:41Z</time>
      </trkpt>
      <trkpt lat="47.27674" lon="-0.2133">
        <ele>86.8</ele>
        <time>2026-06-20T07:24:42Z</time>
      </trkpt>
      <trkpt lat="47.27676" lon="-0.21324">
        <ele>86.6</ele>
        <time>2026-06-20T07:24:43Z</time>
      </trkpt>
      <trkpt lat="47.27678" lon="-0.21319">
        <ele>86.6</ele>
        <time>2026-06-20T07:24:44Z</time>
      </trkpt>
      <trkpt lat="47.2768" lon="-0.21313">
        <ele>86.6</ele>
        <time>2026-06-20T07:24:45Z</time>
      </trkpt>
      <trkpt lat="47.27682" lon="-0.21308">
        <ele>86.4</ele>
        <time>2026-06-20T07:24:46Z</time>
      </trkpt>
      <trkpt lat="47.27684" lon="-0.21303">
        <ele>86.4</ele>
        <time>2026-06-20T07:24:47Z</time>
      </trkpt>
      <trkpt lat="47.27686" lon="-0.21298">
        <ele>86.4</ele>
        <time>2026-06-20T07:24:48Z</time>
      </trkpt>
      <trkpt lat="47.27688" lon="-0.21292">
        <ele>86.4</ele>
        <time>2026-06-20T07:24:49Z</time>
      </trkpt>
      <trkpt lat="47.2769" lon="-0.21287">
        <ele>86.4</ele>
        <time>2026-06-20T07:24:50Z</time>
      </trkpt>
      <trkpt lat="47.27692" lon="-0.21282">
        <ele>86.4</ele>
        <time>2026-06-20T07:24:51Z</time>
      </trkpt>
      <trkpt lat="47.27694" lon="-0.21277">
        <ele>86.4</ele>
        <time>2026-06-20T07:24:52Z</time>
      </trkpt>
      <trkpt lat="47.27696" lon="-0.21272">
        <ele>86.4</ele>
        <time>2026-06-20T07:24:53Z</time>
      </trkpt>
      <trkpt lat="47.27698" lon="-0.21267">
        <ele>86.4</ele>
        <time>2026-06-20T07:24:54Z</time>
      </trkpt>
      <trkpt lat="47.277" lon="-0.21262">
        <ele>86.4</ele>
        <time>2026-06-20T07:24:55Z</time>
      </trkpt>
      <trkpt lat="47.27703" lon="-0.21257">
        <ele>86.4</ele>
        <time>2026-06-20T07:24:56Z</time>
      </trkpt>
      <trkpt lat="47.27705" lon="-0.21253">
        <ele>86.4</ele>
        <time>2026-06-20T07:24:57Z</time>
      </trkpt>
      <trkpt lat="47.27708" lon="-0.21249">
        <ele>86.4</ele>
        <time>2026-06-20T07:24:58Z</time>
      </trkpt>
      <trkpt lat="47.27711" lon="-0.21246">
        <ele>86.4</ele>
        <time>2026-06-20T07:24:59Z</time>
      </trkpt>
      <trkpt lat="47.27715" lon="-0.21243">
        <ele>86.6</ele>
        <time>2026-06-20T07:25:00Z</time>
      </trkpt>
      <trkpt lat="47.27718" lon="-0.2124">
        <ele>86.4</ele>
        <time>2026-06-20T07:25:01Z</time>
      </trkpt>
      <trkpt lat="47.27721" lon="-0.21237">
        <ele>86.4</ele>
        <time>2026-06-20T07:25:02Z</time>
      </trkpt>
      <trkpt lat="47.27725" lon="-0.21234">
        <ele>86.4</ele>
        <time>2026-06-20T07:25:03Z</time>
      </trkpt>
      <trkpt lat="47.27729" lon="-0.21231">
        <ele>86.4</ele>
        <time>2026-06-20T07:25:04Z</time>
      </trkpt>
      <trkpt lat="47.27733" lon="-0.21229">
        <ele>86.2</ele>
        <time>2026-06-20T07:25:05Z</time>
      </trkpt>
      <trkpt lat="47.27736" lon="-0.21226">
        <ele>86.2</ele>
        <time>2026-06-20T07:25:06Z</time>
      </trkpt>
      <trkpt lat="47.2774" lon="-0.21223">
        <ele>86.2</ele>
        <time>2026-06-20T07:25:07Z</time>
      </trkpt>
      <trkpt lat="47.27744" lon="-0.21221">
        <ele>86.2</ele>
        <time>2026-06-20T07:25:08Z</time>
      </trkpt>
      <trkpt lat="47.27747" lon="-0.21218">
        <ele>86</ele>
        <time>2026-06-20T07:25:09Z</time>
      </trkpt>
      <trkpt lat="47.27751" lon="-0.21214">
        <ele>86</ele>
        <time>2026-06-20T07:25:10Z</time>
      </trkpt>
      <trkpt lat="47.27755" lon="-0.21211">
        <ele>86</ele>
        <time>2026-06-20T07:25:11Z</time>
      </trkpt>
      <trkpt lat="47.27758" lon="-0.21209">
        <ele>86</ele>
        <time>2026-06-20T07:25:12Z</time>
      </trkpt>
      <trkpt lat="47.27761" lon="-0.21206">
        <ele>86</ele>
        <time>2026-06-20T07:25:13Z</time>
      </trkpt>
      <trkpt lat="47.27765" lon="-0.21203">
        <ele>86</ele>
        <time>2026-06-20T07:25:14Z</time>
      </trkpt>
      <trkpt lat="47.27768" lon="-0.212">
        <ele>86</ele>
        <time>2026-06-20T07:25:15Z</time>
      </trkpt>
      <trkpt lat="47.27771" lon="-0.21197">
        <ele>86</ele>
        <time>2026-06-20T07:25:16Z</time>
      </trkpt>
      <trkpt lat="47.27775" lon="-0.21194">
        <ele>86</ele>
        <time>2026-06-20T07:25:17Z</time>
      </trkpt>
      <trkpt lat="47.27778" lon="-0.21191">
        <ele>86</ele>
        <time>2026-06-20T07:25:18Z</time>
      </trkpt>
      <trkpt lat="47.27782" lon="-0.21189">
        <ele>86.2</ele>
        <time>2026-06-20T07:25:19Z</time>
      </trkpt>
      <trkpt lat="47.27785" lon="-0.21186">
        <ele>86.2</ele>
        <time>2026-06-20T07:25:20Z</time>
      </trkpt>
      <trkpt lat="47.27789" lon="-0.21183">
        <ele>86.2</ele>
        <time>2026-06-20T07:25:21Z</time>
      </trkpt>
      <trkpt lat="47.27792" lon="-0.21181">
        <ele>86.4</ele>
        <time>2026-06-20T07:25:22Z</time>
      </trkpt>
      <trkpt lat="47.27796" lon="-0.21179">
        <ele>86.4</ele>
        <time>2026-06-20T07:25:23Z</time>
      </trkpt>
      <trkpt lat="47.27799" lon="-0.21177">
        <ele>86.4</ele>
        <time>2026-06-20T07:25:24Z</time>
      </trkpt>
      <trkpt lat="47.27803" lon="-0.21175">
        <ele>86.4</ele>
        <time>2026-06-20T07:25:25Z</time>
        <extensions>
          <visugpx:TrkExtension xmlns:visugpx="https://www.visugpx.com/editgpx/">
            <visugpx:node>57</visugpx:node>
            </visugpx:TrkExtension>
        </extensions>
      </trkpt>
      <trkpt lat="47.2779" lon="-0.21037">
        <ele>88</ele>
      </trkpt>
      <trkpt lat="47.27786" lon="-0.21018">
        <ele>88</ele>
      </trkpt>
      <trkpt lat="47.27766" lon="-0.20958">
        <ele>88.4</ele>
      </trkpt>
      <trkpt lat="47.27765" lon="-0.20883">
        <ele>88.5</ele>
      </trkpt>
      <trkpt lat="47.27763" lon="-0.20835">
        <ele>88.5</ele>
      </trkpt>
      <trkpt lat="47.27735" lon="-0.2061">
        <ele>90</ele>
        <extensions>
          <visugpx:TrkExtension xmlns:visugpx="https://www.visugpx.com/editgpx/">
            <visugpx:node>58</visugpx:node>
            </visugpx:TrkExtension>
        </extensions>
      </trkpt>
      <trkpt lat="47.27716" lon="-0.20463">
        <ele>91</ele>
      </trkpt>
      <trkpt lat="47.277" lon="-0.20234">
        <ele>90.4</ele>
        <extensions>
          <visugpx:TrkExtension xmlns:visugpx="https://www.visugpx.com/editgpx/">
            <visugpx:node>59</visugpx:node>
            </visugpx:TrkExtension>
        </extensions>
      </trkpt>
      <trkpt lat="47.27888" lon="-0.20363">
        <ele>89</ele>
      </trkpt>
      <trkpt lat="47.27934" lon="-0.20404">
        <ele>88.4</ele>
      </trkpt>
      <trkpt lat="47.27944" lon="-0.20411">
        <ele>88</ele>
      </trkpt>
      <trkpt lat="47.2795" lon="-0.20412">
        <ele>88</ele>
        <extensions>
          <visugpx:TrkExtension xmlns:visugpx="https://www.visugpx.com/editgpx/">
            <visugpx:node>60</visugpx:node>
            </visugpx:TrkExtension>
        </extensions>
      </trkpt>
      <trkpt lat="47.27957" lon="-0.20413">
        <ele>88</ele>
      </trkpt>
      <trkpt lat="47.27964" lon="-0.20411">
        <ele>88</ele>
      </trkpt>
      <trkpt lat="47.28011" lon="-0.20372">
        <ele>87.6</ele>
        <extensions>
          <visugpx:TrkExtension xmlns:visugpx="https://www.visugpx.com/editgpx/">
            <visugpx:node>61</visugpx:node>
            </visugpx:TrkExtension>
        </extensions>
      </trkpt>
      <trkpt lat="47.28015" lon="-0.20376">
        <ele>87.5</ele>
      </trkpt>
      <trkpt lat="47.28038" lon="-0.20396">
        <ele>87</ele>
      </trkpt>
      <trkpt lat="47.2805" lon="-0.20412">
        <ele>87</ele>
      </trkpt>
      <trkpt lat="47.28072" lon="-0.20459">
        <ele>86.2</ele>
      </trkpt>
      <trkpt lat="47.28081" lon="-0.20463">
        <ele>86</ele>
        <extensions>
          <visugpx:TrkExtension xmlns:visugpx="https://www.visugpx.com/editgpx/">
            <visugpx:node>62</visugpx:node>
            </visugpx:TrkExtension>
        </extensions>
      </trkpt>
      <trkpt lat="47.28159" lon="-0.20499">
        <ele>84.3</ele>
      </trkpt>
      <trkpt lat="47.2826" lon="-0.20501">
        <ele>81.7</ele>
      </trkpt>
      <trkpt lat="47.28272" lon="-0.20498">
        <ele>81.2</ele>
        <extensions>
          <visugpx:TrkExtension xmlns:visugpx="https://www.visugpx.com/editgpx/">
            <visugpx:node>63</visugpx:node>
            </visugpx:TrkExtension>
        </extensions>
      </trkpt>
      <trkpt lat="47.28328" lon="-0.20486">
        <ele>80.2</ele>
      </trkpt>
      <trkpt lat="47.28359" lon="-0.20475">
        <ele>80</ele>
      </trkpt>
      <trkpt lat="47.28406" lon="-0.20453">
        <ele>79</ele>
      </trkpt>
      <trkpt lat="47.28412" lon="-0.20445">
        <ele>79</ele>
        <extensions>
          <visugpx:TrkExtension xmlns:visugpx="https://www.visugpx.com/editgpx/">
            <visugpx:node>64</visugpx:node>
            </visugpx:TrkExtension>
        </extensions>
      </trkpt>
      <trkpt lat="47.28413" lon="-0.20445">
        <ele>79</ele>
      </trkpt>
      <trkpt lat="47.28421" lon="-0.20405">
        <ele>79</ele>
      </trkpt>
      <trkpt lat="47.28433" lon="-0.20351">
        <ele>78.4</ele>
      </trkpt>
      <trkpt lat="47.28447" lon="-0.20301">
        <ele>78</ele>
      </trkpt>
      <trkpt lat="47.28489" lon="-0.2026">
        <ele>77.4</ele>
      </trkpt>
      <trkpt lat="47.28539" lon="-0.20237">
        <ele>77</ele>
      </trkpt>
      <trkpt lat="47.28561" lon="-0.2021">
        <ele>77</ele>
      </trkpt>
      <trkpt lat="47.28591" lon="-0.20179">
        <ele>77</ele>
      </trkpt>
      <trkpt lat="47.28621" lon="-0.20174">
        <ele>77</ele>
      </trkpt>
      <trkpt lat="47.28667" lon="-0.20135">
        <ele>77</ele>
      </trkpt>
      <trkpt lat="47.28673" lon="-0.20132">
        <ele>76.9</ele>
      </trkpt>
      <trkpt lat="47.28684" lon="-0.20131">
        <ele>76.8</ele>
        <extensions>
          <visugpx:TrkExtension xmlns:visugpx="https://www.visugpx.com/editgpx/">
            <visugpx:node>65</visugpx:node>
            </visugpx:TrkExtension>
        </extensions>
      </trkpt>
      <trkpt lat="47.28697" lon="-0.20125">
        <ele>76.5</ele>
        <extensions>
          <visugpx:TrkExtension xmlns:visugpx="https://www.visugpx.com/editgpx/">
            <visugpx:node>66</visugpx:node>
            </visugpx:TrkExtension>
        </extensions>
      </trkpt>
      <trkpt lat="47.28704" lon="-0.20117">
        <ele>76.2</ele>
        <extensions>
          <visugpx:TrkExtension xmlns:visugpx="https://www.visugpx.com/editgpx/">
            <visugpx:node>67</visugpx:node>
            </visugpx:TrkExtension>
        </extensions>
      </trkpt>
      <trkpt lat="47.28708" lon="-0.20105">
        <ele>76</ele>
        <extensions>
          <visugpx:TrkExtension xmlns:visugpx="https://www.visugpx.com/editgpx/">
            <visugpx:node>68</visugpx:node>
            </visugpx:TrkExtension>
        </extensions>
      </trkpt>
      <trkpt lat="47.28709" lon="-0.20093">
        <ele>76</ele>
        <extensions>
          <visugpx:TrkExtension xmlns:visugpx="https://www.visugpx.com/editgpx/">
            <visugpx:node>69</visugpx:node>
            </visugpx:TrkExtension>
        </extensions>
      </trkpt>
      <trkpt lat="47.28711" lon="-0.20064">
        <ele>75.3</ele>
        <extensions>
          <visugpx:TrkExtension xmlns:visugpx="https://www.visugpx.com/editgpx/">
            <visugpx:node>70</visugpx:node>
            </visugpx:TrkExtension>
        </extensions>
      </trkpt>
      <trkpt lat="47.28711" lon="-0.20058">
        <ele>75.1</ele>
        <extensions>
          <visugpx:TrkExtension xmlns:visugpx="https://www.visugpx.com/editgpx/">
            <visugpx:node>71</visugpx:node>
            </visugpx:TrkExtension>
        </extensions>
      </trkpt>
      <trkpt lat="47.28715" lon="-0.20041">
        <ele>74.8</ele>
        <extensions>
          <visugpx:TrkExtension xmlns:visugpx="https://www.visugpx.com/editgpx/">
            <visugpx:node>72</visugpx:node>
            </visugpx:TrkExtension>
        </extensions>
      </trkpt>
      <trkpt lat="47.28716" lon="-0.20033">
        <ele>74.8</ele>
        <extensions>
          <visugpx:TrkExtension xmlns:visugpx="https://www.visugpx.com/editgpx/">
            <visugpx:node>73</visugpx:node>
            </visugpx:TrkExtension>
        </extensions>
      </trkpt>
      <trkpt lat="47.28721" lon="-0.20024">
        <ele>74.9</ele>
        <extensions>
          <visugpx:TrkExtension xmlns:visugpx="https://www.visugpx.com/editgpx/">
            <visugpx:node>74</visugpx:node>
            </visugpx:TrkExtension>
        </extensions>
      </trkpt>
      <trkpt lat="47.28725" lon="-0.20013">
        <ele>75.1</ele>
        <extensions>
          <visugpx:TrkExtension xmlns:visugpx="https://www.visugpx.com/editgpx/">
            <visugpx:node>75</visugpx:node>
            </visugpx:TrkExtension>
        </extensions>
      </trkpt>
      <trkpt lat="47.28731" lon="-0.19994">
        <ele>75.2</ele>
        <extensions>
          <visugpx:TrkExtension xmlns:visugpx="https://www.visugpx.com/editgpx/">
            <visugpx:node>76</visugpx:node>
            </visugpx:TrkExtension>
        </extensions>
      </trkpt>
      <trkpt lat="47.28733" lon="-0.19983">
        <ele>75</ele>
        <extensions>
          <visugpx:TrkExtension xmlns:visugpx="https://www.visugpx.com/editgpx/">
            <visugpx:node>77</visugpx:node>
            </visugpx:TrkExtension>
        </extensions>
      </trkpt>
      <trkpt lat="47.28732" lon="-0.19976">
        <ele>74.8</ele>
        <extensions>
          <visugpx:TrkExtension xmlns:visugpx="https://www.visugpx.com/editgpx/">
            <visugpx:node>78</visugpx:node>
            </visugpx:TrkExtension>
        </extensions>
      </trkpt>
      <trkpt lat="47.28734" lon="-0.19964">
        <ele>74.8</ele>
        <extensions>
          <visugpx:TrkExtension xmlns:visugpx="https://www.visugpx.com/editgpx/">
            <visugpx:node>79</visugpx:node>
            </visugpx:TrkExtension>
        </extensions>
      </trkpt>
      <trkpt lat="47.28734" lon="-0.19953">
        <ele>74.9</ele>
        <extensions>
          <visugpx:TrkExtension xmlns:visugpx="https://www.visugpx.com/editgpx/">
            <visugpx:node>80</visugpx:node>
            </visugpx:TrkExtension>
        </extensions>
      </trkpt>
      <trkpt lat="47.28736" lon="-0.19949">
        <ele>75</ele>
        <extensions>
          <visugpx:TrkExtension xmlns:visugpx="https://www.visugpx.com/editgpx/">
            <visugpx:node>81</visugpx:node>
            </visugpx:TrkExtension>
        </extensions>
      </trkpt>
      <trkpt lat="47.28735" lon="-0.19943">
        <ele>74.9</ele>
        <extensions>
          <visugpx:TrkExtension xmlns:visugpx="https://www.visugpx.com/editgpx/">
            <visugpx:node>82</visugpx:node>
            </visugpx:TrkExtension>
        </extensions>
      </trkpt>
      <trkpt lat="47.28731" lon="-0.19939">
        <ele>74.6</ele>
        <extensions>
          <visugpx:TrkExtension xmlns:visugpx="https://www.visugpx.com/editgpx/">
            <visugpx:node>83</visugpx:node>
            </visugpx:TrkExtension>
        </extensions>
      </trkpt>
      <trkpt lat="47.28729" lon="-0.19934">
        <ele>74.5</ele>
        <extensions>
          <visugpx:TrkExtension xmlns:visugpx="https://www.visugpx.com/editgpx/">
            <visugpx:node>84</visugpx:node>
            </visugpx:TrkExtension>
        </extensions>
      </trkpt>
      <trkpt lat="47.28729" lon="-0.19925">
        <ele>74.5</ele>
        <extensions>
          <visugpx:TrkExtension xmlns:visugpx="https://www.visugpx.com/editgpx/">
            <visugpx:node>85</visugpx:node>
            </visugpx:TrkExtension>
        </extensions>
      </trkpt>
      <trkpt lat="47.2873" lon="-0.19918">
        <ele>74.6</ele>
        <extensions>
          <visugpx:TrkExtension xmlns:visugpx="https://www.visugpx.com/editgpx/">
            <visugpx:node>86</visugpx:node>
            </visugpx:TrkExtension>
        </extensions>
      </trkpt>
      <trkpt lat="47.28731" lon="-0.19911">
        <ele>74.4</ele>
        <extensions>
          <visugpx:TrkExtension xmlns:visugpx="https://www.visugpx.com/editgpx/">
            <visugpx:node>87</visugpx:node>
            </visugpx:TrkExtension>
        </extensions>
      </trkpt>
      <trkpt lat="47.28734" lon="-0.19893">
        <ele>74</ele>
        <extensions>
          <visugpx:TrkExtension xmlns:visugpx="https://www.visugpx.com/editgpx/">
            <visugpx:node>88</visugpx:node>
            </visugpx:TrkExtension>
        </extensions>
      </trkpt>
      <trkpt lat="47.28735" lon="-0.19888">
        <ele>73.9</ele>
        <extensions>
          <visugpx:TrkExtension xmlns:visugpx="https://www.visugpx.com/editgpx/">
            <visugpx:node>89</visugpx:node>
            </visugpx:TrkExtension>
        </extensions>
      </trkpt>
      <trkpt lat="47.28734" lon="-0.19873">
        <ele>73.5</ele>
        <extensions>
          <visugpx:TrkExtension xmlns:visugpx="https://www.visugpx.com/editgpx/">
            <visugpx:node>90</visugpx:node>
            </visugpx:TrkExtension>
        </extensions>
      </trkpt>
      <trkpt lat="47.28733" lon="-0.19865">
        <ele>73.2</ele>
        <extensions>
          <visugpx:TrkExtension xmlns:visugpx="https://www.visugpx.com/editgpx/">
            <visugpx:node>91</visugpx:node>
            </visugpx:TrkExtension>
        </extensions>
      </trkpt>
      <trkpt lat="47.28739" lon="-0.19827">
        <ele>73</ele>
        <extensions>
          <visugpx:TrkExtension xmlns:visugpx="https://www.visugpx.com/editgpx/">
            <visugpx:node>92</visugpx:node>
            </visugpx:TrkExtension>
        </extensions>
      </trkpt>
      <trkpt lat="47.28741" lon="-0.19807">
        <ele>72.4</ele>
      </trkpt>
      <trkpt lat="47.28754" lon="-0.19764">
        <ele>70.9</ele>
      </trkpt>
      <trkpt lat="47.28755" lon="-0.19745">
        <ele>70.4</ele>
        <extensions>
          <visugpx:TrkExtension xmlns:visugpx="https://www.visugpx.com/editgpx/">
            <visugpx:node>93</visugpx:node>
            </visugpx:TrkExtension>
        </extensions>
      </trkpt>
      <trkpt lat="47.28758" lon="-0.19707">
        <ele>70.1</ele>
      </trkpt>
      <trkpt lat="47.28755" lon="-0.1967">
        <ele>70</ele>
      </trkpt>
      <trkpt lat="47.28755" lon="-0.1967">
        <ele>70</ele>
        <extensions>
          <visugpx:TrkExtension xmlns:visugpx="https://www.visugpx.com/editgpx/">
            <visugpx:node>94</visugpx:node>
            </visugpx:TrkExtension>
        </extensions>
      </trkpt>
      <trkpt lat="47.28771" lon="-0.19633">
        <ele>70.1</ele>
        <extensions>
          <visugpx:TrkExtension xmlns:visugpx="https://www.visugpx.com/editgpx/">
            <visugpx:node>95</visugpx:node>
            </visugpx:TrkExtension>
        </extensions>
      </trkpt>
      <trkpt lat="47.28788" lon="-0.19592">
        <ele>69.8</ele>
      </trkpt>
      <trkpt lat="47.28808" lon="-0.19561">
        <ele>69</ele>
      </trkpt>
      <trkpt lat="47.28832" lon="-0.1954">
        <ele>69</ele>
      </trkpt>
      <trkpt lat="47.28838" lon="-0.19527">
        <ele>69.2</ele>
        <extensions>
          <visugpx:TrkExtension xmlns:visugpx="https://www.visugpx.com/editgpx/">
            <visugpx:node>96</visugpx:node>
            </visugpx:TrkExtension>
        </extensions>
      </trkpt>
      <trkpt lat="47.28955" lon="-0.19289">
        <ele>66.8</ele>
      </trkpt>
      <trkpt lat="47.28961" lon="-0.19284">
        <ele>66.8</ele>
        <extensions>
          <visugpx:TrkExtension xmlns:visugpx="https://www.visugpx.com/editgpx/">
            <visugpx:node>97</visugpx:node>
            </visugpx:TrkExtension>
        </extensions>
      </trkpt>
      <trkpt lat="47.2897" lon="-0.19278">
        <ele>66.9</ele>
      </trkpt>
      <trkpt lat="47.29016" lon="-0.19274">
        <ele>68.9</ele>
      </trkpt>
      <trkpt lat="47.29024" lon="-0.19265">
        <ele>68.8</ele>
      </trkpt>
      <trkpt lat="47.29028" lon="-0.19256">
        <ele>68.4</ele>
        <extensions>
          <visugpx:TrkExtension xmlns:visugpx="https://www.visugpx.com/editgpx/">
            <visugpx:node>98</visugpx:node>
            </visugpx:TrkExtension>
        </extensions>
      </trkpt>
      <trkpt lat="47.29038" lon="-0.19235">
        <ele>68.3</ele>
      </trkpt>
      <trkpt lat="47.29069" lon="-0.19151">
        <ele>66.4</ele>
      </trkpt>
      <trkpt lat="47.29071" lon="-0.19142">
        <ele>66.2</ele>
        <extensions>
          <visugpx:TrkExtension xmlns:visugpx="https://www.visugpx.com/editgpx/">
            <visugpx:node>99</visugpx:node>
            </visugpx:TrkExtension>
        </extensions>
      </trkpt>
      <trkpt lat="47.29082" lon="-0.19104">
        <ele>65.7</ele>
      </trkpt>
      <trkpt lat="47.29085" lon="-0.19088">
        <ele>65.3</ele>
      </trkpt>
      <trkpt lat="47.29089" lon="-0.19054">
        <ele>64.3</ele>
      </trkpt>
      <trkpt lat="47.29132" lon="-0.18969">
        <ele>64.4</ele>
      </trkpt>
      <trkpt lat="47.29194" lon="-0.18856">
        <ele>64.5</ele>
        <extensions>
          <visugpx:TrkExtension xmlns:visugpx="https://www.visugpx.com/editgpx/">
            <visugpx:node>100</visugpx:node>
            </visugpx:TrkExtension>
        </extensions>
      </trkpt>
      <trkpt lat="47.29219" lon="-0.18813">
        <ele>64.2</ele>
        <extensions>
          <visugpx:TrkExtension xmlns:visugpx="https://www.visugpx.com/editgpx/">
            <visugpx:node>101</visugpx:node>
            </visugpx:TrkExtension>
        </extensions>
      </trkpt>
      <trkpt lat="47.29232" lon="-0.18787">
        <ele>64.4</ele>
        <extensions>
          <visugpx:TrkExtension xmlns:visugpx="https://www.visugpx.com/editgpx/">
            <visugpx:node>102</visugpx:node>
            </visugpx:TrkExtension>
        </extensions>
      </trkpt>
      <trkpt lat="47.29248" lon="-0.18799">
        <ele>66.5</ele>
        <extensions>
          <visugpx:TrkExtension xmlns:visugpx="https://www.visugpx.com/editgpx/">
            <visugpx:node>103</visugpx:node>
            </visugpx:TrkExtension>
        </extensions>
      </trkpt>
      <trkpt lat="47.29266" lon="-0.1881">
        <ele>69.1</ele>
        <extensions>
          <visugpx:TrkExtension xmlns:visugpx="https://www.visugpx.com/editgpx/">
            <visugpx:node>104</visugpx:node>
            </visugpx:TrkExtension>
        </extensions>
      </trkpt>
      <trkpt lat="47.29281" lon="-0.18836">
        <ele>72.4</ele>
        <extensions>
          <visugpx:TrkExtension xmlns:visugpx="https://www.visugpx.com/editgpx/">
            <visugpx:node>105</visugpx:node>
            </visugpx:TrkExtension>
        </extensions>
      </trkpt>
      <trkpt lat="47.29398" lon="-0.18934">
        <ele>80.6</ele>
        <extensions>
          <visugpx:TrkExtension xmlns:visugpx="https://www.visugpx.com/editgpx/">
            <visugpx:node>106</visugpx:node>
            </visugpx:TrkExtension>
        </extensions>
      </trkpt>
      <trkpt lat="47.29399" lon="-0.18945">
        <ele>81</ele>
        <extensions>
          <visugpx:TrkExtension xmlns:visugpx="https://www.visugpx.com/editgpx/">
            <visugpx:node>107</visugpx:node>
            </visugpx:TrkExtension>
        </extensions>
      </trkpt>
      <trkpt lat="47.29392" lon="-0.18967">
        <ele>82.6</ele>
        <extensions>
          <visugpx:TrkExtension xmlns:visugpx="https://www.visugpx.com/editgpx/">
            <visugpx:node>108</visugpx:node>
            </visugpx:TrkExtension>
        </extensions>
      </trkpt>
      <trkpt lat="47.2938" lon="-0.18988">
        <ele>83.4</ele>
        <extensions>
          <visugpx:TrkExtension xmlns:visugpx="https://www.visugpx.com/editgpx/">
            <visugpx:node>109</visugpx:node>
            </visugpx:TrkExtension>
        </extensions>
      </trkpt>
      <trkpt lat="47.29377" lon="-0.19007">
        <ele>83.8</ele>
        <extensions>
          <visugpx:TrkExtension xmlns:visugpx="https://www.visugpx.com/editgpx/">
            <visugpx:node>110</visugpx:node>
            </visugpx:TrkExtension>
        </extensions>
      </trkpt>
      <trkpt lat="47.29386" lon="-0.19032">
        <ele>84.9</ele>
        <extensions>
          <visugpx:TrkExtension xmlns:visugpx="https://www.visugpx.com/editgpx/">
            <visugpx:node>111</visugpx:node>
            </visugpx:TrkExtension>
        </extensions>
      </trkpt>
      <trkpt lat="47.29421" lon="-0.19096">
        <ele>85.9</ele>
        <extensions>
          <visugpx:TrkExtension xmlns:visugpx="https://www.visugpx.com/editgpx/">
            <visugpx:node>112</visugpx:node>
            </visugpx:TrkExtension>
        </extensions>
      </trkpt>
      <trkpt lat="47.29432" lon="-0.19098">
        <ele>85.8</ele>
        <extensions>
          <visugpx:TrkExtension xmlns:visugpx="https://www.visugpx.com/editgpx/">
            <visugpx:node>113</visugpx:node>
            </visugpx:TrkExtension>
        </extensions>
      </trkpt>
      <trkpt lat="47.29438" lon="-0.19089">
        <ele>85.4</ele>
        <extensions>
          <visugpx:TrkExtension xmlns:visugpx="https://www.visugpx.com/editgpx/">
            <visugpx:node>114</visugpx:node>
            </visugpx:TrkExtension>
        </extensions>
      </trkpt>
      <trkpt lat="47.29504" lon="-0.18953">
        <ele>83.3</ele>
        <extensions>
          <visugpx:TrkExtension xmlns:visugpx="https://www.visugpx.com/editgpx/">
            <visugpx:node>115</visugpx:node>
            </visugpx:TrkExtension>
        </extensions>
      </trkpt>
      <trkpt lat="47.29521" lon="-0.18944">
        <ele>83</ele>
        <extensions>
          <visugpx:TrkExtension xmlns:visugpx="https://www.visugpx.com/editgpx/">
            <visugpx:node>116</visugpx:node>
            </visugpx:TrkExtension>
        </extensions>
      </trkpt>
      <trkpt lat="47.29542" lon="-0.18948">
        <ele>83.1</ele>
        <extensions>
          <visugpx:TrkExtension xmlns:visugpx="https://www.visugpx.com/editgpx/">
            <visugpx:node>117</visugpx:node>
            </visugpx:TrkExtension>
        </extensions>
      </trkpt>
      <trkpt lat="47.29561" lon="-0.18959">
        <ele>82.7</ele>
        <extensions>
          <visugpx:TrkExtension xmlns:visugpx="https://www.visugpx.com/editgpx/">
            <visugpx:node>118</visugpx:node>
            </visugpx:TrkExtension>
        </extensions>
      </trkpt>
      <trkpt lat="47.29569" lon="-0.18956">
        <ele>82.2</ele>
        <extensions>
          <visugpx:TrkExtension xmlns:visugpx="https://www.visugpx.com/editgpx/">
            <visugpx:node>119</visugpx:node>
            </visugpx:TrkExtension>
        </extensions>
      </trkpt>
      <trkpt lat="47.29616" lon="-0.18875">
        <ele>78.4</ele>
        <extensions>
          <visugpx:TrkExtension xmlns:visugpx="https://www.visugpx.com/editgpx/">
            <visugpx:node>120</visugpx:node>
            </visugpx:TrkExtension>
        </extensions>
      </trkpt>
      <trkpt lat="47.29636" lon="-0.18824">
        <ele>77.1</ele>
        <extensions>
          <visugpx:TrkExtension xmlns:visugpx="https://www.visugpx.com/editgpx/">
            <visugpx:node>121</visugpx:node>
            </visugpx:TrkExtension>
        </extensions>
      </trkpt>
      <trkpt lat="47.2965" lon="-0.18801">
        <ele>77</ele>
        <extensions>
          <visugpx:TrkExtension xmlns:visugpx="https://www.visugpx.com/editgpx/">
            <visugpx:node>122</visugpx:node>
            </visugpx:TrkExtension>
        </extensions>
      </trkpt>
      <trkpt lat="47.29654" lon="-0.18777">
        <ele>77</ele>
        <extensions>
          <visugpx:TrkExtension xmlns:visugpx="https://www.visugpx.com/editgpx/">
            <visugpx:node>123</visugpx:node>
            </visugpx:TrkExtension>
        </extensions>
      </trkpt>
      <trkpt lat="47.2965" lon="-0.18711">
        <ele>76.4</ele>
        <extensions>
          <visugpx:TrkExtension xmlns:visugpx="https://www.visugpx.com/editgpx/">
            <visugpx:node>124</visugpx:node>
            </visugpx:TrkExtension>
        </extensions>
      </trkpt>
      <trkpt lat="47.29646" lon="-0.18684">
        <ele>76.2</ele>
      </trkpt>
      <trkpt lat="47.2964" lon="-0.18652">
        <ele>75.5</ele>
      </trkpt>
      <trkpt lat="47.29618" lon="-0.18566">
        <ele>72.9</ele>
      </trkpt>
      <trkpt lat="47.29619" lon="-0.18559">
        <ele>72.6</ele>
      </trkpt>
      <trkpt lat="47.29619" lon="-0.18559">
        <ele>72.6</ele>
        <extensions>
          <visugpx:TrkExtension xmlns:visugpx="https://www.visugpx.com/editgpx/">
            <visugpx:node>125</visugpx:node>
            </visugpx:TrkExtension>
        </extensions>
      </trkpt>
      <trkpt lat="47.29626" lon="-0.18542">
        <ele>72.4</ele>
      </trkpt>
      <trkpt lat="47.29669" lon="-0.1841">
        <ele>69.6</ele>
      </trkpt>
      <trkpt lat="47.29673" lon="-0.18394">
        <ele>68.8</ele>
        <extensions>
          <visugpx:TrkExtension xmlns:visugpx="https://www.visugpx.com/editgpx/">
            <visugpx:node>126</visugpx:node>
            </visugpx:TrkExtension>
        </extensions>
      </trkpt>
      <trkpt lat="47.29673" lon="-0.18394">
        <ele>68.8</ele>
      </trkpt>
      <trkpt lat="47.29674" lon="-0.1836">
        <ele>67.5</ele>
      </trkpt>
      <trkpt lat="47.29703" lon="-0.183">
        <ele>66.8</ele>
        <extensions>
          <visugpx:TrkExtension xmlns:visugpx="https://www.visugpx.com/editgpx/">
            <visugpx:node>127</visugpx:node>
            </visugpx:TrkExtension>
        </extensions>
      </trkpt>
      <trkpt lat="47.29662" lon="-0.182">
        <ele>57.1</ele>
        <extensions>
          <visugpx:TrkExtension xmlns:visugpx="https://www.visugpx.com/editgpx/">
            <visugpx:node>128</visugpx:node>
            </visugpx:TrkExtension>
        </extensions>
      </trkpt>
      <trkpt lat="47.29662" lon="-0.18199">
        <ele>56.9</ele>
      </trkpt>
      <trkpt lat="47.29563" lon="-0.18081">
        <ele>56.4</ele>
      </trkpt>
      <trkpt lat="47.29561" lon="-0.18078">
        <ele>56.6</ele>
      </trkpt>
      <trkpt lat="47.2954" lon="-0.18049">
        <ele>57.7</ele>
      </trkpt>
      <trkpt lat="47.2951" lon="-0.18009">
        <ele>61.6</ele>
      </trkpt>
      <trkpt lat="47.29463" lon="-0.17948">
        <ele>69.5</ele>
      </trkpt>
      <trkpt lat="47.29456" lon="-0.17932">
        <ele>71.1</ele>
        <extensions>
          <visugpx:TrkExtension xmlns:visugpx="https://www.visugpx.com/editgpx/">
            <visugpx:node>129</visugpx:node>
            </visugpx:TrkExtension>
        </extensions>
      </trkpt>
      <trkpt lat="47.29434" lon="-0.17882">
        <ele>76.4</ele>
      </trkpt>
      <trkpt lat="47.29407" lon="-0.1781">
        <ele>80.4</ele>
      </trkpt>
      <trkpt lat="47.29381" lon="-0.17755">
        <ele>83.2</ele>
      </trkpt>
      <trkpt lat="47.2938" lon="-0.1775">
        <ele>83.3</ele>
        <extensions>
          <visugpx:TrkExtension xmlns:visugpx="https://www.visugpx.com/editgpx/">
            <visugpx:node>130</visugpx:node>
            </visugpx:TrkExtension>
        </extensions>
      </trkpt>
      <trkpt lat="47.29371" lon="-0.17724">
        <ele>83.6</ele>
      </trkpt>
      <trkpt lat="47.29354" lon="-0.17682">
        <ele>83.7</ele>
      </trkpt>
      <trkpt lat="47.2937" lon="-0.17636">
        <ele>82.6</ele>
      </trkpt>
      <trkpt lat="47.29372" lon="-0.17588">
        <ele>81.7</ele>
        <extensions>
          <visugpx:TrkExtension xmlns:visugpx="https://www.visugpx.com/editgpx/">
            <visugpx:node>131</visugpx:node>
            </visugpx:TrkExtension>
        </extensions>
      </trkpt>
      <trkpt lat="47.29373" lon="-0.17574">
        <ele>81</ele>
      </trkpt>
      <trkpt lat="47.29378" lon="-0.17532">
        <ele>79.5</ele>
      </trkpt>
      <trkpt lat="47.29383" lon="-0.17512">
        <ele>77.7</ele>
      </trkpt>
      <trkpt lat="47.2939" lon="-0.17497">
        <ele>76</ele>
      </trkpt>
      <trkpt lat="47.29407" lon="-0.17477">
        <ele>74.8</ele>
        <extensions>
          <visugpx:TrkExtension xmlns:visugpx="https://www.visugpx.com/editgpx/">
            <visugpx:node>132</visugpx:node>
            </visugpx:TrkExtension>
        </extensions>
      </trkpt>
      <trkpt lat="47.29449" lon="-0.17429">
        <ele>76.9</ele>
      </trkpt>
      <trkpt lat="47.29449" lon="-0.17422">
        <ele>77.4</ele>
      </trkpt>
      <trkpt lat="47.29446" lon="-0.17403">
        <ele>78.9</ele>
        <extensions>
          <visugpx:TrkExtension xmlns:visugpx="https://www.visugpx.com/editgpx/">
            <visugpx:node>133</visugpx:node>
            </visugpx:TrkExtension>
        </extensions>
      </trkpt>
      <trkpt lat="47.29443" lon="-0.17384">
        <ele>79.9</ele>
      </trkpt>
      <trkpt lat="47.29437" lon="-0.17318">
        <ele>80.1</ele>
      </trkpt>
      <trkpt lat="47.2944" lon="-0.17309">
        <ele>80.1</ele>
      </trkpt>
      <trkpt lat="47.29457" lon="-0.17275">
        <ele>80.5</ele>
      </trkpt>
      <trkpt lat="47.29471" lon="-0.17253">
        <ele>80</ele>
      </trkpt>
      <trkpt lat="47.29516" lon="-0.17203">
        <ele>80.1</ele>
      </trkpt>
      <trkpt lat="47.29564" lon="-0.17159">
        <ele>79.9</ele>
      </trkpt>
      <trkpt lat="47.29621" lon="-0.17096">
        <ele>78.2</ele>
      </trkpt>
      <trkpt lat="47.29676" lon="-0.17029">
        <ele>80.5</ele>
      </trkpt>
      <trkpt lat="47.29699" lon="-0.17019">
        <ele>80.6</ele>
      </trkpt>
      <trkpt lat="47.29751" lon="-0.17">
        <ele>81</ele>
      </trkpt>
      <trkpt lat="47.29774" lon="-0.16978">
        <ele>80.1</ele>
      </trkpt>
      <trkpt lat="47.29798" lon="-0.1694">
        <ele>80</ele>
      </trkpt>
      <trkpt lat="47.29809" lon="-0.16925">
        <ele>80</ele>
      </trkpt>
      <trkpt lat="47.29876" lon="-0.16881">
        <ele>81</ele>
      </trkpt>
      <trkpt lat="47.29898" lon="-0.16863">
        <ele>81</ele>
      </trkpt>
      <trkpt lat="47.29964" lon="-0.16819">
        <ele>80.6</ele>
      </trkpt>
      <trkpt lat="47.3017" lon="-0.16637">
        <ele>69.7</ele>
      </trkpt>
      <trkpt lat="47.30292" lon="-0.16509">
        <ele>52.3</ele>
      </trkpt>
      <trkpt lat="47.30321" lon="-0.16475">
        <ele>49.9</ele>
      </trkpt>
      <trkpt lat="47.30347" lon="-0.16462">
        <ele>50</ele>
        <extensions>
          <visugpx:TrkExtension xmlns:visugpx="https://www.visugpx.com/editgpx/">
            <visugpx:node>134</visugpx:node>
            </visugpx:TrkExtension>
        </extensions>
      </trkpt>
      <trkpt lat="47.30361" lon="-0.16454">
        <ele>50.3</ele>
      </trkpt>
      <trkpt lat="47.3037" lon="-0.16455">
        <ele>50.2</ele>
      </trkpt>
      <trkpt lat="47.30378" lon="-0.16456">
        <ele>50.1</ele>
      </trkpt>
      <trkpt lat="47.30389" lon="-0.16469">
        <ele>49.2</ele>
      </trkpt>
      <trkpt lat="47.3039" lon="-0.16484">
        <ele>48.6</ele>
      </trkpt>
      <trkpt lat="47.30392" lon="-0.16498">
        <ele>47.8</ele>
      </trkpt>
      <trkpt lat="47.30395" lon="-0.16509">
        <ele>47.7</ele>
      </trkpt>
      <trkpt lat="47.30399" lon="-0.16521">
        <ele>47.8</ele>
      </trkpt>
      <trkpt lat="47.30405" lon="-0.16537">
        <ele>47.9</ele>
      </trkpt>
      <trkpt lat="47.30434" lon="-0.16607">
        <ele>49.6</ele>
      </trkpt>
      <trkpt lat="47.30437" lon="-0.16619">
        <ele>49.7</ele>
        <extensions>
          <visugpx:TrkExtension xmlns:visugpx="https://www.visugpx.com/editgpx/">
            <visugpx:node>135</visugpx:node>
            </visugpx:TrkExtension>
        </extensions>
      </trkpt>
      <trkpt lat="47.30496" lon="-0.16567">
        <ele>55.1</ele>
      </trkpt>
      <trkpt lat="47.30514" lon="-0.16538">
        <ele>57.9</ele>
      </trkpt>
      <trkpt lat="47.30523" lon="-0.16551">
        <ele>59.3</ele>
      </trkpt>
      <trkpt lat="47.30535" lon="-0.16587">
        <ele>61.5</ele>
      </trkpt>
      <trkpt lat="47.3054" lon="-0.16593">
        <ele>62.3</ele>
      </trkpt>
      <trkpt lat="47.30552" lon="-0.16599">
        <ele>64.5</ele>
      </trkpt>
      <trkpt lat="47.30591" lon="-0.16595">
        <ele>70</ele>
        <extensions>
          <visugpx:TrkExtension xmlns:visugpx="https://www.visugpx.com/editgpx/">
            <visugpx:node>136</visugpx:node>
            </visugpx:TrkExtension>
        </extensions>
      </trkpt>
      <trkpt lat="47.30604" lon="-0.16594">
        <ele>71.4</ele>
      </trkpt>
      <trkpt lat="47.30618" lon="-0.16599">
        <ele>72.7</ele>
      </trkpt>
      <trkpt lat="47.30643" lon="-0.16577">
        <ele>76.7</ele>
      </trkpt>
      <trkpt lat="47.30661" lon="-0.16551">
        <ele>79.4</ele>
      </trkpt>
      <trkpt lat="47.30668" lon="-0.1653">
        <ele>80</ele>
        <extensions>
          <visugpx:TrkExtension xmlns:visugpx="https://www.visugpx.com/editgpx/">
            <visugpx:node>137</visugpx:node>
            </visugpx:TrkExtension>
        </extensions>
      </trkpt>
      <trkpt lat="47.30673" lon="-0.16515">
        <ele>79.7</ele>
      </trkpt>
      <trkpt lat="47.30716" lon="-0.1643">
        <ele>79.7</ele>
      </trkpt>
      <trkpt lat="47.30735" lon="-0.16381">
        <ele>79.3</ele>
      </trkpt>
      <trkpt lat="47.30761" lon="-0.16303">
        <ele>76.6</ele>
      </trkpt>
      <trkpt lat="47.3083" lon="-0.16043">
        <ele>73.2</ele>
      </trkpt>
      <trkpt lat="47.30833" lon="-0.16035">
        <ele>73.2</ele>
        <extensions>
          <visugpx:TrkExtension xmlns:visugpx="https://www.visugpx.com/editgpx/">
            <visugpx:node>138</visugpx:node>
            </visugpx:TrkExtension>
        </extensions>
      </trkpt>
      <trkpt lat="47.30835" lon="-0.16028">
        <ele>73.1</ele>
      </trkpt>
      <trkpt lat="47.30846" lon="-0.16026">
        <ele>73.5</ele>
      </trkpt>
      <trkpt lat="47.30833" lon="-0.16008">
        <ele>73.6</ele>
      </trkpt>
      <trkpt lat="47.30805" lon="-0.1596">
        <ele>69.7</ele>
        <extensions>
          <visugpx:TrkExtension xmlns:visugpx="https://www.visugpx.com/editgpx/">
            <visugpx:node>139</visugpx:node>
            </visugpx:TrkExtension>
        </extensions>
      </trkpt>
      <trkpt lat="47.30788" lon="-0.15931">
        <ele>64.9</ele>
        <extensions>
          <visugpx:TrkExtension xmlns:visugpx="https://www.visugpx.com/editgpx/">
            <visugpx:node>140</visugpx:node>
            </visugpx:TrkExtension>
        </extensions>
      </trkpt>
      <trkpt lat="47.30787" lon="-0.15928">
        <ele>64.3</ele>
      </trkpt>
      <trkpt lat="47.30764" lon="-0.15932">
        <ele>57.1</ele>
      </trkpt>
      <trkpt lat="47.3073" lon="-0.15941">
        <ele>46.3</ele>
      </trkpt>
      <trkpt lat="47.30723" lon="-0.15951">
        <ele>42.9</ele>
        <extensions>
          <visugpx:TrkExtension xmlns:visugpx="https://www.visugpx.com/editgpx/">
            <visugpx:node>141</visugpx:node>
            </visugpx:TrkExtension>
        </extensions>
      </trkpt>
      <trkpt lat="47.30719" lon="-0.15956">
        <ele>42</ele>
      </trkpt>
      <trkpt lat="47.30711" lon="-0.15962">
        <ele>40.1</ele>
      </trkpt>
      <trkpt lat="47.30694" lon="-0.15967">
        <ele>37</ele>
      </trkpt>
      <trkpt lat="47.30689" lon="-0.15968">
        <ele>37</ele>
      </trkpt>
      <trkpt lat="47.30687" lon="-0.15966">
        <ele>37</ele>
        <extensions>
          <visugpx:TrkExtension xmlns:visugpx="https://www.visugpx.com/editgpx/">
            <visugpx:node>142</visugpx:node>
            </visugpx:TrkExtension>
        </extensions>
      </trkpt>
      <trkpt lat="47.30685" lon="-0.15964">
        <ele>37</ele>
      </trkpt>
      <trkpt lat="47.30682" lon="-0.15954">
        <ele>37</ele>
      </trkpt>
      <trkpt lat="47.30678" lon="-0.15939">
        <ele>36.9</ele>
      </trkpt>
      <trkpt lat="47.30645" lon="-0.15892">
        <ele>36</ele>
      </trkpt>
      <trkpt lat="47.30642" lon="-0.15889">
        <ele>36</ele>
      </trkpt>
      <trkpt lat="47.30645" lon="-0.15882">
        <ele>35.8</ele>
        <extensions>
          <visugpx:TrkExtension xmlns:visugpx="https://www.visugpx.com/editgpx/">
            <visugpx:node>143</visugpx:node>
            </visugpx:TrkExtension>
        </extensions>
      </trkpt>
      <trkpt lat="47.30649" lon="-0.15873">
        <ele>35.6</ele>
      </trkpt>
      <trkpt lat="47.30663" lon="-0.15847">
        <ele>35.4</ele>
      </trkpt>
      <trkpt lat="47.30677" lon="-0.15828">
        <ele>35.8</ele>
      </trkpt>
      <trkpt lat="47.30692" lon="-0.15807">
        <ele>36</ele>
      </trkpt>
      <trkpt lat="47.30698" lon="-0.15798">
        <ele>36.3</ele>
      </trkpt>
      <trkpt lat="47.30702" lon="-0.15787">
        <ele>36.9</ele>
      </trkpt>
      <trkpt lat="47.30704" lon="-0.15777">
        <ele>36.9</ele>
      </trkpt>
      <trkpt lat="47.30704" lon="-0.15765">
        <ele>35.7</ele>
      </trkpt>
      <trkpt lat="47.30704" lon="-0.15746">
        <ele>34</ele>
        <extensions>
          <visugpx:TrkExtension xmlns:visugpx="https://www.visugpx.com/editgpx/">
            <visugpx:node>144</visugpx:node>
            </visugpx:TrkExtension>
        </extensions>
      </trkpt>
      <trkpt lat="47.30702" lon="-0.15712">
        <ele>33.8</ele>
      </trkpt>
      <trkpt lat="47.30701" lon="-0.15701">
        <ele>33.2</ele>
      </trkpt>
      <trkpt lat="47.30696" lon="-0.15681">
        <ele>32.2</ele>
      </trkpt>
      <trkpt lat="47.30672" lon="-0.15612">
        <ele>31.2</ele>
      </trkpt>
      <trkpt lat="47.30666" lon="-0.15597">
        <ele>31</ele>
      </trkpt>
      <trkpt lat="47.30662" lon="-0.15584">
        <ele>31.3</ele>
      </trkpt>
      <trkpt lat="47.30661" lon="-0.15576">
        <ele>31.5</ele>
        <extensions>
          <visugpx:TrkExtension xmlns:visugpx="https://www.visugpx.com/editgpx/">
            <visugpx:node>145</visugpx:node>
            </visugpx:TrkExtension>
        </extensions>
      </trkpt>
      <trkpt lat="47.3066" lon="-0.15569">
        <ele>31.6</ele>
      </trkpt>
      <trkpt lat="47.30658" lon="-0.15552">
        <ele>32</ele>
      </trkpt>
      <trkpt lat="47.30657" lon="-0.15535">
        <ele>32.5</ele>
      </trkpt>
      <trkpt lat="47.30658" lon="-0.15519">
        <ele>32.5</ele>
      </trkpt>
      <trkpt lat="47.3066" lon="-0.15497">
        <ele>32.3</ele>
      </trkpt>
      <trkpt lat="47.30666" lon="-0.15474">
        <ele>32</ele>
      </trkpt>
      <trkpt lat="47.30706" lon="-0.15373">
        <ele>29</ele>
        <extensions>
          <visugpx:TrkExtension xmlns:visugpx="https://www.visugpx.com/editgpx/">
            <visugpx:node>146</visugpx:node>
            </visugpx:TrkExtension>
        </extensions>
      </trkpt>
      <trkpt lat="47.30713" lon="-0.15355">
        <ele>28.6</ele>
      </trkpt>
      <trkpt lat="47.30734" lon="-0.15294">
        <ele>27.1</ele>
      </trkpt>
      <trkpt lat="47.30743" lon="-0.15264">
        <ele>27.4</ele>
      </trkpt>
      <trkpt lat="47.30747" lon="-0.15247">
        <ele>28.2</ele>
        <extensions>
          <visugpx:TrkExtension xmlns:visugpx="https://www.visugpx.com/editgpx/">
            <visugpx:node>147</visugpx:node>
            </visugpx:TrkExtension>
        </extensions>
      </trkpt>
      <trkpt lat="47.30751" lon="-0.15233">
        <ele>28.6</ele>
      </trkpt>
      <trkpt lat="47.30753" lon="-0.15229">
        <ele>28.6</ele>
        <extensions>
          <visugpx:TrkExtension xmlns:visugpx="https://www.visugpx.com/editgpx/">
            <visugpx:node>148</visugpx:node>
            </visugpx:TrkExtension>
        </extensions>
      </trkpt>
      <trkpt lat="47.30764" lon="-0.15243">
        <ele>28.4</ele>
      </trkpt>
      <trkpt lat="47.3077" lon="-0.15252">
        <ele>28.6</ele>
        <extensions>
          <visugpx:TrkExtension xmlns:visugpx="https://www.visugpx.com/editgpx/">
            <visugpx:node>149</visugpx:node>
            </visugpx:TrkExtension>
        </extensions>
      </trkpt>
      <trkpt lat="47.30783" lon="-0.1525">
        <ele>29</ele>
        <extensions>
          <visugpx:TrkExtension xmlns:visugpx="https://www.visugpx.com/editgpx/">
            <visugpx:node>150</visugpx:node>
            </visugpx:TrkExtension>
        </extensions>
      </trkpt>
      <trkpt lat="47.30788" lon="-0.15252">
        <ele>29</ele>
        <extensions>
          <visugpx:TrkExtension xmlns:visugpx="https://www.visugpx.com/editgpx/">
            <visugpx:node>151</visugpx:node>
            </visugpx:TrkExtension>
        </extensions>
      </trkpt>
      <trkpt lat="47.3079" lon="-0.15256">
        <ele>28.9</ele>
        <extensions>
          <visugpx:TrkExtension xmlns:visugpx="https://www.visugpx.com/editgpx/">
            <visugpx:node>152</visugpx:node>
            </visugpx:TrkExtension>
        </extensions>
      </trkpt>
      <trkpt lat="47.30788" lon="-0.15257">
        <ele>28.8</ele>
        <time>2026-06-20T05:34:58Z</time>
        <extensions>
          <visugpx:TrkExtension xmlns:visugpx="https://www.visugpx.com/editgpx/">
            <visugpx:node>153</visugpx:node>
            </visugpx:TrkExtension>
        </extensions>
      </trkpt>
    </trkseg>
  </trk>
</gpx>